<?xml version='1.0' encoding='UTF-8'?><gpx version="1.1" creator="JPX - https://github.com/jenetics/jpx" xmlns="http://www.topografix.com/GPX/1/1"><trk><trkseg><trkpt lat="44.1308919" lon="12.2229104"><ele>42.0</ele><time>2026-05-01T07:15:38.274Z</time></trkpt><trkpt lat="44.1308747" lon="12.2230206"><ele>42.0</ele><time>2026-05-01T07:18:18.272Z</time></trkpt><trkpt lat="44.1308081" lon="12.2230032"><ele>42.0</ele><time>2026-05-01T07:21:27.274Z</time></trkpt><trkpt lat="44.1308224" lon="12.2227903"><ele>42.0</ele><time>2026-05-01T07:24:30.272Z</time></trkpt><trkpt lat="44.1308487" lon="12.2226635"><ele>42.0</ele><time>2026-05-01T07:24:31.258Z</time></trkpt><trkpt lat="44.1307771" lon="12.2225379"><ele>42.0</ele><time>2026-05-01T07:24:32.267Z</time></trkpt><trkpt lat="44.1307277" lon="12.2223771"><ele>42.0</ele><time>2026-05-01T07:24:33.263Z</time></trkpt><trkpt lat="44.1307171" lon="12.2222257"><ele>42.0</ele><time>2026-05-01T07:24:34.262Z</time></trkpt><trkpt lat="44.1306856" lon="12.2220912"><ele>42.0</ele><time>2026-05-01T07:24:35.273Z</time></trkpt><trkpt lat="44.130648" lon="12.2218937"><ele>42.400000000000006</ele><time>2026-05-01T07:24:36.27Z</time></trkpt><trkpt lat="44.130614" lon="12.2217968"><ele>42.800000000000004</ele><time>2026-05-01T07:24:37.258Z</time></trkpt><trkpt lat="44.1305837" lon="12.2216623"><ele>43.2</ele><time>2026-05-01T07:24:38.261Z</time></trkpt><trkpt lat="44.1305594" lon="12.2215392"><ele>43.6</ele><time>2026-05-01T07:24:39.259Z</time></trkpt><trkpt lat="44.1305286" lon="12.2214272"><ele>44.0</ele><time>2026-05-01T07:24:40.27Z</time></trkpt><trkpt lat="44.1304955" lon="12.2213057"><ele>44.2</ele><time>2026-05-01T07:24:41.269Z</time></trkpt><trkpt lat="44.130466" lon="12.2211785"><ele>44.400000000000006</ele><time>2026-05-01T07:24:42.271Z</time></trkpt><trkpt lat="44.1304506" lon="12.2210469"><ele>44.6</ele><time>2026-05-01T07:24:43.265Z</time></trkpt><trkpt lat="44.1304093" lon="12.2208884"><ele>44.8</ele><time>2026-05-01T07:24:44.273Z</time></trkpt><trkpt lat="44.1303614" lon="12.2207731"><ele>45.0</ele><time>2026-05-01T07:24:45.272Z</time></trkpt><trkpt lat="44.1303197" lon="12.2206957"><ele>45.0</ele><time>2026-05-01T07:24:46.277Z</time></trkpt><trkpt lat="44.1302928" lon="12.220596"><ele>45.0</ele><time>2026-05-01T07:24:47.273Z</time></trkpt><trkpt lat="44.1302412" lon="12.2205075"><ele>45.0</ele><time>2026-05-01T07:24:48.261Z</time></trkpt><trkpt lat="44.1301828" lon="12.2203756"><ele>45.0</ele><time>2026-05-01T07:24:49.268Z</time></trkpt><trkpt lat="44.1301274" lon="12.2202742"><ele>45.0</ele><time>2026-05-01T07:24:50.273Z</time></trkpt><trkpt lat="44.1301659" lon="12.2200581"><ele>45.0</ele><time>2026-05-01T07:24:51.274Z</time></trkpt><trkpt lat="44.1301212" lon="12.2199359"><ele>45.0</ele><time>2026-05-01T07:24:52.265Z</time></trkpt><trkpt lat="44.1300902" lon="12.2197938"><ele>45.0</ele><time>2026-05-01T07:24:53.272Z</time></trkpt><trkpt lat="44.1300379" lon="12.2196418"><ele>45.0</ele><time>2026-05-01T07:24:54.272Z</time></trkpt><trkpt lat="44.1300203" lon="12.2194763"><ele>45.0</ele><time>2026-05-01T07:24:55.263Z</time></trkpt><trkpt lat="44.1300128" lon="12.2193075"><ele>45.0</ele><time>2026-05-01T07:24:56.274Z</time></trkpt><trkpt lat="44.1300073" lon="12.2191525"><ele>45.0</ele><time>2026-05-01T07:24:57.261Z</time></trkpt><trkpt lat="44.1299089" lon="12.2189886"><ele>45.0</ele><time>2026-05-01T07:25:00.264Z</time></trkpt><trkpt lat="44.1298224" lon="12.218927"><ele>45.0</ele><time>2026-05-01T07:25:01.273Z</time></trkpt><trkpt lat="44.1296924" lon="12.2188572"><ele>44.0</ele><time>2026-05-01T07:25:02.272Z</time></trkpt><trkpt lat="44.1295807" lon="12.2187743"><ele>43.0</ele><time>2026-05-01T07:25:03.265Z</time></trkpt><trkpt lat="44.1294328" lon="12.2186024"><ele>42.0</ele><time>2026-05-01T07:25:04.274Z</time></trkpt><trkpt lat="44.129295" lon="12.2185054"><ele>42.0</ele><time>2026-05-01T07:25:05.271Z</time></trkpt><trkpt lat="44.1291682" lon="12.2181921"><ele>42.0</ele><time>2026-05-01T07:25:06.27Z</time></trkpt><trkpt lat="44.1290485" lon="12.2180514"><ele>42.0</ele><time>2026-05-01T07:25:07.269Z</time></trkpt><trkpt lat="44.1289471" lon="12.2179288"><ele>42.25</ele><time>2026-05-01T07:25:08.257Z</time></trkpt><trkpt lat="44.1288561" lon="12.2178197"><ele>42.5</ele><time>2026-05-01T07:25:09.269Z</time></trkpt><trkpt lat="44.128767" lon="12.2177058"><ele>42.75</ele><time>2026-05-01T07:25:10.269Z</time></trkpt><trkpt lat="44.1286714" lon="12.2175858"><ele>43.0</ele><time>2026-05-01T07:25:11.268Z</time></trkpt><trkpt lat="44.1285861" lon="12.2174604"><ele>43.0</ele><time>2026-05-01T07:25:12.27Z</time></trkpt><trkpt lat="44.1284725" lon="12.2173195"><ele>43.0</ele><time>2026-05-01T07:25:13.258Z</time></trkpt><trkpt lat="44.1283698" lon="12.2171897"><ele>43.0</ele><time>2026-05-01T07:25:14.271Z</time></trkpt><trkpt lat="44.1282327" lon="12.2169626"><ele>43.66666666666667</ele><time>2026-05-01T07:25:15.271Z</time></trkpt><trkpt lat="44.1281246" lon="12.2167717"><ele>44.333333333333336</ele><time>2026-05-01T07:25:16.265Z</time></trkpt><trkpt lat="44.1280351" lon="12.216593"><ele>45.0</ele><time>2026-05-01T07:25:17.272Z</time></trkpt><trkpt lat="44.12794" lon="12.2163677"><ele>45.666666666666664</ele><time>2026-05-01T07:25:18.271Z</time></trkpt><trkpt lat="44.1278788" lon="12.2161661"><ele>46.33333333333333</ele><time>2026-05-01T07:25:19.27Z</time></trkpt><trkpt lat="44.12781" lon="12.215947"><ele>47.0</ele><time>2026-05-01T07:25:20.26Z</time></trkpt><trkpt lat="44.127749" lon="12.2157412"><ele>47.33333333333333</ele><time>2026-05-01T07:25:21.262Z</time></trkpt><trkpt lat="44.1276905" lon="12.215522"><ele>47.666666666666664</ele><time>2026-05-01T07:25:22.27Z</time></trkpt><trkpt lat="44.1276133" lon="12.215305"><ele>48.0</ele><time>2026-05-01T07:25:23.273Z</time></trkpt><trkpt lat="44.1275444" lon="12.2150833"><ele>48.0</ele><time>2026-05-01T07:25:24.271Z</time></trkpt><trkpt lat="44.1274756" lon="12.2148664"><ele>48.0</ele><time>2026-05-01T07:25:25.258Z</time></trkpt><trkpt lat="44.1274043" lon="12.2146538"><ele>48.0</ele><time>2026-05-01T07:25:26.273Z</time></trkpt><trkpt lat="44.1273248" lon="12.2144485"><ele>48.33333333333333</ele><time>2026-05-01T07:25:27.276Z</time></trkpt><trkpt lat="44.1272733" lon="12.2142464"><ele>48.666666666666664</ele><time>2026-05-01T07:25:28.27Z</time></trkpt><trkpt lat="44.127204" lon="12.2140526"><ele>49.0</ele><time>2026-05-01T07:25:29.258Z</time></trkpt><trkpt lat="44.1271422" lon="12.2138545"><ele>48.25</ele><time>2026-05-01T07:25:30.261Z</time></trkpt><trkpt lat="44.1270721" lon="12.2137011"><ele>47.5</ele><time>2026-05-01T07:25:31.259Z</time></trkpt><trkpt lat="44.1269968" lon="12.2135613"><ele>46.75</ele><time>2026-05-01T07:25:32.268Z</time></trkpt><trkpt lat="44.1269147" lon="12.2134398"><ele>46.0</ele><time>2026-05-01T07:25:33.261Z</time></trkpt><trkpt lat="44.1268389" lon="12.2132934"><ele>46.0</ele><time>2026-05-01T07:25:34.264Z</time></trkpt><trkpt lat="44.1267594" lon="12.2131953"><ele>46.0</ele><time>2026-05-01T07:25:35.263Z</time></trkpt><trkpt lat="44.1266963" lon="12.2131038"><ele>46.0</ele><time>2026-05-01T07:25:36.263Z</time></trkpt><trkpt lat="44.1266306" lon="12.212941"><ele>46.0</ele><time>2026-05-01T07:25:38.271Z</time></trkpt><trkpt lat="44.1266607" lon="12.2127802"><ele>45.833333333333336</ele><time>2026-05-01T07:25:41.262Z</time></trkpt><trkpt lat="44.1267012" lon="12.2126979"><ele>45.66666666666667</ele><time>2026-05-01T07:25:42.268Z</time></trkpt><trkpt lat="44.1267179" lon="12.2126123"><ele>45.5</ele><time>2026-05-01T07:25:43.272Z</time></trkpt><trkpt lat="44.1267226" lon="12.2125034"><ele>45.333333333333336</ele><time>2026-05-01T07:25:44.276Z</time></trkpt><trkpt lat="44.1266995" lon="12.2123981"><ele>45.166666666666664</ele><time>2026-05-01T07:25:45.257Z</time></trkpt><trkpt lat="44.1265855" lon="12.212269"><ele>45.0</ele><time>2026-05-01T07:25:47.27Z</time></trkpt><trkpt lat="44.1264911" lon="12.2123019"><ele>45.6</ele><time>2026-05-01T07:25:48.271Z</time></trkpt><trkpt lat="44.1264203" lon="12.2123317"><ele>46.2</ele><time>2026-05-01T07:25:49.259Z</time></trkpt><trkpt lat="44.1263351" lon="12.2123688"><ele>46.8</ele><time>2026-05-01T07:25:50.276Z</time></trkpt><trkpt lat="44.1261943" lon="12.2123914"><ele>47.4</ele><time>2026-05-01T07:25:51.267Z</time></trkpt><trkpt lat="44.126063" lon="12.2123525"><ele>48.0</ele><time>2026-05-01T07:25:52.271Z</time></trkpt><trkpt lat="44.1258851" lon="12.212286"><ele>48.0</ele><time>2026-05-01T07:25:53.26Z</time></trkpt><trkpt lat="44.1257855" lon="12.2122444"><ele>48.0</ele><time>2026-05-01T07:25:54.268Z</time></trkpt><trkpt lat="44.1256385" lon="12.2121786"><ele>48.0</ele><time>2026-05-01T07:25:55.265Z</time></trkpt><trkpt lat="44.1254368" lon="12.2121096"><ele>47.0</ele><time>2026-05-01T07:25:56.275Z</time></trkpt><trkpt lat="44.125288" lon="12.212058"><ele>46.0</ele><time>2026-05-01T07:25:57.26Z</time></trkpt><trkpt lat="44.1251449" lon="12.2119807"><ele>45.0</ele><time>2026-05-01T07:25:58.271Z</time></trkpt><trkpt lat="44.1250049" lon="12.2119173"><ele>45.5</ele><time>2026-05-01T07:25:59.258Z</time></trkpt><trkpt lat="44.1248679" lon="12.2118359"><ele>46.0</ele><time>2026-05-01T07:26:00.27Z</time></trkpt><trkpt lat="44.1247329" lon="12.2117614"><ele>46.5</ele><time>2026-05-01T07:26:01.266Z</time></trkpt><trkpt lat="44.1245953" lon="12.211695"><ele>47.0</ele><time>2026-05-01T07:26:02.27Z</time></trkpt><trkpt lat="44.1245026" lon="12.2116141"><ele>47.0</ele><time>2026-05-01T07:26:03.272Z</time></trkpt><trkpt lat="44.1243781" lon="12.2115161"><ele>47.0</ele><time>2026-05-01T07:26:04.277Z</time></trkpt><trkpt lat="44.1242645" lon="12.2113953"><ele>47.0</ele><time>2026-05-01T07:26:05.271Z</time></trkpt><trkpt lat="44.1241553" lon="12.2112786"><ele>47.0</ele><time>2026-05-01T07:26:06.274Z</time></trkpt><trkpt lat="44.1240962" lon="12.211178"><ele>46.8</ele><time>2026-05-01T07:26:07.268Z</time></trkpt><trkpt lat="44.1240244" lon="12.2110782"><ele>46.6</ele><time>2026-05-01T07:26:08.271Z</time></trkpt><trkpt lat="44.123967" lon="12.2109693"><ele>46.4</ele><time>2026-05-01T07:26:09.27Z</time></trkpt><trkpt lat="44.1239236" lon="12.2108857"><ele>46.199999999999996</ele><time>2026-05-01T07:26:10.268Z</time></trkpt><trkpt lat="44.1238914" lon="12.210791"><ele>46.0</ele><time>2026-05-01T07:26:11.256Z</time></trkpt><trkpt lat="44.1238839" lon="12.2106442"><ele>45.4</ele><time>2026-05-01T07:26:12.268Z</time></trkpt><trkpt lat="44.1238568" lon="12.2105433"><ele>44.8</ele><time>2026-05-01T07:26:13.269Z</time></trkpt><trkpt lat="44.123804" lon="12.2104588"><ele>44.199999999999996</ele><time>2026-05-01T07:26:14.271Z</time></trkpt><trkpt lat="44.1236953" lon="12.2103448"><ele>43.599999999999994</ele><time>2026-05-01T07:26:15.271Z</time></trkpt><trkpt lat="44.1236024" lon="12.2102376"><ele>43.0</ele><time>2026-05-01T07:26:16.26Z</time></trkpt><trkpt lat="44.1234929" lon="12.2101125"><ele>43.0</ele><time>2026-05-01T07:26:17.26Z</time></trkpt><trkpt lat="44.1233748" lon="12.2098575"><ele>43.0</ele><time>2026-05-01T07:26:18.266Z</time></trkpt><trkpt lat="44.1232821" lon="12.2096622"><ele>43.0</ele><time>2026-05-01T07:26:19.267Z</time></trkpt><trkpt lat="44.1232031" lon="12.209413"><ele>44.333333333333336</ele><time>2026-05-01T07:26:20.27Z</time></trkpt><trkpt lat="44.1231022" lon="12.2091601"><ele>45.666666666666664</ele><time>2026-05-01T07:26:21.261Z</time></trkpt><trkpt lat="44.1230073" lon="12.2089257"><ele>47.0</ele><time>2026-05-01T07:26:22.27Z</time></trkpt><trkpt lat="44.1229057" lon="12.2086788"><ele>47.0</ele><time>2026-05-01T07:26:23.27Z</time></trkpt><trkpt lat="44.1228318" lon="12.2084562"><ele>47.0</ele><time>2026-05-01T07:26:24.27Z</time></trkpt><trkpt lat="44.1227498" lon="12.2082502"><ele>47.0</ele><time>2026-05-01T07:26:25.268Z</time></trkpt><trkpt lat="44.1226794" lon="12.2080211"><ele>46.666666666666664</ele><time>2026-05-01T07:26:26.271Z</time></trkpt><trkpt lat="44.1226177" lon="12.2078381"><ele>46.333333333333336</ele><time>2026-05-01T07:26:27.257Z</time></trkpt><trkpt lat="44.1225241" lon="12.2076546"><ele>46.0</ele><time>2026-05-01T07:26:28.26Z</time></trkpt><trkpt lat="44.1224049" lon="12.2074995"><ele>46.25</ele><time>2026-05-01T07:26:29.26Z</time></trkpt><trkpt lat="44.1222844" lon="12.2073845"><ele>46.5</ele><time>2026-05-01T07:26:30.271Z</time></trkpt><trkpt lat="44.1221598" lon="12.2073523"><ele>46.75</ele><time>2026-05-01T07:26:31.267Z</time></trkpt><trkpt lat="44.1220331" lon="12.2073477"><ele>47.0</ele><time>2026-05-01T07:26:32.261Z</time></trkpt><trkpt lat="44.1219035" lon="12.2073858"><ele>47.0</ele><time>2026-05-01T07:26:33.272Z</time></trkpt><trkpt lat="44.1217686" lon="12.2074689"><ele>47.0</ele><time>2026-05-01T07:26:34.259Z</time></trkpt><trkpt lat="44.1216961" lon="12.2076198"><ele>47.0</ele><time>2026-05-01T07:26:35.262Z</time></trkpt><trkpt lat="44.1216079" lon="12.207771"><ele>47.0</ele><time>2026-05-01T07:26:36.272Z</time></trkpt><trkpt lat="44.1215451" lon="12.2079301"><ele>47.33333333333333</ele><time>2026-05-01T07:26:37.259Z</time></trkpt><trkpt lat="44.1214741" lon="12.2080965"><ele>47.666666666666664</ele><time>2026-05-01T07:26:38.261Z</time></trkpt><trkpt lat="44.1213874" lon="12.2082745"><ele>48.0</ele><time>2026-05-01T07:26:39.258Z</time></trkpt><trkpt lat="44.1212969" lon="12.2084905"><ele>48.25</ele><time>2026-05-01T07:26:40.267Z</time></trkpt><trkpt lat="44.121208" lon="12.2086392"><ele>48.5</ele><time>2026-05-01T07:26:41.259Z</time></trkpt><trkpt lat="44.1211198" lon="12.2087543"><ele>48.75</ele><time>2026-05-01T07:26:42.27Z</time></trkpt><trkpt lat="44.1210057" lon="12.2088403"><ele>49.0</ele><time>2026-05-01T07:26:43.262Z</time></trkpt><trkpt lat="44.1208545" lon="12.2089006"><ele>49.33333333333333</ele><time>2026-05-01T07:26:44.272Z</time></trkpt><trkpt lat="44.1206836" lon="12.2089705"><ele>49.66666666666667</ele><time>2026-05-01T07:26:45.271Z</time></trkpt><trkpt lat="44.1204981" lon="12.2090274"><ele>50.0</ele><time>2026-05-01T07:26:46.269Z</time></trkpt><trkpt lat="44.1203042" lon="12.2090626"><ele>50.0</ele><time>2026-05-01T07:26:47.265Z</time></trkpt><trkpt lat="44.1201136" lon="12.2090902"><ele>50.0</ele><time>2026-05-01T07:26:48.271Z</time></trkpt><trkpt lat="44.1199425" lon="12.2091144"><ele>50.0</ele><time>2026-05-01T07:26:49.258Z</time></trkpt><trkpt lat="44.1197384" lon="12.2091334"><ele>48.66666666666667</ele><time>2026-05-01T07:26:50.275Z</time></trkpt><trkpt lat="44.1195284" lon="12.2091177"><ele>47.333333333333336</ele><time>2026-05-01T07:26:51.27Z</time></trkpt><trkpt lat="44.1193284" lon="12.2091043"><ele>46.0</ele><time>2026-05-01T07:26:52.26Z</time></trkpt><trkpt lat="44.1190619" lon="12.2090652"><ele>46.333333333333336</ele><time>2026-05-01T07:26:53.269Z</time></trkpt><trkpt lat="44.1188368" lon="12.2090275"><ele>46.666666666666664</ele><time>2026-05-01T07:26:54.256Z</time></trkpt><trkpt lat="44.1186414" lon="12.2089965"><ele>47.0</ele><time>2026-05-01T07:26:55.267Z</time></trkpt><trkpt lat="44.1183839" lon="12.2089243"><ele>47.5</ele><time>2026-05-01T07:26:56.259Z</time></trkpt><trkpt lat="44.118147" lon="12.2088346"><ele>48.0</ele><time>2026-05-01T07:26:57.264Z</time></trkpt><trkpt lat="44.1179118" lon="12.2087409"><ele>48.0</ele><time>2026-05-01T07:26:58.27Z</time></trkpt><trkpt lat="44.1177102" lon="12.2086454"><ele>48.0</ele><time>2026-05-01T07:26:59.269Z</time></trkpt><trkpt lat="44.1175162" lon="12.208551"><ele>48.0</ele><time>2026-05-01T07:27:00.271Z</time></trkpt><trkpt lat="44.1173098" lon="12.2084803"><ele>48.33333333333333</ele><time>2026-05-01T07:27:01.263Z</time></trkpt><trkpt lat="44.1171315" lon="12.2083419"><ele>48.666666666666664</ele><time>2026-05-01T07:27:02.271Z</time></trkpt><trkpt lat="44.1169264" lon="12.2082041"><ele>49.0</ele><time>2026-05-01T07:27:03.272Z</time></trkpt><trkpt lat="44.1167364" lon="12.2080796"><ele>49.5</ele><time>2026-05-01T07:27:04.271Z</time></trkpt><trkpt lat="44.1165359" lon="12.2079146"><ele>50.0</ele><time>2026-05-01T07:27:05.268Z</time></trkpt><trkpt lat="44.1163277" lon="12.2077686"><ele>50.0</ele><time>2026-05-01T07:27:06.266Z</time></trkpt><trkpt lat="44.1161356" lon="12.2076204"><ele>50.0</ele><time>2026-05-01T07:27:07.257Z</time></trkpt><trkpt lat="44.1159424" lon="12.207479"><ele>50.0</ele><time>2026-05-01T07:27:08.268Z</time></trkpt><trkpt lat="44.1157448" lon="12.2073275"><ele>49.5</ele><time>2026-05-01T07:27:09.273Z</time></trkpt><trkpt lat="44.1155376" lon="12.2071774"><ele>49.0</ele><time>2026-05-01T07:27:10.267Z</time></trkpt><trkpt lat="44.1153144" lon="12.2070062"><ele>49.0</ele><time>2026-05-01T07:27:11.258Z</time></trkpt><trkpt lat="44.1150903" lon="12.2068337"><ele>49.0</ele><time>2026-05-01T07:27:12.268Z</time></trkpt><trkpt lat="44.114878" lon="12.2066787"><ele>50.0</ele><time>2026-05-01T07:27:13.27Z</time></trkpt><trkpt lat="44.11466" lon="12.2065286"><ele>51.0</ele><time>2026-05-01T07:27:14.27Z</time></trkpt><trkpt lat="44.1144728" lon="12.2063892"><ele>51.0</ele><time>2026-05-01T07:27:15.264Z</time></trkpt><trkpt lat="44.1142752" lon="12.2062347"><ele>51.0</ele><time>2026-05-01T07:27:16.272Z</time></trkpt><trkpt lat="44.1140695" lon="12.2060918"><ele>51.5</ele><time>2026-05-01T07:27:17.27Z</time></trkpt><trkpt lat="44.1138483" lon="12.2059451"><ele>52.0</ele><time>2026-05-01T07:27:18.275Z</time></trkpt><trkpt lat="44.1136186" lon="12.2057901"><ele>52.0</ele><time>2026-05-01T07:27:19.266Z</time></trkpt><trkpt lat="44.1134091" lon="12.2056423"><ele>52.0</ele><time>2026-05-01T07:27:20.272Z</time></trkpt><trkpt lat="44.113158" lon="12.2054844"><ele>53.0</ele><time>2026-05-01T07:27:21.261Z</time></trkpt><trkpt lat="44.1129183" lon="12.2053417"><ele>54.0</ele><time>2026-05-01T07:27:22.265Z</time></trkpt><trkpt lat="44.1126676" lon="12.2051901"><ele>54.0</ele><time>2026-05-01T07:27:23.272Z</time></trkpt><trkpt lat="44.1124272" lon="12.2050447"><ele>54.0</ele><time>2026-05-01T07:27:24.257Z</time></trkpt><trkpt lat="44.1121687" lon="12.2048915"><ele>53.0</ele><time>2026-05-01T07:27:25.265Z</time></trkpt><trkpt lat="44.1119213" lon="12.2047334"><ele>52.0</ele><time>2026-05-01T07:27:26.264Z</time></trkpt><trkpt lat="44.1116691" lon="12.2045843"><ele>53.0</ele><time>2026-05-01T07:27:27.264Z</time></trkpt><trkpt lat="44.1114111" lon="12.2044273"><ele>54.0</ele><time>2026-05-01T07:27:28.266Z</time></trkpt><trkpt lat="44.1111736" lon="12.2042805"><ele>54.0</ele><time>2026-05-01T07:27:29.272Z</time></trkpt><trkpt lat="44.1109217" lon="12.2041389"><ele>54.0</ele><time>2026-05-01T07:27:30.261Z</time></trkpt><trkpt lat="44.1106826" lon="12.2039985"><ele>54.0</ele><time>2026-05-01T07:27:31.275Z</time></trkpt><trkpt lat="44.1104136" lon="12.2038438"><ele>54.0</ele><time>2026-05-01T07:27:32.27Z</time></trkpt><trkpt lat="44.1101449" lon="12.2036872"><ele>54.5</ele><time>2026-05-01T07:27:33.26Z</time></trkpt><trkpt lat="44.1098723" lon="12.203522"><ele>55.0</ele><time>2026-05-01T07:27:34.266Z</time></trkpt><trkpt lat="44.1095995" lon="12.2033436"><ele>55.0</ele><time>2026-05-01T07:27:35.268Z</time></trkpt><trkpt lat="44.1093158" lon="12.2031819"><ele>55.0</ele><time>2026-05-01T07:27:36.261Z</time></trkpt><trkpt lat="44.1090478" lon="12.2030046"><ele>55.0</ele><time>2026-05-01T07:27:37.263Z</time></trkpt><trkpt lat="44.1087633" lon="12.2028177"><ele>55.0</ele><time>2026-05-01T07:27:38.265Z</time></trkpt><trkpt lat="44.1084917" lon="12.2026681"><ele>55.0</ele><time>2026-05-01T07:27:39.27Z</time></trkpt><trkpt lat="44.1082221" lon="12.2024982"><ele>55.0</ele><time>2026-05-01T07:27:40.268Z</time></trkpt><trkpt lat="44.1079447" lon="12.2023228"><ele>55.5</ele><time>2026-05-01T07:27:41.259Z</time></trkpt><trkpt lat="44.1076864" lon="12.2021427"><ele>56.0</ele><time>2026-05-01T07:27:42.265Z</time></trkpt><trkpt lat="44.1074024" lon="12.2019553"><ele>56.5</ele><time>2026-05-01T07:27:43.271Z</time></trkpt><trkpt lat="44.1071386" lon="12.2017616"><ele>57.0</ele><time>2026-05-01T07:27:44.261Z</time></trkpt><trkpt lat="44.1068648" lon="12.2015673"><ele>57.0</ele><time>2026-05-01T07:27:45.262Z</time></trkpt><trkpt lat="44.1065978" lon="12.2013954"><ele>57.0</ele><time>2026-05-01T07:27:46.271Z</time></trkpt><trkpt lat="44.1063348" lon="12.2012072"><ele>56.5</ele><time>2026-05-01T07:27:47.259Z</time></trkpt><trkpt lat="44.1060749" lon="12.2010214"><ele>56.0</ele><time>2026-05-01T07:27:48.277Z</time></trkpt><trkpt lat="44.1058159" lon="12.2008177"><ele>54.0</ele><time>2026-05-01T07:27:49.27Z</time></trkpt><trkpt lat="44.1055547" lon="12.2006262"><ele>52.0</ele><time>2026-05-01T07:27:50.267Z</time></trkpt><trkpt lat="44.1052863" lon="12.200456"><ele>52.0</ele><time>2026-05-01T07:27:51.272Z</time></trkpt><trkpt lat="44.1050168" lon="12.2003037"><ele>52.0</ele><time>2026-05-01T07:27:52.26Z</time></trkpt><trkpt lat="44.1047799" lon="12.2001369"><ele>53.5</ele><time>2026-05-01T07:27:53.26Z</time></trkpt><trkpt lat="44.1045383" lon="12.1999834"><ele>55.0</ele><time>2026-05-01T07:27:54.269Z</time></trkpt><trkpt lat="44.1042871" lon="12.1998947"><ele>56.5</ele><time>2026-05-01T07:27:55.275Z</time></trkpt><trkpt lat="44.1040317" lon="12.1997659"><ele>58.0</ele><time>2026-05-01T07:27:56.274Z</time></trkpt><trkpt lat="44.1037726" lon="12.1996437"><ele>58.0</ele><time>2026-05-01T07:27:57.276Z</time></trkpt><trkpt lat="44.1035359" lon="12.1995351"><ele>58.0</ele><time>2026-05-01T07:27:58.262Z</time></trkpt><trkpt lat="44.1032949" lon="12.1994342"><ele>58.5</ele><time>2026-05-01T07:27:59.261Z</time></trkpt><trkpt lat="44.1030263" lon="12.1993445"><ele>59.0</ele><time>2026-05-01T07:28:00.275Z</time></trkpt><trkpt lat="44.1027441" lon="12.1993094"><ele>59.0</ele><time>2026-05-01T07:28:01.273Z</time></trkpt><trkpt lat="44.1024597" lon="12.1992534"><ele>59.0</ele><time>2026-05-01T07:28:02.264Z</time></trkpt><trkpt lat="44.1021929" lon="12.1991888"><ele>58.5</ele><time>2026-05-01T07:28:03.262Z</time></trkpt><trkpt lat="44.1019209" lon="12.1991269"><ele>58.0</ele><time>2026-05-01T07:28:04.264Z</time></trkpt><trkpt lat="44.1016592" lon="12.1990724"><ele>58.5</ele><time>2026-05-01T07:28:05.258Z</time></trkpt><trkpt lat="44.1013999" lon="12.1990111"><ele>59.0</ele><time>2026-05-01T07:28:06.275Z</time></trkpt><trkpt lat="44.1011296" lon="12.1989617"><ele>59.0</ele><time>2026-05-01T07:28:07.264Z</time></trkpt><trkpt lat="44.1008593" lon="12.1989097"><ele>59.0</ele><time>2026-05-01T07:28:08.273Z</time></trkpt><trkpt lat="44.1006147" lon="12.1988329"><ele>59.0</ele><time>2026-05-01T07:28:09.26Z</time></trkpt><trkpt lat="44.1003861" lon="12.1987624"><ele>59.0</ele><time>2026-05-01T07:28:10.271Z</time></trkpt><trkpt lat="44.1001559" lon="12.1986876"><ele>59.5</ele><time>2026-05-01T07:28:11.275Z</time></trkpt><trkpt lat="44.09989" lon="12.1986567"><ele>60.0</ele><time>2026-05-01T07:28:12.275Z</time></trkpt><trkpt lat="44.0996163" lon="12.1986374"><ele>60.0</ele><time>2026-05-01T07:28:13.275Z</time></trkpt><trkpt lat="44.0993405" lon="12.1986096"><ele>60.0</ele><time>2026-05-01T07:28:14.278Z</time></trkpt><trkpt lat="44.0990609" lon="12.198587"><ele>59.0</ele><time>2026-05-01T07:28:15.269Z</time></trkpt><trkpt lat="44.0987922" lon="12.1985727"><ele>58.0</ele><time>2026-05-01T07:28:16.274Z</time></trkpt><trkpt lat="44.0985312" lon="12.1985419"><ele>58.0</ele><time>2026-05-01T07:28:17.271Z</time></trkpt><trkpt lat="44.0982676" lon="12.1985086"><ele>58.0</ele><time>2026-05-01T07:28:18.274Z</time></trkpt><trkpt lat="44.0980137" lon="12.1984559"><ele>59.0</ele><time>2026-05-01T07:28:19.275Z</time></trkpt><trkpt lat="44.0977674" lon="12.1984392"><ele>60.0</ele><time>2026-05-01T07:28:20.273Z</time></trkpt><trkpt lat="44.0975078" lon="12.1984093"><ele>59.5</ele><time>2026-05-01T07:28:21.271Z</time></trkpt><trkpt lat="44.0972604" lon="12.1984128"><ele>59.0</ele><time>2026-05-01T07:28:22.273Z</time></trkpt><trkpt lat="44.0969898" lon="12.1984055"><ele>59.0</ele><time>2026-05-01T07:28:23.275Z</time></trkpt><trkpt lat="44.096754" lon="12.1984278"><ele>59.0</ele><time>2026-05-01T07:28:24.269Z</time></trkpt><trkpt lat="44.0965022" lon="12.1984582"><ele>58.0</ele><time>2026-05-01T07:28:25.258Z</time></trkpt><trkpt lat="44.0962588" lon="12.1984737"><ele>57.0</ele><time>2026-05-01T07:28:26.268Z</time></trkpt><trkpt lat="44.0960132" lon="12.1984843"><ele>57.0</ele><time>2026-05-01T07:28:27.271Z</time></trkpt><trkpt lat="44.0957752" lon="12.1985056"><ele>57.0</ele><time>2026-05-01T07:28:28.274Z</time></trkpt><trkpt lat="44.0955402" lon="12.1985125"><ele>57.5</ele><time>2026-05-01T07:28:29.273Z</time></trkpt><trkpt lat="44.0952878" lon="12.1985317"><ele>58.0</ele><time>2026-05-01T07:28:30.274Z</time></trkpt><trkpt lat="44.095037" lon="12.1985617"><ele>58.5</ele><time>2026-05-01T07:28:31.275Z</time></trkpt><trkpt lat="44.0947915" lon="12.1985604"><ele>59.0</ele><time>2026-05-01T07:28:32.274Z</time></trkpt><trkpt lat="44.0945273" lon="12.1985687"><ele>59.0</ele><time>2026-05-01T07:28:33.263Z</time></trkpt><trkpt lat="44.0942588" lon="12.198557"><ele>59.0</ele><time>2026-05-01T07:28:34.261Z</time></trkpt><trkpt lat="44.0939859" lon="12.198589"><ele>59.5</ele><time>2026-05-01T07:28:35.274Z</time></trkpt><trkpt lat="44.0937087" lon="12.1986333"><ele>60.0</ele><time>2026-05-01T07:28:36.264Z</time></trkpt><trkpt lat="44.0934519" lon="12.1986807"><ele>60.0</ele><time>2026-05-01T07:28:37.276Z</time></trkpt><trkpt lat="44.0931833" lon="12.198712"><ele>60.0</ele><time>2026-05-01T07:28:38.275Z</time></trkpt><trkpt lat="44.0929169" lon="12.198764"><ele>60.0</ele><time>2026-05-01T07:28:39.276Z</time></trkpt><trkpt lat="44.0926496" lon="12.1988097"><ele>60.0</ele><time>2026-05-01T07:28:40.259Z</time></trkpt><trkpt lat="44.0923859" lon="12.19883"><ele>59.0</ele><time>2026-05-01T07:28:41.266Z</time></trkpt><trkpt lat="44.0921114" lon="12.1988547"><ele>58.0</ele><time>2026-05-01T07:28:42.263Z</time></trkpt><trkpt lat="44.0918487" lon="12.1988991"><ele>56.0</ele><time>2026-05-01T07:28:43.272Z</time></trkpt><trkpt lat="44.091545" lon="12.1989495"><ele>54.0</ele><time>2026-05-01T07:28:44.263Z</time></trkpt><trkpt lat="44.0912759" lon="12.1989276"><ele>54.0</ele><time>2026-05-01T07:28:45.274Z</time></trkpt><trkpt lat="44.090991" lon="12.198967"><ele>54.0</ele><time>2026-05-01T07:28:46.271Z</time></trkpt><trkpt lat="44.0907187" lon="12.1989575"><ele>56.5</ele><time>2026-05-01T07:28:47.274Z</time></trkpt><trkpt lat="44.0904212" lon="12.1989102"><ele>59.0</ele><time>2026-05-01T07:28:48.273Z</time></trkpt><trkpt lat="44.090138" lon="12.1989087"><ele>61.0</ele><time>2026-05-01T07:28:49.273Z</time></trkpt><trkpt lat="44.0898618" lon="12.1988597"><ele>63.0</ele><time>2026-05-01T07:28:50.261Z</time></trkpt><trkpt lat="44.0896008" lon="12.1988304"><ele>63.0</ele><time>2026-05-01T07:28:51.272Z</time></trkpt><trkpt lat="44.0893223" lon="12.1987401"><ele>63.0</ele><time>2026-05-01T07:28:52.262Z</time></trkpt><trkpt lat="44.0890444" lon="12.1986568"><ele>63.0</ele><time>2026-05-01T07:28:53.272Z</time></trkpt><trkpt lat="44.088783" lon="12.1985507"><ele>63.0</ele><time>2026-05-01T07:28:54.273Z</time></trkpt><trkpt lat="44.0884988" lon="12.1984458"><ele>62.5</ele><time>2026-05-01T07:28:55.274Z</time></trkpt><trkpt lat="44.0882331" lon="12.1983133"><ele>62.0</ele><time>2026-05-01T07:28:56.27Z</time></trkpt><trkpt lat="44.087982" lon="12.1981754"><ele>62.5</ele><time>2026-05-01T07:28:57.271Z</time></trkpt><trkpt lat="44.0877289" lon="12.1980158"><ele>63.0</ele><time>2026-05-01T07:28:58.274Z</time></trkpt><trkpt lat="44.0874533" lon="12.1979376"><ele>63.0</ele><time>2026-05-01T07:28:59.269Z</time></trkpt><trkpt lat="44.0871853" lon="12.1977356"><ele>63.0</ele><time>2026-05-01T07:29:00.274Z</time></trkpt><trkpt lat="44.0869613" lon="12.1975366"><ele>63.0</ele><time>2026-05-01T07:29:01.264Z</time></trkpt><trkpt lat="44.0866989" lon="12.1973608"><ele>63.0</ele><time>2026-05-01T07:29:02.262Z</time></trkpt><trkpt lat="44.086453" lon="12.1971921"><ele>63.5</ele><time>2026-05-01T07:29:03.272Z</time></trkpt><trkpt lat="44.0861841" lon="12.1970252"><ele>64.0</ele><time>2026-05-01T07:29:04.275Z</time></trkpt><trkpt lat="44.0859025" lon="12.1968512"><ele>64.5</ele><time>2026-05-01T07:29:05.273Z</time></trkpt><trkpt lat="44.0856803" lon="12.1966793"><ele>65.0</ele><time>2026-05-01T07:29:06.273Z</time></trkpt><trkpt lat="44.0854345" lon="12.1965226"><ele>65.0</ele><time>2026-05-01T07:29:07.262Z</time></trkpt><trkpt lat="44.0851875" lon="12.1963641"><ele>65.0</ele><time>2026-05-01T07:29:08.263Z</time></trkpt><trkpt lat="44.0849459" lon="12.1961849"><ele>66.5</ele><time>2026-05-01T07:29:09.266Z</time></trkpt><trkpt lat="44.0847402" lon="12.1959898"><ele>68.0</ele><time>2026-05-01T07:29:10.262Z</time></trkpt><trkpt lat="44.0844918" lon="12.1958454"><ele>68.0</ele><time>2026-05-01T07:29:11.273Z</time></trkpt><trkpt lat="44.0842475" lon="12.1956813"><ele>68.0</ele><time>2026-05-01T07:29:12.273Z</time></trkpt><trkpt lat="44.0840227" lon="12.1955319"><ele>68.0</ele><time>2026-05-01T07:29:13.273Z</time></trkpt><trkpt lat="44.0837652" lon="12.1953471"><ele>68.0</ele><time>2026-05-01T07:29:14.277Z</time></trkpt><trkpt lat="44.0834787" lon="12.1951416"><ele>68.0</ele><time>2026-05-01T07:29:15.272Z</time></trkpt><trkpt lat="44.0832439" lon="12.1949827"><ele>68.0</ele><time>2026-05-01T07:29:16.267Z</time></trkpt><trkpt lat="44.0830469" lon="12.1948217"><ele>69.0</ele><time>2026-05-01T07:29:17.275Z</time></trkpt><trkpt lat="44.0828219" lon="12.1946686"><ele>70.0</ele><time>2026-05-01T07:29:18.265Z</time></trkpt><trkpt lat="44.0825875" lon="12.1945078"><ele>68.5</ele><time>2026-05-01T07:29:19.276Z</time></trkpt><trkpt lat="44.0823423" lon="12.1943587"><ele>67.0</ele><time>2026-05-01T07:29:20.264Z</time></trkpt><trkpt lat="44.0821099" lon="12.1941967"><ele>67.0</ele><time>2026-05-01T07:29:21.262Z</time></trkpt><trkpt lat="44.0818754" lon="12.1940575"><ele>67.0</ele><time>2026-05-01T07:29:22.277Z</time></trkpt><trkpt lat="44.0816454" lon="12.1939175"><ele>67.0</ele><time>2026-05-01T07:29:23.273Z</time></trkpt><trkpt lat="44.0813988" lon="12.1937622"><ele>67.0</ele><time>2026-05-01T07:29:24.264Z</time></trkpt><trkpt lat="44.0811486" lon="12.1936094"><ele>67.0</ele><time>2026-05-01T07:29:25.274Z</time></trkpt><trkpt lat="44.0809229" lon="12.1934563"><ele>67.0</ele><time>2026-05-01T07:29:26.262Z</time></trkpt><trkpt lat="44.080682" lon="12.1932963"><ele>69.0</ele><time>2026-05-01T07:29:27.268Z</time></trkpt><trkpt lat="44.0804662" lon="12.1931358"><ele>71.0</ele><time>2026-05-01T07:29:28.263Z</time></trkpt><trkpt lat="44.0802501" lon="12.1929621"><ele>71.0</ele><time>2026-05-01T07:29:29.261Z</time></trkpt><trkpt lat="44.0800264" lon="12.1928088"><ele>71.0</ele><time>2026-05-01T07:29:30.275Z</time></trkpt><trkpt lat="44.0798082" lon="12.1926612"><ele>71.0</ele><time>2026-05-01T07:29:31.275Z</time></trkpt><trkpt lat="44.0795909" lon="12.1924733"><ele>71.0</ele><time>2026-05-01T07:29:32.274Z</time></trkpt><trkpt lat="44.0793338" lon="12.1923061"><ele>71.0</ele><time>2026-05-01T07:29:33.271Z</time></trkpt><trkpt lat="44.0790897" lon="12.1921342"><ele>71.0</ele><time>2026-05-01T07:29:34.273Z</time></trkpt><trkpt lat="44.07885" lon="12.1919692"><ele>71.0</ele><time>2026-05-01T07:29:35.274Z</time></trkpt><trkpt lat="44.0785942" lon="12.1917863"><ele>71.0</ele><time>2026-05-01T07:29:36.273Z</time></trkpt><trkpt lat="44.0783507" lon="12.1916278"><ele>71.0</ele><time>2026-05-01T07:29:37.261Z</time></trkpt><trkpt lat="44.078098" lon="12.1914743"><ele>71.0</ele><time>2026-05-01T07:29:38.272Z</time></trkpt><trkpt lat="44.0778617" lon="12.1912843"><ele>71.0</ele><time>2026-05-01T07:29:39.274Z</time></trkpt><trkpt lat="44.0776149" lon="12.1911204"><ele>71.0</ele><time>2026-05-01T07:29:40.263Z</time></trkpt><trkpt lat="44.0773423" lon="12.190964"><ele>70.5</ele><time>2026-05-01T07:29:41.274Z</time></trkpt><trkpt lat="44.0770798" lon="12.1907996"><ele>70.0</ele><time>2026-05-01T07:29:42.263Z</time></trkpt><trkpt lat="44.0768285" lon="12.1906187"><ele>71.5</ele><time>2026-05-01T07:29:43.265Z</time></trkpt><trkpt lat="44.0765861" lon="12.1904464"><ele>73.0</ele><time>2026-05-01T07:29:44.274Z</time></trkpt><trkpt lat="44.076338" lon="12.1902117"><ele>73.0</ele><time>2026-05-01T07:29:45.262Z</time></trkpt><trkpt lat="44.0760805" lon="12.1900354"><ele>73.0</ele><time>2026-05-01T07:29:46.266Z</time></trkpt><trkpt lat="44.075804" lon="12.189887"><ele>72.5</ele><time>2026-05-01T07:29:47.262Z</time></trkpt><trkpt lat="44.0755058" lon="12.189762"><ele>72.0</ele><time>2026-05-01T07:29:48.272Z</time></trkpt><trkpt lat="44.0752674" lon="12.1896023"><ele>72.0</ele><time>2026-05-01T07:29:49.265Z</time></trkpt><trkpt lat="44.0750148" lon="12.1894575"><ele>72.0</ele><time>2026-05-01T07:29:50.275Z</time></trkpt><trkpt lat="44.0747216" lon="12.1892842"><ele>72.0</ele><time>2026-05-01T07:29:51.273Z</time></trkpt><trkpt lat="44.0744536" lon="12.189134"><ele>72.0</ele><time>2026-05-01T07:29:52.272Z</time></trkpt><trkpt lat="44.0741796" lon="12.1889589"><ele>73.0</ele><time>2026-05-01T07:29:53.272Z</time></trkpt><trkpt lat="44.0739107" lon="12.1888025"><ele>74.0</ele><time>2026-05-01T07:29:54.271Z</time></trkpt><trkpt lat="44.0736384" lon="12.1886651"><ele>74.0</ele><time>2026-05-01T07:29:55.265Z</time></trkpt><trkpt lat="44.0733879" lon="12.1884924"><ele>74.0</ele><time>2026-05-01T07:29:56.262Z</time></trkpt><trkpt lat="44.0731434" lon="12.1883097"><ele>75.5</ele><time>2026-05-01T07:29:57.27Z</time></trkpt><trkpt lat="44.0728617" lon="12.188175"><ele>77.0</ele><time>2026-05-01T07:29:58.264Z</time></trkpt><trkpt lat="44.0726038" lon="12.1880347"><ele>78.0</ele><time>2026-05-01T07:29:59.262Z</time></trkpt><trkpt lat="44.0723344" lon="12.187859"><ele>79.0</ele><time>2026-05-01T07:30:00.258Z</time></trkpt><trkpt lat="44.0720865" lon="12.1877057"><ele>79.0</ele><time>2026-05-01T07:30:01.272Z</time></trkpt><trkpt lat="44.0718274" lon="12.1875661"><ele>79.0</ele><time>2026-05-01T07:30:02.261Z</time></trkpt><trkpt lat="44.0715496" lon="12.1874064"><ele>80.5</ele><time>2026-05-01T07:30:03.273Z</time></trkpt><trkpt lat="44.0712693" lon="12.1872238"><ele>82.0</ele><time>2026-05-01T07:30:04.263Z</time></trkpt><trkpt lat="44.071007" lon="12.1870975"><ele>81.5</ele><time>2026-05-01T07:30:05.275Z</time></trkpt><trkpt lat="44.0707575" lon="12.1869496"><ele>81.0</ele><time>2026-05-01T07:30:06.272Z</time></trkpt><trkpt lat="44.0704909" lon="12.1867929"><ele>81.0</ele><time>2026-05-01T07:30:07.274Z</time></trkpt><trkpt lat="44.0702135" lon="12.1866351"><ele>81.0</ele><time>2026-05-01T07:30:08.276Z</time></trkpt><trkpt lat="44.0699449" lon="12.1864846"><ele>81.5</ele><time>2026-05-01T07:30:09.269Z</time></trkpt><trkpt lat="44.0696858" lon="12.1863355"><ele>82.0</ele><time>2026-05-01T07:30:10.273Z</time></trkpt><trkpt lat="44.0694108" lon="12.1861823"><ele>82.0</ele><time>2026-05-01T07:30:11.275Z</time></trkpt><trkpt lat="44.0691532" lon="12.1860467"><ele>82.0</ele><time>2026-05-01T07:30:12.259Z</time></trkpt><trkpt lat="44.0688828" lon="12.1858899"><ele>83.5</ele><time>2026-05-01T07:30:13.275Z</time></trkpt><trkpt lat="44.0686011" lon="12.1857287"><ele>85.0</ele><time>2026-05-01T07:30:14.273Z</time></trkpt><trkpt lat="44.0683345" lon="12.1855646"><ele>85.5</ele><time>2026-05-01T07:30:15.262Z</time></trkpt><trkpt lat="44.0680691" lon="12.185398"><ele>86.0</ele><time>2026-05-01T07:30:16.274Z</time></trkpt><trkpt lat="44.0678021" lon="12.1852164"><ele>86.0</ele><time>2026-05-01T07:30:17.272Z</time></trkpt><trkpt lat="44.0675273" lon="12.1850686"><ele>86.0</ele><time>2026-05-01T07:30:18.266Z</time></trkpt><trkpt lat="44.0672711" lon="12.1849713"><ele>86.5</ele><time>2026-05-01T07:30:19.262Z</time></trkpt><trkpt lat="44.0670284" lon="12.1848859"><ele>87.0</ele><time>2026-05-01T07:30:20.264Z</time></trkpt><trkpt lat="44.0667699" lon="12.1847523"><ele>82.5</ele><time>2026-05-01T07:30:21.27Z</time></trkpt><trkpt lat="44.0665001" lon="12.184678"><ele>78.0</ele><time>2026-05-01T07:30:22.274Z</time></trkpt><trkpt lat="44.0662774" lon="12.1846019"><ele>78.0</ele><time>2026-05-01T07:30:23.265Z</time></trkpt><trkpt lat="44.065984" lon="12.1845601"><ele>78.0</ele><time>2026-05-01T07:30:24.262Z</time></trkpt><trkpt lat="44.0657723" lon="12.1844621"><ele>80.0</ele><time>2026-05-01T07:30:25.273Z</time></trkpt><trkpt lat="44.0655283" lon="12.1843529"><ele>82.0</ele><time>2026-05-01T07:30:26.261Z</time></trkpt><trkpt lat="44.0653063" lon="12.1842667"><ele>82.0</ele><time>2026-05-01T07:30:27.261Z</time></trkpt><trkpt lat="44.0650769" lon="12.1841795"><ele>82.0</ele><time>2026-05-01T07:30:28.262Z</time></trkpt><trkpt lat="44.0648528" lon="12.1840853"><ele>85.0</ele><time>2026-05-01T07:30:29.258Z</time></trkpt><trkpt lat="44.0646207" lon="12.1839868"><ele>88.0</ele><time>2026-05-01T07:30:30.275Z</time></trkpt><trkpt lat="44.0643764" lon="12.1838854"><ele>88.0</ele><time>2026-05-01T07:30:31.266Z</time></trkpt><trkpt lat="44.0641348" lon="12.1837973"><ele>88.0</ele><time>2026-05-01T07:30:32.268Z</time></trkpt><trkpt lat="44.0638979" lon="12.1836814"><ele>87.5</ele><time>2026-05-01T07:30:33.269Z</time></trkpt><trkpt lat="44.063672" lon="12.1835541"><ele>87.0</ele><time>2026-05-01T07:30:34.264Z</time></trkpt><trkpt lat="44.0634626" lon="12.1833773"><ele>86.5</ele><time>2026-05-01T07:30:35.261Z</time></trkpt><trkpt lat="44.0632229" lon="12.183249"><ele>86.0</ele><time>2026-05-01T07:30:36.27Z</time></trkpt><trkpt lat="44.0629874" lon="12.18313"><ele>87.0</ele><time>2026-05-01T07:30:37.276Z</time></trkpt><trkpt lat="44.0627422" lon="12.1830067"><ele>88.0</ele><time>2026-05-01T07:30:38.262Z</time></trkpt><trkpt lat="44.0624963" lon="12.1828733"><ele>87.0</ele><time>2026-05-01T07:30:39.276Z</time></trkpt><trkpt lat="44.062235" lon="12.1827407"><ele>86.0</ele><time>2026-05-01T07:30:40.274Z</time></trkpt><trkpt lat="44.0619874" lon="12.182629"><ele>86.0</ele><time>2026-05-01T07:30:41.261Z</time></trkpt><trkpt lat="44.0617415" lon="12.1825242"><ele>86.0</ele><time>2026-05-01T07:30:42.267Z</time></trkpt><trkpt lat="44.0614943" lon="12.1824207"><ele>88.0</ele><time>2026-05-01T07:30:43.266Z</time></trkpt><trkpt lat="44.0612458" lon="12.182308"><ele>90.0</ele><time>2026-05-01T07:30:44.262Z</time></trkpt><trkpt lat="44.0609904" lon="12.1822659"><ele>90.0</ele><time>2026-05-01T07:30:45.274Z</time></trkpt><trkpt lat="44.0607467" lon="12.1822197"><ele>90.0</ele><time>2026-05-01T07:30:46.273Z</time></trkpt><trkpt lat="44.0605124" lon="12.1822207"><ele>90.0</ele><time>2026-05-01T07:30:47.27Z</time></trkpt><trkpt lat="44.0602788" lon="12.1821849"><ele>90.0</ele><time>2026-05-01T07:30:48.269Z</time></trkpt><trkpt lat="44.0600171" lon="12.1821806"><ele>89.5</ele><time>2026-05-01T07:30:49.272Z</time></trkpt><trkpt lat="44.0597695" lon="12.1821684"><ele>89.0</ele><time>2026-05-01T07:30:50.263Z</time></trkpt><trkpt lat="44.059533" lon="12.182176"><ele>89.0</ele><time>2026-05-01T07:30:51.264Z</time></trkpt><trkpt lat="44.0592721" lon="12.1822027"><ele>89.0</ele><time>2026-05-01T07:30:52.266Z</time></trkpt><trkpt lat="44.0590253" lon="12.1821889"><ele>89.0</ele><time>2026-05-01T07:30:53.269Z</time></trkpt><trkpt lat="44.0587569" lon="12.1822091"><ele>89.0</ele><time>2026-05-01T07:30:54.264Z</time></trkpt><trkpt lat="44.0584668" lon="12.1821824"><ele>89.0</ele><time>2026-05-01T07:30:55.26Z</time></trkpt><trkpt lat="44.0582111" lon="12.1821736"><ele>89.0</ele><time>2026-05-01T07:30:56.276Z</time></trkpt><trkpt lat="44.057944" lon="12.1821634"><ele>89.0</ele><time>2026-05-01T07:30:57.262Z</time></trkpt><trkpt lat="44.0577046" lon="12.1821504"><ele>89.0</ele><time>2026-05-01T07:30:58.271Z</time></trkpt><trkpt lat="44.0574556" lon="12.182161"><ele>88.0</ele><time>2026-05-01T07:30:59.274Z</time></trkpt><trkpt lat="44.0571934" lon="12.1821273"><ele>87.0</ele><time>2026-05-01T07:31:00.261Z</time></trkpt><trkpt lat="44.0569243" lon="12.1820926"><ele>87.0</ele><time>2026-05-01T07:31:01.265Z</time></trkpt><trkpt lat="44.0566242" lon="12.1821073"><ele>87.0</ele><time>2026-05-01T07:31:02.273Z</time></trkpt><trkpt lat="44.0563544" lon="12.1820957"><ele>83.5</ele><time>2026-05-01T07:31:03.259Z</time></trkpt><trkpt lat="44.0560822" lon="12.1820784"><ele>80.0</ele><time>2026-05-01T07:31:04.278Z</time></trkpt><trkpt lat="44.0558146" lon="12.1820932"><ele>75.5</ele><time>2026-05-01T07:31:05.272Z</time></trkpt><trkpt lat="44.055515" lon="12.1821101"><ele>71.0</ele><time>2026-05-01T07:31:06.267Z</time></trkpt><trkpt lat="44.0552087" lon="12.1821063"><ele>69.0</ele><time>2026-05-01T07:31:07.272Z</time></trkpt><trkpt lat="44.0549285" lon="12.182094"><ele>67.0</ele><time>2026-05-01T07:31:08.272Z</time></trkpt><trkpt lat="44.0546211" lon="12.182093"><ele>67.0</ele><time>2026-05-01T07:31:09.27Z</time></trkpt><trkpt lat="44.0543415" lon="12.1820942"><ele>67.0</ele><time>2026-05-01T07:31:10.269Z</time></trkpt><trkpt lat="44.0540392" lon="12.1820774"><ele>67.0</ele><time>2026-05-01T07:31:11.264Z</time></trkpt><trkpt lat="44.0537296" lon="12.1820682"><ele>67.0</ele><time>2026-05-01T07:31:12.258Z</time></trkpt><trkpt lat="44.0534406" lon="12.1820611"><ele>66.5</ele><time>2026-05-01T07:31:13.258Z</time></trkpt><trkpt lat="44.0531738" lon="12.1820506"><ele>66.0</ele><time>2026-05-01T07:31:14.271Z</time></trkpt><trkpt lat="44.0528695" lon="12.1820792"><ele>66.0</ele><time>2026-05-01T07:31:15.276Z</time></trkpt><trkpt lat="44.0525875" lon="12.1820913"><ele>66.0</ele><time>2026-05-01T07:31:16.273Z</time></trkpt><trkpt lat="44.0523094" lon="12.182107"><ele>66.5</ele><time>2026-05-01T07:31:17.275Z</time></trkpt><trkpt lat="44.0520441" lon="12.1821586"><ele>67.0</ele><time>2026-05-01T07:31:18.275Z</time></trkpt><trkpt lat="44.0517598" lon="12.1822062"><ele>72.0</ele><time>2026-05-01T07:31:19.269Z</time></trkpt><trkpt lat="44.0514765" lon="12.1822583"><ele>77.0</ele><time>2026-05-01T07:31:20.276Z</time></trkpt><trkpt lat="44.0512054" lon="12.1823372"><ele>76.5</ele><time>2026-05-01T07:31:21.26Z</time></trkpt><trkpt lat="44.0509585" lon="12.1824075"><ele>76.0</ele><time>2026-05-01T07:31:22.273Z</time></trkpt><trkpt lat="44.0506846" lon="12.1824913"><ele>76.0</ele><time>2026-05-01T07:31:23.263Z</time></trkpt><trkpt lat="44.0504087" lon="12.1825689"><ele>76.0</ele><time>2026-05-01T07:31:24.264Z</time></trkpt><trkpt lat="44.0501188" lon="12.1826278"><ele>77.5</ele><time>2026-05-01T07:31:25.263Z</time></trkpt><trkpt lat="44.0498788" lon="12.1826952"><ele>79.0</ele><time>2026-05-01T07:31:26.277Z</time></trkpt><trkpt lat="44.049612" lon="12.1828078"><ele>79.0</ele><time>2026-05-01T07:31:27.262Z</time></trkpt><trkpt lat="44.0493589" lon="12.1828893"><ele>79.0</ele><time>2026-05-01T07:31:28.258Z</time></trkpt><trkpt lat="44.0491123" lon="12.1830291"><ele>78.0</ele><time>2026-05-01T07:31:29.259Z</time></trkpt><trkpt lat="44.048848" lon="12.1831705"><ele>77.0</ele><time>2026-05-01T07:31:30.261Z</time></trkpt><trkpt lat="44.0485933" lon="12.1833128"><ele>77.0</ele><time>2026-05-01T07:31:31.273Z</time></trkpt><trkpt lat="44.0483339" lon="12.1834597"><ele>77.0</ele><time>2026-05-01T07:31:32.264Z</time></trkpt><trkpt lat="44.0480755" lon="12.183597"><ele>79.0</ele><time>2026-05-01T07:31:33.266Z</time></trkpt><trkpt lat="44.0478337" lon="12.1837606"><ele>81.0</ele><time>2026-05-01T07:31:34.264Z</time></trkpt><trkpt lat="44.0475489" lon="12.1839098"><ele>81.5</ele><time>2026-05-01T07:31:35.277Z</time></trkpt><trkpt lat="44.0472908" lon="12.184067"><ele>82.0</ele><time>2026-05-01T07:31:36.271Z</time></trkpt><trkpt lat="44.0470114" lon="12.1842174"><ele>82.0</ele><time>2026-05-01T07:31:37.271Z</time></trkpt><trkpt lat="44.0467726" lon="12.184367"><ele>82.0</ele><time>2026-05-01T07:31:38.266Z</time></trkpt><trkpt lat="44.0465439" lon="12.1845152"><ele>80.0</ele><time>2026-05-01T07:31:39.262Z</time></trkpt><trkpt lat="44.0462893" lon="12.1846491"><ele>78.0</ele><time>2026-05-01T07:31:40.273Z</time></trkpt><trkpt lat="44.0460539" lon="12.18478"><ele>77.5</ele><time>2026-05-01T07:31:41.273Z</time></trkpt><trkpt lat="44.0458346" lon="12.184901"><ele>77.0</ele><time>2026-05-01T07:31:42.272Z</time></trkpt><trkpt lat="44.0456371" lon="12.1850267"><ele>76.5</ele><time>2026-05-01T07:31:43.264Z</time></trkpt><trkpt lat="44.0454146" lon="12.1851401"><ele>76.0</ele><time>2026-05-01T07:31:44.273Z</time></trkpt><trkpt lat="44.0451909" lon="12.1852472"><ele>76.0</ele><time>2026-05-01T07:31:45.262Z</time></trkpt><trkpt lat="44.0449679" lon="12.1853784"><ele>76.0</ele><time>2026-05-01T07:31:46.27Z</time></trkpt><trkpt lat="44.0447609" lon="12.185507"><ele>76.5</ele><time>2026-05-01T07:31:47.275Z</time></trkpt><trkpt lat="44.0445552" lon="12.1856339"><ele>77.0</ele><time>2026-05-01T07:31:48.273Z</time></trkpt><trkpt lat="44.0443377" lon="12.1857594"><ele>75.0</ele><time>2026-05-01T07:31:49.267Z</time></trkpt><trkpt lat="44.0441222" lon="12.1858798"><ele>73.0</ele><time>2026-05-01T07:31:50.276Z</time></trkpt><trkpt lat="44.0438895" lon="12.1860023"><ele>73.0</ele><time>2026-05-01T07:31:51.274Z</time></trkpt><trkpt lat="44.0436769" lon="12.1861216"><ele>73.0</ele><time>2026-05-01T07:31:52.275Z</time></trkpt><trkpt lat="44.0434587" lon="12.1862324"><ele>73.33333333333333</ele><time>2026-05-01T07:31:53.272Z</time></trkpt><trkpt lat="44.0432782" lon="12.186375"><ele>73.66666666666667</ele><time>2026-05-01T07:31:54.274Z</time></trkpt><trkpt lat="44.0430652" lon="12.186491"><ele>74.0</ele><time>2026-05-01T07:31:55.264Z</time></trkpt><trkpt lat="44.0428371" lon="12.1865941"><ele>73.5</ele><time>2026-05-01T07:31:56.264Z</time></trkpt><trkpt lat="44.042628" lon="12.1867145"><ele>73.0</ele><time>2026-05-01T07:31:57.265Z</time></trkpt><trkpt lat="44.0424065" lon="12.1868391"><ele>73.0</ele><time>2026-05-01T07:31:58.26Z</time></trkpt><trkpt lat="44.0421803" lon="12.1869612"><ele>73.0</ele><time>2026-05-01T07:31:59.277Z</time></trkpt><trkpt lat="44.04197" lon="12.1870826"><ele>73.0</ele><time>2026-05-01T07:32:00.274Z</time></trkpt><trkpt lat="44.0417437" lon="12.1872189"><ele>73.0</ele><time>2026-05-01T07:32:01.274Z</time></trkpt><trkpt lat="44.0415104" lon="12.18735"><ele>70.5</ele><time>2026-05-01T07:32:02.274Z</time></trkpt><trkpt lat="44.0412869" lon="12.1874587"><ele>68.0</ele><time>2026-05-01T07:32:03.269Z</time></trkpt><trkpt lat="44.0410509" lon="12.1876016"><ele>68.0</ele><time>2026-05-01T07:32:04.27Z</time></trkpt><trkpt lat="44.0408214" lon="12.1877214"><ele>68.0</ele><time>2026-05-01T07:32:05.263Z</time></trkpt><trkpt lat="44.0405903" lon="12.1878476"><ele>68.0</ele><time>2026-05-01T07:32:06.276Z</time></trkpt><trkpt lat="44.0403716" lon="12.187971"><ele>68.0</ele><time>2026-05-01T07:32:07.273Z</time></trkpt><trkpt lat="44.0401509" lon="12.1880913"><ele>69.0</ele><time>2026-05-01T07:32:08.274Z</time></trkpt><trkpt lat="44.0399257" lon="12.1882227"><ele>70.0</ele><time>2026-05-01T07:32:09.273Z</time></trkpt><trkpt lat="44.0397072" lon="12.1883579"><ele>70.0</ele><time>2026-05-01T07:32:10.271Z</time></trkpt><trkpt lat="44.0394549" lon="12.1884856"><ele>70.0</ele><time>2026-05-01T07:32:11.274Z</time></trkpt><trkpt lat="44.0392259" lon="12.1886109"><ele>70.5</ele><time>2026-05-01T07:32:12.263Z</time></trkpt><trkpt lat="44.0390011" lon="12.1887339"><ele>71.0</ele><time>2026-05-01T07:32:13.276Z</time></trkpt><trkpt lat="44.0387636" lon="12.1888666"><ele>72.5</ele><time>2026-05-01T07:32:14.274Z</time></trkpt><trkpt lat="44.0385408" lon="12.1890093"><ele>74.0</ele><time>2026-05-01T07:32:15.273Z</time></trkpt><trkpt lat="44.038305" lon="12.1891515"><ele>73.5</ele><time>2026-05-01T07:32:16.271Z</time></trkpt><trkpt lat="44.0380707" lon="12.1892764"><ele>73.0</ele><time>2026-05-01T07:32:17.263Z</time></trkpt><trkpt lat="44.0378196" lon="12.1894129"><ele>73.0</ele><time>2026-05-01T07:32:18.264Z</time></trkpt><trkpt lat="44.037572" lon="12.1895627"><ele>73.0</ele><time>2026-05-01T07:32:19.273Z</time></trkpt><trkpt lat="44.037329" lon="12.1897121"><ele>73.0</ele><time>2026-05-01T07:32:20.274Z</time></trkpt><trkpt lat="44.037065" lon="12.1898509"><ele>73.0</ele><time>2026-05-01T07:32:21.271Z</time></trkpt><trkpt lat="44.0368031" lon="12.1899788"><ele>72.5</ele><time>2026-05-01T07:32:22.271Z</time></trkpt><trkpt lat="44.0365133" lon="12.1901853"><ele>72.0</ele><time>2026-05-01T07:32:23.276Z</time></trkpt><trkpt lat="44.0362315" lon="12.1904027"><ele>72.0</ele><time>2026-05-01T07:32:24.276Z</time></trkpt><trkpt lat="44.0359541" lon="12.1906293"><ele>72.0</ele><time>2026-05-01T07:32:25.273Z</time></trkpt><trkpt lat="44.0356841" lon="12.1908668"><ele>71.5</ele><time>2026-05-01T07:32:26.262Z</time></trkpt><trkpt lat="44.0354491" lon="12.1911039"><ele>71.0</ele><time>2026-05-01T07:32:27.276Z</time></trkpt><trkpt lat="44.0352216" lon="12.1913666"><ele>70.5</ele><time>2026-05-01T07:32:28.275Z</time></trkpt><trkpt lat="44.0349916" lon="12.1916016"><ele>70.0</ele><time>2026-05-01T07:32:29.27Z</time></trkpt><trkpt lat="44.0347699" lon="12.1918559"><ele>70.0</ele><time>2026-05-01T07:32:30.274Z</time></trkpt><trkpt lat="44.0345477" lon="12.1920987"><ele>70.0</ele><time>2026-05-01T07:32:31.266Z</time></trkpt><trkpt lat="44.0343208" lon="12.1923526"><ele>71.0</ele><time>2026-05-01T07:32:32.275Z</time></trkpt><trkpt lat="44.0341054" lon="12.1926108"><ele>72.0</ele><time>2026-05-01T07:32:33.274Z</time></trkpt><trkpt lat="44.0338952" lon="12.1928638"><ele>72.0</ele><time>2026-05-01T07:32:34.266Z</time></trkpt><trkpt lat="44.0336693" lon="12.19312"><ele>72.0</ele><time>2026-05-01T07:32:35.257Z</time></trkpt><trkpt lat="44.0334437" lon="12.1933779"><ele>72.5</ele><time>2026-05-01T07:32:36.271Z</time></trkpt><trkpt lat="44.0332376" lon="12.1936271"><ele>73.0</ele><time>2026-05-01T07:32:37.261Z</time></trkpt><trkpt lat="44.0330059" lon="12.1938804"><ele>73.0</ele><time>2026-05-01T07:32:38.265Z</time></trkpt><trkpt lat="44.0327927" lon="12.1941182"><ele>73.0</ele><time>2026-05-01T07:32:39.275Z</time></trkpt><trkpt lat="44.0325581" lon="12.194356"><ele>79.0</ele><time>2026-05-01T07:32:40.274Z</time></trkpt><trkpt lat="44.032342" lon="12.1945991"><ele>85.0</ele><time>2026-05-01T07:32:41.273Z</time></trkpt><trkpt lat="44.0321361" lon="12.1948383"><ele>85.0</ele><time>2026-05-01T07:32:42.257Z</time></trkpt><trkpt lat="44.03193" lon="12.1950806"><ele>85.0</ele><time>2026-05-01T07:32:43.274Z</time></trkpt><trkpt lat="44.0317154" lon="12.1953225"><ele>86.0</ele><time>2026-05-01T07:32:44.275Z</time></trkpt><trkpt lat="44.0315091" lon="12.1955624"><ele>87.0</ele><time>2026-05-01T07:32:45.273Z</time></trkpt><trkpt lat="44.0312992" lon="12.1958112"><ele>87.0</ele><time>2026-05-01T07:32:46.275Z</time></trkpt><trkpt lat="44.0310703" lon="12.1960586"><ele>87.0</ele><time>2026-05-01T07:32:47.273Z</time></trkpt><trkpt lat="44.0308008" lon="12.1962838"><ele>83.5</ele><time>2026-05-01T07:32:48.273Z</time></trkpt><trkpt lat="44.0305712" lon="12.1965258"><ele>80.0</ele><time>2026-05-01T07:32:49.26Z</time></trkpt><trkpt lat="44.030338" lon="12.1967686"><ele>80.0</ele><time>2026-05-01T07:32:50.273Z</time></trkpt><trkpt lat="44.0301259" lon="12.1969806"><ele>80.0</ele><time>2026-05-01T07:32:51.273Z</time></trkpt><trkpt lat="44.0299123" lon="12.1972171"><ele>78.5</ele><time>2026-05-01T07:32:52.262Z</time></trkpt><trkpt lat="44.0297062" lon="12.1974438"><ele>77.0</ele><time>2026-05-01T07:32:53.274Z</time></trkpt><trkpt lat="44.029511" lon="12.197677"><ele>77.0</ele><time>2026-05-01T07:32:54.268Z</time></trkpt><trkpt lat="44.0293103" lon="12.1979032"><ele>77.0</ele><time>2026-05-01T07:32:55.267Z</time></trkpt><trkpt lat="44.0291096" lon="12.1981452"><ele>75.5</ele><time>2026-05-01T07:32:56.264Z</time></trkpt><trkpt lat="44.0289076" lon="12.1983782"><ele>74.0</ele><time>2026-05-01T07:32:57.262Z</time></trkpt><trkpt lat="44.0286641" lon="12.1986205"><ele>74.0</ele><time>2026-05-01T07:32:58.271Z</time></trkpt><trkpt lat="44.0284587" lon="12.1988532"><ele>74.0</ele><time>2026-05-01T07:32:59.263Z</time></trkpt><trkpt lat="44.0282385" lon="12.1990966"><ele>74.5</ele><time>2026-05-01T07:33:00.273Z</time></trkpt><trkpt lat="44.0280222" lon="12.199332"><ele>75.0</ele><time>2026-05-01T07:33:01.27Z</time></trkpt><trkpt lat="44.0278361" lon="12.1995556"><ele>75.0</ele><time>2026-05-01T07:33:02.265Z</time></trkpt><trkpt lat="44.0276345" lon="12.1997882"><ele>75.0</ele><time>2026-05-01T07:33:03.273Z</time></trkpt><trkpt lat="44.0274417" lon="12.2000007"><ele>76.0</ele><time>2026-05-01T07:33:04.273Z</time></trkpt><trkpt lat="44.0272202" lon="12.200204"><ele>77.0</ele><time>2026-05-01T07:33:05.271Z</time></trkpt><trkpt lat="44.0270068" lon="12.200415"><ele>77.0</ele><time>2026-05-01T07:33:06.263Z</time></trkpt><trkpt lat="44.0267996" lon="12.2006071"><ele>77.0</ele><time>2026-05-01T07:33:07.274Z</time></trkpt><trkpt lat="44.0265544" lon="12.2008309"><ele>77.0</ele><time>2026-05-01T07:33:08.263Z</time></trkpt><trkpt lat="44.0263049" lon="12.201051"><ele>77.0</ele><time>2026-05-01T07:33:09.273Z</time></trkpt><trkpt lat="44.0260613" lon="12.2012666"><ele>77.5</ele><time>2026-05-01T07:33:10.274Z</time></trkpt><trkpt lat="44.0258084" lon="12.201436"><ele>78.0</ele><time>2026-05-01T07:33:11.274Z</time></trkpt><trkpt lat="44.0255434" lon="12.2016069"><ele>79.0</ele><time>2026-05-01T07:33:12.267Z</time></trkpt><trkpt lat="44.0252804" lon="12.2017816"><ele>80.0</ele><time>2026-05-01T07:33:13.261Z</time></trkpt><trkpt lat="44.0250066" lon="12.2019253"><ele>80.0</ele><time>2026-05-01T07:33:14.261Z</time></trkpt><trkpt lat="44.0247296" lon="12.2020691"><ele>80.0</ele><time>2026-05-01T07:33:15.26Z</time></trkpt><trkpt lat="44.0244401" lon="12.2021827"><ele>80.0</ele><time>2026-05-01T07:33:16.275Z</time></trkpt><trkpt lat="44.0241606" lon="12.2023021"><ele>80.0</ele><time>2026-05-01T07:33:17.263Z</time></trkpt><trkpt lat="44.0238807" lon="12.2024022"><ele>81.5</ele><time>2026-05-01T07:33:18.268Z</time></trkpt><trkpt lat="44.0235991" lon="12.2024857"><ele>83.0</ele><time>2026-05-01T07:33:19.27Z</time></trkpt><trkpt lat="44.0233181" lon="12.2025799"><ele>84.5</ele><time>2026-05-01T07:33:20.275Z</time></trkpt><trkpt lat="44.0230377" lon="12.2026758"><ele>86.0</ele><time>2026-05-01T07:33:21.273Z</time></trkpt><trkpt lat="44.0227718" lon="12.2027651"><ele>86.0</ele><time>2026-05-01T07:33:22.27Z</time></trkpt><trkpt lat="44.0224805" lon="12.2028619"><ele>86.0</ele><time>2026-05-01T07:33:23.262Z</time></trkpt><trkpt lat="44.0221852" lon="12.2029456"><ele>86.0</ele><time>2026-05-01T07:33:24.27Z</time></trkpt><trkpt lat="44.0219034" lon="12.2030535"><ele>86.0</ele><time>2026-05-01T07:33:25.273Z</time></trkpt><trkpt lat="44.0216255" lon="12.2031498"><ele>87.5</ele><time>2026-05-01T07:33:26.26Z</time></trkpt><trkpt lat="44.0213445" lon="12.2032506"><ele>89.0</ele><time>2026-05-01T07:33:27.269Z</time></trkpt><trkpt lat="44.0210591" lon="12.2033639"><ele>88.0</ele><time>2026-05-01T07:33:28.265Z</time></trkpt><trkpt lat="44.0207948" lon="12.2034668"><ele>87.0</ele><time>2026-05-01T07:33:29.26Z</time></trkpt><trkpt lat="44.0205144" lon="12.2035577"><ele>87.0</ele><time>2026-05-01T07:33:30.271Z</time></trkpt><trkpt lat="44.0202355" lon="12.2036563"><ele>87.0</ele><time>2026-05-01T07:33:31.262Z</time></trkpt><trkpt lat="44.0199578" lon="12.2037562"><ele>87.0</ele><time>2026-05-01T07:33:32.266Z</time></trkpt><trkpt lat="44.0196742" lon="12.2038573"><ele>87.0</ele><time>2026-05-01T07:33:33.271Z</time></trkpt><trkpt lat="44.0193894" lon="12.2039678"><ele>87.0</ele><time>2026-05-01T07:33:34.264Z</time></trkpt><trkpt lat="44.019123" lon="12.2040531"><ele>87.0</ele><time>2026-05-01T07:33:35.267Z</time></trkpt><trkpt lat="44.0188273" lon="12.2041629"><ele>87.0</ele><time>2026-05-01T07:33:36.261Z</time></trkpt><trkpt lat="44.0185584" lon="12.2042482"><ele>87.0</ele><time>2026-05-01T07:33:37.271Z</time></trkpt><trkpt lat="44.0182849" lon="12.2043322"><ele>85.0</ele><time>2026-05-01T07:33:38.272Z</time></trkpt><trkpt lat="44.0180136" lon="12.2044258"><ele>83.0</ele><time>2026-05-01T07:33:39.274Z</time></trkpt><trkpt lat="44.0177429" lon="12.2044975"><ele>83.5</ele><time>2026-05-01T07:33:40.273Z</time></trkpt><trkpt lat="44.0174655" lon="12.2045637"><ele>84.0</ele><time>2026-05-01T07:33:41.262Z</time></trkpt><trkpt lat="44.0171946" lon="12.2046318"><ele>84.0</ele><time>2026-05-01T07:33:42.277Z</time></trkpt><trkpt lat="44.0169277" lon="12.2046572"><ele>84.0</ele><time>2026-05-01T07:33:43.265Z</time></trkpt><trkpt lat="44.0166522" lon="12.2046705"><ele>85.0</ele><time>2026-05-01T07:33:44.26Z</time></trkpt><trkpt lat="44.0163733" lon="12.204659"><ele>86.0</ele><time>2026-05-01T07:33:45.274Z</time></trkpt><trkpt lat="44.0161059" lon="12.2046563"><ele>86.0</ele><time>2026-05-01T07:33:46.274Z</time></trkpt><trkpt lat="44.0158308" lon="12.2046054"><ele>86.0</ele><time>2026-05-01T07:33:47.261Z</time></trkpt><trkpt lat="44.0155376" lon="12.2045418"><ele>86.0</ele><time>2026-05-01T07:33:48.275Z</time></trkpt><trkpt lat="44.015252" lon="12.2044719"><ele>86.0</ele><time>2026-05-01T07:33:49.263Z</time></trkpt><trkpt lat="44.0149769" lon="12.2043751"><ele>86.0</ele><time>2026-05-01T07:33:50.272Z</time></trkpt><trkpt lat="44.0147042" lon="12.2042913"><ele>86.0</ele><time>2026-05-01T07:33:51.276Z</time></trkpt><trkpt lat="44.0144273" lon="12.2041863"><ele>86.0</ele><time>2026-05-01T07:33:52.265Z</time></trkpt><trkpt lat="44.0141724" lon="12.2040671"><ele>86.0</ele><time>2026-05-01T07:33:53.259Z</time></trkpt><trkpt lat="44.0139212" lon="12.2039708"><ele>86.5</ele><time>2026-05-01T07:33:54.26Z</time></trkpt><trkpt lat="44.0136579" lon="12.2038632"><ele>87.0</ele><time>2026-05-01T07:33:55.271Z</time></trkpt><trkpt lat="44.0133924" lon="12.203749"><ele>86.5</ele><time>2026-05-01T07:33:56.262Z</time></trkpt><trkpt lat="44.0131268" lon="12.2036449"><ele>86.0</ele><time>2026-05-01T07:33:57.266Z</time></trkpt><trkpt lat="44.0128659" lon="12.2035447"><ele>86.0</ele><time>2026-05-01T07:33:58.266Z</time></trkpt><trkpt lat="44.0125887" lon="12.2034451"><ele>86.0</ele><time>2026-05-01T07:33:59.259Z</time></trkpt><trkpt lat="44.0123193" lon="12.2033404"><ele>86.5</ele><time>2026-05-01T07:34:00.26Z</time></trkpt><trkpt lat="44.0120721" lon="12.2032294"><ele>87.0</ele><time>2026-05-01T07:34:01.262Z</time></trkpt><trkpt lat="44.0118169" lon="12.203115"><ele>87.5</ele><time>2026-05-01T07:34:02.262Z</time></trkpt><trkpt lat="44.0115111" lon="12.2030711"><ele>88.0</ele><time>2026-05-01T07:34:03.269Z</time></trkpt><trkpt lat="44.0112307" lon="12.2029948"><ele>88.0</ele><time>2026-05-01T07:34:04.274Z</time></trkpt><trkpt lat="44.0109616" lon="12.2029801"><ele>88.0</ele><time>2026-05-01T07:34:05.265Z</time></trkpt><trkpt lat="44.0106963" lon="12.2029548"><ele>87.0</ele><time>2026-05-01T07:34:06.261Z</time></trkpt><trkpt lat="44.0104468" lon="12.2029436"><ele>86.0</ele><time>2026-05-01T07:34:07.271Z</time></trkpt><trkpt lat="44.0101729" lon="12.2029441"><ele>86.0</ele><time>2026-05-01T07:34:08.272Z</time></trkpt><trkpt lat="44.0099065" lon="12.2029494"><ele>86.0</ele><time>2026-05-01T07:34:09.275Z</time></trkpt><trkpt lat="44.009642" lon="12.2029516"><ele>86.0</ele><time>2026-05-01T07:34:10.265Z</time></trkpt><trkpt lat="44.0093658" lon="12.2029765"><ele>86.0</ele><time>2026-05-01T07:34:11.274Z</time></trkpt><trkpt lat="44.0090889" lon="12.203005"><ele>86.5</ele><time>2026-05-01T07:34:12.277Z</time></trkpt><trkpt lat="44.0088227" lon="12.2030076"><ele>87.0</ele><time>2026-05-01T07:34:13.275Z</time></trkpt><trkpt lat="44.0085512" lon="12.2030196"><ele>87.0</ele><time>2026-05-01T07:34:14.272Z</time></trkpt><trkpt lat="44.0082927" lon="12.2030276"><ele>87.0</ele><time>2026-05-01T07:34:15.278Z</time></trkpt><trkpt lat="44.0080318" lon="12.20305"><ele>87.0</ele><time>2026-05-01T07:34:16.264Z</time></trkpt><trkpt lat="44.0077671" lon="12.2030758"><ele>87.0</ele><time>2026-05-01T07:34:17.266Z</time></trkpt><trkpt lat="44.0074891" lon="12.2030838"><ele>87.0</ele><time>2026-05-01T07:34:18.275Z</time></trkpt><trkpt lat="44.0072353" lon="12.2030816"><ele>87.0</ele><time>2026-05-01T07:34:19.274Z</time></trkpt><trkpt lat="44.0069657" lon="12.2031107"><ele>87.0</ele><time>2026-05-01T07:34:20.257Z</time></trkpt><trkpt lat="44.0066916" lon="12.2031347"><ele>87.0</ele><time>2026-05-01T07:34:21.269Z</time></trkpt><trkpt lat="44.006392" lon="12.2031568"><ele>87.5</ele><time>2026-05-01T07:34:22.265Z</time></trkpt><trkpt lat="44.0061214" lon="12.2031702"><ele>88.0</ele><time>2026-05-01T07:34:23.274Z</time></trkpt><trkpt lat="44.0058506" lon="12.203183"><ele>88.0</ele><time>2026-05-01T07:34:24.27Z</time></trkpt><trkpt lat="44.0055463" lon="12.2032172"><ele>88.0</ele><time>2026-05-01T07:34:25.262Z</time></trkpt><trkpt lat="44.0052759" lon="12.2032275"><ele>88.0</ele><time>2026-05-01T07:34:26.276Z</time></trkpt><trkpt lat="44.0050101" lon="12.203232"><ele>88.0</ele><time>2026-05-01T07:34:27.265Z</time></trkpt><trkpt lat="44.0047518" lon="12.2032641"><ele>88.0</ele><time>2026-05-01T07:34:28.263Z</time></trkpt><trkpt lat="44.0045326" lon="12.2032705"><ele>88.0</ele><time>2026-05-01T07:34:29.258Z</time></trkpt><trkpt lat="44.0043141" lon="12.2032914"><ele>88.0</ele><time>2026-05-01T07:34:30.271Z</time></trkpt><trkpt lat="44.004092" lon="12.2033013"><ele>88.0</ele><time>2026-05-01T07:34:31.275Z</time></trkpt><trkpt lat="44.0038652" lon="12.2033149"><ele>88.0</ele><time>2026-05-01T07:34:32.277Z</time></trkpt><trkpt lat="44.0036468" lon="12.2033223"><ele>88.0</ele><time>2026-05-01T07:34:33.265Z</time></trkpt><trkpt lat="44.0034339" lon="12.2033387"><ele>88.66666666666666</ele><time>2026-05-01T07:34:34.281Z</time></trkpt><trkpt lat="44.0032123" lon="12.2033641"><ele>89.33333333333333</ele><time>2026-05-01T07:34:35.274Z</time></trkpt><trkpt lat="44.0030305" lon="12.2033662"><ele>90.0</ele><time>2026-05-01T07:34:36.258Z</time></trkpt><trkpt lat="44.0028404" lon="12.2033858"><ele>90.0</ele><time>2026-05-01T07:34:37.261Z</time></trkpt><trkpt lat="44.0026636" lon="12.2033917"><ele>90.0</ele><time>2026-05-01T07:34:38.259Z</time></trkpt><trkpt lat="44.0024924" lon="12.2034039"><ele>90.0</ele><time>2026-05-01T07:34:39.263Z</time></trkpt><trkpt lat="44.0023186" lon="12.2034091"><ele>89.66666666666667</ele><time>2026-05-01T07:34:40.274Z</time></trkpt><trkpt lat="44.0021322" lon="12.2034225"><ele>89.33333333333334</ele><time>2026-05-01T07:34:41.259Z</time></trkpt><trkpt lat="44.0019535" lon="12.2034307"><ele>89.0</ele><time>2026-05-01T07:34:42.26Z</time></trkpt><trkpt lat="44.0017643" lon="12.2034364"><ele>90.0</ele><time>2026-05-01T07:34:43.257Z</time></trkpt><trkpt lat="44.0015962" lon="12.2034436"><ele>91.0</ele><time>2026-05-01T07:34:44.269Z</time></trkpt><trkpt lat="44.0014039" lon="12.2034527"><ele>92.0</ele><time>2026-05-01T07:34:45.267Z</time></trkpt><trkpt lat="44.0012199" lon="12.2034702"><ele>92.0</ele><time>2026-05-01T07:34:46.258Z</time></trkpt><trkpt lat="44.0010308" lon="12.2034782"><ele>92.0</ele><time>2026-05-01T07:34:47.262Z</time></trkpt><trkpt lat="44.000874" lon="12.203503"><ele>92.0</ele><time>2026-05-01T07:34:48.261Z</time></trkpt><trkpt lat="44.0007103" lon="12.2035202"><ele>92.66666666666667</ele><time>2026-05-01T07:34:49.269Z</time></trkpt><trkpt lat="44.0005522" lon="12.2035391"><ele>93.33333333333333</ele><time>2026-05-01T07:34:50.268Z</time></trkpt><trkpt lat="44.0003933" lon="12.2035378"><ele>94.0</ele><time>2026-05-01T07:34:51.259Z</time></trkpt><trkpt lat="44.0002445" lon="12.2035478"><ele>94.0</ele><time>2026-05-01T07:34:52.267Z</time></trkpt><trkpt lat="44.0000885" lon="12.2035512"><ele>94.0</ele><time>2026-05-01T07:34:53.258Z</time></trkpt><trkpt lat="43.9999461" lon="12.2035559"><ele>94.0</ele><time>2026-05-01T07:34:54.266Z</time></trkpt><trkpt lat="43.9998185" lon="12.203554"><ele>94.0</ele><time>2026-05-01T07:34:55.27Z</time></trkpt><trkpt lat="43.9996773" lon="12.2035587"><ele>94.0</ele><time>2026-05-01T07:34:56.258Z</time></trkpt><trkpt lat="43.9995315" lon="12.2035871"><ele>94.0</ele><time>2026-05-01T07:34:57.258Z</time></trkpt><trkpt lat="43.9993952" lon="12.2035868"><ele>94.0</ele><time>2026-05-01T07:34:58.268Z</time></trkpt><trkpt lat="43.9992504" lon="12.2035907"><ele>94.0</ele><time>2026-05-01T07:34:59.261Z</time></trkpt><trkpt lat="43.9990948" lon="12.2035991"><ele>95.0</ele><time>2026-05-01T07:35:00.263Z</time></trkpt><trkpt lat="43.9989662" lon="12.203587"><ele>96.0</ele><time>2026-05-01T07:35:01.257Z</time></trkpt><trkpt lat="43.9988146" lon="12.2036068"><ele>97.0</ele><time>2026-05-01T07:35:02.271Z</time></trkpt><trkpt lat="43.9986716" lon="12.2036196"><ele>98.0</ele><time>2026-05-01T07:35:03.261Z</time></trkpt><trkpt lat="43.998508" lon="12.2036369"><ele>97.33333333333333</ele><time>2026-05-01T07:35:04.27Z</time></trkpt><trkpt lat="43.9983341" lon="12.2036653"><ele>96.66666666666666</ele><time>2026-05-01T07:35:05.262Z</time></trkpt><trkpt lat="43.9981717" lon="12.2036803"><ele>96.0</ele><time>2026-05-01T07:35:06.258Z</time></trkpt><trkpt lat="43.9979746" lon="12.2037272"><ele>96.0</ele><time>2026-05-01T07:35:07.268Z</time></trkpt><trkpt lat="43.9977809" lon="12.2037498"><ele>96.0</ele><time>2026-05-01T07:35:08.27Z</time></trkpt><trkpt lat="43.9975955" lon="12.2037738"><ele>96.0</ele><time>2026-05-01T07:35:09.271Z</time></trkpt><trkpt lat="43.997406" lon="12.2038005"><ele>96.33333333333334</ele><time>2026-05-01T07:35:10.261Z</time></trkpt><trkpt lat="43.9972144" lon="12.2038396"><ele>96.66666666666667</ele><time>2026-05-01T07:35:11.271Z</time></trkpt><trkpt lat="43.9970312" lon="12.2038647"><ele>97.0</ele><time>2026-05-01T07:35:12.268Z</time></trkpt><trkpt lat="43.9968572" lon="12.2038871"><ele>97.0</ele><time>2026-05-01T07:35:13.273Z</time></trkpt><trkpt lat="43.9966836" lon="12.2039051"><ele>97.0</ele><time>2026-05-01T07:35:14.268Z</time></trkpt><trkpt lat="43.9965068" lon="12.20393"><ele>97.0</ele><time>2026-05-01T07:35:15.268Z</time></trkpt><trkpt lat="43.9963294" lon="12.2039553"><ele>96.33333333333334</ele><time>2026-05-01T07:35:16.268Z</time></trkpt><trkpt lat="43.9961471" lon="12.2039845"><ele>95.66666666666667</ele><time>2026-05-01T07:35:17.259Z</time></trkpt><trkpt lat="43.9959693" lon="12.2040021"><ele>95.0</ele><time>2026-05-01T07:35:18.267Z</time></trkpt><trkpt lat="43.9957752" lon="12.2040289"><ele>96.33333333333334</ele><time>2026-05-01T07:35:19.27Z</time></trkpt><trkpt lat="43.9955896" lon="12.2040649"><ele>97.66666666666667</ele><time>2026-05-01T07:35:20.271Z</time></trkpt><trkpt lat="43.9954019" lon="12.2040858"><ele>99.0</ele><time>2026-05-01T07:35:21.261Z</time></trkpt><trkpt lat="43.9952121" lon="12.2041123"><ele>99.0</ele><time>2026-05-01T07:35:22.268Z</time></trkpt><trkpt lat="43.9950266" lon="12.20414"><ele>99.0</ele><time>2026-05-01T07:35:23.257Z</time></trkpt><trkpt lat="43.994861" lon="12.2041541"><ele>99.0</ele><time>2026-05-01T07:35:24.264Z</time></trkpt><trkpt lat="43.9946825" lon="12.2041882"><ele>98.0</ele><time>2026-05-01T07:35:25.259Z</time></trkpt><trkpt lat="43.9944972" lon="12.2042132"><ele>97.0</ele><time>2026-05-01T07:35:26.267Z</time></trkpt><trkpt lat="43.9943067" lon="12.2042474"><ele>96.0</ele><time>2026-05-01T07:35:27.257Z</time></trkpt><trkpt lat="43.9941179" lon="12.2043001"><ele>96.0</ele><time>2026-05-01T07:35:28.266Z</time></trkpt><trkpt lat="43.993935" lon="12.2043288"><ele>96.0</ele><time>2026-05-01T07:35:29.258Z</time></trkpt><trkpt lat="43.9937585" lon="12.2043598"><ele>96.0</ele><time>2026-05-01T07:35:30.258Z</time></trkpt><trkpt lat="43.9935989" lon="12.2043755"><ele>96.0</ele><time>2026-05-01T07:35:31.27Z</time></trkpt><trkpt lat="43.9934277" lon="12.2043933"><ele>96.0</ele><time>2026-05-01T07:35:32.258Z</time></trkpt><trkpt lat="43.9932509" lon="12.2044171"><ele>96.0</ele><time>2026-05-01T07:35:33.258Z</time></trkpt><trkpt lat="43.9930792" lon="12.2044314"><ele>96.33333333333334</ele><time>2026-05-01T07:35:34.256Z</time></trkpt><trkpt lat="43.9929079" lon="12.2044395"><ele>96.66666666666667</ele><time>2026-05-01T07:35:35.271Z</time></trkpt><trkpt lat="43.9927178" lon="12.2044691"><ele>97.0</ele><time>2026-05-01T07:35:36.27Z</time></trkpt><trkpt lat="43.9925438" lon="12.2044957"><ele>97.33333333333334</ele><time>2026-05-01T07:35:37.262Z</time></trkpt><trkpt lat="43.9923546" lon="12.2045292"><ele>97.66666666666666</ele><time>2026-05-01T07:35:38.259Z</time></trkpt><trkpt lat="43.9921938" lon="12.2045535"><ele>98.0</ele><time>2026-05-01T07:35:39.272Z</time></trkpt><trkpt lat="43.9920314" lon="12.2045827"><ele>98.0</ele><time>2026-05-01T07:35:40.261Z</time></trkpt><trkpt lat="43.9918612" lon="12.2046087"><ele>98.0</ele><time>2026-05-01T07:35:41.259Z</time></trkpt><trkpt lat="43.9916928" lon="12.2046363"><ele>98.0</ele><time>2026-05-01T07:35:42.27Z</time></trkpt><trkpt lat="43.9915196" lon="12.2046567"><ele>97.66666666666666</ele><time>2026-05-01T07:35:43.258Z</time></trkpt><trkpt lat="43.9913261" lon="12.2046938"><ele>97.33333333333334</ele><time>2026-05-01T07:35:44.26Z</time></trkpt><trkpt lat="43.991149" lon="12.2047158"><ele>97.0</ele><time>2026-05-01T07:35:45.256Z</time></trkpt><trkpt lat="43.9909715" lon="12.2047417"><ele>97.66666666666667</ele><time>2026-05-01T07:35:46.258Z</time></trkpt><trkpt lat="43.9907985" lon="12.2047613"><ele>98.33333333333334</ele><time>2026-05-01T07:35:47.26Z</time></trkpt><trkpt lat="43.9906353" lon="12.2047854"><ele>99.0</ele><time>2026-05-01T07:35:48.259Z</time></trkpt><trkpt lat="43.9904679" lon="12.2048117"><ele>98.33333333333334</ele><time>2026-05-01T07:35:49.259Z</time></trkpt><trkpt lat="43.9903059" lon="12.2048362"><ele>97.66666666666667</ele><time>2026-05-01T07:35:50.258Z</time></trkpt><trkpt lat="43.9901441" lon="12.2048625"><ele>97.0</ele><time>2026-05-01T07:35:51.263Z</time></trkpt><trkpt lat="43.9899856" lon="12.2048766"><ele>96.33333333333334</ele><time>2026-05-01T07:35:52.271Z</time></trkpt><trkpt lat="43.9898155" lon="12.2049078"><ele>95.66666666666667</ele><time>2026-05-01T07:35:53.271Z</time></trkpt><trkpt lat="43.989646" lon="12.2049344"><ele>95.0</ele><time>2026-05-01T07:35:54.267Z</time></trkpt><trkpt lat="43.9894717" lon="12.2049588"><ele>95.0</ele><time>2026-05-01T07:35:55.272Z</time></trkpt><trkpt lat="43.9893052" lon="12.2049855"><ele>95.0</ele><time>2026-05-01T07:35:56.257Z</time></trkpt><trkpt lat="43.9891242" lon="12.2050084"><ele>95.0</ele><time>2026-05-01T07:35:57.274Z</time></trkpt><trkpt lat="43.9889493" lon="12.205035"><ele>96.66666666666667</ele><time>2026-05-01T07:35:58.269Z</time></trkpt><trkpt lat="43.9887729" lon="12.2050616"><ele>98.33333333333334</ele><time>2026-05-01T07:35:59.27Z</time></trkpt><trkpt lat="43.9885975" lon="12.2050792"><ele>100.0</ele><time>2026-05-01T07:36:00.259Z</time></trkpt><trkpt lat="43.9884288" lon="12.205102"><ele>101.0</ele><time>2026-05-01T07:36:01.27Z</time></trkpt><trkpt lat="43.9882553" lon="12.205126"><ele>102.0</ele><time>2026-05-01T07:36:02.267Z</time></trkpt><trkpt lat="43.9880808" lon="12.2051463"><ele>103.0</ele><time>2026-05-01T07:36:03.27Z</time></trkpt><trkpt lat="43.987911" lon="12.2051571"><ele>103.0</ele><time>2026-05-01T07:36:04.266Z</time></trkpt><trkpt lat="43.9877442" lon="12.2051749"><ele>103.0</ele><time>2026-05-01T07:36:05.272Z</time></trkpt><trkpt lat="43.9875741" lon="12.2051953"><ele>103.0</ele><time>2026-05-01T07:36:06.267Z</time></trkpt><trkpt lat="43.9874035" lon="12.2052106"><ele>103.66666666666667</ele><time>2026-05-01T07:36:07.271Z</time></trkpt><trkpt lat="43.9872244" lon="12.2052196"><ele>104.33333333333334</ele><time>2026-05-01T07:36:08.27Z</time></trkpt><trkpt lat="43.9870112" lon="12.2052177"><ele>105.0</ele><time>2026-05-01T07:36:09.269Z</time></trkpt><trkpt lat="43.9868101" lon="12.205212"><ele>106.0</ele><time>2026-05-01T07:36:10.267Z</time></trkpt><trkpt lat="43.9865649" lon="12.2052059"><ele>107.0</ele><time>2026-05-01T07:36:11.258Z</time></trkpt><trkpt lat="43.9863267" lon="12.2052063"><ele>107.0</ele><time>2026-05-01T07:36:12.259Z</time></trkpt><trkpt lat="43.9860868" lon="12.205212"><ele>107.0</ele><time>2026-05-01T07:36:13.269Z</time></trkpt><trkpt lat="43.9858386" lon="12.205214"><ele>106.5</ele><time>2026-05-01T07:36:14.255Z</time></trkpt><trkpt lat="43.9856183" lon="12.2052248"><ele>106.0</ele><time>2026-05-01T07:36:15.256Z</time></trkpt><trkpt lat="43.985379" lon="12.2052282"><ele>106.0</ele><time>2026-05-01T07:36:16.271Z</time></trkpt><trkpt lat="43.9851474" lon="12.205239"><ele>106.0</ele><time>2026-05-01T07:36:17.259Z</time></trkpt><trkpt lat="43.9849084" lon="12.2052453"><ele>105.0</ele><time>2026-05-01T07:36:18.263Z</time></trkpt><trkpt lat="43.9846532" lon="12.2052546"><ele>104.0</ele><time>2026-05-01T07:36:19.258Z</time></trkpt><trkpt lat="43.9844295" lon="12.2052584"><ele>104.0</ele><time>2026-05-01T07:36:20.262Z</time></trkpt><trkpt lat="43.9841919" lon="12.2052751"><ele>104.0</ele><time>2026-05-01T07:36:21.263Z</time></trkpt><trkpt lat="43.9839562" lon="12.205277"><ele>104.5</ele><time>2026-05-01T07:36:22.262Z</time></trkpt><trkpt lat="43.9837163" lon="12.2052798"><ele>105.0</ele><time>2026-05-01T07:36:23.259Z</time></trkpt><trkpt lat="43.9834658" lon="12.2052942"><ele>106.5</ele><time>2026-05-01T07:36:24.272Z</time></trkpt><trkpt lat="43.9832197" lon="12.2053022"><ele>108.0</ele><time>2026-05-01T07:36:25.262Z</time></trkpt><trkpt lat="43.982977" lon="12.2053107"><ele>108.0</ele><time>2026-05-01T07:36:26.263Z</time></trkpt><trkpt lat="43.9827313" lon="12.2053234"><ele>108.0</ele><time>2026-05-01T07:36:27.261Z</time></trkpt><trkpt lat="43.9824769" lon="12.2053325"><ele>107.5</ele><time>2026-05-01T07:36:28.266Z</time></trkpt><trkpt lat="43.9821977" lon="12.2053278"><ele>107.0</ele><time>2026-05-01T07:36:29.27Z</time></trkpt><trkpt lat="43.98193" lon="12.205319"><ele>108.0</ele><time>2026-05-01T07:36:30.264Z</time></trkpt><trkpt lat="43.9816433" lon="12.2052905"><ele>109.0</ele><time>2026-05-01T07:36:31.266Z</time></trkpt><trkpt lat="43.9813595" lon="12.2052581"><ele>109.0</ele><time>2026-05-01T07:36:32.27Z</time></trkpt><trkpt lat="43.9810718" lon="12.205195"><ele>109.0</ele><time>2026-05-01T07:36:33.269Z</time></trkpt><trkpt lat="43.980796" lon="12.2051423"><ele>109.5</ele><time>2026-05-01T07:36:34.276Z</time></trkpt><trkpt lat="43.9805155" lon="12.205083"><ele>110.0</ele><time>2026-05-01T07:36:35.271Z</time></trkpt><trkpt lat="43.9802328" lon="12.205037"><ele>109.0</ele><time>2026-05-01T07:36:36.26Z</time></trkpt><trkpt lat="43.9799587" lon="12.2049635"><ele>108.0</ele><time>2026-05-01T07:36:37.26Z</time></trkpt><trkpt lat="43.9796763" lon="12.2049125"><ele>108.0</ele><time>2026-05-01T07:36:38.274Z</time></trkpt><trkpt lat="43.9794026" lon="12.2048537"><ele>108.0</ele><time>2026-05-01T07:36:39.264Z</time></trkpt><trkpt lat="43.9791174" lon="12.2048037"><ele>107.5</ele><time>2026-05-01T07:36:40.259Z</time></trkpt><trkpt lat="43.9788268" lon="12.2047419"><ele>107.0</ele><time>2026-05-01T07:36:41.258Z</time></trkpt><trkpt lat="43.9785313" lon="12.2046647"><ele>109.0</ele><time>2026-05-01T07:36:42.263Z</time></trkpt><trkpt lat="43.9782419" lon="12.2046008"><ele>111.0</ele><time>2026-05-01T07:36:43.26Z</time></trkpt><trkpt lat="43.9779417" lon="12.2045445"><ele>111.0</ele><time>2026-05-01T07:36:44.275Z</time></trkpt><trkpt lat="43.9776586" lon="12.2044839"><ele>111.0</ele><time>2026-05-01T07:36:45.267Z</time></trkpt><trkpt lat="43.9773784" lon="12.2044351"><ele>112.5</ele><time>2026-05-01T07:36:46.261Z</time></trkpt><trkpt lat="43.9770959" lon="12.2043606"><ele>114.0</ele><time>2026-05-01T07:36:47.259Z</time></trkpt><trkpt lat="43.9768088" lon="12.20429"><ele>113.5</ele><time>2026-05-01T07:36:48.259Z</time></trkpt><trkpt lat="43.9765118" lon="12.2042311"><ele>113.0</ele><time>2026-05-01T07:36:49.268Z</time></trkpt><trkpt lat="43.9761957" lon="12.2041641"><ele>113.0</ele><time>2026-05-01T07:36:50.264Z</time></trkpt><trkpt lat="43.9759051" lon="12.2041218"><ele>113.0</ele><time>2026-05-01T07:36:51.269Z</time></trkpt><trkpt lat="43.9756152" lon="12.2040591"><ele>112.0</ele><time>2026-05-01T07:36:52.268Z</time></trkpt><trkpt lat="43.9753542" lon="12.2040009"><ele>111.0</ele><time>2026-05-01T07:36:53.258Z</time></trkpt><trkpt lat="43.975085" lon="12.2039449"><ele>112.5</ele><time>2026-05-01T07:36:54.259Z</time></trkpt><trkpt lat="43.9748055" lon="12.2038692"><ele>114.0</ele><time>2026-05-01T07:36:55.256Z</time></trkpt><trkpt lat="43.9745424" lon="12.2037985"><ele>114.0</ele><time>2026-05-01T07:36:56.256Z</time></trkpt><trkpt lat="43.974282" lon="12.2037215"><ele>114.0</ele><time>2026-05-01T07:36:57.271Z</time></trkpt><trkpt lat="43.974" lon="12.2036681"><ele>119.0</ele><time>2026-05-01T07:36:58.267Z</time></trkpt><trkpt lat="43.9737215" lon="12.2036119"><ele>124.0</ele><time>2026-05-01T07:36:59.272Z</time></trkpt><trkpt lat="43.9734273" lon="12.2035332"><ele>123.0</ele><time>2026-05-01T07:37:00.26Z</time></trkpt><trkpt lat="43.973158" lon="12.2034608"><ele>122.0</ele><time>2026-05-01T07:37:01.261Z</time></trkpt><trkpt lat="43.9728651" lon="12.2033729"><ele>122.0</ele><time>2026-05-01T07:37:02.261Z</time></trkpt><trkpt lat="43.9725972" lon="12.2033296"><ele>122.0</ele><time>2026-05-01T07:37:03.265Z</time></trkpt><trkpt lat="43.972316" lon="12.2032659"><ele>120.5</ele><time>2026-05-01T07:37:04.26Z</time></trkpt><trkpt lat="43.9720431" lon="12.2031916"><ele>119.0</ele><time>2026-05-01T07:37:05.256Z</time></trkpt><trkpt lat="43.9717726" lon="12.2031404"><ele>121.5</ele><time>2026-05-01T07:37:06.269Z</time></trkpt><trkpt lat="43.9714928" lon="12.2030766"><ele>124.0</ele><time>2026-05-01T07:37:07.261Z</time></trkpt><trkpt lat="43.9712313" lon="12.2030221"><ele>124.0</ele><time>2026-05-01T07:37:08.261Z</time></trkpt><trkpt lat="43.9709656" lon="12.2029852"><ele>124.0</ele><time>2026-05-01T07:37:09.261Z</time></trkpt><trkpt lat="43.970697" lon="12.2029453"><ele>123.0</ele><time>2026-05-01T07:37:10.259Z</time></trkpt><trkpt lat="43.9704269" lon="12.2029394"><ele>122.0</ele><time>2026-05-01T07:37:11.269Z</time></trkpt><trkpt lat="43.9701269" lon="12.2028799"><ele>121.5</ele><time>2026-05-01T07:37:12.274Z</time></trkpt><trkpt lat="43.9698505" lon="12.2028291"><ele>121.0</ele><time>2026-05-01T07:37:13.258Z</time></trkpt><trkpt lat="43.9696091" lon="12.2028628"><ele>121.0</ele><time>2026-05-01T07:37:14.265Z</time></trkpt><trkpt lat="43.9693558" lon="12.20287"><ele>121.0</ele><time>2026-05-01T07:37:15.262Z</time></trkpt><trkpt lat="43.9690974" lon="12.2028832"><ele>122.0</ele><time>2026-05-01T07:37:16.272Z</time></trkpt><trkpt lat="43.9688399" lon="12.2028749"><ele>123.0</ele><time>2026-05-01T07:37:17.268Z</time></trkpt><trkpt lat="43.9685611" lon="12.202879"><ele>124.0</ele><time>2026-05-01T07:37:18.26Z</time></trkpt><trkpt lat="43.9682703" lon="12.2028533"><ele>125.0</ele><time>2026-05-01T07:37:19.264Z</time></trkpt><trkpt lat="43.9679864" lon="12.2028452"><ele>125.0</ele><time>2026-05-01T07:37:20.266Z</time></trkpt><trkpt lat="43.9677177" lon="12.2028235"><ele>125.0</ele><time>2026-05-01T07:37:21.27Z</time></trkpt><trkpt lat="43.9674632" lon="12.2028398"><ele>126.5</ele><time>2026-05-01T07:37:22.268Z</time></trkpt><trkpt lat="43.9672006" lon="12.2028425"><ele>128.0</ele><time>2026-05-01T07:37:23.275Z</time></trkpt><trkpt lat="43.9669368" lon="12.2028382"><ele>128.0</ele><time>2026-05-01T07:37:24.274Z</time></trkpt><trkpt lat="43.9666487" lon="12.2028241"><ele>128.0</ele><time>2026-05-01T07:37:25.271Z</time></trkpt><trkpt lat="43.9663811" lon="12.2028299"><ele>128.0</ele><time>2026-05-01T07:37:26.274Z</time></trkpt><trkpt lat="43.9661076" lon="12.2028282"><ele>128.0</ele><time>2026-05-01T07:37:27.273Z</time></trkpt><trkpt lat="43.9658541" lon="12.2028198"><ele>127.0</ele><time>2026-05-01T07:37:28.26Z</time></trkpt><trkpt lat="43.9655878" lon="12.202821"><ele>126.0</ele><time>2026-05-01T07:37:29.26Z</time></trkpt><trkpt lat="43.9653206" lon="12.2028161"><ele>126.0</ele><time>2026-05-01T07:37:30.261Z</time></trkpt><trkpt lat="43.9650542" lon="12.2028115"><ele>126.0</ele><time>2026-05-01T07:37:31.269Z</time></trkpt><trkpt lat="43.9648217" lon="12.202748"><ele>132.0</ele><time>2026-05-01T07:37:32.255Z</time></trkpt><trkpt lat="43.9645775" lon="12.2026928"><ele>138.0</ele><time>2026-05-01T07:37:33.26Z</time></trkpt><trkpt lat="43.9643331" lon="12.2026305"><ele>139.5</ele><time>2026-05-01T07:37:34.272Z</time></trkpt><trkpt lat="43.9641047" lon="12.2025443"><ele>141.0</ele><time>2026-05-01T07:37:35.266Z</time></trkpt><trkpt lat="43.9638578" lon="12.2024576"><ele>141.0</ele><time>2026-05-01T07:37:36.27Z</time></trkpt><trkpt lat="43.9636393" lon="12.2023706"><ele>141.0</ele><time>2026-05-01T07:37:37.258Z</time></trkpt><trkpt lat="43.9634187" lon="12.2022542"><ele>137.0</ele><time>2026-05-01T07:37:38.27Z</time></trkpt><trkpt lat="43.9631647" lon="12.2021601"><ele>133.0</ele><time>2026-05-01T07:37:39.272Z</time></trkpt><trkpt lat="43.9629649" lon="12.2020351"><ele>133.0</ele><time>2026-05-01T07:37:40.273Z</time></trkpt><trkpt lat="43.9627502" lon="12.2019244"><ele>133.0</ele><time>2026-05-01T07:37:41.262Z</time></trkpt><trkpt lat="43.9625512" lon="12.201779"><ele>133.33333333333334</ele><time>2026-05-01T07:37:42.275Z</time></trkpt><trkpt lat="43.9623595" lon="12.2016897"><ele>133.66666666666666</ele><time>2026-05-01T07:37:43.272Z</time></trkpt><trkpt lat="43.9621755" lon="12.2015767"><ele>134.0</ele><time>2026-05-01T07:37:44.273Z</time></trkpt><trkpt lat="43.9619771" lon="12.2014768"><ele>134.0</ele><time>2026-05-01T07:37:45.258Z</time></trkpt><trkpt lat="43.9617953" lon="12.2013741"><ele>134.0</ele><time>2026-05-01T07:37:46.271Z</time></trkpt><trkpt lat="43.9616122" lon="12.2012559"><ele>134.0</ele><time>2026-05-01T07:37:47.272Z</time></trkpt><trkpt lat="43.9614293" lon="12.2011582"><ele>145.0</ele><time>2026-05-01T07:37:48.263Z</time></trkpt><trkpt lat="43.9612175" lon="12.2010364"><ele>156.0</ele><time>2026-05-01T07:37:49.274Z</time></trkpt><trkpt lat="43.9610053" lon="12.2009482"><ele>156.66666666666666</ele><time>2026-05-01T07:37:50.262Z</time></trkpt><trkpt lat="43.9608057" lon="12.2008572"><ele>157.33333333333331</ele><time>2026-05-01T07:37:51.276Z</time></trkpt><trkpt lat="43.9605997" lon="12.2007747"><ele>158.0</ele><time>2026-05-01T07:37:52.271Z</time></trkpt><trkpt lat="43.9603804" lon="12.2007036"><ele>158.0</ele><time>2026-05-01T07:37:53.271Z</time></trkpt><trkpt lat="43.9601825" lon="12.2006338"><ele>158.0</ele><time>2026-05-01T07:37:54.273Z</time></trkpt><trkpt lat="43.9599894" lon="12.2005803"><ele>158.0</ele><time>2026-05-01T07:37:55.273Z</time></trkpt><trkpt lat="43.9598019" lon="12.2005369"><ele>158.0</ele><time>2026-05-01T07:37:56.263Z</time></trkpt><trkpt lat="43.9596123" lon="12.2004973"><ele>158.0</ele><time>2026-05-01T07:37:57.261Z</time></trkpt><trkpt lat="43.9594446" lon="12.2004441"><ele>158.0</ele><time>2026-05-01T07:37:58.275Z</time></trkpt><trkpt lat="43.9592727" lon="12.2003995"><ele>158.66666666666666</ele><time>2026-05-01T07:37:59.277Z</time></trkpt><trkpt lat="43.9590928" lon="12.2003632"><ele>159.33333333333334</ele><time>2026-05-01T07:38:00.272Z</time></trkpt><trkpt lat="43.9589118" lon="12.2003351"><ele>160.0</ele><time>2026-05-01T07:38:01.263Z</time></trkpt><trkpt lat="43.9587529" lon="12.2002747"><ele>160.0</ele><time>2026-05-01T07:38:02.269Z</time></trkpt><trkpt lat="43.9586021" lon="12.2002513"><ele>160.0</ele><time>2026-05-01T07:38:03.258Z</time></trkpt><trkpt lat="43.9584331" lon="12.2002065"><ele>160.0</ele><time>2026-05-01T07:38:04.27Z</time></trkpt><trkpt lat="43.9582576" lon="12.200163"><ele>161.33333333333334</ele><time>2026-05-01T07:38:05.27Z</time></trkpt><trkpt lat="43.9580717" lon="12.2001277"><ele>162.66666666666666</ele><time>2026-05-01T07:38:06.27Z</time></trkpt><trkpt lat="43.9578917" lon="12.2001187"><ele>164.0</ele><time>2026-05-01T07:38:07.259Z</time></trkpt><trkpt lat="43.9576871" lon="12.2000985"><ele>165.0</ele><time>2026-05-01T07:38:08.273Z</time></trkpt><trkpt lat="43.9575255" lon="12.2000423"><ele>166.0</ele><time>2026-05-01T07:38:09.267Z</time></trkpt><trkpt lat="43.9573786" lon="12.1999976"><ele>167.0</ele><time>2026-05-01T07:38:10.268Z</time></trkpt><trkpt lat="43.9572343" lon="12.1999018"><ele>167.0</ele><time>2026-05-01T07:38:11.27Z</time></trkpt><trkpt lat="43.9570617" lon="12.1998607"><ele>167.0</ele><time>2026-05-01T07:38:12.269Z</time></trkpt><trkpt lat="43.9568955" lon="12.1997969"><ele>167.0</ele><time>2026-05-01T07:38:13.266Z</time></trkpt><trkpt lat="43.9567174" lon="12.1997512"><ele>165.33333333333331</ele><time>2026-05-01T07:38:14.259Z</time></trkpt><trkpt lat="43.9565389" lon="12.1996675"><ele>163.66666666666666</ele><time>2026-05-01T07:38:15.261Z</time></trkpt><trkpt lat="43.9563592" lon="12.1995879"><ele>162.0</ele><time>2026-05-01T07:38:16.27Z</time></trkpt><trkpt lat="43.9561835" lon="12.1994829"><ele>162.0</ele><time>2026-05-01T07:38:17.27Z</time></trkpt><trkpt lat="43.9560051" lon="12.1993638"><ele>162.0</ele><time>2026-05-01T07:38:18.263Z</time></trkpt><trkpt lat="43.9558293" lon="12.1992429"><ele>162.0</ele><time>2026-05-01T07:38:19.271Z</time></trkpt><trkpt lat="43.9556651" lon="12.1991176"><ele>166.66666666666666</ele><time>2026-05-01T07:38:20.264Z</time></trkpt><trkpt lat="43.9554992" lon="12.1989887"><ele>171.33333333333331</ele><time>2026-05-01T07:38:21.272Z</time></trkpt><trkpt lat="43.9553149" lon="12.1988266"><ele>176.0</ele><time>2026-05-01T07:38:22.27Z</time></trkpt><trkpt lat="43.9551722" lon="12.1987207"><ele>178.33333333333331</ele><time>2026-05-01T07:38:23.261Z</time></trkpt><trkpt lat="43.9550085" lon="12.1985867"><ele>180.66666666666666</ele><time>2026-05-01T07:38:24.269Z</time></trkpt><trkpt lat="43.9548373" lon="12.1984269"><ele>183.0</ele><time>2026-05-01T07:38:25.256Z</time></trkpt><trkpt lat="43.9547302" lon="12.1982151"><ele>180.33333333333334</ele><time>2026-05-01T07:38:26.266Z</time></trkpt><trkpt lat="43.9545857" lon="12.1980151"><ele>177.66666666666669</ele><time>2026-05-01T07:38:27.269Z</time></trkpt><trkpt lat="43.9544458" lon="12.1978189"><ele>175.0</ele><time>2026-05-01T07:38:28.258Z</time></trkpt><trkpt lat="43.9543261" lon="12.1975732"><ele>175.66666666666669</ele><time>2026-05-01T07:38:29.272Z</time></trkpt><trkpt lat="43.9541911" lon="12.1973583"><ele>176.33333333333334</ele><time>2026-05-01T07:38:30.26Z</time></trkpt><trkpt lat="43.9540618" lon="12.1971359"><ele>177.0</ele><time>2026-05-01T07:38:31.26Z</time></trkpt><trkpt lat="43.9539202" lon="12.1969065"><ele>177.0</ele><time>2026-05-01T07:38:32.27Z</time></trkpt><trkpt lat="43.9537871" lon="12.1966869"><ele>177.0</ele><time>2026-05-01T07:38:33.269Z</time></trkpt><trkpt lat="43.9536572" lon="12.1964719"><ele>177.0</ele><time>2026-05-01T07:38:34.27Z</time></trkpt><trkpt lat="43.953525" lon="12.1962365"><ele>175.0</ele><time>2026-05-01T07:38:35.259Z</time></trkpt><trkpt lat="43.953391" lon="12.1959808"><ele>173.0</ele><time>2026-05-01T07:38:36.26Z</time></trkpt><trkpt lat="43.9532345" lon="12.195748"><ele>170.5</ele><time>2026-05-01T07:38:37.264Z</time></trkpt><trkpt lat="43.9530886" lon="12.1955129"><ele>168.0</ele><time>2026-05-01T07:38:38.265Z</time></trkpt><trkpt lat="43.9529422" lon="12.1952724"><ele>168.0</ele><time>2026-05-01T07:38:39.258Z</time></trkpt><trkpt lat="43.9527921" lon="12.1950278"><ele>168.0</ele><time>2026-05-01T07:38:40.269Z</time></trkpt><trkpt lat="43.9526402" lon="12.1947922"><ele>176.5</ele><time>2026-05-01T07:38:41.26Z</time></trkpt><trkpt lat="43.952483" lon="12.194515"><ele>185.0</ele><time>2026-05-01T07:38:42.261Z</time></trkpt><trkpt lat="43.952326" lon="12.1942539"><ele>185.0</ele><time>2026-05-01T07:38:43.259Z</time></trkpt><trkpt lat="43.952132" lon="12.1940195"><ele>185.0</ele><time>2026-05-01T07:38:44.261Z</time></trkpt><trkpt lat="43.9519542" lon="12.1937657"><ele>183.5</ele><time>2026-05-01T07:38:45.269Z</time></trkpt><trkpt lat="43.9517914" lon="12.193509"><ele>182.0</ele><time>2026-05-01T07:38:46.269Z</time></trkpt><trkpt lat="43.9516388" lon="12.1932377"><ele>184.5</ele><time>2026-05-01T07:38:47.261Z</time></trkpt><trkpt lat="43.9514676" lon="12.1929809"><ele>187.0</ele><time>2026-05-01T07:38:48.267Z</time></trkpt><trkpt lat="43.9513012" lon="12.1927122"><ele>187.0</ele><time>2026-05-01T07:38:49.261Z</time></trkpt><trkpt lat="43.9511351" lon="12.1924473"><ele>187.0</ele><time>2026-05-01T07:38:50.27Z</time></trkpt><trkpt lat="43.9509626" lon="12.1921822"><ele>189.0</ele><time>2026-05-01T07:38:51.269Z</time></trkpt><trkpt lat="43.9507959" lon="12.1919257"><ele>191.0</ele><time>2026-05-01T07:38:52.267Z</time></trkpt><trkpt lat="43.9506397" lon="12.1916502"><ele>191.5</ele><time>2026-05-01T07:38:53.266Z</time></trkpt><trkpt lat="43.9504813" lon="12.1913826"><ele>192.0</ele><time>2026-05-01T07:38:54.27Z</time></trkpt><trkpt lat="43.9503232" lon="12.1911048"><ele>192.0</ele><time>2026-05-01T07:38:55.256Z</time></trkpt><trkpt lat="43.9501277" lon="12.1908357"><ele>192.0</ele><time>2026-05-01T07:38:56.26Z</time></trkpt><trkpt lat="43.9499428" lon="12.1905554"><ele>192.5</ele><time>2026-05-01T07:38:57.269Z</time></trkpt><trkpt lat="43.9497558" lon="12.1903139"><ele>193.0</ele><time>2026-05-01T07:38:58.265Z</time></trkpt><trkpt lat="43.9495701" lon="12.1900831"><ele>193.5</ele><time>2026-05-01T07:38:59.264Z</time></trkpt><trkpt lat="43.9493777" lon="12.1898377"><ele>194.0</ele><time>2026-05-01T07:39:00.271Z</time></trkpt><trkpt lat="43.9491709" lon="12.189616"><ele>194.5</ele><time>2026-05-01T07:39:01.27Z</time></trkpt><trkpt lat="43.9489681" lon="12.1893858"><ele>195.0</ele><time>2026-05-01T07:39:02.266Z</time></trkpt><trkpt lat="43.9487635" lon="12.189168"><ele>195.0</ele><time>2026-05-01T07:39:03.266Z</time></trkpt><trkpt lat="43.9485531" lon="12.1889589"><ele>195.0</ele><time>2026-05-01T07:39:04.264Z</time></trkpt><trkpt lat="43.9483339" lon="12.188757"><ele>195.0</ele><time>2026-05-01T07:39:05.258Z</time></trkpt><trkpt lat="43.9481461" lon="12.1885736"><ele>195.0</ele><time>2026-05-01T07:39:06.267Z</time></trkpt><trkpt lat="43.9479503" lon="12.188401"><ele>195.0</ele><time>2026-05-01T07:39:07.269Z</time></trkpt><trkpt lat="43.947768" lon="12.1882067"><ele>195.0</ele><time>2026-05-01T07:39:08.27Z</time></trkpt><trkpt lat="43.9475371" lon="12.1880592"><ele>185.0</ele><time>2026-05-01T07:39:09.27Z</time></trkpt><trkpt lat="43.9472792" lon="12.1879143"><ele>175.0</ele><time>2026-05-01T07:39:10.258Z</time></trkpt><trkpt lat="43.947041" lon="12.1877756"><ele>175.0</ele><time>2026-05-01T07:39:11.276Z</time></trkpt><trkpt lat="43.9468077" lon="12.1876441"><ele>175.0</ele><time>2026-05-01T07:39:12.257Z</time></trkpt><trkpt lat="43.9465543" lon="12.1875263"><ele>161.0</ele><time>2026-05-01T07:39:13.267Z</time></trkpt><trkpt lat="43.9463116" lon="12.187396"><ele>147.0</ele><time>2026-05-01T07:39:14.268Z</time></trkpt><trkpt lat="43.9460821" lon="12.1872804"><ele>145.0</ele><time>2026-05-01T07:39:15.267Z</time></trkpt><trkpt lat="43.9458314" lon="12.187186"><ele>143.0</ele><time>2026-05-01T07:39:16.269Z</time></trkpt><trkpt lat="43.9455758" lon="12.1870961"><ele>143.0</ele><time>2026-05-01T07:39:17.267Z</time></trkpt><trkpt lat="43.9453346" lon="12.1870062"><ele>143.0</ele><time>2026-05-01T07:39:18.274Z</time></trkpt><trkpt lat="43.9450542" lon="12.1869396"><ele>141.5</ele><time>2026-05-01T07:39:19.269Z</time></trkpt><trkpt lat="43.9447915" lon="12.1868505"><ele>140.0</ele><time>2026-05-01T07:39:20.274Z</time></trkpt><trkpt lat="43.9445281" lon="12.1867681"><ele>140.0</ele><time>2026-05-01T07:39:21.262Z</time></trkpt><trkpt lat="43.9442641" lon="12.1866866"><ele>140.0</ele><time>2026-05-01T07:39:22.259Z</time></trkpt><trkpt lat="43.9439914" lon="12.1866025"><ele>140.0</ele><time>2026-05-01T07:39:23.273Z</time></trkpt><trkpt lat="43.9437408" lon="12.1865255"><ele>140.0</ele><time>2026-05-01T07:39:24.259Z</time></trkpt><trkpt lat="43.9434844" lon="12.1864378"><ele>148.0</ele><time>2026-05-01T07:39:25.264Z</time></trkpt><trkpt lat="43.943223" lon="12.186353"><ele>156.0</ele><time>2026-05-01T07:39:26.261Z</time></trkpt><trkpt lat="43.9429814" lon="12.1862646"><ele>156.0</ele><time>2026-05-01T07:39:27.263Z</time></trkpt><trkpt lat="43.942683" lon="12.1862069"><ele>156.0</ele><time>2026-05-01T07:39:28.264Z</time></trkpt><trkpt lat="43.9424153" lon="12.186121"><ele>152.5</ele><time>2026-05-01T07:39:29.271Z</time></trkpt><trkpt lat="43.9421495" lon="12.1860265"><ele>149.0</ele><time>2026-05-01T07:39:30.261Z</time></trkpt><trkpt lat="43.9418858" lon="12.185943"><ele>161.5</ele><time>2026-05-01T07:39:31.26Z</time></trkpt><trkpt lat="43.9416121" lon="12.185867"><ele>174.0</ele><time>2026-05-01T07:39:32.275Z</time></trkpt><trkpt lat="43.9413416" lon="12.1858029"><ele>174.0</ele><time>2026-05-01T07:39:33.259Z</time></trkpt><trkpt lat="43.9410765" lon="12.1857231"><ele>174.0</ele><time>2026-05-01T07:39:34.26Z</time></trkpt><trkpt lat="43.9408138" lon="12.1856587"><ele>171.0</ele><time>2026-05-01T07:39:35.269Z</time></trkpt><trkpt lat="43.9405517" lon="12.1855619"><ele>168.0</ele><time>2026-05-01T07:39:36.273Z</time></trkpt><trkpt lat="43.9402967" lon="12.1854572"><ele>173.0</ele><time>2026-05-01T07:39:37.27Z</time></trkpt><trkpt lat="43.9400324" lon="12.1853399"><ele>178.0</ele><time>2026-05-01T07:39:38.271Z</time></trkpt><trkpt lat="43.9397542" lon="12.1852163"><ele>178.0</ele><time>2026-05-01T07:39:39.274Z</time></trkpt><trkpt lat="43.9394973" lon="12.1850537"><ele>178.0</ele><time>2026-05-01T07:39:40.261Z</time></trkpt><trkpt lat="43.939245" lon="12.1849062"><ele>178.0</ele><time>2026-05-01T07:39:41.269Z</time></trkpt><trkpt lat="43.9389807" lon="12.1847497"><ele>178.0</ele><time>2026-05-01T07:39:42.259Z</time></trkpt><trkpt lat="43.9387094" lon="12.1845808"><ele>178.0</ele><time>2026-05-01T07:39:43.261Z</time></trkpt><trkpt lat="43.9384609" lon="12.1843949"><ele>178.0</ele><time>2026-05-01T07:39:44.261Z</time></trkpt><trkpt lat="43.9382061" lon="12.1842069"><ele>180.5</ele><time>2026-05-01T07:39:45.275Z</time></trkpt><trkpt lat="43.937956" lon="12.183978"><ele>183.0</ele><time>2026-05-01T07:39:46.262Z</time></trkpt><trkpt lat="43.9376969" lon="12.1837597"><ele>187.5</ele><time>2026-05-01T07:39:47.279Z</time></trkpt><trkpt lat="43.937524" lon="12.1834904"><ele>192.0</ele><time>2026-05-01T07:39:48.259Z</time></trkpt><trkpt lat="43.93731" lon="12.1832504"><ele>188.0</ele><time>2026-05-01T07:39:49.273Z</time></trkpt><trkpt lat="43.9371145" lon="12.1829828"><ele>184.0</ele><time>2026-05-01T07:39:50.263Z</time></trkpt><trkpt lat="43.9369206" lon="12.1827452"><ele>188.5</ele><time>2026-05-01T07:39:51.271Z</time></trkpt><trkpt lat="43.9366888" lon="12.1825155"><ele>193.0</ele><time>2026-05-01T07:39:52.264Z</time></trkpt><trkpt lat="43.9364738" lon="12.1822771"><ele>193.0</ele><time>2026-05-01T07:39:53.269Z</time></trkpt><trkpt lat="43.9363169" lon="12.1819981"><ele>193.0</ele><time>2026-05-01T07:39:54.261Z</time></trkpt><trkpt lat="43.936144" lon="12.1817079"><ele>192.0</ele><time>2026-05-01T07:39:55.26Z</time></trkpt><trkpt lat="43.9359951" lon="12.1814105"><ele>191.0</ele><time>2026-05-01T07:39:56.262Z</time></trkpt><trkpt lat="43.9358258" lon="12.181117"><ele>192.0</ele><time>2026-05-01T07:39:57.272Z</time></trkpt><trkpt lat="43.9356453" lon="12.1808185"><ele>193.0</ele><time>2026-05-01T07:39:58.265Z</time></trkpt><trkpt lat="43.9355161" lon="12.1805031"><ele>193.0</ele><time>2026-05-01T07:39:59.265Z</time></trkpt><trkpt lat="43.9353467" lon="12.1801917"><ele>193.0</ele><time>2026-05-01T07:40:00.266Z</time></trkpt><trkpt lat="43.9351944" lon="12.1798845"><ele>194.5</ele><time>2026-05-01T07:40:01.261Z</time></trkpt><trkpt lat="43.9350332" lon="12.1795676"><ele>196.0</ele><time>2026-05-01T07:40:02.264Z</time></trkpt><trkpt lat="43.9348755" lon="12.1792604"><ele>192.0</ele><time>2026-05-01T07:40:03.26Z</time></trkpt><trkpt lat="43.9347171" lon="12.1789412"><ele>188.0</ele><time>2026-05-01T07:40:04.26Z</time></trkpt><trkpt lat="43.9345668" lon="12.1786265"><ele>188.0</ele><time>2026-05-01T07:40:05.27Z</time></trkpt><trkpt lat="43.9344288" lon="12.1783138"><ele>188.0</ele><time>2026-05-01T07:40:06.264Z</time></trkpt><trkpt lat="43.9342662" lon="12.1779939"><ele>188.0</ele><time>2026-05-01T07:40:07.266Z</time></trkpt><trkpt lat="43.9341151" lon="12.1776299"><ele>188.0</ele><time>2026-05-01T07:40:08.26Z</time></trkpt><trkpt lat="43.9339544" lon="12.1773264"><ele>188.0</ele><time>2026-05-01T07:40:09.267Z</time></trkpt><trkpt lat="43.9338081" lon="12.1770245"><ele>188.0</ele><time>2026-05-01T07:40:10.273Z</time></trkpt><trkpt lat="43.9336535" lon="12.1766989"><ele>187.5</ele><time>2026-05-01T07:40:11.256Z</time></trkpt><trkpt lat="43.9335007" lon="12.176354"><ele>187.0</ele><time>2026-05-01T07:40:12.268Z</time></trkpt><trkpt lat="43.9333407" lon="12.1760365"><ele>187.0</ele><time>2026-05-01T07:40:13.274Z</time></trkpt><trkpt lat="43.9331613" lon="12.175751"><ele>187.0</ele><time>2026-05-01T07:40:14.263Z</time></trkpt><trkpt lat="43.9329732" lon="12.1754656"><ele>177.0</ele><time>2026-05-01T07:40:15.26Z</time></trkpt><trkpt lat="43.9328053" lon="12.1751949"><ele>167.0</ele><time>2026-05-01T07:40:16.263Z</time></trkpt><trkpt lat="43.9326242" lon="12.1749365"><ele>160.5</ele><time>2026-05-01T07:40:17.26Z</time></trkpt><trkpt lat="43.9323901" lon="12.1746925"><ele>154.0</ele><time>2026-05-01T07:40:18.274Z</time></trkpt><trkpt lat="43.9321855" lon="12.1744546"><ele>154.0</ele><time>2026-05-01T07:40:19.262Z</time></trkpt><trkpt lat="43.9319658" lon="12.1742469"><ele>154.0</ele><time>2026-05-01T07:40:20.264Z</time></trkpt><trkpt lat="43.9317166" lon="12.1740573"><ele>154.5</ele><time>2026-05-01T07:40:21.274Z</time></trkpt><trkpt lat="43.9314739" lon="12.1738528"><ele>155.0</ele><time>2026-05-01T07:40:22.27Z</time></trkpt><trkpt lat="43.9312014" lon="12.1737323"><ele>155.0</ele><time>2026-05-01T07:40:23.272Z</time></trkpt><trkpt lat="43.9309152" lon="12.1736227"><ele>155.0</ele><time>2026-05-01T07:40:24.26Z</time></trkpt><trkpt lat="43.9306659" lon="12.1735032"><ele>158.5</ele><time>2026-05-01T07:40:25.261Z</time></trkpt><trkpt lat="43.9304029" lon="12.1734127"><ele>162.0</ele><time>2026-05-01T07:40:26.273Z</time></trkpt><trkpt lat="43.9301377" lon="12.1733335"><ele>169.5</ele><time>2026-05-01T07:40:27.263Z</time></trkpt><trkpt lat="43.9299033" lon="12.1732709"><ele>177.0</ele><time>2026-05-01T07:40:28.266Z</time></trkpt><trkpt lat="43.9296191" lon="12.1732308"><ele>176.5</ele><time>2026-05-01T07:40:29.276Z</time></trkpt><trkpt lat="43.9293468" lon="12.173181"><ele>176.0</ele><time>2026-05-01T07:40:30.264Z</time></trkpt><trkpt lat="43.9290983" lon="12.1730939"><ele>176.0</ele><time>2026-05-01T07:40:31.269Z</time></trkpt><trkpt lat="43.9288492" lon="12.1730153"><ele>176.0</ele><time>2026-05-01T07:40:32.274Z</time></trkpt><trkpt lat="43.9286153" lon="12.1729635"><ele>178.66666666666666</ele><time>2026-05-01T07:40:33.272Z</time></trkpt><trkpt lat="43.9283881" lon="12.1728948"><ele>181.33333333333334</ele><time>2026-05-01T07:40:34.263Z</time></trkpt><trkpt lat="43.9281813" lon="12.1728482"><ele>184.0</ele><time>2026-05-01T07:40:35.257Z</time></trkpt><trkpt lat="43.9279536" lon="12.1727936"><ele>184.0</ele><time>2026-05-01T07:40:36.275Z</time></trkpt><trkpt lat="43.9277184" lon="12.1727343"><ele>184.0</ele><time>2026-05-01T07:40:37.274Z</time></trkpt><trkpt lat="43.9274843" lon="12.1726904"><ele>185.0</ele><time>2026-05-01T07:40:38.261Z</time></trkpt><trkpt lat="43.9272613" lon="12.1726059"><ele>186.0</ele><time>2026-05-01T07:40:39.273Z</time></trkpt><trkpt lat="43.927063" lon="12.1725358"><ele>187.0</ele><time>2026-05-01T07:40:40.272Z</time></trkpt><trkpt lat="43.9268454" lon="12.1724461"><ele>184.0</ele><time>2026-05-01T07:40:41.261Z</time></trkpt><trkpt lat="43.9266432" lon="12.1723244"><ele>181.0</ele><time>2026-05-01T07:40:42.262Z</time></trkpt><trkpt lat="43.9264451" lon="12.1722139"><ele>178.0</ele><time>2026-05-01T07:40:43.261Z</time></trkpt><trkpt lat="43.9262508" lon="12.1720981"><ele>178.0</ele><time>2026-05-01T07:40:44.274Z</time></trkpt><trkpt lat="43.9260862" lon="12.1719644"><ele>178.0</ele><time>2026-05-01T07:40:45.274Z</time></trkpt><trkpt lat="43.9258895" lon="12.171832"><ele>178.0</ele><time>2026-05-01T07:40:46.266Z</time></trkpt><trkpt lat="43.9257123" lon="12.1717251"><ele>175.66666666666669</ele><time>2026-05-01T07:40:47.275Z</time></trkpt><trkpt lat="43.9255467" lon="12.1715852"><ele>173.33333333333334</ele><time>2026-05-01T07:40:48.273Z</time></trkpt><trkpt lat="43.9253843" lon="12.1714508"><ele>171.0</ele><time>2026-05-01T07:40:49.26Z</time></trkpt><trkpt lat="43.9252927" lon="12.1711781"><ele>171.0</ele><time>2026-05-01T07:40:50.263Z</time></trkpt><trkpt lat="43.9251413" lon="12.1709864"><ele>171.0</ele><time>2026-05-01T07:40:51.275Z</time></trkpt><trkpt lat="43.9250298" lon="12.1707331"><ele>171.0</ele><time>2026-05-01T07:40:52.272Z</time></trkpt><trkpt lat="43.9248671" lon="12.1705251"><ele>171.0</ele><time>2026-05-01T07:40:53.267Z</time></trkpt><trkpt lat="43.9247281" lon="12.1702898"><ele>171.0</ele><time>2026-05-01T07:40:54.269Z</time></trkpt><trkpt lat="43.9246159" lon="12.1699833"><ele>173.5</ele><time>2026-05-01T07:40:55.274Z</time></trkpt><trkpt lat="43.9244826" lon="12.1696935"><ele>176.0</ele><time>2026-05-01T07:40:56.275Z</time></trkpt><trkpt lat="43.9243653" lon="12.1694093"><ele>176.0</ele><time>2026-05-01T07:40:57.273Z</time></trkpt><trkpt lat="43.9242798" lon="12.169083"><ele>176.0</ele><time>2026-05-01T07:40:58.263Z</time></trkpt><trkpt lat="43.9241657" lon="12.1687877"><ele>176.0</ele><time>2026-05-01T07:40:59.273Z</time></trkpt><trkpt lat="43.9241345" lon="12.1684789"><ele>176.0</ele><time>2026-05-01T07:41:00.269Z</time></trkpt><trkpt lat="43.9241423" lon="12.1681103"><ele>177.0</ele><time>2026-05-01T07:41:01.271Z</time></trkpt><trkpt lat="43.9240566" lon="12.1677905"><ele>178.0</ele><time>2026-05-01T07:41:02.275Z</time></trkpt><trkpt lat="43.9240231" lon="12.1674751"><ele>179.5</ele><time>2026-05-01T07:41:03.273Z</time></trkpt><trkpt lat="43.9239899" lon="12.1671618"><ele>181.0</ele><time>2026-05-01T07:41:04.265Z</time></trkpt><trkpt lat="43.9239806" lon="12.1668312"><ele>185.33333333333334</ele><time>2026-05-01T07:41:05.272Z</time></trkpt><trkpt lat="43.9239518" lon="12.1665157"><ele>189.66666666666669</ele><time>2026-05-01T07:41:06.266Z</time></trkpt><trkpt lat="43.9238938" lon="12.1662714"><ele>194.0</ele><time>2026-05-01T07:41:07.261Z</time></trkpt><trkpt lat="43.9238629" lon="12.1659833"><ele>194.0</ele><time>2026-05-01T07:41:08.262Z</time></trkpt><trkpt lat="43.9238293" lon="12.1657054"><ele>194.0</ele><time>2026-05-01T07:41:09.27Z</time></trkpt><trkpt lat="43.923617" lon="12.1631678"><ele>189.0</ele><time>2026-05-01T07:41:16.269Z</time></trkpt><trkpt lat="43.9235934" lon="12.1627313"><ele>184.0</ele><time>2026-05-01T07:41:17.273Z</time></trkpt><trkpt lat="43.9235479" lon="12.1623677"><ele>190.0</ele><time>2026-05-01T07:41:18.256Z</time></trkpt><trkpt lat="43.9235306" lon="12.1619867"><ele>196.0</ele><time>2026-05-01T07:41:19.273Z</time></trkpt><trkpt lat="43.9235362" lon="12.1616288"><ele>199.5</ele><time>2026-05-01T07:41:20.26Z</time></trkpt><trkpt lat="43.9234974" lon="12.1612849"><ele>203.0</ele><time>2026-05-01T07:41:21.269Z</time></trkpt><trkpt lat="43.9234686" lon="12.1609265"><ele>205.5</ele><time>2026-05-01T07:41:22.272Z</time></trkpt><trkpt lat="43.9234315" lon="12.1605638"><ele>208.0</ele><time>2026-05-01T07:41:23.262Z</time></trkpt><trkpt lat="43.9234134" lon="12.160189"><ele>196.5</ele><time>2026-05-01T07:41:24.262Z</time></trkpt><trkpt lat="43.9233727" lon="12.1598118"><ele>185.0</ele><time>2026-05-01T07:41:25.26Z</time></trkpt><trkpt lat="43.9233342" lon="12.1594327"><ele>185.0</ele><time>2026-05-01T07:41:26.267Z</time></trkpt><trkpt lat="43.9232909" lon="12.1590428"><ele>185.0</ele><time>2026-05-01T07:41:27.276Z</time></trkpt><trkpt lat="43.923276" lon="12.158619"><ele>180.5</ele><time>2026-05-01T07:41:28.272Z</time></trkpt><trkpt lat="43.923261" lon="12.1581904"><ele>176.0</ele><time>2026-05-01T07:41:29.268Z</time></trkpt><trkpt lat="43.9232241" lon="12.1577756"><ele>174.5</ele><time>2026-05-01T07:41:30.272Z</time></trkpt><trkpt lat="43.9231804" lon="12.157347"><ele>173.0</ele><time>2026-05-01T07:41:31.274Z</time></trkpt><trkpt lat="43.9231138" lon="12.1569389"><ele>173.0</ele><time>2026-05-01T07:41:32.274Z</time></trkpt><trkpt lat="43.9231012" lon="12.1565614"><ele>173.0</ele><time>2026-05-01T07:41:33.272Z</time></trkpt><trkpt lat="43.9230726" lon="12.1561608"><ele>172.5</ele><time>2026-05-01T07:41:34.26Z</time></trkpt><trkpt lat="43.9230547" lon="12.1557683"><ele>172.0</ele><time>2026-05-01T07:41:35.26Z</time></trkpt><trkpt lat="43.9230138" lon="12.1553797"><ele>172.0</ele><time>2026-05-01T07:41:36.273Z</time></trkpt><trkpt lat="43.922993" lon="12.1549886"><ele>172.0</ele><time>2026-05-01T07:41:37.264Z</time></trkpt><trkpt lat="43.9229562" lon="12.1545928"><ele>175.0</ele><time>2026-05-01T07:41:38.265Z</time></trkpt><trkpt lat="43.9229" lon="12.154232"><ele>178.0</ele><time>2026-05-01T07:41:39.269Z</time></trkpt><trkpt lat="43.922842" lon="12.1538654"><ele>178.0</ele><time>2026-05-01T07:41:40.272Z</time></trkpt><trkpt lat="43.9227698" lon="12.1534745"><ele>178.0</ele><time>2026-05-01T07:41:41.265Z</time></trkpt><trkpt lat="43.922659" lon="12.1531187"><ele>175.5</ele><time>2026-05-01T07:41:42.262Z</time></trkpt><trkpt lat="43.9225895" lon="12.1527557"><ele>173.0</ele><time>2026-05-01T07:41:43.274Z</time></trkpt><trkpt lat="43.9224771" lon="12.1524143"><ele>172.5</ele><time>2026-05-01T07:41:44.264Z</time></trkpt><trkpt lat="43.9223752" lon="12.1520673"><ele>172.0</ele><time>2026-05-01T07:41:45.271Z</time></trkpt><trkpt lat="43.9222316" lon="12.1517148"><ele>174.0</ele><time>2026-05-01T07:41:46.261Z</time></trkpt><trkpt lat="43.9221125" lon="12.1513571"><ele>176.0</ele><time>2026-05-01T07:41:47.263Z</time></trkpt><trkpt lat="43.9219527" lon="12.1510594"><ele>176.0</ele><time>2026-05-01T07:41:48.275Z</time></trkpt><trkpt lat="43.9218111" lon="12.1507212"><ele>176.0</ele><time>2026-05-01T07:41:49.26Z</time></trkpt><trkpt lat="43.9216528" lon="12.1504072"><ele>175.0</ele><time>2026-05-01T07:41:50.274Z</time></trkpt><trkpt lat="43.9214975" lon="12.1501035"><ele>174.0</ele><time>2026-05-01T07:41:51.271Z</time></trkpt><trkpt lat="43.9213522" lon="12.1497957"><ele>178.0</ele><time>2026-05-01T07:41:52.263Z</time></trkpt><trkpt lat="43.9211917" lon="12.1494878"><ele>182.0</ele><time>2026-05-01T07:41:53.258Z</time></trkpt><trkpt lat="43.9209981" lon="12.1492064"><ele>179.5</ele><time>2026-05-01T07:41:54.265Z</time></trkpt><trkpt lat="43.9208268" lon="12.1489201"><ele>177.0</ele><time>2026-05-01T07:41:55.262Z</time></trkpt><trkpt lat="43.9206501" lon="12.1486414"><ele>177.0</ele><time>2026-05-01T07:41:56.266Z</time></trkpt><trkpt lat="43.9204554" lon="12.1483948"><ele>177.0</ele><time>2026-05-01T07:41:57.271Z</time></trkpt><trkpt lat="43.9202686" lon="12.1481496"><ele>177.5</ele><time>2026-05-01T07:41:58.273Z</time></trkpt><trkpt lat="43.9200759" lon="12.1478966"><ele>178.0</ele><time>2026-05-01T07:41:59.264Z</time></trkpt><trkpt lat="43.9198685" lon="12.1476541"><ele>178.0</ele><time>2026-05-01T07:42:00.263Z</time></trkpt><trkpt lat="43.9196214" lon="12.1474345"><ele>178.0</ele><time>2026-05-01T07:42:01.262Z</time></trkpt><trkpt lat="43.919417" lon="12.1471879"><ele>177.5</ele><time>2026-05-01T07:42:02.271Z</time></trkpt><trkpt lat="43.9192351" lon="12.1469386"><ele>177.0</ele><time>2026-05-01T07:42:03.273Z</time></trkpt><trkpt lat="43.919033" lon="12.1466935"><ele>190.5</ele><time>2026-05-01T07:42:04.272Z</time></trkpt><trkpt lat="43.9188397" lon="12.1464584"><ele>204.0</ele><time>2026-05-01T07:42:05.261Z</time></trkpt><trkpt lat="43.9186807" lon="12.1462054"><ele>204.0</ele><time>2026-05-01T07:42:06.273Z</time></trkpt><trkpt lat="43.9185003" lon="12.1459792"><ele>204.0</ele><time>2026-05-01T07:42:07.273Z</time></trkpt><trkpt lat="43.9183108" lon="12.1457568"><ele>198.0</ele><time>2026-05-01T07:42:08.265Z</time></trkpt><trkpt lat="43.9181255" lon="12.1455269"><ele>192.0</ele><time>2026-05-01T07:42:09.263Z</time></trkpt><trkpt lat="43.9156264" lon="12.1423986"><ele>196.5</ele><time>2026-05-01T07:42:24.258Z</time></trkpt><trkpt lat="43.9154643" lon="12.1421885"><ele>201.0</ele><time>2026-05-01T07:42:25.258Z</time></trkpt><trkpt lat="43.9152856" lon="12.1419895"><ele>191.0</ele><time>2026-05-01T07:42:26.259Z</time></trkpt><trkpt lat="43.914742" lon="12.1414746"><ele>191.0</ele><time>2026-05-01T07:42:29.272Z</time></trkpt><trkpt lat="43.9146658" lon="12.1411511"><ele>191.0</ele><time>2026-05-01T07:42:30.261Z</time></trkpt><trkpt lat="43.9145144" lon="12.1409329"><ele>192.0</ele><time>2026-05-01T07:42:31.264Z</time></trkpt><trkpt lat="43.9143734" lon="12.1407035"><ele>193.0</ele><time>2026-05-01T07:42:32.262Z</time></trkpt><trkpt lat="43.9142263" lon="12.1404524"><ele>190.5</ele><time>2026-05-01T07:42:33.27Z</time></trkpt><trkpt lat="43.9140704" lon="12.1401992"><ele>188.0</ele><time>2026-05-01T07:42:34.261Z</time></trkpt><trkpt lat="43.9139434" lon="12.1399221"><ele>191.33333333333331</ele><time>2026-05-01T07:42:35.262Z</time></trkpt><trkpt lat="43.9138465" lon="12.1396988"><ele>194.66666666666666</ele><time>2026-05-01T07:42:36.272Z</time></trkpt><trkpt lat="43.9137377" lon="12.1394442"><ele>198.0</ele><time>2026-05-01T07:42:37.275Z</time></trkpt><trkpt lat="43.9136321" lon="12.139197"><ele>198.0</ele><time>2026-05-01T07:42:38.271Z</time></trkpt><trkpt lat="43.9127176" lon="12.1345919"><ele>198.0</ele><time>2026-05-01T07:42:54.27Z</time></trkpt><trkpt lat="43.9126936" lon="12.1342994"><ele>198.0</ele><time>2026-05-01T07:42:55.257Z</time></trkpt><trkpt lat="43.9127049" lon="12.1339662"><ele>197.33333333333331</ele><time>2026-05-01T07:42:56.279Z</time></trkpt><trkpt lat="43.9127063" lon="12.1336599"><ele>196.66666666666666</ele><time>2026-05-01T07:42:57.259Z</time></trkpt><trkpt lat="43.9127075" lon="12.1333683"><ele>196.0</ele><time>2026-05-01T07:42:58.273Z</time></trkpt><trkpt lat="43.9127139" lon="12.1330677"><ele>196.0</ele><time>2026-05-01T07:42:59.272Z</time></trkpt><trkpt lat="43.9127404" lon="12.1327526"><ele>196.0</ele><time>2026-05-01T07:43:00.259Z</time></trkpt><trkpt lat="43.912756" lon="12.1324416"><ele>193.5</ele><time>2026-05-01T07:43:01.271Z</time></trkpt><trkpt lat="43.912772" lon="12.1320992"><ele>191.0</ele><time>2026-05-01T07:43:02.27Z</time></trkpt><trkpt lat="43.9128013" lon="12.1317486"><ele>189.5</ele><time>2026-05-01T07:43:03.275Z</time></trkpt><trkpt lat="43.9128314" lon="12.1313883"><ele>188.0</ele><time>2026-05-01T07:43:04.27Z</time></trkpt><trkpt lat="43.9128568" lon="12.1310283"><ele>190.0</ele><time>2026-05-01T07:43:05.273Z</time></trkpt><trkpt lat="43.9128651" lon="12.1306793"><ele>192.0</ele><time>2026-05-01T07:43:06.273Z</time></trkpt><trkpt lat="43.9128904" lon="12.130329"><ele>192.0</ele><time>2026-05-01T07:43:07.273Z</time></trkpt><trkpt lat="43.912879" lon="12.1299399"><ele>192.0</ele><time>2026-05-01T07:43:08.272Z</time></trkpt><trkpt lat="43.9128694" lon="12.1295685"><ele>201.5</ele><time>2026-05-01T07:43:09.27Z</time></trkpt><trkpt lat="43.9128591" lon="12.1291898"><ele>211.0</ele><time>2026-05-01T07:43:10.265Z</time></trkpt><trkpt lat="43.9128233" lon="12.1288063"><ele>221.5</ele><time>2026-05-01T07:43:11.261Z</time></trkpt><trkpt lat="43.9127807" lon="12.1284603"><ele>232.0</ele><time>2026-05-01T07:43:12.275Z</time></trkpt><trkpt lat="43.9127456" lon="12.1280772"><ele>242.0</ele><time>2026-05-01T07:43:13.27Z</time></trkpt><trkpt lat="43.9126961" lon="12.127677"><ele>252.0</ele><time>2026-05-01T07:43:14.266Z</time></trkpt><trkpt lat="43.9126324" lon="12.1272938"><ele>249.0</ele><time>2026-05-01T07:43:15.265Z</time></trkpt><trkpt lat="43.9125638" lon="12.1269145"><ele>246.0</ele><time>2026-05-01T07:43:16.258Z</time></trkpt><trkpt lat="43.9125033" lon="12.1265344"><ele>246.0</ele><time>2026-05-01T07:43:17.261Z</time></trkpt><trkpt lat="43.9123601" lon="12.126233"><ele>246.0</ele><time>2026-05-01T07:43:18.258Z</time></trkpt><trkpt lat="43.9122316" lon="12.1259237"><ele>247.5</ele><time>2026-05-01T07:43:19.27Z</time></trkpt><trkpt lat="43.9120745" lon="12.12565"><ele>249.0</ele><time>2026-05-01T07:43:20.267Z</time></trkpt><trkpt lat="43.9119577" lon="12.1253259"><ele>249.0</ele><time>2026-05-01T07:43:21.267Z</time></trkpt><trkpt lat="43.9118303" lon="12.1250176"><ele>249.0</ele><time>2026-05-01T07:43:22.273Z</time></trkpt><trkpt lat="43.9116767" lon="12.1247604"><ele>247.5</ele><time>2026-05-01T07:43:23.269Z</time></trkpt><trkpt lat="43.9115412" lon="12.1244669"><ele>246.0</ele><time>2026-05-01T07:43:24.261Z</time></trkpt><trkpt lat="43.9114051" lon="12.1241563"><ele>252.0</ele><time>2026-05-01T07:43:25.27Z</time></trkpt><trkpt lat="43.9112624" lon="12.123858"><ele>258.0</ele><time>2026-05-01T07:43:26.271Z</time></trkpt><trkpt lat="43.9111393" lon="12.1236234"><ele>258.0</ele><time>2026-05-01T07:43:27.275Z</time></trkpt><trkpt lat="43.9109943" lon="12.1233391"><ele>258.0</ele><time>2026-05-01T07:43:28.265Z</time></trkpt><trkpt lat="43.9108273" lon="12.1230638"><ele>252.5</ele><time>2026-05-01T07:43:29.269Z</time></trkpt><trkpt lat="43.9106904" lon="12.1227671"><ele>247.0</ele><time>2026-05-01T07:43:30.27Z</time></trkpt><trkpt lat="43.9105308" lon="12.1224314"><ele>251.5</ele><time>2026-05-01T07:43:31.261Z</time></trkpt><trkpt lat="43.9104077" lon="12.1221369"><ele>256.0</ele><time>2026-05-01T07:43:32.271Z</time></trkpt><trkpt lat="43.9102591" lon="12.1218778"><ele>256.0</ele><time>2026-05-01T07:43:33.272Z</time></trkpt><trkpt lat="43.9100978" lon="12.1216096"><ele>256.0</ele><time>2026-05-01T07:43:34.27Z</time></trkpt><trkpt lat="43.9099482" lon="12.1213251"><ele>256.5</ele><time>2026-05-01T07:43:35.274Z</time></trkpt><trkpt lat="43.9098062" lon="12.1210269"><ele>257.0</ele><time>2026-05-01T07:43:36.268Z</time></trkpt><trkpt lat="43.9096639" lon="12.1207708"><ele>262.5</ele><time>2026-05-01T07:43:37.27Z</time></trkpt><trkpt lat="43.9095206" lon="12.1205252"><ele>268.0</ele><time>2026-05-01T07:43:38.275Z</time></trkpt><trkpt lat="43.9094258" lon="12.1202415"><ele>268.0</ele><time>2026-05-01T07:43:39.273Z</time></trkpt><trkpt lat="43.9092988" lon="12.1200038"><ele>268.0</ele><time>2026-05-01T07:43:40.263Z</time></trkpt><trkpt lat="43.9091723" lon="12.1197796"><ele>268.0</ele><time>2026-05-01T07:43:41.27Z</time></trkpt><trkpt lat="43.9090386" lon="12.119511"><ele>269.0</ele><time>2026-05-01T07:43:42.256Z</time></trkpt><trkpt lat="43.9089052" lon="12.11923"><ele>270.0</ele><time>2026-05-01T07:43:43.258Z</time></trkpt><trkpt lat="43.9087849" lon="12.1189319"><ele>270.0</ele><time>2026-05-01T07:43:44.267Z</time></trkpt><trkpt lat="43.9086249" lon="12.1186291"><ele>270.0</ele><time>2026-05-01T07:43:45.26Z</time></trkpt><trkpt lat="43.9084894" lon="12.1182639"><ele>259.5</ele><time>2026-05-01T07:43:46.266Z</time></trkpt><trkpt lat="43.9083317" lon="12.1179308"><ele>249.0</ele><time>2026-05-01T07:43:47.264Z</time></trkpt><trkpt lat="43.9081582" lon="12.1176324"><ele>253.0</ele><time>2026-05-01T07:43:48.26Z</time></trkpt><trkpt lat="43.9079903" lon="12.1172821"><ele>257.0</ele><time>2026-05-01T07:43:49.26Z</time></trkpt><trkpt lat="43.9078243" lon="12.116919"><ele>258.0</ele><time>2026-05-01T07:43:50.26Z</time></trkpt><trkpt lat="43.9076577" lon="12.1165415"><ele>259.0</ele><time>2026-05-01T07:43:51.26Z</time></trkpt><trkpt lat="43.9074785" lon="12.1161774"><ele>259.0</ele><time>2026-05-01T07:43:52.265Z</time></trkpt><trkpt lat="43.9073197" lon="12.1158131"><ele>259.0</ele><time>2026-05-01T07:43:53.259Z</time></trkpt><trkpt lat="43.9071324" lon="12.1154613"><ele>262.0</ele><time>2026-05-01T07:43:54.263Z</time></trkpt><trkpt lat="43.9069539" lon="12.1151285"><ele>265.0</ele><time>2026-05-01T07:43:55.257Z</time></trkpt><trkpt lat="43.9067775" lon="12.1147777"><ele>262.0</ele><time>2026-05-01T07:43:56.26Z</time></trkpt><trkpt lat="43.9065848" lon="12.1144396"><ele>259.0</ele><time>2026-05-01T07:43:57.26Z</time></trkpt><trkpt lat="43.9063905" lon="12.1141057"><ele>269.0</ele><time>2026-05-01T07:43:58.27Z</time></trkpt><trkpt lat="43.9061626" lon="12.1138258"><ele>279.0</ele><time>2026-05-01T07:43:59.262Z</time></trkpt><trkpt lat="43.9059377" lon="12.1135381"><ele>284.0</ele><time>2026-05-01T07:44:00.265Z</time></trkpt><trkpt lat="43.9056847" lon="12.1132423"><ele>289.0</ele><time>2026-05-01T07:44:01.262Z</time></trkpt><trkpt lat="43.9054436" lon="12.1130709"><ele>289.0</ele><time>2026-05-01T07:44:02.26Z</time></trkpt><trkpt lat="43.9052041" lon="12.1127881"><ele>289.0</ele><time>2026-05-01T07:44:03.272Z</time></trkpt><trkpt lat="43.9049641" lon="12.1125303"><ele>295.0</ele><time>2026-05-01T07:44:04.266Z</time></trkpt><trkpt lat="43.9047462" lon="12.1122771"><ele>301.0</ele><time>2026-05-01T07:44:05.263Z</time></trkpt><trkpt lat="43.9045174" lon="12.1120143"><ele>301.0</ele><time>2026-05-01T07:44:06.268Z</time></trkpt><trkpt lat="43.9043036" lon="12.1117521"><ele>301.0</ele><time>2026-05-01T07:44:07.271Z</time></trkpt><trkpt lat="43.903638" lon="12.110966"><ele>265.0</ele><time>2026-05-01T07:44:10.262Z</time></trkpt><trkpt lat="43.9021299" lon="12.1088834"><ele>265.0</ele><time>2026-05-01T07:44:18.265Z</time></trkpt><trkpt lat="43.901954" lon="12.1086272"><ele>265.0</ele><time>2026-05-01T07:44:19.261Z</time></trkpt><trkpt lat="43.9017853" lon="12.1083557"><ele>274.5</ele><time>2026-05-01T07:44:20.257Z</time></trkpt><trkpt lat="43.901669" lon="12.1080378"><ele>284.0</ele><time>2026-05-01T07:44:21.277Z</time></trkpt><trkpt lat="43.9015574" lon="12.1077693"><ele>284.0</ele><time>2026-05-01T07:44:22.272Z</time></trkpt><trkpt lat="43.9014536" lon="12.1074788"><ele>284.0</ele><time>2026-05-01T07:44:23.26Z</time></trkpt><trkpt lat="43.9013805" lon="12.1071049"><ele>290.5</ele><time>2026-05-01T07:44:24.269Z</time></trkpt><trkpt lat="43.9012847" lon="12.1067999"><ele>297.0</ele><time>2026-05-01T07:44:25.274Z</time></trkpt><trkpt lat="43.9011906" lon="12.1064778"><ele>299.0</ele><time>2026-05-01T07:44:26.266Z</time></trkpt><trkpt lat="43.9010913" lon="12.1061408"><ele>301.0</ele><time>2026-05-01T07:44:27.273Z</time></trkpt><trkpt lat="43.9010365" lon="12.1058235"><ele>303.0</ele><time>2026-05-01T07:44:28.274Z</time></trkpt><trkpt lat="43.900984" lon="12.1055042"><ele>305.0</ele><time>2026-05-01T07:44:29.263Z</time></trkpt><trkpt lat="43.9009516" lon="12.1051716"><ele>301.5</ele><time>2026-05-01T07:44:30.274Z</time></trkpt><trkpt lat="43.9008928" lon="12.1048477"><ele>298.0</ele><time>2026-05-01T07:44:31.26Z</time></trkpt><trkpt lat="43.9008381" lon="12.1045232"><ele>298.0</ele><time>2026-05-01T07:44:32.262Z</time></trkpt><trkpt lat="43.9007877" lon="12.1041962"><ele>298.0</ele><time>2026-05-01T07:44:33.273Z</time></trkpt><trkpt lat="43.9007327" lon="12.1038725"><ele>297.5</ele><time>2026-05-01T07:44:34.268Z</time></trkpt><trkpt lat="43.9006813" lon="12.1035393"><ele>297.0</ele><time>2026-05-01T07:44:35.266Z</time></trkpt><trkpt lat="43.9006173" lon="12.1032008"><ele>297.0</ele><time>2026-05-01T07:44:36.268Z</time></trkpt><trkpt lat="43.9005621" lon="12.1028744"><ele>297.0</ele><time>2026-05-01T07:44:37.261Z</time></trkpt><trkpt lat="43.9004985" lon="12.1024993"><ele>294.3333333333333</ele><time>2026-05-01T07:44:38.259Z</time></trkpt><trkpt lat="43.9004894" lon="12.1022318"><ele>291.66666666666663</ele><time>2026-05-01T07:44:39.273Z</time></trkpt><trkpt lat="43.9004382" lon="12.1019111"><ele>289.0</ele><time>2026-05-01T07:44:40.271Z</time></trkpt><trkpt lat="43.9004092" lon="12.1015591"><ele>299.5</ele><time>2026-05-01T07:44:41.264Z</time></trkpt><trkpt lat="43.9003783" lon="12.1012138"><ele>310.0</ele><time>2026-05-01T07:44:42.274Z</time></trkpt><trkpt lat="43.900294" lon="12.1008846"><ele>317.0</ele><time>2026-05-01T07:44:43.272Z</time></trkpt><trkpt lat="43.9002317" lon="12.1005443"><ele>324.0</ele><time>2026-05-01T07:44:44.267Z</time></trkpt><trkpt lat="43.8903306" lon="12.0743709"><ele>324.0</ele><time>2026-05-01T07:46:14.266Z</time></trkpt><trkpt lat="43.8901036" lon="12.0741457"><ele>324.0</ele><time>2026-05-01T07:46:15.261Z</time></trkpt><trkpt lat="43.889965" lon="12.0738807"><ele>324.0</ele><time>2026-05-01T07:46:16.259Z</time></trkpt><trkpt lat="43.8898224" lon="12.0735583"><ele>324.0</ele><time>2026-05-01T07:46:17.259Z</time></trkpt><trkpt lat="43.8896732" lon="12.0732366"><ele>326.0</ele><time>2026-05-01T07:46:18.266Z</time></trkpt><trkpt lat="43.8895277" lon="12.0729239"><ele>328.0</ele><time>2026-05-01T07:46:19.271Z</time></trkpt><trkpt lat="43.8893847" lon="12.0726067"><ele>331.0</ele><time>2026-05-01T07:46:20.268Z</time></trkpt><trkpt lat="43.8892793" lon="12.072223"><ele>334.0</ele><time>2026-05-01T07:46:21.269Z</time></trkpt><trkpt lat="43.8891728" lon="12.0718545"><ele>327.5</ele><time>2026-05-01T07:46:22.261Z</time></trkpt><trkpt lat="43.8890808" lon="12.0714602"><ele>321.0</ele><time>2026-05-01T07:46:23.257Z</time></trkpt><trkpt lat="43.8889813" lon="12.0710605"><ele>324.0</ele><time>2026-05-01T07:46:24.27Z</time></trkpt><trkpt lat="43.8889093" lon="12.0706454"><ele>327.0</ele><time>2026-05-01T07:46:25.258Z</time></trkpt><trkpt lat="43.8888465" lon="12.0702098"><ele>330.0</ele><time>2026-05-01T07:46:26.264Z</time></trkpt><trkpt lat="43.8888041" lon="12.0697682"><ele>333.0</ele><time>2026-05-01T07:46:27.259Z</time></trkpt><trkpt lat="43.8887436" lon="12.0693708"><ele>332.0</ele><time>2026-05-01T07:46:28.266Z</time></trkpt><trkpt lat="43.8886991" lon="12.0689532"><ele>331.0</ele><time>2026-05-01T07:46:29.269Z</time></trkpt><trkpt lat="43.8886476" lon="12.0685745"><ele>334.0</ele><time>2026-05-01T07:46:30.269Z</time></trkpt><trkpt lat="43.888612" lon="12.0681892"><ele>337.0</ele><time>2026-05-01T07:46:31.263Z</time></trkpt><trkpt lat="43.8886119" lon="12.0677975"><ele>336.5</ele><time>2026-05-01T07:46:32.26Z</time></trkpt><trkpt lat="43.8885935" lon="12.0674217"><ele>336.0</ele><time>2026-05-01T07:46:33.261Z</time></trkpt><trkpt lat="43.8885755" lon="12.0670391"><ele>336.0</ele><time>2026-05-01T07:46:34.259Z</time></trkpt><trkpt lat="43.8885626" lon="12.066657"><ele>336.0</ele><time>2026-05-01T07:46:35.272Z</time></trkpt><trkpt lat="43.8885593" lon="12.0662732"><ele>337.0</ele><time>2026-05-01T07:46:36.274Z</time></trkpt><trkpt lat="43.8885711" lon="12.0658863"><ele>338.0</ele><time>2026-05-01T07:46:37.258Z</time></trkpt><trkpt lat="43.8885723" lon="12.0654919"><ele>338.0</ele><time>2026-05-01T07:46:38.263Z</time></trkpt><trkpt lat="43.8885852" lon="12.0651039"><ele>338.0</ele><time>2026-05-01T07:46:39.262Z</time></trkpt><trkpt lat="43.8885916" lon="12.0647185"><ele>338.5</ele><time>2026-05-01T07:46:40.26Z</time></trkpt><trkpt lat="43.8886079" lon="12.0643341"><ele>339.0</ele><time>2026-05-01T07:46:41.263Z</time></trkpt><trkpt lat="43.888625" lon="12.0639467"><ele>339.0</ele><time>2026-05-01T07:46:42.263Z</time></trkpt><trkpt lat="43.8886507" lon="12.0635638"><ele>339.0</ele><time>2026-05-01T07:46:43.272Z</time></trkpt><trkpt lat="43.8886769" lon="12.0631693"><ele>338.0</ele><time>2026-05-01T07:46:44.26Z</time></trkpt><trkpt lat="43.8886997" lon="12.0627684"><ele>337.0</ele><time>2026-05-01T07:46:45.272Z</time></trkpt><trkpt lat="43.8887312" lon="12.0623642"><ele>334.5</ele><time>2026-05-01T07:46:46.258Z</time></trkpt><trkpt lat="43.8887505" lon="12.0619514"><ele>332.0</ele><time>2026-05-01T07:46:47.261Z</time></trkpt><trkpt lat="43.8887872" lon="12.0615498"><ele>328.5</ele><time>2026-05-01T07:46:48.259Z</time></trkpt><trkpt lat="43.8888201" lon="12.0611266"><ele>325.0</ele><time>2026-05-01T07:46:49.272Z</time></trkpt><trkpt lat="43.8888468" lon="12.0607092"><ele>323.5</ele><time>2026-05-01T07:46:50.262Z</time></trkpt><trkpt lat="43.8888754" lon="12.0602874"><ele>322.0</ele><time>2026-05-01T07:46:51.262Z</time></trkpt><trkpt lat="43.888901" lon="12.0598759"><ele>321.5</ele><time>2026-05-01T07:46:52.262Z</time></trkpt><trkpt lat="43.88893" lon="12.0594513"><ele>321.0</ele><time>2026-05-01T07:46:53.275Z</time></trkpt><trkpt lat="43.8889556" lon="12.0590328"><ele>320.5</ele><time>2026-05-01T07:46:54.275Z</time></trkpt><trkpt lat="43.888975" lon="12.0586245"><ele>320.0</ele><time>2026-05-01T07:46:55.274Z</time></trkpt><trkpt lat="43.8889976" lon="12.0582276"><ele>321.5</ele><time>2026-05-01T07:46:56.275Z</time></trkpt><trkpt lat="43.8890232" lon="12.057837"><ele>323.0</ele><time>2026-05-01T07:46:57.268Z</time></trkpt><trkpt lat="43.8890506" lon="12.0574434"><ele>323.0</ele><time>2026-05-01T07:46:58.279Z</time></trkpt><trkpt lat="43.8890705" lon="12.057062"><ele>323.0</ele><time>2026-05-01T07:46:59.274Z</time></trkpt><trkpt lat="43.8890905" lon="12.0566692"><ele>322.5</ele><time>2026-05-01T07:47:00.275Z</time></trkpt><trkpt lat="43.8891247" lon="12.0562888"><ele>322.0</ele><time>2026-05-01T07:47:01.272Z</time></trkpt><trkpt lat="43.8891532" lon="12.0559064"><ele>324.0</ele><time>2026-05-01T07:47:02.26Z</time></trkpt><trkpt lat="43.8891844" lon="12.0555172"><ele>326.0</ele><time>2026-05-01T07:47:03.27Z</time></trkpt><trkpt lat="43.8892181" lon="12.0551253"><ele>334.0</ele><time>2026-05-01T07:47:04.263Z</time></trkpt><trkpt lat="43.8892651" lon="12.0547334"><ele>342.0</ele><time>2026-05-01T07:47:05.268Z</time></trkpt><trkpt lat="43.8893085" lon="12.0543304"><ele>338.5</ele><time>2026-05-01T07:47:06.264Z</time></trkpt><trkpt lat="43.8893747" lon="12.0539264"><ele>335.0</ele><time>2026-05-01T07:47:07.273Z</time></trkpt><trkpt lat="43.8894572" lon="12.0535192"><ele>332.0</ele><time>2026-05-01T07:47:08.26Z</time></trkpt><trkpt lat="43.8895306" lon="12.0531143"><ele>329.0</ele><time>2026-05-01T07:47:09.272Z</time></trkpt><trkpt lat="43.8896305" lon="12.0527199"><ele>329.0</ele><time>2026-05-01T07:47:10.26Z</time></trkpt><trkpt lat="43.8897326" lon="12.0523164"><ele>329.0</ele><time>2026-05-01T07:47:11.261Z</time></trkpt><trkpt lat="43.8898495" lon="12.0519058"><ele>330.5</ele><time>2026-05-01T07:47:12.259Z</time></trkpt><trkpt lat="43.8899563" lon="12.0515179"><ele>332.0</ele><time>2026-05-01T07:47:13.262Z</time></trkpt><trkpt lat="43.8900738" lon="12.051146"><ele>337.0</ele><time>2026-05-01T07:47:14.261Z</time></trkpt><trkpt lat="43.8901893" lon="12.0507668"><ele>342.0</ele><time>2026-05-01T07:47:15.273Z</time></trkpt><trkpt lat="43.8903058" lon="12.0503819"><ele>342.0</ele><time>2026-05-01T07:47:16.264Z</time></trkpt><trkpt lat="43.8904161" lon="12.0500072"><ele>342.0</ele><time>2026-05-01T07:47:17.26Z</time></trkpt><trkpt lat="43.8905316" lon="12.0496283"><ele>338.0</ele><time>2026-05-01T07:47:18.261Z</time></trkpt><trkpt lat="43.8906538" lon="12.0492715"><ele>334.0</ele><time>2026-05-01T07:47:19.272Z</time></trkpt><trkpt lat="43.890772" lon="12.0489076"><ele>335.0</ele><time>2026-05-01T07:47:20.268Z</time></trkpt><trkpt lat="43.8908789" lon="12.0485558"><ele>336.0</ele><time>2026-05-01T07:47:21.27Z</time></trkpt><trkpt lat="43.89099" lon="12.0482059"><ele>336.0</ele><time>2026-05-01T07:47:22.263Z</time></trkpt><trkpt lat="43.8910739" lon="12.0478483"><ele>336.0</ele><time>2026-05-01T07:47:23.262Z</time></trkpt><trkpt lat="43.891161" lon="12.0474213"><ele>330.0</ele><time>2026-05-01T07:47:24.261Z</time></trkpt><trkpt lat="43.8912355" lon="12.0470314"><ele>324.0</ele><time>2026-05-01T07:47:25.265Z</time></trkpt><trkpt lat="43.8913088" lon="12.0466527"><ele>325.0</ele><time>2026-05-01T07:47:26.262Z</time></trkpt><trkpt lat="43.8913514" lon="12.0462434"><ele>326.0</ele><time>2026-05-01T07:47:27.273Z</time></trkpt><trkpt lat="43.8913755" lon="12.0457967"><ele>328.0</ele><time>2026-05-01T07:47:28.273Z</time></trkpt><trkpt lat="43.8914057" lon="12.0453763"><ele>330.0</ele><time>2026-05-01T07:47:29.273Z</time></trkpt><trkpt lat="43.8914006" lon="12.0449815"><ele>330.0</ele><time>2026-05-01T07:47:30.273Z</time></trkpt><trkpt lat="43.891376" lon="12.0445835"><ele>330.0</ele><time>2026-05-01T07:47:31.272Z</time></trkpt><trkpt lat="43.8913593" lon="12.0441654"><ele>338.0</ele><time>2026-05-01T07:47:32.26Z</time></trkpt><trkpt lat="43.8912688" lon="12.0437415"><ele>346.0</ele><time>2026-05-01T07:47:33.263Z</time></trkpt><trkpt lat="43.8912101" lon="12.0433205"><ele>353.0</ele><time>2026-05-01T07:47:34.262Z</time></trkpt><trkpt lat="43.8911897" lon="12.042921"><ele>360.0</ele><time>2026-05-01T07:47:35.273Z</time></trkpt><trkpt lat="43.8910763" lon="12.0424135"><ele>360.0</ele><time>2026-05-01T07:47:36.271Z</time></trkpt><trkpt lat="43.890949" lon="12.0420056"><ele>360.0</ele><time>2026-05-01T07:47:37.273Z</time></trkpt><trkpt lat="43.8908024" lon="12.0415985"><ele>354.5</ele><time>2026-05-01T07:47:38.265Z</time></trkpt><trkpt lat="43.8906785" lon="12.0411414"><ele>349.0</ele><time>2026-05-01T07:47:39.269Z</time></trkpt><trkpt lat="43.8905556" lon="12.0407171"><ele>349.0</ele><time>2026-05-01T07:47:40.272Z</time></trkpt><trkpt lat="43.8904231" lon="12.0402955"><ele>349.0</ele><time>2026-05-01T07:47:41.265Z</time></trkpt><trkpt lat="43.8902988" lon="12.0399085"><ele>345.0</ele><time>2026-05-01T07:47:42.261Z</time></trkpt><trkpt lat="43.8901765" lon="12.0395065"><ele>341.0</ele><time>2026-05-01T07:47:43.27Z</time></trkpt><trkpt lat="43.890062" lon="12.0391068"><ele>341.0</ele><time>2026-05-01T07:47:44.263Z</time></trkpt><trkpt lat="43.8899568" lon="12.0387"><ele>341.0</ele><time>2026-05-01T07:47:45.264Z</time></trkpt><trkpt lat="43.8898411" lon="12.0383141"><ele>344.0</ele><time>2026-05-01T07:47:46.262Z</time></trkpt><trkpt lat="43.8897142" lon="12.0379438"><ele>347.0</ele><time>2026-05-01T07:47:47.262Z</time></trkpt><trkpt lat="43.8895993" lon="12.0375652"><ele>352.0</ele><time>2026-05-01T07:47:48.262Z</time></trkpt><trkpt lat="43.8895158" lon="12.0371874"><ele>357.0</ele><time>2026-05-01T07:47:49.259Z</time></trkpt><trkpt lat="43.8894099" lon="12.0368175"><ele>350.5</ele><time>2026-05-01T07:47:50.272Z</time></trkpt><trkpt lat="43.8892942" lon="12.0364376"><ele>344.0</ele><time>2026-05-01T07:47:51.274Z</time></trkpt><trkpt lat="43.8891764" lon="12.0360838"><ele>347.0</ele><time>2026-05-01T07:47:52.272Z</time></trkpt><trkpt lat="43.8890558" lon="12.0357106"><ele>350.0</ele><time>2026-05-01T07:47:53.272Z</time></trkpt><trkpt lat="43.8889409" lon="12.0353315"><ele>348.5</ele><time>2026-05-01T07:47:54.269Z</time></trkpt><trkpt lat="43.8888336" lon="12.0349608"><ele>347.0</ele><time>2026-05-01T07:47:55.262Z</time></trkpt><trkpt lat="43.8887291" lon="12.0345837"><ele>347.0</ele><time>2026-05-01T07:47:56.258Z</time></trkpt><trkpt lat="43.8886236" lon="12.0342082"><ele>347.0</ele><time>2026-05-01T07:47:57.262Z</time></trkpt><trkpt lat="43.8885085" lon="12.0338457"><ele>345.5</ele><time>2026-05-01T07:47:58.27Z</time></trkpt><trkpt lat="43.8883978" lon="12.0334728"><ele>344.0</ele><time>2026-05-01T07:47:59.26Z</time></trkpt><trkpt lat="43.888319" lon="12.0330899"><ele>348.0</ele><time>2026-05-01T07:48:00.263Z</time></trkpt><trkpt lat="43.8882191" lon="12.0327275"><ele>352.0</ele><time>2026-05-01T07:48:01.27Z</time></trkpt><trkpt lat="43.888122" lon="12.0323517"><ele>356.0</ele><time>2026-05-01T07:48:02.272Z</time></trkpt><trkpt lat="43.8880169" lon="12.0319758"><ele>360.0</ele><time>2026-05-01T07:48:03.272Z</time></trkpt><trkpt lat="43.8879156" lon="12.0315979"><ele>365.5</ele><time>2026-05-01T07:48:04.26Z</time></trkpt><trkpt lat="43.8878206" lon="12.0312069"><ele>371.0</ele><time>2026-05-01T07:48:05.262Z</time></trkpt><trkpt lat="43.8877045" lon="12.0308452"><ele>365.5</ele><time>2026-05-01T07:48:06.263Z</time></trkpt><trkpt lat="43.8876088" lon="12.0304638"><ele>360.0</ele><time>2026-05-01T07:48:07.261Z</time></trkpt><trkpt lat="43.8875098" lon="12.0300983"><ele>366.5</ele><time>2026-05-01T07:48:08.273Z</time></trkpt><trkpt lat="43.8873879" lon="12.0297488"><ele>373.0</ele><time>2026-05-01T07:48:09.266Z</time></trkpt><trkpt lat="43.8872966" lon="12.0293508"><ele>378.0</ele><time>2026-05-01T07:48:10.274Z</time></trkpt><trkpt lat="43.8871931" lon="12.0289766"><ele>383.0</ele><time>2026-05-01T07:48:11.27Z</time></trkpt><trkpt lat="43.8871079" lon="12.0285992"><ele>384.0</ele><time>2026-05-01T07:48:12.274Z</time></trkpt><trkpt lat="43.8870394" lon="12.0282413"><ele>385.0</ele><time>2026-05-01T07:48:13.259Z</time></trkpt><trkpt lat="43.8869466" lon="12.0278908"><ele>385.0</ele><time>2026-05-01T07:48:14.266Z</time></trkpt><trkpt lat="43.8869019" lon="12.0275553"><ele>385.0</ele><time>2026-05-01T07:48:15.259Z</time></trkpt><trkpt lat="43.8868701" lon="12.0271865"><ele>378.5</ele><time>2026-05-01T07:48:16.272Z</time></trkpt><trkpt lat="43.8868432" lon="12.0268271"><ele>372.0</ele><time>2026-05-01T07:48:17.262Z</time></trkpt><trkpt lat="43.8868168" lon="12.0264775"><ele>371.0</ele><time>2026-05-01T07:48:18.272Z</time></trkpt><trkpt lat="43.8867946" lon="12.0261238"><ele>370.0</ele><time>2026-05-01T07:48:19.261Z</time></trkpt><trkpt lat="43.8867748" lon="12.025765"><ele>358.5</ele><time>2026-05-01T07:48:20.269Z</time></trkpt><trkpt lat="43.8867521" lon="12.0254264"><ele>347.0</ele><time>2026-05-01T07:48:21.27Z</time></trkpt><trkpt lat="43.8867278" lon="12.0250712"><ele>349.0</ele><time>2026-05-01T07:48:22.259Z</time></trkpt><trkpt lat="43.8866722" lon="12.0247465"><ele>351.0</ele><time>2026-05-01T07:48:23.272Z</time></trkpt><trkpt lat="43.8865951" lon="12.0244203"><ele>352.5</ele><time>2026-05-01T07:48:24.273Z</time></trkpt><trkpt lat="43.8865196" lon="12.0240923"><ele>354.0</ele><time>2026-05-01T07:48:25.272Z</time></trkpt><trkpt lat="43.8864459" lon="12.0237696"><ele>354.0</ele><time>2026-05-01T07:48:26.27Z</time></trkpt><trkpt lat="43.8863533" lon="12.0234329"><ele>354.0</ele><time>2026-05-01T07:48:27.26Z</time></trkpt><trkpt lat="43.8862414" lon="12.0230945"><ele>354.5</ele><time>2026-05-01T07:48:28.274Z</time></trkpt><trkpt lat="43.8861302" lon="12.0227677"><ele>355.0</ele><time>2026-05-01T07:48:29.26Z</time></trkpt><trkpt lat="43.8860027" lon="12.0224425"><ele>352.5</ele><time>2026-05-01T07:48:30.265Z</time></trkpt><trkpt lat="43.8858402" lon="12.0221372"><ele>350.0</ele><time>2026-05-01T07:48:31.275Z</time></trkpt><trkpt lat="43.8856698" lon="12.0218511"><ele>354.5</ele><time>2026-05-01T07:48:32.273Z</time></trkpt><trkpt lat="43.8854781" lon="12.0216067"><ele>359.0</ele><time>2026-05-01T07:48:33.264Z</time></trkpt><trkpt lat="43.8852817" lon="12.0213324"><ele>359.0</ele><time>2026-05-01T07:48:34.26Z</time></trkpt><trkpt lat="43.8851003" lon="12.0210533"><ele>359.0</ele><time>2026-05-01T07:48:35.274Z</time></trkpt><trkpt lat="43.8849271" lon="12.0208758"><ele>365.0</ele><time>2026-05-01T07:48:36.274Z</time></trkpt><trkpt lat="43.8847003" lon="12.0206702"><ele>371.0</ele><time>2026-05-01T07:48:37.262Z</time></trkpt><trkpt lat="43.8845007" lon="12.0204994"><ele>371.0</ele><time>2026-05-01T07:48:38.266Z</time></trkpt><trkpt lat="43.8843272" lon="12.0203047"><ele>371.0</ele><time>2026-05-01T07:48:39.272Z</time></trkpt><trkpt lat="43.8841199" lon="12.0201053"><ele>370.0</ele><time>2026-05-01T07:48:40.273Z</time></trkpt><trkpt lat="43.8839203" lon="12.0198971"><ele>369.0</ele><time>2026-05-01T07:48:41.262Z</time></trkpt><trkpt lat="43.8837036" lon="12.0196968"><ele>369.0</ele><time>2026-05-01T07:48:42.258Z</time></trkpt><trkpt lat="43.8835281" lon="12.0195065"><ele>369.0</ele><time>2026-05-01T07:48:43.273Z</time></trkpt><trkpt lat="43.8833351" lon="12.0192563"><ele>363.5</ele><time>2026-05-01T07:48:44.263Z</time></trkpt><trkpt lat="43.8831434" lon="12.0190167"><ele>358.0</ele><time>2026-05-01T07:48:45.268Z</time></trkpt><trkpt lat="43.882952" lon="12.0187336"><ele>358.0</ele><time>2026-05-01T07:48:46.273Z</time></trkpt><trkpt lat="43.8828043" lon="12.0184762"><ele>358.0</ele><time>2026-05-01T07:48:47.263Z</time></trkpt><trkpt lat="43.8826445" lon="12.0181481"><ele>359.0</ele><time>2026-05-01T07:48:48.264Z</time></trkpt><trkpt lat="43.8824979" lon="12.0178314"><ele>360.0</ele><time>2026-05-01T07:48:49.263Z</time></trkpt><trkpt lat="43.8823565" lon="12.0175146"><ele>358.5</ele><time>2026-05-01T07:48:50.261Z</time></trkpt><trkpt lat="43.8823421" lon="12.0171255"><ele>357.0</ele><time>2026-05-01T07:48:51.261Z</time></trkpt><trkpt lat="43.8822594" lon="12.0167679"><ele>356.5</ele><time>2026-05-01T07:48:52.274Z</time></trkpt><trkpt lat="43.8821849" lon="12.0164123"><ele>356.0</ele><time>2026-05-01T07:48:53.275Z</time></trkpt><trkpt lat="43.8821594" lon="12.0160172"><ele>358.5</ele><time>2026-05-01T07:48:54.272Z</time></trkpt><trkpt lat="43.8821465" lon="12.0156484"><ele>361.0</ele><time>2026-05-01T07:48:55.262Z</time></trkpt><trkpt lat="43.8821453" lon="12.0152619"><ele>364.0</ele><time>2026-05-01T07:48:56.266Z</time></trkpt><trkpt lat="43.8821186" lon="12.0148782"><ele>367.0</ele><time>2026-05-01T07:48:57.263Z</time></trkpt><trkpt lat="43.8821098" lon="12.0145132"><ele>367.0</ele><time>2026-05-01T07:48:58.263Z</time></trkpt><trkpt lat="43.882114" lon="12.0141398"><ele>367.0</ele><time>2026-05-01T07:48:59.259Z</time></trkpt><trkpt lat="43.8821091" lon="12.0137752"><ele>367.0</ele><time>2026-05-01T07:49:00.274Z</time></trkpt><trkpt lat="43.8820983" lon="12.0134133"><ele>367.0</ele><time>2026-05-01T07:49:01.273Z</time></trkpt><trkpt lat="43.8820933" lon="12.0130473"><ele>366.5</ele><time>2026-05-01T07:49:02.271Z</time></trkpt><trkpt lat="43.8820912" lon="12.0126896"><ele>366.0</ele><time>2026-05-01T07:49:03.273Z</time></trkpt><trkpt lat="43.8820776" lon="12.012338"><ele>364.5</ele><time>2026-05-01T07:49:04.269Z</time></trkpt><trkpt lat="43.8820678" lon="12.0119739"><ele>363.0</ele><time>2026-05-01T07:49:05.269Z</time></trkpt><trkpt lat="43.8820696" lon="12.0116428"><ele>363.0</ele><time>2026-05-01T07:49:06.273Z</time></trkpt><trkpt lat="43.8820559" lon="12.0113014"><ele>363.0</ele><time>2026-05-01T07:49:07.262Z</time></trkpt><trkpt lat="43.8820499" lon="12.0109673"><ele>363.5</ele><time>2026-05-01T07:49:08.264Z</time></trkpt><trkpt lat="43.8820391" lon="12.0106176"><ele>364.0</ele><time>2026-05-01T07:49:09.261Z</time></trkpt><trkpt lat="43.8820371" lon="12.0103172"><ele>364.0</ele><time>2026-05-01T07:49:10.262Z</time></trkpt><trkpt lat="43.8820261" lon="12.0100069"><ele>364.0</ele><time>2026-05-01T07:49:11.269Z</time></trkpt><trkpt lat="43.8820173" lon="12.0096955"><ele>364.0</ele><time>2026-05-01T07:49:12.263Z</time></trkpt><trkpt lat="43.8820053" lon="12.009396"><ele>365.3333333333333</ele><time>2026-05-01T07:49:13.274Z</time></trkpt><trkpt lat="43.8820005" lon="12.0090906"><ele>366.6666666666667</ele><time>2026-05-01T07:49:14.26Z</time></trkpt><trkpt lat="43.8819965" lon="12.0087929"><ele>368.0</ele><time>2026-05-01T07:49:15.263Z</time></trkpt><trkpt lat="43.8819954" lon="12.0085002"><ele>370.0</ele><time>2026-05-01T07:49:16.272Z</time></trkpt><trkpt lat="43.8819874" lon="12.0082124"><ele>372.0</ele><time>2026-05-01T07:49:17.27Z</time></trkpt><trkpt lat="43.8819855" lon="12.0079228"><ele>374.0</ele><time>2026-05-01T07:49:18.265Z</time></trkpt><trkpt lat="43.8819795" lon="12.0076213"><ele>375.33333333333337</ele><time>2026-05-01T07:49:19.273Z</time></trkpt><trkpt lat="43.8819772" lon="12.0073306"><ele>376.6666666666667</ele><time>2026-05-01T07:49:20.274Z</time></trkpt><trkpt lat="43.8819597" lon="12.007018"><ele>378.0</ele><time>2026-05-01T07:49:21.272Z</time></trkpt><trkpt lat="43.8819592" lon="12.006705"><ele>379.0</ele><time>2026-05-01T07:49:22.259Z</time></trkpt><trkpt lat="43.8819579" lon="12.0063842"><ele>380.0</ele><time>2026-05-01T07:49:23.262Z</time></trkpt><trkpt lat="43.8819463" lon="12.0060469"><ele>382.5</ele><time>2026-05-01T07:49:24.268Z</time></trkpt><trkpt lat="43.8819409" lon="12.0057219"><ele>385.0</ele><time>2026-05-01T07:49:25.265Z</time></trkpt><trkpt lat="43.8819314" lon="12.0054109"><ele>385.0</ele><time>2026-05-01T07:49:26.276Z</time></trkpt><trkpt lat="43.881909" lon="12.0050989"><ele>385.0</ele><time>2026-05-01T07:49:27.272Z</time></trkpt><trkpt lat="43.8819016" lon="12.004787"><ele>383.0</ele><time>2026-05-01T07:49:28.271Z</time></trkpt><trkpt lat="43.881897" lon="12.0044692"><ele>381.0</ele><time>2026-05-01T07:49:29.274Z</time></trkpt><trkpt lat="43.8819038" lon="12.0041309"><ele>381.0</ele><time>2026-05-01T07:49:30.274Z</time></trkpt><trkpt lat="43.8818896" lon="12.0038441"><ele>381.0</ele><time>2026-05-01T07:49:31.263Z</time></trkpt><trkpt lat="43.8818863" lon="12.0035411"><ele>381.0</ele><time>2026-05-01T07:49:32.267Z</time></trkpt><trkpt lat="43.8818769" lon="12.0032364"><ele>381.0</ele><time>2026-05-01T07:49:33.272Z</time></trkpt><trkpt lat="43.8818708" lon="12.0029339"><ele>381.0</ele><time>2026-05-01T07:49:34.272Z</time></trkpt><trkpt lat="43.8818655" lon="12.0026294"><ele>381.0</ele><time>2026-05-01T07:49:35.272Z</time></trkpt><trkpt lat="43.8818406" lon="12.0023266"><ele>382.5</ele><time>2026-05-01T07:49:36.262Z</time></trkpt><trkpt lat="43.8818155" lon="12.0020102"><ele>384.0</ele><time>2026-05-01T07:49:37.272Z</time></trkpt><trkpt lat="43.881789" lon="12.0017012"><ele>382.6666666666667</ele><time>2026-05-01T07:49:38.262Z</time></trkpt><trkpt lat="43.8817221" lon="12.0014092"><ele>381.33333333333337</ele><time>2026-05-01T07:49:39.275Z</time></trkpt><trkpt lat="43.8816675" lon="12.0011098"><ele>380.0</ele><time>2026-05-01T07:49:40.262Z</time></trkpt><trkpt lat="43.8815768" lon="12.0008191"><ele>383.0</ele><time>2026-05-01T07:49:41.26Z</time></trkpt><trkpt lat="43.8815084" lon="12.0005211"><ele>386.0</ele><time>2026-05-01T07:49:42.272Z</time></trkpt><trkpt lat="43.8814181" lon="12.0002586"><ele>389.0</ele><time>2026-05-01T07:49:43.274Z</time></trkpt><trkpt lat="43.8813339" lon="11.9999722"><ele>389.0</ele><time>2026-05-01T07:49:44.268Z</time></trkpt><trkpt lat="43.8812642" lon="11.9996915"><ele>389.0</ele><time>2026-05-01T07:49:45.262Z</time></trkpt><trkpt lat="43.8811624" lon="11.9994388"><ele>389.0</ele><time>2026-05-01T07:49:46.269Z</time></trkpt><trkpt lat="43.8810236" lon="11.9992758"><ele>387.75</ele><time>2026-05-01T07:49:47.273Z</time></trkpt><trkpt lat="43.8809325" lon="11.9991111"><ele>386.5</ele><time>2026-05-01T07:49:48.26Z</time></trkpt><trkpt lat="43.8808484" lon="11.9989439"><ele>385.25</ele><time>2026-05-01T07:49:49.261Z</time></trkpt><trkpt lat="43.8807537" lon="11.9987992"><ele>384.0</ele><time>2026-05-01T07:49:50.269Z</time></trkpt><trkpt lat="43.8806843" lon="11.9986406"><ele>384.0</ele><time>2026-05-01T07:49:51.258Z</time></trkpt><trkpt lat="43.8806285" lon="11.9984906"><ele>384.0</ele><time>2026-05-01T07:49:52.262Z</time></trkpt><trkpt lat="43.8805734" lon="11.998367"><ele>384.0</ele><time>2026-05-01T07:49:53.258Z</time></trkpt><trkpt lat="43.8804786" lon="11.9982356"><ele>384.0</ele><time>2026-05-01T07:49:55.261Z</time></trkpt><trkpt lat="43.8804362" lon="11.9981695"><ele>384.0</ele><time>2026-05-01T07:49:56.257Z</time></trkpt><trkpt lat="43.8803763" lon="11.9981204"><ele>384.8333333333333</ele><time>2026-05-01T07:49:57.263Z</time></trkpt><trkpt lat="43.8802937" lon="11.998113"><ele>385.66666666666663</ele><time>2026-05-01T07:49:59.274Z</time></trkpt><trkpt lat="43.8801939" lon="11.9980482"><ele>386.5</ele><time>2026-05-01T07:50:01.261Z</time></trkpt><trkpt lat="43.8801038" lon="11.9980185"><ele>387.3333333333333</ele><time>2026-05-01T07:50:03.256Z</time></trkpt><trkpt lat="43.8800607" lon="11.9979507"><ele>388.16666666666663</ele><time>2026-05-01T07:50:04.27Z</time></trkpt><trkpt lat="43.8800091" lon="11.997885"><ele>389.0</ele><time>2026-05-01T07:50:05.263Z</time></trkpt><trkpt lat="43.8799426" lon="11.9978105"><ele>389.66666666666663</ele><time>2026-05-01T07:50:06.261Z</time></trkpt><trkpt lat="43.8798775" lon="11.9977359"><ele>390.3333333333333</ele><time>2026-05-01T07:50:07.256Z</time></trkpt><trkpt lat="43.8798287" lon="11.9976532"><ele>391.0</ele><time>2026-05-01T07:50:08.26Z</time></trkpt><trkpt lat="43.8797705" lon="11.9975835"><ele>391.66666666666663</ele><time>2026-05-01T07:50:09.263Z</time></trkpt><trkpt lat="43.87971" lon="11.9974911"><ele>392.3333333333333</ele><time>2026-05-01T07:50:10.267Z</time></trkpt><trkpt lat="43.8796406" lon="11.9974049"><ele>393.0</ele><time>2026-05-01T07:50:11.26Z</time></trkpt><trkpt lat="43.8795736" lon="11.9973338"><ele>395.0</ele><time>2026-05-01T07:50:12.261Z</time></trkpt><trkpt lat="43.8795014" lon="11.9972509"><ele>397.0</ele><time>2026-05-01T07:50:13.26Z</time></trkpt><trkpt lat="43.8793864" lon="11.9971359"><ele>399.0</ele><time>2026-05-01T07:50:14.262Z</time></trkpt><trkpt lat="43.8793016" lon="11.9970241"><ele>401.0</ele><time>2026-05-01T07:50:15.262Z</time></trkpt><trkpt lat="43.8792057" lon="11.9969137"><ele>401.5</ele><time>2026-05-01T07:50:16.263Z</time></trkpt><trkpt lat="43.879115" lon="11.9968094"><ele>402.0</ele><time>2026-05-01T07:50:17.257Z</time></trkpt><trkpt lat="43.8790189" lon="11.9966958"><ele>402.5</ele><time>2026-05-01T07:50:18.269Z</time></trkpt><trkpt lat="43.8789089" lon="11.9965673"><ele>403.0</ele><time>2026-05-01T07:50:19.259Z</time></trkpt><trkpt lat="43.8788021" lon="11.9963996"><ele>406.33333333333337</ele><time>2026-05-01T07:50:20.267Z</time></trkpt><trkpt lat="43.8786926" lon="11.9962497"><ele>409.66666666666663</ele><time>2026-05-01T07:50:21.269Z</time></trkpt><trkpt lat="43.8785823" lon="11.9960943"><ele>413.0</ele><time>2026-05-01T07:50:22.259Z</time></trkpt><trkpt lat="43.8784606" lon="11.9959395"><ele>414.0</ele><time>2026-05-01T07:50:23.272Z</time></trkpt><trkpt lat="43.8783429" lon="11.9957909"><ele>415.0</ele><time>2026-05-01T07:50:24.256Z</time></trkpt><trkpt lat="43.8782361" lon="11.995617"><ele>416.0</ele><time>2026-05-01T07:50:25.266Z</time></trkpt><trkpt lat="43.8781135" lon="11.9954391"><ele>416.0</ele><time>2026-05-01T07:50:26.269Z</time></trkpt><trkpt lat="43.877999" lon="11.9952839"><ele>416.0</ele><time>2026-05-01T07:50:27.272Z</time></trkpt><trkpt lat="43.8778804" lon="11.9951009"><ele>416.0</ele><time>2026-05-01T07:50:28.263Z</time></trkpt><trkpt lat="43.8777701" lon="11.9949176"><ele>415.3333333333333</ele><time>2026-05-01T07:50:29.259Z</time></trkpt><trkpt lat="43.8776599" lon="11.9947589"><ele>414.66666666666663</ele><time>2026-05-01T07:50:30.259Z</time></trkpt><trkpt lat="43.8775554" lon="11.9946162"><ele>414.0</ele><time>2026-05-01T07:50:31.274Z</time></trkpt><trkpt lat="43.8774259" lon="11.9944514"><ele>414.0</ele><time>2026-05-01T07:50:32.258Z</time></trkpt><trkpt lat="43.8773026" lon="11.9942934"><ele>414.0</ele><time>2026-05-01T07:50:33.265Z</time></trkpt><trkpt lat="43.877208" lon="11.9941004"><ele>414.0</ele><time>2026-05-01T07:50:34.258Z</time></trkpt><trkpt lat="43.8770994" lon="11.9939323"><ele>418.66666666666663</ele><time>2026-05-01T07:50:35.258Z</time></trkpt><trkpt lat="43.877017" lon="11.9937541"><ele>423.3333333333333</ele><time>2026-05-01T07:50:36.269Z</time></trkpt><trkpt lat="43.8768977" lon="11.993584"><ele>428.0</ele><time>2026-05-01T07:50:37.261Z</time></trkpt><trkpt lat="43.8767882" lon="11.9933991"><ele>425.0</ele><time>2026-05-01T07:50:38.26Z</time></trkpt><trkpt lat="43.8766695" lon="11.9932331"><ele>422.0</ele><time>2026-05-01T07:50:39.271Z</time></trkpt><trkpt lat="43.8765683" lon="11.993054"><ele>419.0</ele><time>2026-05-01T07:50:40.27Z</time></trkpt><trkpt lat="43.8764622" lon="11.9928644"><ele>419.0</ele><time>2026-05-01T07:50:41.264Z</time></trkpt><trkpt lat="43.8763537" lon="11.9926813"><ele>419.0</ele><time>2026-05-01T07:50:42.259Z</time></trkpt><trkpt lat="43.8762412" lon="11.9925319"><ele>419.0</ele><time>2026-05-01T07:50:43.267Z</time></trkpt><trkpt lat="43.8761359" lon="11.9923451"><ele>415.66666666666663</ele><time>2026-05-01T07:50:44.271Z</time></trkpt><trkpt lat="43.8760379" lon="11.9921634"><ele>412.33333333333337</ele><time>2026-05-01T07:50:45.258Z</time></trkpt><trkpt lat="43.8759702" lon="11.9920115"><ele>409.0</ele><time>2026-05-01T07:50:46.263Z</time></trkpt><trkpt lat="43.8758573" lon="11.9918262"><ele>415.33333333333337</ele><time>2026-05-01T07:50:47.26Z</time></trkpt><trkpt lat="43.8757603" lon="11.9916349"><ele>421.66666666666663</ele><time>2026-05-01T07:50:48.269Z</time></trkpt><trkpt lat="43.8756502" lon="11.9914439"><ele>428.0</ele><time>2026-05-01T07:50:49.259Z</time></trkpt><trkpt lat="43.8755442" lon="11.9912236"><ele>428.0</ele><time>2026-05-01T07:50:50.257Z</time></trkpt><trkpt lat="43.8754375" lon="11.9910258"><ele>428.0</ele><time>2026-05-01T07:50:51.269Z</time></trkpt><trkpt lat="43.8753343" lon="11.9908262"><ele>428.0</ele><time>2026-05-01T07:50:52.269Z</time></trkpt><trkpt lat="43.8752275" lon="11.9906192"><ele>427.0</ele><time>2026-05-01T07:50:53.265Z</time></trkpt><trkpt lat="43.8751171" lon="11.9903983"><ele>426.0</ele><time>2026-05-01T07:50:54.259Z</time></trkpt><trkpt lat="43.8750197" lon="11.9901873"><ele>425.0</ele><time>2026-05-01T07:50:55.257Z</time></trkpt><trkpt lat="43.8749196" lon="11.9899822"><ele>431.0</ele><time>2026-05-01T07:50:56.27Z</time></trkpt><trkpt lat="43.8748348" lon="11.9897695"><ele>437.0</ele><time>2026-05-01T07:50:57.27Z</time></trkpt><trkpt lat="43.8747427" lon="11.9895675"><ele>443.0</ele><time>2026-05-01T07:50:58.268Z</time></trkpt><trkpt lat="43.874662" lon="11.9893396"><ele>447.0</ele><time>2026-05-01T07:50:59.259Z</time></trkpt><trkpt lat="43.874561" lon="11.9891305"><ele>451.0</ele><time>2026-05-01T07:51:00.269Z</time></trkpt><trkpt lat="43.8744616" lon="11.9889081"><ele>455.0</ele><time>2026-05-01T07:51:01.261Z</time></trkpt><trkpt lat="43.8743705" lon="11.9886806"><ele>453.0</ele><time>2026-05-01T07:51:02.266Z</time></trkpt><trkpt lat="43.8742609" lon="11.9884776"><ele>451.0</ele><time>2026-05-01T07:51:03.257Z</time></trkpt><trkpt lat="43.874158" lon="11.988254"><ele>449.0</ele><time>2026-05-01T07:51:04.258Z</time></trkpt><trkpt lat="43.8740479" lon="11.9880219"><ele>449.0</ele><time>2026-05-01T07:51:05.267Z</time></trkpt><trkpt lat="43.8739486" lon="11.9877885"><ele>449.0</ele><time>2026-05-01T07:51:06.258Z</time></trkpt><trkpt lat="43.8738478" lon="11.9875062"><ele>449.0</ele><time>2026-05-01T07:51:07.263Z</time></trkpt><trkpt lat="43.8737403" lon="11.9872659"><ele>451.66666666666663</ele><time>2026-05-01T07:51:08.263Z</time></trkpt><trkpt lat="43.8736293" lon="11.9869892"><ele>454.33333333333337</ele><time>2026-05-01T07:51:09.261Z</time></trkpt><trkpt lat="43.8735211" lon="11.986732"><ele>457.0</ele><time>2026-05-01T07:51:10.269Z</time></trkpt><trkpt lat="43.8734127" lon="11.986487"><ele>455.6666666666667</ele><time>2026-05-01T07:51:11.259Z</time></trkpt><trkpt lat="43.8733048" lon="11.9862362"><ele>454.33333333333337</ele><time>2026-05-01T07:51:12.26Z</time></trkpt><trkpt lat="43.8731997" lon="11.9859987"><ele>453.0</ele><time>2026-05-01T07:51:13.256Z</time></trkpt><trkpt lat="43.8730927" lon="11.9857468"><ele>453.0</ele><time>2026-05-01T07:51:14.263Z</time></trkpt><trkpt lat="43.8729974" lon="11.9855183"><ele>453.0</ele><time>2026-05-01T07:51:15.258Z</time></trkpt><trkpt lat="43.8728909" lon="11.9852833"><ele>453.0</ele><time>2026-05-01T07:51:16.27Z</time></trkpt><trkpt lat="43.8727792" lon="11.9850407"><ele>450.66666666666663</ele><time>2026-05-01T07:51:17.257Z</time></trkpt><trkpt lat="43.8726682" lon="11.9848023"><ele>448.3333333333333</ele><time>2026-05-01T07:51:18.268Z</time></trkpt><trkpt lat="43.8725643" lon="11.9845354"><ele>446.0</ele><time>2026-05-01T07:51:19.258Z</time></trkpt><trkpt lat="43.8724669" lon="11.9842792"><ele>451.0</ele><time>2026-05-01T07:51:20.263Z</time></trkpt><trkpt lat="43.8723728" lon="11.9840214"><ele>456.0</ele><time>2026-05-01T07:51:21.27Z</time></trkpt><trkpt lat="43.8722709" lon="11.9837721"><ele>461.0</ele><time>2026-05-01T07:51:22.267Z</time></trkpt><trkpt lat="43.872157" lon="11.9835315"><ele>465.3333333333333</ele><time>2026-05-01T07:51:23.263Z</time></trkpt><trkpt lat="43.8720449" lon="11.9832863"><ele>469.66666666666663</ele><time>2026-05-01T07:51:24.262Z</time></trkpt><trkpt lat="43.871929" lon="11.9830399"><ele>474.0</ele><time>2026-05-01T07:51:25.27Z</time></trkpt><trkpt lat="43.8718124" lon="11.9827981"><ele>467.66666666666663</ele><time>2026-05-01T07:51:26.269Z</time></trkpt><trkpt lat="43.8716895" lon="11.982559"><ele>461.3333333333333</ele><time>2026-05-01T07:51:27.266Z</time></trkpt><trkpt lat="43.8715665" lon="11.9823194"><ele>455.0</ele><time>2026-05-01T07:51:28.266Z</time></trkpt><trkpt lat="43.8714557" lon="11.9821341"><ele>455.0</ele><time>2026-05-01T07:51:29.259Z</time></trkpt><trkpt lat="43.8713516" lon="11.9819147"><ele>455.0</ele><time>2026-05-01T07:51:30.265Z</time></trkpt><trkpt lat="43.8712393" lon="11.9816996"><ele>455.0</ele><time>2026-05-01T07:51:31.261Z</time></trkpt><trkpt lat="43.8711369" lon="11.9815162"><ele>455.3333333333333</ele><time>2026-05-01T07:51:32.269Z</time></trkpt><trkpt lat="43.8710347" lon="11.9813573"><ele>455.66666666666663</ele><time>2026-05-01T07:51:33.27Z</time></trkpt><trkpt lat="43.8709422" lon="11.9811897"><ele>456.0</ele><time>2026-05-01T07:51:34.259Z</time></trkpt><trkpt lat="43.870852" lon="11.9810125"><ele>456.0</ele><time>2026-05-01T07:51:35.27Z</time></trkpt><trkpt lat="43.8707513" lon="11.9808563"><ele>456.0</ele><time>2026-05-01T07:51:36.269Z</time></trkpt><trkpt lat="43.8706595" lon="11.9807686"><ele>456.0</ele><time>2026-05-01T07:51:37.261Z</time></trkpt><trkpt lat="43.8705583" lon="11.9806736"><ele>456.0</ele><time>2026-05-01T07:51:38.256Z</time></trkpt><trkpt lat="43.8704823" lon="11.9805454"><ele>457.25</ele><time>2026-05-01T07:51:39.262Z</time></trkpt><trkpt lat="43.8704142" lon="11.9803915"><ele>458.5</ele><time>2026-05-01T07:51:40.265Z</time></trkpt><trkpt lat="43.870352" lon="11.9802176"><ele>459.75</ele><time>2026-05-01T07:51:41.261Z</time></trkpt><trkpt lat="43.8703211" lon="11.9800456"><ele>461.0</ele><time>2026-05-01T07:51:42.26Z</time></trkpt><trkpt lat="43.8702983" lon="11.979863"><ele>462.0</ele><time>2026-05-01T07:51:43.257Z</time></trkpt><trkpt lat="43.8702772" lon="11.9796876"><ele>463.0</ele><time>2026-05-01T07:51:44.258Z</time></trkpt><trkpt lat="43.8702561" lon="11.9794987"><ele>464.0</ele><time>2026-05-01T07:51:45.257Z</time></trkpt><trkpt lat="43.8701991" lon="11.9793398"><ele>465.0</ele><time>2026-05-01T07:51:46.257Z</time></trkpt><trkpt lat="43.8701309" lon="11.9791976"><ele>464.75</ele><time>2026-05-01T07:51:47.256Z</time></trkpt><trkpt lat="43.8700474" lon="11.9790866"><ele>464.5</ele><time>2026-05-01T07:51:48.269Z</time></trkpt><trkpt lat="43.8699292" lon="11.9790317"><ele>464.25</ele><time>2026-05-01T07:51:49.269Z</time></trkpt><trkpt lat="43.8698076" lon="11.9790219"><ele>464.0</ele><time>2026-05-01T07:51:50.271Z</time></trkpt><trkpt lat="43.8696708" lon="11.9790588"><ele>464.0</ele><time>2026-05-01T07:51:51.27Z</time></trkpt><trkpt lat="43.869529" lon="11.9791363"><ele>464.0</ele><time>2026-05-01T07:51:52.259Z</time></trkpt><trkpt lat="43.8693719" lon="11.9792245"><ele>464.0</ele><time>2026-05-01T07:51:53.273Z</time></trkpt><trkpt lat="43.8692395" lon="11.9792983"><ele>462.75</ele><time>2026-05-01T07:51:54.269Z</time></trkpt><trkpt lat="43.8691324" lon="11.9793594"><ele>461.5</ele><time>2026-05-01T07:51:55.261Z</time></trkpt><trkpt lat="43.8689985" lon="11.9794164"><ele>460.25</ele><time>2026-05-01T07:51:56.273Z</time></trkpt><trkpt lat="43.8688916" lon="11.9794502"><ele>459.0</ele><time>2026-05-01T07:51:57.258Z</time></trkpt><trkpt lat="43.8687919" lon="11.9794507"><ele>459.0</ele><time>2026-05-01T07:51:58.264Z</time></trkpt><trkpt lat="43.86871" lon="11.9793448"><ele>459.0</ele><time>2026-05-01T07:52:00.265Z</time></trkpt><trkpt lat="43.8686442" lon="11.9792497"><ele>459.0</ele><time>2026-05-01T07:52:02.27Z</time></trkpt><trkpt lat="43.8686281" lon="11.979164"><ele>459.0</ele><time>2026-05-01T07:52:05.273Z</time></trkpt><trkpt lat="43.868568" lon="11.9790472"><ele>459.0</ele><time>2026-05-01T07:52:09.259Z</time></trkpt><trkpt lat="43.8684704" lon="11.9789731"><ele>461.0</ele><time>2026-05-01T07:52:10.269Z</time></trkpt><trkpt lat="43.8683482" lon="11.9789627"><ele>463.0</ele><time>2026-05-01T07:52:11.26Z</time></trkpt><trkpt lat="43.8682609" lon="11.9789593"><ele>465.0</ele><time>2026-05-01T07:52:12.262Z</time></trkpt><trkpt lat="43.8681503" lon="11.9789768"><ele>467.0</ele><time>2026-05-01T07:52:13.261Z</time></trkpt><trkpt lat="43.8680201" lon="11.9789922"><ele>467.0</ele><time>2026-05-01T07:52:14.265Z</time></trkpt><trkpt lat="43.8678981" lon="11.9790256"><ele>467.0</ele><time>2026-05-01T07:52:15.26Z</time></trkpt><trkpt lat="43.8677648" lon="11.9790488"><ele>467.0</ele><time>2026-05-01T07:52:16.273Z</time></trkpt><trkpt lat="43.8676263" lon="11.9790604"><ele>467.0</ele><time>2026-05-01T07:52:17.269Z</time></trkpt><trkpt lat="43.8675006" lon="11.9790775"><ele>466.3333333333333</ele><time>2026-05-01T07:52:18.258Z</time></trkpt><trkpt lat="43.867379" lon="11.979085"><ele>465.66666666666663</ele><time>2026-05-01T07:52:19.264Z</time></trkpt><trkpt lat="43.8672199" lon="11.9790375"><ele>465.0</ele><time>2026-05-01T07:52:20.264Z</time></trkpt><trkpt lat="43.8670609" lon="11.9789656"><ele>465.0</ele><time>2026-05-01T07:52:21.269Z</time></trkpt><trkpt lat="43.8669116" lon="11.9788845"><ele>465.0</ele><time>2026-05-01T07:52:22.261Z</time></trkpt><trkpt lat="43.8667614" lon="11.9787926"><ele>465.0</ele><time>2026-05-01T07:52:23.262Z</time></trkpt><trkpt lat="43.8666177" lon="11.9786775"><ele>464.33333333333337</ele><time>2026-05-01T07:52:24.269Z</time></trkpt><trkpt lat="43.8664495" lon="11.9785865"><ele>463.6666666666667</ele><time>2026-05-01T07:52:25.261Z</time></trkpt><trkpt lat="43.8662985" lon="11.9784649"><ele>463.0</ele><time>2026-05-01T07:52:26.271Z</time></trkpt><trkpt lat="43.8661522" lon="11.9783341"><ele>463.75</ele><time>2026-05-01T07:52:27.27Z</time></trkpt><trkpt lat="43.8660337" lon="11.978235"><ele>464.5</ele><time>2026-05-01T07:52:28.26Z</time></trkpt><trkpt lat="43.8659264" lon="11.9781284"><ele>465.25</ele><time>2026-05-01T07:52:29.262Z</time></trkpt><trkpt lat="43.8658007" lon="11.9780186"><ele>466.0</ele><time>2026-05-01T07:52:30.267Z</time></trkpt><trkpt lat="43.8656847" lon="11.9779294"><ele>466.0</ele><time>2026-05-01T07:52:31.257Z</time></trkpt><trkpt lat="43.86558" lon="11.9778434"><ele>466.0</ele><time>2026-05-01T07:52:32.263Z</time></trkpt><trkpt lat="43.8654889" lon="11.9777675"><ele>466.0</ele><time>2026-05-01T07:52:33.27Z</time></trkpt><trkpt lat="43.8654138" lon="11.9776974"><ele>466.0</ele><time>2026-05-01T07:52:34.271Z</time></trkpt><trkpt lat="43.8653325" lon="11.977631"><ele>466.0</ele><time>2026-05-01T07:52:35.265Z</time></trkpt><trkpt lat="43.8652665" lon="11.9775779"><ele>467.0</ele><time>2026-05-01T07:52:36.256Z</time></trkpt><trkpt lat="43.8652928" lon="11.9774805"><ele>468.0</ele><time>2026-05-01T07:52:38.259Z</time></trkpt><trkpt lat="43.8653461" lon="11.9773884"><ele>469.0</ele><time>2026-05-01T07:52:40.261Z</time></trkpt><trkpt lat="43.8655605" lon="11.9773256"><ele>470.0</ele><time>2026-05-01T07:52:42.278Z</time></trkpt><trkpt lat="43.8656801" lon="11.9772977"><ele>470.0</ele><time>2026-05-01T07:52:43.27Z</time></trkpt><trkpt lat="43.8657843" lon="11.977246"><ele>470.0</ele><time>2026-05-01T07:52:44.267Z</time></trkpt><trkpt lat="43.8658782" lon="11.9771742"><ele>470.0</ele><time>2026-05-01T07:52:45.264Z</time></trkpt><trkpt lat="43.8660066" lon="11.9770963"><ele>470.0</ele><time>2026-05-01T07:52:46.267Z</time></trkpt><trkpt lat="43.8661331" lon="11.9769841"><ele>471.3333333333333</ele><time>2026-05-01T07:52:47.272Z</time></trkpt><trkpt lat="43.8662785" lon="11.9768961"><ele>472.66666666666663</ele><time>2026-05-01T07:52:48.26Z</time></trkpt><trkpt lat="43.8664566" lon="11.9768216"><ele>474.0</ele><time>2026-05-01T07:52:49.271Z</time></trkpt><trkpt lat="43.8666085" lon="11.9767384"><ele>475.66666666666663</ele><time>2026-05-01T07:52:50.267Z</time></trkpt><trkpt lat="43.8667576" lon="11.9766375"><ele>477.3333333333333</ele><time>2026-05-01T07:52:51.269Z</time></trkpt><trkpt lat="43.8669037" lon="11.9765289"><ele>479.0</ele><time>2026-05-01T07:52:52.271Z</time></trkpt><trkpt lat="43.867051" lon="11.9764036"><ele>480.0</ele><time>2026-05-01T07:52:53.259Z</time></trkpt><trkpt lat="43.8672358" lon="11.9762733"><ele>481.0</ele><time>2026-05-01T07:52:54.271Z</time></trkpt><trkpt lat="43.8674642" lon="11.9761507"><ele>483.5</ele><time>2026-05-01T07:52:55.268Z</time></trkpt><trkpt lat="43.8676833" lon="11.9760004"><ele>486.0</ele><time>2026-05-01T07:52:56.268Z</time></trkpt><trkpt lat="43.8679055" lon="11.9758577"><ele>489.0</ele><time>2026-05-01T07:52:57.27Z</time></trkpt><trkpt lat="43.8681262" lon="11.9757034"><ele>492.0</ele><time>2026-05-01T07:52:58.263Z</time></trkpt><trkpt lat="43.8683508" lon="11.9755464"><ele>492.5</ele><time>2026-05-01T07:52:59.256Z</time></trkpt><trkpt lat="43.8685838" lon="11.9753745"><ele>493.0</ele><time>2026-05-01T07:53:00.26Z</time></trkpt><trkpt lat="43.8688174" lon="11.9752122"><ele>493.0</ele><time>2026-05-01T07:53:01.256Z</time></trkpt><trkpt lat="43.8690582" lon="11.9750809"><ele>493.0</ele><time>2026-05-01T07:53:02.267Z</time></trkpt><trkpt lat="43.8692697" lon="11.9749504"><ele>497.33333333333337</ele><time>2026-05-01T07:53:03.269Z</time></trkpt><trkpt lat="43.8694602" lon="11.9748233"><ele>501.66666666666663</ele><time>2026-05-01T07:53:04.271Z</time></trkpt><trkpt lat="43.8696337" lon="11.9746784"><ele>506.0</ele><time>2026-05-01T07:53:05.259Z</time></trkpt><trkpt lat="43.8697899" lon="11.9745122"><ele>506.0</ele><time>2026-05-01T07:53:06.258Z</time></trkpt><trkpt lat="43.8699129" lon="11.9742989"><ele>506.0</ele><time>2026-05-01T07:53:07.269Z</time></trkpt><trkpt lat="43.8700497" lon="11.9740413"><ele>506.0</ele><time>2026-05-01T07:53:08.27Z</time></trkpt><trkpt lat="43.8701673" lon="11.9737964"><ele>508.0</ele><time>2026-05-01T07:53:09.266Z</time></trkpt><trkpt lat="43.8702969" lon="11.9735282"><ele>510.0</ele><time>2026-05-01T07:53:10.259Z</time></trkpt><trkpt lat="43.8704208" lon="11.9732551"><ele>512.5</ele><time>2026-05-01T07:53:11.266Z</time></trkpt><trkpt lat="43.8705647" lon="11.9729903"><ele>515.0</ele><time>2026-05-01T07:53:12.268Z</time></trkpt><trkpt lat="43.8707305" lon="11.9727086"><ele>516.5</ele><time>2026-05-01T07:53:13.264Z</time></trkpt><trkpt lat="43.8708767" lon="11.9724213"><ele>518.0</ele><time>2026-05-01T07:53:14.275Z</time></trkpt><trkpt lat="43.8710203" lon="11.9721646"><ele>519.0</ele><time>2026-05-01T07:53:15.259Z</time></trkpt><trkpt lat="43.8711589" lon="11.9719493"><ele>520.0</ele><time>2026-05-01T07:53:16.261Z</time></trkpt><trkpt lat="43.8713207" lon="11.9717473"><ele>521.0</ele><time>2026-05-01T07:53:17.263Z</time></trkpt><trkpt lat="43.8715279" lon="11.9715956"><ele>522.5</ele><time>2026-05-01T07:53:18.27Z</time></trkpt><trkpt lat="43.8717291" lon="11.9714463"><ele>524.0</ele><time>2026-05-01T07:53:19.27Z</time></trkpt><trkpt lat="43.8719327" lon="11.9713035"><ele>525.5</ele><time>2026-05-01T07:53:20.259Z</time></trkpt><trkpt lat="43.8721459" lon="11.9711648"><ele>527.0</ele><time>2026-05-01T07:53:21.262Z</time></trkpt><trkpt lat="43.872359" lon="11.9710005"><ele>530.0</ele><time>2026-05-01T07:53:22.258Z</time></trkpt><trkpt lat="43.8725707" lon="11.970832"><ele>533.0</ele><time>2026-05-01T07:53:23.272Z</time></trkpt><trkpt lat="43.8727799" lon="11.9706809"><ele>534.6666666666666</ele><time>2026-05-01T07:53:24.259Z</time></trkpt><trkpt lat="43.8729774" lon="11.9704968"><ele>536.3333333333334</ele><time>2026-05-01T07:53:25.269Z</time></trkpt><trkpt lat="43.8731546" lon="11.9703565"><ele>538.0</ele><time>2026-05-01T07:53:26.265Z</time></trkpt><trkpt lat="43.8733314" lon="11.9702381"><ele>539.0</ele><time>2026-05-01T07:53:27.258Z</time></trkpt><trkpt lat="43.8734857" lon="11.9701568"><ele>540.0</ele><time>2026-05-01T07:53:28.263Z</time></trkpt><trkpt lat="43.8736337" lon="11.9700385"><ele>541.0</ele><time>2026-05-01T07:53:29.269Z</time></trkpt><trkpt lat="43.8737267" lon="11.9699474"><ele>541.8</ele><time>2026-05-01T07:53:30.263Z</time></trkpt><trkpt lat="43.8737229" lon="11.9698372"><ele>542.6</ele><time>2026-05-01T07:53:31.27Z</time></trkpt><trkpt lat="43.8737599" lon="11.9696868"><ele>543.4</ele><time>2026-05-01T07:53:32.259Z</time></trkpt><trkpt lat="43.8737552" lon="11.9695459"><ele>544.2</ele><time>2026-05-01T07:53:33.269Z</time></trkpt><trkpt lat="43.8737193" lon="11.9694103"><ele>545.0</ele><time>2026-05-01T07:53:34.261Z</time></trkpt><trkpt lat="43.8736096" lon="11.9693156"><ele>545.0</ele><time>2026-05-01T07:53:35.262Z</time></trkpt><trkpt lat="43.8735162" lon="11.9692208"><ele>545.0</ele><time>2026-05-01T07:53:36.265Z</time></trkpt><trkpt lat="43.8733984" lon="11.9691551"><ele>545.0</ele><time>2026-05-01T07:53:37.258Z</time></trkpt><trkpt lat="43.8732946" lon="11.9690934"><ele>545.0</ele><time>2026-05-01T07:53:38.263Z</time></trkpt><trkpt lat="43.8731348" lon="11.9690484"><ele>546.75</ele><time>2026-05-01T07:53:39.253Z</time></trkpt><trkpt lat="43.8729926" lon="11.9690233"><ele>548.5</ele><time>2026-05-01T07:53:40.269Z</time></trkpt><trkpt lat="43.8728574" lon="11.9689883"><ele>550.25</ele><time>2026-05-01T07:53:41.261Z</time></trkpt><trkpt lat="43.8727511" lon="11.9689437"><ele>552.0</ele><time>2026-05-01T07:53:42.261Z</time></trkpt><trkpt lat="43.8726378" lon="11.9689308"><ele>553.0</ele><time>2026-05-01T07:53:43.253Z</time></trkpt><trkpt lat="43.8725255" lon="11.9689365"><ele>554.0</ele><time>2026-05-01T07:53:44.255Z</time></trkpt><trkpt lat="43.8724376" lon="11.968956"><ele>555.0</ele><time>2026-05-01T07:53:45.261Z</time></trkpt><trkpt lat="43.8723629" lon="11.9689816"><ele>556.0</ele><time>2026-05-01T07:53:46.263Z</time></trkpt><trkpt lat="43.8722805" lon="11.9689792"><ele>557.0</ele><time>2026-05-01T07:53:47.261Z</time></trkpt><trkpt lat="43.8722178" lon="11.9688683"><ele>557.0</ele><time>2026-05-01T07:53:49.274Z</time></trkpt><trkpt lat="43.8722602" lon="11.9687148"><ele>557.0</ele><time>2026-05-01T07:53:51.266Z</time></trkpt><trkpt lat="43.8723178" lon="11.9686728"><ele>557.0</ele><time>2026-05-01T07:53:52.255Z</time></trkpt><trkpt lat="43.8724256" lon="11.9686172"><ele>557.0</ele><time>2026-05-01T07:53:53.256Z</time></trkpt><trkpt lat="43.8726872" lon="11.9684795"><ele>555.3333333333333</ele><time>2026-05-01T07:53:54.256Z</time></trkpt><trkpt lat="43.872838" lon="11.9683793"><ele>553.6666666666666</ele><time>2026-05-01T07:53:55.259Z</time></trkpt><trkpt lat="43.8730133" lon="11.9682861"><ele>552.0</ele><time>2026-05-01T07:53:56.257Z</time></trkpt><trkpt lat="43.8731979" lon="11.9681902"><ele>555.25</ele><time>2026-05-01T07:53:57.256Z</time></trkpt><trkpt lat="43.8733317" lon="11.9681046"><ele>558.5</ele><time>2026-05-01T07:53:58.271Z</time></trkpt><trkpt lat="43.8734556" lon="11.9680155"><ele>561.75</ele><time>2026-05-01T07:53:59.256Z</time></trkpt><trkpt lat="43.8735585" lon="11.9679133"><ele>565.0</ele><time>2026-05-01T07:54:00.261Z</time></trkpt><trkpt lat="43.8736331" lon="11.967744"><ele>565.4</ele><time>2026-05-01T07:54:01.259Z</time></trkpt><trkpt lat="43.8736615" lon="11.9675998"><ele>565.8</ele><time>2026-05-01T07:54:02.258Z</time></trkpt><trkpt lat="43.8736574" lon="11.9674586"><ele>566.2</ele><time>2026-05-01T07:54:03.257Z</time></trkpt><trkpt lat="43.8735791" lon="11.9673354"><ele>566.6</ele><time>2026-05-01T07:54:04.268Z</time></trkpt><trkpt lat="43.8735092" lon="11.9672092"><ele>567.0</ele><time>2026-05-01T07:54:05.271Z</time></trkpt><trkpt lat="43.87344" lon="11.9671114"><ele>568.6</ele><time>2026-05-01T07:54:06.259Z</time></trkpt><trkpt lat="43.8733498" lon="11.9670009"><ele>570.2</ele><time>2026-05-01T07:54:07.268Z</time></trkpt><trkpt lat="43.8732772" lon="11.9668928"><ele>571.8</ele><time>2026-05-01T07:54:08.269Z</time></trkpt><trkpt lat="43.8732132" lon="11.9667941"><ele>573.4</ele><time>2026-05-01T07:54:09.269Z</time></trkpt><trkpt lat="43.8731512" lon="11.9666897"><ele>575.0</ele><time>2026-05-01T07:54:10.26Z</time></trkpt><trkpt lat="43.8731197" lon="11.9665844"><ele>577.75</ele><time>2026-05-01T07:54:11.261Z</time></trkpt><trkpt lat="43.8731578" lon="11.9664753"><ele>580.5</ele><time>2026-05-01T07:54:13.267Z</time></trkpt><trkpt lat="43.8732728" lon="11.9664941"><ele>583.25</ele><time>2026-05-01T07:54:14.255Z</time></trkpt><trkpt lat="43.8733892" lon="11.9665391"><ele>586.0</ele><time>2026-05-01T07:54:15.259Z</time></trkpt><trkpt lat="43.8735202" lon="11.9666258"><ele>589.75</ele><time>2026-05-01T07:54:16.274Z</time></trkpt><trkpt lat="43.8736749" lon="11.9666277"><ele>593.5</ele><time>2026-05-01T07:54:17.271Z</time></trkpt><trkpt lat="43.8738287" lon="11.9666771"><ele>597.25</ele><time>2026-05-01T07:54:18.257Z</time></trkpt><trkpt lat="43.8739276" lon="11.9666623"><ele>601.0</ele><time>2026-05-01T07:54:19.262Z</time></trkpt><trkpt lat="43.8740488" lon="11.9666451"><ele>601.0</ele><time>2026-05-01T07:54:20.263Z</time></trkpt><trkpt lat="43.8741671" lon="11.9665911"><ele>601.0</ele><time>2026-05-01T07:54:21.263Z</time></trkpt><trkpt lat="43.8742741" lon="11.9665303"><ele>601.0</ele><time>2026-05-01T07:54:22.257Z</time></trkpt><trkpt lat="43.8743871" lon="11.966427"><ele>601.0</ele><time>2026-05-01T07:54:23.269Z</time></trkpt><trkpt lat="43.8744651" lon="11.9663212"><ele>600.6</ele><time>2026-05-01T07:54:24.256Z</time></trkpt><trkpt lat="43.87451" lon="11.9662024"><ele>600.2</ele><time>2026-05-01T07:54:25.256Z</time></trkpt><trkpt lat="43.8745463" lon="11.9660744"><ele>599.8</ele><time>2026-05-01T07:54:26.269Z</time></trkpt><trkpt lat="43.8745538" lon="11.9659381"><ele>599.4</ele><time>2026-05-01T07:54:27.255Z</time></trkpt><trkpt lat="43.8745621" lon="11.9657891"><ele>599.0</ele><time>2026-05-01T07:54:28.266Z</time></trkpt><trkpt lat="43.8745628" lon="11.965646"><ele>600.25</ele><time>2026-05-01T07:54:29.261Z</time></trkpt><trkpt lat="43.8745758" lon="11.965537"><ele>601.5</ele><time>2026-05-01T07:54:30.258Z</time></trkpt><trkpt lat="43.8746958" lon="11.9654104"><ele>602.75</ele><time>2026-05-01T07:54:32.266Z</time></trkpt><trkpt lat="43.8748143" lon="11.9653112"><ele>604.0</ele><time>2026-05-01T07:54:33.258Z</time></trkpt><trkpt lat="43.8749029" lon="11.9651873"><ele>604.0</ele><time>2026-05-01T07:54:34.262Z</time></trkpt><trkpt lat="43.8749586" lon="11.965088"><ele>604.0</ele><time>2026-05-01T07:54:35.263Z</time></trkpt><trkpt lat="43.8750287" lon="11.9649935"><ele>604.0</ele><time>2026-05-01T07:54:36.257Z</time></trkpt><trkpt lat="43.875129" lon="11.9649032"><ele>604.0</ele><time>2026-05-01T07:54:37.267Z</time></trkpt><trkpt lat="43.8752538" lon="11.9648451"><ele>604.0</ele><time>2026-05-01T07:54:38.259Z</time></trkpt><trkpt lat="43.8753893" lon="11.9648145"><ele>607.2</ele><time>2026-05-01T07:54:39.271Z</time></trkpt><trkpt lat="43.8754898" lon="11.9647835"><ele>610.4</ele><time>2026-05-01T07:54:40.258Z</time></trkpt><trkpt lat="43.8755729" lon="11.9647044"><ele>613.6</ele><time>2026-05-01T07:54:41.256Z</time></trkpt><trkpt lat="43.8756517" lon="11.9645995"><ele>616.8</ele><time>2026-05-01T07:54:42.271Z</time></trkpt><trkpt lat="43.8757113" lon="11.9644608"><ele>620.0</ele><time>2026-05-01T07:54:43.265Z</time></trkpt><trkpt lat="43.8758106" lon="11.9643058"><ele>627.0</ele><time>2026-05-01T07:54:44.264Z</time></trkpt><trkpt lat="43.8759576" lon="11.9640681"><ele>634.0</ele><time>2026-05-01T07:54:45.273Z</time></trkpt><trkpt lat="43.8760991" lon="11.9638879"><ele>641.0</ele><time>2026-05-01T07:54:46.256Z</time></trkpt><trkpt lat="43.8762261" lon="11.9637025"><ele>641.0</ele><time>2026-05-01T07:54:47.262Z</time></trkpt><trkpt lat="43.8763344" lon="11.9635373"><ele>641.0</ele><time>2026-05-01T07:54:48.257Z</time></trkpt><trkpt lat="43.876421" lon="11.9634608"><ele>641.0</ele><time>2026-05-01T07:54:49.258Z</time></trkpt><trkpt lat="43.876485" lon="11.9634374"><ele>641.0</ele><time>2026-05-01T07:54:50.26Z</time></trkpt><trkpt lat="43.8764908" lon="11.963566"><ele>641.0</ele><time>2026-05-01T07:54:52.255Z</time></trkpt><trkpt lat="43.8764597" lon="11.9637132"><ele>641.0</ele><time>2026-05-01T07:54:54.258Z</time></trkpt><trkpt lat="43.8764099" lon="11.9638823"><ele>641.0</ele><time>2026-05-01T07:54:55.277Z</time></trkpt><trkpt lat="43.8763911" lon="11.9640344"><ele>641.0</ele><time>2026-05-01T07:54:56.255Z</time></trkpt><trkpt lat="43.8763952" lon="11.9641229"><ele>641.0</ele><time>2026-05-01T07:54:57.258Z</time></trkpt><trkpt lat="43.8764528" lon="11.9641721"><ele>641.0</ele><time>2026-05-01T07:54:58.266Z</time></trkpt><trkpt lat="43.8765304" lon="11.9642077"><ele>638.0</ele><time>2026-05-01T07:54:59.263Z</time></trkpt><trkpt lat="43.8766582" lon="11.964275"><ele>635.0</ele><time>2026-05-01T07:55:00.271Z</time></trkpt><trkpt lat="43.8768464" lon="11.964301"><ele>632.0</ele><time>2026-05-01T07:55:01.267Z</time></trkpt><trkpt lat="43.8770357" lon="11.9643171"><ele>630.75</ele><time>2026-05-01T07:55:02.257Z</time></trkpt><trkpt lat="43.8772075" lon="11.9643636"><ele>629.5</ele><time>2026-05-01T07:55:03.269Z</time></trkpt><trkpt lat="43.8772979" lon="11.9643377"><ele>628.25</ele><time>2026-05-01T07:55:04.267Z</time></trkpt><trkpt lat="43.8773618" lon="11.9642225"><ele>627.0</ele><time>2026-05-01T07:55:05.261Z</time></trkpt><trkpt lat="43.8773513" lon="11.9640585"><ele>632.25</ele><time>2026-05-01T07:55:06.258Z</time></trkpt><trkpt lat="43.8773642" lon="11.9638883"><ele>637.5</ele><time>2026-05-01T07:55:07.269Z</time></trkpt><trkpt lat="43.8773076" lon="11.9636927"><ele>642.75</ele><time>2026-05-01T07:55:08.256Z</time></trkpt><trkpt lat="43.8772661" lon="11.9635543"><ele>648.0</ele><time>2026-05-01T07:55:09.257Z</time></trkpt><trkpt lat="43.8772805" lon="11.9634331"><ele>648.0</ele><time>2026-05-01T07:55:10.257Z</time></trkpt><trkpt lat="43.8772897" lon="11.9633364"><ele>648.0</ele><time>2026-05-01T07:55:11.293Z</time></trkpt><trkpt lat="43.8773788" lon="11.9633206"><ele>648.0</ele><time>2026-05-01T07:55:12.255Z</time></trkpt><trkpt lat="43.8774748" lon="11.9634454"><ele>648.0</ele><time>2026-05-01T07:55:13.261Z</time></trkpt><trkpt lat="43.8776042" lon="11.9635565"><ele>648.0</ele><time>2026-05-01T07:55:14.264Z</time></trkpt><trkpt lat="43.8777462" lon="11.9636097"><ele>646.3333333333334</ele><time>2026-05-01T07:55:15.256Z</time></trkpt><trkpt lat="43.877886" lon="11.9636363"><ele>644.6666666666667</ele><time>2026-05-01T07:55:16.257Z</time></trkpt><trkpt lat="43.8781071" lon="11.9635623"><ele>643.0</ele><time>2026-05-01T07:55:17.257Z</time></trkpt><trkpt lat="43.8782835" lon="11.9635183"><ele>641.0</ele><time>2026-05-01T07:55:18.27Z</time></trkpt><trkpt lat="43.8784466" lon="11.9634462"><ele>639.0</ele><time>2026-05-01T07:55:19.267Z</time></trkpt><trkpt lat="43.8785613" lon="11.9633388"><ele>637.0</ele><time>2026-05-01T07:55:20.257Z</time></trkpt><trkpt lat="43.8786024" lon="11.9631504"><ele>642.5</ele><time>2026-05-01T07:55:21.258Z</time></trkpt><trkpt lat="43.87866" lon="11.9629697"><ele>648.0</ele><time>2026-05-01T07:55:22.256Z</time></trkpt><trkpt lat="43.8787097" lon="11.9627905"><ele>653.5</ele><time>2026-05-01T07:55:23.273Z</time></trkpt><trkpt lat="43.8787955" lon="11.9626335"><ele>659.0</ele><time>2026-05-01T07:55:24.256Z</time></trkpt><trkpt lat="43.8789121" lon="11.9624982"><ele>660.3333333333333</ele><time>2026-05-01T07:55:25.257Z</time></trkpt><trkpt lat="43.8790561" lon="11.9623953"><ele>661.6666666666666</ele><time>2026-05-01T07:55:26.27Z</time></trkpt><trkpt lat="43.8792134" lon="11.9623312"><ele>663.0</ele><time>2026-05-01T07:55:27.258Z</time></trkpt><trkpt lat="43.8793347" lon="11.9622206"><ele>663.0</ele><time>2026-05-01T07:55:28.266Z</time></trkpt><trkpt lat="43.8794483" lon="11.9620766"><ele>663.0</ele><time>2026-05-01T07:55:29.257Z</time></trkpt><trkpt lat="43.8795319" lon="11.9619052"><ele>663.0</ele><time>2026-05-01T07:55:30.258Z</time></trkpt><trkpt lat="43.8796005" lon="11.9617576"><ele>663.0</ele><time>2026-05-01T07:55:31.259Z</time></trkpt><trkpt lat="43.8797011" lon="11.961636"><ele>668.0</ele><time>2026-05-01T07:55:32.258Z</time></trkpt><trkpt lat="43.8798126" lon="11.9615557"><ele>673.0</ele><time>2026-05-01T07:55:33.266Z</time></trkpt><trkpt lat="43.8800159" lon="11.9615778"><ele>678.0</ele><time>2026-05-01T07:55:34.259Z</time></trkpt><trkpt lat="43.8801637" lon="11.9615305"><ele>678.0</ele><time>2026-05-01T07:55:35.255Z</time></trkpt><trkpt lat="43.8802933" lon="11.9614336"><ele>678.0</ele><time>2026-05-01T07:55:36.274Z</time></trkpt><trkpt lat="43.8803912" lon="11.9612897"><ele>678.0</ele><time>2026-05-01T07:55:37.259Z</time></trkpt><trkpt lat="43.8804989" lon="11.9611262"><ele>678.0</ele><time>2026-05-01T07:55:38.258Z</time></trkpt><trkpt lat="43.8806624" lon="11.9610038"><ele>678.0</ele><time>2026-05-01T07:55:39.27Z</time></trkpt><trkpt lat="43.8808239" lon="11.9608732"><ele>678.0</ele><time>2026-05-01T07:55:40.269Z</time></trkpt><trkpt lat="43.8809948" lon="11.9607609"><ele>678.0</ele><time>2026-05-01T07:55:41.269Z</time></trkpt><trkpt lat="43.8811298" lon="11.9606511"><ele>683.6666666666666</ele><time>2026-05-01T07:55:42.273Z</time></trkpt><trkpt lat="43.8812715" lon="11.9605362"><ele>689.3333333333333</ele><time>2026-05-01T07:55:43.258Z</time></trkpt><trkpt lat="43.8814551" lon="11.9605331"><ele>695.0</ele><time>2026-05-01T07:55:44.27Z</time></trkpt><trkpt lat="43.8816315" lon="11.9604797"><ele>697.3333333333333</ele><time>2026-05-01T07:55:45.264Z</time></trkpt><trkpt lat="43.8817753" lon="11.9603985"><ele>699.6666666666666</ele><time>2026-05-01T07:55:46.258Z</time></trkpt><trkpt lat="43.8819064" lon="11.9602718"><ele>702.0</ele><time>2026-05-01T07:55:47.262Z</time></trkpt><trkpt lat="43.8820212" lon="11.9601354"><ele>705.3333333333334</ele><time>2026-05-01T07:55:48.261Z</time></trkpt><trkpt lat="43.8821136" lon="11.9599905"><ele>708.6666666666667</ele><time>2026-05-01T07:55:49.266Z</time></trkpt><trkpt lat="43.8822278" lon="11.9598895"><ele>712.0</ele><time>2026-05-01T07:55:50.258Z</time></trkpt><trkpt lat="43.8824021" lon="11.9598324"><ele>712.0</ele><time>2026-05-01T07:55:51.258Z</time></trkpt><trkpt lat="43.8825626" lon="11.9597857"><ele>712.0</ele><time>2026-05-01T07:55:52.258Z</time></trkpt><trkpt lat="43.8827369" lon="11.959741"><ele>712.0</ele><time>2026-05-01T07:55:53.273Z</time></trkpt><trkpt lat="43.8829578" lon="11.9597605"><ele>715.3333333333334</ele><time>2026-05-01T07:55:54.268Z</time></trkpt><trkpt lat="43.8831615" lon="11.9597732"><ele>718.6666666666666</ele><time>2026-05-01T07:55:55.261Z</time></trkpt><trkpt lat="43.8833496" lon="11.9597507"><ele>722.0</ele><time>2026-05-01T07:55:56.269Z</time></trkpt><trkpt lat="43.8835352" lon="11.9597829"><ele>726.3333333333333</ele><time>2026-05-01T07:55:57.257Z</time></trkpt><trkpt lat="43.883707" lon="11.9598302"><ele>730.6666666666666</ele><time>2026-05-01T07:55:58.262Z</time></trkpt><trkpt lat="43.8839087" lon="11.9598807"><ele>735.0</ele><time>2026-05-01T07:55:59.264Z</time></trkpt><trkpt lat="43.8841059" lon="11.9599699"><ele>736.0</ele><time>2026-05-01T07:56:00.274Z</time></trkpt><trkpt lat="43.8842697" lon="11.9600417"><ele>737.0</ele><time>2026-05-01T07:56:01.272Z</time></trkpt><trkpt lat="43.8843893" lon="11.9601464"><ele>738.0</ele><time>2026-05-01T07:56:02.255Z</time></trkpt><trkpt lat="43.884495" lon="11.9602688"><ele>738.0</ele><time>2026-05-01T07:56:03.265Z</time></trkpt><trkpt lat="43.8845827" lon="11.9603978"><ele>738.0</ele><time>2026-05-01T07:56:04.269Z</time></trkpt><trkpt lat="43.8846204" lon="11.9605748"><ele>738.0</ele><time>2026-05-01T07:56:05.256Z</time></trkpt><trkpt lat="43.8846789" lon="11.9606878"><ele>738.0</ele><time>2026-05-01T07:56:06.261Z</time></trkpt><trkpt lat="43.8847442" lon="11.9607733"><ele>738.0</ele><time>2026-05-01T07:56:07.261Z</time></trkpt><trkpt lat="43.8848791" lon="11.9607576"><ele>738.0</ele><time>2026-05-01T07:56:09.258Z</time></trkpt><trkpt lat="43.8850424" lon="11.9604489"><ele>738.0</ele><time>2026-05-01T07:56:10.259Z</time></trkpt><trkpt lat="43.8851467" lon="11.9602986"><ele>741.0</ele><time>2026-05-01T07:56:11.264Z</time></trkpt><trkpt lat="43.8852352" lon="11.9601469"><ele>744.0</ele><time>2026-05-01T07:56:12.257Z</time></trkpt><trkpt lat="43.8852807" lon="11.960017"><ele>747.0</ele><time>2026-05-01T07:56:13.257Z</time></trkpt><trkpt lat="43.8853009" lon="11.9598733"><ele>750.0</ele><time>2026-05-01T07:56:14.269Z</time></trkpt><trkpt lat="43.8852856" lon="11.9597597"><ele>753.0</ele><time>2026-05-01T07:56:15.269Z</time></trkpt><trkpt lat="43.8851139" lon="11.9595101"><ele>751.6666666666666</ele><time>2026-05-01T07:56:16.269Z</time></trkpt><trkpt lat="43.8849746" lon="11.9593283"><ele>750.3333333333333</ele><time>2026-05-01T07:56:17.258Z</time></trkpt><trkpt lat="43.8848418" lon="11.9591923"><ele>749.0</ele><time>2026-05-01T07:56:18.266Z</time></trkpt><trkpt lat="43.8847489" lon="11.9590829"><ele>751.75</ele><time>2026-05-01T07:56:19.27Z</time></trkpt><trkpt lat="43.88467" lon="11.9590147"><ele>754.5</ele><time>2026-05-01T07:56:20.258Z</time></trkpt><trkpt lat="43.8845695" lon="11.9589117"><ele>757.25</ele><time>2026-05-01T07:56:21.268Z</time></trkpt><trkpt lat="43.8844606" lon="11.9587692"><ele>760.0</ele><time>2026-05-01T07:56:22.27Z</time></trkpt><trkpt lat="43.8843879" lon="11.958637"><ele>760.0</ele><time>2026-05-01T07:56:23.269Z</time></trkpt><trkpt lat="43.8843116" lon="11.9584665"><ele>760.0</ele><time>2026-05-01T07:56:24.269Z</time></trkpt><trkpt lat="43.8842438" lon="11.9583213"><ele>760.0</ele><time>2026-05-01T07:56:25.268Z</time></trkpt><trkpt lat="43.8842166" lon="11.9581658"><ele>760.0</ele><time>2026-05-01T07:56:26.263Z</time></trkpt><trkpt lat="43.88418" lon="11.9580288"><ele>759.6</ele><time>2026-05-01T07:56:27.264Z</time></trkpt><trkpt lat="43.8841447" lon="11.9579306"><ele>759.2</ele><time>2026-05-01T07:56:28.255Z</time></trkpt><trkpt lat="43.8841187" lon="11.9578294"><ele>758.8</ele><time>2026-05-01T07:56:29.261Z</time></trkpt><trkpt lat="43.8841099" lon="11.9576754"><ele>758.4</ele><time>2026-05-01T07:56:30.27Z</time></trkpt><trkpt lat="43.8841161" lon="11.957562"><ele>758.0</ele><time>2026-05-01T07:56:31.269Z</time></trkpt><trkpt lat="43.8842529" lon="11.9575376"><ele>760.25</ele><time>2026-05-01T07:56:33.258Z</time></trkpt><trkpt lat="43.8843456" lon="11.9575861"><ele>762.5</ele><time>2026-05-01T07:56:34.258Z</time></trkpt><trkpt lat="43.8844483" lon="11.9577504"><ele>764.75</ele><time>2026-05-01T07:56:35.267Z</time></trkpt><trkpt lat="43.8845576" lon="11.9578899"><ele>767.0</ele><time>2026-05-01T07:56:36.262Z</time></trkpt><trkpt lat="43.8846661" lon="11.9580319"><ele>767.0</ele><time>2026-05-01T07:56:37.265Z</time></trkpt><trkpt lat="43.884807" lon="11.9581753"><ele>767.0</ele><time>2026-05-01T07:56:38.258Z</time></trkpt><trkpt lat="43.8850122" lon="11.9583997"><ele>767.0</ele><time>2026-05-01T07:56:39.262Z</time></trkpt><trkpt lat="43.8851865" lon="11.9586076"><ele>768.5</ele><time>2026-05-01T07:56:40.259Z</time></trkpt><trkpt lat="43.8853934" lon="11.9587944"><ele>770.0</ele><time>2026-05-01T07:56:41.268Z</time></trkpt><trkpt lat="43.8855852" lon="11.9589834"><ele>770.0</ele><time>2026-05-01T07:56:42.27Z</time></trkpt><trkpt lat="43.8857111" lon="11.9591296"><ele>770.0</ele><time>2026-05-01T07:56:43.258Z</time></trkpt><trkpt lat="43.8858505" lon="11.9592594"><ele>770.0</ele><time>2026-05-01T07:56:44.262Z</time></trkpt><trkpt lat="43.8860105" lon="11.9593031"><ele>773.6666666666667</ele><time>2026-05-01T07:56:45.256Z</time></trkpt><trkpt lat="43.886168" lon="11.9593186"><ele>777.3333333333333</ele><time>2026-05-01T07:56:46.259Z</time></trkpt><trkpt lat="43.8863201" lon="11.9592622"><ele>781.0</ele><time>2026-05-01T07:56:47.261Z</time></trkpt><trkpt lat="43.8864672" lon="11.9591265"><ele>781.0</ele><time>2026-05-01T07:56:48.268Z</time></trkpt><trkpt lat="43.8865839" lon="11.9589419"><ele>781.0</ele><time>2026-05-01T07:56:49.262Z</time></trkpt><trkpt lat="43.8867501" lon="11.9587577"><ele>781.0</ele><time>2026-05-01T07:56:50.26Z</time></trkpt><trkpt lat="43.8869412" lon="11.9586204"><ele>784.6666666666666</ele><time>2026-05-01T07:56:51.268Z</time></trkpt><trkpt lat="43.8871311" lon="11.958499"><ele>788.3333333333333</ele><time>2026-05-01T07:56:52.258Z</time></trkpt><trkpt lat="43.8873195" lon="11.9584262"><ele>792.0</ele><time>2026-05-01T07:56:53.27Z</time></trkpt><trkpt lat="43.887525" lon="11.9584431"><ele>796.6666666666667</ele><time>2026-05-01T07:56:54.268Z</time></trkpt><trkpt lat="43.887703" lon="11.9584638"><ele>801.3333333333334</ele><time>2026-05-01T07:56:55.272Z</time></trkpt><trkpt lat="43.8879113" lon="11.9584786"><ele>806.0</ele><time>2026-05-01T07:56:56.259Z</time></trkpt><trkpt lat="43.8880891" lon="11.9584455"><ele>803.3333333333334</ele><time>2026-05-01T07:56:57.256Z</time></trkpt><trkpt lat="43.888233" lon="11.9583624"><ele>800.6666666666667</ele><time>2026-05-01T07:56:58.257Z</time></trkpt><trkpt lat="43.8883772" lon="11.9582532"><ele>798.0</ele><time>2026-05-01T07:56:59.268Z</time></trkpt><trkpt lat="43.8885094" lon="11.9580743"><ele>798.0</ele><time>2026-05-01T07:57:00.269Z</time></trkpt><trkpt lat="43.8886753" lon="11.9578053"><ele>798.0</ele><time>2026-05-01T07:57:01.257Z</time></trkpt><trkpt lat="43.8887665" lon="11.9575112"><ele>795.5</ele><time>2026-05-01T07:57:02.27Z</time></trkpt><trkpt lat="43.8888249" lon="11.9572127"><ele>793.0</ele><time>2026-05-01T07:57:03.258Z</time></trkpt><trkpt lat="43.8888819" lon="11.9568353"><ele>792.5</ele><time>2026-05-01T07:57:04.258Z</time></trkpt><trkpt lat="43.888974" lon="11.9565104"><ele>792.0</ele><time>2026-05-01T07:57:05.255Z</time></trkpt><trkpt lat="43.8890399" lon="11.9562475"><ele>792.0</ele><time>2026-05-01T07:57:06.269Z</time></trkpt><trkpt lat="43.8890982" lon="11.9559819"><ele>792.0</ele><time>2026-05-01T07:57:07.268Z</time></trkpt><trkpt lat="43.8891502" lon="11.9558031"><ele>792.0</ele><time>2026-05-01T07:57:08.267Z</time></trkpt><trkpt lat="43.8892366" lon="11.955637"><ele>792.25</ele><time>2026-05-01T07:57:09.27Z</time></trkpt><trkpt lat="43.8893409" lon="11.9555018"><ele>792.5</ele><time>2026-05-01T07:57:10.257Z</time></trkpt><trkpt lat="43.8894651" lon="11.9554512"><ele>792.75</ele><time>2026-05-01T07:57:11.263Z</time></trkpt><trkpt lat="43.8896362" lon="11.9554448"><ele>793.0</ele><time>2026-05-01T07:57:12.266Z</time></trkpt><trkpt lat="43.8898589" lon="11.9554058"><ele>793.0</ele><time>2026-05-01T07:57:13.27Z</time></trkpt><trkpt lat="43.8900469" lon="11.9553661"><ele>793.0</ele><time>2026-05-01T07:57:14.253Z</time></trkpt><trkpt lat="43.8902787" lon="11.9553572"><ele>793.0</ele><time>2026-05-01T07:57:15.263Z</time></trkpt><trkpt lat="43.890452" lon="11.9552972"><ele>792.3333333333333</ele><time>2026-05-01T07:57:16.269Z</time></trkpt><trkpt lat="43.8906332" lon="11.9552303"><ele>791.6666666666667</ele><time>2026-05-01T07:57:17.254Z</time></trkpt><trkpt lat="43.8908437" lon="11.9552109"><ele>791.0</ele><time>2026-05-01T07:57:18.262Z</time></trkpt><trkpt lat="43.8910406" lon="11.9551932"><ele>788.3333333333334</ele><time>2026-05-01T07:57:19.27Z</time></trkpt><trkpt lat="43.8912469" lon="11.9551581"><ele>785.6666666666667</ele><time>2026-05-01T07:57:20.261Z</time></trkpt><trkpt lat="43.8914588" lon="11.955158"><ele>783.0</ele><time>2026-05-01T07:57:21.26Z</time></trkpt><trkpt lat="43.8916533" lon="11.9551601"><ele>782.3333333333333</ele><time>2026-05-01T07:57:22.26Z</time></trkpt><trkpt lat="43.8918432" lon="11.9551781"><ele>781.6666666666666</ele><time>2026-05-01T07:57:23.263Z</time></trkpt><trkpt lat="43.8920055" lon="11.9552308"><ele>781.0</ele><time>2026-05-01T07:57:24.262Z</time></trkpt><trkpt lat="43.8921615" lon="11.9552594"><ele>781.0</ele><time>2026-05-01T07:57:25.269Z</time></trkpt><trkpt lat="43.8922877" lon="11.9553087"><ele>781.0</ele><time>2026-05-01T07:57:26.256Z</time></trkpt><trkpt lat="43.8923895" lon="11.9553873"><ele>781.0</ele><time>2026-05-01T07:57:27.258Z</time></trkpt><trkpt lat="43.8924939" lon="11.9554543"><ele>781.0</ele><time>2026-05-01T07:57:28.26Z</time></trkpt><trkpt lat="43.8926004" lon="11.955485"><ele>782.75</ele><time>2026-05-01T07:57:29.258Z</time></trkpt><trkpt lat="43.8926632" lon="11.9553487"><ele>784.5</ele><time>2026-05-01T07:57:30.27Z</time></trkpt><trkpt lat="43.8927616" lon="11.9552522"><ele>786.25</ele><time>2026-05-01T07:57:31.262Z</time></trkpt><trkpt lat="43.8928226" lon="11.9551283"><ele>788.0</ele><time>2026-05-01T07:57:32.258Z</time></trkpt><trkpt lat="43.8928848" lon="11.9549645"><ele>784.2</ele><time>2026-05-01T07:57:33.259Z</time></trkpt><trkpt lat="43.8929534" lon="11.9548153"><ele>780.4</ele><time>2026-05-01T07:57:34.258Z</time></trkpt><trkpt lat="43.8930325" lon="11.9547159"><ele>776.6</ele><time>2026-05-01T07:57:35.267Z</time></trkpt><trkpt lat="43.8931256" lon="11.9546239"><ele>772.8000000000001</ele><time>2026-05-01T07:57:36.258Z</time></trkpt><trkpt lat="43.8932176" lon="11.954573"><ele>769.0</ele><time>2026-05-01T07:57:37.261Z</time></trkpt><trkpt lat="43.8933246" lon="11.9545656"><ele>764.3333333333333</ele><time>2026-05-01T07:57:38.268Z</time></trkpt><trkpt lat="43.8934514" lon="11.9546024"><ele>759.6666666666666</ele><time>2026-05-01T07:57:39.268Z</time></trkpt><trkpt lat="43.8936579" lon="11.9547423"><ele>755.0</ele><time>2026-05-01T07:57:40.26Z</time></trkpt><trkpt lat="43.8937989" lon="11.9548615"><ele>755.0</ele><time>2026-05-01T07:57:41.261Z</time></trkpt><trkpt lat="43.8939397" lon="11.954973"><ele>755.0</ele><time>2026-05-01T07:57:42.26Z</time></trkpt><trkpt lat="43.8940781" lon="11.955101"><ele>755.0</ele><time>2026-05-01T07:57:43.268Z</time></trkpt><trkpt lat="43.8942031" lon="11.9552221"><ele>753.75</ele><time>2026-05-01T07:57:44.255Z</time></trkpt><trkpt lat="43.894337" lon="11.9553674"><ele>752.5</ele><time>2026-05-01T07:57:45.263Z</time></trkpt><trkpt lat="43.8944527" lon="11.9555192"><ele>751.25</ele><time>2026-05-01T07:57:46.268Z</time></trkpt><trkpt lat="43.8945161" lon="11.9556103"><ele>750.0</ele><time>2026-05-01T07:57:47.261Z</time></trkpt><trkpt lat="43.8946212" lon="11.9557253"><ele>750.0</ele><time>2026-05-01T07:57:48.259Z</time></trkpt><trkpt lat="43.8947105" lon="11.9558673"><ele>750.0</ele><time>2026-05-01T07:57:49.269Z</time></trkpt><trkpt lat="43.8947841" lon="11.9559958"><ele>750.0</ele><time>2026-05-01T07:57:50.262Z</time></trkpt><trkpt lat="43.894855" lon="11.9561278"><ele>750.0</ele><time>2026-05-01T07:57:51.266Z</time></trkpt><trkpt lat="43.8949463" lon="11.9562744"><ele>752.8</ele><time>2026-05-01T07:57:52.26Z</time></trkpt><trkpt lat="43.8950066" lon="11.9564101"><ele>755.6</ele><time>2026-05-01T07:57:53.269Z</time></trkpt><trkpt lat="43.8950842" lon="11.9565166"><ele>758.4000000000001</ele><time>2026-05-01T07:57:54.266Z</time></trkpt><trkpt lat="43.8951293" lon="11.9565783"><ele>761.2</ele><time>2026-05-01T07:57:55.256Z</time></trkpt><trkpt lat="43.8951912" lon="11.95663"><ele>764.0</ele><time>2026-05-01T07:57:56.27Z</time></trkpt><trkpt lat="43.8953154" lon="11.9565836"><ele>764.0</ele><time>2026-05-01T07:57:58.265Z</time></trkpt><trkpt lat="43.8954007" lon="11.9565639"><ele>764.0</ele><time>2026-05-01T07:57:59.269Z</time></trkpt><trkpt lat="43.8954909" lon="11.9565613"><ele>764.0</ele><time>2026-05-01T07:58:01.27Z</time></trkpt><trkpt lat="43.8955866" lon="11.9565408"><ele>764.0</ele><time>2026-05-01T07:58:04.262Z</time></trkpt><trkpt lat="43.8956454" lon="11.9564785"><ele>764.0</ele><time>2026-05-01T07:58:08.258Z</time></trkpt><trkpt lat="43.8958353" lon="11.956389"><ele>764.25</ele><time>2026-05-01T08:00:34.261Z</time></trkpt><trkpt lat="43.8960089" lon="11.9563667"><ele>764.5</ele><time>2026-05-01T08:00:36.268Z</time></trkpt><trkpt lat="43.8961399" lon="11.9563402"><ele>764.75</ele><time>2026-05-01T08:00:37.27Z</time></trkpt><trkpt lat="43.8962723" lon="11.9563281"><ele>765.0</ele><time>2026-05-01T08:00:38.269Z</time></trkpt><trkpt lat="43.896426" lon="11.9562993"><ele>765.0</ele><time>2026-05-01T08:00:39.258Z</time></trkpt><trkpt lat="43.8965698" lon="11.9562856"><ele>765.0</ele><time>2026-05-01T08:00:40.263Z</time></trkpt><trkpt lat="43.89669" lon="11.9562522"><ele>765.0</ele><time>2026-05-01T08:00:41.269Z</time></trkpt><trkpt lat="43.8967851" lon="11.9562495"><ele>765.0</ele><time>2026-05-01T08:00:42.269Z</time></trkpt><trkpt lat="43.8968936" lon="11.9562479"><ele>762.25</ele><time>2026-05-01T08:00:43.258Z</time></trkpt><trkpt lat="43.8969822" lon="11.9562545"><ele>759.5</ele><time>2026-05-01T08:00:44.266Z</time></trkpt><trkpt lat="43.897102" lon="11.9563315"><ele>756.75</ele><time>2026-05-01T08:00:45.269Z</time></trkpt><trkpt lat="43.8972284" lon="11.9564165"><ele>754.0</ele><time>2026-05-01T08:00:46.269Z</time></trkpt><trkpt lat="43.8973143" lon="11.956515"><ele>754.0</ele><time>2026-05-01T08:00:47.259Z</time></trkpt><trkpt lat="43.8974543" lon="11.956642"><ele>754.0</ele><time>2026-05-01T08:00:48.261Z</time></trkpt><trkpt lat="43.8975524" lon="11.9567908"><ele>754.0</ele><time>2026-05-01T08:00:49.268Z</time></trkpt><trkpt lat="43.8976439" lon="11.9569107"><ele>754.0</ele><time>2026-05-01T08:00:50.26Z</time></trkpt><trkpt lat="43.897725" lon="11.9569673"><ele>755.8000000000001</ele><time>2026-05-01T08:00:51.271Z</time></trkpt><trkpt lat="43.8978172" lon="11.9569749"><ele>757.6</ele><time>2026-05-01T08:00:52.27Z</time></trkpt><trkpt lat="43.8979183" lon="11.9569797"><ele>759.4</ele><time>2026-05-01T08:00:53.27Z</time></trkpt><trkpt lat="43.8980163" lon="11.9569481"><ele>761.2</ele><time>2026-05-01T08:00:54.269Z</time></trkpt><trkpt lat="43.8981438" lon="11.9569502"><ele>763.0</ele><time>2026-05-01T08:00:55.285Z</time></trkpt><trkpt lat="43.8981546" lon="11.9568402"><ele>763.0</ele><time>2026-05-01T08:00:56.265Z</time></trkpt><trkpt lat="43.8981596" lon="11.956726"><ele>763.0</ele><time>2026-05-01T08:00:57.272Z</time></trkpt><trkpt lat="43.8982252" lon="11.9566137"><ele>763.0</ele><time>2026-05-01T08:00:58.262Z</time></trkpt><trkpt lat="43.8982938" lon="11.9565815"><ele>763.0</ele><time>2026-05-01T08:00:59.27Z</time></trkpt><trkpt lat="43.8983908" lon="11.9565372"><ele>763.0</ele><time>2026-05-01T08:01:00.27Z</time></trkpt><trkpt lat="43.8985084" lon="11.9565366"><ele>761.5</ele><time>2026-05-01T08:01:01.272Z</time></trkpt><trkpt lat="43.8986238" lon="11.9565994"><ele>760.0</ele><time>2026-05-01T08:01:02.27Z</time></trkpt><trkpt lat="43.8987572" lon="11.9566956"><ele>758.5</ele><time>2026-05-01T08:01:03.27Z</time></trkpt><trkpt lat="43.8988526" lon="11.9567404"><ele>757.0</ele><time>2026-05-01T08:01:04.271Z</time></trkpt><trkpt lat="43.8989779" lon="11.9568119"><ele>757.0</ele><time>2026-05-01T08:01:05.271Z</time></trkpt><trkpt lat="43.8991587" lon="11.9568243"><ele>757.0</ele><time>2026-05-01T08:01:06.264Z</time></trkpt><trkpt lat="43.8993135" lon="11.9568022"><ele>757.0</ele><time>2026-05-01T08:01:07.271Z</time></trkpt><trkpt lat="43.8994517" lon="11.9567852"><ele>753.3333333333334</ele><time>2026-05-01T08:01:08.27Z</time></trkpt><trkpt lat="43.8996228" lon="11.9567317"><ele>749.6666666666666</ele><time>2026-05-01T08:01:09.263Z</time></trkpt><trkpt lat="43.8997849" lon="11.9565894"><ele>746.0</ele><time>2026-05-01T08:01:10.259Z</time></trkpt><trkpt lat="43.8999514" lon="11.9565589"><ele>744.0</ele><time>2026-05-01T08:01:11.262Z</time></trkpt><trkpt lat="43.9000748" lon="11.9564001"><ele>742.0</ele><time>2026-05-01T08:01:12.262Z</time></trkpt><trkpt lat="43.9001995" lon="11.9563713"><ele>740.0</ele><time>2026-05-01T08:01:13.267Z</time></trkpt><trkpt lat="43.9003818" lon="11.9563606"><ele>732.6666666666666</ele><time>2026-05-01T08:01:14.27Z</time></trkpt><trkpt lat="43.9005866" lon="11.9563832"><ele>725.3333333333334</ele><time>2026-05-01T08:01:15.26Z</time></trkpt><trkpt lat="43.9008136" lon="11.9564297"><ele>718.0</ele><time>2026-05-01T08:01:16.256Z</time></trkpt><trkpt lat="43.9006802" lon="11.9565277"><ele>722.3333333333334</ele><time>2026-05-01T08:01:17.259Z</time></trkpt><trkpt lat="43.9007869" lon="11.9567155"><ele>726.6666666666666</ele><time>2026-05-01T08:01:18.261Z</time></trkpt><trkpt lat="43.9008531" lon="11.9568888"><ele>731.0</ele><time>2026-05-01T08:01:19.257Z</time></trkpt><trkpt lat="43.9009051" lon="11.957094"><ele>730.25</ele><time>2026-05-01T08:01:20.26Z</time></trkpt><trkpt lat="43.900958" lon="11.9572589"><ele>729.5</ele><time>2026-05-01T08:01:21.269Z</time></trkpt><trkpt lat="43.9010211" lon="11.9574266"><ele>728.75</ele><time>2026-05-01T08:01:22.258Z</time></trkpt><trkpt lat="43.9011059" lon="11.9575153"><ele>728.0</ele><time>2026-05-01T08:01:23.269Z</time></trkpt><trkpt lat="43.9012754" lon="11.9575187"><ele>728.0</ele><time>2026-05-01T08:01:25.268Z</time></trkpt><trkpt lat="43.9013463" lon="11.957492"><ele>728.0</ele><time>2026-05-01T08:01:26.26Z</time></trkpt><trkpt lat="43.9013958" lon="11.9574273"><ele>728.0</ele><time>2026-05-01T08:01:27.269Z</time></trkpt><trkpt lat="43.9014381" lon="11.9572835"><ele>728.0</ele><time>2026-05-01T08:01:28.269Z</time></trkpt><trkpt lat="43.9014535" lon="11.957163"><ele>728.0</ele><time>2026-05-01T08:01:29.257Z</time></trkpt><trkpt lat="43.9014604" lon="11.9569615"><ele>728.0</ele><time>2026-05-01T08:01:30.26Z</time></trkpt><trkpt lat="43.9014571" lon="11.9567708"><ele>728.0</ele><time>2026-05-01T08:01:31.266Z</time></trkpt><trkpt lat="43.9014608" lon="11.9566052"><ele>728.0</ele><time>2026-05-01T08:01:32.268Z</time></trkpt><trkpt lat="43.9014693" lon="11.9564611"><ele>728.0</ele><time>2026-05-01T08:01:33.26Z</time></trkpt><trkpt lat="43.9014928" lon="11.9563187"><ele>723.8</ele><time>2026-05-01T08:01:34.261Z</time></trkpt><trkpt lat="43.9015361" lon="11.9562376"><ele>719.5999999999999</ele><time>2026-05-01T08:01:35.267Z</time></trkpt><trkpt lat="43.9016251" lon="11.9561877"><ele>715.4000000000001</ele><time>2026-05-01T08:01:37.258Z</time></trkpt><trkpt lat="43.9017116" lon="11.9561788"><ele>711.2</ele><time>2026-05-01T08:01:38.26Z</time></trkpt><trkpt lat="43.9017834" lon="11.9562957"><ele>707.0</ele><time>2026-05-01T08:01:39.272Z</time></trkpt><trkpt lat="43.901858" lon="11.9563887"><ele>704.75</ele><time>2026-05-01T08:01:40.267Z</time></trkpt><trkpt lat="43.9019523" lon="11.956517"><ele>702.5</ele><time>2026-05-01T08:01:41.268Z</time></trkpt><trkpt lat="43.9020329" lon="11.9565772"><ele>700.25</ele><time>2026-05-01T08:01:42.268Z</time></trkpt><trkpt lat="43.902145" lon="11.9566187"><ele>698.0</ele><time>2026-05-01T08:01:43.261Z</time></trkpt><trkpt lat="43.9022589" lon="11.9566087"><ele>698.0</ele><time>2026-05-01T08:01:44.272Z</time></trkpt><trkpt lat="43.9023671" lon="11.9565934"><ele>698.0</ele><time>2026-05-01T08:01:45.27Z</time></trkpt><trkpt lat="43.9024703" lon="11.9565967"><ele>698.0</ele><time>2026-05-01T08:01:46.268Z</time></trkpt><trkpt lat="43.902635" lon="11.9565564"><ele>698.0</ele><time>2026-05-01T08:01:47.269Z</time></trkpt><trkpt lat="43.9027953" lon="11.9564992"><ele>696.0</ele><time>2026-05-01T08:01:48.271Z</time></trkpt><trkpt lat="43.9029635" lon="11.956458"><ele>694.0</ele><time>2026-05-01T08:01:49.267Z</time></trkpt><trkpt lat="43.9031474" lon="11.9564207"><ele>692.0</ele><time>2026-05-01T08:01:50.261Z</time></trkpt><trkpt lat="43.9033113" lon="11.9563923"><ele>690.0</ele><time>2026-05-01T08:01:51.254Z</time></trkpt><trkpt lat="43.9034704" lon="11.9563949"><ele>688.0</ele><time>2026-05-01T08:01:52.26Z</time></trkpt><trkpt lat="43.9036217" lon="11.9563865"><ele>686.0</ele><time>2026-05-01T08:01:53.261Z</time></trkpt><trkpt lat="43.9037444" lon="11.9564391"><ele>684.0</ele><time>2026-05-01T08:01:54.26Z</time></trkpt><trkpt lat="43.9038665" lon="11.9564759"><ele>684.0</ele><time>2026-05-01T08:01:55.258Z</time></trkpt><trkpt lat="43.903984" lon="11.9565054"><ele>684.0</ele><time>2026-05-01T08:01:56.257Z</time></trkpt><trkpt lat="43.9040822" lon="11.9565104"><ele>684.0</ele><time>2026-05-01T08:01:57.268Z</time></trkpt><trkpt lat="43.9041723" lon="11.9564491"><ele>684.0</ele><time>2026-05-01T08:01:58.255Z</time></trkpt><trkpt lat="43.9042796" lon="11.9563644"><ele>684.0</ele><time>2026-05-01T08:01:59.261Z</time></trkpt><trkpt lat="43.904324" lon="11.9562939"><ele>684.25</ele><time>2026-05-01T08:02:00.267Z</time></trkpt><trkpt lat="43.9043487" lon="11.9561381"><ele>684.5</ele><time>2026-05-01T08:02:01.26Z</time></trkpt><trkpt lat="43.9043828" lon="11.9559574"><ele>684.75</ele><time>2026-05-01T08:02:02.268Z</time></trkpt><trkpt lat="43.9043955" lon="11.9557604"><ele>685.0</ele><time>2026-05-01T08:02:03.261Z</time></trkpt><trkpt lat="43.9043874" lon="11.9555293"><ele>683.3333333333334</ele><time>2026-05-01T08:02:04.266Z</time></trkpt><trkpt lat="43.9043792" lon="11.9552971"><ele>681.6666666666666</ele><time>2026-05-01T08:02:05.258Z</time></trkpt><trkpt lat="43.9043941" lon="11.9551005"><ele>680.0</ele><time>2026-05-01T08:02:06.262Z</time></trkpt><trkpt lat="43.9044242" lon="11.9549095"><ele>678.25</ele><time>2026-05-01T08:02:07.256Z</time></trkpt><trkpt lat="43.9044573" lon="11.9547187"><ele>676.5</ele><time>2026-05-01T08:02:08.258Z</time></trkpt><trkpt lat="43.9044955" lon="11.9545531"><ele>674.75</ele><time>2026-05-01T08:02:09.258Z</time></trkpt><trkpt lat="43.9045567" lon="11.9543915"><ele>673.0</ele><time>2026-05-01T08:02:10.256Z</time></trkpt><trkpt lat="43.9046441" lon="11.9541997"><ele>671.3333333333334</ele><time>2026-05-01T08:02:11.256Z</time></trkpt><trkpt lat="43.9047318" lon="11.9540066"><ele>669.6666666666666</ele><time>2026-05-01T08:02:12.258Z</time></trkpt><trkpt lat="43.9048331" lon="11.9538066"><ele>668.0</ele><time>2026-05-01T08:02:13.255Z</time></trkpt><trkpt lat="43.9048739" lon="11.9536054"><ele>668.0</ele><time>2026-05-01T08:02:14.261Z</time></trkpt><trkpt lat="43.9049076" lon="11.9534111"><ele>668.0</ele><time>2026-05-01T08:02:15.254Z</time></trkpt><trkpt lat="43.9049291" lon="11.9531932"><ele>668.0</ele><time>2026-05-01T08:02:16.265Z</time></trkpt><trkpt lat="43.9049537" lon="11.9529601"><ele>668.6666666666666</ele><time>2026-05-01T08:02:17.268Z</time></trkpt><trkpt lat="43.9049802" lon="11.9527182"><ele>669.3333333333334</ele><time>2026-05-01T08:02:18.253Z</time></trkpt><trkpt lat="43.9049962" lon="11.9524885"><ele>670.0</ele><time>2026-05-01T08:02:19.259Z</time></trkpt><trkpt lat="43.9050179" lon="11.9522508"><ele>670.5</ele><time>2026-05-01T08:02:20.258Z</time></trkpt><trkpt lat="43.9050473" lon="11.9520042"><ele>671.0</ele><time>2026-05-01T08:02:21.254Z</time></trkpt><trkpt lat="43.9050895" lon="11.9515768"><ele>677.3333333333333</ele><time>2026-05-01T08:02:22.254Z</time></trkpt><trkpt lat="43.9051109" lon="11.9512984"><ele>683.6666666666666</ele><time>2026-05-01T08:02:23.261Z</time></trkpt><trkpt lat="43.905152" lon="11.9510202"><ele>690.0</ele><time>2026-05-01T08:02:24.259Z</time></trkpt><trkpt lat="43.9051755" lon="11.9508992"><ele>687.75</ele><time>2026-05-01T08:02:25.255Z</time></trkpt><trkpt lat="43.9052055" lon="11.9507335"><ele>685.5</ele><time>2026-05-01T08:02:26.258Z</time></trkpt><trkpt lat="43.9052748" lon="11.9505651"><ele>683.25</ele><time>2026-05-01T08:02:27.254Z</time></trkpt><trkpt lat="43.9053714" lon="11.9503637"><ele>681.0</ele><time>2026-05-01T08:02:28.267Z</time></trkpt><trkpt lat="43.9054892" lon="11.9502271"><ele>679.3333333333334</ele><time>2026-05-01T08:02:29.26Z</time></trkpt><trkpt lat="43.9056685" lon="11.9500333"><ele>677.6666666666667</ele><time>2026-05-01T08:02:30.255Z</time></trkpt><trkpt lat="43.905842" lon="11.9498425"><ele>676.0</ele><time>2026-05-01T08:02:31.269Z</time></trkpt><trkpt lat="43.9059819" lon="11.9496794"><ele>680.3333333333334</ele><time>2026-05-01T08:02:32.268Z</time></trkpt><trkpt lat="43.9060926" lon="11.949552"><ele>684.6666666666666</ele><time>2026-05-01T08:02:33.254Z</time></trkpt><trkpt lat="43.906167" lon="11.9493606"><ele>689.0</ele><time>2026-05-01T08:02:34.257Z</time></trkpt><trkpt lat="43.9062377" lon="11.9491555"><ele>689.0</ele><time>2026-05-01T08:02:35.263Z</time></trkpt><trkpt lat="43.9062992" lon="11.9489198"><ele>689.0</ele><time>2026-05-01T08:02:36.267Z</time></trkpt><trkpt lat="43.9063729" lon="11.9486796"><ele>689.0</ele><time>2026-05-01T08:02:37.256Z</time></trkpt><trkpt lat="43.9064703" lon="11.9484352"><ele>686.5</ele><time>2026-05-01T08:02:38.261Z</time></trkpt><trkpt lat="43.9065541" lon="11.9481455"><ele>684.0</ele><time>2026-05-01T08:02:39.255Z</time></trkpt><trkpt lat="43.9066525" lon="11.9478641"><ele>684.0</ele><time>2026-05-01T08:02:40.256Z</time></trkpt><trkpt lat="43.9067284" lon="11.9476032"><ele>684.0</ele><time>2026-05-01T08:02:41.258Z</time></trkpt><trkpt lat="43.9067901" lon="11.9473909"><ele>684.0</ele><time>2026-05-01T08:02:42.268Z</time></trkpt><trkpt lat="43.9068734" lon="11.9471635"><ele>687.0</ele><time>2026-05-01T08:02:43.27Z</time></trkpt><trkpt lat="43.9069802" lon="11.9468881"><ele>690.0</ele><time>2026-05-01T08:02:44.252Z</time></trkpt><trkpt lat="43.9070649" lon="11.9466478"><ele>693.0</ele><time>2026-05-01T08:02:45.257Z</time></trkpt><trkpt lat="43.9071177" lon="11.9464353"><ele>693.0</ele><time>2026-05-01T08:02:46.261Z</time></trkpt><trkpt lat="43.9071642" lon="11.9461772"><ele>693.0</ele><time>2026-05-01T08:02:47.257Z</time></trkpt><trkpt lat="43.9072199" lon="11.9459652"><ele>693.0</ele><time>2026-05-01T08:02:48.262Z</time></trkpt><trkpt lat="43.9072893" lon="11.9457479"><ele>693.25</ele><time>2026-05-01T08:02:49.258Z</time></trkpt><trkpt lat="43.907368" lon="11.945584"><ele>693.5</ele><time>2026-05-01T08:02:50.266Z</time></trkpt><trkpt lat="43.9074465" lon="11.9454281"><ele>693.75</ele><time>2026-05-01T08:02:51.268Z</time></trkpt><trkpt lat="43.9075809" lon="11.9453245"><ele>694.0</ele><time>2026-05-01T08:02:52.271Z</time></trkpt><trkpt lat="43.907701" lon="11.9451944"><ele>694.0</ele><time>2026-05-01T08:02:53.267Z</time></trkpt><trkpt lat="43.9078468" lon="11.945127"><ele>694.0</ele><time>2026-05-01T08:02:54.258Z</time></trkpt><trkpt lat="43.9079603" lon="11.9450501"><ele>694.0</ele><time>2026-05-01T08:02:55.26Z</time></trkpt><trkpt lat="43.9081274" lon="11.9450206"><ele>694.0</ele><time>2026-05-01T08:02:56.27Z</time></trkpt><trkpt lat="43.9082932" lon="11.9449921"><ele>688.75</ele><time>2026-05-01T08:02:57.26Z</time></trkpt><trkpt lat="43.9084314" lon="11.9449696"><ele>683.5</ele><time>2026-05-01T08:02:58.266Z</time></trkpt><trkpt lat="43.9084971" lon="11.9449559"><ele>678.25</ele><time>2026-05-01T08:02:59.262Z</time></trkpt><trkpt lat="43.9086985" lon="11.9449642"><ele>673.0</ele><time>2026-05-01T08:03:01.254Z</time></trkpt><trkpt lat="43.908786" lon="11.9449271"><ele>673.0</ele><time>2026-05-01T08:03:02.26Z</time></trkpt><trkpt lat="43.9089218" lon="11.9448751"><ele>673.0</ele><time>2026-05-01T08:03:03.253Z</time></trkpt><trkpt lat="43.9090283" lon="11.9448412"><ele>673.0</ele><time>2026-05-01T08:03:04.268Z</time></trkpt><trkpt lat="43.9091787" lon="11.9447535"><ele>673.0</ele><time>2026-05-01T08:03:05.257Z</time></trkpt><trkpt lat="43.9093915" lon="11.9446439"><ele>674.3333333333334</ele><time>2026-05-01T08:03:06.258Z</time></trkpt><trkpt lat="43.9095255" lon="11.944568"><ele>675.6666666666666</ele><time>2026-05-01T08:03:07.259Z</time></trkpt><trkpt lat="43.9097678" lon="11.9444385"><ele>677.0</ele><time>2026-05-01T08:03:08.258Z</time></trkpt><trkpt lat="43.9099658" lon="11.9443171"><ele>670.0</ele><time>2026-05-01T08:03:09.261Z</time></trkpt><trkpt lat="43.9102123" lon="11.9441594"><ele>663.0</ele><time>2026-05-01T08:03:10.257Z</time></trkpt><trkpt lat="43.9104171" lon="11.944008"><ele>663.0</ele><time>2026-05-01T08:03:11.258Z</time></trkpt><trkpt lat="43.9106396" lon="11.9438767"><ele>663.0</ele><time>2026-05-01T08:03:12.261Z</time></trkpt><trkpt lat="43.9108863" lon="11.9437247"><ele>667.0</ele><time>2026-05-01T08:03:13.265Z</time></trkpt><trkpt lat="43.9111255" lon="11.9435812"><ele>671.0</ele><time>2026-05-01T08:03:14.268Z</time></trkpt><trkpt lat="43.9113779" lon="11.9434231"><ele>670.6666666666666</ele><time>2026-05-01T08:03:15.253Z</time></trkpt><trkpt lat="43.9115728" lon="11.9433101"><ele>670.3333333333334</ele><time>2026-05-01T08:03:16.258Z</time></trkpt><trkpt lat="43.9117088" lon="11.9431696"><ele>670.0</ele><time>2026-05-01T08:03:17.255Z</time></trkpt><trkpt lat="43.9118553" lon="11.9430457"><ele>670.0</ele><time>2026-05-01T08:03:18.255Z</time></trkpt><trkpt lat="43.9119918" lon="11.9428379"><ele>670.0</ele><time>2026-05-01T08:03:19.277Z</time></trkpt><trkpt lat="43.9120948" lon="11.9426162"><ele>670.0</ele><time>2026-05-01T08:03:20.257Z</time></trkpt><trkpt lat="43.9121637" lon="11.9423626"><ele>667.3333333333334</ele><time>2026-05-01T08:03:21.255Z</time></trkpt><trkpt lat="43.9122449" lon="11.9420669"><ele>664.6666666666666</ele><time>2026-05-01T08:03:22.266Z</time></trkpt><trkpt lat="43.912296" lon="11.9418168"><ele>662.0</ele><time>2026-05-01T08:03:23.258Z</time></trkpt><trkpt lat="43.9123577" lon="11.9415539"><ele>659.3333333333333</ele><time>2026-05-01T08:03:24.266Z</time></trkpt><trkpt lat="43.9124662" lon="11.941342"><ele>656.6666666666666</ele><time>2026-05-01T08:03:25.254Z</time></trkpt><trkpt lat="43.9125842" lon="11.9411643"><ele>654.0</ele><time>2026-05-01T08:03:26.255Z</time></trkpt><trkpt lat="43.9127315" lon="11.9410694"><ele>654.0</ele><time>2026-05-01T08:03:27.261Z</time></trkpt><trkpt lat="43.9129072" lon="11.9409838"><ele>654.0</ele><time>2026-05-01T08:03:28.258Z</time></trkpt><trkpt lat="43.9130685" lon="11.9409173"><ele>654.0</ele><time>2026-05-01T08:03:29.258Z</time></trkpt><trkpt lat="43.9132413" lon="11.9408744"><ele>651.3333333333334</ele><time>2026-05-01T08:03:30.258Z</time></trkpt><trkpt lat="43.9134224" lon="11.9407881"><ele>648.6666666666667</ele><time>2026-05-01T08:03:31.254Z</time></trkpt><trkpt lat="43.913601" lon="11.9406904"><ele>646.0</ele><time>2026-05-01T08:03:32.26Z</time></trkpt><trkpt lat="43.9137295" lon="11.940603"><ele>646.0</ele><time>2026-05-01T08:03:33.266Z</time></trkpt><trkpt lat="43.9138496" lon="11.940509"><ele>646.0</ele><time>2026-05-01T08:03:34.266Z</time></trkpt><trkpt lat="43.913968" lon="11.9403887"><ele>646.0</ele><time>2026-05-01T08:03:35.268Z</time></trkpt><trkpt lat="43.9140879" lon="11.9402305"><ele>646.0</ele><time>2026-05-01T08:03:36.255Z</time></trkpt><trkpt lat="43.9142112" lon="11.9400556"><ele>646.0</ele><time>2026-05-01T08:03:37.259Z</time></trkpt><trkpt lat="43.9143086" lon="11.9398774"><ele>646.0</ele><time>2026-05-01T08:03:38.255Z</time></trkpt><trkpt lat="43.9144134" lon="11.9396881"><ele>645.6666666666667</ele><time>2026-05-01T08:03:39.269Z</time></trkpt><trkpt lat="43.9145038" lon="11.9395099"><ele>645.3333333333334</ele><time>2026-05-01T08:03:40.267Z</time></trkpt><trkpt lat="43.9146093" lon="11.9393364"><ele>645.0</ele><time>2026-05-01T08:03:41.26Z</time></trkpt><trkpt lat="43.9147245" lon="11.9391815"><ele>643.0</ele><time>2026-05-01T08:03:42.252Z</time></trkpt><trkpt lat="43.9148404" lon="11.9390685"><ele>641.0</ele><time>2026-05-01T08:03:43.256Z</time></trkpt><trkpt lat="43.9149793" lon="11.9389614"><ele>639.0</ele><time>2026-05-01T08:03:44.255Z</time></trkpt><trkpt lat="43.9151086" lon="11.9388785"><ele>637.0</ele><time>2026-05-01T08:03:45.261Z</time></trkpt><trkpt lat="43.9152308" lon="11.9388032"><ele>637.0</ele><time>2026-05-01T08:03:46.263Z</time></trkpt><trkpt lat="43.9153693" lon="11.9387272"><ele>637.0</ele><time>2026-05-01T08:03:47.267Z</time></trkpt><trkpt lat="43.9155023" lon="11.9386792"><ele>637.0</ele><time>2026-05-01T08:03:48.26Z</time></trkpt><trkpt lat="43.9156243" lon="11.9386061"><ele>637.0</ele><time>2026-05-01T08:03:49.261Z</time></trkpt><trkpt lat="43.9157093" lon="11.9385208"><ele>637.0</ele><time>2026-05-01T08:03:50.267Z</time></trkpt><trkpt lat="43.9157908" lon="11.9384313"><ele>637.0</ele><time>2026-05-01T08:03:51.268Z</time></trkpt><trkpt lat="43.9158552" lon="11.9383098"><ele>637.0</ele><time>2026-05-01T08:03:52.265Z</time></trkpt><trkpt lat="43.9158847" lon="11.9381748"><ele>637.0</ele><time>2026-05-01T08:03:53.257Z</time></trkpt><trkpt lat="43.9158934" lon="11.9380326"><ele>637.0</ele><time>2026-05-01T08:03:54.267Z</time></trkpt><trkpt lat="43.9158782" lon="11.9378782"><ele>634.5</ele><time>2026-05-01T08:03:55.261Z</time></trkpt><trkpt lat="43.9158329" lon="11.937719"><ele>632.0</ele><time>2026-05-01T08:03:56.267Z</time></trkpt><trkpt lat="43.9157457" lon="11.9375838"><ele>629.5</ele><time>2026-05-01T08:03:57.268Z</time></trkpt><trkpt lat="43.9156421" lon="11.9374224"><ele>627.0</ele><time>2026-05-01T08:03:58.262Z</time></trkpt><trkpt lat="43.9155124" lon="11.9372526"><ele>625.3333333333334</ele><time>2026-05-01T08:03:59.264Z</time></trkpt><trkpt lat="43.9153711" lon="11.9370781"><ele>623.6666666666667</ele><time>2026-05-01T08:04:00.256Z</time></trkpt><trkpt lat="43.9152515" lon="11.9369113"><ele>622.0</ele><time>2026-05-01T08:04:01.259Z</time></trkpt><trkpt lat="43.9151144" lon="11.936725"><ele>619.3333333333334</ele><time>2026-05-01T08:04:02.268Z</time></trkpt><trkpt lat="43.9149998" lon="11.9365483"><ele>616.6666666666666</ele><time>2026-05-01T08:04:03.26Z</time></trkpt><trkpt lat="43.9149027" lon="11.9363678"><ele>614.0</ele><time>2026-05-01T08:04:04.263Z</time></trkpt><trkpt lat="43.914822" lon="11.9361684"><ele>614.0</ele><time>2026-05-01T08:04:05.26Z</time></trkpt><trkpt lat="43.9147783" lon="11.9359539"><ele>614.0</ele><time>2026-05-01T08:04:06.255Z</time></trkpt><trkpt lat="43.9147545" lon="11.9357135"><ele>614.0</ele><time>2026-05-01T08:04:07.257Z</time></trkpt><trkpt lat="43.9147451" lon="11.9355077"><ele>613.0</ele><time>2026-05-01T08:04:08.257Z</time></trkpt><trkpt lat="43.9147694" lon="11.9353002"><ele>612.0</ele><time>2026-05-01T08:04:09.256Z</time></trkpt><trkpt lat="43.914805" lon="11.9350978"><ele>611.0</ele><time>2026-05-01T08:04:10.257Z</time></trkpt><trkpt lat="43.9148474" lon="11.9349088"><ele>610.0</ele><time>2026-05-01T08:04:11.254Z</time></trkpt><trkpt lat="43.9149201" lon="11.9347117"><ele>607.3333333333334</ele><time>2026-05-01T08:04:12.254Z</time></trkpt><trkpt lat="43.9149888" lon="11.9345004"><ele>604.6666666666666</ele><time>2026-05-01T08:04:13.266Z</time></trkpt><trkpt lat="43.9150623" lon="11.9342977"><ele>602.0</ele><time>2026-05-01T08:04:14.259Z</time></trkpt><trkpt lat="43.9151154" lon="11.9341053"><ele>600.0</ele><time>2026-05-01T08:04:15.253Z</time></trkpt><trkpt lat="43.9151698" lon="11.933924"><ele>598.0</ele><time>2026-05-01T08:04:16.267Z</time></trkpt><trkpt lat="43.9152162" lon="11.9337212"><ele>596.0</ele><time>2026-05-01T08:04:17.266Z</time></trkpt><trkpt lat="43.9152583" lon="11.9335361"><ele>594.0</ele><time>2026-05-01T08:04:18.254Z</time></trkpt><trkpt lat="43.9152812" lon="11.9333544"><ele>593.5</ele><time>2026-05-01T08:04:19.262Z</time></trkpt><trkpt lat="43.9152918" lon="11.9331719"><ele>593.0</ele><time>2026-05-01T08:04:20.26Z</time></trkpt><trkpt lat="43.9153181" lon="11.932991"><ele>592.5</ele><time>2026-05-01T08:04:21.26Z</time></trkpt><trkpt lat="43.9153136" lon="11.9328034"><ele>592.0</ele><time>2026-05-01T08:04:22.254Z</time></trkpt><trkpt lat="43.9153029" lon="11.9326179"><ele>591.0</ele><time>2026-05-01T08:04:23.253Z</time></trkpt><trkpt lat="43.9152763" lon="11.9324344"><ele>590.0</ele><time>2026-05-01T08:04:24.269Z</time></trkpt><trkpt lat="43.9152336" lon="11.932253"><ele>589.0</ele><time>2026-05-01T08:04:25.256Z</time></trkpt><trkpt lat="43.9151551" lon="11.9320562"><ele>588.0</ele><time>2026-05-01T08:04:26.263Z</time></trkpt><trkpt lat="43.91507" lon="11.9318643"><ele>585.3333333333334</ele><time>2026-05-01T08:04:27.261Z</time></trkpt><trkpt lat="43.9149496" lon="11.9316535"><ele>582.6666666666667</ele><time>2026-05-01T08:04:28.261Z</time></trkpt><trkpt lat="43.9148418" lon="11.9314532"><ele>580.0</ele><time>2026-05-01T08:04:29.262Z</time></trkpt><trkpt lat="43.9147297" lon="11.9312735"><ele>580.0</ele><time>2026-05-01T08:04:30.26Z</time></trkpt><trkpt lat="43.9146224" lon="11.9310862"><ele>580.0</ele><time>2026-05-01T08:04:31.257Z</time></trkpt><trkpt lat="43.9145021" lon="11.9308936"><ele>580.0</ele><time>2026-05-01T08:04:32.267Z</time></trkpt><trkpt lat="43.914367" lon="11.9306858"><ele>577.0</ele><time>2026-05-01T08:04:33.257Z</time></trkpt><trkpt lat="43.9142466" lon="11.9304492"><ele>574.0</ele><time>2026-05-01T08:04:34.258Z</time></trkpt><trkpt lat="43.9141298" lon="11.9301876"><ele>571.0</ele><time>2026-05-01T08:04:35.257Z</time></trkpt><trkpt lat="43.9140119" lon="11.929934"><ele>570.0</ele><time>2026-05-01T08:04:36.257Z</time></trkpt><trkpt lat="43.9139236" lon="11.9296213"><ele>569.0</ele><time>2026-05-01T08:04:37.257Z</time></trkpt><trkpt lat="43.9138437" lon="11.9293148"><ele>566.5</ele><time>2026-05-01T08:04:38.262Z</time></trkpt><trkpt lat="43.9137715" lon="11.9290145"><ele>564.0</ele><time>2026-05-01T08:04:39.267Z</time></trkpt><trkpt lat="43.9137163" lon="11.9287087"><ele>564.0</ele><time>2026-05-01T08:04:40.259Z</time></trkpt><trkpt lat="43.913662" lon="11.9284301"><ele>564.0</ele><time>2026-05-01T08:04:41.253Z</time></trkpt><trkpt lat="43.9136184" lon="11.9281636"><ele>564.0</ele><time>2026-05-01T08:04:42.268Z</time></trkpt><trkpt lat="43.9135733" lon="11.9279088"><ele>562.0</ele><time>2026-05-01T08:04:43.254Z</time></trkpt><trkpt lat="43.9135373" lon="11.9276647"><ele>560.0</ele><time>2026-05-01T08:04:44.256Z</time></trkpt><trkpt lat="43.9135145" lon="11.9274301"><ele>558.0</ele><time>2026-05-01T08:04:45.268Z</time></trkpt><trkpt lat="43.9135117" lon="11.9271953"><ele>555.6666666666666</ele><time>2026-05-01T08:04:46.256Z</time></trkpt><trkpt lat="43.913517" lon="11.9269721"><ele>553.3333333333333</ele><time>2026-05-01T08:04:47.263Z</time></trkpt><trkpt lat="43.9135671" lon="11.9266901"><ele>551.0</ele><time>2026-05-01T08:04:48.26Z</time></trkpt><trkpt lat="43.913597" lon="11.9264473"><ele>550.3333333333333</ele><time>2026-05-01T08:04:49.256Z</time></trkpt><trkpt lat="43.9136411" lon="11.9261891"><ele>549.6666666666666</ele><time>2026-05-01T08:04:50.259Z</time></trkpt><trkpt lat="43.9137047" lon="11.9259402"><ele>549.0</ele><time>2026-05-01T08:04:51.26Z</time></trkpt><trkpt lat="43.9138176" lon="11.9256118"><ele>551.0</ele><time>2026-05-01T08:04:52.255Z</time></trkpt><trkpt lat="43.9139212" lon="11.9253025"><ele>553.0</ele><time>2026-05-01T08:04:53.256Z</time></trkpt><trkpt lat="43.9140247" lon="11.9249998"><ele>551.3333333333334</ele><time>2026-05-01T08:04:54.266Z</time></trkpt><trkpt lat="43.9141377" lon="11.9247125"><ele>549.6666666666666</ele><time>2026-05-01T08:04:55.269Z</time></trkpt><trkpt lat="43.9142291" lon="11.9244563"><ele>548.0</ele><time>2026-05-01T08:04:56.261Z</time></trkpt><trkpt lat="43.9143117" lon="11.9242513"><ele>551.3333333333333</ele><time>2026-05-01T08:04:57.267Z</time></trkpt><trkpt lat="43.9143927" lon="11.9240925"><ele>554.6666666666666</ele><time>2026-05-01T08:04:58.26Z</time></trkpt><trkpt lat="43.9144988" lon="11.9239237"><ele>558.0</ele><time>2026-05-01T08:04:59.259Z</time></trkpt><trkpt lat="43.9146124" lon="11.9237885"><ele>558.0</ele><time>2026-05-01T08:05:00.256Z</time></trkpt><trkpt lat="43.9147661" lon="11.9236945"><ele>558.0</ele><time>2026-05-01T08:05:01.254Z</time></trkpt><trkpt lat="43.9148999" lon="11.9236261"><ele>558.0</ele><time>2026-05-01T08:05:02.255Z</time></trkpt><trkpt lat="43.9150563" lon="11.9235503"><ele>558.3333333333334</ele><time>2026-05-01T08:05:03.261Z</time></trkpt><trkpt lat="43.9152359" lon="11.9234617"><ele>558.6666666666667</ele><time>2026-05-01T08:05:04.265Z</time></trkpt><trkpt lat="43.9153876" lon="11.9233402"><ele>559.0</ele><time>2026-05-01T08:05:05.254Z</time></trkpt><trkpt lat="43.9155347" lon="11.9231888"><ele>559.0</ele><time>2026-05-01T08:05:06.26Z</time></trkpt><trkpt lat="43.915698" lon="11.9230061"><ele>559.0</ele><time>2026-05-01T08:05:07.254Z</time></trkpt><trkpt lat="43.9158583" lon="11.9227852"><ele>559.0</ele><time>2026-05-01T08:05:08.254Z</time></trkpt><trkpt lat="43.916005" lon="11.9225734"><ele>557.0</ele><time>2026-05-01T08:05:09.253Z</time></trkpt><trkpt lat="43.9161281" lon="11.9223923"><ele>555.0</ele><time>2026-05-01T08:05:10.253Z</time></trkpt><trkpt lat="43.9162319" lon="11.9222294"><ele>553.0</ele><time>2026-05-01T08:05:11.271Z</time></trkpt><trkpt lat="43.9163172" lon="11.9220991"><ele>553.0</ele><time>2026-05-01T08:05:12.256Z</time></trkpt><trkpt lat="43.9164061" lon="11.9219683"><ele>553.0</ele><time>2026-05-01T08:05:13.262Z</time></trkpt><trkpt lat="43.9164859" lon="11.9218217"><ele>553.0</ele><time>2026-05-01T08:05:14.255Z</time></trkpt><trkpt lat="43.9165689" lon="11.9216599"><ele>553.0</ele><time>2026-05-01T08:05:15.267Z</time></trkpt><trkpt lat="43.9166269" lon="11.9214515"><ele>552.0</ele><time>2026-05-01T08:05:16.26Z</time></trkpt><trkpt lat="43.9167084" lon="11.9212698"><ele>551.0</ele><time>2026-05-01T08:05:17.267Z</time></trkpt><trkpt lat="43.9167873" lon="11.9210823"><ele>550.0</ele><time>2026-05-01T08:05:18.268Z</time></trkpt><trkpt lat="43.916872" lon="11.9208944"><ele>550.0</ele><time>2026-05-01T08:05:19.257Z</time></trkpt><trkpt lat="43.916964" lon="11.9207439"><ele>550.0</ele><time>2026-05-01T08:05:20.257Z</time></trkpt><trkpt lat="43.9170651" lon="11.9205838"><ele>550.0</ele><time>2026-05-01T08:05:21.266Z</time></trkpt><trkpt lat="43.9171633" lon="11.9204479"><ele>550.0</ele><time>2026-05-01T08:05:22.255Z</time></trkpt><trkpt lat="43.9172552" lon="11.9202991"><ele>550.0</ele><time>2026-05-01T08:05:23.261Z</time></trkpt><trkpt lat="43.917353" lon="11.9201631"><ele>550.0</ele><time>2026-05-01T08:05:24.256Z</time></trkpt><trkpt lat="43.9174586" lon="11.9200099"><ele>550.0</ele><time>2026-05-01T08:05:25.259Z</time></trkpt><trkpt lat="43.9175838" lon="11.9198832"><ele>550.0</ele><time>2026-05-01T08:05:26.255Z</time></trkpt><trkpt lat="43.9177196" lon="11.9197684"><ele>548.5</ele><time>2026-05-01T08:05:27.26Z</time></trkpt><trkpt lat="43.9178454" lon="11.9196602"><ele>547.0</ele><time>2026-05-01T08:05:28.252Z</time></trkpt><trkpt lat="43.917974" lon="11.9195287"><ele>545.5</ele><time>2026-05-01T08:05:29.257Z</time></trkpt><trkpt lat="43.9180936" lon="11.9194329"><ele>544.0</ele><time>2026-05-01T08:05:30.267Z</time></trkpt><trkpt lat="43.9182199" lon="11.9193115"><ele>546.3333333333334</ele><time>2026-05-01T08:05:31.258Z</time></trkpt><trkpt lat="43.9183492" lon="11.9192104"><ele>548.6666666666666</ele><time>2026-05-01T08:05:32.261Z</time></trkpt><trkpt lat="43.9184915" lon="11.9191262"><ele>551.0</ele><time>2026-05-01T08:05:33.256Z</time></trkpt><trkpt lat="43.9186423" lon="11.9190701"><ele>551.0</ele><time>2026-05-01T08:05:34.257Z</time></trkpt><trkpt lat="43.9188022" lon="11.9190428"><ele>551.0</ele><time>2026-05-01T08:05:35.269Z</time></trkpt><trkpt lat="43.9189395" lon="11.9190264"><ele>551.0</ele><time>2026-05-01T08:05:36.258Z</time></trkpt><trkpt lat="43.9190777" lon="11.9189789"><ele>551.0</ele><time>2026-05-01T08:05:37.26Z</time></trkpt><trkpt lat="43.9191851" lon="11.918889"><ele>552.25</ele><time>2026-05-01T08:05:38.255Z</time></trkpt><trkpt lat="43.919298" lon="11.918775"><ele>553.5</ele><time>2026-05-01T08:05:39.254Z</time></trkpt><trkpt lat="43.9193982" lon="11.9186305"><ele>554.75</ele><time>2026-05-01T08:05:40.254Z</time></trkpt><trkpt lat="43.9194936" lon="11.9184671"><ele>556.0</ele><time>2026-05-01T08:05:41.257Z</time></trkpt><trkpt lat="43.919599" lon="11.918291"><ele>556.0</ele><time>2026-05-01T08:05:42.265Z</time></trkpt><trkpt lat="43.9196995" lon="11.918109"><ele>556.0</ele><time>2026-05-01T08:05:43.267Z</time></trkpt><trkpt lat="43.9197958" lon="11.9179477"><ele>556.0</ele><time>2026-05-01T08:05:44.255Z</time></trkpt><trkpt lat="43.9199249" lon="11.9178204"><ele>556.0</ele><time>2026-05-01T08:05:45.261Z</time></trkpt><trkpt lat="43.9200491" lon="11.917718"><ele>556.0</ele><time>2026-05-01T08:05:46.256Z</time></trkpt><trkpt lat="43.9201838" lon="11.9176597"><ele>556.0</ele><time>2026-05-01T08:05:47.257Z</time></trkpt><trkpt lat="43.9203248" lon="11.9176113"><ele>556.0</ele><time>2026-05-01T08:05:48.265Z</time></trkpt><trkpt lat="43.9204782" lon="11.9175508"><ele>554.6666666666667</ele><time>2026-05-01T08:05:49.258Z</time></trkpt><trkpt lat="43.9206396" lon="11.9174826"><ele>553.3333333333334</ele><time>2026-05-01T08:05:50.271Z</time></trkpt><trkpt lat="43.9208059" lon="11.9173979"><ele>552.0</ele><time>2026-05-01T08:05:51.253Z</time></trkpt><trkpt lat="43.9209718" lon="11.9173436"><ele>549.75</ele><time>2026-05-01T08:05:52.255Z</time></trkpt><trkpt lat="43.921103" lon="11.9172916"><ele>547.5</ele><time>2026-05-01T08:05:53.261Z</time></trkpt><trkpt lat="43.9212508" lon="11.9172359"><ele>545.25</ele><time>2026-05-01T08:05:54.258Z</time></trkpt><trkpt lat="43.9213623" lon="11.9171798"><ele>543.0</ele><time>2026-05-01T08:05:55.257Z</time></trkpt><trkpt lat="43.9214905" lon="11.9171211"><ele>543.0</ele><time>2026-05-01T08:05:56.268Z</time></trkpt><trkpt lat="43.9216087" lon="11.9170576"><ele>543.0</ele><time>2026-05-01T08:05:57.259Z</time></trkpt><trkpt lat="43.9217412" lon="11.9169884"><ele>543.0</ele><time>2026-05-01T08:05:58.258Z</time></trkpt><trkpt lat="43.9218674" lon="11.916929"><ele>543.0</ele><time>2026-05-01T08:05:59.258Z</time></trkpt><trkpt lat="43.9220125" lon="11.9168509"><ele>543.5</ele><time>2026-05-01T08:06:00.258Z</time></trkpt><trkpt lat="43.9221347" lon="11.9167915"><ele>544.0</ele><time>2026-05-01T08:06:01.266Z</time></trkpt><trkpt lat="43.9222515" lon="11.9167529"><ele>544.5</ele><time>2026-05-01T08:06:02.268Z</time></trkpt><trkpt lat="43.9223692" lon="11.9167242"><ele>545.0</ele><time>2026-05-01T08:06:03.253Z</time></trkpt><trkpt lat="43.9225251" lon="11.9167279"><ele>540.0</ele><time>2026-05-01T08:06:04.26Z</time></trkpt><trkpt lat="43.922675" lon="11.9167329"><ele>535.0</ele><time>2026-05-01T08:06:05.258Z</time></trkpt><trkpt lat="43.9228062" lon="11.9167273"><ele>530.0</ele><time>2026-05-01T08:06:06.259Z</time></trkpt><trkpt lat="43.9229138" lon="11.9166669"><ele>525.0</ele><time>2026-05-01T08:06:07.268Z</time></trkpt><trkpt lat="43.9230068" lon="11.9165572"><ele>525.0</ele><time>2026-05-01T08:06:08.258Z</time></trkpt><trkpt lat="43.9230819" lon="11.9163928"><ele>525.0</ele><time>2026-05-01T08:06:09.263Z</time></trkpt><trkpt lat="43.9231423" lon="11.9162238"><ele>525.0</ele><time>2026-05-01T08:06:10.255Z</time></trkpt><trkpt lat="43.9232014" lon="11.9160504"><ele>525.0</ele><time>2026-05-01T08:06:11.256Z</time></trkpt><trkpt lat="43.9232506" lon="11.9158839"><ele>523.75</ele><time>2026-05-01T08:06:12.259Z</time></trkpt><trkpt lat="43.9232968" lon="11.9156775"><ele>522.5</ele><time>2026-05-01T08:06:13.255Z</time></trkpt><trkpt lat="43.9233537" lon="11.9155272"><ele>521.25</ele><time>2026-05-01T08:06:14.258Z</time></trkpt><trkpt lat="43.9234325" lon="11.915381"><ele>520.0</ele><time>2026-05-01T08:06:15.259Z</time></trkpt><trkpt lat="43.9235267" lon="11.9152428"><ele>520.0</ele><time>2026-05-01T08:06:16.261Z</time></trkpt><trkpt lat="43.9236543" lon="11.9151786"><ele>520.0</ele><time>2026-05-01T08:06:17.274Z</time></trkpt><trkpt lat="43.9238135" lon="11.9151745"><ele>520.0</ele><time>2026-05-01T08:06:18.258Z</time></trkpt><trkpt lat="43.9239527" lon="11.9151553"><ele>520.0</ele><time>2026-05-01T08:06:19.255Z</time></trkpt><trkpt lat="43.9240815" lon="11.915111"><ele>522.0</ele><time>2026-05-01T08:06:20.266Z</time></trkpt><trkpt lat="43.9241516" lon="11.9150476"><ele>524.0</ele><time>2026-05-01T08:06:21.254Z</time></trkpt><trkpt lat="43.9242765" lon="11.9149296"><ele>526.0</ele><time>2026-05-01T08:06:22.269Z</time></trkpt><trkpt lat="43.9243755" lon="11.9147477"><ele>528.0</ele><time>2026-05-01T08:06:23.266Z</time></trkpt><trkpt lat="43.9244692" lon="11.9146009"><ele>528.0</ele><time>2026-05-01T08:06:24.252Z</time></trkpt><trkpt lat="43.9245879" lon="11.9145248"><ele>528.0</ele><time>2026-05-01T08:06:25.26Z</time></trkpt><trkpt lat="43.9246725" lon="11.9144576"><ele>528.0</ele><time>2026-05-01T08:06:26.26Z</time></trkpt><trkpt lat="43.9247974" lon="11.9144189"><ele>528.0</ele><time>2026-05-01T08:06:27.265Z</time></trkpt><trkpt lat="43.9249393" lon="11.9144391"><ele>527.3333333333334</ele><time>2026-05-01T08:06:28.266Z</time></trkpt><trkpt lat="43.9250983" lon="11.9144307"><ele>526.6666666666667</ele><time>2026-05-01T08:06:29.265Z</time></trkpt><trkpt lat="43.925243" lon="11.9144045"><ele>526.0</ele><time>2026-05-01T08:06:30.26Z</time></trkpt><trkpt lat="43.9254299" lon="11.9143222"><ele>526.0</ele><time>2026-05-01T08:06:31.267Z</time></trkpt><trkpt lat="43.9255942" lon="11.9142647"><ele>526.0</ele><time>2026-05-01T08:06:32.258Z</time></trkpt><trkpt lat="43.9257705" lon="11.9141838"><ele>526.0</ele><time>2026-05-01T08:06:33.261Z</time></trkpt><trkpt lat="43.9259612" lon="11.9141248"><ele>528.25</ele><time>2026-05-01T08:06:34.256Z</time></trkpt><trkpt lat="43.9260713" lon="11.9140836"><ele>530.5</ele><time>2026-05-01T08:06:35.268Z</time></trkpt><trkpt lat="43.9261946" lon="11.9140215"><ele>532.75</ele><time>2026-05-01T08:06:36.262Z</time></trkpt><trkpt lat="43.9263143" lon="11.913898"><ele>535.0</ele><time>2026-05-01T08:06:37.253Z</time></trkpt><trkpt lat="43.9264363" lon="11.9137521"><ele>535.0</ele><time>2026-05-01T08:06:38.26Z</time></trkpt><trkpt lat="43.9265195" lon="11.9135766"><ele>535.0</ele><time>2026-05-01T08:06:39.261Z</time></trkpt><trkpt lat="43.9266196" lon="11.9133738"><ele>535.0</ele><time>2026-05-01T08:06:40.267Z</time></trkpt><trkpt lat="43.9267227" lon="11.9131747"><ele>534.6666666666667</ele><time>2026-05-01T08:06:41.268Z</time></trkpt><trkpt lat="43.926831" lon="11.9130039"><ele>534.3333333333334</ele><time>2026-05-01T08:06:42.257Z</time></trkpt><trkpt lat="43.9269619" lon="11.9128507"><ele>534.0</ele><time>2026-05-01T08:06:43.257Z</time></trkpt><trkpt lat="43.9270834" lon="11.9126921"><ele>534.0</ele><time>2026-05-01T08:06:44.268Z</time></trkpt><trkpt lat="43.9272298" lon="11.9125889"><ele>534.0</ele><time>2026-05-01T08:06:45.266Z</time></trkpt><trkpt lat="43.9273696" lon="11.9124814"><ele>534.0</ele><time>2026-05-01T08:06:46.257Z</time></trkpt><trkpt lat="43.9275114" lon="11.9124155"><ele>535.0</ele><time>2026-05-01T08:06:47.26Z</time></trkpt><trkpt lat="43.9276762" lon="11.9123213"><ele>536.0</ele><time>2026-05-01T08:06:48.26Z</time></trkpt><trkpt lat="43.9278645" lon="11.9122861"><ele>537.0</ele><time>2026-05-01T08:06:49.267Z</time></trkpt><trkpt lat="43.9280311" lon="11.9122742"><ele>537.0</ele><time>2026-05-01T08:06:50.257Z</time></trkpt><trkpt lat="43.9282214" lon="11.9122545"><ele>537.0</ele><time>2026-05-01T08:06:51.261Z</time></trkpt><trkpt lat="43.9283972" lon="11.9122375"><ele>537.0</ele><time>2026-05-01T08:06:52.252Z</time></trkpt><trkpt lat="43.9285935" lon="11.9122129"><ele>533.3333333333334</ele><time>2026-05-01T08:06:53.257Z</time></trkpt><trkpt lat="43.9287745" lon="11.9122003"><ele>529.6666666666667</ele><time>2026-05-01T08:06:54.255Z</time></trkpt><trkpt lat="43.9289303" lon="11.9121665"><ele>526.0</ele><time>2026-05-01T08:06:55.268Z</time></trkpt><trkpt lat="43.9290853" lon="11.9121362"><ele>526.0</ele><time>2026-05-01T08:06:56.254Z</time></trkpt><trkpt lat="43.9292221" lon="11.9120489"><ele>526.0</ele><time>2026-05-01T08:06:57.266Z</time></trkpt><trkpt lat="43.9293621" lon="11.9119515"><ele>526.0</ele><time>2026-05-01T08:06:58.254Z</time></trkpt><trkpt lat="43.9294778" lon="11.9118454"><ele>526.0</ele><time>2026-05-01T08:06:59.269Z</time></trkpt><trkpt lat="43.9295839" lon="11.9117116"><ele>525.0</ele><time>2026-05-01T08:07:00.262Z</time></trkpt><trkpt lat="43.9296914" lon="11.9115646"><ele>524.0</ele><time>2026-05-01T08:07:01.256Z</time></trkpt><trkpt lat="43.9298037" lon="11.9114214"><ele>523.0</ele><time>2026-05-01T08:07:02.254Z</time></trkpt><trkpt lat="43.9299262" lon="11.9113242"><ele>522.0</ele><time>2026-05-01T08:07:03.258Z</time></trkpt><trkpt lat="43.9300959" lon="11.9112416"><ele>517.0</ele><time>2026-05-01T08:07:04.267Z</time></trkpt><trkpt lat="43.9302699" lon="11.9111801"><ele>512.0</ele><time>2026-05-01T08:07:05.256Z</time></trkpt><trkpt lat="43.9304456" lon="11.9111121"><ele>507.0</ele><time>2026-05-01T08:07:06.267Z</time></trkpt><trkpt lat="43.9306245" lon="11.911042"><ele>507.0</ele><time>2026-05-01T08:07:07.257Z</time></trkpt><trkpt lat="43.9308014" lon="11.9109904"><ele>507.0</ele><time>2026-05-01T08:07:08.257Z</time></trkpt><trkpt lat="43.9309432" lon="11.9109737"><ele>507.0</ele><time>2026-05-01T08:07:09.254Z</time></trkpt><trkpt lat="43.9311151" lon="11.9109484"><ele>508.66666666666663</ele><time>2026-05-01T08:07:10.257Z</time></trkpt><trkpt lat="43.9312947" lon="11.9108723"><ele>510.3333333333333</ele><time>2026-05-01T08:07:11.257Z</time></trkpt><trkpt lat="43.9314342" lon="11.9108215"><ele>512.0</ele><time>2026-05-01T08:07:12.267Z</time></trkpt><trkpt lat="43.9315604" lon="11.9107706"><ele>511.99999999999994</ele><time>2026-05-01T08:07:13.256Z</time></trkpt><trkpt lat="43.9316549" lon="11.9107297"><ele>512.0</ele><time>2026-05-01T08:07:14.256Z</time></trkpt><trkpt lat="43.93175" lon="11.9106893"><ele>512.0</ele><time>2026-05-01T08:07:15.255Z</time></trkpt><trkpt lat="43.9318416" lon="11.9106918"><ele>512.0</ele><time>2026-05-01T08:07:16.253Z</time></trkpt><trkpt lat="43.9319075" lon="11.9106936"><ele>511.99999999999994</ele><time>2026-05-01T08:07:17.268Z</time></trkpt><trkpt lat="43.9319721" lon="11.9107668"><ele>512.0</ele><time>2026-05-01T08:07:19.257Z</time></trkpt><trkpt lat="43.9318606" lon="11.9109307"><ele>510.25</ele><time>2026-05-01T08:07:20.266Z</time></trkpt><trkpt lat="43.9317843" lon="11.911029"><ele>508.5</ele><time>2026-05-01T08:07:21.267Z</time></trkpt><trkpt lat="43.931706" lon="11.911138"><ele>506.75</ele><time>2026-05-01T08:07:22.258Z</time></trkpt><trkpt lat="43.9315977" lon="11.911283"><ele>505.0</ele><time>2026-05-01T08:07:23.257Z</time></trkpt><trkpt lat="43.9314452" lon="11.9113614"><ele>503.33333333333337</ele><time>2026-05-01T08:07:24.258Z</time></trkpt><trkpt lat="43.9313205" lon="11.9114519"><ele>501.66666666666663</ele><time>2026-05-01T08:07:25.257Z</time></trkpt><trkpt lat="43.9311969" lon="11.9115531"><ele>500.0</ele><time>2026-05-01T08:07:26.256Z</time></trkpt><trkpt lat="43.9309992" lon="11.911629"><ele>499.25</ele><time>2026-05-01T08:07:27.258Z</time></trkpt><trkpt lat="43.9308676" lon="11.911731"><ele>498.5</ele><time>2026-05-01T08:07:28.254Z</time></trkpt><trkpt lat="43.9307396" lon="11.9118565"><ele>497.75</ele><time>2026-05-01T08:07:29.259Z</time></trkpt><trkpt lat="43.9306593" lon="11.9119998"><ele>497.0</ele><time>2026-05-01T08:07:30.261Z</time></trkpt><trkpt lat="43.9305909" lon="11.9121491"><ele>497.0</ele><time>2026-05-01T08:07:31.268Z</time></trkpt><trkpt lat="43.9305502" lon="11.9123295"><ele>497.0</ele><time>2026-05-01T08:07:32.267Z</time></trkpt><trkpt lat="43.9305199" lon="11.9125625"><ele>497.0</ele><time>2026-05-01T08:07:33.267Z</time></trkpt><trkpt lat="43.9304813" lon="11.912718"><ele>497.0</ele><time>2026-05-01T08:07:34.261Z</time></trkpt><trkpt lat="43.9304537" lon="11.9129577"><ele>495.40000000000003</ele><time>2026-05-01T08:07:35.26Z</time></trkpt><trkpt lat="43.9304172" lon="11.9130406"><ele>493.80000000000007</ele><time>2026-05-01T08:07:36.267Z</time></trkpt><trkpt lat="43.9304453" lon="11.9131599"><ele>492.2</ele><time>2026-05-01T08:07:37.259Z</time></trkpt><trkpt lat="43.9304995" lon="11.9132546"><ele>490.6</ele><time>2026-05-01T08:07:38.276Z</time></trkpt><trkpt lat="43.9306121" lon="11.9132333"><ele>489.0</ele><time>2026-05-01T08:07:40.255Z</time></trkpt><trkpt lat="43.9306771" lon="11.913143"><ele>489.0</ele><time>2026-05-01T08:07:41.276Z</time></trkpt><trkpt lat="43.9307192" lon="11.9130547"><ele>489.0</ele><time>2026-05-01T08:07:42.259Z</time></trkpt><trkpt lat="43.9307709" lon="11.9129035"><ele>489.0</ele><time>2026-05-01T08:07:43.261Z</time></trkpt><trkpt lat="43.9308323" lon="11.9127541"><ele>489.0</ele><time>2026-05-01T08:07:44.264Z</time></trkpt><trkpt lat="43.9308914" lon="11.9126121"><ele>489.0</ele><time>2026-05-01T08:07:45.255Z</time></trkpt><trkpt lat="43.9309515" lon="11.9124786"><ele>488.25</ele><time>2026-05-01T08:07:46.259Z</time></trkpt><trkpt lat="43.9310432" lon="11.9123864"><ele>487.5</ele><time>2026-05-01T08:07:47.265Z</time></trkpt><trkpt lat="43.9311456" lon="11.9122992"><ele>486.75</ele><time>2026-05-01T08:07:48.258Z</time></trkpt><trkpt lat="43.9312631" lon="11.9122833"><ele>486.0</ele><time>2026-05-01T08:07:49.262Z</time></trkpt><trkpt lat="43.9314082" lon="11.9122621"><ele>486.0</ele><time>2026-05-01T08:07:50.26Z</time></trkpt><trkpt lat="43.9315252" lon="11.9122301"><ele>486.0</ele><time>2026-05-01T08:07:51.257Z</time></trkpt><trkpt lat="43.9316607" lon="11.9122129"><ele>486.0</ele><time>2026-05-01T08:07:52.263Z</time></trkpt><trkpt lat="43.9317844" lon="11.912306"><ele>486.0</ele><time>2026-05-01T08:07:53.26Z</time></trkpt><trkpt lat="43.9319257" lon="11.9123516"><ele>487.33333333333337</ele><time>2026-05-01T08:07:54.258Z</time></trkpt><trkpt lat="43.932043" lon="11.912428"><ele>488.6666666666667</ele><time>2026-05-01T08:07:55.268Z</time></trkpt><trkpt lat="43.9321825" lon="11.912559"><ele>490.0</ele><time>2026-05-01T08:07:56.259Z</time></trkpt><trkpt lat="43.9323005" lon="11.9127118"><ele>489.0</ele><time>2026-05-01T08:07:57.262Z</time></trkpt><trkpt lat="43.9324064" lon="11.9128518"><ele>488.0</ele><time>2026-05-01T08:07:58.266Z</time></trkpt><trkpt lat="43.9324811" lon="11.913029"><ele>487.0</ele><time>2026-05-01T08:07:59.27Z</time></trkpt><trkpt lat="43.9325538" lon="11.9132017"><ele>486.0</ele><time>2026-05-01T08:08:00.254Z</time></trkpt><trkpt lat="43.9326276" lon="11.9133693"><ele>482.0</ele><time>2026-05-01T08:08:01.261Z</time></trkpt><trkpt lat="43.9326843" lon="11.9135642"><ele>478.0</ele><time>2026-05-01T08:08:02.268Z</time></trkpt><trkpt lat="43.9327589" lon="11.9137139"><ele>474.0</ele><time>2026-05-01T08:08:03.256Z</time></trkpt><trkpt lat="43.9328523" lon="11.9138159"><ele>470.0</ele><time>2026-05-01T08:08:04.26Z</time></trkpt><trkpt lat="43.9329967" lon="11.9139283"><ele>470.0</ele><time>2026-05-01T08:08:05.268Z</time></trkpt><trkpt lat="43.9331266" lon="11.914014"><ele>470.0</ele><time>2026-05-01T08:08:06.259Z</time></trkpt><trkpt lat="43.933257" lon="11.9140998"><ele>470.0</ele><time>2026-05-01T08:08:07.255Z</time></trkpt><trkpt lat="43.9333947" lon="11.914181"><ele>470.0</ele><time>2026-05-01T08:08:08.252Z</time></trkpt><trkpt lat="43.9335215" lon="11.9142637"><ele>465.2</ele><time>2026-05-01T08:08:09.256Z</time></trkpt><trkpt lat="43.9336044" lon="11.9143342"><ele>460.4</ele><time>2026-05-01T08:08:10.261Z</time></trkpt><trkpt lat="43.9337261" lon="11.9143828"><ele>455.6</ele><time>2026-05-01T08:08:11.257Z</time></trkpt><trkpt lat="43.9338328" lon="11.9144275"><ele>450.8</ele><time>2026-05-01T08:08:12.256Z</time></trkpt><trkpt lat="43.9339325" lon="11.9144361"><ele>446.0</ele><time>2026-05-01T08:08:13.257Z</time></trkpt><trkpt lat="43.9340284" lon="11.9143897"><ele>446.0</ele><time>2026-05-01T08:08:14.256Z</time></trkpt><trkpt lat="43.9340979" lon="11.9142819"><ele>446.0</ele><time>2026-05-01T08:08:15.267Z</time></trkpt><trkpt lat="43.9341835" lon="11.9140802"><ele>446.0</ele><time>2026-05-01T08:08:16.253Z</time></trkpt><trkpt lat="43.9342514" lon="11.9139348"><ele>446.0</ele><time>2026-05-01T08:08:17.257Z</time></trkpt><trkpt lat="43.9343383" lon="11.9137916"><ele>446.3333333333333</ele><time>2026-05-01T08:08:18.257Z</time></trkpt><trkpt lat="43.9344345" lon="11.9136903"><ele>446.66666666666663</ele><time>2026-05-01T08:08:19.26Z</time></trkpt><trkpt lat="43.9345654" lon="11.9135954"><ele>447.0</ele><time>2026-05-01T08:08:20.253Z</time></trkpt><trkpt lat="43.934746" lon="11.9135101"><ele>447.0</ele><time>2026-05-01T08:08:21.265Z</time></trkpt><trkpt lat="43.9348852" lon="11.913426"><ele>447.0</ele><time>2026-05-01T08:08:22.268Z</time></trkpt><trkpt lat="43.9350442" lon="11.9133279"><ele>447.0</ele><time>2026-05-01T08:08:23.258Z</time></trkpt><trkpt lat="43.9351823" lon="11.9133238"><ele>445.33333333333337</ele><time>2026-05-01T08:08:24.261Z</time></trkpt><trkpt lat="43.9353687" lon="11.9133331"><ele>443.6666666666667</ele><time>2026-05-01T08:08:25.258Z</time></trkpt><trkpt lat="43.9355045" lon="11.9133957"><ele>442.0</ele><time>2026-05-01T08:08:26.267Z</time></trkpt><trkpt lat="43.9356993" lon="11.9134365"><ele>442.0</ele><time>2026-05-01T08:08:27.255Z</time></trkpt><trkpt lat="43.9358699" lon="11.9134311"><ele>442.0</ele><time>2026-05-01T08:08:28.254Z</time></trkpt><trkpt lat="43.9360144" lon="11.9134368"><ele>442.0</ele><time>2026-05-01T08:08:29.259Z</time></trkpt><trkpt lat="43.9361757" lon="11.9134504"><ele>441.5</ele><time>2026-05-01T08:08:30.264Z</time></trkpt><trkpt lat="43.9363086" lon="11.9134732"><ele>441.0</ele><time>2026-05-01T08:08:31.254Z</time></trkpt><trkpt lat="43.9364389" lon="11.913522"><ele>440.5</ele><time>2026-05-01T08:08:32.259Z</time></trkpt><trkpt lat="43.9365794" lon="11.9135979"><ele>440.0</ele><time>2026-05-01T08:08:33.253Z</time></trkpt><trkpt lat="43.9367156" lon="11.9136609"><ele>439.0</ele><time>2026-05-01T08:08:34.267Z</time></trkpt><trkpt lat="43.9368489" lon="11.913745"><ele>438.0</ele><time>2026-05-01T08:08:35.254Z</time></trkpt><trkpt lat="43.9369736" lon="11.9137947"><ele>437.0</ele><time>2026-05-01T08:08:36.255Z</time></trkpt><trkpt lat="43.9370954" lon="11.9137971"><ele>436.0</ele><time>2026-05-01T08:08:37.261Z</time></trkpt><trkpt lat="43.937282" lon="11.9137864"><ele>436.0</ele><time>2026-05-01T08:08:38.264Z</time></trkpt><trkpt lat="43.9374494" lon="11.9137722"><ele>436.0</ele><time>2026-05-01T08:08:39.254Z</time></trkpt><trkpt lat="43.9375955" lon="11.9137338"><ele>436.0</ele><time>2026-05-01T08:08:40.261Z</time></trkpt><trkpt lat="43.9377245" lon="11.9136991"><ele>436.0</ele><time>2026-05-01T08:08:41.269Z</time></trkpt><trkpt lat="43.9378483" lon="11.9136672"><ele>436.00000000000006</ele><time>2026-05-01T08:08:42.26Z</time></trkpt><trkpt lat="43.9379601" lon="11.9136562"><ele>436.0</ele><time>2026-05-01T08:08:43.261Z</time></trkpt><trkpt lat="43.9380427" lon="11.9136326"><ele>436.0</ele><time>2026-05-01T08:08:44.268Z</time></trkpt><trkpt lat="43.9381202" lon="11.9135786"><ele>436.0</ele><time>2026-05-01T08:08:45.255Z</time></trkpt><trkpt lat="43.93819" lon="11.9135323"><ele>436.00000000000006</ele><time>2026-05-01T08:08:46.256Z</time></trkpt><trkpt lat="43.9382427" lon="11.9134532"><ele>436.0</ele><time>2026-05-01T08:08:47.259Z</time></trkpt><trkpt lat="43.9382382" lon="11.9132908"><ele>438.5</ele><time>2026-05-01T08:08:48.257Z</time></trkpt><trkpt lat="43.9382317" lon="11.9131277"><ele>441.0</ele><time>2026-05-01T08:08:49.26Z</time></trkpt><trkpt lat="43.938208" lon="11.9129514"><ele>443.5</ele><time>2026-05-01T08:08:50.256Z</time></trkpt><trkpt lat="43.9381665" lon="11.9127774"><ele>446.0</ele><time>2026-05-01T08:08:51.257Z</time></trkpt><trkpt lat="43.938106" lon="11.9125948"><ele>443.25</ele><time>2026-05-01T08:08:52.252Z</time></trkpt><trkpt lat="43.9380462" lon="11.9124285"><ele>440.5</ele><time>2026-05-01T08:08:53.258Z</time></trkpt><trkpt lat="43.9379904" lon="11.9122701"><ele>437.75</ele><time>2026-05-01T08:08:54.268Z</time></trkpt><trkpt lat="43.9379604" lon="11.9120807"><ele>435.0</ele><time>2026-05-01T08:08:55.256Z</time></trkpt><trkpt lat="43.9379487" lon="11.9119241"><ele>435.0</ele><time>2026-05-01T08:08:56.264Z</time></trkpt><trkpt lat="43.9379499" lon="11.911756"><ele>435.0</ele><time>2026-05-01T08:08:57.263Z</time></trkpt><trkpt lat="43.9379253" lon="11.9116334"><ele>435.0</ele><time>2026-05-01T08:08:58.26Z</time></trkpt><trkpt lat="43.9378722" lon="11.9115777"><ele>435.0</ele><time>2026-05-01T08:08:59.255Z</time></trkpt><trkpt lat="43.9378282" lon="11.9114964"><ele>435.0</ele><time>2026-05-01T08:09:00.254Z</time></trkpt><trkpt lat="43.9377393" lon="11.9114008"><ele>434.66666666666663</ele><time>2026-05-01T08:09:01.254Z</time></trkpt><trkpt lat="43.9375585" lon="11.9113856"><ele>434.3333333333333</ele><time>2026-05-01T08:09:02.255Z</time></trkpt><trkpt lat="43.9374008" lon="11.9113592"><ele>434.0</ele><time>2026-05-01T08:09:03.256Z</time></trkpt><trkpt lat="43.937239" lon="11.9113173"><ele>434.0</ele><time>2026-05-01T08:09:04.266Z</time></trkpt><trkpt lat="43.9370979" lon="11.9112533"><ele>434.0</ele><time>2026-05-01T08:09:05.256Z</time></trkpt><trkpt lat="43.9369662" lon="11.9111786"><ele>434.0</ele><time>2026-05-01T08:09:06.263Z</time></trkpt><trkpt lat="43.936843" lon="11.9111082"><ele>434.0</ele><time>2026-05-01T08:09:07.267Z</time></trkpt><trkpt lat="43.9367097" lon="11.9110215"><ele>437.75</ele><time>2026-05-01T08:09:08.255Z</time></trkpt><trkpt lat="43.9365822" lon="11.9109122"><ele>441.5</ele><time>2026-05-01T08:09:09.261Z</time></trkpt><trkpt lat="43.9364567" lon="11.9107986"><ele>445.25</ele><time>2026-05-01T08:09:10.267Z</time></trkpt><trkpt lat="43.9363293" lon="11.9106981"><ele>449.0</ele><time>2026-05-01T08:09:11.26Z</time></trkpt><trkpt lat="43.936218" lon="11.9106096"><ele>441.5</ele><time>2026-05-01T08:09:12.265Z</time></trkpt><trkpt lat="43.9361044" lon="11.9105258"><ele>434.0</ele><time>2026-05-01T08:09:13.254Z</time></trkpt><trkpt lat="43.9359862" lon="11.9104495"><ele>426.5</ele><time>2026-05-01T08:09:14.261Z</time></trkpt><trkpt lat="43.9358911" lon="11.9103744"><ele>419.0</ele><time>2026-05-01T08:09:15.267Z</time></trkpt><trkpt lat="43.9359629" lon="11.9103142"><ele>419.0</ele><time>2026-05-01T08:09:19.26Z</time></trkpt><trkpt lat="43.9361781" lon="11.9102861"><ele>419.0</ele><time>2026-05-01T08:09:21.268Z</time></trkpt><trkpt lat="43.9363189" lon="11.9102245"><ele>419.0</ele><time>2026-05-01T08:09:22.256Z</time></trkpt><trkpt lat="43.9364416" lon="11.9101276"><ele>415.4</ele><time>2026-05-01T08:09:23.266Z</time></trkpt><trkpt lat="43.936515" lon="11.9100283"><ele>411.79999999999995</ele><time>2026-05-01T08:09:24.268Z</time></trkpt><trkpt lat="43.9366086" lon="11.9099562"><ele>408.20000000000005</ele><time>2026-05-01T08:09:25.261Z</time></trkpt><trkpt lat="43.9367231" lon="11.9099441"><ele>404.6</ele><time>2026-05-01T08:09:27.258Z</time></trkpt><trkpt lat="43.9368052" lon="11.9099587"><ele>401.0</ele><time>2026-05-01T08:09:28.254Z</time></trkpt><trkpt lat="43.9369237" lon="11.9100041"><ele>401.8</ele><time>2026-05-01T08:09:29.257Z</time></trkpt><trkpt lat="43.9369995" lon="11.9100285"><ele>402.6</ele><time>2026-05-01T08:09:30.258Z</time></trkpt><trkpt lat="43.937085" lon="11.9101078"><ele>403.4</ele><time>2026-05-01T08:09:31.254Z</time></trkpt><trkpt lat="43.9371306" lon="11.9100377"><ele>404.2</ele><time>2026-05-01T08:09:34.254Z</time></trkpt><trkpt lat="43.9370469" lon="11.9099028"><ele>405.0</ele><time>2026-05-01T08:09:36.26Z</time></trkpt><trkpt lat="43.9369868" lon="11.9098035"><ele>399.8</ele><time>2026-05-01T08:09:37.271Z</time></trkpt><trkpt lat="43.9369339" lon="11.9096836"><ele>394.6</ele><time>2026-05-01T08:09:38.256Z</time></trkpt><trkpt lat="43.9368864" lon="11.9095675"><ele>389.4</ele><time>2026-05-01T08:09:39.257Z</time></trkpt><trkpt lat="43.9368491" lon="11.9093816"><ele>384.2</ele><time>2026-05-01T08:09:40.257Z</time></trkpt><trkpt lat="43.9368078" lon="11.9092403"><ele>379.0</ele><time>2026-05-01T08:09:41.253Z</time></trkpt><trkpt lat="43.9367367" lon="11.9090756"><ele>380.4</ele><time>2026-05-01T08:09:42.268Z</time></trkpt><trkpt lat="43.9366572" lon="11.9089628"><ele>381.79999999999995</ele><time>2026-05-01T08:09:43.255Z</time></trkpt><trkpt lat="43.9365945" lon="11.9088806"><ele>383.20000000000005</ele><time>2026-05-01T08:09:44.261Z</time></trkpt><trkpt lat="43.9365059" lon="11.9088332"><ele>384.6</ele><time>2026-05-01T08:09:45.257Z</time></trkpt><trkpt lat="43.9363606" lon="11.908792"><ele>386.0</ele><time>2026-05-01T08:09:46.266Z</time></trkpt><trkpt lat="43.9362389" lon="11.9087667"><ele>386.0</ele><time>2026-05-01T08:09:47.258Z</time></trkpt><trkpt lat="43.9360934" lon="11.9087698"><ele>386.0</ele><time>2026-05-01T08:09:48.257Z</time></trkpt><trkpt lat="43.9359509" lon="11.9087419"><ele>386.0</ele><time>2026-05-01T08:09:49.27Z</time></trkpt><trkpt lat="43.9358204" lon="11.9087201"><ele>386.0</ele><time>2026-05-01T08:09:50.266Z</time></trkpt><trkpt lat="43.935682" lon="11.9086946"><ele>385.75</ele><time>2026-05-01T08:09:51.271Z</time></trkpt><trkpt lat="43.9355246" lon="11.9086451"><ele>385.5</ele><time>2026-05-01T08:09:52.261Z</time></trkpt><trkpt lat="43.9354222" lon="11.9085594"><ele>385.25</ele><time>2026-05-01T08:09:53.261Z</time></trkpt><trkpt lat="43.9353405" lon="11.9084409"><ele>385.0</ele><time>2026-05-01T08:09:54.266Z</time></trkpt><trkpt lat="43.9352625" lon="11.9083083"><ele>380.25</ele><time>2026-05-01T08:09:55.259Z</time></trkpt><trkpt lat="43.9352296" lon="11.9081212"><ele>375.5</ele><time>2026-05-01T08:09:56.258Z</time></trkpt><trkpt lat="43.9352012" lon="11.9079394"><ele>370.75</ele><time>2026-05-01T08:09:57.258Z</time></trkpt><trkpt lat="43.9351759" lon="11.9077708"><ele>366.0</ele><time>2026-05-01T08:09:58.262Z</time></trkpt><trkpt lat="43.9351486" lon="11.9076081"><ele>362.25</ele><time>2026-05-01T08:09:59.26Z</time></trkpt><trkpt lat="43.9351404" lon="11.9074066"><ele>358.5</ele><time>2026-05-01T08:10:00.259Z</time></trkpt><trkpt lat="43.9351365" lon="11.9072356"><ele>354.75</ele><time>2026-05-01T08:10:01.257Z</time></trkpt><trkpt lat="43.9351298" lon="11.9070642"><ele>351.0</ele><time>2026-05-01T08:10:02.256Z</time></trkpt><trkpt lat="43.935132" lon="11.9068599"><ele>349.5</ele><time>2026-05-01T08:10:04.266Z</time></trkpt><trkpt lat="43.9351211" lon="11.9066984"><ele>348.0</ele><time>2026-05-01T08:10:06.267Z</time></trkpt><trkpt lat="43.9351376" lon="11.9065892"><ele>346.5</ele><time>2026-05-01T08:10:08.267Z</time></trkpt><trkpt lat="43.9351088" lon="11.9065061"><ele>345.0</ele><time>2026-05-01T08:10:11.26Z</time></trkpt><trkpt lat="43.9350356" lon="11.9064808"><ele>343.5</ele><time>2026-05-01T08:10:14.267Z</time></trkpt><trkpt lat="43.9349655" lon="11.9064951"><ele>342.0</ele><time>2026-05-01T08:10:15.265Z</time></trkpt><trkpt lat="43.9348743" lon="11.9065233"><ele>346.75</ele><time>2026-05-01T08:10:16.258Z</time></trkpt><trkpt lat="43.9347562" lon="11.9065644"><ele>351.5</ele><time>2026-05-01T08:10:17.262Z</time></trkpt><trkpt lat="43.9346472" lon="11.9066086"><ele>356.25</ele><time>2026-05-01T08:10:18.26Z</time></trkpt><trkpt lat="43.9345143" lon="11.906672"><ele>361.0</ele><time>2026-05-01T08:10:19.26Z</time></trkpt><trkpt lat="43.9343704" lon="11.9067513"><ele>366.5</ele><time>2026-05-01T08:10:20.258Z</time></trkpt><trkpt lat="43.934215" lon="11.9068229"><ele>372.0</ele><time>2026-05-01T08:10:21.268Z</time></trkpt><trkpt lat="43.9341173" lon="11.90685"><ele>377.5</ele><time>2026-05-01T08:10:22.265Z</time></trkpt><trkpt lat="43.9340258" lon="11.9067973"><ele>383.0</ele><time>2026-05-01T08:10:23.26Z</time></trkpt><trkpt lat="43.9339398" lon="11.9067776"><ele>378.0</ele><time>2026-05-01T08:10:24.257Z</time></trkpt><trkpt lat="43.9338557" lon="11.9067081"><ele>373.0</ele><time>2026-05-01T08:10:25.268Z</time></trkpt><trkpt lat="43.9338256" lon="11.9065602"><ele>368.0</ele><time>2026-05-01T08:10:27.269Z</time></trkpt><trkpt lat="43.9338556" lon="11.9062788"><ele>363.0</ele><time>2026-05-01T08:10:28.26Z</time></trkpt><trkpt lat="43.9338912" lon="11.906089"><ele>363.0</ele><time>2026-05-01T08:10:29.264Z</time></trkpt><trkpt lat="43.9338942" lon="11.905929"><ele>363.0</ele><time>2026-05-01T08:10:30.259Z</time></trkpt><trkpt lat="43.9339059" lon="11.9057787"><ele>363.0</ele><time>2026-05-01T08:10:31.267Z</time></trkpt><trkpt lat="43.9338791" lon="11.9056468"><ele>363.0</ele><time>2026-05-01T08:10:32.258Z</time></trkpt><trkpt lat="43.9338048" lon="11.9055129"><ele>363.0</ele><time>2026-05-01T08:10:33.269Z</time></trkpt><trkpt lat="43.9337247" lon="11.9054179"><ele>362.0</ele><time>2026-05-01T08:10:34.268Z</time></trkpt><trkpt lat="43.9336504" lon="11.9053048"><ele>361.0</ele><time>2026-05-01T08:10:35.256Z</time></trkpt><trkpt lat="43.9335878" lon="11.905177"><ele>360.0</ele><time>2026-05-01T08:10:36.258Z</time></trkpt><trkpt lat="43.9335621" lon="11.9050359"><ele>359.0</ele><time>2026-05-01T08:10:37.267Z</time></trkpt><trkpt lat="43.9335539" lon="11.9048952"><ele>358.0</ele><time>2026-05-01T08:10:38.257Z</time></trkpt><trkpt lat="43.93354" lon="11.904762"><ele>356.66666666666663</ele><time>2026-05-01T08:10:39.27Z</time></trkpt><trkpt lat="43.9335063" lon="11.9046568"><ele>355.3333333333333</ele><time>2026-05-01T08:10:40.258Z</time></trkpt><trkpt lat="43.9334718" lon="11.9045595"><ele>354.0</ele><time>2026-05-01T08:10:41.254Z</time></trkpt><trkpt lat="43.9334086" lon="11.9044922"><ele>352.6666666666667</ele><time>2026-05-01T08:10:42.259Z</time></trkpt><trkpt lat="43.9333002" lon="11.9044896"><ele>351.33333333333337</ele><time>2026-05-01T08:10:43.259Z</time></trkpt><trkpt lat="43.9332143" lon="11.9044878"><ele>350.0</ele><time>2026-05-01T08:10:44.262Z</time></trkpt><trkpt lat="43.9330902" lon="11.904498"><ele>351.6</ele><time>2026-05-01T08:10:45.261Z</time></trkpt><trkpt lat="43.9329742" lon="11.9044949"><ele>353.2</ele><time>2026-05-01T08:10:46.255Z</time></trkpt><trkpt lat="43.9328813" lon="11.9044723"><ele>354.79999999999995</ele><time>2026-05-01T08:10:47.256Z</time></trkpt><trkpt lat="43.9327956" lon="11.9044737"><ele>356.4</ele><time>2026-05-01T08:10:48.267Z</time></trkpt><trkpt lat="43.9326853" lon="11.904328"><ele>358.0</ele><time>2026-05-01T08:10:50.268Z</time></trkpt><trkpt lat="43.9326558" lon="11.9042364"><ele>358.0</ele><time>2026-05-01T08:10:51.266Z</time></trkpt><trkpt lat="43.9326131" lon="11.9040756"><ele>358.0</ele><time>2026-05-01T08:10:52.256Z</time></trkpt><trkpt lat="43.9325852" lon="11.9039192"><ele>358.0</ele><time>2026-05-01T08:10:53.271Z</time></trkpt><trkpt lat="43.932576" lon="11.9037537"><ele>358.0</ele><time>2026-05-01T08:10:54.267Z</time></trkpt><trkpt lat="43.9326049" lon="11.9035877"><ele>358.0</ele><time>2026-05-01T08:10:55.268Z</time></trkpt><trkpt lat="43.9326405" lon="11.9034372"><ele>358.0</ele><time>2026-05-01T08:10:56.256Z</time></trkpt><trkpt lat="43.9326889" lon="11.9032825"><ele>358.0</ele><time>2026-05-01T08:10:57.253Z</time></trkpt><trkpt lat="43.9327406" lon="11.9031086"><ele>358.0</ele><time>2026-05-01T08:10:58.255Z</time></trkpt><trkpt lat="43.9327589" lon="11.9029262"><ele>355.25</ele><time>2026-05-01T08:10:59.27Z</time></trkpt><trkpt lat="43.9327829" lon="11.9027501"><ele>352.5</ele><time>2026-05-01T08:11:00.267Z</time></trkpt><trkpt lat="43.9327945" lon="11.9025705"><ele>349.75</ele><time>2026-05-01T08:11:01.262Z</time></trkpt><trkpt lat="43.9327714" lon="11.902445"><ele>347.0</ele><time>2026-05-01T08:11:02.261Z</time></trkpt><trkpt lat="43.9327143" lon="11.9023098"><ele>345.75</ele><time>2026-05-01T08:11:03.257Z</time></trkpt><trkpt lat="43.9326391" lon="11.9022296"><ele>344.5</ele><time>2026-05-01T08:11:04.269Z</time></trkpt><trkpt lat="43.9325322" lon="11.902194"><ele>343.25</ele><time>2026-05-01T08:11:05.266Z</time></trkpt><trkpt lat="43.9323952" lon="11.9021398"><ele>342.0</ele><time>2026-05-01T08:11:06.268Z</time></trkpt><trkpt lat="43.9322588" lon="11.902064"><ele>343.75</ele><time>2026-05-01T08:11:07.266Z</time></trkpt><trkpt lat="43.9321477" lon="11.9019776"><ele>345.5</ele><time>2026-05-01T08:11:08.267Z</time></trkpt><trkpt lat="43.9320428" lon="11.9018697"><ele>347.25</ele><time>2026-05-01T08:11:09.267Z</time></trkpt><trkpt lat="43.9319548" lon="11.9017544"><ele>349.0</ele><time>2026-05-01T08:11:10.257Z</time></trkpt><trkpt lat="43.9318781" lon="11.9015753"><ele>349.0</ele><time>2026-05-01T08:11:11.255Z</time></trkpt><trkpt lat="43.9318101" lon="11.9014103"><ele>349.0</ele><time>2026-05-01T08:11:12.265Z</time></trkpt><trkpt lat="43.931707" lon="11.9012636"><ele>349.0</ele><time>2026-05-01T08:11:13.254Z</time></trkpt><trkpt lat="43.9316364" lon="11.9011137"><ele>349.0</ele><time>2026-05-01T08:11:14.254Z</time></trkpt><trkpt lat="43.9315648" lon="11.9010278"><ele>351.75</ele><time>2026-05-01T08:11:15.262Z</time></trkpt><trkpt lat="43.9314766" lon="11.900943"><ele>354.5</ele><time>2026-05-01T08:11:16.268Z</time></trkpt><trkpt lat="43.9313726" lon="11.9008567"><ele>357.25</ele><time>2026-05-01T08:11:17.257Z</time></trkpt><trkpt lat="43.9312793" lon="11.9007885"><ele>360.0</ele><time>2026-05-01T08:11:18.26Z</time></trkpt><trkpt lat="43.9311679" lon="11.9007378"><ele>360.0</ele><time>2026-05-01T08:11:19.257Z</time></trkpt><trkpt lat="43.9309928" lon="11.9007542"><ele>360.0</ele><time>2026-05-01T08:11:20.269Z</time></trkpt><trkpt lat="43.9308641" lon="11.9007577"><ele>360.0</ele><time>2026-05-01T08:11:21.268Z</time></trkpt><trkpt lat="43.9307491" lon="11.9007295"><ele>360.0</ele><time>2026-05-01T08:11:22.265Z</time></trkpt><trkpt lat="43.9306325" lon="11.9006282"><ele>365.25</ele><time>2026-05-01T08:11:23.259Z</time></trkpt><trkpt lat="43.9305121" lon="11.9005334"><ele>370.5</ele><time>2026-05-01T08:11:24.268Z</time></trkpt><trkpt lat="43.9304072" lon="11.9004081"><ele>375.75</ele><time>2026-05-01T08:11:25.267Z</time></trkpt><trkpt lat="43.9303125" lon="11.9003432"><ele>381.0</ele><time>2026-05-01T08:11:26.266Z</time></trkpt><trkpt lat="43.9302215" lon="11.9002361"><ele>381.0</ele><time>2026-05-01T08:11:27.258Z</time></trkpt><trkpt lat="43.9301865" lon="11.9000903"><ele>381.0</ele><time>2026-05-01T08:11:28.267Z</time></trkpt><trkpt lat="43.9301869" lon="11.8999165"><ele>381.0</ele><time>2026-05-01T08:11:29.255Z</time></trkpt><trkpt lat="43.9301573" lon="11.8997813"><ele>381.0</ele><time>2026-05-01T08:11:30.264Z</time></trkpt><trkpt lat="43.9301087" lon="11.8996075"><ele>381.0</ele><time>2026-05-01T08:11:31.255Z</time></trkpt><trkpt lat="43.9300222" lon="11.8994617"><ele>381.0</ele><time>2026-05-01T08:11:32.254Z</time></trkpt><trkpt lat="43.929962" lon="11.8992995"><ele>381.0</ele><time>2026-05-01T08:11:33.256Z</time></trkpt><trkpt lat="43.9298818" lon="11.8991071"><ele>381.0</ele><time>2026-05-01T08:11:34.258Z</time></trkpt><trkpt lat="43.9297626" lon="11.8989232"><ele>381.0</ele><time>2026-05-01T08:11:35.263Z</time></trkpt><trkpt lat="43.9296748" lon="11.8987121"><ele>381.0</ele><time>2026-05-01T08:11:36.271Z</time></trkpt><trkpt lat="43.9295766" lon="11.898508"><ele>381.0</ele><time>2026-05-01T08:11:37.258Z</time></trkpt><trkpt lat="43.9294986" lon="11.8982868"><ele>375.6666666666667</ele><time>2026-05-01T08:11:38.26Z</time></trkpt><trkpt lat="43.9294272" lon="11.8980627"><ele>370.33333333333337</ele><time>2026-05-01T08:11:39.266Z</time></trkpt><trkpt lat="43.9293334" lon="11.8978538"><ele>365.0</ele><time>2026-05-01T08:11:40.266Z</time></trkpt><trkpt lat="43.9292743" lon="11.8977122"><ele>370.75</ele><time>2026-05-01T08:11:41.257Z</time></trkpt><trkpt lat="43.929193" lon="11.8975597"><ele>376.5</ele><time>2026-05-01T08:11:42.254Z</time></trkpt><trkpt lat="43.9291167" lon="11.8974184"><ele>382.25</ele><time>2026-05-01T08:11:43.26Z</time></trkpt><trkpt lat="43.9290474" lon="11.8972769"><ele>388.0</ele><time>2026-05-01T08:11:44.269Z</time></trkpt><trkpt lat="43.9289854" lon="11.8971199"><ele>388.0</ele><time>2026-05-01T08:11:45.257Z</time></trkpt><trkpt lat="43.9288904" lon="11.8969918"><ele>388.0</ele><time>2026-05-01T08:11:46.269Z</time></trkpt><trkpt lat="43.9287643" lon="11.8968368"><ele>388.0</ele><time>2026-05-01T08:11:47.254Z</time></trkpt><trkpt lat="43.9286305" lon="11.8967343"><ele>391.5</ele><time>2026-05-01T08:11:48.257Z</time></trkpt><trkpt lat="43.9285189" lon="11.8966377"><ele>395.0</ele><time>2026-05-01T08:11:49.266Z</time></trkpt><trkpt lat="43.9284277" lon="11.8965271"><ele>398.5</ele><time>2026-05-01T08:11:50.271Z</time></trkpt><trkpt lat="43.9283681" lon="11.8964098"><ele>402.0</ele><time>2026-05-01T08:11:51.268Z</time></trkpt><trkpt lat="43.9283236" lon="11.8962594"><ele>402.0</ele><time>2026-05-01T08:11:52.258Z</time></trkpt><trkpt lat="43.928283" lon="11.8961235"><ele>402.0</ele><time>2026-05-01T08:11:53.255Z</time></trkpt><trkpt lat="43.9282231" lon="11.8959954"><ele>402.0</ele><time>2026-05-01T08:11:54.26Z</time></trkpt><trkpt lat="43.9281737" lon="11.895824"><ele>402.0</ele><time>2026-05-01T08:11:55.26Z</time></trkpt><trkpt lat="43.928146" lon="11.895647"><ele>400.0</ele><time>2026-05-01T08:11:56.256Z</time></trkpt><trkpt lat="43.9280924" lon="11.8955037"><ele>398.0</ele><time>2026-05-01T08:11:57.253Z</time></trkpt><trkpt lat="43.9280519" lon="11.8953615"><ele>396.0</ele><time>2026-05-01T08:11:58.265Z</time></trkpt><trkpt lat="43.9280061" lon="11.8952102"><ele>394.0</ele><time>2026-05-01T08:11:59.26Z</time></trkpt><trkpt lat="43.9279309" lon="11.8950926"><ele>397.5</ele><time>2026-05-01T08:12:00.26Z</time></trkpt><trkpt lat="43.927852" lon="11.8949808"><ele>401.0</ele><time>2026-05-01T08:12:01.259Z</time></trkpt><trkpt lat="43.9277569" lon="11.8948335"><ele>404.5</ele><time>2026-05-01T08:12:02.26Z</time></trkpt><trkpt lat="43.9276526" lon="11.8946787"><ele>408.0</ele><time>2026-05-01T08:12:03.269Z</time></trkpt><trkpt lat="43.927547" lon="11.894539"><ele>408.0</ele><time>2026-05-01T08:12:04.271Z</time></trkpt><trkpt lat="43.9274569" lon="11.8944199"><ele>408.0</ele><time>2026-05-01T08:12:05.258Z</time></trkpt><trkpt lat="43.9273706" lon="11.8943019"><ele>408.0</ele><time>2026-05-01T08:12:06.272Z</time></trkpt><trkpt lat="43.9272853" lon="11.8941846"><ele>408.0</ele><time>2026-05-01T08:12:07.255Z</time></trkpt><trkpt lat="43.9271971" lon="11.894058"><ele>404.79999999999995</ele><time>2026-05-01T08:12:08.27Z</time></trkpt><trkpt lat="43.927128" lon="11.8939741"><ele>401.6</ele><time>2026-05-01T08:12:09.257Z</time></trkpt><trkpt lat="43.9270571" lon="11.8939825"><ele>398.4</ele><time>2026-05-01T08:12:10.266Z</time></trkpt><trkpt lat="43.926978" lon="11.8940182"><ele>395.20000000000005</ele><time>2026-05-01T08:12:11.265Z</time></trkpt><trkpt lat="43.9268792" lon="11.8940995"><ele>392.0</ele><time>2026-05-01T08:12:12.26Z</time></trkpt><trkpt lat="43.9268086" lon="11.894182"><ele>395.5</ele><time>2026-05-01T08:12:13.259Z</time></trkpt><trkpt lat="43.9267449" lon="11.8943038"><ele>399.0</ele><time>2026-05-01T08:12:14.267Z</time></trkpt><trkpt lat="43.9266561" lon="11.8944355"><ele>402.5</ele><time>2026-05-01T08:12:15.259Z</time></trkpt><trkpt lat="43.9265586" lon="11.8945379"><ele>406.0</ele><time>2026-05-01T08:12:16.266Z</time></trkpt><trkpt lat="43.9264736" lon="11.8946617"><ele>406.0</ele><time>2026-05-01T08:12:17.258Z</time></trkpt><trkpt lat="43.9263333" lon="11.8948048"><ele>406.0</ele><time>2026-05-01T08:12:18.253Z</time></trkpt><trkpt lat="43.9262074" lon="11.8949815"><ele>406.0</ele><time>2026-05-01T08:12:19.266Z</time></trkpt><trkpt lat="43.9260762" lon="11.8951071"><ele>404.0</ele><time>2026-05-01T08:12:20.26Z</time></trkpt><trkpt lat="43.9259388" lon="11.8952407"><ele>402.0</ele><time>2026-05-01T08:12:21.254Z</time></trkpt><trkpt lat="43.9257974" lon="11.8953572"><ele>400.0</ele><time>2026-05-01T08:12:22.257Z</time></trkpt><trkpt lat="43.925661" lon="11.8954621"><ele>400.0</ele><time>2026-05-01T08:12:23.263Z</time></trkpt><trkpt lat="43.9255477" lon="11.8955517"><ele>400.0</ele><time>2026-05-01T08:12:24.267Z</time></trkpt><trkpt lat="43.9254368" lon="11.8956157"><ele>400.0</ele><time>2026-05-01T08:12:25.259Z</time></trkpt><trkpt lat="43.9253416" lon="11.8956411"><ele>400.0</ele><time>2026-05-01T08:12:26.26Z</time></trkpt><trkpt lat="43.9252529" lon="11.8956636"><ele>400.0</ele><time>2026-05-01T08:12:27.256Z</time></trkpt><trkpt lat="43.9251566" lon="11.8956922"><ele>399.75</ele><time>2026-05-01T08:12:28.257Z</time></trkpt><trkpt lat="43.9250426" lon="11.8957743"><ele>399.5</ele><time>2026-05-01T08:12:29.26Z</time></trkpt><trkpt lat="43.924946" lon="11.8958708"><ele>399.25</ele><time>2026-05-01T08:12:30.256Z</time></trkpt><trkpt lat="43.9248686" lon="11.8960761"><ele>399.0</ele><time>2026-05-01T08:12:31.256Z</time></trkpt><trkpt lat="43.924762" lon="11.8962311"><ele>399.0</ele><time>2026-05-01T08:12:32.26Z</time></trkpt><trkpt lat="43.9246457" lon="11.8963801"><ele>399.0</ele><time>2026-05-01T08:12:33.266Z</time></trkpt><trkpt lat="43.9245337" lon="11.896498"><ele>399.0</ele><time>2026-05-01T08:12:34.267Z</time></trkpt><trkpt lat="43.9243991" lon="11.8966173"><ele>399.0</ele><time>2026-05-01T08:12:35.268Z</time></trkpt><trkpt lat="43.9242809" lon="11.8967319"><ele>399.0</ele><time>2026-05-01T08:12:36.256Z</time></trkpt><trkpt lat="43.9241753" lon="11.8968444"><ele>399.0</ele><time>2026-05-01T08:12:37.263Z</time></trkpt><trkpt lat="43.9240712" lon="11.8969692"><ele>399.0</ele><time>2026-05-01T08:12:38.264Z</time></trkpt><trkpt lat="43.9239711" lon="11.8971057"><ele>400.75</ele><time>2026-05-01T08:12:39.254Z</time></trkpt><trkpt lat="43.9238701" lon="11.8972583"><ele>402.5</ele><time>2026-05-01T08:12:40.267Z</time></trkpt><trkpt lat="43.923788" lon="11.897402"><ele>404.25</ele><time>2026-05-01T08:12:41.257Z</time></trkpt><trkpt lat="43.9236991" lon="11.8975424"><ele>406.0</ele><time>2026-05-01T08:12:42.257Z</time></trkpt><trkpt lat="43.9235863" lon="11.897652"><ele>406.0</ele><time>2026-05-01T08:12:43.253Z</time></trkpt><trkpt lat="43.9234766" lon="11.8977816"><ele>406.0</ele><time>2026-05-01T08:12:44.26Z</time></trkpt><trkpt lat="43.9233716" lon="11.8979072"><ele>406.0</ele><time>2026-05-01T08:12:45.253Z</time></trkpt><trkpt lat="43.9232428" lon="11.8980546"><ele>403.5</ele><time>2026-05-01T08:12:46.264Z</time></trkpt><trkpt lat="43.923159" lon="11.8981703"><ele>401.0</ele><time>2026-05-01T08:12:47.256Z</time></trkpt><trkpt lat="43.9230454" lon="11.8982938"><ele>398.5</ele><time>2026-05-01T08:12:48.254Z</time></trkpt><trkpt lat="43.9229439" lon="11.898414"><ele>396.0</ele><time>2026-05-01T08:12:49.253Z</time></trkpt><trkpt lat="43.9228603" lon="11.898516"><ele>396.0</ele><time>2026-05-01T08:12:50.259Z</time></trkpt><trkpt lat="43.9227813" lon="11.8986065"><ele>396.0</ele><time>2026-05-01T08:12:51.253Z</time></trkpt><trkpt lat="43.9227094" lon="11.8987389"><ele>396.0</ele><time>2026-05-01T08:12:52.259Z</time></trkpt><trkpt lat="43.9226652" lon="11.8988886"><ele>396.0</ele><time>2026-05-01T08:12:53.264Z</time></trkpt><trkpt lat="43.9226355" lon="11.8990528"><ele>396.0</ele><time>2026-05-01T08:12:54.253Z</time></trkpt><trkpt lat="43.922593" lon="11.899195"><ele>396.0</ele><time>2026-05-01T08:12:55.26Z</time></trkpt><trkpt lat="43.9225507" lon="11.8993473"><ele>396.0</ele><time>2026-05-01T08:12:56.267Z</time></trkpt><trkpt lat="43.9224954" lon="11.8994764"><ele>396.0</ele><time>2026-05-01T08:12:57.253Z</time></trkpt><trkpt lat="43.9223977" lon="11.8995561"><ele>391.75</ele><time>2026-05-01T08:12:58.254Z</time></trkpt><trkpt lat="43.9222997" lon="11.8996235"><ele>387.5</ele><time>2026-05-01T08:12:59.266Z</time></trkpt><trkpt lat="43.9221904" lon="11.8996896"><ele>383.25</ele><time>2026-05-01T08:13:00.256Z</time></trkpt><trkpt lat="43.9220536" lon="11.8997367"><ele>379.0</ele><time>2026-05-01T08:13:01.259Z</time></trkpt><trkpt lat="43.9219215" lon="11.8997374"><ele>379.0</ele><time>2026-05-01T08:13:02.257Z</time></trkpt><trkpt lat="43.9217935" lon="11.8997982"><ele>379.0</ele><time>2026-05-01T08:13:03.254Z</time></trkpt><trkpt lat="43.9216831" lon="11.8998614"><ele>379.0</ele><time>2026-05-01T08:13:04.253Z</time></trkpt><trkpt lat="43.9216134" lon="11.8999432"><ele>379.0</ele><time>2026-05-01T08:13:05.254Z</time></trkpt><trkpt lat="43.9215452" lon="11.9000524"><ele>375.75</ele><time>2026-05-01T08:13:06.266Z</time></trkpt><trkpt lat="43.9215371" lon="11.9002285"><ele>372.5</ele><time>2026-05-01T08:13:07.257Z</time></trkpt><trkpt lat="43.9215531" lon="11.9004072"><ele>369.25</ele><time>2026-05-01T08:13:08.257Z</time></trkpt><trkpt lat="43.921552" lon="11.9005803"><ele>366.0</ele><time>2026-05-01T08:13:09.265Z</time></trkpt><trkpt lat="43.9215412" lon="11.9007331"><ele>366.0</ele><time>2026-05-01T08:13:10.258Z</time></trkpt><trkpt lat="43.9215456" lon="11.900876"><ele>366.0</ele><time>2026-05-01T08:13:11.253Z</time></trkpt><trkpt lat="43.9215272" lon="11.9009982"><ele>366.0</ele><time>2026-05-01T08:13:12.261Z</time></trkpt><trkpt lat="43.9215051" lon="11.9010817"><ele>366.0</ele><time>2026-05-01T08:13:13.259Z</time></trkpt><trkpt lat="43.9213919" lon="11.9011738"><ele>366.0</ele><time>2026-05-01T08:13:14.253Z</time></trkpt><trkpt lat="43.9212988" lon="11.9012292"><ele>367.8</ele><time>2026-05-01T08:13:15.256Z</time></trkpt><trkpt lat="43.9211759" lon="11.9012706"><ele>369.6</ele><time>2026-05-01T08:13:16.255Z</time></trkpt><trkpt lat="43.9210712" lon="11.9013158"><ele>371.4</ele><time>2026-05-01T08:13:17.257Z</time></trkpt><trkpt lat="43.9210073" lon="11.9013679"><ele>373.2</ele><time>2026-05-01T08:13:18.256Z</time></trkpt><trkpt lat="43.9209072" lon="11.9014474"><ele>375.0</ele><time>2026-05-01T08:13:19.26Z</time></trkpt><trkpt lat="43.9208367" lon="11.9015416"><ele>370.5</ele><time>2026-05-01T08:13:20.26Z</time></trkpt><trkpt lat="43.920787" lon="11.9016743"><ele>366.0</ele><time>2026-05-01T08:13:21.259Z</time></trkpt><trkpt lat="43.9207331" lon="11.9018755"><ele>361.5</ele><time>2026-05-01T08:13:22.264Z</time></trkpt><trkpt lat="43.9207077" lon="11.9020791"><ele>357.0</ele><time>2026-05-01T08:13:23.253Z</time></trkpt><trkpt lat="43.9206749" lon="11.9022909"><ele>357.0</ele><time>2026-05-01T08:13:24.255Z</time></trkpt><trkpt lat="43.9206443" lon="11.9024842"><ele>357.0</ele><time>2026-05-01T08:13:25.26Z</time></trkpt><trkpt lat="43.920616" lon="11.9026985"><ele>357.0</ele><time>2026-05-01T08:13:26.256Z</time></trkpt><trkpt lat="43.9205671" lon="11.9028961"><ele>358.6</ele><time>2026-05-01T08:13:27.267Z</time></trkpt><trkpt lat="43.9205027" lon="11.9030202"><ele>360.20000000000005</ele><time>2026-05-01T08:13:28.262Z</time></trkpt><trkpt lat="43.920439" lon="11.9031378"><ele>361.8</ele><time>2026-05-01T08:13:29.266Z</time></trkpt><trkpt lat="43.9203595" lon="11.9032644"><ele>363.4</ele><time>2026-05-01T08:13:30.265Z</time></trkpt><trkpt lat="43.9202875" lon="11.9033362"><ele>365.0</ele><time>2026-05-01T08:13:31.259Z</time></trkpt><trkpt lat="43.9202061" lon="11.9033913"><ele>365.75</ele><time>2026-05-01T08:13:32.255Z</time></trkpt><trkpt lat="43.9200831" lon="11.9034152"><ele>366.5</ele><time>2026-05-01T08:13:33.266Z</time></trkpt><trkpt lat="43.9199693" lon="11.903451"><ele>367.25</ele><time>2026-05-01T08:13:34.255Z</time></trkpt><trkpt lat="43.919858" lon="11.9034944"><ele>368.0</ele><time>2026-05-01T08:13:35.252Z</time></trkpt><trkpt lat="43.9197906" lon="11.9036472"><ele>368.0</ele><time>2026-05-01T08:13:36.256Z</time></trkpt><trkpt lat="43.9197431" lon="11.9038072"><ele>368.0</ele><time>2026-05-01T08:13:37.253Z</time></trkpt><trkpt lat="43.9196824" lon="11.9039436"><ele>368.0</ele><time>2026-05-01T08:13:38.263Z</time></trkpt><trkpt lat="43.9195773" lon="11.9040826"><ele>368.0</ele><time>2026-05-01T08:13:39.267Z</time></trkpt><trkpt lat="43.9194995" lon="11.9042118"><ele>365.25</ele><time>2026-05-01T08:13:40.258Z</time></trkpt><trkpt lat="43.9194377" lon="11.9043649"><ele>362.5</ele><time>2026-05-01T08:13:41.254Z</time></trkpt><trkpt lat="43.9193822" lon="11.9045037"><ele>359.75</ele><time>2026-05-01T08:13:42.253Z</time></trkpt><trkpt lat="43.919303" lon="11.9046299"><ele>357.0</ele><time>2026-05-01T08:13:43.253Z</time></trkpt><trkpt lat="43.9191818" lon="11.904724"><ele>357.0</ele><time>2026-05-01T08:13:44.259Z</time></trkpt><trkpt lat="43.9190967" lon="11.9048114"><ele>357.0</ele><time>2026-05-01T08:13:45.267Z</time></trkpt><trkpt lat="43.9189936" lon="11.904903"><ele>357.0</ele><time>2026-05-01T08:13:46.256Z</time></trkpt><trkpt lat="43.9189058" lon="11.9050156"><ele>357.0</ele><time>2026-05-01T08:13:47.261Z</time></trkpt><trkpt lat="43.9188053" lon="11.905136"><ele>365.25</ele><time>2026-05-01T08:13:48.254Z</time></trkpt><trkpt lat="43.9187017" lon="11.9052646"><ele>373.5</ele><time>2026-05-01T08:13:49.264Z</time></trkpt><trkpt lat="43.9185978" lon="11.9053761"><ele>381.75</ele><time>2026-05-01T08:13:50.263Z</time></trkpt><trkpt lat="43.918513" lon="11.9054868"><ele>390.0</ele><time>2026-05-01T08:13:51.266Z</time></trkpt><trkpt lat="43.9184302" lon="11.9055894"><ele>390.4</ele><time>2026-05-01T08:13:52.259Z</time></trkpt><trkpt lat="43.918341" lon="11.9056846"><ele>390.8</ele><time>2026-05-01T08:13:53.257Z</time></trkpt><trkpt lat="43.9182476" lon="11.9057536"><ele>391.20000000000005</ele><time>2026-05-01T08:13:54.254Z</time></trkpt><trkpt lat="43.918181" lon="11.905836"><ele>391.6</ele><time>2026-05-01T08:13:55.26Z</time></trkpt><trkpt lat="43.918104" lon="11.9059103"><ele>392.0</ele><time>2026-05-01T08:13:56.253Z</time></trkpt><trkpt lat="43.9180345" lon="11.9059961"><ele>392.0</ele><time>2026-05-01T08:13:57.261Z</time></trkpt><trkpt lat="43.9179445" lon="11.9061063"><ele>392.0</ele><time>2026-05-01T08:13:58.254Z</time></trkpt><trkpt lat="43.9178496" lon="11.9062109"><ele>392.0</ele><time>2026-05-01T08:13:59.251Z</time></trkpt><trkpt lat="43.9177527" lon="11.9063263"><ele>392.0</ele><time>2026-05-01T08:14:00.253Z</time></trkpt><trkpt lat="43.9176153" lon="11.9064553"><ele>387.0</ele><time>2026-05-01T08:14:01.253Z</time></trkpt><trkpt lat="43.9174797" lon="11.9065639"><ele>382.0</ele><time>2026-05-01T08:14:02.257Z</time></trkpt><trkpt lat="43.9173726" lon="11.9066463"><ele>377.0</ele><time>2026-05-01T08:14:03.251Z</time></trkpt><trkpt lat="43.917289" lon="11.9067578"><ele>372.0</ele><time>2026-05-01T08:14:04.276Z</time></trkpt><trkpt lat="43.9171549" lon="11.9068179"><ele>372.0</ele><time>2026-05-01T08:14:05.254Z</time></trkpt><trkpt lat="43.9170489" lon="11.9068846"><ele>372.0</ele><time>2026-05-01T08:14:06.255Z</time></trkpt><trkpt lat="43.9169286" lon="11.9069892"><ele>372.0</ele><time>2026-05-01T08:14:07.267Z</time></trkpt><trkpt lat="43.9167631" lon="11.9070592"><ele>372.0</ele><time>2026-05-01T08:14:08.255Z</time></trkpt><trkpt lat="43.9165913" lon="11.9070844"><ele>367.3333333333333</ele><time>2026-05-01T08:14:09.26Z</time></trkpt><trkpt lat="43.9164492" lon="11.9071461"><ele>362.66666666666663</ele><time>2026-05-01T08:14:10.253Z</time></trkpt><trkpt lat="43.9162957" lon="11.9072091"><ele>358.0</ele><time>2026-05-01T08:14:11.253Z</time></trkpt><trkpt lat="43.9161327" lon="11.9072295"><ele>358.0</ele><time>2026-05-01T08:14:12.259Z</time></trkpt><trkpt lat="43.9159778" lon="11.9072537"><ele>358.0</ele><time>2026-05-01T08:14:13.255Z</time></trkpt><trkpt lat="43.9158579" lon="11.9072596"><ele>358.0</ele><time>2026-05-01T08:14:14.259Z</time></trkpt><trkpt lat="43.9157293" lon="11.9072578"><ele>358.0</ele><time>2026-05-01T08:14:15.264Z</time></trkpt><trkpt lat="43.9156521" lon="11.9073121"><ele>355.59999999999997</ele><time>2026-05-01T08:14:16.267Z</time></trkpt><trkpt lat="43.9155676" lon="11.9073504"><ele>353.2</ele><time>2026-05-01T08:14:17.265Z</time></trkpt><trkpt lat="43.9154807" lon="11.9074256"><ele>350.8</ele><time>2026-05-01T08:14:18.26Z</time></trkpt><trkpt lat="43.9153714" lon="11.9075229"><ele>348.4</ele><time>2026-05-01T08:14:19.259Z</time></trkpt><trkpt lat="43.9152982" lon="11.9075945"><ele>346.0</ele><time>2026-05-01T08:14:20.259Z</time></trkpt><trkpt lat="43.9151853" lon="11.907621"><ele>347.5</ele><time>2026-05-01T08:14:21.256Z</time></trkpt><trkpt lat="43.9150942" lon="11.9076163"><ele>349.0</ele><time>2026-05-01T08:14:22.259Z</time></trkpt><trkpt lat="43.9149607" lon="11.907609"><ele>350.5</ele><time>2026-05-01T08:14:23.251Z</time></trkpt><trkpt lat="43.9148099" lon="11.9076338"><ele>352.0</ele><time>2026-05-01T08:14:24.252Z</time></trkpt><trkpt lat="43.9146317" lon="11.9076731"><ele>352.0</ele><time>2026-05-01T08:14:25.268Z</time></trkpt><trkpt lat="43.9144693" lon="11.9077044"><ele>352.0</ele><time>2026-05-01T08:14:26.263Z</time></trkpt><trkpt lat="43.9143076" lon="11.9077558"><ele>352.0</ele><time>2026-05-01T08:14:27.267Z</time></trkpt><trkpt lat="43.9141354" lon="11.9078101"><ele>351.3333333333333</ele><time>2026-05-01T08:14:28.26Z</time></trkpt><trkpt lat="43.9139646" lon="11.9078467"><ele>350.6666666666667</ele><time>2026-05-01T08:14:29.258Z</time></trkpt><trkpt lat="43.9138011" lon="11.907879"><ele>350.0</ele><time>2026-05-01T08:14:30.268Z</time></trkpt><trkpt lat="43.9136551" lon="11.9078921"><ele>350.0</ele><time>2026-05-01T08:14:31.266Z</time></trkpt><trkpt lat="43.9135084" lon="11.907892"><ele>350.0</ele><time>2026-05-01T08:14:32.26Z</time></trkpt><trkpt lat="43.9133305" lon="11.9079013"><ele>350.0</ele><time>2026-05-01T08:14:33.253Z</time></trkpt><trkpt lat="43.9131571" lon="11.9078823"><ele>350.33333333333337</ele><time>2026-05-01T08:14:34.266Z</time></trkpt><trkpt lat="43.9129708" lon="11.9078689"><ele>350.6666666666667</ele><time>2026-05-01T08:14:35.267Z</time></trkpt><trkpt lat="43.9128062" lon="11.9078499"><ele>351.0</ele><time>2026-05-01T08:14:36.252Z</time></trkpt><trkpt lat="43.9126286" lon="11.9078565"><ele>350.5</ele><time>2026-05-01T08:14:37.266Z</time></trkpt><trkpt lat="43.9124718" lon="11.9078403"><ele>350.0</ele><time>2026-05-01T08:14:38.256Z</time></trkpt><trkpt lat="43.9123305" lon="11.9078308"><ele>349.5</ele><time>2026-05-01T08:14:39.258Z</time></trkpt><trkpt lat="43.9121827" lon="11.9078127"><ele>349.0</ele><time>2026-05-01T08:14:40.256Z</time></trkpt><trkpt lat="43.9120486" lon="11.9078068"><ele>349.0</ele><time>2026-05-01T08:14:41.27Z</time></trkpt><trkpt lat="43.9119249" lon="11.9077921"><ele>349.0</ele><time>2026-05-01T08:14:42.256Z</time></trkpt><trkpt lat="43.911798" lon="11.9077997"><ele>349.0</ele><time>2026-05-01T08:14:43.257Z</time></trkpt><trkpt lat="43.9116652" lon="11.9078328"><ele>349.0</ele><time>2026-05-01T08:14:44.265Z</time></trkpt><trkpt lat="43.9115235" lon="11.9078941"><ele>349.25</ele><time>2026-05-01T08:14:45.258Z</time></trkpt><trkpt lat="43.911391" lon="11.9079301"><ele>349.5</ele><time>2026-05-01T08:14:46.258Z</time></trkpt><trkpt lat="43.911254" lon="11.907969"><ele>349.75</ele><time>2026-05-01T08:14:47.256Z</time></trkpt><trkpt lat="43.9111053" lon="11.9080124"><ele>350.0</ele><time>2026-05-01T08:14:48.26Z</time></trkpt><trkpt lat="43.9109509" lon="11.9080315"><ele>350.25</ele><time>2026-05-01T08:14:49.253Z</time></trkpt><trkpt lat="43.9108016" lon="11.9080382"><ele>350.5</ele><time>2026-05-01T08:14:50.256Z</time></trkpt><trkpt lat="43.9106593" lon="11.9080374"><ele>350.75</ele><time>2026-05-01T08:14:51.254Z</time></trkpt><trkpt lat="43.9105074" lon="11.9080229"><ele>351.0</ele><time>2026-05-01T08:14:52.266Z</time></trkpt><trkpt lat="43.9103877" lon="11.9079812"><ele>351.0</ele><time>2026-05-01T08:14:53.254Z</time></trkpt><trkpt lat="43.910254" lon="11.9079164"><ele>351.0</ele><time>2026-05-01T08:14:54.254Z</time></trkpt><trkpt lat="43.9101411" lon="11.9078583"><ele>351.0</ele><time>2026-05-01T08:14:55.266Z</time></trkpt><trkpt lat="43.9100168" lon="11.9077549"><ele>351.0</ele><time>2026-05-01T08:14:56.266Z</time></trkpt><trkpt lat="43.9098991" lon="11.907648"><ele>348.6</ele><time>2026-05-01T08:14:57.26Z</time></trkpt><trkpt lat="43.9097896" lon="11.9075438"><ele>346.20000000000005</ele><time>2026-05-01T08:14:58.258Z</time></trkpt><trkpt lat="43.9096848" lon="11.9074347"><ele>343.79999999999995</ele><time>2026-05-01T08:14:59.265Z</time></trkpt><trkpt lat="43.9096039" lon="11.907338"><ele>341.4</ele><time>2026-05-01T08:15:00.262Z</time></trkpt><trkpt lat="43.9095656" lon="11.9072428"><ele>339.0</ele><time>2026-05-01T08:15:01.266Z</time></trkpt><trkpt lat="43.9095235" lon="11.9071345"><ele>339.0</ele><time>2026-05-01T08:15:02.266Z</time></trkpt><trkpt lat="43.9095094" lon="11.9070309"><ele>339.0</ele><time>2026-05-01T08:15:03.254Z</time></trkpt><trkpt lat="43.9095238" lon="11.9069145"><ele>339.0</ele><time>2026-05-01T08:15:04.256Z</time></trkpt><trkpt lat="43.9095777" lon="11.9067835"><ele>339.0</ele><time>2026-05-01T08:15:05.254Z</time></trkpt><trkpt lat="43.9096492" lon="11.9066344"><ele>339.0</ele><time>2026-05-01T08:15:06.266Z</time></trkpt><trkpt lat="43.9097343" lon="11.9065112"><ele>339.6</ele><time>2026-05-01T08:15:07.268Z</time></trkpt><trkpt lat="43.9098084" lon="11.9064112"><ele>340.2</ele><time>2026-05-01T08:15:08.263Z</time></trkpt><trkpt lat="43.9098895" lon="11.9063325"><ele>340.8</ele><time>2026-05-01T08:15:09.26Z</time></trkpt><trkpt lat="43.9099887" lon="11.9063926"><ele>341.40000000000003</ele><time>2026-05-01T08:15:10.267Z</time></trkpt><trkpt lat="43.9100809" lon="11.9064367"><ele>342.0</ele><time>2026-05-01T08:15:11.268Z</time></trkpt><trkpt lat="43.9101971" lon="11.9065304"><ele>343.3333333333333</ele><time>2026-05-01T08:15:12.257Z</time></trkpt><trkpt lat="43.9103488" lon="11.9066217"><ele>344.66666666666663</ele><time>2026-05-01T08:15:13.256Z</time></trkpt><trkpt lat="43.9104915" lon="11.906711"><ele>346.0</ele><time>2026-05-01T08:15:14.266Z</time></trkpt><trkpt lat="43.9106145" lon="11.9067604"><ele>346.0</ele><time>2026-05-01T08:15:15.255Z</time></trkpt><trkpt lat="43.9106791" lon="11.9067889"><ele>346.0</ele><time>2026-05-01T08:15:16.256Z</time></trkpt><trkpt lat="43.9107817" lon="11.9067427"><ele>346.0</ele><time>2026-05-01T08:15:17.258Z</time></trkpt><trkpt lat="43.9108969" lon="11.9066933"><ele>346.0</ele><time>2026-05-01T08:15:18.266Z</time></trkpt><trkpt lat="43.9110656" lon="11.9066613"><ele>344.66666666666663</ele><time>2026-05-01T08:15:19.267Z</time></trkpt><trkpt lat="43.9112311" lon="11.9065966"><ele>343.3333333333333</ele><time>2026-05-01T08:15:20.267Z</time></trkpt><trkpt lat="43.9113699" lon="11.9065488"><ele>342.0</ele><time>2026-05-01T08:15:21.256Z</time></trkpt><trkpt lat="43.9114978" lon="11.9064824"><ele>342.0</ele><time>2026-05-01T08:15:22.26Z</time></trkpt><trkpt lat="43.9116148" lon="11.9063771"><ele>342.0</ele><time>2026-05-01T08:15:23.256Z</time></trkpt><trkpt lat="43.9117371" lon="11.9062753"><ele>342.0</ele><time>2026-05-01T08:15:24.261Z</time></trkpt><trkpt lat="43.9118613" lon="11.906187"><ele>342.0</ele><time>2026-05-01T08:15:25.268Z</time></trkpt><trkpt lat="43.9120141" lon="11.9061005"><ele>341.8</ele><time>2026-05-01T08:15:26.258Z</time></trkpt><trkpt lat="43.9121815" lon="11.906107"><ele>341.6</ele><time>2026-05-01T08:15:28.265Z</time></trkpt><trkpt lat="43.912243" lon="11.9061782"><ele>341.40000000000003</ele><time>2026-05-01T08:15:29.259Z</time></trkpt><trkpt lat="43.9123266" lon="11.9062183"><ele>341.20000000000005</ele><time>2026-05-01T08:15:30.263Z</time></trkpt><trkpt lat="43.9124207" lon="11.9061891"><ele>341.0</ele><time>2026-05-01T08:15:32.266Z</time></trkpt><trkpt lat="43.9124731" lon="11.9061298"><ele>341.0</ele><time>2026-05-01T08:15:33.271Z</time></trkpt><trkpt lat="43.9124754" lon="11.9059927"><ele>341.0</ele><time>2026-05-01T08:15:35.26Z</time></trkpt><trkpt lat="43.9123679" lon="11.9058758"><ele>341.0</ele><time>2026-05-01T08:15:36.266Z</time></trkpt><trkpt lat="43.9122462" lon="11.9057559"><ele>341.0</ele><time>2026-05-01T08:15:37.257Z</time></trkpt><trkpt lat="43.9121368" lon="11.9056323"><ele>350.0</ele><time>2026-05-01T08:15:38.266Z</time></trkpt><trkpt lat="43.9120005" lon="11.9055453"><ele>359.0</ele><time>2026-05-01T08:15:39.256Z</time></trkpt><trkpt lat="43.9118142" lon="11.9054721"><ele>368.0</ele><time>2026-05-01T08:15:40.257Z</time></trkpt><trkpt lat="43.9116649" lon="11.9054354"><ele>368.33333333333337</ele><time>2026-05-01T08:15:41.27Z</time></trkpt><trkpt lat="43.9115224" lon="11.9053978"><ele>368.6666666666667</ele><time>2026-05-01T08:15:42.254Z</time></trkpt><trkpt lat="43.9113153" lon="11.9054089"><ele>369.0</ele><time>2026-05-01T08:15:43.263Z</time></trkpt><trkpt lat="43.9111402" lon="11.9054628"><ele>369.0</ele><time>2026-05-01T08:15:44.253Z</time></trkpt><trkpt lat="43.9110246" lon="11.9054639"><ele>369.0</ele><time>2026-05-01T08:15:45.265Z</time></trkpt><trkpt lat="43.9109201" lon="11.9054894"><ele>369.0</ele><time>2026-05-01T08:15:46.255Z</time></trkpt><trkpt lat="43.9108229" lon="11.9054916"><ele>369.0</ele><time>2026-05-01T08:15:47.257Z</time></trkpt><trkpt lat="43.9107248" lon="11.9054537"><ele>369.0</ele><time>2026-05-01T08:15:48.254Z</time></trkpt><trkpt lat="43.9106648" lon="11.9053387"><ele>370.0</ele><time>2026-05-01T08:15:49.263Z</time></trkpt><trkpt lat="43.9106058" lon="11.9051606"><ele>371.0</ele><time>2026-05-01T08:15:50.267Z</time></trkpt><trkpt lat="43.9105665" lon="11.9049944"><ele>372.0</ele><time>2026-05-01T08:15:51.255Z</time></trkpt><trkpt lat="43.9105549" lon="11.9048163"><ele>373.0</ele><time>2026-05-01T08:15:52.264Z</time></trkpt><trkpt lat="43.9105529" lon="11.9045694"><ele>377.75</ele><time>2026-05-01T08:15:53.26Z</time></trkpt><trkpt lat="43.9105193" lon="11.9043803"><ele>382.5</ele><time>2026-05-01T08:15:54.267Z</time></trkpt><trkpt lat="43.9105029" lon="11.9041828"><ele>387.25</ele><time>2026-05-01T08:15:55.26Z</time></trkpt><trkpt lat="43.9104711" lon="11.9039996"><ele>392.0</ele><time>2026-05-01T08:15:56.258Z</time></trkpt><trkpt lat="43.9104299" lon="11.9038287"><ele>394.0</ele><time>2026-05-01T08:15:57.267Z</time></trkpt><trkpt lat="43.9104113" lon="11.9036944"><ele>396.0</ele><time>2026-05-01T08:15:59.261Z</time></trkpt><trkpt lat="43.9104724" lon="11.9035736"><ele>398.0</ele><time>2026-05-01T08:16:01.26Z</time></trkpt><trkpt lat="43.9105697" lon="11.9036417"><ele>400.0</ele><time>2026-05-01T08:16:02.268Z</time></trkpt><trkpt lat="43.9106397" lon="11.9037474"><ele>402.0</ele><time>2026-05-01T08:16:03.258Z</time></trkpt><trkpt lat="43.9106875" lon="11.9038527"><ele>402.0</ele><time>2026-05-01T08:16:04.26Z</time></trkpt><trkpt lat="43.9107296" lon="11.9039995"><ele>402.0</ele><time>2026-05-01T08:16:05.256Z</time></trkpt><trkpt lat="43.9107824" lon="11.9041668"><ele>402.0</ele><time>2026-05-01T08:16:06.253Z</time></trkpt><trkpt lat="43.9107953" lon="11.9043179"><ele>402.0</ele><time>2026-05-01T08:16:07.267Z</time></trkpt><trkpt lat="43.9108287" lon="11.904439"><ele>402.0</ele><time>2026-05-01T08:16:08.267Z</time></trkpt><trkpt lat="43.9108677" lon="11.904537"><ele>402.8333333333333</ele><time>2026-05-01T08:16:09.256Z</time></trkpt><trkpt lat="43.9109086" lon="11.9046178"><ele>403.66666666666663</ele><time>2026-05-01T08:16:10.262Z</time></trkpt><trkpt lat="43.9109749" lon="11.9046887"><ele>404.5</ele><time>2026-05-01T08:16:11.26Z</time></trkpt><trkpt lat="43.9110544" lon="11.904666"><ele>405.3333333333333</ele><time>2026-05-01T08:16:13.256Z</time></trkpt><trkpt lat="43.9110583" lon="11.904504"><ele>406.16666666666663</ele><time>2026-05-01T08:16:14.267Z</time></trkpt><trkpt lat="43.9110465" lon="11.9043759"><ele>407.0</ele><time>2026-05-01T08:16:15.255Z</time></trkpt><trkpt lat="43.9110179" lon="11.9041884"><ele>407.0</ele><time>2026-05-01T08:16:16.265Z</time></trkpt><trkpt lat="43.9109902" lon="11.9040235"><ele>407.0</ele><time>2026-05-01T08:16:17.255Z</time></trkpt><trkpt lat="43.9109603" lon="11.9038044"><ele>407.0</ele><time>2026-05-01T08:16:18.253Z</time></trkpt><trkpt lat="43.9109268" lon="11.9035927"><ele>407.0</ele><time>2026-05-01T08:16:19.254Z</time></trkpt><trkpt lat="43.9109092" lon="11.9033803"><ele>408.0</ele><time>2026-05-01T08:16:20.259Z</time></trkpt><trkpt lat="43.9108808" lon="11.9031517"><ele>409.0</ele><time>2026-05-01T08:16:21.258Z</time></trkpt><trkpt lat="43.9108426" lon="11.902936"><ele>410.0</ele><time>2026-05-01T08:16:22.254Z</time></trkpt><trkpt lat="43.9107986" lon="11.9027231"><ele>413.75</ele><time>2026-05-01T08:16:23.253Z</time></trkpt><trkpt lat="43.9107552" lon="11.9025609"><ele>417.5</ele><time>2026-05-01T08:16:24.253Z</time></trkpt><trkpt lat="43.9106591" lon="11.9024053"><ele>421.25</ele><time>2026-05-01T08:16:25.257Z</time></trkpt><trkpt lat="43.9105901" lon="11.9022837"><ele>425.0</ele><time>2026-05-01T08:16:26.268Z</time></trkpt><trkpt lat="43.9105153" lon="11.9022258"><ele>424.99999999999994</ele><time>2026-05-01T08:16:27.253Z</time></trkpt><trkpt lat="43.9104503" lon="11.9022274"><ele>425.0</ele><time>2026-05-01T08:16:28.26Z</time></trkpt><trkpt lat="43.91033" lon="11.9022381"><ele>425.0</ele><time>2026-05-01T08:16:30.253Z</time></trkpt><trkpt lat="43.9102661" lon="11.9022988"><ele>425.0</ele><time>2026-05-01T08:16:32.256Z</time></trkpt><trkpt lat="43.9102528" lon="11.9023969"><ele>424.99999999999994</ele><time>2026-05-01T08:17:38.251Z</time></trkpt><trkpt lat="43.9101932" lon="11.9024498"><ele>425.0</ele><time>2026-05-01T08:18:13.269Z</time></trkpt><trkpt lat="43.9101294" lon="11.9025429"><ele>422.8</ele><time>2026-05-01T08:18:14.26Z</time></trkpt><trkpt lat="43.9100673" lon="11.9026299"><ele>420.6</ele><time>2026-05-01T08:18:15.254Z</time></trkpt><trkpt lat="43.9100021" lon="11.9027102"><ele>418.4</ele><time>2026-05-01T08:18:16.267Z</time></trkpt><trkpt lat="43.9099172" lon="11.9028409"><ele>416.2</ele><time>2026-05-01T08:18:17.252Z</time></trkpt><trkpt lat="43.9098509" lon="11.9029473"><ele>414.0</ele><time>2026-05-01T08:18:18.258Z</time></trkpt><trkpt lat="43.9097849" lon="11.9030472"><ele>414.0</ele><time>2026-05-01T08:18:19.259Z</time></trkpt><trkpt lat="43.9096576" lon="11.9030196"><ele>414.0</ele><time>2026-05-01T08:18:20.265Z</time></trkpt><trkpt lat="43.9095783" lon="11.9030188"><ele>414.0</ele><time>2026-05-01T08:18:21.267Z</time></trkpt><trkpt lat="43.9094812" lon="11.9029443"><ele>414.0</ele><time>2026-05-01T08:18:22.253Z</time></trkpt><trkpt lat="43.9093823" lon="11.9028974"><ele>414.0</ele><time>2026-05-01T08:18:23.268Z</time></trkpt><trkpt lat="43.909267" lon="11.9028386"><ele>415.5</ele><time>2026-05-01T08:18:24.265Z</time></trkpt><trkpt lat="43.9091403" lon="11.9027527"><ele>417.0</ele><time>2026-05-01T08:18:25.265Z</time></trkpt><trkpt lat="43.9090353" lon="11.9026796"><ele>418.5</ele><time>2026-05-01T08:18:26.264Z</time></trkpt><trkpt lat="43.908951" lon="11.9025907"><ele>420.0</ele><time>2026-05-01T08:18:27.267Z</time></trkpt><trkpt lat="43.9088738" lon="11.9025065"><ele>422.6666666666667</ele><time>2026-05-01T08:18:28.256Z</time></trkpt><trkpt lat="43.9088001" lon="11.9024524"><ele>425.33333333333337</ele><time>2026-05-01T08:18:29.256Z</time></trkpt><trkpt lat="43.9087356" lon="11.9024156"><ele>428.0</ele><time>2026-05-01T08:18:30.254Z</time></trkpt><trkpt lat="43.908671" lon="11.9024015"><ele>430.6666666666667</ele><time>2026-05-01T08:18:31.267Z</time></trkpt><trkpt lat="43.9085794" lon="11.9024236"><ele>433.33333333333337</ele><time>2026-05-01T08:18:32.255Z</time></trkpt><trkpt lat="43.9084835" lon="11.9024635"><ele>436.0</ele><time>2026-05-01T08:18:33.266Z</time></trkpt><trkpt lat="43.9083558" lon="11.9025567"><ele>432.6666666666667</ele><time>2026-05-01T08:18:34.254Z</time></trkpt><trkpt lat="43.908229" lon="11.9026947"><ele>429.33333333333337</ele><time>2026-05-01T08:18:35.265Z</time></trkpt><trkpt lat="43.9081197" lon="11.902833"><ele>426.0</ele><time>2026-05-01T08:18:36.267Z</time></trkpt><trkpt lat="43.9079887" lon="11.9029959"><ele>426.0</ele><time>2026-05-01T08:18:37.256Z</time></trkpt><trkpt lat="43.9078604" lon="11.9031439"><ele>426.0</ele><time>2026-05-01T08:18:38.256Z</time></trkpt><trkpt lat="43.9077322" lon="11.9032858"><ele>426.0</ele><time>2026-05-01T08:18:39.265Z</time></trkpt><trkpt lat="43.907631" lon="11.9033991"><ele>427.75</ele><time>2026-05-01T08:18:40.259Z</time></trkpt><trkpt lat="43.9075104" lon="11.9035208"><ele>429.5</ele><time>2026-05-01T08:18:41.256Z</time></trkpt><trkpt lat="43.9073926" lon="11.9036186"><ele>431.25</ele><time>2026-05-01T08:18:42.264Z</time></trkpt><trkpt lat="43.9072757" lon="11.9036948"><ele>433.0</ele><time>2026-05-01T08:18:43.259Z</time></trkpt><trkpt lat="43.9072137" lon="11.9037422"><ele>433.0</ele><time>2026-05-01T08:18:44.264Z</time></trkpt><trkpt lat="43.907134" lon="11.9038048"><ele>432.99999999999994</ele><time>2026-05-01T08:18:45.268Z</time></trkpt><trkpt lat="43.9070415" lon="11.9037552"><ele>432.99999999999994</ele><time>2026-05-01T08:18:47.252Z</time></trkpt><trkpt lat="43.9069734" lon="11.9036514"><ele>433.0</ele><time>2026-05-01T08:18:49.253Z</time></trkpt><trkpt lat="43.907035" lon="11.9035018"><ele>433.0</ele><time>2026-05-01T08:18:51.274Z</time></trkpt><trkpt lat="43.9071134" lon="11.9034222"><ele>436.79999999999995</ele><time>2026-05-01T08:18:52.26Z</time></trkpt><trkpt lat="43.907206" lon="11.9033095"><ele>440.59999999999997</ele><time>2026-05-01T08:18:53.255Z</time></trkpt><trkpt lat="43.9072812" lon="11.9032481"><ele>444.40000000000003</ele><time>2026-05-01T08:18:54.267Z</time></trkpt><trkpt lat="43.9073467" lon="11.9031931"><ele>448.20000000000005</ele><time>2026-05-01T08:18:55.267Z</time></trkpt><trkpt lat="43.9074008" lon="11.9031054"><ele>452.0</ele><time>2026-05-01T08:18:56.255Z</time></trkpt><trkpt lat="43.9074757" lon="11.9030213"><ele>452.0</ele><time>2026-05-01T08:18:57.261Z</time></trkpt><trkpt lat="43.9075257" lon="11.90293"><ele>452.00000000000006</ele><time>2026-05-01T08:18:58.256Z</time></trkpt><trkpt lat="43.9075708" lon="11.9028397"><ele>452.00000000000006</ele><time>2026-05-01T08:18:59.255Z</time></trkpt><trkpt lat="43.9074482" lon="11.9028856"><ele>452.0</ele><time>2026-05-01T08:19:01.269Z</time></trkpt><trkpt lat="43.9073179" lon="11.9029712"><ele>452.0</ele><time>2026-05-01T08:19:02.267Z</time></trkpt><trkpt lat="43.9072068" lon="11.903041"><ele>452.0</ele><time>2026-05-01T08:19:03.258Z</time></trkpt><trkpt lat="43.9071107" lon="11.9031424"><ele>452.0</ele><time>2026-05-01T08:19:04.266Z</time></trkpt><trkpt lat="43.9069611" lon="11.903185"><ele>452.0</ele><time>2026-05-01T08:19:05.259Z</time></trkpt><trkpt lat="43.9068511" lon="11.9032459"><ele>452.0</ele><time>2026-05-01T08:19:06.258Z</time></trkpt><trkpt lat="43.9067047" lon="11.9032063"><ele>455.25</ele><time>2026-05-01T08:19:07.267Z</time></trkpt><trkpt lat="43.9065766" lon="11.9032545"><ele>458.5</ele><time>2026-05-01T08:19:08.256Z</time></trkpt><trkpt lat="43.9064714" lon="11.9032144"><ele>461.75</ele><time>2026-05-01T08:19:09.26Z</time></trkpt><trkpt lat="43.9063565" lon="11.903166"><ele>465.0</ele><time>2026-05-01T08:19:10.266Z</time></trkpt><trkpt lat="43.9062322" lon="11.9031315"><ele>465.0</ele><time>2026-05-01T08:19:11.26Z</time></trkpt><trkpt lat="43.9061211" lon="11.9030652"><ele>465.0</ele><time>2026-05-01T08:19:12.27Z</time></trkpt><trkpt lat="43.9060449" lon="11.9029859"><ele>465.0</ele><time>2026-05-01T08:19:13.252Z</time></trkpt><trkpt lat="43.9059577" lon="11.9029401"><ele>465.0</ele><time>2026-05-01T08:19:14.263Z</time></trkpt><trkpt lat="43.905874" lon="11.9029232"><ele>465.0</ele><time>2026-05-01T08:19:15.256Z</time></trkpt><trkpt lat="43.9057659" lon="11.9029663"><ele>470.5</ele><time>2026-05-01T08:19:16.253Z</time></trkpt><trkpt lat="43.9057024" lon="11.9030055"><ele>476.0</ele><time>2026-05-01T08:19:17.267Z</time></trkpt><trkpt lat="43.9056413" lon="11.9031971"><ele>481.5</ele><time>2026-05-01T08:19:19.255Z</time></trkpt><trkpt lat="43.9056324" lon="11.9033408"><ele>487.0</ele><time>2026-05-01T08:19:20.267Z</time></trkpt><trkpt lat="43.9056559" lon="11.9035202"><ele>489.75</ele><time>2026-05-01T08:19:21.256Z</time></trkpt><trkpt lat="43.905716" lon="11.9036896"><ele>492.5</ele><time>2026-05-01T08:19:22.255Z</time></trkpt><trkpt lat="43.9057793" lon="11.9038471"><ele>495.25</ele><time>2026-05-01T08:19:23.266Z</time></trkpt><trkpt lat="43.9058681" lon="11.9039974"><ele>498.0</ele><time>2026-05-01T08:19:24.266Z</time></trkpt><trkpt lat="43.9058981" lon="11.9042323"><ele>483.75</ele><time>2026-05-01T08:19:25.279Z</time></trkpt><trkpt lat="43.9059518" lon="11.9043733"><ele>469.5</ele><time>2026-05-01T08:19:26.263Z</time></trkpt><trkpt lat="43.9059913" lon="11.9045192"><ele>455.25</ele><time>2026-05-01T08:19:27.261Z</time></trkpt><trkpt lat="43.9060355" lon="11.9046932"><ele>441.0</ele><time>2026-05-01T08:19:28.264Z</time></trkpt><trkpt lat="43.9060575" lon="11.9048166"><ele>441.0</ele><time>2026-05-01T08:19:29.266Z</time></trkpt><trkpt lat="43.906069" lon="11.9049578"><ele>441.0</ele><time>2026-05-01T08:19:30.267Z</time></trkpt><trkpt lat="43.9060854" lon="11.9051141"><ele>441.0</ele><time>2026-05-01T08:19:31.254Z</time></trkpt><trkpt lat="43.9060754" lon="11.9052609"><ele>441.0</ele><time>2026-05-01T08:19:32.258Z</time></trkpt><trkpt lat="43.9060272" lon="11.9054245"><ele>440.75</ele><time>2026-05-01T08:19:33.266Z</time></trkpt><trkpt lat="43.9059887" lon="11.9055886"><ele>440.5</ele><time>2026-05-01T08:19:34.256Z</time></trkpt><trkpt lat="43.9059321" lon="11.9057185"><ele>440.25</ele><time>2026-05-01T08:19:35.256Z</time></trkpt><trkpt lat="43.9058567" lon="11.9058569"><ele>440.0</ele><time>2026-05-01T08:19:36.259Z</time></trkpt><trkpt lat="43.9057322" lon="11.9059579"><ele>449.75</ele><time>2026-05-01T08:19:37.256Z</time></trkpt><trkpt lat="43.9056472" lon="11.9060625"><ele>459.5</ele><time>2026-05-01T08:19:38.265Z</time></trkpt><trkpt lat="43.9055826" lon="11.9061763"><ele>469.25</ele><time>2026-05-01T08:19:39.275Z</time></trkpt><trkpt lat="43.9054661" lon="11.9062614"><ele>479.0</ele><time>2026-05-01T08:19:40.255Z</time></trkpt><trkpt lat="43.9053601" lon="11.9063385"><ele>479.0</ele><time>2026-05-01T08:19:41.261Z</time></trkpt><trkpt lat="43.9052164" lon="11.9063967"><ele>479.0</ele><time>2026-05-01T08:19:42.266Z</time></trkpt><trkpt lat="43.9050669" lon="11.9064482"><ele>479.0</ele><time>2026-05-01T08:19:43.266Z</time></trkpt><trkpt lat="43.9049258" lon="11.9064774"><ele>479.0</ele><time>2026-05-01T08:19:44.265Z</time></trkpt><trkpt lat="43.9047643" lon="11.9065339"><ele>483.25</ele><time>2026-05-01T08:19:45.263Z</time></trkpt><trkpt lat="43.9046368" lon="11.9065898"><ele>487.5</ele><time>2026-05-01T08:19:46.267Z</time></trkpt><trkpt lat="43.9045061" lon="11.9066673"><ele>491.75</ele><time>2026-05-01T08:19:47.253Z</time></trkpt><trkpt lat="43.9044095" lon="11.9067215"><ele>496.0</ele><time>2026-05-01T08:19:48.256Z</time></trkpt><trkpt lat="43.9042934" lon="11.9067812"><ele>497.4</ele><time>2026-05-01T08:19:49.268Z</time></trkpt><trkpt lat="43.9041769" lon="11.9068139"><ele>498.8</ele><time>2026-05-01T08:19:50.266Z</time></trkpt><trkpt lat="43.9040746" lon="11.9067716"><ele>500.19999999999993</ele><time>2026-05-01T08:19:51.269Z</time></trkpt><trkpt lat="43.9039721" lon="11.9067468"><ele>501.59999999999997</ele><time>2026-05-01T08:19:52.267Z</time></trkpt><trkpt lat="43.9038618" lon="11.9066989"><ele>503.0</ele><time>2026-05-01T08:19:53.253Z</time></trkpt><trkpt lat="43.9036993" lon="11.9066066"><ele>503.0</ele><time>2026-05-01T08:19:54.254Z</time></trkpt><trkpt lat="43.9035445" lon="11.9065165"><ele>503.0</ele><time>2026-05-01T08:19:55.271Z</time></trkpt><trkpt lat="43.9033947" lon="11.9064579"><ele>503.0</ele><time>2026-05-01T08:19:56.266Z</time></trkpt><trkpt lat="43.9032274" lon="11.9064297"><ele>500.75</ele><time>2026-05-01T08:19:57.26Z</time></trkpt><trkpt lat="43.9030889" lon="11.9063876"><ele>498.5</ele><time>2026-05-01T08:19:58.269Z</time></trkpt><trkpt lat="43.9029546" lon="11.906377"><ele>496.25</ele><time>2026-05-01T08:19:59.255Z</time></trkpt><trkpt lat="43.9028384" lon="11.9063336"><ele>494.0</ele><time>2026-05-01T08:20:00.256Z</time></trkpt><trkpt lat="43.9027119" lon="11.9062989"><ele>494.0</ele><time>2026-05-01T08:20:01.268Z</time></trkpt><trkpt lat="43.9026068" lon="11.9062398"><ele>494.0</ele><time>2026-05-01T08:20:02.258Z</time></trkpt><trkpt lat="43.9025055" lon="11.9061272"><ele>494.0</ele><time>2026-05-01T08:20:03.262Z</time></trkpt><trkpt lat="43.9024276" lon="11.9059571"><ele>494.0</ele><time>2026-05-01T08:20:04.251Z</time></trkpt><trkpt lat="43.9023506" lon="11.9058094"><ele>494.75</ele><time>2026-05-01T08:20:05.259Z</time></trkpt><trkpt lat="43.9022662" lon="11.905644"><ele>495.5</ele><time>2026-05-01T08:20:06.255Z</time></trkpt><trkpt lat="43.9021868" lon="11.9055142"><ele>496.25</ele><time>2026-05-01T08:20:07.257Z</time></trkpt><trkpt lat="43.9021094" lon="11.9053754"><ele>497.0</ele><time>2026-05-01T08:20:08.258Z</time></trkpt><trkpt lat="43.9020379" lon="11.9052486"><ele>497.0</ele><time>2026-05-01T08:20:09.26Z</time></trkpt><trkpt lat="43.9019672" lon="11.905124"><ele>497.00000000000006</ele><time>2026-05-01T08:20:10.266Z</time></trkpt><trkpt lat="43.9019101" lon="11.9050261"><ele>497.00000000000006</ele><time>2026-05-01T08:20:11.266Z</time></trkpt><trkpt lat="43.9018246" lon="11.9049255"><ele>497.0</ele><time>2026-05-01T08:20:12.266Z</time></trkpt><trkpt lat="43.9017197" lon="11.9048664"><ele>497.0</ele><time>2026-05-01T08:20:13.257Z</time></trkpt><trkpt lat="43.9016117" lon="11.9048076"><ele>497.0</ele><time>2026-05-01T08:20:14.264Z</time></trkpt><trkpt lat="43.9015032" lon="11.9047466"><ele>497.0</ele><time>2026-05-01T08:20:15.267Z</time></trkpt><trkpt lat="43.9013861" lon="11.9047014"><ele>497.0</ele><time>2026-05-01T08:20:16.257Z</time></trkpt><trkpt lat="43.9012408" lon="11.9046502"><ele>497.0</ele><time>2026-05-01T08:20:17.254Z</time></trkpt><trkpt lat="43.901121" lon="11.9045961"><ele>497.0</ele><time>2026-05-01T08:20:18.26Z</time></trkpt><trkpt lat="43.9009957" lon="11.9045531"><ele>497.00000000000006</ele><time>2026-05-01T08:20:19.255Z</time></trkpt><trkpt lat="43.9008736" lon="11.9045215"><ele>497.00000000000006</ele><time>2026-05-01T08:20:20.265Z</time></trkpt><trkpt lat="43.9007754" lon="11.9044746"><ele>497.0</ele><time>2026-05-01T08:20:21.256Z</time></trkpt><trkpt lat="43.9006882" lon="11.904446"><ele>497.0</ele><time>2026-05-01T08:20:22.256Z</time></trkpt><trkpt lat="43.9005935" lon="11.9044182"><ele>497.40000000000003</ele><time>2026-05-01T08:20:23.254Z</time></trkpt><trkpt lat="43.9005004" lon="11.9043934"><ele>497.80000000000007</ele><time>2026-05-01T08:20:24.266Z</time></trkpt><trkpt lat="43.9004127" lon="11.9043493"><ele>498.2</ele><time>2026-05-01T08:20:25.256Z</time></trkpt><trkpt lat="43.9003008" lon="11.9043162"><ele>498.6</ele><time>2026-05-01T08:20:26.276Z</time></trkpt><trkpt lat="43.9002093" lon="11.9042886"><ele>499.0</ele><time>2026-05-01T08:20:27.259Z</time></trkpt><trkpt lat="43.9001323" lon="11.9042539"><ele>499.57142857142867</ele><time>2026-05-01T08:20:28.267Z</time></trkpt><trkpt lat="43.9000727" lon="11.9042151"><ele>500.14285714285717</ele><time>2026-05-01T08:20:29.256Z</time></trkpt><trkpt lat="43.899998" lon="11.9041685"><ele>500.7142857142858</ele><time>2026-05-01T08:20:31.268Z</time></trkpt><trkpt lat="43.8999265" lon="11.9041547"><ele>501.28571428571433</ele><time>2026-05-01T08:20:33.26Z</time></trkpt><trkpt lat="43.8998632" lon="11.9041671"><ele>501.8571428571429</ele><time>2026-05-01T08:20:36.256Z</time></trkpt><trkpt lat="43.8998497" lon="11.9040749"><ele>502.42857142857144</ele><time>2026-05-01T08:21:51.253Z</time></trkpt><trkpt lat="43.8998236" lon="11.9041555"><ele>503.0</ele><time>2026-05-01T08:23:08.261Z</time></trkpt><trkpt lat="43.8998696" lon="11.9042263"><ele>502.99999999999994</ele><time>2026-05-01T08:28:16.26Z</time></trkpt><trkpt lat="43.8998018" lon="11.9042285"><ele>503.0</ele><time>2026-05-01T08:30:06.251Z</time></trkpt><trkpt lat="43.899868" lon="11.9042286"><ele>503.0</ele><time>2026-05-01T08:30:11.261Z</time></trkpt><trkpt lat="43.8999139" lon="11.9041325"><ele>503.0</ele><time>2026-05-01T08:31:10.266Z</time></trkpt><trkpt lat="43.8998929" lon="11.9040133"><ele>502.99999999999994</ele><time>2026-05-01T08:31:12.25Z</time></trkpt><trkpt lat="43.8998456" lon="11.9039075"><ele>503.0</ele><time>2026-05-01T08:31:13.268Z</time></trkpt><trkpt lat="43.8997666" lon="11.9037734"><ele>503.0</ele><time>2026-05-01T08:31:15.26Z</time></trkpt><trkpt lat="43.899703" lon="11.9036245"><ele>502.99999999999994</ele><time>2026-05-01T08:31:17.256Z</time></trkpt><trkpt lat="43.8996654" lon="11.9035131"><ele>502.99999999999994</ele><time>2026-05-01T08:31:18.261Z</time></trkpt><trkpt lat="43.8996327" lon="11.9034301"><ele>503.0</ele><time>2026-05-01T08:31:19.259Z</time></trkpt><trkpt lat="43.8995918" lon="11.9032604"><ele>503.0</ele><time>2026-05-01T08:31:21.269Z</time></trkpt><trkpt lat="43.8995772" lon="11.9031599"><ele>505.0</ele><time>2026-05-01T08:31:22.259Z</time></trkpt><trkpt lat="43.8995395" lon="11.9030363"><ele>506.99999999999994</ele><time>2026-05-01T08:31:23.256Z</time></trkpt><trkpt lat="43.8995337" lon="11.9028948"><ele>508.99999999999994</ele><time>2026-05-01T08:31:24.256Z</time></trkpt><trkpt lat="43.8995079" lon="11.9027463"><ele>511.0</ele><time>2026-05-01T08:31:25.266Z</time></trkpt><trkpt lat="43.8994723" lon="11.9026021"><ele>513.0</ele><time>2026-05-01T08:31:26.266Z</time></trkpt><trkpt lat="43.8994384" lon="11.9024494"><ele>514.1999999999999</ele><time>2026-05-01T08:31:27.258Z</time></trkpt><trkpt lat="43.8994" lon="11.9023227"><ele>515.4</ele><time>2026-05-01T08:31:28.257Z</time></trkpt><trkpt lat="43.8993737" lon="11.9021704"><ele>516.5999999999999</ele><time>2026-05-01T08:31:29.266Z</time></trkpt><trkpt lat="43.8993524" lon="11.9020296"><ele>517.8</ele><time>2026-05-01T08:31:30.259Z</time></trkpt><trkpt lat="43.8993062" lon="11.9019386"><ele>519.0</ele><time>2026-05-01T08:31:31.253Z</time></trkpt><trkpt lat="43.8992713" lon="11.9018423"><ele>517.1666666666666</ele><time>2026-05-01T08:31:32.267Z</time></trkpt><trkpt lat="43.8992143" lon="11.9017258"><ele>515.3333333333334</ele><time>2026-05-01T08:31:33.255Z</time></trkpt><trkpt lat="43.8991538" lon="11.9016414"><ele>513.5</ele><time>2026-05-01T08:31:34.256Z</time></trkpt><trkpt lat="43.899084" lon="11.9015514"><ele>511.6666666666667</ele><time>2026-05-01T08:31:35.263Z</time></trkpt><trkpt lat="43.8990105" lon="11.9014897"><ele>509.83333333333337</ele><time>2026-05-01T08:31:36.253Z</time></trkpt><trkpt lat="43.8989516" lon="11.9014517"><ele>508.0</ele><time>2026-05-01T08:31:37.262Z</time></trkpt><trkpt lat="43.8988296" lon="11.9014725"><ele>508.0</ele><time>2026-05-01T08:31:39.252Z</time></trkpt><trkpt lat="43.8987199" lon="11.9016378"><ele>508.0</ele><time>2026-05-01T08:31:40.272Z</time></trkpt><trkpt lat="43.8985732" lon="11.901824"><ele>508.0</ele><time>2026-05-01T08:31:41.256Z</time></trkpt><trkpt lat="43.8984633" lon="11.9019051"><ele>502.25</ele><time>2026-05-01T08:31:42.254Z</time></trkpt><trkpt lat="43.8983276" lon="11.9019966"><ele>496.5</ele><time>2026-05-01T08:31:43.259Z</time></trkpt><trkpt lat="43.8982086" lon="11.9020864"><ele>490.75</ele><time>2026-05-01T08:31:44.256Z</time></trkpt><trkpt lat="43.8980771" lon="11.9021622"><ele>485.0</ele><time>2026-05-01T08:31:45.251Z</time></trkpt><trkpt lat="43.8979567" lon="11.9022556"><ele>485.0</ele><time>2026-05-01T08:31:46.265Z</time></trkpt><trkpt lat="43.8978748" lon="11.9023092"><ele>485.0</ele><time>2026-05-01T08:31:47.255Z</time></trkpt><trkpt lat="43.8977771" lon="11.9023511"><ele>485.0</ele><time>2026-05-01T08:31:48.265Z</time></trkpt><trkpt lat="43.8976778" lon="11.9023471"><ele>485.0</ele><time>2026-05-01T08:31:49.253Z</time></trkpt><trkpt lat="43.8975846" lon="11.9023681"><ele>485.0</ele><time>2026-05-01T08:31:50.252Z</time></trkpt><trkpt lat="43.8975105" lon="11.9023938"><ele>485.49999999999994</ele><time>2026-05-01T08:31:51.255Z</time></trkpt><trkpt lat="43.8974415" lon="11.902371"><ele>486.0</ele><time>2026-05-01T08:31:52.259Z</time></trkpt><trkpt lat="43.8973827" lon="11.9023341"><ele>486.5</ele><time>2026-05-01T08:31:53.256Z</time></trkpt><trkpt lat="43.8972867" lon="11.9023014"><ele>487.0</ele><time>2026-05-01T08:31:54.267Z</time></trkpt><trkpt lat="43.8972217" lon="11.9022703"><ele>487.49999999999994</ele><time>2026-05-01T08:31:55.259Z</time></trkpt><trkpt lat="43.8971572" lon="11.9021635"><ele>488.0</ele><time>2026-05-01T08:31:57.265Z</time></trkpt><trkpt lat="43.8970834" lon="11.9020642"><ele>487.99999999999994</ele><time>2026-05-01T08:31:59.26Z</time></trkpt><trkpt lat="43.8970393" lon="11.9019889"><ele>488.0</ele><time>2026-05-01T08:32:00.258Z</time></trkpt><trkpt lat="43.896982" lon="11.9019121"><ele>488.0</ele><time>2026-05-01T08:32:01.253Z</time></trkpt><trkpt lat="43.8969241" lon="11.9018412"><ele>488.0</ele><time>2026-05-01T08:32:02.264Z</time></trkpt><trkpt lat="43.8968701" lon="11.9017727"><ele>487.99999999999994</ele><time>2026-05-01T08:32:03.259Z</time></trkpt><trkpt lat="43.8968141" lon="11.9016883"><ele>488.0</ele><time>2026-05-01T08:32:04.264Z</time></trkpt><trkpt lat="43.8967648" lon="11.9016035"><ele>488.99999999999994</ele><time>2026-05-01T08:32:05.255Z</time></trkpt><trkpt lat="43.896737" lon="11.9014912"><ele>490.0</ele><time>2026-05-01T08:32:06.256Z</time></trkpt><trkpt lat="43.8966784" lon="11.9013877"><ele>491.0</ele><time>2026-05-01T08:32:07.251Z</time></trkpt><trkpt lat="43.8966429" lon="11.901297"><ele>492.0</ele><time>2026-05-01T08:32:08.256Z</time></trkpt><trkpt lat="43.8966118" lon="11.9011809"><ele>492.99999999999994</ele><time>2026-05-01T08:32:09.269Z</time></trkpt><trkpt lat="43.8965443" lon="11.9010823"><ele>494.0</ele><time>2026-05-01T08:32:10.265Z</time></trkpt><trkpt lat="43.8965174" lon="11.9009899"><ele>494.0</ele><time>2026-05-01T08:32:11.259Z</time></trkpt><trkpt lat="43.8964148" lon="11.9009533"><ele>494.0</ele><time>2026-05-01T08:32:12.269Z</time></trkpt><trkpt lat="43.8963357" lon="11.9009029"><ele>494.0</ele><time>2026-05-01T08:32:13.256Z</time></trkpt><trkpt lat="43.8962529" lon="11.9008498"><ele>494.0</ele><time>2026-05-01T08:32:14.265Z</time></trkpt><trkpt lat="43.8961989" lon="11.9007295"><ele>494.0</ele><time>2026-05-01T08:32:15.259Z</time></trkpt><trkpt lat="43.89613" lon="11.900651"><ele>496.0</ele><time>2026-05-01T08:32:16.27Z</time></trkpt><trkpt lat="43.8960633" lon="11.9005746"><ele>498.0</ele><time>2026-05-01T08:32:17.26Z</time></trkpt><trkpt lat="43.8960015" lon="11.9004808"><ele>500.0</ele><time>2026-05-01T08:32:18.254Z</time></trkpt><trkpt lat="43.8958972" lon="11.9003671"><ele>502.0</ele><time>2026-05-01T08:32:19.283Z</time></trkpt><trkpt lat="43.8958269" lon="11.9002672"><ele>504.0</ele><time>2026-05-01T08:32:20.261Z</time></trkpt><trkpt lat="43.8957488" lon="11.90016"><ele>508.4</ele><time>2026-05-01T08:32:21.264Z</time></trkpt><trkpt lat="43.8956608" lon="11.9000352"><ele>512.8</ele><time>2026-05-01T08:32:22.258Z</time></trkpt><trkpt lat="43.8955806" lon="11.8999324"><ele>517.2</ele><time>2026-05-01T08:32:23.258Z</time></trkpt><trkpt lat="43.8954741" lon="11.8999007"><ele>521.6</ele><time>2026-05-01T08:32:24.265Z</time></trkpt><trkpt lat="43.8953893" lon="11.8998259"><ele>526.0</ele><time>2026-05-01T08:32:25.25Z</time></trkpt><trkpt lat="43.8953049" lon="11.8997609"><ele>526.0</ele><time>2026-05-01T08:32:26.265Z</time></trkpt><trkpt lat="43.8952387" lon="11.8997112"><ele>526.0</ele><time>2026-05-01T08:32:27.265Z</time></trkpt><trkpt lat="43.8951209" lon="11.8996396"><ele>526.0</ele><time>2026-05-01T08:32:28.271Z</time></trkpt><trkpt lat="43.8949736" lon="11.8995679"><ele>526.0</ele><time>2026-05-01T08:32:29.257Z</time></trkpt><trkpt lat="43.8947721" lon="11.8996715"><ele>525.3333333333334</ele><time>2026-05-01T08:32:30.257Z</time></trkpt><trkpt lat="43.8946062" lon="11.8996323"><ele>524.6666666666666</ele><time>2026-05-01T08:32:31.257Z</time></trkpt><trkpt lat="43.8944504" lon="11.8996535"><ele>524.0</ele><time>2026-05-01T08:32:32.265Z</time></trkpt><trkpt lat="43.8942875" lon="11.8996507"><ele>527.25</ele><time>2026-05-01T08:32:33.254Z</time></trkpt><trkpt lat="43.8941687" lon="11.8997995"><ele>530.5</ele><time>2026-05-01T08:32:34.266Z</time></trkpt><trkpt lat="43.8940669" lon="11.8997788"><ele>533.75</ele><time>2026-05-01T08:32:35.269Z</time></trkpt><trkpt lat="43.8939441" lon="11.8998647"><ele>537.0</ele><time>2026-05-01T08:32:36.268Z</time></trkpt><trkpt lat="43.8938677" lon="11.8998492"><ele>537.0</ele><time>2026-05-01T08:32:37.257Z</time></trkpt><trkpt lat="43.8937699" lon="11.8998564"><ele>537.0</ele><time>2026-05-01T08:32:38.264Z</time></trkpt><trkpt lat="43.893673" lon="11.899869"><ele>537.0</ele><time>2026-05-01T08:32:39.269Z</time></trkpt><trkpt lat="43.8935794" lon="11.8998673"><ele>537.0</ele><time>2026-05-01T08:32:40.256Z</time></trkpt><trkpt lat="43.8934889" lon="11.8998466"><ele>537.0</ele><time>2026-05-01T08:32:41.256Z</time></trkpt><trkpt lat="43.8933752" lon="11.8998306"><ele>539.6</ele><time>2026-05-01T08:32:42.27Z</time></trkpt><trkpt lat="43.893275" lon="11.8998251"><ele>542.2</ele><time>2026-05-01T08:32:43.268Z</time></trkpt><trkpt lat="43.8931752" lon="11.8998391"><ele>544.8</ele><time>2026-05-01T08:32:44.259Z</time></trkpt><trkpt lat="43.8930422" lon="11.8998565"><ele>547.4</ele><time>2026-05-01T08:32:46.26Z</time></trkpt><trkpt lat="43.8929527" lon="11.8998954"><ele>550.0</ele><time>2026-05-01T08:32:47.258Z</time></trkpt><trkpt lat="43.8928722" lon="11.8999695"><ele>547.1666666666667</ele><time>2026-05-01T08:32:48.269Z</time></trkpt><trkpt lat="43.8928342" lon="11.9000914"><ele>544.3333333333334</ele><time>2026-05-01T08:32:49.259Z</time></trkpt><trkpt lat="43.8927739" lon="11.900168"><ele>541.5</ele><time>2026-05-01T08:32:50.261Z</time></trkpt><trkpt lat="43.8926913" lon="11.9002321"><ele>538.6666666666666</ele><time>2026-05-01T08:32:51.253Z</time></trkpt><trkpt lat="43.8926246" lon="11.9002582"><ele>535.8333333333333</ele><time>2026-05-01T08:32:52.26Z</time></trkpt><trkpt lat="43.8925687" lon="11.9003024"><ele>533.0</ele><time>2026-05-01T08:32:53.251Z</time></trkpt><trkpt lat="43.8925183" lon="11.9003662"><ele>533.0</ele><time>2026-05-01T08:32:54.258Z</time></trkpt><trkpt lat="43.8924385" lon="11.9003221"><ele>533.0</ele><time>2026-05-01T08:32:55.258Z</time></trkpt><trkpt lat="43.8923695" lon="11.9002816"><ele>533.0</ele><time>2026-05-01T08:32:56.256Z</time></trkpt><trkpt lat="43.8922538" lon="11.9001689"><ele>533.0</ele><time>2026-05-01T08:32:57.268Z</time></trkpt><trkpt lat="43.8921583" lon="11.9000625"><ele>533.0</ele><time>2026-05-01T08:32:58.261Z</time></trkpt><trkpt lat="43.8920152" lon="11.9000017"><ele>540.0</ele><time>2026-05-01T08:32:59.274Z</time></trkpt><trkpt lat="43.8919003" lon="11.8999321"><ele>547.0</ele><time>2026-05-01T08:33:00.26Z</time></trkpt><trkpt lat="43.8918331" lon="11.899913"><ele>554.0</ele><time>2026-05-01T08:33:01.263Z</time></trkpt><trkpt lat="43.8917492" lon="11.8999459"><ele>561.0</ele><time>2026-05-01T08:33:02.254Z</time></trkpt><trkpt lat="43.8916547" lon="11.8999721"><ele>568.0</ele><time>2026-05-01T08:33:03.257Z</time></trkpt><trkpt lat="43.8915537" lon="11.9000047"><ele>569.0</ele><time>2026-05-01T08:33:04.272Z</time></trkpt><trkpt lat="43.8914622" lon="11.9000666"><ele>570.0</ele><time>2026-05-01T08:33:05.255Z</time></trkpt><trkpt lat="43.8913904" lon="11.9000871"><ele>571.0</ele><time>2026-05-01T08:33:06.26Z</time></trkpt><trkpt lat="43.8913134" lon="11.9000722"><ele>572.0</ele><time>2026-05-01T08:33:07.255Z</time></trkpt><trkpt lat="43.8912289" lon="11.8998478"><ele>573.0</ele><time>2026-05-01T08:33:09.254Z</time></trkpt><trkpt lat="43.8911611" lon="11.8997728"><ele>573.0</ele><time>2026-05-01T08:33:10.257Z</time></trkpt><trkpt lat="43.8910667" lon="11.8996771"><ele>573.0</ele><time>2026-05-01T08:33:11.266Z</time></trkpt><trkpt lat="43.8909888" lon="11.8995759"><ele>573.0</ele><time>2026-05-01T08:33:12.265Z</time></trkpt><trkpt lat="43.8909104" lon="11.8994785"><ele>573.0</ele><time>2026-05-01T08:33:13.256Z</time></trkpt><trkpt lat="43.8908155" lon="11.8993623"><ele>571.4</ele><time>2026-05-01T08:33:14.257Z</time></trkpt><trkpt lat="43.8907289" lon="11.899272"><ele>569.8</ele><time>2026-05-01T08:33:15.269Z</time></trkpt><trkpt lat="43.89062" lon="11.8992055"><ele>568.2</ele><time>2026-05-01T08:33:16.267Z</time></trkpt><trkpt lat="43.890517" lon="11.8990992"><ele>566.6</ele><time>2026-05-01T08:33:17.259Z</time></trkpt><trkpt lat="43.8904526" lon="11.8991008"><ele>565.0</ele><time>2026-05-01T08:33:18.259Z</time></trkpt><trkpt lat="43.8904024" lon="11.898988"><ele>570.3333333333334</ele><time>2026-05-01T08:33:19.262Z</time></trkpt><trkpt lat="43.8903537" lon="11.8989204"><ele>575.6666666666667</ele><time>2026-05-01T08:33:20.257Z</time></trkpt><trkpt lat="43.8902583" lon="11.898826"><ele>581.0</ele><time>2026-05-01T08:33:21.26Z</time></trkpt><trkpt lat="43.8902465" lon="11.8987231"><ele>586.3333333333334</ele><time>2026-05-01T08:33:22.253Z</time></trkpt><trkpt lat="43.8902013" lon="11.8986084"><ele>591.6666666666666</ele><time>2026-05-01T08:33:23.257Z</time></trkpt><trkpt lat="43.8901576" lon="11.8985227"><ele>597.0</ele><time>2026-05-01T08:33:24.256Z</time></trkpt><trkpt lat="43.8901052" lon="11.8984216"><ele>595.5</ele><time>2026-05-01T08:33:25.26Z</time></trkpt><trkpt lat="43.8900727" lon="11.8983329"><ele>594.0</ele><time>2026-05-01T08:33:26.261Z</time></trkpt><trkpt lat="43.8900595" lon="11.8982455"><ele>592.5</ele><time>2026-05-01T08:33:27.271Z</time></trkpt><trkpt lat="43.8900298" lon="11.8981455"><ele>591.0</ele><time>2026-05-01T08:33:28.254Z</time></trkpt><trkpt lat="43.8900102" lon="11.8980282"><ele>589.5</ele><time>2026-05-01T08:33:29.262Z</time></trkpt><trkpt lat="43.890008" lon="11.8979108"><ele>588.0</ele><time>2026-05-01T08:33:30.257Z</time></trkpt><trkpt lat="43.8900202" lon="11.8977661"><ele>588.0</ele><time>2026-05-01T08:33:31.257Z</time></trkpt><trkpt lat="43.8900196" lon="11.8976301"><ele>588.0</ele><time>2026-05-01T08:33:32.257Z</time></trkpt><trkpt lat="43.8899956" lon="11.8974948"><ele>588.0</ele><time>2026-05-01T08:33:33.265Z</time></trkpt><trkpt lat="43.8900061" lon="11.89731"><ele>588.0</ele><time>2026-05-01T08:33:34.258Z</time></trkpt><trkpt lat="43.8900012" lon="11.8971274"><ele>590.1999999999999</ele><time>2026-05-01T08:33:35.256Z</time></trkpt><trkpt lat="43.8900047" lon="11.8969915"><ele>592.4</ele><time>2026-05-01T08:33:36.267Z</time></trkpt><trkpt lat="43.8900162" lon="11.8968355"><ele>594.5999999999999</ele><time>2026-05-01T08:33:37.252Z</time></trkpt><trkpt lat="43.8900367" lon="11.896707"><ele>596.8</ele><time>2026-05-01T08:33:38.263Z</time></trkpt><trkpt lat="43.8899573" lon="11.8965987"><ele>599.0</ele><time>2026-05-01T08:33:39.255Z</time></trkpt><trkpt lat="43.8899321" lon="11.8964814"><ele>601.4</ele><time>2026-05-01T08:33:40.254Z</time></trkpt><trkpt lat="43.8898595" lon="11.8964422"><ele>603.8</ele><time>2026-05-01T08:33:42.267Z</time></trkpt><trkpt lat="43.8898186" lon="11.8963534"><ele>606.2</ele><time>2026-05-01T08:33:44.277Z</time></trkpt><trkpt lat="43.8899011" lon="11.8962143"><ele>608.6</ele><time>2026-05-01T08:33:46.261Z</time></trkpt><trkpt lat="43.8899751" lon="11.8961604"><ele>611.0</ele><time>2026-05-01T08:33:47.259Z</time></trkpt><trkpt lat="43.8899987" lon="11.8962753"><ele>611.0</ele><time>2026-05-01T08:33:49.265Z</time></trkpt><trkpt lat="43.8900754" lon="11.8964185"><ele>611.0</ele><time>2026-05-01T08:33:50.259Z</time></trkpt><trkpt lat="43.8902123" lon="11.8966434"><ele>611.0</ele><time>2026-05-01T08:33:51.259Z</time></trkpt><trkpt lat="43.8903256" lon="11.8968556"><ele>620.0</ele><time>2026-05-01T08:33:52.26Z</time></trkpt><trkpt lat="43.8903901" lon="11.8970425"><ele>629.0</ele><time>2026-05-01T08:33:53.259Z</time></trkpt><trkpt lat="43.8904359" lon="11.8972111"><ele>638.0</ele><time>2026-05-01T08:33:54.259Z</time></trkpt><trkpt lat="43.8904771" lon="11.8973724"><ele>647.0</ele><time>2026-05-01T08:33:55.259Z</time></trkpt><trkpt lat="43.8905063" lon="11.8975344"><ele>642.5</ele><time>2026-05-01T08:33:56.267Z</time></trkpt><trkpt lat="43.8905194" lon="11.8976993"><ele>638.0</ele><time>2026-05-01T08:33:57.257Z</time></trkpt><trkpt lat="43.8905351" lon="11.8978518"><ele>633.5</ele><time>2026-05-01T08:33:58.269Z</time></trkpt><trkpt lat="43.8905873" lon="11.8980073"><ele>629.0</ele><time>2026-05-01T08:33:59.258Z</time></trkpt><trkpt lat="43.8906329" lon="11.8981519"><ele>629.0</ele><time>2026-05-01T08:34:00.251Z</time></trkpt><trkpt lat="43.8906762" lon="11.8982584"><ele>629.0</ele><time>2026-05-01T08:34:01.253Z</time></trkpt><trkpt lat="43.8907141" lon="11.8984104"><ele>629.0</ele><time>2026-05-01T08:34:02.253Z</time></trkpt><trkpt lat="43.8907743" lon="11.8985084"><ele>629.0</ele><time>2026-05-01T08:34:03.265Z</time></trkpt><trkpt lat="43.8908149" lon="11.8986382"><ele>629.0</ele><time>2026-05-01T08:34:04.261Z</time></trkpt><trkpt lat="43.8909745" lon="11.8986407"><ele>625.0</ele><time>2026-05-01T08:34:05.268Z</time></trkpt><trkpt lat="43.8910804" lon="11.8987424"><ele>621.0</ele><time>2026-05-01T08:34:06.278Z</time></trkpt><trkpt lat="43.8911827" lon="11.8988479"><ele>617.0</ele><time>2026-05-01T08:34:07.26Z</time></trkpt><trkpt lat="43.8912551" lon="11.8988558"><ele>613.0</ele><time>2026-05-01T08:34:08.254Z</time></trkpt><trkpt lat="43.8914117" lon="11.8988311"><ele>613.0</ele><time>2026-05-01T08:34:10.269Z</time></trkpt><trkpt lat="43.8914899" lon="11.8987873"><ele>613.0</ele><time>2026-05-01T08:34:12.256Z</time></trkpt><trkpt lat="43.8914529" lon="11.8987145"><ele>613.0</ele><time>2026-05-01T08:34:13.259Z</time></trkpt><trkpt lat="43.8914116" lon="11.8986389"><ele>613.0</ele><time>2026-05-01T08:34:15.258Z</time></trkpt><trkpt lat="43.8912544" lon="11.8985571"><ele>613.0</ele><time>2026-05-01T08:34:17.27Z</time></trkpt><trkpt lat="43.8911961" lon="11.8984667"><ele>616.1999999999999</ele><time>2026-05-01T08:34:18.264Z</time></trkpt><trkpt lat="43.8911603" lon="11.8983932"><ele>619.4</ele><time>2026-05-01T08:34:19.271Z</time></trkpt><trkpt lat="43.8910793" lon="11.8983038"><ele>622.5999999999999</ele><time>2026-05-01T08:34:20.269Z</time></trkpt><trkpt lat="43.8910175" lon="11.8981777"><ele>625.8</ele><time>2026-05-01T08:34:21.278Z</time></trkpt><trkpt lat="43.8909418" lon="11.8980706"><ele>629.0</ele><time>2026-05-01T08:34:22.274Z</time></trkpt><trkpt lat="43.8908278" lon="11.8978249"><ele>629.0</ele><time>2026-05-01T08:34:23.269Z</time></trkpt><trkpt lat="43.8908022" lon="11.897663"><ele>629.0</ele><time>2026-05-01T08:34:24.259Z</time></trkpt><trkpt lat="43.8907588" lon="11.8975332"><ele>629.0</ele><time>2026-05-01T08:34:25.255Z</time></trkpt><trkpt lat="43.8907877" lon="11.8973821"><ele>629.0</ele><time>2026-05-01T08:34:26.265Z</time></trkpt><trkpt lat="43.8907896" lon="11.8972346"><ele>629.0</ele><time>2026-05-01T08:34:27.255Z</time></trkpt><trkpt lat="43.8908371" lon="11.8970458"><ele>633.5</ele><time>2026-05-01T08:34:28.258Z</time></trkpt><trkpt lat="43.8908246" lon="11.8969016"><ele>638.0</ele><time>2026-05-01T08:34:29.258Z</time></trkpt><trkpt lat="43.8908439" lon="11.8967292"><ele>642.5</ele><time>2026-05-01T08:34:30.267Z</time></trkpt><trkpt lat="43.8908403" lon="11.8965482"><ele>647.0</ele><time>2026-05-01T08:34:31.268Z</time></trkpt><trkpt lat="43.890822" lon="11.896361"><ele>649.0</ele><time>2026-05-01T08:34:32.257Z</time></trkpt><trkpt lat="43.8908127" lon="11.8961988"><ele>651.0</ele><time>2026-05-01T08:34:33.27Z</time></trkpt><trkpt lat="43.8908108" lon="11.8960472"><ele>653.0</ele><time>2026-05-01T08:34:34.26Z</time></trkpt><trkpt lat="43.8907511" lon="11.8958638"><ele>655.0</ele><time>2026-05-01T08:34:35.261Z</time></trkpt><trkpt lat="43.8907314" lon="11.8957128"><ele>657.0</ele><time>2026-05-01T08:34:36.257Z</time></trkpt><trkpt lat="43.8906902" lon="11.8955583"><ele>659.0</ele><time>2026-05-01T08:34:37.256Z</time></trkpt><trkpt lat="43.8906156" lon="11.8953796"><ele>661.0</ele><time>2026-05-01T08:34:38.268Z</time></trkpt><trkpt lat="43.890605" lon="11.8952693"><ele>663.0</ele><time>2026-05-01T08:34:39.258Z</time></trkpt><trkpt lat="43.8905781" lon="11.8951601"><ele>665.0</ele><time>2026-05-01T08:34:40.262Z</time></trkpt><trkpt lat="43.8905402" lon="11.8950313"><ele>666.5</ele><time>2026-05-01T08:34:41.268Z</time></trkpt><trkpt lat="43.8905" lon="11.8949459"><ele>668.0</ele><time>2026-05-01T08:34:42.259Z</time></trkpt><trkpt lat="43.8904552" lon="11.8948644"><ele>669.5</ele><time>2026-05-01T08:34:43.268Z</time></trkpt><trkpt lat="43.8904519" lon="11.8947724"><ele>671.0</ele><time>2026-05-01T08:34:44.26Z</time></trkpt><trkpt lat="43.8904128" lon="11.8946818"><ele>672.5</ele><time>2026-05-01T08:34:45.26Z</time></trkpt><trkpt lat="43.8904575" lon="11.8945445"><ele>674.0</ele><time>2026-05-01T08:34:47.269Z</time></trkpt><trkpt lat="43.8905417" lon="11.8943946"><ele>674.0</ele><time>2026-05-01T08:34:49.254Z</time></trkpt><trkpt lat="43.8905857" lon="11.8943155"><ele>674.0</ele><time>2026-05-01T08:34:50.272Z</time></trkpt><trkpt lat="43.8906691" lon="11.8942023"><ele>674.0</ele><time>2026-05-01T08:34:51.267Z</time></trkpt><trkpt lat="43.8907415" lon="11.8941239"><ele>674.0</ele><time>2026-05-01T08:34:52.269Z</time></trkpt><trkpt lat="43.8908093" lon="11.8940293"><ele>674.0</ele><time>2026-05-01T08:34:53.268Z</time></trkpt><trkpt lat="43.8908833" lon="11.8939298"><ele>681.2</ele><time>2026-05-01T08:34:54.251Z</time></trkpt><trkpt lat="43.8909394" lon="11.8938291"><ele>688.4000000000001</ele><time>2026-05-01T08:34:55.267Z</time></trkpt><trkpt lat="43.8909746" lon="11.8937312"><ele>695.6</ele><time>2026-05-01T08:34:56.27Z</time></trkpt><trkpt lat="43.8909899" lon="11.8935907"><ele>702.8</ele><time>2026-05-01T08:34:57.256Z</time></trkpt><trkpt lat="43.8909514" lon="11.893441"><ele>710.0</ele><time>2026-05-01T08:34:58.257Z</time></trkpt><trkpt lat="43.8909414" lon="11.8932653"><ele>710.5</ele><time>2026-05-01T08:34:59.257Z</time></trkpt><trkpt lat="43.8909721" lon="11.8931573"><ele>711.0</ele><time>2026-05-01T08:35:00.268Z</time></trkpt><trkpt lat="43.8910074" lon="11.8930041"><ele>711.5</ele><time>2026-05-01T08:35:01.254Z</time></trkpt><trkpt lat="43.8910356" lon="11.8928562"><ele>712.0</ele><time>2026-05-01T08:35:02.258Z</time></trkpt><trkpt lat="43.8910974" lon="11.8926373"><ele>712.0</ele><time>2026-05-01T08:35:03.262Z</time></trkpt><trkpt lat="43.8910887" lon="11.892544"><ele>712.0</ele><time>2026-05-01T08:35:07.26Z</time></trkpt><trkpt lat="43.8911422" lon="11.8926233"><ele>712.0</ele><time>2026-05-01T08:35:09.253Z</time></trkpt><trkpt lat="43.8910164" lon="11.8927659"><ele>712.0</ele><time>2026-05-01T08:35:12.267Z</time></trkpt><trkpt lat="43.8909557" lon="11.8928762"><ele>712.0</ele><time>2026-05-01T08:35:13.255Z</time></trkpt><trkpt lat="43.8908658" lon="11.8930184"><ele>705.0</ele><time>2026-05-01T08:35:14.276Z</time></trkpt><trkpt lat="43.8907542" lon="11.8931143"><ele>698.0</ele><time>2026-05-01T08:35:15.277Z</time></trkpt><trkpt lat="43.8905721" lon="11.8931654"><ele>691.0</ele><time>2026-05-01T08:35:17.256Z</time></trkpt><trkpt lat="43.8905001" lon="11.8932203"><ele>684.0</ele><time>2026-05-01T08:35:18.256Z</time></trkpt><trkpt lat="43.8903096" lon="11.8933288"><ele>684.0</ele><time>2026-05-01T08:35:19.25Z</time></trkpt><trkpt lat="43.8902035" lon="11.8933053"><ele>684.0</ele><time>2026-05-01T08:35:20.253Z</time></trkpt><trkpt lat="43.8900922" lon="11.8932458"><ele>684.0</ele><time>2026-05-01T08:35:21.269Z</time></trkpt><trkpt lat="43.8899678" lon="11.8932194"><ele>684.0</ele><time>2026-05-01T08:35:22.264Z</time></trkpt><trkpt lat="43.8898586" lon="11.8932145"><ele>686.6</ele><time>2026-05-01T08:35:23.268Z</time></trkpt><trkpt lat="43.8897212" lon="11.8932351"><ele>689.2</ele><time>2026-05-01T08:35:24.253Z</time></trkpt><trkpt lat="43.8896332" lon="11.8932482"><ele>691.8000000000001</ele><time>2026-05-01T08:35:25.254Z</time></trkpt><trkpt lat="43.8895605" lon="11.893287"><ele>694.4000000000001</ele><time>2026-05-01T08:35:26.252Z</time></trkpt><trkpt lat="43.8894749" lon="11.8933281"><ele>697.0</ele><time>2026-05-01T08:35:27.269Z</time></trkpt><trkpt lat="43.8894061" lon="11.8933544"><ele>695.6</ele><time>2026-05-01T08:35:28.253Z</time></trkpt><trkpt lat="43.8893327" lon="11.8934463"><ele>694.2</ele><time>2026-05-01T08:35:29.259Z</time></trkpt><trkpt lat="43.8892855" lon="11.8935384"><ele>692.8</ele><time>2026-05-01T08:35:30.27Z</time></trkpt><trkpt lat="43.8892142" lon="11.8936089"><ele>691.4</ele><time>2026-05-01T08:35:31.253Z</time></trkpt><trkpt lat="43.8891697" lon="11.8937146"><ele>690.0</ele><time>2026-05-01T08:35:32.261Z</time></trkpt><trkpt lat="43.8891104" lon="11.8938211"><ele>690.0</ele><time>2026-05-01T08:35:34.258Z</time></trkpt><trkpt lat="43.889026" lon="11.8938706"><ele>690.0</ele><time>2026-05-01T08:35:37.25Z</time></trkpt><trkpt lat="43.8890854" lon="11.8939494"><ele>690.0</ele><time>2026-05-01T08:35:55.271Z</time></trkpt><trkpt lat="43.88914" lon="11.8940305"><ele>690.0</ele><time>2026-05-01T08:35:58.266Z</time></trkpt><trkpt lat="43.8892179" lon="11.8940488"><ele>690.0</ele><time>2026-05-01T08:36:01.256Z</time></trkpt><trkpt lat="43.8891389" lon="11.8940663"><ele>690.0</ele><time>2026-05-01T08:37:58.265Z</time></trkpt><trkpt lat="43.8890758" lon="11.8940599"><ele>690.0</ele><time>2026-05-01T08:38:58.27Z</time></trkpt><trkpt lat="43.8890052" lon="11.8940062"><ele>690.0</ele><time>2026-05-01T08:39:14.261Z</time></trkpt><trkpt lat="43.8889784" lon="11.893922"><ele>690.0</ele><time>2026-05-01T08:39:18.269Z</time></trkpt><trkpt lat="43.888955" lon="11.8937557"><ele>690.0</ele><time>2026-05-01T08:42:49.276Z</time></trkpt><trkpt lat="43.8889363" lon="11.8936536"><ele>690.0</ele><time>2026-05-01T08:42:51.276Z</time></trkpt><trkpt lat="43.8889453" lon="11.8935484"><ele>690.0</ele><time>2026-05-01T08:42:54.274Z</time></trkpt><trkpt lat="43.8889542" lon="11.8934495"><ele>693.0</ele><time>2026-05-01T08:42:56.262Z</time></trkpt><trkpt lat="43.8889677" lon="11.8932735"><ele>696.0</ele><time>2026-05-01T08:42:57.271Z</time></trkpt><trkpt lat="43.8889538" lon="11.8931803"><ele>699.0</ele><time>2026-05-01T08:42:59.264Z</time></trkpt><trkpt lat="43.8889312" lon="11.8930875"><ele>702.0</ele><time>2026-05-01T08:43:00.28Z</time></trkpt><trkpt lat="43.8888973" lon="11.8929192"><ele>705.0</ele><time>2026-05-01T08:43:02.277Z</time></trkpt><trkpt lat="43.8888519" lon="11.8928093"><ele>705.0</ele><time>2026-05-01T08:43:03.26Z</time></trkpt><trkpt lat="43.8888322" lon="11.892708"><ele>705.0</ele><time>2026-05-01T08:43:04.263Z</time></trkpt><trkpt lat="43.8887681" lon="11.8925674"><ele>705.0</ele><time>2026-05-01T08:43:05.281Z</time></trkpt><trkpt lat="43.8887198" lon="11.8924533"><ele>705.0</ele><time>2026-05-01T08:43:06.258Z</time></trkpt><trkpt lat="43.8886872" lon="11.8923506"><ele>705.0</ele><time>2026-05-01T08:43:09.263Z</time></trkpt><trkpt lat="43.8886469" lon="11.8922525"><ele>718.0</ele><time>2026-05-01T08:43:10.266Z</time></trkpt><trkpt lat="43.8885992" lon="11.8920582"><ele>731.0</ele><time>2026-05-01T08:43:11.265Z</time></trkpt><trkpt lat="43.8883668" lon="11.8915973"><ele>731.0</ele><time>2026-05-01T08:43:12.251Z</time></trkpt><trkpt lat="43.8883108" lon="11.8915258"><ele>731.0</ele><time>2026-05-01T08:43:13.248Z</time></trkpt><trkpt lat="43.8882707" lon="11.8914129"><ele>731.0</ele><time>2026-05-01T08:43:14.252Z</time></trkpt><trkpt lat="43.8882398" lon="11.8912954"><ele>731.0</ele><time>2026-05-01T08:43:15.258Z</time></trkpt><trkpt lat="43.8881655" lon="11.8911881"><ele>731.0</ele><time>2026-05-01T08:43:16.258Z</time></trkpt><trkpt lat="43.8880863" lon="11.8910747"><ele>731.0</ele><time>2026-05-01T08:43:17.25Z</time></trkpt><trkpt lat="43.8879731" lon="11.8909497"><ele>731.0</ele><time>2026-05-01T08:43:18.263Z</time></trkpt><trkpt lat="43.8879042" lon="11.8908345"><ele>731.0</ele><time>2026-05-01T08:43:19.249Z</time></trkpt><trkpt lat="43.8878444" lon="11.8906981"><ele>731.0</ele><time>2026-05-01T08:43:20.265Z</time></trkpt><trkpt lat="43.8877391" lon="11.8905606"><ele>730.8</ele><time>2026-05-01T08:43:22.266Z</time></trkpt><trkpt lat="43.8876683" lon="11.890498"><ele>730.5999999999999</ele><time>2026-05-01T08:43:23.258Z</time></trkpt><trkpt lat="43.8875562" lon="11.8904576"><ele>730.4</ele><time>2026-05-01T08:43:24.263Z</time></trkpt><trkpt lat="43.8874805" lon="11.8903796"><ele>730.2</ele><time>2026-05-01T08:43:25.258Z</time></trkpt><trkpt lat="43.8873679" lon="11.8904433"><ele>730.0</ele><time>2026-05-01T08:43:26.26Z</time></trkpt><trkpt lat="43.8872356" lon="11.8904592"><ele>730.0</ele><time>2026-05-01T08:43:27.258Z</time></trkpt><trkpt lat="43.8871731" lon="11.8904361"><ele>730.0</ele><time>2026-05-01T08:43:28.259Z</time></trkpt><trkpt lat="43.8870673" lon="11.8904112"><ele>730.0</ele><time>2026-05-01T08:43:30.256Z</time></trkpt><trkpt lat="43.8869943" lon="11.8903574"><ele>730.0</ele><time>2026-05-01T08:43:31.256Z</time></trkpt><trkpt lat="43.8869179" lon="11.8902659"><ele>730.0</ele><time>2026-05-01T08:43:32.266Z</time></trkpt><trkpt lat="43.8869562" lon="11.8901253"><ele>734.6666666666667</ele><time>2026-05-01T08:43:33.264Z</time></trkpt><trkpt lat="43.8869927" lon="11.8900118"><ele>739.3333333333334</ele><time>2026-05-01T08:43:34.256Z</time></trkpt><trkpt lat="43.8870044" lon="11.8898799"><ele>744.0</ele><time>2026-05-01T08:43:35.264Z</time></trkpt><trkpt lat="43.8870229" lon="11.889767"><ele>748.6666666666666</ele><time>2026-05-01T08:43:36.255Z</time></trkpt><trkpt lat="43.8870802" lon="11.889675"><ele>753.3333333333333</ele><time>2026-05-01T08:43:37.255Z</time></trkpt><trkpt lat="43.8871197" lon="11.8895702"><ele>758.0</ele><time>2026-05-01T08:43:38.259Z</time></trkpt><trkpt lat="43.8871648" lon="11.8894521"><ele>758.0</ele><time>2026-05-01T08:43:39.266Z</time></trkpt><trkpt lat="43.8871407" lon="11.8893046"><ele>758.0</ele><time>2026-05-01T08:43:41.258Z</time></trkpt><trkpt lat="43.8871069" lon="11.8892101"><ele>758.0</ele><time>2026-05-01T08:43:42.264Z</time></trkpt><trkpt lat="43.8870345" lon="11.88907"><ele>758.0</ele><time>2026-05-01T08:43:44.266Z</time></trkpt><trkpt lat="43.8869855" lon="11.8889825"><ele>758.0</ele><time>2026-05-01T08:43:45.261Z</time></trkpt><trkpt lat="43.8869916" lon="11.8888308"><ele>760.5999999999999</ele><time>2026-05-01T08:43:47.264Z</time></trkpt><trkpt lat="43.8870711" lon="11.8886903"><ele>763.1999999999999</ele><time>2026-05-01T08:43:49.258Z</time></trkpt><trkpt lat="43.8871273" lon="11.8885235"><ele>765.8</ele><time>2026-05-01T08:43:51.258Z</time></trkpt><trkpt lat="43.8871437" lon="11.8883868"><ele>768.4</ele><time>2026-05-01T08:43:53.251Z</time></trkpt><trkpt lat="43.8871187" lon="11.8882759"><ele>771.0</ele><time>2026-05-01T08:43:54.258Z</time></trkpt><trkpt lat="43.8870862" lon="11.8881557"><ele>772.1999999999999</ele><time>2026-05-01T08:43:55.258Z</time></trkpt><trkpt lat="43.887028" lon="11.8880269"><ele>773.4</ele><time>2026-05-01T08:43:56.26Z</time></trkpt><trkpt lat="43.8869866" lon="11.887894"><ele>774.6</ele><time>2026-05-01T08:43:57.257Z</time></trkpt><trkpt lat="43.8869808" lon="11.8877801"><ele>775.8</ele><time>2026-05-01T08:43:58.257Z</time></trkpt><trkpt lat="43.8869545" lon="11.8876478"><ele>777.0</ele><time>2026-05-01T08:43:59.258Z</time></trkpt><trkpt lat="43.8869306" lon="11.8875178"><ele>775.3333333333334</ele><time>2026-05-01T08:44:00.267Z</time></trkpt><trkpt lat="43.8868905" lon="11.8873909"><ele>773.6666666666666</ele><time>2026-05-01T08:44:01.258Z</time></trkpt><trkpt lat="43.8868433" lon="11.8872938"><ele>772.0</ele><time>2026-05-01T08:44:02.265Z</time></trkpt><trkpt lat="43.8867988" lon="11.8871858"><ele>770.3333333333333</ele><time>2026-05-01T08:44:03.258Z</time></trkpt><trkpt lat="43.8867484" lon="11.8870917"><ele>768.6666666666666</ele><time>2026-05-01T08:44:04.255Z</time></trkpt><trkpt lat="43.8867523" lon="11.8869951"><ele>767.0</ele><time>2026-05-01T08:44:05.265Z</time></trkpt><trkpt lat="43.8867464" lon="11.8868982"><ele>774.0</ele><time>2026-05-01T08:44:06.266Z</time></trkpt><trkpt lat="43.8868004" lon="11.886773"><ele>781.0</ele><time>2026-05-01T08:44:07.256Z</time></trkpt><trkpt lat="43.8868524" lon="11.8866392"><ele>788.0</ele><time>2026-05-01T08:44:08.256Z</time></trkpt><trkpt lat="43.8868925" lon="11.8865034"><ele>795.0</ele><time>2026-05-01T08:44:09.258Z</time></trkpt><trkpt lat="43.8869397" lon="11.8863346"><ele>797.4</ele><time>2026-05-01T08:44:10.257Z</time></trkpt><trkpt lat="43.8869562" lon="11.8861911"><ele>799.8</ele><time>2026-05-01T08:44:11.256Z</time></trkpt><trkpt lat="43.8870071" lon="11.886062"><ele>802.2</ele><time>2026-05-01T08:44:12.254Z</time></trkpt><trkpt lat="43.8870874" lon="11.8859169"><ele>804.6</ele><time>2026-05-01T08:44:14.253Z</time></trkpt><trkpt lat="43.8871235" lon="11.8858263"><ele>807.0</ele><time>2026-05-01T08:44:15.265Z</time></trkpt><trkpt lat="43.8871484" lon="11.8857232"><ele>807.4000000000001</ele><time>2026-05-01T08:44:16.253Z</time></trkpt><trkpt lat="43.8869934" lon="11.8857063"><ele>807.8000000000001</ele><time>2026-05-01T08:44:18.258Z</time></trkpt><trkpt lat="43.8869233" lon="11.8857156"><ele>808.2</ele><time>2026-05-01T08:44:19.249Z</time></trkpt><trkpt lat="43.8868376" lon="11.8857498"><ele>808.6</ele><time>2026-05-01T08:44:20.263Z</time></trkpt><trkpt lat="43.8867736" lon="11.8857906"><ele>809.0</ele><time>2026-05-01T08:44:21.254Z</time></trkpt><trkpt lat="43.8866739" lon="11.8859658"><ele>802.0</ele><time>2026-05-01T08:44:22.253Z</time></trkpt><trkpt lat="43.8865405" lon="11.8860569"><ele>795.0</ele><time>2026-05-01T08:44:23.269Z</time></trkpt><trkpt lat="43.8864628" lon="11.8861703"><ele>788.0</ele><time>2026-05-01T08:44:24.252Z</time></trkpt><trkpt lat="43.8863931" lon="11.8862304"><ele>781.0</ele><time>2026-05-01T08:44:25.258Z</time></trkpt><trkpt lat="43.8862661" lon="11.8862436"><ele>781.0</ele><time>2026-05-01T08:44:27.254Z</time></trkpt><trkpt lat="43.8861707" lon="11.8862395"><ele>781.0</ele><time>2026-05-01T08:44:28.259Z</time></trkpt><trkpt lat="43.8860839" lon="11.8862427"><ele>781.0</ele><time>2026-05-01T08:44:29.259Z</time></trkpt><trkpt lat="43.8859902" lon="11.8863129"><ele>781.0</ele><time>2026-05-01T08:44:31.265Z</time></trkpt><trkpt lat="43.8859627" lon="11.886397"><ele>781.0</ele><time>2026-05-01T08:44:32.25Z</time></trkpt><trkpt lat="43.885917" lon="11.8866449"><ele>784.3333333333333</ele><time>2026-05-01T08:44:33.253Z</time></trkpt><trkpt lat="43.8858744" lon="11.8868101"><ele>787.6666666666667</ele><time>2026-05-01T08:44:34.259Z</time></trkpt><trkpt lat="43.8857969" lon="11.8870129"><ele>791.0</ele><time>2026-05-01T08:44:35.251Z</time></trkpt><trkpt lat="43.8857878" lon="11.8872519"><ele>791.0</ele><time>2026-05-01T08:44:36.258Z</time></trkpt><trkpt lat="43.88575" lon="11.8874538"><ele>791.0</ele><time>2026-05-01T08:44:37.259Z</time></trkpt><trkpt lat="43.8857205" lon="11.8876548"><ele>791.0</ele><time>2026-05-01T08:44:38.251Z</time></trkpt><trkpt lat="43.8856898" lon="11.8878082"><ele>791.0</ele><time>2026-05-01T08:44:39.258Z</time></trkpt><trkpt lat="43.8856291" lon="11.8880023"><ele>789.5999999999999</ele><time>2026-05-01T08:44:40.254Z</time></trkpt><trkpt lat="43.8855981" lon="11.888167"><ele>788.2</ele><time>2026-05-01T08:44:41.26Z</time></trkpt><trkpt lat="43.8855622" lon="11.8883171"><ele>786.8</ele><time>2026-05-01T08:44:42.258Z</time></trkpt><trkpt lat="43.8855475" lon="11.8884473"><ele>785.4000000000001</ele><time>2026-05-01T08:44:43.265Z</time></trkpt><trkpt lat="43.8855246" lon="11.888599"><ele>784.0</ele><time>2026-05-01T08:44:44.262Z</time></trkpt><trkpt lat="43.8855106" lon="11.8886938"><ele>781.2</ele><time>2026-05-01T08:44:45.26Z</time></trkpt><trkpt lat="43.8854591" lon="11.888813"><ele>778.4000000000001</ele><time>2026-05-01T08:44:46.259Z</time></trkpt><trkpt lat="43.8854489" lon="11.888992"><ele>775.6</ele><time>2026-05-01T08:44:47.247Z</time></trkpt><trkpt lat="43.8853762" lon="11.8891162"><ele>772.8</ele><time>2026-05-01T08:44:48.249Z</time></trkpt><trkpt lat="43.8853568" lon="11.8892176"><ele>770.0</ele><time>2026-05-01T08:44:49.258Z</time></trkpt><trkpt lat="43.885248" lon="11.8893225"><ele>773.8</ele><time>2026-05-01T08:44:50.25Z</time></trkpt><trkpt lat="43.8851828" lon="11.8894131"><ele>777.6</ele><time>2026-05-01T08:44:51.261Z</time></trkpt><trkpt lat="43.8851094" lon="11.8895281"><ele>781.4000000000001</ele><time>2026-05-01T08:44:52.262Z</time></trkpt><trkpt lat="43.8850646" lon="11.8896321"><ele>785.2</ele><time>2026-05-01T08:44:53.251Z</time></trkpt><trkpt lat="43.8849943" lon="11.8897352"><ele>789.0</ele><time>2026-05-01T08:44:54.259Z</time></trkpt><trkpt lat="43.8849101" lon="11.8897556"><ele>789.0</ele><time>2026-05-01T08:44:55.259Z</time></trkpt><trkpt lat="43.8848226" lon="11.8898091"><ele>789.0</ele><time>2026-05-01T08:44:56.251Z</time></trkpt><trkpt lat="43.8847159" lon="11.8898203"><ele>789.0</ele><time>2026-05-01T08:44:58.252Z</time></trkpt><trkpt lat="43.8846346" lon="11.88981"><ele>789.0</ele><time>2026-05-01T08:44:59.265Z</time></trkpt><trkpt lat="43.8845496" lon="11.8897539"><ele>789.0</ele><time>2026-05-01T08:45:00.273Z</time></trkpt><trkpt lat="43.8845317" lon="11.8896211"><ele>789.0</ele><time>2026-05-01T08:45:01.259Z</time></trkpt><trkpt lat="43.8845018" lon="11.8895025"><ele>789.0</ele><time>2026-05-01T08:45:02.251Z</time></trkpt><trkpt lat="43.8844551" lon="11.8893987"><ele>789.0</ele><time>2026-05-01T08:45:03.252Z</time></trkpt><trkpt lat="43.884395" lon="11.8892239"><ele>789.0</ele><time>2026-05-01T08:45:04.251Z</time></trkpt><trkpt lat="43.884362" lon="11.8890515"><ele>789.0</ele><time>2026-05-01T08:45:05.251Z</time></trkpt><trkpt lat="43.8843383" lon="11.8888787"><ele>791.0</ele><time>2026-05-01T08:45:06.257Z</time></trkpt><trkpt lat="43.8842892" lon="11.8887228"><ele>793.0</ele><time>2026-05-01T08:45:07.258Z</time></trkpt><trkpt lat="43.8842521" lon="11.8885851"><ele>795.0</ele><time>2026-05-01T08:45:08.252Z</time></trkpt><trkpt lat="43.8841797" lon="11.8884842"><ele>797.0</ele><time>2026-05-01T08:45:09.259Z</time></trkpt><trkpt lat="43.8841018" lon="11.8883445"><ele>800.6</ele><time>2026-05-01T08:45:10.259Z</time></trkpt><trkpt lat="43.8840388" lon="11.8882487"><ele>804.2</ele><time>2026-05-01T08:45:11.257Z</time></trkpt><trkpt lat="43.8839923" lon="11.8881285"><ele>807.8</ele><time>2026-05-01T08:45:12.252Z</time></trkpt><trkpt lat="43.8839379" lon="11.8879986"><ele>811.4</ele><time>2026-05-01T08:45:13.259Z</time></trkpt><trkpt lat="43.8838922" lon="11.8878101"><ele>815.0</ele><time>2026-05-01T08:45:14.258Z</time></trkpt><trkpt lat="43.8838094" lon="11.887651"><ele>815.0</ele><time>2026-05-01T08:45:16.257Z</time></trkpt><trkpt lat="43.8837687" lon="11.8875811"><ele>815.0</ele><time>2026-05-01T08:45:17.257Z</time></trkpt><trkpt lat="43.8836681" lon="11.8875386"><ele>815.0</ele><time>2026-05-01T08:45:18.255Z</time></trkpt><trkpt lat="43.8836241" lon="11.8877516"><ele>815.0</ele><time>2026-05-01T08:45:19.252Z</time></trkpt><trkpt lat="43.8834573" lon="11.8877841"><ele>815.0</ele><time>2026-05-01T08:45:21.249Z</time></trkpt><trkpt lat="43.8833833" lon="11.8877705"><ele>815.0</ele><time>2026-05-01T08:45:22.259Z</time></trkpt><trkpt lat="43.8832994" lon="11.887759"><ele>815.0</ele><time>2026-05-01T08:45:24.251Z</time></trkpt><trkpt lat="43.8832383" lon="11.8876478"><ele>815.0</ele><time>2026-05-01T08:45:25.262Z</time></trkpt><trkpt lat="43.8832626" lon="11.8874948"><ele>815.0</ele><time>2026-05-01T08:45:26.25Z</time></trkpt><trkpt lat="43.8832476" lon="11.8873699"><ele>815.0</ele><time>2026-05-01T08:45:27.256Z</time></trkpt><trkpt lat="43.8832439" lon="11.8872268"><ele>815.0</ele><time>2026-05-01T08:45:28.25Z</time></trkpt><trkpt lat="43.8832159" lon="11.8870643"><ele>815.0</ele><time>2026-05-01T08:45:29.248Z</time></trkpt><trkpt lat="43.8832298" lon="11.8868599"><ele>815.0</ele><time>2026-05-01T08:45:30.257Z</time></trkpt><trkpt lat="43.8832746" lon="11.8867845"><ele>815.0</ele><time>2026-05-01T08:45:31.253Z</time></trkpt><trkpt lat="43.8832289" lon="11.8866644"><ele>815.6666666666667</ele><time>2026-05-01T08:45:32.255Z</time></trkpt><trkpt lat="43.8832567" lon="11.8865683"><ele>816.3333333333334</ele><time>2026-05-01T08:45:33.257Z</time></trkpt><trkpt lat="43.8832733" lon="11.8864147"><ele>817.0</ele><time>2026-05-01T08:45:35.256Z</time></trkpt><trkpt lat="43.8832662" lon="11.8863226"><ele>817.6666666666667</ele><time>2026-05-01T08:45:37.251Z</time></trkpt><trkpt lat="43.883293" lon="11.8862266"><ele>818.3333333333334</ele><time>2026-05-01T08:45:42.251Z</time></trkpt><trkpt lat="43.8833533" lon="11.8861042"><ele>819.0</ele><time>2026-05-01T08:47:36.254Z</time></trkpt><trkpt lat="43.8833959" lon="11.8860337"><ele>824.4000000000001</ele><time>2026-05-01T08:47:37.258Z</time></trkpt><trkpt lat="43.8835372" lon="11.8858859"><ele>829.8</ele><time>2026-05-01T08:47:39.256Z</time></trkpt><trkpt lat="43.8835899" lon="11.8857838"><ele>835.2</ele><time>2026-05-01T08:47:40.258Z</time></trkpt><trkpt lat="43.883608" lon="11.8856782"><ele>840.5999999999999</ele><time>2026-05-01T08:47:41.259Z</time></trkpt><trkpt lat="43.8836125" lon="11.8855691"><ele>846.0</ele><time>2026-05-01T08:47:42.251Z</time></trkpt><trkpt lat="43.8835424" lon="11.8854134"><ele>846.0</ele><time>2026-05-01T08:47:43.262Z</time></trkpt><trkpt lat="43.8834542" lon="11.8852729"><ele>846.0</ele><time>2026-05-01T08:47:44.259Z</time></trkpt><trkpt lat="43.8834021" lon="11.8851435"><ele>846.0</ele><time>2026-05-01T08:47:45.258Z</time></trkpt><trkpt lat="43.883339" lon="11.8849939"><ele>846.0</ele><time>2026-05-01T08:47:46.259Z</time></trkpt><trkpt lat="43.8832852" lon="11.8848551"><ele>842.1999999999999</ele><time>2026-05-01T08:47:47.259Z</time></trkpt><trkpt lat="43.8832328" lon="11.8847105"><ele>838.4</ele><time>2026-05-01T08:47:48.257Z</time></trkpt><trkpt lat="43.8831918" lon="11.8845808"><ele>834.6</ele><time>2026-05-01T08:47:49.258Z</time></trkpt><trkpt lat="43.8831602" lon="11.8844775"><ele>830.8</ele><time>2026-05-01T08:47:50.25Z</time></trkpt><trkpt lat="43.8831327" lon="11.8843526"><ele>827.0</ele><time>2026-05-01T08:47:51.25Z</time></trkpt><trkpt lat="43.8831135" lon="11.8842311"><ele>827.0</ele><time>2026-05-01T08:47:52.258Z</time></trkpt><trkpt lat="43.883106" lon="11.8840463"><ele>827.0</ele><time>2026-05-01T08:47:54.258Z</time></trkpt><trkpt lat="43.8830557" lon="11.8839333"><ele>827.0</ele><time>2026-05-01T08:47:55.263Z</time></trkpt><trkpt lat="43.8830369" lon="11.8838321"><ele>827.0</ele><time>2026-05-01T08:47:56.258Z</time></trkpt><trkpt lat="43.8830753" lon="11.8835658"><ele>827.0</ele><time>2026-05-01T08:47:57.253Z</time></trkpt><trkpt lat="43.8831195" lon="11.8833989"><ele>827.0</ele><time>2026-05-01T08:47:58.257Z</time></trkpt><trkpt lat="43.8831836" lon="11.8832253"><ele>827.0</ele><time>2026-05-01T08:47:59.259Z</time></trkpt><trkpt lat="43.8832465" lon="11.8830251"><ele>827.0</ele><time>2026-05-01T08:48:00.262Z</time></trkpt><trkpt lat="43.8833045" lon="11.8828099"><ele>827.0</ele><time>2026-05-01T08:48:01.258Z</time></trkpt><trkpt lat="43.8831987" lon="11.8827359"><ele>827.0</ele><time>2026-05-01T08:48:02.259Z</time></trkpt><trkpt lat="43.8831473" lon="11.8825868"><ele>827.0</ele><time>2026-05-01T08:48:03.259Z</time></trkpt><trkpt lat="43.8831193" lon="11.8824474"><ele>827.0</ele><time>2026-05-01T08:48:04.259Z</time></trkpt><trkpt lat="43.8830957" lon="11.8823127"><ele>827.0</ele><time>2026-05-01T08:48:05.253Z</time></trkpt><trkpt lat="43.8830763" lon="11.8821953"><ele>827.0</ele><time>2026-05-01T08:48:06.258Z</time></trkpt><trkpt lat="43.8830649" lon="11.882061"><ele>827.0</ele><time>2026-05-01T08:48:07.257Z</time></trkpt><trkpt lat="43.8830773" lon="11.8819321"><ele>827.0</ele><time>2026-05-01T08:48:09.266Z</time></trkpt><trkpt lat="43.8830795" lon="11.8818159"><ele>827.0</ele><time>2026-05-01T08:48:11.259Z</time></trkpt><trkpt lat="43.883118" lon="11.8816746"><ele>827.0</ele><time>2026-05-01T08:48:13.257Z</time></trkpt><trkpt lat="43.8832296" lon="11.8816354"><ele>825.0</ele><time>2026-05-01T08:48:14.262Z</time></trkpt><trkpt lat="43.8834012" lon="11.8815399"><ele>823.0</ele><time>2026-05-01T08:48:15.258Z</time></trkpt><trkpt lat="43.8835017" lon="11.8815208"><ele>821.0</ele><time>2026-05-01T08:48:16.25Z</time></trkpt><trkpt lat="43.8836039" lon="11.8814335"><ele>819.0</ele><time>2026-05-01T08:48:17.258Z</time></trkpt><trkpt lat="43.8836531" lon="11.8813636"><ele>826.5</ele><time>2026-05-01T08:48:19.259Z</time></trkpt><trkpt lat="43.8836704" lon="11.8811535"><ele>834.0</ele><time>2026-05-01T08:48:21.258Z</time></trkpt><trkpt lat="43.8836847" lon="11.881047"><ele>841.5</ele><time>2026-05-01T08:48:22.254Z</time></trkpt><trkpt lat="43.8836541" lon="11.8809252"><ele>849.0</ele><time>2026-05-01T08:48:23.251Z</time></trkpt><trkpt lat="43.8834611" lon="11.8808575"><ele>849.0</ele><time>2026-05-01T08:48:24.264Z</time></trkpt><trkpt lat="43.8834372" lon="11.8807542"><ele>849.0</ele><time>2026-05-01T08:48:25.258Z</time></trkpt><trkpt lat="43.88345" lon="11.8806483"><ele>849.0</ele><time>2026-05-01T08:48:26.258Z</time></trkpt><trkpt lat="43.8834648" lon="11.8804901"><ele>849.0</ele><time>2026-05-01T08:48:27.258Z</time></trkpt><trkpt lat="43.8834667" lon="11.8803516"><ele>849.0</ele><time>2026-05-01T08:48:28.258Z</time></trkpt><trkpt lat="43.8834902" lon="11.8801822"><ele>851.0</ele><time>2026-05-01T08:48:29.259Z</time></trkpt><trkpt lat="43.8834747" lon="11.8799791"><ele>853.0</ele><time>2026-05-01T08:48:30.259Z</time></trkpt><trkpt lat="43.883481" lon="11.8798154"><ele>855.0</ele><time>2026-05-01T08:48:31.255Z</time></trkpt><trkpt lat="43.8834622" lon="11.879692"><ele>857.0</ele><time>2026-05-01T08:48:32.257Z</time></trkpt><trkpt lat="43.8834543" lon="11.8795342"><ele>857.0</ele><time>2026-05-01T08:48:33.248Z</time></trkpt><trkpt lat="43.8834534" lon="11.8793998"><ele>857.0</ele><time>2026-05-01T08:48:34.258Z</time></trkpt><trkpt lat="43.8834283" lon="11.8792343"><ele>857.0</ele><time>2026-05-01T08:48:35.257Z</time></trkpt><trkpt lat="43.8834318" lon="11.8790749"><ele>857.0</ele><time>2026-05-01T08:48:36.255Z</time></trkpt><trkpt lat="43.8834232" lon="11.8789335"><ele>857.0</ele><time>2026-05-01T08:48:37.258Z</time></trkpt><trkpt lat="43.88343" lon="11.8787653"><ele>857.6</ele><time>2026-05-01T08:48:38.257Z</time></trkpt><trkpt lat="43.8834527" lon="11.8786208"><ele>858.2</ele><time>2026-05-01T08:48:39.26Z</time></trkpt><trkpt lat="43.8834559" lon="11.8784991"><ele>858.8</ele><time>2026-05-01T08:48:40.257Z</time></trkpt><trkpt lat="43.8834953" lon="11.8783534"><ele>859.4</ele><time>2026-05-01T08:48:41.247Z</time></trkpt><trkpt lat="43.8835377" lon="11.8781937"><ele>860.0</ele><time>2026-05-01T08:48:42.263Z</time></trkpt><trkpt lat="43.8835735" lon="11.8780011"><ele>860.0</ele><time>2026-05-01T08:48:43.253Z</time></trkpt><trkpt lat="43.8836498" lon="11.8777994"><ele>860.0</ele><time>2026-05-01T08:48:44.263Z</time></trkpt><trkpt lat="43.8836607" lon="11.8776174"><ele>860.0</ele><time>2026-05-01T08:48:45.254Z</time></trkpt><trkpt lat="43.8837074" lon="11.8774726"><ele>860.0</ele><time>2026-05-01T08:48:46.257Z</time></trkpt><trkpt lat="43.8837504" lon="11.8773165"><ele>856.0</ele><time>2026-05-01T08:48:47.259Z</time></trkpt><trkpt lat="43.8838453" lon="11.8771471"><ele>852.0</ele><time>2026-05-01T08:48:48.265Z</time></trkpt><trkpt lat="43.8838872" lon="11.8769209"><ele>848.0</ele><time>2026-05-01T08:48:49.258Z</time></trkpt><trkpt lat="43.8839409" lon="11.8767471"><ele>845.0</ele><time>2026-05-01T08:48:50.267Z</time></trkpt><trkpt lat="43.8839998" lon="11.8765631"><ele>842.0</ele><time>2026-05-01T08:48:51.254Z</time></trkpt><trkpt lat="43.8840326" lon="11.8764229"><ele>839.0</ele><time>2026-05-01T08:48:52.248Z</time></trkpt><trkpt lat="43.8840725" lon="11.8762432"><ele>836.0</ele><time>2026-05-01T08:48:53.258Z</time></trkpt><trkpt lat="43.8841586" lon="11.876075"><ele>831.25</ele><time>2026-05-01T08:48:54.264Z</time></trkpt><trkpt lat="43.884194" lon="11.875916"><ele>826.5</ele><time>2026-05-01T08:48:55.25Z</time></trkpt><trkpt lat="43.8842204" lon="11.8757551"><ele>821.75</ele><time>2026-05-01T08:48:56.267Z</time></trkpt><trkpt lat="43.8842779" lon="11.8756311"><ele>817.0</ele><time>2026-05-01T08:48:57.253Z</time></trkpt><trkpt lat="43.8843262" lon="11.8754905"><ele>821.0</ele><time>2026-05-01T08:48:58.258Z</time></trkpt><trkpt lat="43.8843776" lon="11.8753569"><ele>825.0</ele><time>2026-05-01T08:48:59.254Z</time></trkpt><trkpt lat="43.8844149" lon="11.8752457"><ele>829.0</ele><time>2026-05-01T08:49:00.251Z</time></trkpt><trkpt lat="43.8844875" lon="11.8751418"><ele>833.0</ele><time>2026-05-01T08:49:01.251Z</time></trkpt><trkpt lat="43.8845138" lon="11.8750226"><ele>837.0</ele><time>2026-05-01T08:49:02.257Z</time></trkpt><trkpt lat="43.8845272" lon="11.8748528"><ele>837.0</ele><time>2026-05-01T08:49:03.262Z</time></trkpt><trkpt lat="43.8845485" lon="11.8747569"><ele>837.0</ele><time>2026-05-01T08:49:04.258Z</time></trkpt><trkpt lat="43.8845819" lon="11.8746386"><ele>837.0</ele><time>2026-05-01T08:49:05.257Z</time></trkpt><trkpt lat="43.8848232" lon="11.8746733"><ele>837.0</ele><time>2026-05-01T08:49:07.25Z</time></trkpt><trkpt lat="43.8849203" lon="11.874641"><ele>837.0</ele><time>2026-05-01T08:49:09.249Z</time></trkpt><trkpt lat="43.8849772" lon="11.8745968"><ele>837.0</ele><time>2026-05-01T08:49:10.252Z</time></trkpt><trkpt lat="43.8849547" lon="11.8743134"><ele>837.0</ele><time>2026-05-01T08:49:13.263Z</time></trkpt><trkpt lat="43.8849416" lon="11.8741139"><ele>837.0</ele><time>2026-05-01T08:49:14.252Z</time></trkpt><trkpt lat="43.8849584" lon="11.873812"><ele>833.0</ele><time>2026-05-01T08:49:15.253Z</time></trkpt><trkpt lat="43.8849109" lon="11.8734723"><ele>829.0</ele><time>2026-05-01T08:49:16.249Z</time></trkpt><trkpt lat="43.8849368" lon="11.8732839"><ele>825.0</ele><time>2026-05-01T08:49:18.258Z</time></trkpt><trkpt lat="43.8849187" lon="11.8731894"><ele>825.0</ele><time>2026-05-01T08:49:19.259Z</time></trkpt><trkpt lat="43.8848212" lon="11.8731531"><ele>825.0</ele><time>2026-05-01T08:49:20.257Z</time></trkpt><trkpt lat="43.8847536" lon="11.8730872"><ele>825.0</ele><time>2026-05-01T08:49:21.252Z</time></trkpt><trkpt lat="43.8846816" lon="11.8730398"><ele>825.0</ele><time>2026-05-01T08:49:22.254Z</time></trkpt><trkpt lat="43.8845668" lon="11.8730245"><ele>825.0</ele><time>2026-05-01T08:49:23.251Z</time></trkpt><trkpt lat="43.8844871" lon="11.8729864"><ele>825.0</ele><time>2026-05-01T08:49:24.251Z</time></trkpt><trkpt lat="43.8843751" lon="11.8729704"><ele>825.0</ele><time>2026-05-01T08:49:25.258Z</time></trkpt><trkpt lat="43.8842853" lon="11.8729045"><ele>825.0</ele><time>2026-05-01T08:49:26.25Z</time></trkpt><trkpt lat="43.8842" lon="11.8727548"><ele>825.0</ele><time>2026-05-01T08:49:27.253Z</time></trkpt><trkpt lat="43.8841264" lon="11.8726388"><ele>826.8</ele><time>2026-05-01T08:49:28.252Z</time></trkpt><trkpt lat="43.8840322" lon="11.8725926"><ele>828.6</ele><time>2026-05-01T08:49:29.252Z</time></trkpt><trkpt lat="43.8839305" lon="11.8725411"><ele>830.4000000000001</ele><time>2026-05-01T08:49:30.259Z</time></trkpt><trkpt lat="43.8838349" lon="11.8725041"><ele>832.2</ele><time>2026-05-01T08:49:31.252Z</time></trkpt><trkpt lat="43.8837335" lon="11.872557"><ele>834.0</ele><time>2026-05-01T08:49:32.255Z</time></trkpt><trkpt lat="43.8836215" lon="11.8725303"><ele>829.75</ele><time>2026-05-01T08:49:33.251Z</time></trkpt><trkpt lat="43.8835224" lon="11.8726431"><ele>825.5</ele><time>2026-05-01T08:49:34.253Z</time></trkpt><trkpt lat="43.8834328" lon="11.8727205"><ele>821.25</ele><time>2026-05-01T08:49:35.264Z</time></trkpt><trkpt lat="43.883343" lon="11.8728179"><ele>817.0</ele><time>2026-05-01T08:49:36.258Z</time></trkpt><trkpt lat="43.8832665" lon="11.8729199"><ele>817.0</ele><time>2026-05-01T08:49:37.26Z</time></trkpt><trkpt lat="43.8831783" lon="11.8730739"><ele>817.0</ele><time>2026-05-01T08:49:39.254Z</time></trkpt><trkpt lat="43.8831128" lon="11.8730915"><ele>817.0</ele><time>2026-05-01T08:49:40.258Z</time></trkpt><trkpt lat="43.8830344" lon="11.8731434"><ele>817.0</ele><time>2026-05-01T08:49:41.257Z</time></trkpt><trkpt lat="43.8829313" lon="11.873136"><ele>817.0</ele><time>2026-05-01T08:49:42.251Z</time></trkpt><trkpt lat="43.8828621" lon="11.873145"><ele>817.0</ele><time>2026-05-01T08:49:43.257Z</time></trkpt><trkpt lat="43.8828023" lon="11.8732321"><ele>817.0</ele><time>2026-05-01T08:49:44.258Z</time></trkpt><trkpt lat="43.8827388" lon="11.8733066"><ele>817.0</ele><time>2026-05-01T08:49:45.252Z</time></trkpt><trkpt lat="43.8826657" lon="11.8733466"><ele>817.0</ele><time>2026-05-01T08:49:46.252Z</time></trkpt><trkpt lat="43.882603" lon="11.8734385"><ele>817.0</ele><time>2026-05-01T08:49:47.253Z</time></trkpt><trkpt lat="43.882517" lon="11.8736254"><ele>816.6666666666666</ele><time>2026-05-01T08:49:48.25Z</time></trkpt><trkpt lat="43.8824557" lon="11.873754"><ele>816.3333333333333</ele><time>2026-05-01T08:49:49.258Z</time></trkpt><trkpt lat="43.8823952" lon="11.873818"><ele>816.0</ele><time>2026-05-01T08:49:50.259Z</time></trkpt><trkpt lat="43.882368" lon="11.8739131"><ele>815.6666666666667</ele><time>2026-05-01T08:49:51.258Z</time></trkpt><trkpt lat="43.8822772" lon="11.8739073"><ele>815.3333333333334</ele><time>2026-05-01T08:49:52.258Z</time></trkpt><trkpt lat="43.882213" lon="11.8739216"><ele>815.0</ele><time>2026-05-01T08:49:53.257Z</time></trkpt><trkpt lat="43.8821432" lon="11.8739"><ele>815.0</ele><time>2026-05-01T08:49:54.251Z</time></trkpt><trkpt lat="43.8820779" lon="11.8739"><ele>815.0</ele><time>2026-05-01T08:49:55.249Z</time></trkpt><trkpt lat="43.8819247" lon="11.8738922"><ele>815.0</ele><time>2026-05-01T08:49:56.249Z</time></trkpt><trkpt lat="43.881824" lon="11.8738951"><ele>815.0</ele><time>2026-05-01T08:49:57.253Z</time></trkpt><trkpt lat="43.8816765" lon="11.8739523"><ele>812.75</ele><time>2026-05-01T08:49:58.251Z</time></trkpt><trkpt lat="43.8815663" lon="11.8740191"><ele>810.5</ele><time>2026-05-01T08:49:59.252Z</time></trkpt><trkpt lat="43.8814633" lon="11.8740771"><ele>808.25</ele><time>2026-05-01T08:50:00.256Z</time></trkpt><trkpt lat="43.8814089" lon="11.8743061"><ele>806.0</ele><time>2026-05-01T08:50:01.249Z</time></trkpt><trkpt lat="43.8813564" lon="11.874386"><ele>806.0</ele><time>2026-05-01T08:50:02.263Z</time></trkpt><trkpt lat="43.8813133" lon="11.8744772"><ele>806.0</ele><time>2026-05-01T08:50:03.251Z</time></trkpt><trkpt lat="43.8812729" lon="11.8745925"><ele>806.0</ele><time>2026-05-01T08:50:04.267Z</time></trkpt><trkpt lat="43.8812935" lon="11.8747891"><ele>806.0</ele><time>2026-05-01T08:50:05.263Z</time></trkpt><trkpt lat="43.881224" lon="11.8747813"><ele>806.0</ele><time>2026-05-01T08:50:06.258Z</time></trkpt><trkpt lat="43.8811277" lon="11.8747793"><ele>806.0</ele><time>2026-05-01T08:50:07.247Z</time></trkpt><trkpt lat="43.8810326" lon="11.8747663"><ele>806.0</ele><time>2026-05-01T08:50:08.257Z</time></trkpt><trkpt lat="43.880928" lon="11.8747457"><ele>806.0</ele><time>2026-05-01T08:50:09.258Z</time></trkpt><trkpt lat="43.8808108" lon="11.8746926"><ele>806.0</ele><time>2026-05-01T08:50:10.248Z</time></trkpt><trkpt lat="43.8806885" lon="11.8747354"><ele>806.0</ele><time>2026-05-01T08:50:12.264Z</time></trkpt><trkpt lat="43.8805817" lon="11.874851"><ele>806.0</ele><time>2026-05-01T08:50:13.26Z</time></trkpt><trkpt lat="43.8804808" lon="11.8749246"><ele>806.0</ele><time>2026-05-01T08:50:14.267Z</time></trkpt><trkpt lat="43.8803877" lon="11.8750763"><ele>806.0</ele><time>2026-05-01T08:50:15.258Z</time></trkpt><trkpt lat="43.8802904" lon="11.8752013"><ele>806.0</ele><time>2026-05-01T08:50:16.257Z</time></trkpt><trkpt lat="43.8802246" lon="11.8753375"><ele>806.0</ele><time>2026-05-01T08:50:17.257Z</time></trkpt><trkpt lat="43.8801603" lon="11.8755222"><ele>806.0</ele><time>2026-05-01T08:50:18.253Z</time></trkpt><trkpt lat="43.8800945" lon="11.8756649"><ele>806.0</ele><time>2026-05-01T08:50:19.267Z</time></trkpt><trkpt lat="43.8800056" lon="11.8758066"><ele>810.5</ele><time>2026-05-01T08:50:20.262Z</time></trkpt><trkpt lat="43.8799011" lon="11.8759204"><ele>815.0</ele><time>2026-05-01T08:50:21.251Z</time></trkpt><trkpt lat="43.8798909" lon="11.8760611"><ele>819.5</ele><time>2026-05-01T08:50:22.266Z</time></trkpt><trkpt lat="43.8797998" lon="11.8761879"><ele>824.0</ele><time>2026-05-01T08:50:23.257Z</time></trkpt><trkpt lat="43.8796866" lon="11.8763129"><ele>824.0</ele><time>2026-05-01T08:50:24.251Z</time></trkpt><trkpt lat="43.879574" lon="11.8764688"><ele>824.0</ele><time>2026-05-01T08:50:25.248Z</time></trkpt><trkpt lat="43.8794667" lon="11.8765869"><ele>824.0</ele><time>2026-05-01T08:50:26.257Z</time></trkpt><trkpt lat="43.8793559" lon="11.8767473"><ele>823.5</ele><time>2026-05-01T08:50:27.257Z</time></trkpt><trkpt lat="43.8792519" lon="11.8768649"><ele>823.0</ele><time>2026-05-01T08:50:28.257Z</time></trkpt><trkpt lat="43.8791687" lon="11.8769261"><ele>822.5</ele><time>2026-05-01T08:50:29.251Z</time></trkpt><trkpt lat="43.8790684" lon="11.8770064"><ele>822.0</ele><time>2026-05-01T08:50:30.247Z</time></trkpt><trkpt lat="43.8789818" lon="11.8771216"><ele>822.0</ele><time>2026-05-01T08:50:31.249Z</time></trkpt><trkpt lat="43.8789223" lon="11.8770464"><ele>822.0</ele><time>2026-05-01T08:50:32.26Z</time></trkpt><trkpt lat="43.8788288" lon="11.8770584"><ele>822.0</ele><time>2026-05-01T08:50:34.255Z</time></trkpt><trkpt lat="43.8787621" lon="11.8769994"><ele>822.0</ele><time>2026-05-01T08:50:36.252Z</time></trkpt><trkpt lat="43.8786971" lon="11.8769705"><ele>822.0</ele><time>2026-05-01T08:51:14.252Z</time></trkpt><trkpt lat="43.8786507" lon="11.8770803"><ele>822.0</ele><time>2026-05-01T08:51:18.257Z</time></trkpt><trkpt lat="43.878607" lon="11.8771846"><ele>822.0</ele><time>2026-05-01T08:51:20.25Z</time></trkpt><trkpt lat="43.8785183" lon="11.8772899"><ele>822.0</ele><time>2026-05-01T08:51:21.259Z</time></trkpt><trkpt lat="43.8784985" lon="11.8773751"><ele>822.0</ele><time>2026-05-01T08:51:22.249Z</time></trkpt><trkpt lat="43.8784401" lon="11.8774792"><ele>822.0</ele><time>2026-05-01T08:51:23.257Z</time></trkpt><trkpt lat="43.8783039" lon="11.8776239"><ele>822.0</ele><time>2026-05-01T08:51:25.257Z</time></trkpt><trkpt lat="43.8782294" lon="11.8776973"><ele>820.8</ele><time>2026-05-01T08:51:26.25Z</time></trkpt><trkpt lat="43.8781579" lon="11.8777917"><ele>819.6</ele><time>2026-05-01T08:51:27.257Z</time></trkpt><trkpt lat="43.8780721" lon="11.8778765"><ele>818.4</ele><time>2026-05-01T08:51:28.261Z</time></trkpt><trkpt lat="43.8779508" lon="11.8779863"><ele>817.1999999999999</ele><time>2026-05-01T08:51:30.259Z</time></trkpt><trkpt lat="43.8778744" lon="11.8780433"><ele>816.0</ele><time>2026-05-01T08:51:31.257Z</time></trkpt><trkpt lat="43.8777984" lon="11.8781005"><ele>816.0</ele><time>2026-05-01T08:51:32.25Z</time></trkpt><trkpt lat="43.8777148" lon="11.8781728"><ele>816.0</ele><time>2026-05-01T08:51:33.257Z</time></trkpt><trkpt lat="43.8776323" lon="11.878242"><ele>816.0</ele><time>2026-05-01T08:51:34.257Z</time></trkpt><trkpt lat="43.8775495" lon="11.8783221"><ele>816.0</ele><time>2026-05-01T08:51:35.25Z</time></trkpt><trkpt lat="43.877463" lon="11.8784202"><ele>816.0</ele><time>2026-05-01T08:51:36.259Z</time></trkpt><trkpt lat="43.8773637" lon="11.8785203"><ele>814.5</ele><time>2026-05-01T08:51:37.25Z</time></trkpt><trkpt lat="43.8772734" lon="11.8786175"><ele>813.0</ele><time>2026-05-01T08:51:38.259Z</time></trkpt><trkpt lat="43.8771782" lon="11.8787148"><ele>811.5</ele><time>2026-05-01T08:51:39.251Z</time></trkpt><trkpt lat="43.8770749" lon="11.8788131"><ele>810.0</ele><time>2026-05-01T08:51:40.256Z</time></trkpt><trkpt lat="43.8770127" lon="11.8789182"><ele>810.0</ele><time>2026-05-01T08:51:41.256Z</time></trkpt><trkpt lat="43.8769456" lon="11.8790122"><ele>810.0</ele><time>2026-05-01T08:51:42.254Z</time></trkpt><trkpt lat="43.8768721" lon="11.8791128"><ele>810.0</ele><time>2026-05-01T08:51:43.263Z</time></trkpt><trkpt lat="43.8767912" lon="11.8792068"><ele>810.0</ele><time>2026-05-01T08:51:44.254Z</time></trkpt><trkpt lat="43.8767068" lon="11.8792927"><ele>810.0</ele><time>2026-05-01T08:51:45.259Z</time></trkpt><trkpt lat="43.8766065" lon="11.8793775"><ele>812.25</ele><time>2026-05-01T08:51:46.257Z</time></trkpt><trkpt lat="43.876506" lon="11.8794766"><ele>814.5</ele><time>2026-05-01T08:51:47.257Z</time></trkpt><trkpt lat="43.876415" lon="11.8795728"><ele>816.75</ele><time>2026-05-01T08:51:48.25Z</time></trkpt><trkpt lat="43.8763167" lon="11.8796699"><ele>819.0</ele><time>2026-05-01T08:51:49.25Z</time></trkpt><trkpt lat="43.8762244" lon="11.8797685"><ele>819.0</ele><time>2026-05-01T08:51:50.248Z</time></trkpt><trkpt lat="43.8761409" lon="11.8798713"><ele>819.0</ele><time>2026-05-01T08:51:51.256Z</time></trkpt><trkpt lat="43.8760646" lon="11.879983"><ele>819.0</ele><time>2026-05-01T08:51:52.259Z</time></trkpt><trkpt lat="43.8759949" lon="11.8800846"><ele>819.0</ele><time>2026-05-01T08:51:53.255Z</time></trkpt><trkpt lat="43.8759154" lon="11.8801946"><ele>819.0</ele><time>2026-05-01T08:51:54.281Z</time></trkpt><trkpt lat="43.8758313" lon="11.880313"><ele>817.2</ele><time>2026-05-01T08:51:55.257Z</time></trkpt><trkpt lat="43.8757541" lon="11.8804155"><ele>815.4000000000001</ele><time>2026-05-01T08:51:56.254Z</time></trkpt><trkpt lat="43.8756937" lon="11.8805221"><ele>813.6</ele><time>2026-05-01T08:51:57.26Z</time></trkpt><trkpt lat="43.8756458" lon="11.8806318"><ele>811.8</ele><time>2026-05-01T08:51:58.257Z</time></trkpt><trkpt lat="43.8755856" lon="11.8807148"><ele>810.0</ele><time>2026-05-01T08:51:59.257Z</time></trkpt><trkpt lat="43.8755397" lon="11.8807978"><ele>810.0</ele><time>2026-05-01T08:52:00.25Z</time></trkpt><trkpt lat="43.8755187" lon="11.8808959"><ele>810.0</ele><time>2026-05-01T08:52:01.258Z</time></trkpt><trkpt lat="43.8755225" lon="11.8810188"><ele>810.0</ele><time>2026-05-01T08:52:02.257Z</time></trkpt><trkpt lat="43.8755485" lon="11.8811857"><ele>810.0</ele><time>2026-05-01T08:52:03.256Z</time></trkpt><trkpt lat="43.8755636" lon="11.8813444"><ele>810.0</ele><time>2026-05-01T08:52:04.253Z</time></trkpt><trkpt lat="43.8755698" lon="11.8815001"><ele>808.8</ele><time>2026-05-01T08:52:05.258Z</time></trkpt><trkpt lat="43.8755649" lon="11.881626"><ele>807.6</ele><time>2026-05-01T08:52:06.251Z</time></trkpt><trkpt lat="43.8755212" lon="11.8817393"><ele>806.4000000000001</ele><time>2026-05-01T08:52:07.251Z</time></trkpt><trkpt lat="43.875481" lon="11.881891"><ele>805.2</ele><time>2026-05-01T08:52:08.253Z</time></trkpt><trkpt lat="43.8754704" lon="11.8820296"><ele>804.0</ele><time>2026-05-01T08:52:09.263Z</time></trkpt><trkpt lat="43.8753912" lon="11.8822017"><ele>798.25</ele><time>2026-05-01T08:52:10.257Z</time></trkpt><trkpt lat="43.8752977" lon="11.8823823"><ele>792.5</ele><time>2026-05-01T08:52:11.256Z</time></trkpt><trkpt lat="43.8752194" lon="11.8825442"><ele>786.75</ele><time>2026-05-01T08:52:12.258Z</time></trkpt><trkpt lat="43.8751525" lon="11.8827063"><ele>781.0</ele><time>2026-05-01T08:52:13.264Z</time></trkpt><trkpt lat="43.875112" lon="11.882848"><ele>779.8</ele><time>2026-05-01T08:52:14.263Z</time></trkpt><trkpt lat="43.8750543" lon="11.8829692"><ele>778.5999999999999</ele><time>2026-05-01T08:52:15.258Z</time></trkpt><trkpt lat="43.8750028" lon="11.8831006"><ele>777.4</ele><time>2026-05-01T08:52:16.26Z</time></trkpt><trkpt lat="43.8749327" lon="11.8829811"><ele>776.2</ele><time>2026-05-01T08:52:20.251Z</time></trkpt><trkpt lat="43.8749308" lon="11.8828121"><ele>775.0</ele><time>2026-05-01T08:52:22.259Z</time></trkpt><trkpt lat="43.8749991" lon="11.8826586"><ele>776.5</ele><time>2026-05-01T08:52:23.258Z</time></trkpt><trkpt lat="43.8750436" lon="11.8825134"><ele>778.0</ele><time>2026-05-01T08:52:26.27Z</time></trkpt><trkpt lat="43.875066" lon="11.8824186"><ele>779.5</ele><time>2026-05-01T08:52:27.26Z</time></trkpt><trkpt lat="43.8750799" lon="11.8822662"><ele>781.0</ele><time>2026-05-01T08:52:28.262Z</time></trkpt><trkpt lat="43.8751531" lon="11.8819703"><ele>782.1999999999999</ele><time>2026-05-01T08:52:29.259Z</time></trkpt><trkpt lat="43.8751739" lon="11.8817628"><ele>783.4</ele><time>2026-05-01T08:52:30.25Z</time></trkpt><trkpt lat="43.8751497" lon="11.881624"><ele>784.6</ele><time>2026-05-01T08:52:31.25Z</time></trkpt><trkpt lat="43.8751143" lon="11.8815434"><ele>785.8</ele><time>2026-05-01T08:52:32.25Z</time></trkpt><trkpt lat="43.8750518" lon="11.8814368"><ele>787.0</ele><time>2026-05-01T08:52:34.256Z</time></trkpt><trkpt lat="43.8750243" lon="11.881348"><ele>787.0</ele><time>2026-05-01T08:52:36.248Z</time></trkpt><trkpt lat="43.8749892" lon="11.8811259"><ele>787.0</ele><time>2026-05-01T08:52:38.253Z</time></trkpt><trkpt lat="43.8750129" lon="11.8810373"><ele>787.0</ele><time>2026-05-01T08:52:41.275Z</time></trkpt><trkpt lat="43.8750487" lon="11.8809177"><ele>787.0</ele><time>2026-05-01T08:52:44.253Z</time></trkpt><trkpt lat="43.8751181" lon="11.8804199"><ele>799.0</ele><time>2026-05-01T08:52:45.257Z</time></trkpt><trkpt lat="43.8751648" lon="11.8799123"><ele>811.0</ele><time>2026-05-01T08:52:46.249Z</time></trkpt><trkpt lat="43.8751909" lon="11.8795483"><ele>811.0</ele><time>2026-05-01T08:52:47.257Z</time></trkpt><trkpt lat="43.8752139" lon="11.87929"><ele>811.0</ele><time>2026-05-01T08:52:48.25Z</time></trkpt><trkpt lat="43.8752402" lon="11.8791348"><ele>811.0</ele><time>2026-05-01T08:52:49.257Z</time></trkpt><trkpt lat="43.8752515" lon="11.8790024"><ele>811.0</ele><time>2026-05-01T08:52:50.248Z</time></trkpt><trkpt lat="43.8752326" lon="11.8788844"><ele>809.75</ele><time>2026-05-01T08:52:51.257Z</time></trkpt><trkpt lat="43.8752155" lon="11.878713"><ele>808.5</ele><time>2026-05-01T08:52:53.256Z</time></trkpt><trkpt lat="43.875124" lon="11.8787552"><ele>807.25</ele><time>2026-05-01T08:52:56.266Z</time></trkpt><trkpt lat="43.8750056" lon="11.8789712"><ele>806.0</ele><time>2026-05-01T08:52:57.248Z</time></trkpt><trkpt lat="43.8749126" lon="11.8791715"><ele>798.3333333333334</ele><time>2026-05-01T08:52:58.266Z</time></trkpt><trkpt lat="43.8748034" lon="11.8793612"><ele>790.6666666666667</ele><time>2026-05-01T08:52:59.271Z</time></trkpt><trkpt lat="43.8746836" lon="11.879697"><ele>783.0</ele><time>2026-05-01T08:53:01.251Z</time></trkpt><trkpt lat="43.8745848" lon="11.8799513"><ele>784.0</ele><time>2026-05-01T08:53:02.246Z</time></trkpt><trkpt lat="43.8744997" lon="11.8802291"><ele>785.0</ele><time>2026-05-01T08:53:03.258Z</time></trkpt><trkpt lat="43.8744318" lon="11.8804588"><ele>786.0</ele><time>2026-05-01T08:53:04.251Z</time></trkpt><trkpt lat="43.8743667" lon="11.8806742"><ele>786.0</ele><time>2026-05-01T08:53:05.246Z</time></trkpt><trkpt lat="43.8743075" lon="11.8808147"><ele>786.0</ele><time>2026-05-01T08:53:06.257Z</time></trkpt><trkpt lat="43.8742564" lon="11.8809657"><ele>786.0</ele><time>2026-05-01T08:53:07.257Z</time></trkpt><trkpt lat="43.874211" lon="11.8811126"><ele>786.0</ele><time>2026-05-01T08:53:08.26Z</time></trkpt><trkpt lat="43.8741506" lon="11.8812506"><ele>780.4</ele><time>2026-05-01T08:53:09.247Z</time></trkpt><trkpt lat="43.8740935" lon="11.8813846"><ele>774.8</ele><time>2026-05-01T08:53:10.259Z</time></trkpt><trkpt lat="43.8740692" lon="11.8815397"><ele>769.1999999999999</ele><time>2026-05-01T08:53:11.258Z</time></trkpt><trkpt lat="43.8740389" lon="11.8816748"><ele>763.5999999999999</ele><time>2026-05-01T08:53:12.26Z</time></trkpt><trkpt lat="43.8740083" lon="11.8818098"><ele>758.0</ele><time>2026-05-01T08:53:13.258Z</time></trkpt><trkpt lat="43.8739876" lon="11.8819483"><ele>757.5</ele><time>2026-05-01T08:53:14.252Z</time></trkpt><trkpt lat="43.8739606" lon="11.8820768"><ele>757.0</ele><time>2026-05-01T08:53:15.254Z</time></trkpt><trkpt lat="43.8739238" lon="11.8822182"><ele>756.5</ele><time>2026-05-01T08:53:16.257Z</time></trkpt><trkpt lat="43.8738655" lon="11.8823752"><ele>756.0</ele><time>2026-05-01T08:53:17.255Z</time></trkpt><trkpt lat="43.873818" lon="11.8825334"><ele>755.5999999999999</ele><time>2026-05-01T08:53:18.257Z</time></trkpt><trkpt lat="43.8737689" lon="11.8826539"><ele>755.2</ele><time>2026-05-01T08:53:19.25Z</time></trkpt><trkpt lat="43.8737596" lon="11.8828067"><ele>754.8</ele><time>2026-05-01T08:53:20.25Z</time></trkpt><trkpt lat="43.8737793" lon="11.8829641"><ele>754.4000000000001</ele><time>2026-05-01T08:53:21.246Z</time></trkpt><trkpt lat="43.8737818" lon="11.8831047"><ele>754.0</ele><time>2026-05-01T08:53:22.25Z</time></trkpt><trkpt lat="43.8738041" lon="11.8832442"><ele>754.0</ele><time>2026-05-01T08:53:23.249Z</time></trkpt><trkpt lat="43.8738287" lon="11.8833762"><ele>754.0</ele><time>2026-05-01T08:53:24.254Z</time></trkpt><trkpt lat="43.8738655" lon="11.883497"><ele>754.0</ele><time>2026-05-01T08:53:25.258Z</time></trkpt><trkpt lat="43.8738839" lon="11.8836142"><ele>754.0</ele><time>2026-05-01T08:53:26.257Z</time></trkpt><trkpt lat="43.8738968" lon="11.8837365"><ele>754.0</ele><time>2026-05-01T08:53:27.256Z</time></trkpt><trkpt lat="43.8739003" lon="11.8838766"><ele>753.0</ele><time>2026-05-01T08:53:28.254Z</time></trkpt><trkpt lat="43.8738114" lon="11.8840331"><ele>752.0</ele><time>2026-05-01T08:53:29.257Z</time></trkpt><trkpt lat="43.8737436" lon="11.8841599"><ele>751.0</ele><time>2026-05-01T08:53:30.259Z</time></trkpt><trkpt lat="43.8736973" lon="11.8842296"><ele>750.0</ele><time>2026-05-01T08:53:31.263Z</time></trkpt><trkpt lat="43.8736613" lon="11.8843104"><ele>749.0</ele><time>2026-05-01T08:53:32.26Z</time></trkpt><trkpt lat="43.8736186" lon="11.8843802"><ele>749.0</ele><time>2026-05-01T08:53:33.261Z</time></trkpt><trkpt lat="43.8735226" lon="11.8844557"><ele>749.0</ele><time>2026-05-01T08:53:35.253Z</time></trkpt><trkpt lat="43.8735233" lon="11.8843383"><ele>749.0</ele><time>2026-05-01T08:53:37.257Z</time></trkpt><trkpt lat="43.8735444" lon="11.8842178"><ele>749.0</ele><time>2026-05-01T08:53:38.26Z</time></trkpt><trkpt lat="43.8735637" lon="11.8841151"><ele>749.0</ele><time>2026-05-01T08:53:39.259Z</time></trkpt><trkpt lat="43.8735254" lon="11.8839539"><ele>749.0</ele><time>2026-05-01T08:53:40.251Z</time></trkpt><trkpt lat="43.8734882" lon="11.8838048"><ele>749.0</ele><time>2026-05-01T08:53:41.248Z</time></trkpt><trkpt lat="43.8734494" lon="11.8836533"><ele>749.0</ele><time>2026-05-01T08:53:42.257Z</time></trkpt><trkpt lat="43.8734093" lon="11.8835074"><ele>749.0</ele><time>2026-05-01T08:53:43.252Z</time></trkpt><trkpt lat="43.8733676" lon="11.8833673"><ele>743.2</ele><time>2026-05-01T08:53:44.252Z</time></trkpt><trkpt lat="43.8733236" lon="11.8832246"><ele>737.4000000000001</ele><time>2026-05-01T08:53:45.265Z</time></trkpt><trkpt lat="43.8732794" lon="11.8831027"><ele>731.6</ele><time>2026-05-01T08:53:46.26Z</time></trkpt><trkpt lat="43.8732333" lon="11.8829821"><ele>725.8</ele><time>2026-05-01T08:53:47.261Z</time></trkpt><trkpt lat="43.8731851" lon="11.8828628"><ele>720.0</ele><time>2026-05-01T08:53:48.267Z</time></trkpt><trkpt lat="43.8731223" lon="11.8827359"><ele>720.0</ele><time>2026-05-01T08:53:49.258Z</time></trkpt><trkpt lat="43.8730544" lon="11.8826173"><ele>720.0</ele><time>2026-05-01T08:53:50.266Z</time></trkpt><trkpt lat="43.8730046" lon="11.8824946"><ele>720.0</ele><time>2026-05-01T08:53:51.265Z</time></trkpt><trkpt lat="43.8729444" lon="11.8823691"><ele>720.0</ele><time>2026-05-01T08:53:52.257Z</time></trkpt><trkpt lat="43.8728839" lon="11.882246"><ele>720.0</ele><time>2026-05-01T08:53:53.253Z</time></trkpt><trkpt lat="43.8728207" lon="11.882111"><ele>720.75</ele><time>2026-05-01T08:53:54.252Z</time></trkpt><trkpt lat="43.8727607" lon="11.8819755"><ele>721.5</ele><time>2026-05-01T08:53:55.252Z</time></trkpt><trkpt lat="43.8727093" lon="11.8818318"><ele>722.25</ele><time>2026-05-01T08:53:56.259Z</time></trkpt><trkpt lat="43.8726594" lon="11.8816681"><ele>723.0</ele><time>2026-05-01T08:53:57.251Z</time></trkpt><trkpt lat="43.8726349" lon="11.8815222"><ele>720.0</ele><time>2026-05-01T08:53:58.251Z</time></trkpt><trkpt lat="43.8725893" lon="11.8814289"><ele>717.0</ele><time>2026-05-01T08:53:59.259Z</time></trkpt><trkpt lat="43.8725673" lon="11.8813127"><ele>714.0</ele><time>2026-05-01T08:54:00.254Z</time></trkpt><trkpt lat="43.8725332" lon="11.8812111"><ele>711.0</ele><time>2026-05-01T08:54:02.265Z</time></trkpt><trkpt lat="43.872487" lon="11.8811205"><ele>708.0</ele><time>2026-05-01T08:54:04.259Z</time></trkpt><trkpt lat="43.8724186" lon="11.8811232"><ele>705.0</ele><time>2026-05-01T08:54:05.251Z</time></trkpt><trkpt lat="43.8723854" lon="11.8812205"><ele>705.0</ele><time>2026-05-01T08:54:06.257Z</time></trkpt><trkpt lat="43.8723475" lon="11.8812968"><ele>705.0</ele><time>2026-05-01T08:54:07.257Z</time></trkpt><trkpt lat="43.872339" lon="11.8813936"><ele>705.0</ele><time>2026-05-01T08:54:08.257Z</time></trkpt><trkpt lat="43.8723305" lon="11.8814898"><ele>705.0</ele><time>2026-05-01T08:54:09.249Z</time></trkpt><trkpt lat="43.8723205" lon="11.8816334"><ele>705.0</ele><time>2026-05-01T08:54:11.257Z</time></trkpt><trkpt lat="43.8722964" lon="11.881742"><ele>705.0</ele><time>2026-05-01T08:54:15.257Z</time></trkpt><trkpt lat="43.872243" lon="11.8818161"><ele>704.4</ele><time>2026-05-01T08:54:17.247Z</time></trkpt><trkpt lat="43.8721912" lon="11.8819059"><ele>703.8</ele><time>2026-05-01T08:54:22.259Z</time></trkpt><trkpt lat="43.8722231" lon="11.8820847"><ele>703.2</ele><time>2026-05-01T08:54:24.27Z</time></trkpt><trkpt lat="43.8721712" lon="11.8821477"><ele>702.6</ele><time>2026-05-01T08:54:57.261Z</time></trkpt><trkpt lat="43.8721348" lon="11.8822311"><ele>702.0</ele><time>2026-05-01T08:54:59.257Z</time></trkpt><trkpt lat="43.8721149" lon="11.8823931"><ele>702.0</ele><time>2026-05-01T08:55:02.257Z</time></trkpt><trkpt lat="43.8720947" lon="11.8825024"><ele>702.0</ele><time>2026-05-01T08:55:03.255Z</time></trkpt><trkpt lat="43.8721049" lon="11.8826349"><ele>702.0</ele><time>2026-05-01T08:55:04.272Z</time></trkpt><trkpt lat="43.8721275" lon="11.8827269"><ele>702.0</ele><time>2026-05-01T08:55:05.261Z</time></trkpt><trkpt lat="43.8720429" lon="11.8829536"><ele>702.0</ele><time>2026-05-01T08:55:06.258Z</time></trkpt><trkpt lat="43.8721196" lon="11.8830424"><ele>700.75</ele><time>2026-05-01T08:55:07.247Z</time></trkpt><trkpt lat="43.8722" lon="11.8832332"><ele>699.5</ele><time>2026-05-01T08:55:09.253Z</time></trkpt><trkpt lat="43.8722446" lon="11.8833614"><ele>698.25</ele><time>2026-05-01T08:55:10.258Z</time></trkpt><trkpt lat="43.8722713" lon="11.8834948"><ele>697.0</ele><time>2026-05-01T08:55:11.251Z</time></trkpt><trkpt lat="43.8722934" lon="11.8836233"><ele>696.1666666666667</ele><time>2026-05-01T08:55:12.257Z</time></trkpt><trkpt lat="43.872317" lon="11.883737"><ele>695.3333333333334</ele><time>2026-05-01T08:55:13.251Z</time></trkpt><trkpt lat="43.8723559" lon="11.8838251"><ele>694.5</ele><time>2026-05-01T08:55:14.259Z</time></trkpt><trkpt lat="43.8723986" lon="11.883904"><ele>693.6666666666666</ele><time>2026-05-01T08:55:15.249Z</time></trkpt><trkpt lat="43.8724316" lon="11.884075"><ele>692.8333333333333</ele><time>2026-05-01T08:55:17.263Z</time></trkpt><trkpt lat="43.8724177" lon="11.8841912"><ele>692.0</ele><time>2026-05-01T08:55:18.25Z</time></trkpt><trkpt lat="43.8723956" lon="11.8843311"><ele>692.0</ele><time>2026-05-01T08:55:19.254Z</time></trkpt><trkpt lat="43.8724026" lon="11.8844554"><ele>692.0</ele><time>2026-05-01T08:55:20.258Z</time></trkpt><trkpt lat="43.8723683" lon="11.8846146"><ele>692.0</ele><time>2026-05-01T08:55:21.263Z</time></trkpt><trkpt lat="43.8723195" lon="11.8847554"><ele>692.0</ele><time>2026-05-01T08:55:22.258Z</time></trkpt><trkpt lat="43.8722606" lon="11.8848656"><ele>692.0</ele><time>2026-05-01T08:55:23.252Z</time></trkpt><trkpt lat="43.8722107" lon="11.8849816"><ele>692.0</ele><time>2026-05-01T08:55:24.263Z</time></trkpt><trkpt lat="43.8721631" lon="11.885077"><ele>692.0</ele><time>2026-05-01T08:55:25.251Z</time></trkpt><trkpt lat="43.8721199" lon="11.8851712"><ele>692.0</ele><time>2026-05-01T08:55:26.257Z</time></trkpt><trkpt lat="43.8720107" lon="11.8851666"><ele>692.0</ele><time>2026-05-01T08:55:28.262Z</time></trkpt><trkpt lat="43.8719192" lon="11.8851808"><ele>692.0</ele><time>2026-05-01T08:55:30.251Z</time></trkpt><trkpt lat="43.871913" lon="11.8850841"><ele>692.0</ele><time>2026-05-01T08:55:35.276Z</time></trkpt><trkpt lat="43.871917" lon="11.8849458"><ele>692.0</ele><time>2026-05-01T08:55:37.264Z</time></trkpt><trkpt lat="43.871918" lon="11.8846386"><ele>692.0</ele><time>2026-05-01T08:55:40.248Z</time></trkpt><trkpt lat="43.8718804" lon="11.8844408"><ele>692.0</ele><time>2026-05-01T08:55:41.258Z</time></trkpt><trkpt lat="43.8718319" lon="11.884292"><ele>691.1666666666666</ele><time>2026-05-01T08:55:42.256Z</time></trkpt><trkpt lat="43.8717782" lon="11.884177"><ele>690.3333333333333</ele><time>2026-05-01T08:55:43.262Z</time></trkpt><trkpt lat="43.8717194" lon="11.8840929"><ele>689.5</ele><time>2026-05-01T08:55:44.257Z</time></trkpt><trkpt lat="43.8716628" lon="11.8840256"><ele>688.6666666666666</ele><time>2026-05-01T08:55:45.257Z</time></trkpt><trkpt lat="43.8716036" lon="11.8839586"><ele>687.8333333333334</ele><time>2026-05-01T08:55:46.248Z</time></trkpt><trkpt lat="43.8715167" lon="11.8838735"><ele>687.0</ele><time>2026-05-01T08:55:48.248Z</time></trkpt><trkpt lat="43.8714382" lon="11.8837795"><ele>685.3333333333334</ele><time>2026-05-01T08:55:50.256Z</time></trkpt><trkpt lat="43.8713546" lon="11.8836727"><ele>683.6666666666666</ele><time>2026-05-01T08:55:52.26Z</time></trkpt><trkpt lat="43.8713013" lon="11.8836093"><ele>682.0</ele><time>2026-05-01T08:55:53.257Z</time></trkpt><trkpt lat="43.8712372" lon="11.8835373"><ele>680.3333333333333</ele><time>2026-05-01T08:55:54.258Z</time></trkpt><trkpt lat="43.8711894" lon="11.8834422"><ele>678.6666666666666</ele><time>2026-05-01T08:55:55.251Z</time></trkpt><trkpt lat="43.8711457" lon="11.8833285"><ele>677.0</ele><time>2026-05-01T08:55:56.248Z</time></trkpt><trkpt lat="43.8710959" lon="11.883172"><ele>677.0</ele><time>2026-05-01T08:55:57.259Z</time></trkpt><trkpt lat="43.8710304" lon="11.8830961"><ele>677.0</ele><time>2026-05-01T08:55:58.257Z</time></trkpt><trkpt lat="43.8709074" lon="11.8830447"><ele>677.0</ele><time>2026-05-01T08:55:59.257Z</time></trkpt><trkpt lat="43.8708573" lon="11.8829479"><ele>677.0</ele><time>2026-05-01T08:56:00.248Z</time></trkpt><trkpt lat="43.8707987" lon="11.8828436"><ele>677.0</ele><time>2026-05-01T08:56:01.247Z</time></trkpt><trkpt lat="43.8707637" lon="11.8827123"><ele>673.1666666666666</ele><time>2026-05-01T08:56:02.248Z</time></trkpt><trkpt lat="43.8707442" lon="11.8825736"><ele>669.3333333333333</ele><time>2026-05-01T08:56:03.249Z</time></trkpt><trkpt lat="43.8707039" lon="11.8824814"><ele>665.5</ele><time>2026-05-01T08:56:04.25Z</time></trkpt><trkpt lat="43.8706946" lon="11.8823879"><ele>661.6666666666666</ele><time>2026-05-01T08:56:05.256Z</time></trkpt><trkpt lat="43.8706728" lon="11.8822816"><ele>657.8333333333334</ele><time>2026-05-01T08:56:06.249Z</time></trkpt><trkpt lat="43.8706564" lon="11.8821467"><ele>654.0</ele><time>2026-05-01T08:56:07.259Z</time></trkpt><trkpt lat="43.8706506" lon="11.882022"><ele>654.0</ele><time>2026-05-01T08:56:08.258Z</time></trkpt><trkpt lat="43.8706309" lon="11.8819082"><ele>654.0</ele><time>2026-05-01T08:56:09.25Z</time></trkpt><trkpt lat="43.8706377" lon="11.8817892"><ele>654.0</ele><time>2026-05-01T08:56:10.256Z</time></trkpt><trkpt lat="43.8706024" lon="11.8816352"><ele>654.0</ele><time>2026-05-01T08:56:11.258Z</time></trkpt><trkpt lat="43.8705875" lon="11.8815153"><ele>654.0</ele><time>2026-05-01T08:56:12.257Z</time></trkpt><trkpt lat="43.8706069" lon="11.8814225"><ele>654.0</ele><time>2026-05-01T08:56:13.257Z</time></trkpt><trkpt lat="43.8706174" lon="11.8812917"><ele>654.3333333333334</ele><time>2026-05-01T08:56:14.257Z</time></trkpt><trkpt lat="43.8706732" lon="11.8812485"><ele>654.6666666666666</ele><time>2026-05-01T08:56:15.252Z</time></trkpt><trkpt lat="43.8706512" lon="11.8811177"><ele>655.0</ele><time>2026-05-01T08:56:17.257Z</time></trkpt><trkpt lat="43.8706015" lon="11.8810561"><ele>655.3333333333333</ele><time>2026-05-01T08:56:19.258Z</time></trkpt><trkpt lat="43.8705325" lon="11.8810377"><ele>655.6666666666666</ele><time>2026-05-01T08:56:21.272Z</time></trkpt><trkpt lat="43.87047" lon="11.8811534"><ele>656.0</ele><time>2026-05-01T08:56:23.259Z</time></trkpt><trkpt lat="43.8704239" lon="11.881231"><ele>656.0</ele><time>2026-05-01T08:56:26.187Z</time></trkpt><trkpt lat="43.8703152" lon="11.8816406"><ele>656.0</ele><time>2026-05-01T08:56:30.256Z</time></trkpt><trkpt lat="43.8702441" lon="11.8820996"><ele>655.3333333333333</ele><time>2026-05-01T08:56:31.249Z</time></trkpt><trkpt lat="43.8702391" lon="11.8823324"><ele>654.6666666666666</ele><time>2026-05-01T08:56:32.252Z</time></trkpt><trkpt lat="43.8702293" lon="11.8825736"><ele>654.0</ele><time>2026-05-01T08:56:33.256Z</time></trkpt><trkpt lat="43.8702219" lon="11.8827942"><ele>653.5</ele><time>2026-05-01T08:56:34.256Z</time></trkpt><trkpt lat="43.8702026" lon="11.8829969"><ele>653.0</ele><time>2026-05-01T08:56:35.256Z</time></trkpt><trkpt lat="43.8701926" lon="11.8831737"><ele>652.5</ele><time>2026-05-01T08:56:36.248Z</time></trkpt><trkpt lat="43.8701795" lon="11.8833257"><ele>652.0</ele><time>2026-05-01T08:56:37.257Z</time></trkpt><trkpt lat="43.8701507" lon="11.8834462"><ele>650.3333333333334</ele><time>2026-05-01T08:56:38.257Z</time></trkpt><trkpt lat="43.8701156" lon="11.8835494"><ele>648.6666666666667</ele><time>2026-05-01T08:56:39.259Z</time></trkpt><trkpt lat="43.8700934" lon="11.883663"><ele>647.0</ele><time>2026-05-01T08:56:40.248Z</time></trkpt><trkpt lat="43.870068" lon="11.8837733"><ele>645.3333333333334</ele><time>2026-05-01T08:56:41.258Z</time></trkpt><trkpt lat="43.8700331" lon="11.8838804"><ele>643.6666666666666</ele><time>2026-05-01T08:56:42.248Z</time></trkpt><trkpt lat="43.8699948" lon="11.8839844"><ele>642.0</ele><time>2026-05-01T08:56:43.252Z</time></trkpt><trkpt lat="43.8699454" lon="11.88409"><ele>637.0</ele><time>2026-05-01T08:56:44.251Z</time></trkpt><trkpt lat="43.8698998" lon="11.8842123"><ele>632.0</ele><time>2026-05-01T08:56:45.248Z</time></trkpt><trkpt lat="43.8698547" lon="11.884339"><ele>627.0</ele><time>2026-05-01T08:56:46.245Z</time></trkpt><trkpt lat="43.8698228" lon="11.8844623"><ele>622.0</ele><time>2026-05-01T08:56:47.25Z</time></trkpt><trkpt lat="43.8698604" lon="11.8845848"><ele>617.0</ele><time>2026-05-01T08:56:48.246Z</time></trkpt><trkpt lat="43.8699561" lon="11.8846958"><ele>616.6</ele><time>2026-05-01T08:56:49.257Z</time></trkpt><trkpt lat="43.8700371" lon="11.8848035"><ele>616.2</ele><time>2026-05-01T08:56:50.247Z</time></trkpt><trkpt lat="43.8701103" lon="11.8849009"><ele>615.8</ele><time>2026-05-01T08:56:51.25Z</time></trkpt><trkpt lat="43.8701762" lon="11.8849931"><ele>615.4</ele><time>2026-05-01T08:56:52.257Z</time></trkpt><trkpt lat="43.8702551" lon="11.8850757"><ele>615.0</ele><time>2026-05-01T08:56:53.257Z</time></trkpt><trkpt lat="43.8703395" lon="11.8851464"><ele>615.0</ele><time>2026-05-01T08:56:54.258Z</time></trkpt><trkpt lat="43.8704141" lon="11.885208"><ele>615.0</ele><time>2026-05-01T08:56:55.257Z</time></trkpt><trkpt lat="43.8705203" lon="11.8852807"><ele>615.0</ele><time>2026-05-01T08:56:56.257Z</time></trkpt><trkpt lat="43.8705918" lon="11.8853663"><ele>615.0</ele><time>2026-05-01T08:56:57.259Z</time></trkpt><trkpt lat="43.8706411" lon="11.8854559"><ele>615.0</ele><time>2026-05-01T08:56:58.258Z</time></trkpt><trkpt lat="43.870678" lon="11.8855462"><ele>615.0</ele><time>2026-05-01T08:56:59.252Z</time></trkpt><trkpt lat="43.8706612" lon="11.8856449"><ele>615.0</ele><time>2026-05-01T08:57:01.257Z</time></trkpt><trkpt lat="43.8706447" lon="11.8857501"><ele>615.0</ele><time>2026-05-01T08:57:03.257Z</time></trkpt><trkpt lat="43.8706178" lon="11.8858631"><ele>615.0</ele><time>2026-05-01T08:57:05.25Z</time></trkpt><trkpt lat="43.8705908" lon="11.8859581"><ele>615.0</ele><time>2026-05-01T08:57:06.257Z</time></trkpt><trkpt lat="43.870574" lon="11.8860516"><ele>615.0</ele><time>2026-05-01T08:57:07.257Z</time></trkpt><trkpt lat="43.8705623" lon="11.8861663"><ele>613.8</ele><time>2026-05-01T08:57:08.255Z</time></trkpt><trkpt lat="43.8705476" lon="11.8862716"><ele>612.6</ele><time>2026-05-01T08:57:09.257Z</time></trkpt><trkpt lat="43.8705381" lon="11.8864153"><ele>611.4</ele><time>2026-05-01T08:57:10.249Z</time></trkpt><trkpt lat="43.8705366" lon="11.8865611"><ele>610.2</ele><time>2026-05-01T08:57:11.257Z</time></trkpt><trkpt lat="43.8705375" lon="11.8867179"><ele>609.0</ele><time>2026-05-01T08:57:12.258Z</time></trkpt><trkpt lat="43.8705261" lon="11.8868692"><ele>606.8</ele><time>2026-05-01T08:57:13.259Z</time></trkpt><trkpt lat="43.8705023" lon="11.8870281"><ele>604.5999999999999</ele><time>2026-05-01T08:57:14.257Z</time></trkpt><trkpt lat="43.8704796" lon="11.887166"><ele>602.4</ele><time>2026-05-01T08:57:15.257Z</time></trkpt><trkpt lat="43.8704796" lon="11.8872867"><ele>600.1999999999999</ele><time>2026-05-01T08:57:16.263Z</time></trkpt><trkpt lat="43.8704766" lon="11.8873953"><ele>598.0</ele><time>2026-05-01T08:57:17.254Z</time></trkpt><trkpt lat="43.8704807" lon="11.8875185"><ele>595.8</ele><time>2026-05-01T08:57:18.266Z</time></trkpt><trkpt lat="43.8704803" lon="11.8876509"><ele>593.5999999999999</ele><time>2026-05-01T08:57:19.258Z</time></trkpt><trkpt lat="43.8704988" lon="11.8877842"><ele>591.4000000000001</ele><time>2026-05-01T08:57:20.248Z</time></trkpt><trkpt lat="43.870534" lon="11.8879196"><ele>589.2</ele><time>2026-05-01T08:57:21.254Z</time></trkpt><trkpt lat="43.8705613" lon="11.8880282"><ele>587.0</ele><time>2026-05-01T08:57:22.257Z</time></trkpt><trkpt lat="43.8705985" lon="11.8881324"><ele>587.0</ele><time>2026-05-01T08:57:23.258Z</time></trkpt><trkpt lat="43.8706185" lon="11.8882301"><ele>587.0</ele><time>2026-05-01T08:57:24.264Z</time></trkpt><trkpt lat="43.8706549" lon="11.8883232"><ele>587.0</ele><time>2026-05-01T08:57:25.254Z</time></trkpt><trkpt lat="43.8707131" lon="11.8884111"><ele>587.0</ele><time>2026-05-01T08:57:26.257Z</time></trkpt><trkpt lat="43.8707518" lon="11.8885268"><ele>587.0</ele><time>2026-05-01T08:57:27.246Z</time></trkpt><trkpt lat="43.8708324" lon="11.8886766"><ele>587.0</ele><time>2026-05-01T08:57:29.258Z</time></trkpt><trkpt lat="43.8708063" lon="11.8887899"><ele>587.0</ele><time>2026-05-01T08:57:32.257Z</time></trkpt><trkpt lat="43.870747" lon="11.8887402"><ele>587.0</ele><time>2026-05-01T08:57:34.257Z</time></trkpt><trkpt lat="43.8706529" lon="11.888562"><ele>587.0</ele><time>2026-05-01T08:57:36.266Z</time></trkpt><trkpt lat="43.870574" lon="11.8884519"><ele>587.0</ele><time>2026-05-01T08:57:37.254Z</time></trkpt><trkpt lat="43.8704937" lon="11.8883545"><ele>587.0</ele><time>2026-05-01T08:57:38.259Z</time></trkpt><trkpt lat="43.8704287" lon="11.8882785"><ele>587.0</ele><time>2026-05-01T08:57:39.27Z</time></trkpt><trkpt lat="43.87038" lon="11.8881837"><ele>587.0</ele><time>2026-05-01T08:57:42.262Z</time></trkpt><trkpt lat="43.8703703" lon="11.8880201"><ele>587.0</ele><time>2026-05-01T08:57:43.258Z</time></trkpt><trkpt lat="43.8703229" lon="11.8878214"><ele>587.0</ele><time>2026-05-01T08:57:44.257Z</time></trkpt><trkpt lat="43.8702553" lon="11.8876726"><ele>589.2</ele><time>2026-05-01T08:57:45.261Z</time></trkpt><trkpt lat="43.8701766" lon="11.8875517"><ele>591.4000000000001</ele><time>2026-05-01T08:57:46.249Z</time></trkpt><trkpt lat="43.8701108" lon="11.8874308"><ele>593.5999999999999</ele><time>2026-05-01T08:57:47.259Z</time></trkpt><trkpt lat="43.8700309" lon="11.8873253"><ele>595.8</ele><time>2026-05-01T08:57:48.249Z</time></trkpt><trkpt lat="43.8699677" lon="11.8872237"><ele>598.0</ele><time>2026-05-01T08:57:49.256Z</time></trkpt><trkpt lat="43.8699021" lon="11.887119"><ele>593.8</ele><time>2026-05-01T08:57:50.258Z</time></trkpt><trkpt lat="43.8698145" lon="11.8870301"><ele>589.5999999999999</ele><time>2026-05-01T08:57:51.248Z</time></trkpt><trkpt lat="43.8697245" lon="11.8869656"><ele>585.4000000000001</ele><time>2026-05-01T08:57:52.257Z</time></trkpt><trkpt lat="43.8696364" lon="11.8868995"><ele>581.2</ele><time>2026-05-01T08:57:53.257Z</time></trkpt><trkpt lat="43.8695819" lon="11.8867425"><ele>577.0</ele><time>2026-05-01T08:57:55.254Z</time></trkpt><trkpt lat="43.869554" lon="11.886628"><ele>577.0</ele><time>2026-05-01T08:57:56.257Z</time></trkpt><trkpt lat="43.8695147" lon="11.886492"><ele>577.0</ele><time>2026-05-01T08:57:57.25Z</time></trkpt><trkpt lat="43.8694986" lon="11.8863994"><ele>577.0</ele><time>2026-05-01T08:57:58.25Z</time></trkpt><trkpt lat="43.8694542" lon="11.8863245"><ele>577.0</ele><time>2026-05-01T08:57:59.257Z</time></trkpt><trkpt lat="43.8693972" lon="11.8862458"><ele>577.0</ele><time>2026-05-01T08:58:00.257Z</time></trkpt><trkpt lat="43.8693534" lon="11.8861689"><ele>577.0</ele><time>2026-05-01T08:58:01.258Z</time></trkpt><trkpt lat="43.8692967" lon="11.8860415"><ele>573.6666666666667</ele><time>2026-05-01T08:58:02.267Z</time></trkpt><trkpt lat="43.8692221" lon="11.8859743"><ele>570.3333333333334</ele><time>2026-05-01T08:58:03.257Z</time></trkpt><trkpt lat="43.8691686" lon="11.8859211"><ele>567.0</ele><time>2026-05-01T08:58:04.248Z</time></trkpt><trkpt lat="43.8691095" lon="11.8858609"><ele>563.6666666666666</ele><time>2026-05-01T08:58:05.248Z</time></trkpt><trkpt lat="43.8690336" lon="11.8858105"><ele>560.3333333333333</ele><time>2026-05-01T08:58:06.256Z</time></trkpt><trkpt lat="43.868967" lon="11.8857686"><ele>557.0</ele><time>2026-05-01T08:58:07.257Z</time></trkpt><trkpt lat="43.8688384" lon="11.8858726"><ele>556.0</ele><time>2026-05-01T08:58:09.254Z</time></trkpt><trkpt lat="43.8688245" lon="11.886026"><ele>555.0</ele><time>2026-05-01T08:58:10.249Z</time></trkpt><trkpt lat="43.8688844" lon="11.8860804"><ele>554.0</ele><time>2026-05-01T08:58:11.27Z</time></trkpt><trkpt lat="43.8689269" lon="11.8861513"><ele>553.0</ele><time>2026-05-01T08:58:13.276Z</time></trkpt><trkpt lat="43.8689159" lon="11.8862739"><ele>552.0</ele><time>2026-05-01T08:58:14.264Z</time></trkpt><trkpt lat="43.8689573" lon="11.8864276"><ele>552.0</ele><time>2026-05-01T08:58:15.257Z</time></trkpt><trkpt lat="43.8690103" lon="11.8866999"><ele>552.0</ele><time>2026-05-01T08:58:16.248Z</time></trkpt><trkpt lat="43.8690906" lon="11.8868244"><ele>552.0</ele><time>2026-05-01T08:58:18.252Z</time></trkpt><trkpt lat="43.8691353" lon="11.8869229"><ele>552.0</ele><time>2026-05-01T08:58:19.265Z</time></trkpt><trkpt lat="43.869215" lon="11.8869965"><ele>550.0</ele><time>2026-05-01T08:58:20.25Z</time></trkpt><trkpt lat="43.8692584" lon="11.8870686"><ele>548.0</ele><time>2026-05-01T08:58:21.252Z</time></trkpt><trkpt lat="43.8692181" lon="11.8871876"><ele>546.0</ele><time>2026-05-01T08:58:22.252Z</time></trkpt><trkpt lat="43.8692116" lon="11.8872833"><ele>544.0</ele><time>2026-05-01T08:58:23.249Z</time></trkpt><trkpt lat="43.8691613" lon="11.8873748"><ele>542.0</ele><time>2026-05-01T08:58:24.253Z</time></trkpt><trkpt lat="43.8691218" lon="11.8875058"><ele>540.0</ele><time>2026-05-01T08:58:25.253Z</time></trkpt><trkpt lat="43.8690673" lon="11.8876053"><ele>538.4</ele><time>2026-05-01T08:58:26.246Z</time></trkpt><trkpt lat="43.8690654" lon="11.8877573"><ele>536.8</ele><time>2026-05-01T08:58:27.26Z</time></trkpt><trkpt lat="43.869054" lon="11.8878606"><ele>535.2</ele><time>2026-05-01T08:58:28.257Z</time></trkpt><trkpt lat="43.8690934" lon="11.8879882"><ele>533.6</ele><time>2026-05-01T08:58:29.254Z</time></trkpt><trkpt lat="43.8691011" lon="11.8881174"><ele>532.0</ele><time>2026-05-01T08:58:30.246Z</time></trkpt><trkpt lat="43.8691127" lon="11.888241"><ele>532.0</ele><time>2026-05-01T08:58:31.248Z</time></trkpt><trkpt lat="43.8691532" lon="11.8883385"><ele>532.0</ele><time>2026-05-01T08:58:32.248Z</time></trkpt><trkpt lat="43.8692386" lon="11.8884599"><ele>532.0</ele><time>2026-05-01T08:58:33.248Z</time></trkpt><trkpt lat="43.8692766" lon="11.8885628"><ele>532.0</ele><time>2026-05-01T08:58:34.248Z</time></trkpt><trkpt lat="43.869311" lon="11.8886991"><ele>532.0</ele><time>2026-05-01T08:58:35.249Z</time></trkpt><trkpt lat="43.8693339" lon="11.888884"><ele>533.8000000000001</ele><time>2026-05-01T08:58:36.258Z</time></trkpt><trkpt lat="43.8693582" lon="11.8889958"><ele>535.6</ele><time>2026-05-01T08:58:37.257Z</time></trkpt><trkpt lat="43.8694278" lon="11.8890914"><ele>537.4000000000001</ele><time>2026-05-01T08:58:38.249Z</time></trkpt><trkpt lat="43.8694987" lon="11.8891749"><ele>539.2</ele><time>2026-05-01T08:58:39.252Z</time></trkpt><trkpt lat="43.8695467" lon="11.8892587"><ele>541.0</ele><time>2026-05-01T08:58:40.248Z</time></trkpt><trkpt lat="43.869673" lon="11.8892941"><ele>538.0</ele><time>2026-05-01T08:58:41.251Z</time></trkpt><trkpt lat="43.8697421" lon="11.8893748"><ele>535.0</ele><time>2026-05-01T08:58:42.249Z</time></trkpt><trkpt lat="43.8697673" lon="11.8894586"><ele>532.0</ele><time>2026-05-01T08:58:43.248Z</time></trkpt><trkpt lat="43.8697867" lon="11.8895506"><ele>529.0</ele><time>2026-05-01T08:58:44.258Z</time></trkpt><trkpt lat="43.8698324" lon="11.8897035"><ele>526.0</ele><time>2026-05-01T08:58:45.261Z</time></trkpt><trkpt lat="43.8698359" lon="11.8898393"><ele>523.0</ele><time>2026-05-01T08:58:46.257Z</time></trkpt><trkpt lat="43.8698069" lon="11.8899603"><ele>523.0</ele><time>2026-05-01T08:58:47.258Z</time></trkpt><trkpt lat="43.8698148" lon="11.8900632"><ele>523.0</ele><time>2026-05-01T08:58:48.256Z</time></trkpt><trkpt lat="43.8697817" lon="11.8901715"><ele>523.0</ele><time>2026-05-01T08:58:49.257Z</time></trkpt><trkpt lat="43.8698015" lon="11.8902839"><ele>523.0</ele><time>2026-05-01T08:58:50.26Z</time></trkpt><trkpt lat="43.8698695" lon="11.8903691"><ele>523.0</ele><time>2026-05-01T08:58:51.248Z</time></trkpt><trkpt lat="43.8699166" lon="11.8904671"><ele>523.0</ele><time>2026-05-01T08:58:52.259Z</time></trkpt><trkpt lat="43.8699565" lon="11.8905548"><ele>521.0</ele><time>2026-05-01T08:58:53.257Z</time></trkpt><trkpt lat="43.8700625" lon="11.8906879"><ele>519.0</ele><time>2026-05-01T08:58:55.258Z</time></trkpt><trkpt lat="43.8701547" lon="11.8907242"><ele>517.0</ele><time>2026-05-01T08:58:56.265Z</time></trkpt><trkpt lat="43.8702488" lon="11.8906357"><ele>515.0</ele><time>2026-05-01T08:58:57.26Z</time></trkpt><trkpt lat="43.8703388" lon="11.890603"><ele>513.0</ele><time>2026-05-01T08:58:58.255Z</time></trkpt><trkpt lat="43.8704575" lon="11.8905865"><ele>513.0</ele><time>2026-05-01T08:59:00.257Z</time></trkpt><trkpt lat="43.8705312" lon="11.8906334"><ele>513.0</ele><time>2026-05-01T08:59:01.258Z</time></trkpt><trkpt lat="43.8706025" lon="11.8906668"><ele>513.0</ele><time>2026-05-01T08:59:02.259Z</time></trkpt><trkpt lat="43.8706749" lon="11.890727"><ele>513.0</ele><time>2026-05-01T08:59:03.264Z</time></trkpt><trkpt lat="43.8707383" lon="11.8907824"><ele>513.0</ele><time>2026-05-01T08:59:04.263Z</time></trkpt><trkpt lat="43.8708141" lon="11.8908968"><ele>513.0</ele><time>2026-05-01T08:59:05.249Z</time></trkpt><trkpt lat="43.8708738" lon="11.8910172"><ele>509.4</ele><time>2026-05-01T08:59:06.265Z</time></trkpt><trkpt lat="43.8709678" lon="11.8911214"><ele>505.79999999999995</ele><time>2026-05-01T08:59:07.253Z</time></trkpt><trkpt lat="43.8710427" lon="11.8912387"><ele>502.2</ele><time>2026-05-01T08:59:08.257Z</time></trkpt><trkpt lat="43.8711107" lon="11.891346"><ele>498.6</ele><time>2026-05-01T08:59:09.246Z</time></trkpt><trkpt lat="43.8711712" lon="11.8914136"><ele>495.0</ele><time>2026-05-01T08:59:10.262Z</time></trkpt><trkpt lat="43.8712344" lon="11.8914857"><ele>495.0</ele><time>2026-05-01T08:59:11.258Z</time></trkpt><trkpt lat="43.8713094" lon="11.8915474"><ele>495.0</ele><time>2026-05-01T08:59:12.256Z</time></trkpt><trkpt lat="43.8713888" lon="11.8916096"><ele>495.0</ele><time>2026-05-01T08:59:13.249Z</time></trkpt><trkpt lat="43.871468" lon="11.8916502"><ele>495.0</ele><time>2026-05-01T08:59:14.258Z</time></trkpt><trkpt lat="43.8715707" lon="11.8917094"><ele>495.0</ele><time>2026-05-01T08:59:15.251Z</time></trkpt><trkpt lat="43.8716768" lon="11.8917591"><ele>491.4</ele><time>2026-05-01T08:59:16.258Z</time></trkpt><trkpt lat="43.8717838" lon="11.8918069"><ele>487.8</ele><time>2026-05-01T08:59:17.248Z</time></trkpt><trkpt lat="43.8718844" lon="11.8918712"><ele>484.20000000000005</ele><time>2026-05-01T08:59:18.257Z</time></trkpt><trkpt lat="43.8719665" lon="11.8919166"><ele>480.6</ele><time>2026-05-01T08:59:19.248Z</time></trkpt><trkpt lat="43.8720413" lon="11.8919976"><ele>477.0</ele><time>2026-05-01T08:59:20.257Z</time></trkpt><trkpt lat="43.8721266" lon="11.8920709"><ele>477.0</ele><time>2026-05-01T08:59:21.258Z</time></trkpt><trkpt lat="43.8722185" lon="11.8921385"><ele>477.00000000000006</ele><time>2026-05-01T08:59:22.253Z</time></trkpt><trkpt lat="43.872308" lon="11.8921914"><ele>477.00000000000006</ele><time>2026-05-01T08:59:23.25Z</time></trkpt><trkpt lat="43.8724088" lon="11.8922135"><ele>477.0</ele><time>2026-05-01T08:59:24.257Z</time></trkpt><trkpt lat="43.8725231" lon="11.8922355"><ele>477.0</ele><time>2026-05-01T08:59:25.251Z</time></trkpt><trkpt lat="43.8725873" lon="11.892291"><ele>475.6666666666667</ele><time>2026-05-01T08:59:26.25Z</time></trkpt><trkpt lat="43.8726853" lon="11.8923529"><ele>474.33333333333337</ele><time>2026-05-01T08:59:27.247Z</time></trkpt><trkpt lat="43.8727426" lon="11.8924075"><ele>473.0</ele><time>2026-05-01T08:59:28.261Z</time></trkpt><trkpt lat="43.8728319" lon="11.8924529"><ele>471.6666666666667</ele><time>2026-05-01T08:59:29.256Z</time></trkpt><trkpt lat="43.8728887" lon="11.8925122"><ele>470.33333333333337</ele><time>2026-05-01T08:59:30.257Z</time></trkpt><trkpt lat="43.8729773" lon="11.8925417"><ele>469.0</ele><time>2026-05-01T08:59:32.256Z</time></trkpt><trkpt lat="43.8729106" lon="11.8926405"><ele>469.0</ele><time>2026-05-01T08:59:34.256Z</time></trkpt><trkpt lat="43.872849" lon="11.8927014"><ele>469.0</ele><time>2026-05-01T08:59:35.255Z</time></trkpt><trkpt lat="43.8727697" lon="11.8926826"><ele>469.0</ele><time>2026-05-01T08:59:38.251Z</time></trkpt><trkpt lat="43.8726708" lon="11.8926817"><ele>469.0</ele><time>2026-05-01T08:59:40.258Z</time></trkpt><trkpt lat="43.8725369" lon="11.8926637"><ele>469.0</ele><time>2026-05-01T08:59:41.25Z</time></trkpt><trkpt lat="43.8723962" lon="11.8926347"><ele>469.4</ele><time>2026-05-01T08:59:42.263Z</time></trkpt><trkpt lat="43.8722838" lon="11.8925929"><ele>469.79999999999995</ele><time>2026-05-01T08:59:43.252Z</time></trkpt><trkpt lat="43.8721923" lon="11.8925753"><ele>470.20000000000005</ele><time>2026-05-01T08:59:44.259Z</time></trkpt><trkpt lat="43.8721127" lon="11.8925712"><ele>470.6</ele><time>2026-05-01T08:59:45.25Z</time></trkpt><trkpt lat="43.8720126" lon="11.8924907"><ele>471.0</ele><time>2026-05-01T08:59:47.258Z</time></trkpt><trkpt lat="43.8719449" lon="11.8924427"><ele>471.0</ele><time>2026-05-01T08:59:49.249Z</time></trkpt><trkpt lat="43.8718736" lon="11.892425"><ele>471.0</ele><time>2026-05-01T08:59:50.255Z</time></trkpt><trkpt lat="43.8717625" lon="11.8923996"><ele>471.0</ele><time>2026-05-01T08:59:52.259Z</time></trkpt><trkpt lat="43.8716921" lon="11.8924505"><ele>471.0</ele><time>2026-05-01T08:59:53.247Z</time></trkpt><trkpt lat="43.8716246" lon="11.8924541"><ele>471.0</ele><time>2026-05-01T08:59:54.257Z</time></trkpt><trkpt lat="43.871542" lon="11.8924852"><ele>471.0</ele><time>2026-05-01T08:59:55.248Z</time></trkpt><trkpt lat="43.8714853" lon="11.8925249"><ele>471.0</ele><time>2026-05-01T08:59:57.263Z</time></trkpt><trkpt lat="43.8714211" lon="11.8924816"><ele>471.0</ele><time>2026-05-01T09:00:00.252Z</time></trkpt><trkpt lat="43.8712834" lon="11.8925383"><ele>471.0</ele><time>2026-05-01T09:00:38.255Z</time></trkpt><trkpt lat="43.871207" lon="11.8925287"><ele>471.0</ele><time>2026-05-01T09:00:39.258Z</time></trkpt><trkpt lat="43.8711378" lon="11.8925442"><ele>471.0</ele><time>2026-05-01T09:00:40.25Z</time></trkpt><trkpt lat="43.8710676" lon="11.8925393"><ele>471.0</ele><time>2026-05-01T09:00:41.26Z</time></trkpt><trkpt lat="43.8709613" lon="11.8925478"><ele>472.20000000000005</ele><time>2026-05-01T09:00:42.265Z</time></trkpt><trkpt lat="43.8708663" lon="11.8925338"><ele>473.40000000000003</ele><time>2026-05-01T09:00:43.257Z</time></trkpt><trkpt lat="43.8707642" lon="11.8925127"><ele>474.6</ele><time>2026-05-01T09:00:44.247Z</time></trkpt><trkpt lat="43.8706461" lon="11.8924207"><ele>475.8</ele><time>2026-05-01T09:00:46.26Z</time></trkpt><trkpt lat="43.8705536" lon="11.8923954"><ele>477.0</ele><time>2026-05-01T09:00:47.251Z</time></trkpt><trkpt lat="43.8704323" lon="11.8923875"><ele>477.0</ele><time>2026-05-01T09:00:48.255Z</time></trkpt><trkpt lat="43.8703206" lon="11.8923952"><ele>477.00000000000006</ele><time>2026-05-01T09:00:49.257Z</time></trkpt><trkpt lat="43.8702202" lon="11.8924406"><ele>477.00000000000006</ele><time>2026-05-01T09:00:50.248Z</time></trkpt><trkpt lat="43.8701099" lon="11.8924938"><ele>477.0</ele><time>2026-05-01T09:00:51.258Z</time></trkpt><trkpt lat="43.870005" lon="11.8925422"><ele>477.0</ele><time>2026-05-01T09:00:52.248Z</time></trkpt><trkpt lat="43.8699196" lon="11.8925943"><ele>485.75</ele><time>2026-05-01T09:00:53.249Z</time></trkpt><trkpt lat="43.8697916" lon="11.8926447"><ele>494.5</ele><time>2026-05-01T09:00:54.248Z</time></trkpt><trkpt lat="43.8697681" lon="11.892793"><ele>503.25</ele><time>2026-05-01T09:00:55.257Z</time></trkpt><trkpt lat="43.869677" lon="11.8928942"><ele>512.0</ele><time>2026-05-01T09:00:56.253Z</time></trkpt><trkpt lat="43.8696005" lon="11.8930169"><ele>512.0</ele><time>2026-05-01T09:00:57.25Z</time></trkpt><trkpt lat="43.8695293" lon="11.8931214"><ele>512.0</ele><time>2026-05-01T09:00:58.257Z</time></trkpt><trkpt lat="43.8694665" lon="11.8932312"><ele>512.0</ele><time>2026-05-01T09:00:59.259Z</time></trkpt><trkpt lat="43.8693925" lon="11.8933322"><ele>512.0</ele><time>2026-05-01T09:01:00.258Z</time></trkpt><trkpt lat="43.869332" lon="11.8934292"><ele>512.0</ele><time>2026-05-01T09:01:01.252Z</time></trkpt><trkpt lat="43.8692595" lon="11.8934794"><ele>513.0</ele><time>2026-05-01T09:01:02.257Z</time></trkpt><trkpt lat="43.8692077" lon="11.8935909"><ele>514.0</ele><time>2026-05-01T09:01:03.247Z</time></trkpt><trkpt lat="43.8691542" lon="11.8936757"><ele>515.0</ele><time>2026-05-01T09:01:04.256Z</time></trkpt><trkpt lat="43.8690889" lon="11.8937537"><ele>516.0</ele><time>2026-05-01T09:01:05.256Z</time></trkpt><trkpt lat="43.868994" lon="11.8938187"><ele>517.0</ele><time>2026-05-01T09:01:06.256Z</time></trkpt><trkpt lat="43.8688908" lon="11.8938612"><ele>517.0</ele><time>2026-05-01T09:01:07.248Z</time></trkpt><trkpt lat="43.8688119" lon="11.8939488"><ele>517.0</ele><time>2026-05-01T09:01:08.256Z</time></trkpt><trkpt lat="43.8687413" lon="11.8939873"><ele>517.0</ele><time>2026-05-01T09:01:09.256Z</time></trkpt><trkpt lat="43.8685993" lon="11.8939919"><ele>517.0</ele><time>2026-05-01T09:01:10.256Z</time></trkpt><trkpt lat="43.8684998" lon="11.8940122"><ele>517.0</ele><time>2026-05-01T09:01:11.248Z</time></trkpt><trkpt lat="43.8683561" lon="11.8940628"><ele>516.0</ele><time>2026-05-01T09:01:12.257Z</time></trkpt><trkpt lat="43.8682365" lon="11.8940067"><ele>515.0</ele><time>2026-05-01T09:01:13.257Z</time></trkpt><trkpt lat="43.868112" lon="11.8939864"><ele>514.0</ele><time>2026-05-01T09:01:14.257Z</time></trkpt><trkpt lat="43.8679384" lon="11.8939246"><ele>513.0</ele><time>2026-05-01T09:01:15.258Z</time></trkpt><trkpt lat="43.8677537" lon="11.894049"><ele>520.5</ele><time>2026-05-01T09:01:16.251Z</time></trkpt><trkpt lat="43.867591" lon="11.8940475"><ele>528.0</ele><time>2026-05-01T09:01:17.257Z</time></trkpt><trkpt lat="43.8674929" lon="11.8940818"><ele>535.5</ele><time>2026-05-01T09:01:18.249Z</time></trkpt><trkpt lat="43.86744" lon="11.8940124"><ele>543.0</ele><time>2026-05-01T09:01:19.26Z</time></trkpt><trkpt lat="43.8673768" lon="11.8937635"><ele>543.0</ele><time>2026-05-01T09:01:21.253Z</time></trkpt><trkpt lat="43.8673413" lon="11.8936563"><ele>543.0</ele><time>2026-05-01T09:01:22.259Z</time></trkpt><trkpt lat="43.8673118" lon="11.8935251"><ele>543.0</ele><time>2026-05-01T09:01:23.267Z</time></trkpt><trkpt lat="43.8672447" lon="11.8934587"><ele>543.0</ele><time>2026-05-01T09:01:24.251Z</time></trkpt><trkpt lat="43.8671953" lon="11.8933635"><ele>543.0</ele><time>2026-05-01T09:01:25.252Z</time></trkpt><trkpt lat="43.8670835" lon="11.8932536"><ele>538.0</ele><time>2026-05-01T09:01:26.26Z</time></trkpt><trkpt lat="43.8670282" lon="11.8931766"><ele>533.0</ele><time>2026-05-01T09:01:27.258Z</time></trkpt><trkpt lat="43.8669033" lon="11.8930394"><ele>528.0</ele><time>2026-05-01T09:01:29.262Z</time></trkpt><trkpt lat="43.8668099" lon="11.8929367"><ele>523.0</ele><time>2026-05-01T09:01:30.26Z</time></trkpt><trkpt lat="43.866731" lon="11.8930783"><ele>523.0</ele><time>2026-05-01T09:01:32.258Z</time></trkpt><trkpt lat="43.8665936" lon="11.8931253"><ele>523.0</ele><time>2026-05-01T09:01:34.257Z</time></trkpt><trkpt lat="43.8665476" lon="11.8931993"><ele>523.0</ele><time>2026-05-01T09:01:35.252Z</time></trkpt><trkpt lat="43.8664762" lon="11.8932835"><ele>523.0</ele><time>2026-05-01T09:01:36.26Z</time></trkpt><trkpt lat="43.8664242" lon="11.8934334"><ele>523.0</ele><time>2026-05-01T09:01:37.258Z</time></trkpt><trkpt lat="43.8663663" lon="11.8935642"><ele>528.4</ele><time>2026-05-01T09:01:38.253Z</time></trkpt><trkpt lat="43.8663134" lon="11.8936836"><ele>533.8</ele><time>2026-05-01T09:01:39.267Z</time></trkpt><trkpt lat="43.8662615" lon="11.8938333"><ele>539.2</ele><time>2026-05-01T09:01:40.249Z</time></trkpt><trkpt lat="43.8661657" lon="11.8938969"><ele>544.6</ele><time>2026-05-01T09:01:41.258Z</time></trkpt><trkpt lat="43.8660932" lon="11.8939807"><ele>550.0</ele><time>2026-05-01T09:01:42.257Z</time></trkpt><trkpt lat="43.8660082" lon="11.8940142"><ele>550.0</ele><time>2026-05-01T09:01:43.25Z</time></trkpt><trkpt lat="43.865963" lon="11.8941029"><ele>550.0</ele><time>2026-05-01T09:01:44.259Z</time></trkpt><trkpt lat="43.8658832" lon="11.8940916"><ele>550.0</ele><time>2026-05-01T09:01:45.255Z</time></trkpt><trkpt lat="43.8658326" lon="11.8941677"><ele>550.0</ele><time>2026-05-01T09:01:46.245Z</time></trkpt><trkpt lat="43.8657528" lon="11.8941971"><ele>550.0</ele><time>2026-05-01T09:01:47.258Z</time></trkpt><trkpt lat="43.8656636" lon="11.8942927"><ele>550.0</ele><time>2026-05-01T09:01:49.256Z</time></trkpt><trkpt lat="43.865833" lon="11.8943218"><ele>550.0</ele><time>2026-05-01T09:01:52.256Z</time></trkpt><trkpt lat="43.8658989" lon="11.8943091"><ele>550.0</ele><time>2026-05-01T09:01:53.258Z</time></trkpt><trkpt lat="43.8659916" lon="11.8942854"><ele>550.0</ele><time>2026-05-01T09:01:54.251Z</time></trkpt><trkpt lat="43.8660939" lon="11.8942113"><ele>550.0</ele><time>2026-05-01T09:01:55.257Z</time></trkpt><trkpt lat="43.8661986" lon="11.8941853"><ele>550.0</ele><time>2026-05-01T09:01:56.257Z</time></trkpt><trkpt lat="43.8663215" lon="11.8940758"><ele>550.0</ele><time>2026-05-01T09:01:57.257Z</time></trkpt><trkpt lat="43.8664254" lon="11.8939681"><ele>550.0</ele><time>2026-05-01T09:01:58.257Z</time></trkpt><trkpt lat="43.8665189" lon="11.8938451"><ele>550.0</ele><time>2026-05-01T09:01:59.252Z</time></trkpt><trkpt lat="43.8666023" lon="11.8938022"><ele>550.0</ele><time>2026-05-01T09:02:00.257Z</time></trkpt><trkpt lat="43.8666808" lon="11.8936863"><ele>550.0</ele><time>2026-05-01T09:02:02.257Z</time></trkpt><trkpt lat="43.8667323" lon="11.8936149"><ele>550.0</ele><time>2026-05-01T09:02:03.266Z</time></trkpt><trkpt lat="43.8668527" lon="11.8935938"><ele>550.0</ele><time>2026-05-01T09:02:04.26Z</time></trkpt><trkpt lat="43.8668991" lon="11.8936657"><ele>550.0</ele><time>2026-05-01T09:02:05.251Z</time></trkpt><trkpt lat="43.8668242" lon="11.8937796"><ele>550.0</ele><time>2026-05-01T09:02:06.261Z</time></trkpt><trkpt lat="43.8666906" lon="11.8939273"><ele>550.0</ele><time>2026-05-01T09:02:07.266Z</time></trkpt><trkpt lat="43.8666271" lon="11.8940388"><ele>550.0</ele><time>2026-05-01T09:02:08.249Z</time></trkpt><trkpt lat="43.8665229" lon="11.8942033"><ele>550.0</ele><time>2026-05-01T09:02:09.252Z</time></trkpt><trkpt lat="43.8664242" lon="11.8943211"><ele>550.0</ele><time>2026-05-01T09:02:10.257Z</time></trkpt><trkpt lat="43.8663639" lon="11.8944559"><ele>555.2</ele><time>2026-05-01T09:02:11.258Z</time></trkpt><trkpt lat="43.8663044" lon="11.8945735"><ele>560.4</ele><time>2026-05-01T09:02:12.25Z</time></trkpt><trkpt lat="43.8662234" lon="11.8946484"><ele>565.6</ele><time>2026-05-01T09:02:13.258Z</time></trkpt><trkpt lat="43.8661393" lon="11.8947405"><ele>570.8</ele><time>2026-05-01T09:02:14.257Z</time></trkpt><trkpt lat="43.8660665" lon="11.8948128"><ele>576.0</ele><time>2026-05-01T09:02:15.258Z</time></trkpt><trkpt lat="43.865965" lon="11.8948428"><ele>573.8</ele><time>2026-05-01T09:02:16.26Z</time></trkpt><trkpt lat="43.8658847" lon="11.8948767"><ele>571.6</ele><time>2026-05-01T09:02:17.258Z</time></trkpt><trkpt lat="43.8657737" lon="11.8948957"><ele>569.4</ele><time>2026-05-01T09:02:18.258Z</time></trkpt><trkpt lat="43.865651" lon="11.8949267"><ele>567.2</ele><time>2026-05-01T09:02:19.26Z</time></trkpt><trkpt lat="43.865578" lon="11.8949064"><ele>565.0</ele><time>2026-05-01T09:02:20.258Z</time></trkpt><trkpt lat="43.8654743" lon="11.8948902"><ele>565.0</ele><time>2026-05-01T09:02:21.25Z</time></trkpt><trkpt lat="43.8653844" lon="11.8948431"><ele>565.0</ele><time>2026-05-01T09:02:22.258Z</time></trkpt><trkpt lat="43.8652601" lon="11.8947101"><ele>565.0</ele><time>2026-05-01T09:02:23.263Z</time></trkpt><trkpt lat="43.8651521" lon="11.8946259"><ele>565.0</ele><time>2026-05-01T09:02:24.253Z</time></trkpt><trkpt lat="43.8650341" lon="11.8945095"><ele>566.6666666666667</ele><time>2026-05-01T09:02:25.255Z</time></trkpt><trkpt lat="43.8648023" lon="11.894569"><ele>568.3333333333334</ele><time>2026-05-01T09:02:27.248Z</time></trkpt><trkpt lat="43.8646527" lon="11.8945334"><ele>570.0</ele><time>2026-05-01T09:02:28.259Z</time></trkpt><trkpt lat="43.8645479" lon="11.8944993"><ele>570.0</ele><time>2026-05-01T09:02:29.255Z</time></trkpt><trkpt lat="43.8643769" lon="11.8945137"><ele>570.0</ele><time>2026-05-01T09:02:30.258Z</time></trkpt><trkpt lat="43.8642445" lon="11.8945211"><ele>570.0</ele><time>2026-05-01T09:02:31.259Z</time></trkpt><trkpt lat="43.8640993" lon="11.8945052"><ele>570.0</ele><time>2026-05-01T09:02:32.259Z</time></trkpt><trkpt lat="43.8639855" lon="11.8944732"><ele>572.75</ele><time>2026-05-01T09:02:33.258Z</time></trkpt><trkpt lat="43.8638379" lon="11.8944679"><ele>575.5</ele><time>2026-05-01T09:02:34.247Z</time></trkpt><trkpt lat="43.8637689" lon="11.8944593"><ele>578.25</ele><time>2026-05-01T09:02:35.257Z</time></trkpt><trkpt lat="43.863639" lon="11.8944309"><ele>581.0</ele><time>2026-05-01T09:02:36.247Z</time></trkpt><trkpt lat="43.8634894" lon="11.8944195"><ele>579.8</ele><time>2026-05-01T09:02:38.258Z</time></trkpt><trkpt lat="43.8634344" lon="11.8945125"><ele>578.6</ele><time>2026-05-01T09:02:40.25Z</time></trkpt><trkpt lat="43.8633732" lon="11.8945477"><ele>577.4</ele><time>2026-05-01T09:02:41.25Z</time></trkpt><trkpt lat="43.8633203" lon="11.8946044"><ele>576.2</ele><time>2026-05-01T09:02:42.247Z</time></trkpt><trkpt lat="43.8631576" lon="11.8946927"><ele>575.0</ele><time>2026-05-01T09:02:43.258Z</time></trkpt><trkpt lat="43.8629918" lon="11.8947844"><ele>575.0</ele><time>2026-05-01T09:02:45.262Z</time></trkpt><trkpt lat="43.8628919" lon="11.8948369"><ele>575.0</ele><time>2026-05-01T09:02:46.26Z</time></trkpt><trkpt lat="43.8627843" lon="11.8949427"><ele>575.0</ele><time>2026-05-01T09:02:47.257Z</time></trkpt><trkpt lat="43.8627272" lon="11.8949974"><ele>575.0</ele><time>2026-05-01T09:02:48.257Z</time></trkpt><trkpt lat="43.862691" lon="11.8951724"><ele>575.0</ele><time>2026-05-01T09:02:49.248Z</time></trkpt><trkpt lat="43.8626202" lon="11.8953578"><ele>580.0</ele><time>2026-05-01T09:02:50.251Z</time></trkpt><trkpt lat="43.8625538" lon="11.8954459"><ele>585.0</ele><time>2026-05-01T09:02:51.256Z</time></trkpt><trkpt lat="43.8624565" lon="11.8955095"><ele>590.0</ele><time>2026-05-01T09:02:52.256Z</time></trkpt><trkpt lat="43.8624094" lon="11.8956001"><ele>595.0</ele><time>2026-05-01T09:02:53.252Z</time></trkpt><trkpt lat="43.8623643" lon="11.8956882"><ele>600.0</ele><time>2026-05-01T09:02:54.257Z</time></trkpt><trkpt lat="43.8622791" lon="11.8957568"><ele>600.0</ele><time>2026-05-01T09:02:55.253Z</time></trkpt><trkpt lat="43.8622425" lon="11.8955954"><ele>600.0</ele><time>2026-05-01T09:02:56.257Z</time></trkpt><trkpt lat="43.8621627" lon="11.8955874"><ele>600.0</ele><time>2026-05-01T09:02:57.258Z</time></trkpt><trkpt lat="43.8620597" lon="11.8955225"><ele>600.0</ele><time>2026-05-01T09:02:59.257Z</time></trkpt><trkpt lat="43.8619899" lon="11.8954633"><ele>600.0</ele><time>2026-05-01T09:03:00.254Z</time></trkpt><trkpt lat="43.8619135" lon="11.8955336"><ele>600.0</ele><time>2026-05-01T09:03:01.247Z</time></trkpt><trkpt lat="43.8618627" lon="11.895478"><ele>600.0</ele><time>2026-05-01T09:03:02.252Z</time></trkpt><trkpt lat="43.8617824" lon="11.895452"><ele>600.0</ele><time>2026-05-01T09:03:03.246Z</time></trkpt><trkpt lat="43.8616679" lon="11.8954897"><ele>600.0</ele><time>2026-05-01T09:03:04.26Z</time></trkpt><trkpt lat="43.8615804" lon="11.8955519"><ele>600.0</ele><time>2026-05-01T09:03:05.249Z</time></trkpt><trkpt lat="43.8614812" lon="11.895526"><ele>600.75</ele><time>2026-05-01T09:03:06.255Z</time></trkpt><trkpt lat="43.8613321" lon="11.8955015"><ele>601.5</ele><time>2026-05-01T09:03:07.249Z</time></trkpt><trkpt lat="43.8612283" lon="11.8955028"><ele>602.25</ele><time>2026-05-01T09:03:08.258Z</time></trkpt><trkpt lat="43.8611132" lon="11.8955105"><ele>603.0</ele><time>2026-05-01T09:03:09.263Z</time></trkpt><trkpt lat="43.8610017" lon="11.8955071"><ele>601.25</ele><time>2026-05-01T09:03:10.253Z</time></trkpt><trkpt lat="43.8609067" lon="11.8956532"><ele>599.5</ele><time>2026-05-01T09:03:11.259Z</time></trkpt><trkpt lat="43.8608148" lon="11.8957171"><ele>597.75</ele><time>2026-05-01T09:03:12.253Z</time></trkpt><trkpt lat="43.8607717" lon="11.8958332"><ele>596.0</ele><time>2026-05-01T09:03:13.257Z</time></trkpt><trkpt lat="43.8606363" lon="11.8959414"><ele>601.5</ele><time>2026-05-01T09:03:14.257Z</time></trkpt><trkpt lat="43.8605268" lon="11.8960226"><ele>607.0</ele><time>2026-05-01T09:03:15.253Z</time></trkpt><trkpt lat="43.8604154" lon="11.8961332"><ele>612.5</ele><time>2026-05-01T09:03:16.266Z</time></trkpt><trkpt lat="43.8602832" lon="11.896163"><ele>618.0</ele><time>2026-05-01T09:03:17.268Z</time></trkpt><trkpt lat="43.8601948" lon="11.896195"><ele>618.0</ele><time>2026-05-01T09:03:18.257Z</time></trkpt><trkpt lat="43.8601458" lon="11.8963597"><ele>618.0</ele><time>2026-05-01T09:03:19.26Z</time></trkpt><trkpt lat="43.860088" lon="11.8964466"><ele>618.0</ele><time>2026-05-01T09:03:20.259Z</time></trkpt><trkpt lat="43.8600177" lon="11.8965439"><ele>618.0</ele><time>2026-05-01T09:03:21.272Z</time></trkpt><trkpt lat="43.8600522" lon="11.8967781"><ele>619.6</ele><time>2026-05-01T09:03:22.263Z</time></trkpt><trkpt lat="43.8600029" lon="11.8969186"><ele>621.1999999999999</ele><time>2026-05-01T09:03:23.256Z</time></trkpt><trkpt lat="43.859979" lon="11.8970904"><ele>622.8</ele><time>2026-05-01T09:03:24.251Z</time></trkpt><trkpt lat="43.8599784" lon="11.8972403"><ele>624.4</ele><time>2026-05-01T09:03:25.252Z</time></trkpt><trkpt lat="43.8599613" lon="11.8973472"><ele>626.0</ele><time>2026-05-01T09:03:26.254Z</time></trkpt><trkpt lat="43.8599433" lon="11.8974757"><ele>626.0</ele><time>2026-05-01T09:03:27.271Z</time></trkpt><trkpt lat="43.8598623" lon="11.8975158"><ele>626.0</ele><time>2026-05-01T09:03:28.258Z</time></trkpt><trkpt lat="43.8597659" lon="11.8975671"><ele>626.0</ele><time>2026-05-01T09:03:29.251Z</time></trkpt><trkpt lat="43.8596701" lon="11.8975857"><ele>626.0</ele><time>2026-05-01T09:03:30.259Z</time></trkpt><trkpt lat="43.8595243" lon="11.8976467"><ele>626.0</ele><time>2026-05-01T09:03:31.257Z</time></trkpt><trkpt lat="43.8593973" lon="11.8975518"><ele>626.0</ele><time>2026-05-01T09:03:32.258Z</time></trkpt><trkpt lat="43.8593031" lon="11.8975042"><ele>626.0</ele><time>2026-05-01T09:03:33.252Z</time></trkpt><trkpt lat="43.8591883" lon="11.8974365"><ele>626.0</ele><time>2026-05-01T09:03:34.263Z</time></trkpt><trkpt lat="43.8590882" lon="11.8974531"><ele>626.0</ele><time>2026-05-01T09:03:35.257Z</time></trkpt><trkpt lat="43.8589384" lon="11.8974301"><ele>625.6</ele><time>2026-05-01T09:03:36.248Z</time></trkpt><trkpt lat="43.8588019" lon="11.8974472"><ele>625.2</ele><time>2026-05-01T09:03:37.255Z</time></trkpt><trkpt lat="43.8587204" lon="11.8974399"><ele>624.8</ele><time>2026-05-01T09:03:38.249Z</time></trkpt><trkpt lat="43.858622" lon="11.8974109"><ele>624.4</ele><time>2026-05-01T09:03:39.26Z</time></trkpt><trkpt lat="43.858526" lon="11.8974073"><ele>624.0</ele><time>2026-05-01T09:03:40.257Z</time></trkpt><trkpt lat="43.8584001" lon="11.8973711"><ele>627.2</ele><time>2026-05-01T09:03:41.257Z</time></trkpt><trkpt lat="43.8583282" lon="11.8971746"><ele>630.4</ele><time>2026-05-01T09:03:42.259Z</time></trkpt><trkpt lat="43.8582706" lon="11.8971135"><ele>633.6</ele><time>2026-05-01T09:03:43.251Z</time></trkpt><trkpt lat="43.8581979" lon="11.8970374"><ele>636.8</ele><time>2026-05-01T09:03:44.251Z</time></trkpt><trkpt lat="43.8581105" lon="11.8969866"><ele>640.0</ele><time>2026-05-01T09:03:45.258Z</time></trkpt><trkpt lat="43.8580291" lon="11.8969446"><ele>640.0</ele><time>2026-05-01T09:03:46.256Z</time></trkpt><trkpt lat="43.8579647" lon="11.8968881"><ele>640.0</ele><time>2026-05-01T09:03:47.263Z</time></trkpt><trkpt lat="43.8578145" lon="11.8968901"><ele>640.0</ele><time>2026-05-01T09:03:48.259Z</time></trkpt><trkpt lat="43.8577308" lon="11.8968799"><ele>640.0</ele><time>2026-05-01T09:03:49.25Z</time></trkpt><trkpt lat="43.8576456" lon="11.896793"><ele>640.0</ele><time>2026-05-01T09:03:50.248Z</time></trkpt><trkpt lat="43.8574967" lon="11.8967474"><ele>633.2</ele><time>2026-05-01T09:03:51.256Z</time></trkpt><trkpt lat="43.8573474" lon="11.8967132"><ele>626.4</ele><time>2026-05-01T09:03:52.246Z</time></trkpt><trkpt lat="43.8572808" lon="11.8966528"><ele>619.6</ele><time>2026-05-01T09:03:53.248Z</time></trkpt><trkpt lat="43.8571983" lon="11.8966116"><ele>612.8</ele><time>2026-05-01T09:03:54.257Z</time></trkpt><trkpt lat="43.8571036" lon="11.896508"><ele>606.0</ele><time>2026-05-01T09:03:55.258Z</time></trkpt><trkpt lat="43.8570592" lon="11.8964387"><ele>606.0</ele><time>2026-05-01T09:03:56.256Z</time></trkpt><trkpt lat="43.8569724" lon="11.8963963"><ele>606.0</ele><time>2026-05-01T09:03:57.256Z</time></trkpt><trkpt lat="43.8568822" lon="11.8962736"><ele>606.0</ele><time>2026-05-01T09:03:58.248Z</time></trkpt><trkpt lat="43.8567378" lon="11.8961412"><ele>606.0</ele><time>2026-05-01T09:03:59.249Z</time></trkpt><trkpt lat="43.8566834" lon="11.8960477"><ele>608.25</ele><time>2026-05-01T09:04:00.263Z</time></trkpt><trkpt lat="43.8565601" lon="11.8960076"><ele>610.5</ele><time>2026-05-01T09:04:01.258Z</time></trkpt><trkpt lat="43.8564401" lon="11.8960359"><ele>612.75</ele><time>2026-05-01T09:04:02.252Z</time></trkpt><trkpt lat="43.8563427" lon="11.8960248"><ele>615.0</ele><time>2026-05-01T09:04:03.258Z</time></trkpt><trkpt lat="43.8563289" lon="11.8961858"><ele>615.0</ele><time>2026-05-01T09:04:04.257Z</time></trkpt><trkpt lat="43.8562822" lon="11.8963808"><ele>615.0</ele><time>2026-05-01T09:04:06.258Z</time></trkpt><trkpt lat="43.8562212" lon="11.8964302"><ele>615.0</ele><time>2026-05-01T09:04:07.257Z</time></trkpt><trkpt lat="43.8561808" lon="11.8965241"><ele>615.0</ele><time>2026-05-01T09:04:08.247Z</time></trkpt><trkpt lat="43.8561573" lon="11.8967124"><ele>615.0</ele><time>2026-05-01T09:04:09.25Z</time></trkpt><trkpt lat="43.8561234" lon="11.896936"><ele>618.0</ele><time>2026-05-01T09:04:11.251Z</time></trkpt><trkpt lat="43.8560919" lon="11.8970555"><ele>621.0</ele><time>2026-05-01T09:04:12.254Z</time></trkpt><trkpt lat="43.8560986" lon="11.897175"><ele>624.0</ele><time>2026-05-01T09:04:13.259Z</time></trkpt><trkpt lat="43.8560382" lon="11.8972595"><ele>627.0</ele><time>2026-05-01T09:04:14.262Z</time></trkpt><trkpt lat="43.8559751" lon="11.8973765"><ele>630.0</ele><time>2026-05-01T09:04:17.256Z</time></trkpt><trkpt lat="43.85586" lon="11.8973333"><ele>625.2</ele><time>2026-05-01T09:04:19.249Z</time></trkpt><trkpt lat="43.8557402" lon="11.8973622"><ele>620.4</ele><time>2026-05-01T09:04:21.258Z</time></trkpt><trkpt lat="43.8556431" lon="11.8973552"><ele>615.6</ele><time>2026-05-01T09:04:22.258Z</time></trkpt><trkpt lat="43.8555972" lon="11.8974438"><ele>610.8</ele><time>2026-05-01T09:04:23.253Z</time></trkpt><trkpt lat="43.8555255" lon="11.8975145"><ele>606.0</ele><time>2026-05-01T09:04:24.261Z</time></trkpt><trkpt lat="43.8554753" lon="11.8976254"><ele>606.0</ele><time>2026-05-01T09:04:25.253Z</time></trkpt><trkpt lat="43.8555262" lon="11.8978877"><ele>606.0</ele><time>2026-05-01T09:04:26.258Z</time></trkpt><trkpt lat="43.8555337" lon="11.8980384"><ele>606.0</ele><time>2026-05-01T09:04:27.258Z</time></trkpt><trkpt lat="43.8555126" lon="11.8981634"><ele>606.0</ele><time>2026-05-01T09:04:28.25Z</time></trkpt><trkpt lat="43.8554657" lon="11.8982696"><ele>606.0</ele><time>2026-05-01T09:04:29.252Z</time></trkpt><trkpt lat="43.8554189" lon="11.8983311"><ele>606.0</ele><time>2026-05-01T09:04:30.256Z</time></trkpt><trkpt lat="43.8553695" lon="11.8985302"><ele>606.0</ele><time>2026-05-01T09:04:32.258Z</time></trkpt><trkpt lat="43.8553513" lon="11.8986598"><ele>606.0</ele><time>2026-05-01T09:04:33.259Z</time></trkpt><trkpt lat="43.8553266" lon="11.8987839"><ele>606.0</ele><time>2026-05-01T09:04:34.256Z</time></trkpt><trkpt lat="43.8553135" lon="11.8989038"><ele>607.8</ele><time>2026-05-01T09:04:35.259Z</time></trkpt><trkpt lat="43.8553066" lon="11.8990214"><ele>609.6</ele><time>2026-05-01T09:04:36.249Z</time></trkpt><trkpt lat="43.8553048" lon="11.8991349"><ele>611.4</ele><time>2026-05-01T09:04:37.254Z</time></trkpt><trkpt lat="43.8552426" lon="11.8992013"><ele>613.2</ele><time>2026-05-01T09:04:39.259Z</time></trkpt><trkpt lat="43.855127" lon="11.8991855"><ele>615.0</ele><time>2026-05-01T09:04:40.249Z</time></trkpt><trkpt lat="43.855008" lon="11.8991584"><ele>608.4</ele><time>2026-05-01T09:04:41.268Z</time></trkpt><trkpt lat="43.8548888" lon="11.8991261"><ele>601.8</ele><time>2026-05-01T09:04:42.253Z</time></trkpt><trkpt lat="43.8547894" lon="11.8990967"><ele>595.2</ele><time>2026-05-01T09:04:43.25Z</time></trkpt><trkpt lat="43.8547041" lon="11.8990973"><ele>588.6</ele><time>2026-05-01T09:04:44.252Z</time></trkpt><trkpt lat="43.8546195" lon="11.8991381"><ele>582.0</ele><time>2026-05-01T09:04:45.247Z</time></trkpt><trkpt lat="43.8545446" lon="11.8991806"><ele>587.6</ele><time>2026-05-01T09:04:46.258Z</time></trkpt><trkpt lat="43.8544725" lon="11.8992568"><ele>593.2</ele><time>2026-05-01T09:04:47.254Z</time></trkpt><trkpt lat="43.8544395" lon="11.8994239"><ele>598.8</ele><time>2026-05-01T09:04:48.253Z</time></trkpt><trkpt lat="43.8544028" lon="11.8995503"><ele>604.4</ele><time>2026-05-01T09:04:49.251Z</time></trkpt><trkpt lat="43.8543621" lon="11.8996748"><ele>610.0</ele><time>2026-05-01T09:04:50.256Z</time></trkpt><trkpt lat="43.8543166" lon="11.8997847"><ele>603.5</ele><time>2026-05-01T09:04:51.251Z</time></trkpt><trkpt lat="43.8542409" lon="11.8998639"><ele>597.0</ele><time>2026-05-01T09:04:52.258Z</time></trkpt><trkpt lat="43.8541594" lon="11.8999311"><ele>590.5</ele><time>2026-05-01T09:04:53.249Z</time></trkpt><trkpt lat="43.854069" lon="11.8999859"><ele>584.0</ele><time>2026-05-01T09:04:54.257Z</time></trkpt><trkpt lat="43.8539016" lon="11.899984"><ele>584.0</ele><time>2026-05-01T09:04:55.256Z</time></trkpt><trkpt lat="43.8537495" lon="11.8999896"><ele>584.0</ele><time>2026-05-01T09:04:56.252Z</time></trkpt><trkpt lat="43.8536078" lon="11.9000043"><ele>584.0</ele><time>2026-05-01T09:04:57.249Z</time></trkpt><trkpt lat="43.8534665" lon="11.9000259"><ele>584.0</ele><time>2026-05-01T09:04:58.251Z</time></trkpt><trkpt lat="43.8533178" lon="11.9000457"><ele>581.6</ele><time>2026-05-01T09:04:59.251Z</time></trkpt><trkpt lat="43.853196" lon="11.9000727"><ele>579.2</ele><time>2026-05-01T09:05:00.254Z</time></trkpt><trkpt lat="43.8530855" lon="11.9000826"><ele>576.8000000000001</ele><time>2026-05-01T09:05:01.252Z</time></trkpt><trkpt lat="43.8529901" lon="11.9000827"><ele>574.4</ele><time>2026-05-01T09:05:02.256Z</time></trkpt><trkpt lat="43.852888" lon="11.9000803"><ele>572.0</ele><time>2026-05-01T09:05:03.257Z</time></trkpt><trkpt lat="43.8527774" lon="11.9000772"><ele>572.0</ele><time>2026-05-01T09:05:04.249Z</time></trkpt><trkpt lat="43.852684" lon="11.9000438"><ele>572.0</ele><time>2026-05-01T09:05:05.247Z</time></trkpt><trkpt lat="43.8525907" lon="11.8999926"><ele>572.0</ele><time>2026-05-01T09:05:06.25Z</time></trkpt><trkpt lat="43.8525535" lon="11.899922"><ele>572.0</ele><time>2026-05-01T09:05:07.257Z</time></trkpt><trkpt lat="43.8524905" lon="11.8998624"><ele>572.0</ele><time>2026-05-01T09:05:09.252Z</time></trkpt><trkpt lat="43.8524825" lon="11.9000377"><ele>574.25</ele><time>2026-05-01T09:05:12.258Z</time></trkpt><trkpt lat="43.8525216" lon="11.900188"><ele>576.5</ele><time>2026-05-01T09:05:13.262Z</time></trkpt><trkpt lat="43.8525402" lon="11.9003293"><ele>578.75</ele><time>2026-05-01T09:05:14.257Z</time></trkpt><trkpt lat="43.8525496" lon="11.9005174"><ele>581.0</ele><time>2026-05-01T09:05:15.25Z</time></trkpt><trkpt lat="43.8525424" lon="11.9007007"><ele>581.0</ele><time>2026-05-01T09:05:16.257Z</time></trkpt><trkpt lat="43.8525378" lon="11.9008745"><ele>581.0</ele><time>2026-05-01T09:05:17.258Z</time></trkpt><trkpt lat="43.8525022" lon="11.9010472"><ele>581.0</ele><time>2026-05-01T09:05:18.252Z</time></trkpt><trkpt lat="43.852458" lon="11.9012147"><ele>581.0</ele><time>2026-05-01T09:05:19.258Z</time></trkpt><trkpt lat="43.8523863" lon="11.90135"><ele>587.25</ele><time>2026-05-01T09:05:20.25Z</time></trkpt><trkpt lat="43.8523064" lon="11.9014678"><ele>593.5</ele><time>2026-05-01T09:05:21.249Z</time></trkpt><trkpt lat="43.8521589" lon="11.9014649"><ele>599.75</ele><time>2026-05-01T09:05:22.258Z</time></trkpt><trkpt lat="43.8520206" lon="11.9014666"><ele>606.0</ele><time>2026-05-01T09:05:23.257Z</time></trkpt><trkpt lat="43.8519092" lon="11.9014723"><ele>606.0</ele><time>2026-05-01T09:05:24.25Z</time></trkpt><trkpt lat="43.8518286" lon="11.9014049"><ele>606.0</ele><time>2026-05-01T09:05:25.253Z</time></trkpt><trkpt lat="43.8517541" lon="11.9013569"><ele>606.0</ele><time>2026-05-01T09:05:26.248Z</time></trkpt><trkpt lat="43.8516863" lon="11.901304"><ele>606.0</ele><time>2026-05-01T09:05:27.251Z</time></trkpt><trkpt lat="43.85163" lon="11.901214"><ele>606.0</ele><time>2026-05-01T09:05:28.248Z</time></trkpt><trkpt lat="43.851593" lon="11.9010139"><ele>601.25</ele><time>2026-05-01T09:05:29.248Z</time></trkpt><trkpt lat="43.8515114" lon="11.9008507"><ele>596.5</ele><time>2026-05-01T09:05:30.248Z</time></trkpt><trkpt lat="43.8515576" lon="11.9006769"><ele>591.75</ele><time>2026-05-01T09:05:31.257Z</time></trkpt><trkpt lat="43.8515218" lon="11.900505"><ele>587.0</ele><time>2026-05-01T09:05:32.256Z</time></trkpt><trkpt lat="43.8515373" lon="11.9003504"><ele>587.0</ele><time>2026-05-01T09:05:33.25Z</time></trkpt><trkpt lat="43.8515284" lon="11.9002027"><ele>587.0</ele><time>2026-05-01T09:05:34.251Z</time></trkpt><trkpt lat="43.8515327" lon="11.9000534"><ele>587.0</ele><time>2026-05-01T09:05:35.257Z</time></trkpt><trkpt lat="43.8515236" lon="11.8999186"><ele>587.0</ele><time>2026-05-01T09:05:36.253Z</time></trkpt><trkpt lat="43.8515818" lon="11.8998297"><ele>587.0</ele><time>2026-05-01T09:05:37.258Z</time></trkpt><trkpt lat="43.8516232" lon="11.899741"><ele>583.8000000000001</ele><time>2026-05-01T09:05:38.252Z</time></trkpt><trkpt lat="43.8516187" lon="11.899619"><ele>580.6</ele><time>2026-05-01T09:05:40.265Z</time></trkpt><trkpt lat="43.8515555" lon="11.8995646"><ele>577.4000000000001</ele><time>2026-05-01T09:05:41.251Z</time></trkpt><trkpt lat="43.8514642" lon="11.8994643"><ele>574.2</ele><time>2026-05-01T09:05:43.25Z</time></trkpt><trkpt lat="43.8513974" lon="11.8993818"><ele>571.0</ele><time>2026-05-01T09:05:44.249Z</time></trkpt><trkpt lat="43.8513445" lon="11.8992682"><ele>573.8</ele><time>2026-05-01T09:05:45.25Z</time></trkpt><trkpt lat="43.8512337" lon="11.8991855"><ele>576.6</ele><time>2026-05-01T09:05:46.248Z</time></trkpt><trkpt lat="43.8511614" lon="11.8992312"><ele>579.4</ele><time>2026-05-01T09:05:47.251Z</time></trkpt><trkpt lat="43.8510736" lon="11.8992359"><ele>582.2</ele><time>2026-05-01T09:05:48.25Z</time></trkpt><trkpt lat="43.8509275" lon="11.8992545"><ele>585.0</ele><time>2026-05-01T09:05:49.258Z</time></trkpt><trkpt lat="43.8508274" lon="11.8992677"><ele>580.2</ele><time>2026-05-01T09:05:50.254Z</time></trkpt><trkpt lat="43.8507384" lon="11.8992332"><ele>575.4</ele><time>2026-05-01T09:05:51.251Z</time></trkpt><trkpt lat="43.8506381" lon="11.8990999"><ele>570.6</ele><time>2026-05-01T09:05:53.261Z</time></trkpt><trkpt lat="43.8505998" lon="11.8990031"><ele>565.8</ele><time>2026-05-01T09:05:54.251Z</time></trkpt><trkpt lat="43.8505944" lon="11.8988896"><ele>561.0</ele><time>2026-05-01T09:05:55.252Z</time></trkpt><trkpt lat="43.8506313" lon="11.8987552"><ele>561.0</ele><time>2026-05-01T09:05:56.258Z</time></trkpt><trkpt lat="43.8505783" lon="11.8986056"><ele>561.0</ele><time>2026-05-01T09:05:57.258Z</time></trkpt><trkpt lat="43.8503828" lon="11.8987408"><ele>561.0</ele><time>2026-05-01T09:06:02.258Z</time></trkpt><trkpt lat="43.8503122" lon="11.8988272"><ele>561.0</ele><time>2026-05-01T09:06:03.255Z</time></trkpt><trkpt lat="43.8502463" lon="11.898881"><ele>567.75</ele><time>2026-05-01T09:06:04.254Z</time></trkpt><trkpt lat="43.8501223" lon="11.8989324"><ele>574.5</ele><time>2026-05-01T09:06:06.25Z</time></trkpt><trkpt lat="43.8500127" lon="11.8989537"><ele>581.25</ele><time>2026-05-01T09:06:07.248Z</time></trkpt><trkpt lat="43.8499121" lon="11.8989757"><ele>588.0</ele><time>2026-05-01T09:06:08.262Z</time></trkpt><trkpt lat="43.8498037" lon="11.8988655"><ele>588.0</ele><time>2026-05-01T09:06:09.247Z</time></trkpt><trkpt lat="43.8497334" lon="11.8987473"><ele>588.0</ele><time>2026-05-01T09:06:10.252Z</time></trkpt><trkpt lat="43.8496589" lon="11.8986424"><ele>588.0</ele><time>2026-05-01T09:06:11.25Z</time></trkpt><trkpt lat="43.8496113" lon="11.898458"><ele>588.0</ele><time>2026-05-01T09:06:12.257Z</time></trkpt><trkpt lat="43.849575" lon="11.8982652"><ele>582.8</ele><time>2026-05-01T09:06:13.247Z</time></trkpt><trkpt lat="43.8495427" lon="11.8981777"><ele>577.5999999999999</ele><time>2026-05-01T09:06:14.248Z</time></trkpt><trkpt lat="43.8494964" lon="11.8980069"><ele>572.4000000000001</ele><time>2026-05-01T09:06:16.256Z</time></trkpt><trkpt lat="43.849486" lon="11.8978772"><ele>567.2</ele><time>2026-05-01T09:06:17.251Z</time></trkpt><trkpt lat="43.8494192" lon="11.8978185"><ele>562.0</ele><time>2026-05-01T09:06:18.257Z</time></trkpt><trkpt lat="43.849299" lon="11.8979755"><ele>564.0</ele><time>2026-05-01T09:06:19.247Z</time></trkpt><trkpt lat="43.8491904" lon="11.8979647"><ele>566.0</ele><time>2026-05-01T09:06:20.248Z</time></trkpt><trkpt lat="43.8490713" lon="11.8979956"><ele>568.0</ele><time>2026-05-01T09:06:21.257Z</time></trkpt><trkpt lat="43.8489818" lon="11.8981263"><ele>570.0</ele><time>2026-05-01T09:06:22.251Z</time></trkpt><trkpt lat="43.848904" lon="11.8982161"><ele>570.0</ele><time>2026-05-01T09:06:23.255Z</time></trkpt><trkpt lat="43.8487929" lon="11.8982817"><ele>570.0</ele><time>2026-05-01T09:06:24.258Z</time></trkpt><trkpt lat="43.8487491" lon="11.8983977"><ele>570.0</ele><time>2026-05-01T09:06:25.258Z</time></trkpt><trkpt lat="43.8488092" lon="11.8985107"><ele>570.0</ele><time>2026-05-01T09:06:26.258Z</time></trkpt><trkpt lat="43.8487627" lon="11.8986368"><ele>570.0</ele><time>2026-05-01T09:06:28.257Z</time></trkpt><trkpt lat="43.8486661" lon="11.8986786"><ele>570.0</ele><time>2026-05-01T09:06:30.258Z</time></trkpt><trkpt lat="43.8485912" lon="11.8986372"><ele>570.0</ele><time>2026-05-01T09:06:31.262Z</time></trkpt><trkpt lat="43.8485462" lon="11.8983793"><ele>570.0</ele><time>2026-05-01T09:06:33.251Z</time></trkpt><trkpt lat="43.8484835" lon="11.8983283"><ele>570.0</ele><time>2026-05-01T09:06:34.253Z</time></trkpt><trkpt lat="43.8484565" lon="11.8982437"><ele>570.0</ele><time>2026-05-01T09:06:35.25Z</time></trkpt><trkpt lat="43.8483826" lon="11.8981898"><ele>570.0</ele><time>2026-05-01T09:06:36.259Z</time></trkpt><trkpt lat="43.8483548" lon="11.8980732"><ele>570.0</ele><time>2026-05-01T09:06:37.258Z</time></trkpt><trkpt lat="43.8484429" lon="11.8978709"><ele>570.0</ele><time>2026-05-01T09:06:38.252Z</time></trkpt><trkpt lat="43.8485386" lon="11.8977224"><ele>570.0</ele><time>2026-05-01T09:06:40.252Z</time></trkpt><trkpt lat="43.8485444" lon="11.897617"><ele>570.0</ele><time>2026-05-01T09:06:41.259Z</time></trkpt><trkpt lat="43.848645" lon="11.8975593"><ele>570.0</ele><time>2026-05-01T09:06:42.257Z</time></trkpt><trkpt lat="43.8485024" lon="11.8976213"><ele>570.0</ele><time>2026-05-01T09:06:43.258Z</time></trkpt><trkpt lat="43.8484324" lon="11.8975938"><ele>570.0</ele><time>2026-05-01T09:06:44.261Z</time></trkpt><trkpt lat="43.8483453" lon="11.8975939"><ele>570.0</ele><time>2026-05-01T09:06:45.256Z</time></trkpt><trkpt lat="43.8482308" lon="11.8976132"><ele>570.6666666666666</ele><time>2026-05-01T09:06:46.254Z</time></trkpt><trkpt lat="43.848066" lon="11.8975974"><ele>571.3333333333333</ele><time>2026-05-01T09:06:47.261Z</time></trkpt><trkpt lat="43.8479231" lon="11.8975141"><ele>572.0</ele><time>2026-05-01T09:06:48.25Z</time></trkpt><trkpt lat="43.8477696" lon="11.8974677"><ele>577.0</ele><time>2026-05-01T09:06:49.254Z</time></trkpt><trkpt lat="43.8476112" lon="11.8974057"><ele>582.0</ele><time>2026-05-01T09:06:50.254Z</time></trkpt><trkpt lat="43.8474791" lon="11.8973225"><ele>587.0</ele><time>2026-05-01T09:06:51.247Z</time></trkpt><trkpt lat="43.8473291" lon="11.8972559"><ele>587.0</ele><time>2026-05-01T09:06:52.258Z</time></trkpt><trkpt lat="43.8472182" lon="11.8971643"><ele>587.0</ele><time>2026-05-01T09:06:53.253Z</time></trkpt><trkpt lat="43.8470999" lon="11.8970824"><ele>587.0</ele><time>2026-05-01T09:06:54.261Z</time></trkpt><trkpt lat="43.8469786" lon="11.8970204"><ele>587.0</ele><time>2026-05-01T09:06:55.262Z</time></trkpt><trkpt lat="43.8468526" lon="11.8970489"><ele>589.0</ele><time>2026-05-01T09:06:56.248Z</time></trkpt><trkpt lat="43.846752" lon="11.8970827"><ele>591.0</ele><time>2026-05-01T09:06:57.257Z</time></trkpt><trkpt lat="43.8465982" lon="11.8970571"><ele>593.0</ele><time>2026-05-01T09:06:58.257Z</time></trkpt><trkpt lat="43.8464591" lon="11.8970504"><ele>595.0</ele><time>2026-05-01T09:06:59.249Z</time></trkpt><trkpt lat="43.8463083" lon="11.8970844"><ele>595.0</ele><time>2026-05-01T09:07:00.252Z</time></trkpt><trkpt lat="43.8462251" lon="11.8970836"><ele>595.0</ele><time>2026-05-01T09:07:01.249Z</time></trkpt><trkpt lat="43.8461504" lon="11.8971249"><ele>595.0</ele><time>2026-05-01T09:07:02.251Z</time></trkpt><trkpt lat="43.8460276" lon="11.8971963"><ele>595.0</ele><time>2026-05-01T09:07:04.256Z</time></trkpt><trkpt lat="43.8459638" lon="11.8972518"><ele>595.0</ele><time>2026-05-01T09:07:05.257Z</time></trkpt><trkpt lat="43.8458848" lon="11.8974053"><ele>593.4</ele><time>2026-05-01T09:07:06.254Z</time></trkpt><trkpt lat="43.8458027" lon="11.8974852"><ele>591.8</ele><time>2026-05-01T09:07:07.259Z</time></trkpt><trkpt lat="43.8457112" lon="11.8975393"><ele>590.2</ele><time>2026-05-01T09:07:08.257Z</time></trkpt><trkpt lat="43.8455923" lon="11.89755"><ele>588.6</ele><time>2026-05-01T09:07:09.259Z</time></trkpt><trkpt lat="43.8454867" lon="11.89762"><ele>587.0</ele><time>2026-05-01T09:07:10.252Z</time></trkpt><trkpt lat="43.8453623" lon="11.8976423"><ele>590.25</ele><time>2026-05-01T09:07:11.248Z</time></trkpt><trkpt lat="43.8452344" lon="11.8976756"><ele>593.5</ele><time>2026-05-01T09:07:12.256Z</time></trkpt><trkpt lat="43.8451277" lon="11.8976969"><ele>596.75</ele><time>2026-05-01T09:07:13.258Z</time></trkpt><trkpt lat="43.8449996" lon="11.8976478"><ele>600.0</ele><time>2026-05-01T09:07:14.258Z</time></trkpt><trkpt lat="43.8448674" lon="11.8976581"><ele>600.0</ele><time>2026-05-01T09:07:15.257Z</time></trkpt><trkpt lat="43.8447292" lon="11.8976499"><ele>600.0</ele><time>2026-05-01T09:07:16.257Z</time></trkpt><trkpt lat="43.8446371" lon="11.8976243"><ele>600.0</ele><time>2026-05-01T09:07:17.26Z</time></trkpt><trkpt lat="43.8445533" lon="11.8978201"><ele>600.0</ele><time>2026-05-01T09:07:18.258Z</time></trkpt><trkpt lat="43.8444064" lon="11.897836"><ele>600.0</ele><time>2026-05-01T09:07:19.251Z</time></trkpt><trkpt lat="43.8443684" lon="11.8979549"><ele>600.0</ele><time>2026-05-01T09:07:20.25Z</time></trkpt><trkpt lat="43.8442626" lon="11.898023"><ele>600.0</ele><time>2026-05-01T09:07:21.251Z</time></trkpt><trkpt lat="43.8441647" lon="11.8980904"><ele>600.0</ele><time>2026-05-01T09:07:22.258Z</time></trkpt><trkpt lat="43.84406" lon="11.8981908"><ele>600.0</ele><time>2026-05-01T09:07:23.25Z</time></trkpt><trkpt lat="43.8439696" lon="11.8982905"><ele>603.0</ele><time>2026-05-01T09:07:25.25Z</time></trkpt><trkpt lat="43.8438996" lon="11.8983714"><ele>606.0</ele><time>2026-05-01T09:07:26.256Z</time></trkpt><trkpt lat="43.8437969" lon="11.898445"><ele>609.0</ele><time>2026-05-01T09:07:27.266Z</time></trkpt><trkpt lat="43.8436793" lon="11.8985436"><ele>612.0</ele><time>2026-05-01T09:07:28.257Z</time></trkpt><trkpt lat="43.8435715" lon="11.8986297"><ele>612.0</ele><time>2026-05-01T09:07:29.256Z</time></trkpt><trkpt lat="43.8435066" lon="11.8987396"><ele>612.0</ele><time>2026-05-01T09:07:30.249Z</time></trkpt><trkpt lat="43.8433841" lon="11.8987237"><ele>612.0</ele><time>2026-05-01T09:07:32.253Z</time></trkpt><trkpt lat="43.843321" lon="11.8987661"><ele>612.0</ele><time>2026-05-01T09:07:33.25Z</time></trkpt><trkpt lat="43.8432145" lon="11.8986997"><ele>612.0</ele><time>2026-05-01T09:07:34.254Z</time></trkpt><trkpt lat="43.843084" lon="11.8985396"><ele>611.6</ele><time>2026-05-01T09:07:35.257Z</time></trkpt><trkpt lat="43.8429714" lon="11.8984818"><ele>611.2</ele><time>2026-05-01T09:07:36.247Z</time></trkpt><trkpt lat="43.8428885" lon="11.8984428"><ele>610.8</ele><time>2026-05-01T09:07:37.252Z</time></trkpt><trkpt lat="43.842752" lon="11.8984601"><ele>610.4</ele><time>2026-05-01T09:07:38.247Z</time></trkpt><trkpt lat="43.8426835" lon="11.8984202"><ele>610.0</ele><time>2026-05-01T09:07:39.257Z</time></trkpt><trkpt lat="43.8425622" lon="11.8984317"><ele>610.0</ele><time>2026-05-01T09:07:40.26Z</time></trkpt><trkpt lat="43.8424708" lon="11.8985186"><ele>610.0</ele><time>2026-05-01T09:07:41.257Z</time></trkpt><trkpt lat="43.8424339" lon="11.8986758"><ele>610.0</ele><time>2026-05-01T09:07:42.259Z</time></trkpt><trkpt lat="43.8423593" lon="11.8988034"><ele>610.0</ele><time>2026-05-01T09:07:43.251Z</time></trkpt><trkpt lat="43.8422415" lon="11.8989265"><ele>610.0</ele><time>2026-05-01T09:07:44.258Z</time></trkpt><trkpt lat="43.8421456" lon="11.8990345"><ele>610.0</ele><time>2026-05-01T09:07:45.257Z</time></trkpt><trkpt lat="43.8420438" lon="11.8991275"><ele>610.0</ele><time>2026-05-01T09:07:46.249Z</time></trkpt><trkpt lat="43.8419402" lon="11.899231"><ele>610.0</ele><time>2026-05-01T09:07:47.257Z</time></trkpt><trkpt lat="43.8418363" lon="11.8992984"><ele>621.25</ele><time>2026-05-01T09:07:48.258Z</time></trkpt><trkpt lat="43.8417389" lon="11.8994098"><ele>632.5</ele><time>2026-05-01T09:07:49.257Z</time></trkpt><trkpt lat="43.8416756" lon="11.8994892"><ele>643.75</ele><time>2026-05-01T09:07:50.258Z</time></trkpt><trkpt lat="43.8416317" lon="11.8995747"><ele>655.0</ele><time>2026-05-01T09:07:51.261Z</time></trkpt><trkpt lat="43.8414512" lon="11.8996163"><ele>655.0</ele><time>2026-05-01T09:07:53.258Z</time></trkpt><trkpt lat="43.8414447" lon="11.8995223"><ele>655.0</ele><time>2026-05-01T09:07:54.258Z</time></trkpt><trkpt lat="43.8413685" lon="11.8995123"><ele>655.0</ele><time>2026-05-01T09:07:55.258Z</time></trkpt><trkpt lat="43.8413287" lon="11.8993496"><ele>655.0</ele><time>2026-05-01T09:07:56.251Z</time></trkpt><trkpt lat="43.8412407" lon="11.8992835"><ele>655.0</ele><time>2026-05-01T09:07:57.259Z</time></trkpt><trkpt lat="43.8411345" lon="11.8991886"><ele>647.4</ele><time>2026-05-01T09:07:58.258Z</time></trkpt><trkpt lat="43.8410405" lon="11.8991357"><ele>639.8</ele><time>2026-05-01T09:07:59.249Z</time></trkpt><trkpt lat="43.8410072" lon="11.8990319"><ele>632.2</ele><time>2026-05-01T09:08:00.251Z</time></trkpt><trkpt lat="43.8409205" lon="11.8990205"><ele>624.6</ele><time>2026-05-01T09:08:01.262Z</time></trkpt><trkpt lat="43.840833" lon="11.8989579"><ele>617.0</ele><time>2026-05-01T09:08:02.258Z</time></trkpt><trkpt lat="43.8407542" lon="11.8989215"><ele>617.0</ele><time>2026-05-01T09:08:03.26Z</time></trkpt><trkpt lat="43.8406462" lon="11.8989374"><ele>617.0</ele><time>2026-05-01T09:08:04.259Z</time></trkpt><trkpt lat="43.8405455" lon="11.8989489"><ele>617.0</ele><time>2026-05-01T09:08:05.252Z</time></trkpt><trkpt lat="43.8404633" lon="11.8989927"><ele>617.0</ele><time>2026-05-01T09:08:06.25Z</time></trkpt><trkpt lat="43.8403859" lon="11.8990466"><ele>617.0</ele><time>2026-05-01T09:08:07.249Z</time></trkpt><trkpt lat="43.840322" lon="11.8991007"><ele>617.0</ele><time>2026-05-01T09:08:08.26Z</time></trkpt><trkpt lat="43.8402079" lon="11.8991078"><ele>617.0</ele><time>2026-05-01T09:08:10.251Z</time></trkpt><trkpt lat="43.8401385" lon="11.8990892"><ele>617.0</ele><time>2026-05-01T09:08:11.262Z</time></trkpt><trkpt lat="43.8400705" lon="11.8989762"><ele>617.0</ele><time>2026-05-01T09:08:13.261Z</time></trkpt><trkpt lat="43.8399958" lon="11.8989988"><ele>617.0</ele><time>2026-05-01T09:08:15.248Z</time></trkpt><trkpt lat="43.8399315" lon="11.8989913"><ele>617.0</ele><time>2026-05-01T09:08:17.251Z</time></trkpt><trkpt lat="43.8398638" lon="11.8989882"><ele>619.0</ele><time>2026-05-01T09:08:20.247Z</time></trkpt><trkpt lat="43.8398029" lon="11.8990145"><ele>621.0</ele><time>2026-05-01T09:08:22.248Z</time></trkpt><trkpt lat="43.8397235" lon="11.8989795"><ele>623.0</ele><time>2026-05-01T09:08:24.247Z</time></trkpt><trkpt lat="43.8396893" lon="11.8989024"><ele>625.0</ele><time>2026-05-01T09:08:27.245Z</time></trkpt><trkpt lat="43.8397009" lon="11.8987903"><ele>627.0</ele><time>2026-05-01T09:08:30.258Z</time></trkpt><trkpt lat="43.8396136" lon="11.898691"><ele>629.0</ele><time>2026-05-01T09:08:34.25Z</time></trkpt><trkpt lat="43.8395784" lon="11.8986062"><ele>629.0</ele><time>2026-05-01T09:08:35.249Z</time></trkpt><trkpt lat="43.8395045" lon="11.8984986"><ele>629.0</ele><time>2026-05-01T09:08:37.248Z</time></trkpt><trkpt lat="43.8395877" lon="11.898577"><ele>629.0</ele><time>2026-05-01T09:08:38.251Z</time></trkpt><trkpt lat="43.8397133" lon="11.8985354"><ele>629.0</ele><time>2026-05-01T09:08:40.251Z</time></trkpt><trkpt lat="43.8398095" lon="11.8985088"><ele>629.0</ele><time>2026-05-01T09:08:58.252Z</time></trkpt><trkpt lat="43.8398173" lon="11.8985968"><ele>629.0</ele><time>2026-05-01T09:12:04.263Z</time></trkpt><trkpt lat="43.8398868" lon="11.8985919"><ele>629.0</ele><time>2026-05-01T09:17:53.246Z</time></trkpt><trkpt lat="43.8398225" lon="11.8986712"><ele>629.0</ele><time>2026-05-01T09:24:23.257Z</time></trkpt><trkpt lat="43.8398334" lon="11.8985815"><ele>629.0</ele><time>2026-05-01T09:27:33.25Z</time></trkpt><trkpt lat="43.8397948" lon="11.8987272"><ele>629.0</ele><time>2026-05-01T09:33:21.241Z</time></trkpt><trkpt lat="43.8397611" lon="11.8988163"><ele>629.0</ele><time>2026-05-01T09:33:23.246Z</time></trkpt><trkpt lat="43.8397498" lon="11.8989265"><ele>629.0</ele><time>2026-05-01T09:33:25.25Z</time></trkpt><trkpt lat="43.8399449" lon="11.8989173"><ele>629.0</ele><time>2026-05-01T09:33:32.242Z</time></trkpt><trkpt lat="43.8400114" lon="11.8989104"><ele>629.0</ele><time>2026-05-01T09:33:35.241Z</time></trkpt><trkpt lat="43.8400823" lon="11.8989022"><ele>629.0</ele><time>2026-05-01T09:33:39.244Z</time></trkpt><trkpt lat="43.8401712" lon="11.8988864"><ele>629.0</ele><time>2026-05-01T09:33:42.256Z</time></trkpt><trkpt lat="43.8402451" lon="11.8988689"><ele>626.6</ele><time>2026-05-01T09:33:46.256Z</time></trkpt><trkpt lat="43.8403106" lon="11.8989313"><ele>624.2</ele><time>2026-05-01T09:33:51.257Z</time></trkpt><trkpt lat="43.8403676" lon="11.8990205"><ele>621.8000000000001</ele><time>2026-05-01T09:33:53.25Z</time></trkpt><trkpt lat="43.8404817" lon="11.8991044"><ele>619.4</ele><time>2026-05-01T09:33:55.245Z</time></trkpt><trkpt lat="43.8405775" lon="11.8990971"><ele>617.0</ele><time>2026-05-01T09:33:57.244Z</time></trkpt><trkpt lat="43.8407294" lon="11.8990455"><ele>617.0</ele><time>2026-05-01T09:33:59.257Z</time></trkpt><trkpt lat="43.8407978" lon="11.8990198"><ele>617.0</ele><time>2026-05-01T09:34:00.243Z</time></trkpt><trkpt lat="43.8408869" lon="11.8989848"><ele>617.0</ele><time>2026-05-01T09:34:02.244Z</time></trkpt><trkpt lat="43.8409901" lon="11.8989633"><ele>617.0</ele><time>2026-05-01T09:34:04.246Z</time></trkpt><trkpt lat="43.841057" lon="11.8989871"><ele>617.0</ele><time>2026-05-01T09:34:06.253Z</time></trkpt><trkpt lat="43.8411492" lon="11.8990551"><ele>617.0</ele><time>2026-05-01T09:34:08.258Z</time></trkpt><trkpt lat="43.8412151" lon="11.8991289"><ele>614.6666666666666</ele><time>2026-05-01T09:34:09.259Z</time></trkpt><trkpt lat="43.8412712" lon="11.8992207"><ele>612.3333333333333</ele><time>2026-05-01T09:34:10.26Z</time></trkpt><trkpt lat="43.8413278" lon="11.8992698"><ele>610.0</ele><time>2026-05-01T09:34:11.258Z</time></trkpt><trkpt lat="43.841388" lon="11.8993185"><ele>607.6666666666666</ele><time>2026-05-01T09:34:12.26Z</time></trkpt><trkpt lat="43.841498" lon="11.899397"><ele>605.3333333333334</ele><time>2026-05-01T09:34:14.271Z</time></trkpt><trkpt lat="43.8415922" lon="11.8994522"><ele>603.0</ele><time>2026-05-01T09:34:15.27Z</time></trkpt><trkpt lat="43.841711" lon="11.8994643"><ele>604.1666666666666</ele><time>2026-05-01T09:34:17.256Z</time></trkpt><trkpt lat="43.8418074" lon="11.8994252"><ele>605.3333333333334</ele><time>2026-05-01T09:34:18.248Z</time></trkpt><trkpt lat="43.8418788" lon="11.899405"><ele>606.5</ele><time>2026-05-01T09:34:19.257Z</time></trkpt><trkpt lat="43.8419757" lon="11.8994435"><ele>607.6666666666667</ele><time>2026-05-01T09:34:20.256Z</time></trkpt><trkpt lat="43.8420538" lon="11.899416"><ele>608.8333333333334</ele><time>2026-05-01T09:34:21.256Z</time></trkpt><trkpt lat="43.8421125" lon="11.8993744"><ele>610.0</ele><time>2026-05-01T09:34:22.246Z</time></trkpt><trkpt lat="43.8421885" lon="11.8992153"><ele>610.0</ele><time>2026-05-01T09:34:23.249Z</time></trkpt><trkpt lat="43.8422649" lon="11.8991381"><ele>610.0</ele><time>2026-05-01T09:34:24.257Z</time></trkpt><trkpt lat="43.8423346" lon="11.8990637"><ele>610.0</ele><time>2026-05-01T09:34:25.257Z</time></trkpt><trkpt lat="43.8423872" lon="11.8989962"><ele>610.0</ele><time>2026-05-01T09:34:26.249Z</time></trkpt><trkpt lat="43.8424426" lon="11.8989264"><ele>610.0</ele><time>2026-05-01T09:34:27.245Z</time></trkpt><trkpt lat="43.8424943" lon="11.8988306"><ele>610.0</ele><time>2026-05-01T09:34:28.258Z</time></trkpt><trkpt lat="43.8425507" lon="11.8987446"><ele>610.0</ele><time>2026-05-01T09:34:29.257Z</time></trkpt><trkpt lat="43.8426528" lon="11.8986376"><ele>610.0</ele><time>2026-05-01T09:34:31.258Z</time></trkpt><trkpt lat="43.8427509" lon="11.8986027"><ele>610.0</ele><time>2026-05-01T09:34:33.257Z</time></trkpt><trkpt lat="43.8428632" lon="11.8985773"><ele>610.0</ele><time>2026-05-01T09:34:35.248Z</time></trkpt><trkpt lat="43.8429262" lon="11.8985503"><ele>610.0</ele><time>2026-05-01T09:34:36.251Z</time></trkpt><trkpt lat="43.8430139" lon="11.8986233"><ele>610.0</ele><time>2026-05-01T09:34:37.253Z</time></trkpt><trkpt lat="43.8430997" lon="11.8986718"><ele>610.0</ele><time>2026-05-01T09:34:38.247Z</time></trkpt><trkpt lat="43.8431819" lon="11.8987167"><ele>610.0</ele><time>2026-05-01T09:34:39.248Z</time></trkpt><trkpt lat="43.8432682" lon="11.8987513"><ele>610.0</ele><time>2026-05-01T09:34:40.246Z</time></trkpt><trkpt lat="43.8433596" lon="11.8988219"><ele>610.0</ele><time>2026-05-01T09:34:41.246Z</time></trkpt><trkpt lat="43.8434469" lon="11.8988578"><ele>610.4</ele><time>2026-05-01T09:34:42.255Z</time></trkpt><trkpt lat="43.8435311" lon="11.8988822"><ele>610.8</ele><time>2026-05-01T09:34:43.244Z</time></trkpt><trkpt lat="43.8436576" lon="11.8989065"><ele>611.2</ele><time>2026-05-01T09:34:45.247Z</time></trkpt><trkpt lat="43.8437241" lon="11.8989146"><ele>611.6</ele><time>2026-05-01T09:34:46.242Z</time></trkpt><trkpt lat="43.8438231" lon="11.8988655"><ele>612.0</ele><time>2026-05-01T09:34:47.255Z</time></trkpt><trkpt lat="43.8439613" lon="11.8987638"><ele>612.0</ele><time>2026-05-01T09:34:48.252Z</time></trkpt><trkpt lat="43.8440602" lon="11.898703"><ele>612.0</ele><time>2026-05-01T09:34:49.255Z</time></trkpt><trkpt lat="43.844134" lon="11.8985762"><ele>612.0</ele><time>2026-05-01T09:34:50.25Z</time></trkpt><trkpt lat="43.844233" lon="11.8984658"><ele>612.0</ele><time>2026-05-01T09:34:51.255Z</time></trkpt><trkpt lat="43.8442934" lon="11.8983535"><ele>610.0</ele><time>2026-05-01T09:34:52.244Z</time></trkpt><trkpt lat="43.8443129" lon="11.898267"><ele>608.0</ele><time>2026-05-01T09:34:53.26Z</time></trkpt><trkpt lat="43.8443584" lon="11.8981253"><ele>606.0</ele><time>2026-05-01T09:34:55.243Z</time></trkpt><trkpt lat="43.84442" lon="11.8980645"><ele>604.0</ele><time>2026-05-01T09:34:57.243Z</time></trkpt><trkpt lat="43.8445022" lon="11.8980519"><ele>602.0</ele><time>2026-05-01T09:34:59.244Z</time></trkpt><trkpt lat="43.8445775" lon="11.8979681"><ele>600.0</ele><time>2026-05-01T09:35:02.256Z</time></trkpt><trkpt lat="43.8446366" lon="11.8979055"><ele>600.0</ele><time>2026-05-01T09:35:04.256Z</time></trkpt><trkpt lat="43.8447307" lon="11.897803"><ele>600.0</ele><time>2026-05-01T09:35:06.254Z</time></trkpt><trkpt lat="43.8448317" lon="11.8977025"><ele>600.0</ele><time>2026-05-01T09:35:08.244Z</time></trkpt><trkpt lat="43.8449015" lon="11.8976816"><ele>600.0</ele><time>2026-05-01T09:35:09.254Z</time></trkpt><trkpt lat="43.844993" lon="11.8976907"><ele>600.0</ele><time>2026-05-01T09:35:10.242Z</time></trkpt><trkpt lat="43.8451002" lon="11.8977123"><ele>604.25</ele><time>2026-05-01T09:35:11.255Z</time></trkpt><trkpt lat="43.8452203" lon="11.8977325"><ele>608.5</ele><time>2026-05-01T09:35:12.24Z</time></trkpt><trkpt lat="43.8453774" lon="11.8977162"><ele>612.75</ele><time>2026-05-01T09:35:13.256Z</time></trkpt><trkpt lat="43.8455268" lon="11.8976893"><ele>617.0</ele><time>2026-05-01T09:35:14.244Z</time></trkpt><trkpt lat="43.8456514" lon="11.8976592"><ele>617.0</ele><time>2026-05-01T09:35:15.24Z</time></trkpt><trkpt lat="43.8457693" lon="11.897627"><ele>617.0</ele><time>2026-05-01T09:35:16.242Z</time></trkpt><trkpt lat="43.8458851" lon="11.8976029"><ele>617.0</ele><time>2026-05-01T09:35:17.248Z</time></trkpt><trkpt lat="43.8459412" lon="11.8975081"><ele>617.0</ele><time>2026-05-01T09:35:18.242Z</time></trkpt><trkpt lat="43.8459946" lon="11.8974002"><ele>617.0</ele><time>2026-05-01T09:35:19.248Z</time></trkpt><trkpt lat="43.8460472" lon="11.8973161"><ele>612.6</ele><time>2026-05-01T09:35:20.243Z</time></trkpt><trkpt lat="43.8461589" lon="11.8972825"><ele>608.2</ele><time>2026-05-01T09:35:22.245Z</time></trkpt><trkpt lat="43.84624" lon="11.8972514"><ele>603.8</ele><time>2026-05-01T09:35:23.246Z</time></trkpt><trkpt lat="43.8463409" lon="11.8972427"><ele>599.4</ele><time>2026-05-01T09:35:24.242Z</time></trkpt><trkpt lat="43.8464224" lon="11.8972366"><ele>595.0</ele><time>2026-05-01T09:35:25.245Z</time></trkpt><trkpt lat="43.8464983" lon="11.8972228"><ele>595.0</ele><time>2026-05-01T09:35:26.256Z</time></trkpt><trkpt lat="43.8465785" lon="11.8972464"><ele>595.0</ele><time>2026-05-01T09:35:27.243Z</time></trkpt><trkpt lat="43.8466656" lon="11.8972215"><ele>595.0</ele><time>2026-05-01T09:35:28.246Z</time></trkpt><trkpt lat="43.8467574" lon="11.8972233"><ele>595.0</ele><time>2026-05-01T09:35:29.245Z</time></trkpt><trkpt lat="43.8468348" lon="11.897225"><ele>595.0</ele><time>2026-05-01T09:35:30.254Z</time></trkpt><trkpt lat="43.8469147" lon="11.89725"><ele>595.0</ele><time>2026-05-01T09:35:31.245Z</time></trkpt><trkpt lat="43.847006" lon="11.8972407"><ele>593.4</ele><time>2026-05-01T09:35:32.243Z</time></trkpt><trkpt lat="43.847092" lon="11.897263"><ele>591.8</ele><time>2026-05-01T09:35:33.243Z</time></trkpt><trkpt lat="43.8471653" lon="11.8972622"><ele>590.2</ele><time>2026-05-01T09:35:34.256Z</time></trkpt><trkpt lat="43.847257" lon="11.8972608"><ele>588.6</ele><time>2026-05-01T09:35:35.252Z</time></trkpt><trkpt lat="43.8473658" lon="11.8972969"><ele>587.0</ele><time>2026-05-01T09:35:36.253Z</time></trkpt><trkpt lat="43.8474614" lon="11.897372"><ele>587.0</ele><time>2026-05-01T09:35:37.246Z</time></trkpt><trkpt lat="43.8475851" lon="11.8974245"><ele>587.0</ele><time>2026-05-01T09:35:38.242Z</time></trkpt><trkpt lat="43.8476751" lon="11.8974759"><ele>587.0</ele><time>2026-05-01T09:35:39.246Z</time></trkpt><trkpt lat="43.8477645" lon="11.8975032"><ele>587.0</ele><time>2026-05-01T09:35:40.241Z</time></trkpt><trkpt lat="43.8478663" lon="11.8975112"><ele>587.0</ele><time>2026-05-01T09:35:41.246Z</time></trkpt><trkpt lat="43.847983" lon="11.8975335"><ele>584.0</ele><time>2026-05-01T09:35:42.242Z</time></trkpt><trkpt lat="43.8480755" lon="11.8975248"><ele>581.0</ele><time>2026-05-01T09:35:43.243Z</time></trkpt><trkpt lat="43.8481689" lon="11.8975302"><ele>578.0</ele><time>2026-05-01T09:35:44.242Z</time></trkpt><trkpt lat="43.8482621" lon="11.8975459"><ele>575.0</ele><time>2026-05-01T09:35:45.255Z</time></trkpt><trkpt lat="43.8483563" lon="11.8975612"><ele>572.0</ele><time>2026-05-01T09:35:46.256Z</time></trkpt><trkpt lat="43.8484964" lon="11.8975569"><ele>571.6</ele><time>2026-05-01T09:35:48.245Z</time></trkpt><trkpt lat="43.8485713" lon="11.8976288"><ele>571.2</ele><time>2026-05-01T09:35:50.251Z</time></trkpt><trkpt lat="43.8485631" lon="11.8977853"><ele>570.8</ele><time>2026-05-01T09:35:52.244Z</time></trkpt><trkpt lat="43.8485184" lon="11.8979162"><ele>570.4</ele><time>2026-05-01T09:35:54.255Z</time></trkpt><trkpt lat="43.848489" lon="11.8980733"><ele>570.0</ele><time>2026-05-01T09:35:55.265Z</time></trkpt><trkpt lat="43.8483736" lon="11.8981809"><ele>571.6666666666666</ele><time>2026-05-01T09:35:56.245Z</time></trkpt><trkpt lat="43.8484217" lon="11.8982641"><ele>573.3333333333334</ele><time>2026-05-01T09:35:57.256Z</time></trkpt><trkpt lat="43.8483977" lon="11.8983814"><ele>575.0</ele><time>2026-05-01T09:35:58.256Z</time></trkpt><trkpt lat="43.8484216" lon="11.8984666"><ele>576.6666666666667</ele><time>2026-05-01T09:35:59.245Z</time></trkpt><trkpt lat="43.8484755" lon="11.8985471"><ele>578.3333333333334</ele><time>2026-05-01T09:36:00.249Z</time></trkpt><trkpt lat="43.8485462" lon="11.8987051"><ele>580.0</ele><time>2026-05-01T09:36:02.257Z</time></trkpt><trkpt lat="43.8486352" lon="11.8987612"><ele>580.0</ele><time>2026-05-01T09:36:03.255Z</time></trkpt><trkpt lat="43.8487283" lon="11.8988112"><ele>580.0</ele><time>2026-05-01T09:36:04.262Z</time></trkpt><trkpt lat="43.8488142" lon="11.8987607"><ele>580.0</ele><time>2026-05-01T09:36:05.245Z</time></trkpt><trkpt lat="43.8488838" lon="11.8987096"><ele>580.0</ele><time>2026-05-01T09:36:07.256Z</time></trkpt><trkpt lat="43.8488603" lon="11.8985794"><ele>580.0</ele><time>2026-05-01T09:36:08.248Z</time></trkpt><trkpt lat="43.8488833" lon="11.8984774"><ele>580.0</ele><time>2026-05-01T09:36:09.252Z</time></trkpt><trkpt lat="43.8489251" lon="11.8982865"><ele>578.0</ele><time>2026-05-01T09:36:11.258Z</time></trkpt><trkpt lat="43.8489376" lon="11.8981252"><ele>576.0</ele><time>2026-05-01T09:36:12.245Z</time></trkpt><trkpt lat="43.8490378" lon="11.8981211"><ele>574.0</ele><time>2026-05-01T09:36:13.256Z</time></trkpt><trkpt lat="43.8490908" lon="11.898028"><ele>572.0</ele><time>2026-05-01T09:36:14.245Z</time></trkpt><trkpt lat="43.8491437" lon="11.8979561"><ele>570.0</ele><time>2026-05-01T09:36:15.255Z</time></trkpt><trkpt lat="43.8492276" lon="11.8979657"><ele>568.0</ele><time>2026-05-01T09:36:16.244Z</time></trkpt><trkpt lat="43.8493437" lon="11.8979927"><ele>566.0</ele><time>2026-05-01T09:36:18.259Z</time></trkpt><trkpt lat="43.8494333" lon="11.8980612"><ele>564.0</ele><time>2026-05-01T09:36:19.244Z</time></trkpt><trkpt lat="43.8495162" lon="11.8982036"><ele>562.0</ele><time>2026-05-01T09:36:20.259Z</time></trkpt><trkpt lat="43.8495431" lon="11.8983526"><ele>567.2</ele><time>2026-05-01T09:36:21.245Z</time></trkpt><trkpt lat="43.8495926" lon="11.8984747"><ele>572.4000000000001</ele><time>2026-05-01T09:36:22.24Z</time></trkpt><trkpt lat="43.8496298" lon="11.8986096"><ele>577.5999999999999</ele><time>2026-05-01T09:36:23.245Z</time></trkpt><trkpt lat="43.8496702" lon="11.8987042"><ele>582.8</ele><time>2026-05-01T09:36:24.243Z</time></trkpt><trkpt lat="43.8497354" lon="11.8987795"><ele>588.0</ele><time>2026-05-01T09:36:25.24Z</time></trkpt><trkpt lat="43.8498244" lon="11.8988406"><ele>588.0</ele><time>2026-05-01T09:36:26.245Z</time></trkpt><trkpt lat="43.8499137" lon="11.8988962"><ele>588.0</ele><time>2026-05-01T09:36:27.255Z</time></trkpt><trkpt lat="43.8500037" lon="11.898952"><ele>588.0</ele><time>2026-05-01T09:36:28.255Z</time></trkpt><trkpt lat="43.8500798" lon="11.8989802"><ele>588.0</ele><time>2026-05-01T09:36:29.258Z</time></trkpt><trkpt lat="43.8501575" lon="11.8989904"><ele>588.0</ele><time>2026-05-01T09:36:30.241Z</time></trkpt><trkpt lat="43.8502279" lon="11.8989958"><ele>588.0</ele><time>2026-05-01T09:36:31.242Z</time></trkpt><trkpt lat="43.8503112" lon="11.8989847"><ele>582.6</ele><time>2026-05-01T09:36:32.243Z</time></trkpt><trkpt lat="43.8503942" lon="11.8989535"><ele>577.1999999999999</ele><time>2026-05-01T09:36:33.243Z</time></trkpt><trkpt lat="43.8504674" lon="11.8988794"><ele>571.8</ele><time>2026-05-01T09:36:34.245Z</time></trkpt><trkpt lat="43.8505325" lon="11.8988103"><ele>566.4</ele><time>2026-05-01T09:36:35.244Z</time></trkpt><trkpt lat="43.850606" lon="11.8987492"><ele>561.0</ele><time>2026-05-01T09:36:36.244Z</time></trkpt><trkpt lat="43.8507152" lon="11.8987418"><ele>561.0</ele><time>2026-05-01T09:36:38.255Z</time></trkpt><trkpt lat="43.8507673" lon="11.8988465"><ele>561.0</ele><time>2026-05-01T09:36:40.24Z</time></trkpt><trkpt lat="43.8507631" lon="11.898965"><ele>561.0</ele><time>2026-05-01T09:36:42.248Z</time></trkpt><trkpt lat="43.850751" lon="11.8990724"><ele>561.0</ele><time>2026-05-01T09:36:43.258Z</time></trkpt><trkpt lat="43.8507356" lon="11.8991953"><ele>561.0</ele><time>2026-05-01T09:36:44.261Z</time></trkpt><trkpt lat="43.85074" lon="11.8992924"><ele>561.0</ele><time>2026-05-01T09:36:47.257Z</time></trkpt><trkpt lat="43.8507486" lon="11.8994346"><ele>563.0</ele><time>2026-05-01T09:36:48.255Z</time></trkpt><trkpt lat="43.850916" lon="11.8994459"><ele>565.0</ele><time>2026-05-01T09:36:49.255Z</time></trkpt><trkpt lat="43.8510284" lon="11.8994111"><ele>567.0</ele><time>2026-05-01T09:36:50.245Z</time></trkpt><trkpt lat="43.8510972" lon="11.8993789"><ele>569.0</ele><time>2026-05-01T09:36:51.247Z</time></trkpt><trkpt lat="43.8511616" lon="11.8994175"><ele>571.0</ele><time>2026-05-01T09:36:52.254Z</time></trkpt><trkpt lat="43.8512355" lon="11.8994327"><ele>571.0</ele><time>2026-05-01T09:36:53.255Z</time></trkpt><trkpt lat="43.8513096" lon="11.8995202"><ele>571.0</ele><time>2026-05-01T09:36:54.259Z</time></trkpt><trkpt lat="43.851405" lon="11.8996058"><ele>571.0</ele><time>2026-05-01T09:36:56.243Z</time></trkpt><trkpt lat="43.8515343" lon="11.8996723"><ele>571.0</ele><time>2026-05-01T09:36:57.255Z</time></trkpt><trkpt lat="43.851626" lon="11.899745"><ele>571.0</ele><time>2026-05-01T09:36:58.25Z</time></trkpt><trkpt lat="43.8516983" lon="11.8998237"><ele>571.0</ele><time>2026-05-01T09:36:59.251Z</time></trkpt><trkpt lat="43.8517602" lon="11.8998715"><ele>571.0</ele><time>2026-05-01T09:37:00.244Z</time></trkpt><trkpt lat="43.8518193" lon="11.9000225"><ele>571.0</ele><time>2026-05-01T09:37:02.245Z</time></trkpt><trkpt lat="43.8518499" lon="11.9001074"><ele>571.0</ele><time>2026-05-01T09:37:03.243Z</time></trkpt><trkpt lat="43.8518475" lon="11.900329"><ele>573.0</ele><time>2026-05-01T09:37:04.267Z</time></trkpt><trkpt lat="43.8518493" lon="11.9005106"><ele>575.0</ele><time>2026-05-01T09:37:05.244Z</time></trkpt><trkpt lat="43.8518561" lon="11.9006509"><ele>577.0</ele><time>2026-05-01T09:37:06.245Z</time></trkpt><trkpt lat="43.8517588" lon="11.9007132"><ele>579.0</ele><time>2026-05-01T09:37:07.255Z</time></trkpt><trkpt lat="43.8517227" lon="11.9008193"><ele>581.0</ele><time>2026-05-01T09:37:08.245Z</time></trkpt><trkpt lat="43.8516883" lon="11.9009274"><ele>585.0</ele><time>2026-05-01T09:37:09.252Z</time></trkpt><trkpt lat="43.8516396" lon="11.9010053"><ele>589.0</ele><time>2026-05-01T09:37:10.256Z</time></trkpt><trkpt lat="43.8516381" lon="11.9011506"><ele>593.0</ele><time>2026-05-01T09:37:11.248Z</time></trkpt><trkpt lat="43.8516069" lon="11.9012344"><ele>597.0</ele><time>2026-05-01T09:37:12.247Z</time></trkpt><trkpt lat="43.8515968" lon="11.9013355"><ele>601.0</ele><time>2026-05-01T09:37:13.248Z</time></trkpt><trkpt lat="43.8516435" lon="11.901403"><ele>605.0</ele><time>2026-05-01T09:37:14.255Z</time></trkpt><trkpt lat="43.8517809" lon="11.9012786"><ele>605.2</ele><time>2026-05-01T09:37:15.256Z</time></trkpt><trkpt lat="43.8519255" lon="11.9012477"><ele>605.4</ele><time>2026-05-01T09:37:17.25Z</time></trkpt><trkpt lat="43.8520098" lon="11.901148"><ele>605.6</ele><time>2026-05-01T09:37:18.244Z</time></trkpt><trkpt lat="43.8521063" lon="11.9011002"><ele>605.8</ele><time>2026-05-01T09:37:19.256Z</time></trkpt><trkpt lat="43.8521787" lon="11.9011247"><ele>606.0</ele><time>2026-05-01T09:37:20.255Z</time></trkpt><trkpt lat="43.8522645" lon="11.9010987"><ele>606.0</ele><time>2026-05-01T09:37:21.25Z</time></trkpt><trkpt lat="43.8523572" lon="11.9010833"><ele>606.0</ele><time>2026-05-01T09:37:22.255Z</time></trkpt><trkpt lat="43.8524896" lon="11.9010002"><ele>606.0</ele><time>2026-05-01T09:37:24.251Z</time></trkpt><trkpt lat="43.8525363" lon="11.900897"><ele>606.0</ele><time>2026-05-01T09:37:25.255Z</time></trkpt><trkpt lat="43.8526034" lon="11.9008201"><ele>606.0</ele><time>2026-05-01T09:37:26.255Z</time></trkpt><trkpt lat="43.8525755" lon="11.9006209"><ele>601.0</ele><time>2026-05-01T09:37:27.247Z</time></trkpt><trkpt lat="43.852621" lon="11.9004852"><ele>596.0</ele><time>2026-05-01T09:37:28.248Z</time></trkpt><trkpt lat="43.852614" lon="11.9003503"><ele>591.0</ele><time>2026-05-01T09:37:29.257Z</time></trkpt><trkpt lat="43.8525802" lon="11.9002206"><ele>586.0</ele><time>2026-05-01T09:37:30.244Z</time></trkpt><trkpt lat="43.8525999" lon="11.9001185"><ele>581.0</ele><time>2026-05-01T09:37:31.252Z</time></trkpt><trkpt lat="43.8526112" lon="11.9000182"><ele>579.2</ele><time>2026-05-01T09:37:32.255Z</time></trkpt><trkpt lat="43.8526714" lon="11.8999753"><ele>577.4000000000001</ele><time>2026-05-01T09:37:33.256Z</time></trkpt><trkpt lat="43.8527076" lon="11.8998916"><ele>575.6</ele><time>2026-05-01T09:37:34.256Z</time></trkpt><trkpt lat="43.8528262" lon="11.8999197"><ele>573.8000000000001</ele><time>2026-05-01T09:37:37.241Z</time></trkpt><trkpt lat="43.8529372" lon="11.9001161"><ele>572.0</ele><time>2026-05-01T09:37:38.258Z</time></trkpt><trkpt lat="43.8530012" lon="11.900224"><ele>580.0</ele><time>2026-05-01T09:37:39.242Z</time></trkpt><trkpt lat="43.8531159" lon="11.9002947"><ele>588.0</ele><time>2026-05-01T09:37:41.255Z</time></trkpt><trkpt lat="43.8532157" lon="11.90016"><ele>596.0</ele><time>2026-05-01T09:37:42.256Z</time></trkpt><trkpt lat="43.8532849" lon="11.9001119"><ele>604.0</ele><time>2026-05-01T09:37:43.256Z</time></trkpt><trkpt lat="43.8534545" lon="11.9000879"><ele>599.0</ele><time>2026-05-01T09:37:44.246Z</time></trkpt><trkpt lat="43.85358" lon="11.9000812"><ele>594.0</ele><time>2026-05-01T09:37:45.256Z</time></trkpt><trkpt lat="43.8537027" lon="11.9000632"><ele>589.0</ele><time>2026-05-01T09:37:46.242Z</time></trkpt><trkpt lat="43.8538093" lon="11.9000316"><ele>584.0</ele><time>2026-05-01T09:37:47.253Z</time></trkpt><trkpt lat="43.8539199" lon="11.8999602"><ele>584.0</ele><time>2026-05-01T09:37:48.243Z</time></trkpt><trkpt lat="43.8540638" lon="11.899935"><ele>584.0</ele><time>2026-05-01T09:37:49.255Z</time></trkpt><trkpt lat="43.8541409" lon="11.8999511"><ele>584.0</ele><time>2026-05-01T09:37:50.256Z</time></trkpt><trkpt lat="43.8542141" lon="11.8999545"><ele>584.0</ele><time>2026-05-01T09:37:51.244Z</time></trkpt><trkpt lat="43.854314" lon="11.8999224"><ele>584.0</ele><time>2026-05-01T09:37:52.256Z</time></trkpt><trkpt lat="43.854372" lon="11.8998384"><ele>583.6</ele><time>2026-05-01T09:37:53.256Z</time></trkpt><trkpt lat="43.8544407" lon="11.8997776"><ele>583.2</ele><time>2026-05-01T09:37:54.255Z</time></trkpt><trkpt lat="43.8544928" lon="11.899612"><ele>582.8000000000001</ele><time>2026-05-01T09:37:55.243Z</time></trkpt><trkpt lat="43.8545442" lon="11.8994842"><ele>582.4</ele><time>2026-05-01T09:37:56.243Z</time></trkpt><trkpt lat="43.8545918" lon="11.8993369"><ele>582.0</ele><time>2026-05-01T09:37:57.255Z</time></trkpt><trkpt lat="43.8546092" lon="11.8991748"><ele>582.0</ele><time>2026-05-01T09:37:59.241Z</time></trkpt><trkpt lat="43.8547264" lon="11.8992299"><ele>582.0</ele><time>2026-05-01T09:38:00.259Z</time></trkpt><trkpt lat="43.854805" lon="11.8991996"><ele>582.0</ele><time>2026-05-01T09:38:01.257Z</time></trkpt><trkpt lat="43.8549345" lon="11.8992631"><ele>582.0</ele><time>2026-05-01T09:38:02.248Z</time></trkpt><trkpt lat="43.8550542" lon="11.8992787"><ele>587.5</ele><time>2026-05-01T09:38:03.245Z</time></trkpt><trkpt lat="43.8551435" lon="11.8992746"><ele>593.0</ele><time>2026-05-01T09:38:04.254Z</time></trkpt><trkpt lat="43.8552466" lon="11.899279"><ele>598.5</ele><time>2026-05-01T09:38:05.256Z</time></trkpt><trkpt lat="43.8553331" lon="11.8992964"><ele>604.0</ele><time>2026-05-01T09:38:06.258Z</time></trkpt><trkpt lat="43.8554175" lon="11.8992546"><ele>609.5</ele><time>2026-05-01T09:38:07.257Z</time></trkpt><trkpt lat="43.8554464" lon="11.899153"><ele>615.0</ele><time>2026-05-01T09:38:08.257Z</time></trkpt><trkpt lat="43.8554842" lon="11.8990265"><ele>615.0</ele><time>2026-05-01T09:38:09.244Z</time></trkpt><trkpt lat="43.8554634" lon="11.8988714"><ele>615.0</ele><time>2026-05-01T09:38:10.246Z</time></trkpt><trkpt lat="43.8554778" lon="11.8987572"><ele>615.0</ele><time>2026-05-01T09:38:11.257Z</time></trkpt><trkpt lat="43.8555267" lon="11.8985827"><ele>615.0</ele><time>2026-05-01T09:38:13.252Z</time></trkpt><trkpt lat="43.8555358" lon="11.8984639"><ele>615.0</ele><time>2026-05-01T09:38:14.243Z</time></trkpt><trkpt lat="43.8555735" lon="11.898376"><ele>613.2</ele><time>2026-05-01T09:38:15.26Z</time></trkpt><trkpt lat="43.8555728" lon="11.8982508"><ele>611.4</ele><time>2026-05-01T09:38:16.257Z</time></trkpt><trkpt lat="43.855559" lon="11.8980813"><ele>609.6</ele><time>2026-05-01T09:38:17.241Z</time></trkpt><trkpt lat="43.8555875" lon="11.8979213"><ele>607.8</ele><time>2026-05-01T09:38:19.243Z</time></trkpt><trkpt lat="43.855592" lon="11.8978306"><ele>606.0</ele><time>2026-05-01T09:38:20.256Z</time></trkpt><trkpt lat="43.8556382" lon="11.8977319"><ele>606.0</ele><time>2026-05-01T09:38:21.252Z</time></trkpt><trkpt lat="43.8556779" lon="11.8976521"><ele>606.0</ele><time>2026-05-01T09:38:22.251Z</time></trkpt><trkpt lat="43.8557259" lon="11.8975562"><ele>606.0</ele><time>2026-05-01T09:38:23.247Z</time></trkpt><trkpt lat="43.8557863" lon="11.8974779"><ele>606.0</ele><time>2026-05-01T09:38:25.245Z</time></trkpt><trkpt lat="43.8558872" lon="11.8974752"><ele>606.0</ele><time>2026-05-01T09:38:27.241Z</time></trkpt><trkpt lat="43.8559666" lon="11.897501"><ele>606.0</ele><time>2026-05-01T09:38:28.256Z</time></trkpt><trkpt lat="43.8560929" lon="11.897362"><ele>612.0</ele><time>2026-05-01T09:38:31.252Z</time></trkpt><trkpt lat="43.8562096" lon="11.8972818"><ele>618.0</ele><time>2026-05-01T09:38:33.248Z</time></trkpt><trkpt lat="43.856301" lon="11.8971672"><ele>624.0</ele><time>2026-05-01T09:38:34.245Z</time></trkpt><trkpt lat="43.8563117" lon="11.8970106"><ele>630.0</ele><time>2026-05-01T09:38:35.254Z</time></trkpt><trkpt lat="43.8563449" lon="11.8968647"><ele>630.0</ele><time>2026-05-01T09:38:36.256Z</time></trkpt><trkpt lat="43.8563942" lon="11.8967636"><ele>630.0</ele><time>2026-05-01T09:38:37.254Z</time></trkpt><trkpt lat="43.8563925" lon="11.896615"><ele>630.0</ele><time>2026-05-01T09:38:38.251Z</time></trkpt><trkpt lat="43.8564165" lon="11.8964931"><ele>630.0</ele><time>2026-05-01T09:38:39.245Z</time></trkpt><trkpt lat="43.8564097" lon="11.896336"><ele>630.0</ele><time>2026-05-01T09:38:40.24Z</time></trkpt><trkpt lat="43.8564719" lon="11.8961912"><ele>627.0</ele><time>2026-05-01T09:38:42.257Z</time></trkpt><trkpt lat="43.8565441" lon="11.8962017"><ele>624.0</ele><time>2026-05-01T09:38:43.244Z</time></trkpt><trkpt lat="43.8566438" lon="11.8961681"><ele>621.0</ele><time>2026-05-01T09:38:45.255Z</time></trkpt><trkpt lat="43.8567151" lon="11.8961556"><ele>618.0</ele><time>2026-05-01T09:38:48.241Z</time></trkpt><trkpt lat="43.8567863" lon="11.8962119"><ele>615.0</ele><time>2026-05-01T09:40:56.243Z</time></trkpt><trkpt lat="43.8568988" lon="11.8964377"><ele>613.2</ele><time>2026-05-01T09:40:58.254Z</time></trkpt><trkpt lat="43.8569502" lon="11.8965309"><ele>611.4</ele><time>2026-05-01T09:40:59.255Z</time></trkpt><trkpt lat="43.8570082" lon="11.8965985"><ele>609.6</ele><time>2026-05-01T09:41:00.253Z</time></trkpt><trkpt lat="43.8570865" lon="11.8966785"><ele>607.8</ele><time>2026-05-01T09:41:01.245Z</time></trkpt><trkpt lat="43.8571735" lon="11.89672"><ele>606.0</ele><time>2026-05-01T09:41:02.256Z</time></trkpt><trkpt lat="43.8572777" lon="11.8968109"><ele>614.5</ele><time>2026-05-01T09:41:03.252Z</time></trkpt><trkpt lat="43.8573734" lon="11.8968685"><ele>623.0</ele><time>2026-05-01T09:41:04.247Z</time></trkpt><trkpt lat="43.8574963" lon="11.8968871"><ele>631.5</ele><time>2026-05-01T09:41:05.257Z</time></trkpt><trkpt lat="43.8576132" lon="11.8968937"><ele>640.0</ele><time>2026-05-01T09:41:06.257Z</time></trkpt><trkpt lat="43.8577316" lon="11.8968953"><ele>640.0</ele><time>2026-05-01T09:41:07.256Z</time></trkpt><trkpt lat="43.8578529" lon="11.8969381"><ele>640.0</ele><time>2026-05-01T09:41:08.246Z</time></trkpt><trkpt lat="43.8579756" lon="11.8969554"><ele>640.0</ele><time>2026-05-01T09:41:09.256Z</time></trkpt><trkpt lat="43.8580923" lon="11.8969606"><ele>640.0</ele><time>2026-05-01T09:41:10.246Z</time></trkpt><trkpt lat="43.8581636" lon="11.8969516"><ele>640.0</ele><time>2026-05-01T09:41:11.25Z</time></trkpt><trkpt lat="43.8582635" lon="11.8969911"><ele>640.0</ele><time>2026-05-01T09:41:12.248Z</time></trkpt><trkpt lat="43.8583537" lon="11.8970359"><ele>640.0</ele><time>2026-05-01T09:41:14.255Z</time></trkpt><trkpt lat="43.8584207" lon="11.8971737"><ele>640.0</ele><time>2026-05-01T09:41:15.257Z</time></trkpt><trkpt lat="43.858497" lon="11.8972538"><ele>640.0</ele><time>2026-05-01T09:41:16.257Z</time></trkpt><trkpt lat="43.8585405" lon="11.897327"><ele>640.0</ele><time>2026-05-01T09:41:17.251Z</time></trkpt><trkpt lat="43.8586535" lon="11.8973377"><ele>636.8</ele><time>2026-05-01T09:41:18.256Z</time></trkpt><trkpt lat="43.8587372" lon="11.8973467"><ele>633.6</ele><time>2026-05-01T09:41:19.246Z</time></trkpt><trkpt lat="43.8588086" lon="11.8973514"><ele>630.4</ele><time>2026-05-01T09:41:20.256Z</time></trkpt><trkpt lat="43.8588919" lon="11.8973594"><ele>627.2</ele><time>2026-05-01T09:41:21.256Z</time></trkpt><trkpt lat="43.8590798" lon="11.8972999"><ele>624.0</ele><time>2026-05-01T09:41:23.247Z</time></trkpt><trkpt lat="43.8591912" lon="11.8972794"><ele>624.0</ele><time>2026-05-01T09:41:24.256Z</time></trkpt><trkpt lat="43.859253" lon="11.8972604"><ele>624.0</ele><time>2026-05-01T09:41:25.243Z</time></trkpt><trkpt lat="43.8593331" lon="11.8972473"><ele>624.0</ele><time>2026-05-01T09:41:26.25Z</time></trkpt><trkpt lat="43.8594692" lon="11.8973185"><ele>624.0</ele><time>2026-05-01T09:41:28.256Z</time></trkpt><trkpt lat="43.8595648" lon="11.8973383"><ele>624.0</ele><time>2026-05-01T09:41:29.243Z</time></trkpt><trkpt lat="43.8596581" lon="11.8973611"><ele>624.3333333333334</ele><time>2026-05-01T09:41:30.243Z</time></trkpt><trkpt lat="43.8597165" lon="11.8974282"><ele>624.6666666666666</ele><time>2026-05-01T09:41:31.254Z</time></trkpt><trkpt lat="43.8597819" lon="11.8974621"><ele>625.0</ele><time>2026-05-01T09:41:32.245Z</time></trkpt><trkpt lat="43.859843" lon="11.8975136"><ele>625.3333333333333</ele><time>2026-05-01T09:41:33.251Z</time></trkpt><trkpt lat="43.8599105" lon="11.8975297"><ele>625.6666666666666</ele><time>2026-05-01T09:41:35.241Z</time></trkpt><trkpt lat="43.8599745" lon="11.897464"><ele>626.0</ele><time>2026-05-01T09:41:37.259Z</time></trkpt><trkpt lat="43.8599906" lon="11.8973166"><ele>626.0</ele><time>2026-05-01T09:41:39.259Z</time></trkpt><trkpt lat="43.8600255" lon="11.8972128"><ele>626.0</ele><time>2026-05-01T09:41:40.26Z</time></trkpt><trkpt lat="43.8600485" lon="11.8971276"><ele>626.0</ele><time>2026-05-01T09:41:41.254Z</time></trkpt><trkpt lat="43.860045" lon="11.89698"><ele>626.0</ele><time>2026-05-01T09:41:42.258Z</time></trkpt><trkpt lat="43.8600424" lon="11.8968745"><ele>626.0</ele><time>2026-05-01T09:41:43.269Z</time></trkpt><trkpt lat="43.8600525" lon="11.896783"><ele>626.0</ele><time>2026-05-01T09:41:44.249Z</time></trkpt><trkpt lat="43.8600468" lon="11.8966739"><ele>624.0</ele><time>2026-05-01T09:41:45.258Z</time></trkpt><trkpt lat="43.8600862" lon="11.8965811"><ele>622.0</ele><time>2026-05-01T09:41:46.257Z</time></trkpt><trkpt lat="43.8601673" lon="11.8964054"><ele>620.0</ele><time>2026-05-01T09:41:48.26Z</time></trkpt><trkpt lat="43.860198" lon="11.896285"><ele>618.0</ele><time>2026-05-01T09:41:49.242Z</time></trkpt><trkpt lat="43.8603145" lon="11.8961904"><ele>618.0</ele><time>2026-05-01T09:41:50.241Z</time></trkpt><trkpt lat="43.8603933" lon="11.8961192"><ele>618.0</ele><time>2026-05-01T09:41:51.255Z</time></trkpt><trkpt lat="43.8604598" lon="11.89606"><ele>618.0</ele><time>2026-05-01T09:41:52.242Z</time></trkpt><trkpt lat="43.860528" lon="11.8959969"><ele>618.0</ele><time>2026-05-01T09:41:53.256Z</time></trkpt><trkpt lat="43.860598" lon="11.8959729"><ele>618.0</ele><time>2026-05-01T09:41:54.244Z</time></trkpt><trkpt lat="43.8606966" lon="11.8959632"><ele>618.0</ele><time>2026-05-01T09:41:55.253Z</time></trkpt><trkpt lat="43.8608187" lon="11.895897"><ele>615.0</ele><time>2026-05-01T09:41:56.241Z</time></trkpt><trkpt lat="43.8608802" lon="11.8958022"><ele>612.0</ele><time>2026-05-01T09:41:57.255Z</time></trkpt><trkpt lat="43.8609467" lon="11.8957427"><ele>609.0</ele><time>2026-05-01T09:41:58.256Z</time></trkpt><trkpt lat="43.8610051" lon="11.8956625"><ele>606.0</ele><time>2026-05-01T09:41:59.256Z</time></trkpt><trkpt lat="43.8611429" lon="11.8956034"><ele>603.0</ele><time>2026-05-01T09:42:01.256Z</time></trkpt><trkpt lat="43.8612243" lon="11.8955815"><ele>603.0</ele><time>2026-05-01T09:42:02.247Z</time></trkpt><trkpt lat="43.861347" lon="11.8955787"><ele>603.0</ele><time>2026-05-01T09:42:03.256Z</time></trkpt><trkpt lat="43.8614361" lon="11.8955458"><ele>603.0</ele><time>2026-05-01T09:42:04.256Z</time></trkpt><trkpt lat="43.8615459" lon="11.8955285"><ele>603.0</ele><time>2026-05-01T09:42:05.259Z</time></trkpt><trkpt lat="43.8616303" lon="11.8954975"><ele>603.0</ele><time>2026-05-01T09:42:06.259Z</time></trkpt><trkpt lat="43.861729" lon="11.8954473"><ele>602.4</ele><time>2026-05-01T09:42:07.255Z</time></trkpt><trkpt lat="43.8618048" lon="11.8953873"><ele>601.8</ele><time>2026-05-01T09:42:08.245Z</time></trkpt><trkpt lat="43.8619131" lon="11.8953081"><ele>601.2</ele><time>2026-05-01T09:42:10.245Z</time></trkpt><trkpt lat="43.8620131" lon="11.8953881"><ele>600.6</ele><time>2026-05-01T09:42:12.257Z</time></trkpt><trkpt lat="43.8621271" lon="11.8954337"><ele>600.0</ele><time>2026-05-01T09:42:14.251Z</time></trkpt><trkpt lat="43.8622375" lon="11.8955203"><ele>600.0</ele><time>2026-05-01T09:42:16.258Z</time></trkpt><trkpt lat="43.8623189" lon="11.8955522"><ele>600.0</ele><time>2026-05-01T09:42:17.253Z</time></trkpt><trkpt lat="43.8623839" lon="11.8955745"><ele>600.0</ele><time>2026-05-01T09:42:18.268Z</time></trkpt><trkpt lat="43.8626402" lon="11.8954719"><ele>600.0</ele><time>2026-05-01T09:42:20.256Z</time></trkpt><trkpt lat="43.8626994" lon="11.895429"><ele>600.6666666666666</ele><time>2026-05-01T09:42:21.254Z</time></trkpt><trkpt lat="43.8627803" lon="11.8953207"><ele>601.3333333333334</ele><time>2026-05-01T09:42:22.247Z</time></trkpt><trkpt lat="43.8628475" lon="11.8952684"><ele>602.0</ele><time>2026-05-01T09:42:23.24Z</time></trkpt><trkpt lat="43.8628934" lon="11.8951963"><ele>602.6666666666667</ele><time>2026-05-01T09:42:24.25Z</time></trkpt><trkpt lat="43.863003" lon="11.8951874"><ele>603.3333333333334</ele><time>2026-05-01T09:42:25.246Z</time></trkpt><trkpt lat="43.8630639" lon="11.8951225"><ele>604.0</ele><time>2026-05-01T09:42:26.256Z</time></trkpt><trkpt lat="43.8631428" lon="11.8950779"><ele>598.2</ele><time>2026-05-01T09:42:27.246Z</time></trkpt><trkpt lat="43.8632129" lon="11.8949973"><ele>592.4</ele><time>2026-05-01T09:42:28.256Z</time></trkpt><trkpt lat="43.8632981" lon="11.8949074"><ele>586.6</ele><time>2026-05-01T09:42:29.242Z</time></trkpt><trkpt lat="43.8632806" lon="11.8947893"><ele>580.8</ele><time>2026-05-01T09:42:30.256Z</time></trkpt><trkpt lat="43.8632809" lon="11.8946863"><ele>575.0</ele><time>2026-05-01T09:42:31.243Z</time></trkpt><trkpt lat="43.8633291" lon="11.8945522"><ele>575.0</ele><time>2026-05-01T09:42:32.243Z</time></trkpt><trkpt lat="43.8633994" lon="11.8945195"><ele>575.0</ele><time>2026-05-01T09:42:34.255Z</time></trkpt><trkpt lat="43.8635048" lon="11.8945245"><ele>575.0</ele><time>2026-05-01T09:42:35.244Z</time></trkpt><trkpt lat="43.8635702" lon="11.8945313"><ele>575.0</ele><time>2026-05-01T09:42:36.243Z</time></trkpt><trkpt lat="43.863651" lon="11.8945157"><ele>575.0</ele><time>2026-05-01T09:42:37.244Z</time></trkpt><trkpt lat="43.8637285" lon="11.894439"><ele>575.0</ele><time>2026-05-01T09:42:38.243Z</time></trkpt><trkpt lat="43.8638395" lon="11.8944744"><ele>574.0</ele><time>2026-05-01T09:42:39.256Z</time></trkpt><trkpt lat="43.8639362" lon="11.8944841"><ele>573.0</ele><time>2026-05-01T09:42:40.264Z</time></trkpt><trkpt lat="43.8640829" lon="11.8945315"><ele>572.0</ele><time>2026-05-01T09:42:42.251Z</time></trkpt><trkpt lat="43.864172" lon="11.8945279"><ele>571.0</ele><time>2026-05-01T09:42:43.246Z</time></trkpt><trkpt lat="43.8642477" lon="11.8945211"><ele>570.0</ele><time>2026-05-01T09:42:44.255Z</time></trkpt><trkpt lat="43.8643699" lon="11.8945403"><ele>570.0</ele><time>2026-05-01T09:42:45.242Z</time></trkpt><trkpt lat="43.8644523" lon="11.8945806"><ele>570.0</ele><time>2026-05-01T09:42:46.243Z</time></trkpt><trkpt lat="43.8645778" lon="11.8945293"><ele>570.0</ele><time>2026-05-01T09:42:47.256Z</time></trkpt><trkpt lat="43.8646812" lon="11.8944999"><ele>570.0</ele><time>2026-05-01T09:42:48.24Z</time></trkpt><trkpt lat="43.864806" lon="11.8945394"><ele>570.0</ele><time>2026-05-01T09:42:49.247Z</time></trkpt><trkpt lat="43.8649167" lon="11.8945745"><ele>570.0</ele><time>2026-05-01T09:42:50.243Z</time></trkpt><trkpt lat="43.8650111" lon="11.8945971"><ele>570.0</ele><time>2026-05-01T09:42:51.254Z</time></trkpt><trkpt lat="43.8651065" lon="11.8946559"><ele>570.0</ele><time>2026-05-01T09:42:52.242Z</time></trkpt><trkpt lat="43.8651993" lon="11.8946857"><ele>570.0</ele><time>2026-05-01T09:42:53.256Z</time></trkpt><trkpt lat="43.8653025" lon="11.8946787"><ele>569.0</ele><time>2026-05-01T09:42:54.25Z</time></trkpt><trkpt lat="43.8653835" lon="11.8947795"><ele>568.0</ele><time>2026-05-01T09:42:55.242Z</time></trkpt><trkpt lat="43.865494" lon="11.8948565"><ele>567.0</ele><time>2026-05-01T09:42:56.254Z</time></trkpt><trkpt lat="43.8655834" lon="11.8949107"><ele>566.0</ele><time>2026-05-01T09:42:57.254Z</time></trkpt><trkpt lat="43.8656563" lon="11.8948819"><ele>565.0</ele><time>2026-05-01T09:42:58.245Z</time></trkpt><trkpt lat="43.865736" lon="11.8948933"><ele>565.0</ele><time>2026-05-01T09:42:59.243Z</time></trkpt><trkpt lat="43.8658301" lon="11.894866"><ele>565.0</ele><time>2026-05-01T09:43:00.255Z</time></trkpt><trkpt lat="43.8659234" lon="11.8948351"><ele>565.0</ele><time>2026-05-01T09:43:01.239Z</time></trkpt><trkpt lat="43.8660685" lon="11.8947766"><ele>565.0</ele><time>2026-05-01T09:43:03.254Z</time></trkpt><trkpt lat="43.8661553" lon="11.8947417"><ele>565.0</ele><time>2026-05-01T09:43:04.255Z</time></trkpt><trkpt lat="43.8662483" lon="11.8946062"><ele>567.2</ele><time>2026-05-01T09:43:05.255Z</time></trkpt><trkpt lat="43.8663255" lon="11.8945135"><ele>569.4</ele><time>2026-05-01T09:43:06.243Z</time></trkpt><trkpt lat="43.8663765" lon="11.894366"><ele>571.6</ele><time>2026-05-01T09:43:07.247Z</time></trkpt><trkpt lat="43.866431" lon="11.8942701"><ele>573.8</ele><time>2026-05-01T09:43:08.256Z</time></trkpt><trkpt lat="43.8664838" lon="11.8941856"><ele>576.0</ele><time>2026-05-01T09:43:09.24Z</time></trkpt><trkpt lat="43.8665565" lon="11.894088"><ele>570.8</ele><time>2026-05-01T09:43:10.247Z</time></trkpt><trkpt lat="43.8666197" lon="11.8940534"><ele>565.6</ele><time>2026-05-01T09:43:11.25Z</time></trkpt><trkpt lat="43.8666779" lon="11.8939585"><ele>560.4</ele><time>2026-05-01T09:43:12.253Z</time></trkpt><trkpt lat="43.8667538" lon="11.8938426"><ele>555.2</ele><time>2026-05-01T09:43:14.24Z</time></trkpt><trkpt lat="43.8666517" lon="11.8937426"><ele>550.0</ele><time>2026-05-01T09:43:16.24Z</time></trkpt><trkpt lat="43.8665615" lon="11.8937166"><ele>550.0</ele><time>2026-05-01T09:43:18.245Z</time></trkpt><trkpt lat="43.8665176" lon="11.8937826"><ele>550.0</ele><time>2026-05-01T09:43:20.257Z</time></trkpt><trkpt lat="43.8664695" lon="11.8938586"><ele>550.0</ele><time>2026-05-01T09:43:21.256Z</time></trkpt><trkpt lat="43.8663935" lon="11.8939619"><ele>550.0</ele><time>2026-05-01T09:43:22.26Z</time></trkpt><trkpt lat="43.8663389" lon="11.8940375"><ele>550.0</ele><time>2026-05-01T09:43:23.258Z</time></trkpt><trkpt lat="43.8662658" lon="11.8941294"><ele>550.0</ele><time>2026-05-01T09:43:24.267Z</time></trkpt><trkpt lat="43.8661908" lon="11.8941826"><ele>553.0</ele><time>2026-05-01T09:43:25.25Z</time></trkpt><trkpt lat="43.8661235" lon="11.8942627"><ele>556.0</ele><time>2026-05-01T09:43:26.242Z</time></trkpt><trkpt lat="43.8660535" lon="11.8942969"><ele>559.0</ele><time>2026-05-01T09:43:27.239Z</time></trkpt><trkpt lat="43.8659304" lon="11.8943532"><ele>562.0</ele><time>2026-05-01T09:43:29.254Z</time></trkpt><trkpt lat="43.8658459" lon="11.8944333"><ele>565.0</ele><time>2026-05-01T09:43:31.263Z</time></trkpt><trkpt lat="43.8657353" lon="11.8943961"><ele>565.0</ele><time>2026-05-01T09:43:34.244Z</time></trkpt><trkpt lat="43.8658006" lon="11.8942982"><ele>565.0</ele><time>2026-05-01T09:43:36.239Z</time></trkpt><trkpt lat="43.8658497" lon="11.8942008"><ele>565.0</ele><time>2026-05-01T09:43:39.246Z</time></trkpt><trkpt lat="43.8659445" lon="11.8940573"><ele>565.0</ele><time>2026-05-01T09:43:41.255Z</time></trkpt><trkpt lat="43.8660629" lon="11.8939259"><ele>562.0</ele><time>2026-05-01T09:43:42.254Z</time></trkpt><trkpt lat="43.8661141" lon="11.8938593"><ele>559.0</ele><time>2026-05-01T09:43:43.262Z</time></trkpt><trkpt lat="43.8662048" lon="11.8936229"><ele>556.0</ele><time>2026-05-01T09:43:44.244Z</time></trkpt><trkpt lat="43.8662589" lon="11.8935429"><ele>553.0</ele><time>2026-05-01T09:43:45.254Z</time></trkpt><trkpt lat="43.8663088" lon="11.8934531"><ele>550.0</ele><time>2026-05-01T09:43:46.243Z</time></trkpt><trkpt lat="43.8663436" lon="11.8933708"><ele>544.6</ele><time>2026-05-01T09:43:47.253Z</time></trkpt><trkpt lat="43.8664331" lon="11.8932251"><ele>539.2</ele><time>2026-05-01T09:43:49.255Z</time></trkpt><trkpt lat="43.866478" lon="11.8931541"><ele>533.8</ele><time>2026-05-01T09:43:50.247Z</time></trkpt><trkpt lat="43.8665199" lon="11.8930829"><ele>528.4</ele><time>2026-05-01T09:43:51.255Z</time></trkpt><trkpt lat="43.8666178" lon="11.8930031"><ele>523.0</ele><time>2026-05-01T09:43:53.256Z</time></trkpt><trkpt lat="43.866671" lon="11.8929483"><ele>519.8</ele><time>2026-05-01T09:43:54.253Z</time></trkpt><trkpt lat="43.86678" lon="11.8928824"><ele>516.5999999999999</ele><time>2026-05-01T09:43:56.254Z</time></trkpt><trkpt lat="43.8668386" lon="11.8929912"><ele>513.4000000000001</ele><time>2026-05-01T09:43:57.247Z</time></trkpt><trkpt lat="43.8669161" lon="11.89311"><ele>510.20000000000005</ele><time>2026-05-01T09:43:58.242Z</time></trkpt><trkpt lat="43.8669981" lon="11.8932092"><ele>507.0</ele><time>2026-05-01T09:43:59.247Z</time></trkpt><trkpt lat="43.867064" lon="11.8932783"><ele>507.0</ele><time>2026-05-01T09:44:00.242Z</time></trkpt><trkpt lat="43.8671366" lon="11.8933295"><ele>507.00000000000006</ele><time>2026-05-01T09:44:01.256Z</time></trkpt><trkpt lat="43.8672062" lon="11.8933793"><ele>507.00000000000006</ele><time>2026-05-01T09:44:02.252Z</time></trkpt><trkpt lat="43.8672833" lon="11.8934293"><ele>507.0</ele><time>2026-05-01T09:44:03.254Z</time></trkpt><trkpt lat="43.8673675" lon="11.8934696"><ele>507.0</ele><time>2026-05-01T09:44:04.254Z</time></trkpt><trkpt lat="43.8674751" lon="11.8935552"><ele>508.20000000000005</ele><time>2026-05-01T09:44:06.255Z</time></trkpt><trkpt lat="43.8675437" lon="11.8936014"><ele>509.40000000000003</ele><time>2026-05-01T09:44:07.245Z</time></trkpt><trkpt lat="43.8676732" lon="11.8936132"><ele>510.59999999999997</ele><time>2026-05-01T09:44:08.255Z</time></trkpt><trkpt lat="43.8677497" lon="11.8937182"><ele>511.79999999999995</ele><time>2026-05-01T09:44:09.243Z</time></trkpt><trkpt lat="43.8678108" lon="11.893818"><ele>513.0</ele><time>2026-05-01T09:44:10.258Z</time></trkpt><trkpt lat="43.8678854" lon="11.8938978"><ele>513.0</ele><time>2026-05-01T09:44:11.242Z</time></trkpt><trkpt lat="43.867952" lon="11.8939791"><ele>513.0</ele><time>2026-05-01T09:44:12.254Z</time></trkpt><trkpt lat="43.8680408" lon="11.8940301"><ele>513.0</ele><time>2026-05-01T09:44:13.252Z</time></trkpt><trkpt lat="43.8681255" lon="11.8940453"><ele>513.0</ele><time>2026-05-01T09:44:14.242Z</time></trkpt><trkpt lat="43.8682266" lon="11.8939456"><ele>513.0</ele><time>2026-05-01T09:44:15.248Z</time></trkpt><trkpt lat="43.8683143" lon="11.8939416"><ele>513.0</ele><time>2026-05-01T09:44:16.24Z</time></trkpt><trkpt lat="43.8683807" lon="11.8939762"><ele>513.0</ele><time>2026-05-01T09:44:17.241Z</time></trkpt><trkpt lat="43.8685205" lon="11.8940132"><ele>513.0</ele><time>2026-05-01T09:44:19.255Z</time></trkpt><trkpt lat="43.8685985" lon="11.8940218"><ele>513.0</ele><time>2026-05-01T09:44:20.252Z</time></trkpt><trkpt lat="43.8686957" lon="11.8940042"><ele>513.0</ele><time>2026-05-01T09:44:21.241Z</time></trkpt><trkpt lat="43.8687713" lon="11.8939595"><ele>513.8</ele><time>2026-05-01T09:44:22.258Z</time></trkpt><trkpt lat="43.8688437" lon="11.8939384"><ele>514.5999999999999</ele><time>2026-05-01T09:44:23.253Z</time></trkpt><trkpt lat="43.8689277" lon="11.8938704"><ele>515.4000000000001</ele><time>2026-05-01T09:44:24.248Z</time></trkpt><trkpt lat="43.8690079" lon="11.8937982"><ele>516.2</ele><time>2026-05-01T09:44:25.256Z</time></trkpt><trkpt lat="43.8690959" lon="11.8937327"><ele>517.0</ele><time>2026-05-01T09:44:26.244Z</time></trkpt><trkpt lat="43.8691742" lon="11.8936683"><ele>517.0</ele><time>2026-05-01T09:44:27.251Z</time></trkpt><trkpt lat="43.8692433" lon="11.8936003"><ele>517.0</ele><time>2026-05-01T09:44:28.252Z</time></trkpt><trkpt lat="43.8693056" lon="11.8935168"><ele>517.0</ele><time>2026-05-01T09:44:29.242Z</time></trkpt><trkpt lat="43.8693791" lon="11.8934463"><ele>517.0</ele><time>2026-05-01T09:44:31.25Z</time></trkpt><trkpt lat="43.86944" lon="11.8933849"><ele>517.0</ele><time>2026-05-01T09:44:33.242Z</time></trkpt><trkpt lat="43.8694692" lon="11.8932823"><ele>517.0</ele><time>2026-05-01T09:44:35.242Z</time></trkpt><trkpt lat="43.8695321" lon="11.893197"><ele>516.0</ele><time>2026-05-01T09:44:38.251Z</time></trkpt><trkpt lat="43.8695766" lon="11.8931211"><ele>515.0</ele><time>2026-05-01T09:44:40.254Z</time></trkpt><trkpt lat="43.8696345" lon="11.8930167"><ele>514.0</ele><time>2026-05-01T09:44:42.246Z</time></trkpt><trkpt lat="43.8697161" lon="11.8928365"><ele>513.0</ele><time>2026-05-01T09:44:44.254Z</time></trkpt><trkpt lat="43.869755" lon="11.8927421"><ele>512.0</ele><time>2026-05-01T09:44:45.243Z</time></trkpt><trkpt lat="43.8697859" lon="11.8926361"><ele>506.20000000000005</ele><time>2026-05-01T09:44:46.252Z</time></trkpt><trkpt lat="43.8698329" lon="11.8925593"><ele>500.40000000000003</ele><time>2026-05-01T09:44:47.243Z</time></trkpt><trkpt lat="43.8699016" lon="11.892525"><ele>494.59999999999997</ele><time>2026-05-01T09:44:48.243Z</time></trkpt><trkpt lat="43.8699937" lon="11.8924871"><ele>488.79999999999995</ele><time>2026-05-01T09:44:49.253Z</time></trkpt><trkpt lat="43.8701283" lon="11.8924931"><ele>483.0</ele><time>2026-05-01T09:44:50.254Z</time></trkpt><trkpt lat="43.8702477" lon="11.8924887"><ele>482.0</ele><time>2026-05-01T09:44:51.253Z</time></trkpt><trkpt lat="43.8703275" lon="11.8924567"><ele>481.0</ele><time>2026-05-01T09:44:52.243Z</time></trkpt><trkpt lat="43.8704027" lon="11.8924299"><ele>480.0</ele><time>2026-05-01T09:44:53.253Z</time></trkpt><trkpt lat="43.8704766" lon="11.8924094"><ele>479.0</ele><time>2026-05-01T09:44:54.255Z</time></trkpt><trkpt lat="43.8705453" lon="11.8923971"><ele>478.0</ele><time>2026-05-01T09:44:55.255Z</time></trkpt><trkpt lat="43.8706355" lon="11.8923989"><ele>477.0</ele><time>2026-05-01T09:44:56.24Z</time></trkpt><trkpt lat="43.8707731" lon="11.8924277"><ele>477.0</ele><time>2026-05-01T09:44:57.256Z</time></trkpt><trkpt lat="43.8708933" lon="11.8924728"><ele>477.00000000000006</ele><time>2026-05-01T09:44:58.255Z</time></trkpt><trkpt lat="43.8709966" lon="11.8925066"><ele>477.00000000000006</ele><time>2026-05-01T09:44:59.252Z</time></trkpt><trkpt lat="43.8710872" lon="11.8925533"><ele>477.0</ele><time>2026-05-01T09:45:00.252Z</time></trkpt><trkpt lat="43.871165" lon="11.8925773"><ele>477.0</ele><time>2026-05-01T09:45:01.253Z</time></trkpt><trkpt lat="43.871236" lon="11.8926183"><ele>475.8</ele><time>2026-05-01T09:45:02.257Z</time></trkpt><trkpt lat="43.8713169" lon="11.8926612"><ele>474.6</ele><time>2026-05-01T09:45:04.248Z</time></trkpt><trkpt lat="43.8713934" lon="11.8926203"><ele>473.40000000000003</ele><time>2026-05-01T09:45:08.248Z</time></trkpt><trkpt lat="43.8714716" lon="11.8925629"><ele>472.20000000000005</ele><time>2026-05-01T09:45:39.256Z</time></trkpt><trkpt lat="43.8715403" lon="11.8924398"><ele>471.0</ele><time>2026-05-01T09:45:40.248Z</time></trkpt><trkpt lat="43.8716561" lon="11.8923902"><ele>471.0</ele><time>2026-05-01T09:45:42.253Z</time></trkpt><trkpt lat="43.8717381" lon="11.892382"><ele>471.0</ele><time>2026-05-01T09:45:43.241Z</time></trkpt><trkpt lat="43.8718222" lon="11.8923928"><ele>471.0</ele><time>2026-05-01T09:45:44.239Z</time></trkpt><trkpt lat="43.8718919" lon="11.8924271"><ele>471.0</ele><time>2026-05-01T09:45:45.256Z</time></trkpt><trkpt lat="43.8719656" lon="11.8924473"><ele>471.0</ele><time>2026-05-01T09:45:46.254Z</time></trkpt><trkpt lat="43.872045" lon="11.8925061"><ele>471.0</ele><time>2026-05-01T09:45:47.251Z</time></trkpt><trkpt lat="43.8721038" lon="11.8925506"><ele>471.0</ele><time>2026-05-01T09:45:48.253Z</time></trkpt><trkpt lat="43.8721821" lon="11.8925746"><ele>471.0</ele><time>2026-05-01T09:45:49.243Z</time></trkpt><trkpt lat="43.8722519" lon="11.8926115"><ele>471.0</ele><time>2026-05-01T09:45:50.253Z</time></trkpt><trkpt lat="43.8723843" lon="11.8926534"><ele>471.0</ele><time>2026-05-01T09:45:52.244Z</time></trkpt><trkpt lat="43.8724603" lon="11.8926306"><ele>471.0</ele><time>2026-05-01T09:45:53.253Z</time></trkpt><trkpt lat="43.8725362" lon="11.8926437"><ele>471.0</ele><time>2026-05-01T09:45:54.249Z</time></trkpt><trkpt lat="43.8726055" lon="11.8926426"><ele>470.6</ele><time>2026-05-01T09:45:55.239Z</time></trkpt><trkpt lat="43.8726939" lon="11.8926733"><ele>470.20000000000005</ele><time>2026-05-01T09:45:56.254Z</time></trkpt><trkpt lat="43.8727622" lon="11.892686"><ele>469.79999999999995</ele><time>2026-05-01T09:45:57.24Z</time></trkpt><trkpt lat="43.8728709" lon="11.8926601"><ele>469.4</ele><time>2026-05-01T09:45:58.241Z</time></trkpt><trkpt lat="43.8729122" lon="11.8925842"><ele>469.0</ele><time>2026-05-01T09:45:59.241Z</time></trkpt><trkpt lat="43.8729526" lon="11.8924315"><ele>471.0</ele><time>2026-05-01T09:46:01.253Z</time></trkpt><trkpt lat="43.8729109" lon="11.8923212"><ele>473.0</ele><time>2026-05-01T09:46:03.245Z</time></trkpt><trkpt lat="43.872853" lon="11.8922413"><ele>475.0</ele><time>2026-05-01T09:46:04.24Z</time></trkpt><trkpt lat="43.872759" lon="11.8921498"><ele>477.0</ele><time>2026-05-01T09:46:05.258Z</time></trkpt><trkpt lat="43.8725579" lon="11.8921209"><ele>477.0</ele><time>2026-05-01T09:46:06.253Z</time></trkpt><trkpt lat="43.8724106" lon="11.8920886"><ele>477.0</ele><time>2026-05-01T09:46:07.253Z</time></trkpt><trkpt lat="43.8722957" lon="11.8920177"><ele>477.0</ele><time>2026-05-01T09:46:08.254Z</time></trkpt><trkpt lat="43.8722179" lon="11.8920041"><ele>477.0</ele><time>2026-05-01T09:46:09.254Z</time></trkpt><trkpt lat="43.8721346" lon="11.8919281"><ele>477.0</ele><time>2026-05-01T09:46:10.256Z</time></trkpt><trkpt lat="43.8720737" lon="11.8918653"><ele>477.00000000000006</ele><time>2026-05-01T09:46:11.258Z</time></trkpt><trkpt lat="43.8719978" lon="11.8917946"><ele>477.00000000000006</ele><time>2026-05-01T09:46:12.242Z</time></trkpt><trkpt lat="43.8719198" lon="11.8917048"><ele>477.0</ele><time>2026-05-01T09:46:13.242Z</time></trkpt><trkpt lat="43.8718446" lon="11.8916314"><ele>477.0</ele><time>2026-05-01T09:46:14.256Z</time></trkpt><trkpt lat="43.8717573" lon="11.8915579"><ele>480.0</ele><time>2026-05-01T09:46:15.256Z</time></trkpt><trkpt lat="43.8716546" lon="11.8915581"><ele>483.0</ele><time>2026-05-01T09:46:16.255Z</time></trkpt><trkpt lat="43.8715674" lon="11.8915382"><ele>486.0</ele><time>2026-05-01T09:46:17.245Z</time></trkpt><trkpt lat="43.8714828" lon="11.8915185"><ele>489.0</ele><time>2026-05-01T09:46:18.241Z</time></trkpt><trkpt lat="43.8714056" lon="11.8914607"><ele>492.0</ele><time>2026-05-01T09:46:19.253Z</time></trkpt><trkpt lat="43.8713251" lon="11.8914415"><ele>495.0</ele><time>2026-05-01T09:46:20.255Z</time></trkpt><trkpt lat="43.8712548" lon="11.891378"><ele>495.0</ele><time>2026-05-01T09:46:21.242Z</time></trkpt><trkpt lat="43.8711726" lon="11.8912541"><ele>495.0</ele><time>2026-05-01T09:46:22.255Z</time></trkpt><trkpt lat="43.8711088" lon="11.8911761"><ele>495.0</ele><time>2026-05-01T09:46:23.244Z</time></trkpt><trkpt lat="43.8710158" lon="11.8910902"><ele>495.0</ele><time>2026-05-01T09:46:24.245Z</time></trkpt><trkpt lat="43.8709544" lon="11.8909824"><ele>495.0</ele><time>2026-05-01T09:46:25.243Z</time></trkpt><trkpt lat="43.8708681" lon="11.8909156"><ele>498.0</ele><time>2026-05-01T09:46:26.257Z</time></trkpt><trkpt lat="43.8707851" lon="11.890848"><ele>501.0</ele><time>2026-05-01T09:46:27.243Z</time></trkpt><trkpt lat="43.8707239" lon="11.8907674"><ele>504.0</ele><time>2026-05-01T09:46:28.241Z</time></trkpt><trkpt lat="43.8706521" lon="11.8906958"><ele>507.0</ele><time>2026-05-01T09:46:29.255Z</time></trkpt><trkpt lat="43.8705903" lon="11.8906311"><ele>510.0</ele><time>2026-05-01T09:46:30.241Z</time></trkpt><trkpt lat="43.8705313" lon="11.8905573"><ele>513.0</ele><time>2026-05-01T09:46:31.246Z</time></trkpt><trkpt lat="43.8704604" lon="11.890482"><ele>513.0</ele><time>2026-05-01T09:46:32.255Z</time></trkpt><trkpt lat="43.8703609" lon="11.8905042"><ele>513.0</ele><time>2026-05-01T09:46:33.245Z</time></trkpt><trkpt lat="43.8702713" lon="11.8906317"><ele>513.0</ele><time>2026-05-01T09:46:34.256Z</time></trkpt><trkpt lat="43.8701976" lon="11.8906312"><ele>513.0</ele><time>2026-05-01T09:46:35.255Z</time></trkpt><trkpt lat="43.8701296" lon="11.8906568"><ele>513.0</ele><time>2026-05-01T09:46:36.246Z</time></trkpt><trkpt lat="43.8700632" lon="11.8906024"><ele>514.6666666666666</ele><time>2026-05-01T09:46:37.246Z</time></trkpt><trkpt lat="43.8699664" lon="11.8905377"><ele>516.3333333333334</ele><time>2026-05-01T09:46:38.244Z</time></trkpt><trkpt lat="43.8699113" lon="11.8904488"><ele>518.0</ele><time>2026-05-01T09:46:39.256Z</time></trkpt><trkpt lat="43.8698627" lon="11.8903596"><ele>519.6666666666667</ele><time>2026-05-01T09:46:40.257Z</time></trkpt><trkpt lat="43.8698102" lon="11.8902783"><ele>521.3333333333334</ele><time>2026-05-01T09:46:41.245Z</time></trkpt><trkpt lat="43.8697515" lon="11.8902031"><ele>523.0</ele><time>2026-05-01T09:46:42.257Z</time></trkpt><trkpt lat="43.8697442" lon="11.8900802"><ele>523.0</ele><time>2026-05-01T09:46:43.251Z</time></trkpt><trkpt lat="43.8697494" lon="11.8899299"><ele>523.0</ele><time>2026-05-01T09:46:44.241Z</time></trkpt><trkpt lat="43.8697372" lon="11.8897797"><ele>523.0</ele><time>2026-05-01T09:46:45.253Z</time></trkpt><trkpt lat="43.8697379" lon="11.8896419"><ele>523.0</ele><time>2026-05-01T09:46:46.253Z</time></trkpt><trkpt lat="43.8697398" lon="11.8895013"><ele>523.0</ele><time>2026-05-01T09:46:47.254Z</time></trkpt><trkpt lat="43.869729" lon="11.8893866"><ele>526.6</ele><time>2026-05-01T09:46:48.241Z</time></trkpt><trkpt lat="43.8697085" lon="11.889251"><ele>530.1999999999999</ele><time>2026-05-01T09:46:49.244Z</time></trkpt><trkpt lat="43.8695906" lon="11.8891755"><ele>533.8</ele><time>2026-05-01T09:46:50.253Z</time></trkpt><trkpt lat="43.8695248" lon="11.8890838"><ele>537.4</ele><time>2026-05-01T09:46:51.24Z</time></trkpt><trkpt lat="43.869449" lon="11.888979"><ele>541.0</ele><time>2026-05-01T09:46:52.25Z</time></trkpt><trkpt lat="43.8693807" lon="11.8888472"><ele>541.0</ele><time>2026-05-01T09:46:54.255Z</time></trkpt><trkpt lat="43.8693298" lon="11.8887572"><ele>541.0</ele><time>2026-05-01T09:46:55.254Z</time></trkpt><trkpt lat="43.8692725" lon="11.8885874"><ele>541.0</ele><time>2026-05-01T09:46:57.256Z</time></trkpt><trkpt lat="43.8692337" lon="11.8884866"><ele>541.0</ele><time>2026-05-01T09:46:58.256Z</time></trkpt><trkpt lat="43.8691997" lon="11.8883597"><ele>541.0</ele><time>2026-05-01T09:46:59.256Z</time></trkpt><trkpt lat="43.8691693" lon="11.888245"><ele>540.8333333333334</ele><time>2026-05-01T09:47:00.248Z</time></trkpt><trkpt lat="43.8691323" lon="11.8881328"><ele>540.6666666666667</ele><time>2026-05-01T09:47:01.253Z</time></trkpt><trkpt lat="43.8691211" lon="11.8880377"><ele>540.5</ele><time>2026-05-01T09:47:02.24Z</time></trkpt><trkpt lat="43.8690955" lon="11.8879194"><ele>540.3333333333334</ele><time>2026-05-01T09:47:03.241Z</time></trkpt><trkpt lat="43.8691203" lon="11.8877714"><ele>540.1666666666666</ele><time>2026-05-01T09:47:05.243Z</time></trkpt><trkpt lat="43.8691082" lon="11.8876676"><ele>540.0</ele><time>2026-05-01T09:47:06.24Z</time></trkpt><trkpt lat="43.8691387" lon="11.8875798"><ele>540.0</ele><time>2026-05-01T09:47:07.255Z</time></trkpt><trkpt lat="43.8691751" lon="11.8874305"><ele>540.0</ele><time>2026-05-01T09:47:08.25Z</time></trkpt><trkpt lat="43.8692424" lon="11.887285"><ele>540.0</ele><time>2026-05-01T09:47:10.24Z</time></trkpt><trkpt lat="43.8692656" lon="11.8871949"><ele>540.0</ele><time>2026-05-01T09:47:11.252Z</time></trkpt><trkpt lat="43.8692305" lon="11.887098"><ele>540.0</ele><time>2026-05-01T09:47:12.24Z</time></trkpt><trkpt lat="43.8691897" lon="11.8869672"><ele>540.0</ele><time>2026-05-01T09:47:14.239Z</time></trkpt><trkpt lat="43.8691642" lon="11.8868872"><ele>540.0</ele><time>2026-05-01T09:47:15.249Z</time></trkpt><trkpt lat="43.8690724" lon="11.8868578"><ele>540.0</ele><time>2026-05-01T09:47:16.256Z</time></trkpt><trkpt lat="43.8689939" lon="11.8867947"><ele>540.0</ele><time>2026-05-01T09:47:17.249Z</time></trkpt><trkpt lat="43.8689435" lon="11.8866995"><ele>540.0</ele><time>2026-05-01T09:47:18.251Z</time></trkpt><trkpt lat="43.8688681" lon="11.8866178"><ele>540.0</ele><time>2026-05-01T09:47:19.254Z</time></trkpt><trkpt lat="43.8688517" lon="11.8864625"><ele>542.4</ele><time>2026-05-01T09:47:20.24Z</time></trkpt><trkpt lat="43.868819" lon="11.8863577"><ele>544.8</ele><time>2026-05-01T09:47:21.252Z</time></trkpt><trkpt lat="43.8688102" lon="11.8861901"><ele>547.2</ele><time>2026-05-01T09:47:22.253Z</time></trkpt><trkpt lat="43.8688311" lon="11.8860623"><ele>549.6</ele><time>2026-05-01T09:47:23.242Z</time></trkpt><trkpt lat="43.8688354" lon="11.8859464"><ele>552.0</ele><time>2026-05-01T09:47:24.257Z</time></trkpt><trkpt lat="43.8688893" lon="11.8857974"><ele>553.0</ele><time>2026-05-01T09:47:26.241Z</time></trkpt><trkpt lat="43.8689651" lon="11.8858092"><ele>554.0</ele><time>2026-05-01T09:47:27.244Z</time></trkpt><trkpt lat="43.8690732" lon="11.8857526"><ele>555.0</ele><time>2026-05-01T09:47:29.252Z</time></trkpt><trkpt lat="43.8691504" lon="11.8857341"><ele>556.0</ele><time>2026-05-01T09:47:30.245Z</time></trkpt><trkpt lat="43.8692704" lon="11.8858263"><ele>557.0</ele><time>2026-05-01T09:47:31.256Z</time></trkpt><trkpt lat="43.8693457" lon="11.8860131"><ele>561.0</ele><time>2026-05-01T09:47:32.253Z</time></trkpt><trkpt lat="43.8694156" lon="11.8861633"><ele>565.0</ele><time>2026-05-01T09:47:33.246Z</time></trkpt><trkpt lat="43.8694827" lon="11.8862791"><ele>569.0</ele><time>2026-05-01T09:47:34.242Z</time></trkpt><trkpt lat="43.869552" lon="11.8863699"><ele>573.0</ele><time>2026-05-01T09:47:35.24Z</time></trkpt><trkpt lat="43.8695899" lon="11.8864853"><ele>577.0</ele><time>2026-05-01T09:47:36.248Z</time></trkpt><trkpt lat="43.8695579" lon="11.8867142"><ele>575.8333333333334</ele><time>2026-05-01T09:47:37.249Z</time></trkpt><trkpt lat="43.8695816" lon="11.8868363"><ele>574.6666666666667</ele><time>2026-05-01T09:47:38.246Z</time></trkpt><trkpt lat="43.8696327" lon="11.8869078"><ele>573.5</ele><time>2026-05-01T09:47:39.25Z</time></trkpt><trkpt lat="43.8696751" lon="11.8870104"><ele>572.3333333333334</ele><time>2026-05-01T09:47:40.239Z</time></trkpt><trkpt lat="43.869702" lon="11.8871157"><ele>571.1666666666666</ele><time>2026-05-01T09:47:41.243Z</time></trkpt><trkpt lat="43.869778" lon="11.8872399"><ele>570.0</ele><time>2026-05-01T09:47:42.241Z</time></trkpt><trkpt lat="43.8699063" lon="11.8873875"><ele>570.0</ele><time>2026-05-01T09:47:43.254Z</time></trkpt><trkpt lat="43.8699804" lon="11.8875099"><ele>570.0</ele><time>2026-05-01T09:47:44.254Z</time></trkpt><trkpt lat="43.8700442" lon="11.8876087"><ele>570.0</ele><time>2026-05-01T09:47:45.242Z</time></trkpt><trkpt lat="43.8701009" lon="11.8877286"><ele>570.0</ele><time>2026-05-01T09:47:46.241Z</time></trkpt><trkpt lat="43.8701691" lon="11.887817"><ele>570.0</ele><time>2026-05-01T09:47:47.239Z</time></trkpt><trkpt lat="43.870207" lon="11.8879216"><ele>570.0</ele><time>2026-05-01T09:47:48.253Z</time></trkpt><trkpt lat="43.8702415" lon="11.8880212"><ele>570.0</ele><time>2026-05-01T09:47:49.255Z</time></trkpt><trkpt lat="43.8703501" lon="11.8881415"><ele>570.0</ele><time>2026-05-01T09:47:51.241Z</time></trkpt><trkpt lat="43.8704066" lon="11.8882083"><ele>570.0</ele><time>2026-05-01T09:47:52.245Z</time></trkpt><trkpt lat="43.8704559" lon="11.8882685"><ele>570.0</ele><time>2026-05-01T09:47:53.253Z</time></trkpt><trkpt lat="43.8705189" lon="11.888343"><ele>570.0</ele><time>2026-05-01T09:47:54.253Z</time></trkpt><trkpt lat="43.8705828" lon="11.8884264"><ele>570.0</ele><time>2026-05-01T09:47:55.251Z</time></trkpt><trkpt lat="43.8706434" lon="11.8884923"><ele>570.0</ele><time>2026-05-01T09:47:56.254Z</time></trkpt><trkpt lat="43.8706629" lon="11.8885845"><ele>570.0</ele><time>2026-05-01T09:47:57.242Z</time></trkpt><trkpt lat="43.8707074" lon="11.8886615"><ele>570.0</ele><time>2026-05-01T09:47:58.243Z</time></trkpt><trkpt lat="43.8707485" lon="11.8887477"><ele>570.0</ele><time>2026-05-01T09:47:59.252Z</time></trkpt><trkpt lat="43.8707921" lon="11.8888282"><ele>570.0</ele><time>2026-05-01T09:48:00.253Z</time></trkpt><trkpt lat="43.8708828" lon="11.8887671"><ele>570.0</ele><time>2026-05-01T09:48:02.24Z</time></trkpt><trkpt lat="43.8709068" lon="11.8886453"><ele>570.0</ele><time>2026-05-01T09:48:05.245Z</time></trkpt><trkpt lat="43.8708708" lon="11.8885172"><ele>570.0</ele><time>2026-05-01T09:48:06.247Z</time></trkpt><trkpt lat="43.8708237" lon="11.8883974"><ele>570.0</ele><time>2026-05-01T09:48:07.242Z</time></trkpt><trkpt lat="43.8707745" lon="11.8882866"><ele>570.0</ele><time>2026-05-01T09:48:08.253Z</time></trkpt><trkpt lat="43.8707167" lon="11.888182"><ele>573.4</ele><time>2026-05-01T09:48:09.24Z</time></trkpt><trkpt lat="43.8706845" lon="11.8880676"><ele>576.8</ele><time>2026-05-01T09:48:10.255Z</time></trkpt><trkpt lat="43.8706558" lon="11.8879447"><ele>580.2</ele><time>2026-05-01T09:48:11.255Z</time></trkpt><trkpt lat="43.8706291" lon="11.8878008"><ele>583.6</ele><time>2026-05-01T09:48:12.242Z</time></trkpt><trkpt lat="43.8705944" lon="11.8876048"><ele>587.0</ele><time>2026-05-01T09:48:13.253Z</time></trkpt><trkpt lat="43.8705723" lon="11.8874428"><ele>589.2</ele><time>2026-05-01T09:48:14.244Z</time></trkpt><trkpt lat="43.8705641" lon="11.887301"><ele>591.4000000000001</ele><time>2026-05-01T09:48:15.257Z</time></trkpt><trkpt lat="43.8705694" lon="11.8871905"><ele>593.5999999999999</ele><time>2026-05-01T09:48:16.255Z</time></trkpt><trkpt lat="43.8705871" lon="11.8870644"><ele>595.8</ele><time>2026-05-01T09:48:17.249Z</time></trkpt><trkpt lat="43.8705825" lon="11.8869347"><ele>598.0</ele><time>2026-05-01T09:48:18.239Z</time></trkpt><trkpt lat="43.8705705" lon="11.8867952"><ele>600.1999999999999</ele><time>2026-05-01T09:48:19.255Z</time></trkpt><trkpt lat="43.8705538" lon="11.8866617"><ele>602.4</ele><time>2026-05-01T09:48:20.255Z</time></trkpt><trkpt lat="43.8705425" lon="11.8865149"><ele>604.5999999999999</ele><time>2026-05-01T09:48:21.255Z</time></trkpt><trkpt lat="43.8705288" lon="11.8863863"><ele>606.8</ele><time>2026-05-01T09:48:22.253Z</time></trkpt><trkpt lat="43.8705165" lon="11.8862617"><ele>609.0</ele><time>2026-05-01T09:48:23.256Z</time></trkpt><trkpt lat="43.8705121" lon="11.8861282"><ele>609.0</ele><time>2026-05-01T09:48:24.257Z</time></trkpt><trkpt lat="43.8705249" lon="11.8859933"><ele>609.0</ele><time>2026-05-01T09:48:25.256Z</time></trkpt><trkpt lat="43.8705556" lon="11.8858625"><ele>609.0</ele><time>2026-05-01T09:48:26.257Z</time></trkpt><trkpt lat="43.8705902" lon="11.8857306"><ele>609.0</ele><time>2026-05-01T09:48:27.254Z</time></trkpt><trkpt lat="43.8706415" lon="11.8855778"><ele>609.0</ele><time>2026-05-01T09:48:28.256Z</time></trkpt><trkpt lat="43.8706673" lon="11.8854035"><ele>610.2</ele><time>2026-05-01T09:48:29.257Z</time></trkpt><trkpt lat="43.8706878" lon="11.8852059"><ele>611.4</ele><time>2026-05-01T09:48:30.254Z</time></trkpt><trkpt lat="43.8707064" lon="11.8850289"><ele>612.6</ele><time>2026-05-01T09:48:31.253Z</time></trkpt><trkpt lat="43.8706716" lon="11.884931"><ele>613.8</ele><time>2026-05-01T09:48:32.252Z</time></trkpt><trkpt lat="43.8706407" lon="11.8848332"><ele>615.0</ele><time>2026-05-01T09:48:33.242Z</time></trkpt><trkpt lat="43.8705748" lon="11.8847285"><ele>619.0</ele><time>2026-05-01T09:48:34.243Z</time></trkpt><trkpt lat="43.8703923" lon="11.8846915"><ele>623.0</ele><time>2026-05-01T09:48:35.238Z</time></trkpt><trkpt lat="43.8702422" lon="11.8846442"><ele>627.0</ele><time>2026-05-01T09:48:36.254Z</time></trkpt><trkpt lat="43.8701281" lon="11.8846126"><ele>625.3333333333334</ele><time>2026-05-01T09:48:37.242Z</time></trkpt><trkpt lat="43.8700107" lon="11.8845931"><ele>623.6666666666666</ele><time>2026-05-01T09:48:38.255Z</time></trkpt><trkpt lat="43.8699535" lon="11.8845435"><ele>622.0</ele><time>2026-05-01T09:48:39.253Z</time></trkpt><trkpt lat="43.8699053" lon="11.8844748"><ele>620.3333333333333</ele><time>2026-05-01T09:48:40.24Z</time></trkpt><trkpt lat="43.8698849" lon="11.8843894"><ele>618.6666666666666</ele><time>2026-05-01T09:48:41.246Z</time></trkpt><trkpt lat="43.8698695" lon="11.8843007"><ele>617.0</ele><time>2026-05-01T09:48:42.247Z</time></trkpt><trkpt lat="43.869887" lon="11.8841276"><ele>617.0</ele><time>2026-05-01T09:48:44.242Z</time></trkpt><trkpt lat="43.869959" lon="11.8840136"><ele>617.0</ele><time>2026-05-01T09:48:45.256Z</time></trkpt><trkpt lat="43.8700079" lon="11.8839237"><ele>617.0</ele><time>2026-05-01T09:48:46.24Z</time></trkpt><trkpt lat="43.8700569" lon="11.883826"><ele>617.0</ele><time>2026-05-01T09:48:47.254Z</time></trkpt><trkpt lat="43.8701186" lon="11.8837307"><ele>617.0</ele><time>2026-05-01T09:48:48.245Z</time></trkpt><trkpt lat="43.8701795" lon="11.8836219"><ele>622.0</ele><time>2026-05-01T09:48:49.252Z</time></trkpt><trkpt lat="43.870208" lon="11.8835217"><ele>627.0</ele><time>2026-05-01T09:48:50.251Z</time></trkpt><trkpt lat="43.870231" lon="11.8833386"><ele>632.0</ele><time>2026-05-01T09:48:52.242Z</time></trkpt><trkpt lat="43.8702418" lon="11.8832319"><ele>637.0</ele><time>2026-05-01T09:48:53.252Z</time></trkpt><trkpt lat="43.8702639" lon="11.8831236"><ele>642.0</ele><time>2026-05-01T09:48:54.246Z</time></trkpt><trkpt lat="43.8702831" lon="11.8830022"><ele>644.0</ele><time>2026-05-01T09:48:55.245Z</time></trkpt><trkpt lat="43.8702687" lon="11.8828715"><ele>646.0</ele><time>2026-05-01T09:48:56.24Z</time></trkpt><trkpt lat="43.8702636" lon="11.8827188"><ele>648.0</ele><time>2026-05-01T09:48:57.254Z</time></trkpt><trkpt lat="43.8702542" lon="11.882569"><ele>650.0</ele><time>2026-05-01T09:48:58.25Z</time></trkpt><trkpt lat="43.8702327" lon="11.882413"><ele>652.0</ele><time>2026-05-01T09:48:59.251Z</time></trkpt><trkpt lat="43.8702286" lon="11.8822697"><ele>652.3333333333334</ele><time>2026-05-01T09:49:00.248Z</time></trkpt><trkpt lat="43.8702279" lon="11.8821326"><ele>652.6666666666667</ele><time>2026-05-01T09:49:01.24Z</time></trkpt><trkpt lat="43.8702327" lon="11.8820229"><ele>653.0</ele><time>2026-05-01T09:49:02.239Z</time></trkpt><trkpt lat="43.8702376" lon="11.8819049"><ele>653.3333333333334</ele><time>2026-05-01T09:49:03.25Z</time></trkpt><trkpt lat="43.8702361" lon="11.8817756"><ele>653.6666666666666</ele><time>2026-05-01T09:49:04.243Z</time></trkpt><trkpt lat="43.870274" lon="11.8816872"><ele>654.0</ele><time>2026-05-01T09:49:05.238Z</time></trkpt><trkpt lat="43.870334" lon="11.8815831"><ele>654.1666666666666</ele><time>2026-05-01T09:49:06.25Z</time></trkpt><trkpt lat="43.8703751" lon="11.8814609"><ele>654.3333333333334</ele><time>2026-05-01T09:49:07.24Z</time></trkpt><trkpt lat="43.8704161" lon="11.8813508"><ele>654.5</ele><time>2026-05-01T09:49:08.253Z</time></trkpt><trkpt lat="43.870443" lon="11.8812349"><ele>654.6666666666667</ele><time>2026-05-01T09:49:09.253Z</time></trkpt><trkpt lat="43.8704636" lon="11.8811195"><ele>654.8333333333334</ele><time>2026-05-01T09:49:10.251Z</time></trkpt><trkpt lat="43.8704807" lon="11.8810175"><ele>655.0</ele><time>2026-05-01T09:49:11.255Z</time></trkpt><trkpt lat="43.8705083" lon="11.8808281"><ele>655.0</ele><time>2026-05-01T09:49:12.251Z</time></trkpt><trkpt lat="43.8705443" lon="11.8806529"><ele>655.0</ele><time>2026-05-01T09:49:13.243Z</time></trkpt><trkpt lat="43.8705807" lon="11.8805219"><ele>655.0</ele><time>2026-05-01T09:49:14.247Z</time></trkpt><trkpt lat="43.8706152" lon="11.8804053"><ele>655.0</ele><time>2026-05-01T09:49:15.255Z</time></trkpt><trkpt lat="43.8706647" lon="11.8805152"><ele>655.0</ele><time>2026-05-01T09:49:17.239Z</time></trkpt><trkpt lat="43.8706803" lon="11.8806648"><ele>655.5</ele><time>2026-05-01T09:49:18.245Z</time></trkpt><trkpt lat="43.870634" lon="11.8811639"><ele>656.0</ele><time>2026-05-01T09:49:19.255Z</time></trkpt><trkpt lat="43.8706429" lon="11.8813923"><ele>656.0</ele><time>2026-05-01T09:49:20.255Z</time></trkpt><trkpt lat="43.8706572" lon="11.8816143"><ele>656.0</ele><time>2026-05-01T09:49:21.247Z</time></trkpt><trkpt lat="43.8706789" lon="11.8819242"><ele>656.0</ele><time>2026-05-01T09:49:22.241Z</time></trkpt><trkpt lat="43.87068" lon="11.8820877"><ele>655.5</ele><time>2026-05-01T09:49:23.256Z</time></trkpt><trkpt lat="43.8707292" lon="11.8823079"><ele>655.0</ele><time>2026-05-01T09:49:24.244Z</time></trkpt><trkpt lat="43.8707908" lon="11.8824992"><ele>654.5</ele><time>2026-05-01T09:49:25.255Z</time></trkpt><trkpt lat="43.8708094" lon="11.8826336"><ele>654.0</ele><time>2026-05-01T09:49:26.256Z</time></trkpt><trkpt lat="43.8708627" lon="11.8827762"><ele>658.6</ele><time>2026-05-01T09:49:27.253Z</time></trkpt><trkpt lat="43.870954" lon="11.8828699"><ele>663.2</ele><time>2026-05-01T09:49:28.248Z</time></trkpt><trkpt lat="43.8710205" lon="11.8829757"><ele>667.8000000000001</ele><time>2026-05-01T09:49:29.244Z</time></trkpt><trkpt lat="43.8710902" lon="11.8831003"><ele>672.4000000000001</ele><time>2026-05-01T09:49:30.25Z</time></trkpt><trkpt lat="43.8711473" lon="11.8832397"><ele>677.0</ele><time>2026-05-01T09:49:31.256Z</time></trkpt><trkpt lat="43.8712118" lon="11.8833802"><ele>673.25</ele><time>2026-05-01T09:49:32.24Z</time></trkpt><trkpt lat="43.8712737" lon="11.8835378"><ele>669.5</ele><time>2026-05-01T09:49:33.246Z</time></trkpt><trkpt lat="43.8713852" lon="11.8836516"><ele>665.75</ele><time>2026-05-01T09:49:34.255Z</time></trkpt><trkpt lat="43.8714691" lon="11.883772"><ele>662.0</ele><time>2026-05-01T09:49:35.244Z</time></trkpt><trkpt lat="43.8715181" lon="11.8838623"><ele>662.0</ele><time>2026-05-01T09:49:36.244Z</time></trkpt><trkpt lat="43.8716047" lon="11.8839375"><ele>662.0</ele><time>2026-05-01T09:49:37.244Z</time></trkpt><trkpt lat="43.871686" lon="11.8839523"><ele>662.0</ele><time>2026-05-01T09:49:38.255Z</time></trkpt><trkpt lat="43.8717418" lon="11.8840299"><ele>662.0</ele><time>2026-05-01T09:49:39.256Z</time></trkpt><trkpt lat="43.8717982" lon="11.8840898"><ele>662.0</ele><time>2026-05-01T09:49:40.249Z</time></trkpt><trkpt lat="43.8718816" lon="11.8841451"><ele>662.0</ele><time>2026-05-01T09:49:42.251Z</time></trkpt><trkpt lat="43.8719216" lon="11.8842198"><ele>667.0</ele><time>2026-05-01T09:49:44.253Z</time></trkpt><trkpt lat="43.8719517" lon="11.8843132"><ele>672.0</ele><time>2026-05-01T09:49:46.247Z</time></trkpt><trkpt lat="43.8719855" lon="11.8844007"><ele>677.0</ele><time>2026-05-01T09:49:48.243Z</time></trkpt><trkpt lat="43.8720109" lon="11.8845043"><ele>682.0</ele><time>2026-05-01T09:49:50.264Z</time></trkpt><trkpt lat="43.8720391" lon="11.8846123"><ele>687.0</ele><time>2026-05-01T09:49:52.25Z</time></trkpt><trkpt lat="43.8720714" lon="11.8847052"><ele>692.0</ele><time>2026-05-01T09:49:54.256Z</time></trkpt><trkpt lat="43.8720886" lon="11.8847988"><ele>692.0</ele><time>2026-05-01T09:49:56.247Z</time></trkpt><trkpt lat="43.8720867" lon="11.8849208"><ele>692.0</ele><time>2026-05-01T09:49:59.247Z</time></trkpt><trkpt lat="43.8719868" lon="11.8849828"><ele>692.0</ele><time>2026-05-01T09:50:00.257Z</time></trkpt><trkpt lat="43.8719594" lon="11.8850811"><ele>692.0</ele><time>2026-05-01T09:50:01.256Z</time></trkpt><trkpt lat="43.871958" lon="11.8851877"><ele>692.0</ele><time>2026-05-01T09:50:02.246Z</time></trkpt><trkpt lat="43.8719987" lon="11.8852567"><ele>692.0</ele><time>2026-05-01T09:50:05.258Z</time></trkpt><trkpt lat="43.8720704" lon="11.88515"><ele>692.0</ele><time>2026-05-01T09:50:07.249Z</time></trkpt><trkpt lat="43.8720997" lon="11.8850655"><ele>692.0</ele><time>2026-05-01T09:50:08.257Z</time></trkpt><trkpt lat="43.8721353" lon="11.8849909"><ele>692.0</ele><time>2026-05-01T09:50:09.256Z</time></trkpt><trkpt lat="43.872186" lon="11.8849189"><ele>692.0</ele><time>2026-05-01T09:50:10.246Z</time></trkpt><trkpt lat="43.872235" lon="11.8848195"><ele>692.0</ele><time>2026-05-01T09:50:11.261Z</time></trkpt><trkpt lat="43.872313" lon="11.8846603"><ele>692.0</ele><time>2026-05-01T09:50:12.258Z</time></trkpt><trkpt lat="43.8723774" lon="11.8845352"><ele>692.0</ele><time>2026-05-01T09:50:13.257Z</time></trkpt><trkpt lat="43.8724562" lon="11.8844433"><ele>692.0</ele><time>2026-05-01T09:50:14.256Z</time></trkpt><trkpt lat="43.8724564" lon="11.8842619"><ele>692.0</ele><time>2026-05-01T09:50:15.25Z</time></trkpt><trkpt lat="43.8724806" lon="11.8841058"><ele>692.0</ele><time>2026-05-01T09:50:16.24Z</time></trkpt><trkpt lat="43.8724367" lon="11.8839297"><ele>690.75</ele><time>2026-05-01T09:50:17.252Z</time></trkpt><trkpt lat="43.8724342" lon="11.8837653"><ele>689.5</ele><time>2026-05-01T09:50:18.254Z</time></trkpt><trkpt lat="43.8724182" lon="11.8835662"><ele>688.25</ele><time>2026-05-01T09:50:19.239Z</time></trkpt><trkpt lat="43.872348" lon="11.8833544"><ele>687.0</ele><time>2026-05-01T09:50:20.241Z</time></trkpt><trkpt lat="43.8723128" lon="11.8831495"><ele>689.0</ele><time>2026-05-01T09:50:21.253Z</time></trkpt><trkpt lat="43.8722226" lon="11.8830573"><ele>691.0</ele><time>2026-05-01T09:50:22.241Z</time></trkpt><trkpt lat="43.8721366" lon="11.8829299"><ele>693.0</ele><time>2026-05-01T09:50:23.249Z</time></trkpt><trkpt lat="43.8720934" lon="11.8828447"><ele>695.0</ele><time>2026-05-01T09:50:24.256Z</time></trkpt><trkpt lat="43.8720323" lon="11.8827127"><ele>697.0</ele><time>2026-05-01T09:50:25.255Z</time></trkpt><trkpt lat="43.8719799" lon="11.8826372"><ele>698.0</ele><time>2026-05-01T09:50:26.244Z</time></trkpt><trkpt lat="43.8719696" lon="11.8824646"><ele>699.0</ele><time>2026-05-01T09:50:28.245Z</time></trkpt><trkpt lat="43.8720356" lon="11.8823812"><ele>700.0</ele><time>2026-05-01T09:50:29.255Z</time></trkpt><trkpt lat="43.8720758" lon="11.8822052"><ele>701.0</ele><time>2026-05-01T09:50:31.241Z</time></trkpt><trkpt lat="43.8721052" lon="11.882101"><ele>702.0</ele><time>2026-05-01T09:50:32.243Z</time></trkpt><trkpt lat="43.8721439" lon="11.8820005"><ele>702.0</ele><time>2026-05-01T09:50:33.243Z</time></trkpt><trkpt lat="43.87229" lon="11.8819296"><ele>702.0</ele><time>2026-05-01T09:50:34.253Z</time></trkpt><trkpt lat="43.8723616" lon="11.8818047"><ele>702.0</ele><time>2026-05-01T09:50:35.24Z</time></trkpt><trkpt lat="43.8723933" lon="11.8816623"><ele>702.0</ele><time>2026-05-01T09:50:36.24Z</time></trkpt><trkpt lat="43.8724599" lon="11.8815189"><ele>702.6</ele><time>2026-05-01T09:50:37.252Z</time></trkpt><trkpt lat="43.8724266" lon="11.881435"><ele>703.2</ele><time>2026-05-01T09:50:38.254Z</time></trkpt><trkpt lat="43.8724453" lon="11.8813483"><ele>703.8</ele><time>2026-05-01T09:50:39.253Z</time></trkpt><trkpt lat="43.87251" lon="11.8812378"><ele>704.4</ele><time>2026-05-01T09:50:41.255Z</time></trkpt><trkpt lat="43.872612" lon="11.8812729"><ele>705.0</ele><time>2026-05-01T09:50:44.257Z</time></trkpt><trkpt lat="43.8727144" lon="11.8815475"><ele>709.5</ele><time>2026-05-01T09:50:47.255Z</time></trkpt><trkpt lat="43.8727504" lon="11.8816736"><ele>714.0</ele><time>2026-05-01T09:50:48.255Z</time></trkpt><trkpt lat="43.8727998" lon="11.8817956"><ele>718.5</ele><time>2026-05-01T09:50:49.266Z</time></trkpt><trkpt lat="43.8728165" lon="11.8819246"><ele>723.0</ele><time>2026-05-01T09:50:50.27Z</time></trkpt><trkpt lat="43.8729143" lon="11.8821279"><ele>723.0</ele><time>2026-05-01T09:50:51.244Z</time></trkpt><trkpt lat="43.8729784" lon="11.882278"><ele>723.0</ele><time>2026-05-01T09:50:52.258Z</time></trkpt><trkpt lat="43.8730402" lon="11.8824546"><ele>723.0</ele><time>2026-05-01T09:50:54.256Z</time></trkpt><trkpt lat="43.8731066" lon="11.8826655"><ele>723.0</ele><time>2026-05-01T09:50:55.25Z</time></trkpt><trkpt lat="43.8731764" lon="11.8828784"><ele>722.25</ele><time>2026-05-01T09:50:56.244Z</time></trkpt><trkpt lat="43.873233" lon="11.8830722"><ele>721.5</ele><time>2026-05-01T09:50:57.238Z</time></trkpt><trkpt lat="43.8732809" lon="11.883245"><ele>720.75</ele><time>2026-05-01T09:50:58.251Z</time></trkpt><trkpt lat="43.8733266" lon="11.8833958"><ele>720.0</ele><time>2026-05-01T09:50:59.252Z</time></trkpt><trkpt lat="43.8733907" lon="11.8835173"><ele>725.8</ele><time>2026-05-01T09:51:00.242Z</time></trkpt><trkpt lat="43.8734689" lon="11.8836315"><ele>731.6</ele><time>2026-05-01T09:51:01.251Z</time></trkpt><trkpt lat="43.873532" lon="11.883742"><ele>737.4000000000001</ele><time>2026-05-01T09:51:02.238Z</time></trkpt><trkpt lat="43.8735898" lon="11.8838534"><ele>743.2</ele><time>2026-05-01T09:51:03.24Z</time></trkpt><trkpt lat="43.8736557" lon="11.8839811"><ele>749.0</ele><time>2026-05-01T09:51:04.256Z</time></trkpt><trkpt lat="43.8736357" lon="11.8840832"><ele>749.0</ele><time>2026-05-01T09:51:05.244Z</time></trkpt><trkpt lat="43.8736249" lon="11.8842024"><ele>749.0</ele><time>2026-05-01T09:51:06.25Z</time></trkpt><trkpt lat="43.8736426" lon="11.8843326"><ele>749.0</ele><time>2026-05-01T09:51:08.256Z</time></trkpt><trkpt lat="43.8737106" lon="11.8843908"><ele>749.0</ele><time>2026-05-01T09:51:11.24Z</time></trkpt><trkpt lat="43.8737658" lon="11.8842348"><ele>749.0</ele><time>2026-05-01T09:51:13.243Z</time></trkpt><trkpt lat="43.8737936" lon="11.8840869"><ele>749.0</ele><time>2026-05-01T09:51:15.252Z</time></trkpt><trkpt lat="43.8738369" lon="11.8839706"><ele>749.0</ele><time>2026-05-01T09:51:16.257Z</time></trkpt><trkpt lat="43.8738847" lon="11.8838472"><ele>749.0</ele><time>2026-05-01T09:51:17.244Z</time></trkpt><trkpt lat="43.8739441" lon="11.8837088"><ele>749.0</ele><time>2026-05-01T09:51:18.256Z</time></trkpt><trkpt lat="43.8739322" lon="11.8835275"><ele>749.0</ele><time>2026-05-01T09:51:19.251Z</time></trkpt><trkpt lat="43.873919" lon="11.8833674"><ele>750.0</ele><time>2026-05-01T09:51:20.25Z</time></trkpt><trkpt lat="43.8738877" lon="11.8832234"><ele>751.0</ele><time>2026-05-01T09:51:21.246Z</time></trkpt><trkpt lat="43.8738367" lon="11.8830922"><ele>752.0</ele><time>2026-05-01T09:51:22.238Z</time></trkpt><trkpt lat="43.8737987" lon="11.8829706"><ele>753.0</ele><time>2026-05-01T09:51:23.237Z</time></trkpt><trkpt lat="43.8737933" lon="11.8828416"><ele>754.0</ele><time>2026-05-01T09:51:24.251Z</time></trkpt><trkpt lat="43.8738074" lon="11.8827213"><ele>754.0</ele><time>2026-05-01T09:51:25.253Z</time></trkpt><trkpt lat="43.873828" lon="11.8826074"><ele>754.0</ele><time>2026-05-01T09:51:26.24Z</time></trkpt><trkpt lat="43.8738874" lon="11.8824597"><ele>754.0</ele><time>2026-05-01T09:51:27.24Z</time></trkpt><trkpt lat="43.8739663" lon="11.8822867"><ele>754.0</ele><time>2026-05-01T09:51:28.255Z</time></trkpt><trkpt lat="43.8740144" lon="11.8821365"><ele>754.3333333333334</ele><time>2026-05-01T09:51:29.252Z</time></trkpt><trkpt lat="43.874052" lon="11.882011"><ele>754.6666666666667</ele><time>2026-05-01T09:51:30.244Z</time></trkpt><trkpt lat="43.874079" lon="11.8818817"><ele>755.0</ele><time>2026-05-01T09:51:31.252Z</time></trkpt><trkpt lat="43.8740874" lon="11.8817603"><ele>755.3333333333334</ele><time>2026-05-01T09:51:32.252Z</time></trkpt><trkpt lat="43.874087" lon="11.8816505"><ele>755.6666666666666</ele><time>2026-05-01T09:51:33.239Z</time></trkpt><trkpt lat="43.8740898" lon="11.8815324"><ele>756.0</ele><time>2026-05-01T09:51:34.251Z</time></trkpt><trkpt lat="43.8741167" lon="11.8814248"><ele>756.5</ele><time>2026-05-01T09:51:35.252Z</time></trkpt><trkpt lat="43.8741557" lon="11.8812915"><ele>757.0</ele><time>2026-05-01T09:51:36.251Z</time></trkpt><trkpt lat="43.8741938" lon="11.8811445"><ele>757.5</ele><time>2026-05-01T09:51:37.25Z</time></trkpt><trkpt lat="43.874237" lon="11.8809895"><ele>758.0</ele><time>2026-05-01T09:51:38.256Z</time></trkpt><trkpt lat="43.8742811" lon="11.8808413"><ele>763.5999999999999</ele><time>2026-05-01T09:51:39.24Z</time></trkpt><trkpt lat="43.8743399" lon="11.8806817"><ele>769.1999999999999</ele><time>2026-05-01T09:51:40.252Z</time></trkpt><trkpt lat="43.8743955" lon="11.8805374"><ele>774.8</ele><time>2026-05-01T09:51:41.253Z</time></trkpt><trkpt lat="43.874454" lon="11.8804073"><ele>780.4</ele><time>2026-05-01T09:51:42.251Z</time></trkpt><trkpt lat="43.8744945" lon="11.8803041"><ele>786.0</ele><time>2026-05-01T09:51:43.242Z</time></trkpt><trkpt lat="43.8745388" lon="11.8801941"><ele>785.4</ele><time>2026-05-01T09:51:44.237Z</time></trkpt><trkpt lat="43.8745913" lon="11.8800789"><ele>784.8</ele><time>2026-05-01T09:51:45.239Z</time></trkpt><trkpt lat="43.874643" lon="11.8799499"><ele>784.1999999999999</ele><time>2026-05-01T09:51:46.252Z</time></trkpt><trkpt lat="43.8746835" lon="11.8798137"><ele>783.5999999999999</ele><time>2026-05-01T09:51:47.252Z</time></trkpt><trkpt lat="43.8747059" lon="11.8796715"><ele>783.0</ele><time>2026-05-01T09:51:48.241Z</time></trkpt><trkpt lat="43.8747206" lon="11.8795387"><ele>783.0</ele><time>2026-05-01T09:51:49.251Z</time></trkpt><trkpt lat="43.8747613" lon="11.8794078"><ele>783.0</ele><time>2026-05-01T09:51:50.253Z</time></trkpt><trkpt lat="43.8748148" lon="11.8792812"><ele>783.0</ele><time>2026-05-01T09:51:51.254Z</time></trkpt><trkpt lat="43.8748688" lon="11.8791537"><ele>783.0</ele><time>2026-05-01T09:51:52.248Z</time></trkpt><trkpt lat="43.8748986" lon="11.8790599"><ele>783.0</ele><time>2026-05-01T09:51:53.243Z</time></trkpt><trkpt lat="43.8749555" lon="11.8788953"><ele>783.0</ele><time>2026-05-01T09:51:55.252Z</time></trkpt><trkpt lat="43.8751078" lon="11.8788755"><ele>783.0</ele><time>2026-05-01T09:51:58.242Z</time></trkpt><trkpt lat="43.8751739" lon="11.8789425"><ele>783.0</ele><time>2026-05-01T09:52:01.251Z</time></trkpt><trkpt lat="43.8750994" lon="11.8792039"><ele>783.0</ele><time>2026-05-01T09:52:04.242Z</time></trkpt><trkpt lat="43.8750483" lon="11.8794067"><ele>783.0</ele><time>2026-05-01T09:52:05.253Z</time></trkpt><trkpt lat="43.875025" lon="11.8797695"><ele>783.0</ele><time>2026-05-01T09:52:06.246Z</time></trkpt><trkpt lat="43.8750654" lon="11.8800136"><ele>783.0</ele><time>2026-05-01T09:52:07.237Z</time></trkpt><trkpt lat="43.8750234" lon="11.8805237"><ele>783.5999999999999</ele><time>2026-05-01T09:52:08.241Z</time></trkpt><trkpt lat="43.8749452" lon="11.8806299"><ele>784.1999999999999</ele><time>2026-05-01T09:52:09.25Z</time></trkpt><trkpt lat="43.8748931" lon="11.8807635"><ele>784.8</ele><time>2026-05-01T09:52:10.243Z</time></trkpt><trkpt lat="43.874887" lon="11.8808796"><ele>785.4</ele><time>2026-05-01T09:52:11.254Z</time></trkpt><trkpt lat="43.874882" lon="11.881006"><ele>786.0</ele><time>2026-05-01T09:52:12.249Z</time></trkpt><trkpt lat="43.8748817" lon="11.8811085"><ele>786.25</ele><time>2026-05-01T09:52:13.24Z</time></trkpt><trkpt lat="43.8749276" lon="11.8812546"><ele>786.5</ele><time>2026-05-01T09:52:14.253Z</time></trkpt><trkpt lat="43.8749579" lon="11.8814118"><ele>786.75</ele><time>2026-05-01T09:52:15.238Z</time></trkpt><trkpt lat="43.8749928" lon="11.881604"><ele>787.0</ele><time>2026-05-01T09:52:16.25Z</time></trkpt><trkpt lat="43.8750071" lon="11.8817718"><ele>787.0</ele><time>2026-05-01T09:52:17.252Z</time></trkpt><trkpt lat="43.8750465" lon="11.8819181"><ele>787.0</ele><time>2026-05-01T09:52:18.24Z</time></trkpt><trkpt lat="43.8750601" lon="11.8820773"><ele>787.0</ele><time>2026-05-01T09:52:19.245Z</time></trkpt><trkpt lat="43.8750825" lon="11.8822619"><ele>787.0</ele><time>2026-05-01T09:52:20.236Z</time></trkpt><trkpt lat="43.8750871" lon="11.8824366"><ele>787.0</ele><time>2026-05-01T09:52:21.253Z</time></trkpt><trkpt lat="43.8749474" lon="11.8825243"><ele>787.0</ele><time>2026-05-01T09:52:22.237Z</time></trkpt><trkpt lat="43.8749172" lon="11.8826736"><ele>787.0</ele><time>2026-05-01T09:52:23.252Z</time></trkpt><trkpt lat="43.8748885" lon="11.8827935"><ele>787.0</ele><time>2026-05-01T09:52:24.251Z</time></trkpt><trkpt lat="43.8748512" lon="11.8829288"><ele>784.6</ele><time>2026-05-01T09:52:26.237Z</time></trkpt><trkpt lat="43.8748774" lon="11.8830087"><ele>782.2</ele><time>2026-05-01T09:52:27.254Z</time></trkpt><trkpt lat="43.8750178" lon="11.8829534"><ele>779.8</ele><time>2026-05-01T09:52:31.243Z</time></trkpt><trkpt lat="43.8750829" lon="11.8828934"><ele>777.4</ele><time>2026-05-01T09:52:32.252Z</time></trkpt><trkpt lat="43.875127" lon="11.8827764"><ele>775.0</ele><time>2026-05-01T09:52:33.255Z</time></trkpt><trkpt lat="43.8751445" lon="11.8826825"><ele>776.2</ele><time>2026-05-01T09:52:34.256Z</time></trkpt><trkpt lat="43.8751845" lon="11.8825591"><ele>777.4</ele><time>2026-05-01T09:52:35.25Z</time></trkpt><trkpt lat="43.8752455" lon="11.8824022"><ele>778.5999999999999</ele><time>2026-05-01T09:52:36.248Z</time></trkpt><trkpt lat="43.875295" lon="11.8823163"><ele>779.8</ele><time>2026-05-01T09:52:37.252Z</time></trkpt><trkpt lat="43.8753567" lon="11.8822123"><ele>781.0</ele><time>2026-05-01T09:52:38.255Z</time></trkpt><trkpt lat="43.8754122" lon="11.8821022"><ele>781.0</ele><time>2026-05-01T09:52:39.24Z</time></trkpt><trkpt lat="43.8754575" lon="11.882"><ele>781.0</ele><time>2026-05-01T09:52:40.239Z</time></trkpt><trkpt lat="43.8755155" lon="11.8818814"><ele>781.0</ele><time>2026-05-01T09:52:41.253Z</time></trkpt><trkpt lat="43.875586" lon="11.8817631"><ele>781.0</ele><time>2026-05-01T09:52:42.255Z</time></trkpt><trkpt lat="43.8756116" lon="11.8815995"><ele>781.0</ele><time>2026-05-01T09:52:43.243Z</time></trkpt><trkpt lat="43.8756151" lon="11.8814564"><ele>786.75</ele><time>2026-05-01T09:52:44.25Z</time></trkpt><trkpt lat="43.8756285" lon="11.8812652"><ele>792.5</ele><time>2026-05-01T09:52:45.239Z</time></trkpt><trkpt lat="43.8756017" lon="11.8810355"><ele>798.25</ele><time>2026-05-01T09:52:46.242Z</time></trkpt><trkpt lat="43.875594" lon="11.880869"><ele>804.0</ele><time>2026-05-01T09:52:47.255Z</time></trkpt><trkpt lat="43.875632" lon="11.8807308"><ele>805.5</ele><time>2026-05-01T09:52:48.256Z</time></trkpt><trkpt lat="43.8756875" lon="11.8805926"><ele>807.0</ele><time>2026-05-01T09:52:49.252Z</time></trkpt><trkpt lat="43.8757367" lon="11.8804542"><ele>808.5</ele><time>2026-05-01T09:52:50.241Z</time></trkpt><trkpt lat="43.8758354" lon="11.8803215"><ele>810.0</ele><time>2026-05-01T09:52:51.25Z</time></trkpt><trkpt lat="43.8759326" lon="11.8801611"><ele>812.25</ele><time>2026-05-01T09:52:52.255Z</time></trkpt><trkpt lat="43.8760009" lon="11.880024"><ele>814.5</ele><time>2026-05-01T09:52:53.243Z</time></trkpt><trkpt lat="43.8760833" lon="11.8799012"><ele>816.75</ele><time>2026-05-01T09:52:54.244Z</time></trkpt><trkpt lat="43.8761627" lon="11.879783"><ele>819.0</ele><time>2026-05-01T09:52:55.242Z</time></trkpt><trkpt lat="43.8762502" lon="11.8797209"><ele>819.0</ele><time>2026-05-01T09:52:56.252Z</time></trkpt><trkpt lat="43.8763021" lon="11.8796314"><ele>819.0</ele><time>2026-05-01T09:52:57.242Z</time></trkpt><trkpt lat="43.8764142" lon="11.879501"><ele>819.0</ele><time>2026-05-01T09:52:58.256Z</time></trkpt><trkpt lat="43.8764939" lon="11.8794022"><ele>819.0</ele><time>2026-05-01T09:52:59.245Z</time></trkpt><trkpt lat="43.8766122" lon="11.8793064"><ele>820.5</ele><time>2026-05-01T09:53:00.252Z</time></trkpt><trkpt lat="43.8766891" lon="11.8791742"><ele>822.0</ele><time>2026-05-01T09:53:01.241Z</time></trkpt><trkpt lat="43.8768043" lon="11.8790291"><ele>823.5</ele><time>2026-05-01T09:53:02.256Z</time></trkpt><trkpt lat="43.876902" lon="11.8789176"><ele>825.0</ele><time>2026-05-01T09:53:03.243Z</time></trkpt><trkpt lat="43.8770232" lon="11.8787895"><ele>825.0</ele><time>2026-05-01T09:53:04.24Z</time></trkpt><trkpt lat="43.8771327" lon="11.878695"><ele>825.0</ele><time>2026-05-01T09:53:05.251Z</time></trkpt><trkpt lat="43.8772536" lon="11.8785844"><ele>825.0</ele><time>2026-05-01T09:53:06.248Z</time></trkpt><trkpt lat="43.8773639" lon="11.8784698"><ele>825.0</ele><time>2026-05-01T09:53:07.253Z</time></trkpt><trkpt lat="43.8774746" lon="11.8783596"><ele>825.0</ele><time>2026-05-01T09:53:08.253Z</time></trkpt><trkpt lat="43.8775684" lon="11.8782595"><ele>825.0</ele><time>2026-05-01T09:53:09.252Z</time></trkpt><trkpt lat="43.8776449" lon="11.878177"><ele>825.0</ele><time>2026-05-01T09:53:10.251Z</time></trkpt><trkpt lat="43.8777324" lon="11.8780752"><ele>825.0</ele><time>2026-05-01T09:53:11.251Z</time></trkpt><trkpt lat="43.8778233" lon="11.8780183"><ele>825.0</ele><time>2026-05-01T09:53:12.24Z</time></trkpt><trkpt lat="43.8779081" lon="11.8779617"><ele>822.75</ele><time>2026-05-01T09:53:13.246Z</time></trkpt><trkpt lat="43.8780202" lon="11.8778477"><ele>820.5</ele><time>2026-05-01T09:53:14.243Z</time></trkpt><trkpt lat="43.8781288" lon="11.8777622"><ele>818.25</ele><time>2026-05-01T09:53:15.238Z</time></trkpt><trkpt lat="43.8782231" lon="11.8776611"><ele>816.0</ele><time>2026-05-01T09:53:16.252Z</time></trkpt><trkpt lat="43.8783312" lon="11.8775295"><ele>817.5</ele><time>2026-05-01T09:53:17.252Z</time></trkpt><trkpt lat="43.878408" lon="11.877393"><ele>819.0</ele><time>2026-05-01T09:53:18.246Z</time></trkpt><trkpt lat="43.8784795" lon="11.8772575"><ele>820.5</ele><time>2026-05-01T09:53:19.252Z</time></trkpt><trkpt lat="43.8785599" lon="11.877142"><ele>822.0</ele><time>2026-05-01T09:53:20.254Z</time></trkpt><trkpt lat="43.8786268" lon="11.8770135"><ele>822.0</ele><time>2026-05-01T09:53:22.248Z</time></trkpt><trkpt lat="43.8786906" lon="11.8769591"><ele>822.0</ele><time>2026-05-01T09:53:23.241Z</time></trkpt><trkpt lat="43.8787462" lon="11.8768898"><ele>822.0</ele><time>2026-05-01T09:53:26.25Z</time></trkpt><trkpt lat="43.8787699" lon="11.8767882"><ele>822.0</ele><time>2026-05-01T09:53:40.237Z</time></trkpt><trkpt lat="43.8787678" lon="11.8766949"><ele>822.0</ele><time>2026-05-01T09:53:41.242Z</time></trkpt><trkpt lat="43.8787763" lon="11.8765575"><ele>822.0</ele><time>2026-05-01T09:53:42.242Z</time></trkpt><trkpt lat="43.8788048" lon="11.8764461"><ele>827.8</ele><time>2026-05-01T09:53:43.255Z</time></trkpt><trkpt lat="43.87884" lon="11.8763264"><ele>833.6</ele><time>2026-05-01T09:53:44.247Z</time></trkpt><trkpt lat="43.8788834" lon="11.8761997"><ele>839.4</ele><time>2026-05-01T09:53:45.248Z</time></trkpt><trkpt lat="43.8789348" lon="11.8760635"><ele>845.1999999999999</ele><time>2026-05-01T09:53:46.238Z</time></trkpt><trkpt lat="43.8789877" lon="11.875921"><ele>851.0</ele><time>2026-05-01T09:53:47.239Z</time></trkpt><trkpt lat="43.8790464" lon="11.8757844"><ele>854.0</ele><time>2026-05-01T09:53:48.253Z</time></trkpt><trkpt lat="43.8790786" lon="11.8756254"><ele>857.0</ele><time>2026-05-01T09:53:49.251Z</time></trkpt><trkpt lat="43.8791232" lon="11.8754846"><ele>860.0</ele><time>2026-05-01T09:53:50.25Z</time></trkpt><trkpt lat="43.8791628" lon="11.8753475"><ele>863.0</ele><time>2026-05-01T09:53:51.24Z</time></trkpt><trkpt lat="43.8791795" lon="11.8751588"><ele>864.0</ele><time>2026-05-01T09:53:53.254Z</time></trkpt><trkpt lat="43.8791782" lon="11.8750346"><ele>865.0</ele><time>2026-05-01T09:53:54.239Z</time></trkpt><trkpt lat="43.8791685" lon="11.8749023"><ele>866.0</ele><time>2026-05-01T09:53:55.254Z</time></trkpt><trkpt lat="43.8791645" lon="11.8747489"><ele>867.0</ele><time>2026-05-01T09:53:56.242Z</time></trkpt><trkpt lat="43.8791669" lon="11.8745661"><ele>868.0</ele><time>2026-05-01T09:53:57.239Z</time></trkpt><trkpt lat="43.8791463" lon="11.87443"><ele>868.0</ele><time>2026-05-01T09:53:58.241Z</time></trkpt><trkpt lat="43.8790999" lon="11.8742882"><ele>868.0</ele><time>2026-05-01T09:53:59.248Z</time></trkpt><trkpt lat="43.8790777" lon="11.8741353"><ele>868.0</ele><time>2026-05-01T09:54:00.239Z</time></trkpt><trkpt lat="43.8790393" lon="11.8739901"><ele>868.0</ele><time>2026-05-01T09:54:01.241Z</time></trkpt><trkpt lat="43.8789772" lon="11.8738929"><ele>868.0</ele><time>2026-05-01T09:54:02.244Z</time></trkpt><trkpt lat="43.8789314" lon="11.8737939"><ele>870.0</ele><time>2026-05-01T09:54:03.242Z</time></trkpt><trkpt lat="43.8789303" lon="11.8736655"><ele>872.0</ele><time>2026-05-01T09:54:04.24Z</time></trkpt><trkpt lat="43.8789376" lon="11.8735269"><ele>874.0</ele><time>2026-05-01T09:54:05.239Z</time></trkpt><trkpt lat="43.8788904" lon="11.8733924"><ele>876.0</ele><time>2026-05-01T09:54:06.254Z</time></trkpt><trkpt lat="43.8788802" lon="11.8731857"><ele>878.1999999999999</ele><time>2026-05-01T09:54:08.24Z</time></trkpt><trkpt lat="43.8788698" lon="11.8730858"><ele>880.3999999999999</ele><time>2026-05-01T09:54:09.246Z</time></trkpt><trkpt lat="43.878802" lon="11.8729923"><ele>882.6</ele><time>2026-05-01T09:54:10.239Z</time></trkpt><trkpt lat="43.8787105" lon="11.8729726"><ele>884.8</ele><time>2026-05-01T09:54:11.253Z</time></trkpt><trkpt lat="43.8786136" lon="11.8729941"><ele>887.0</ele><time>2026-05-01T09:54:12.254Z</time></trkpt><trkpt lat="43.8785371" lon="11.8730797"><ele>887.0</ele><time>2026-05-01T09:54:13.244Z</time></trkpt><trkpt lat="43.8784588" lon="11.8730476"><ele>887.0</ele><time>2026-05-01T09:54:14.251Z</time></trkpt><trkpt lat="43.8783411" lon="11.873171"><ele>887.0</ele><time>2026-05-01T09:54:15.238Z</time></trkpt><trkpt lat="43.8782533" lon="11.8732744"><ele>887.0</ele><time>2026-05-01T09:54:16.239Z</time></trkpt><trkpt lat="43.8781715" lon="11.8733425"><ele>887.0</ele><time>2026-05-01T09:54:17.238Z</time></trkpt><trkpt lat="43.8780653" lon="11.8733407"><ele>887.0</ele><time>2026-05-01T09:54:18.253Z</time></trkpt><trkpt lat="43.8779849" lon="11.8733418"><ele>887.0</ele><time>2026-05-01T09:54:19.245Z</time></trkpt><trkpt lat="43.8778887" lon="11.8733553"><ele>887.0</ele><time>2026-05-01T09:54:20.238Z</time></trkpt><trkpt lat="43.8777796" lon="11.8733355"><ele>887.0</ele><time>2026-05-01T09:54:21.242Z</time></trkpt><trkpt lat="43.8776707" lon="11.8733451"><ele>887.0</ele><time>2026-05-01T09:54:22.25Z</time></trkpt><trkpt lat="43.8775739" lon="11.8733462"><ele>885.8</ele><time>2026-05-01T09:54:23.238Z</time></trkpt><trkpt lat="43.8774692" lon="11.8733362"><ele>884.6</ele><time>2026-05-01T09:54:24.254Z</time></trkpt><trkpt lat="43.8773609" lon="11.8732907"><ele>883.3999999999999</ele><time>2026-05-01T09:54:25.242Z</time></trkpt><trkpt lat="43.8772635" lon="11.8732681"><ele>882.1999999999999</ele><time>2026-05-01T09:54:26.253Z</time></trkpt><trkpt lat="43.8771484" lon="11.8732107"><ele>881.0</ele><time>2026-05-01T09:54:28.239Z</time></trkpt><trkpt lat="43.8770892" lon="11.8731383"><ele>881.0</ele><time>2026-05-01T09:54:29.248Z</time></trkpt><trkpt lat="43.8770743" lon="11.8730096"><ele>880.9999999999999</ele><time>2026-05-01T09:54:31.253Z</time></trkpt><trkpt lat="43.8771166" lon="11.8729326"><ele>880.9999999999999</ele><time>2026-05-01T09:54:32.241Z</time></trkpt><trkpt lat="43.8772182" lon="11.8728374"><ele>881.0</ele><time>2026-05-01T09:54:33.256Z</time></trkpt><trkpt lat="43.8773085" lon="11.8727661"><ele>881.0</ele><time>2026-05-01T09:54:34.235Z</time></trkpt><trkpt lat="43.8774981" lon="11.8726434"><ele>880.0</ele><time>2026-05-01T09:54:35.24Z</time></trkpt><trkpt lat="43.8775918" lon="11.8725717"><ele>878.9999999999999</ele><time>2026-05-01T09:54:36.24Z</time></trkpt><trkpt lat="43.8776943" lon="11.8725018"><ele>877.9999999999999</ele><time>2026-05-01T09:54:37.255Z</time></trkpt><trkpt lat="43.8777777" lon="11.8724447"><ele>877.0</ele><time>2026-05-01T09:54:38.249Z</time></trkpt><trkpt lat="43.877852" lon="11.87236"><ele>876.0</ele><time>2026-05-01T09:54:39.241Z</time></trkpt><trkpt lat="43.8779736" lon="11.8722907"><ele>879.8</ele><time>2026-05-01T09:54:40.25Z</time></trkpt><trkpt lat="43.8780405" lon="11.8721853"><ele>883.5999999999999</ele><time>2026-05-01T09:54:41.239Z</time></trkpt><trkpt lat="43.8780709" lon="11.8720846"><ele>887.4</ele><time>2026-05-01T09:54:42.247Z</time></trkpt><trkpt lat="43.878099" lon="11.8719968"><ele>891.2</ele><time>2026-05-01T09:54:43.252Z</time></trkpt><trkpt lat="43.8781571" lon="11.8718686"><ele>895.0</ele><time>2026-05-01T09:54:45.237Z</time></trkpt><trkpt lat="43.8782254" lon="11.8717433"><ele>895.0</ele><time>2026-05-01T09:54:47.256Z</time></trkpt><trkpt lat="43.8782787" lon="11.8716384"><ele>895.0</ele><time>2026-05-01T09:54:49.256Z</time></trkpt><trkpt lat="43.8783323" lon="11.8714996"><ele>895.0</ele><time>2026-05-01T09:54:51.257Z</time></trkpt><trkpt lat="43.8783824" lon="11.8713848"><ele>895.0</ele><time>2026-05-01T09:54:52.243Z</time></trkpt><trkpt lat="43.8783506" lon="11.8710329"><ele>897.5</ele><time>2026-05-01T09:54:54.247Z</time></trkpt><trkpt lat="43.8780967" lon="11.8705411"><ele>900.0</ele><time>2026-05-01T09:54:59.244Z</time></trkpt><trkpt lat="43.8780316" lon="11.8704718"><ele>900.0</ele><time>2026-05-01T09:55:00.251Z</time></trkpt><trkpt lat="43.8779346" lon="11.8703763"><ele>900.0</ele><time>2026-05-01T09:55:02.252Z</time></trkpt><trkpt lat="43.877886" lon="11.87016"><ele>900.0</ele><time>2026-05-01T09:55:04.254Z</time></trkpt><trkpt lat="43.8778401" lon="11.8700302"><ele>900.0</ele><time>2026-05-01T09:55:05.237Z</time></trkpt><trkpt lat="43.8777795" lon="11.8699074"><ele>902.8</ele><time>2026-05-01T09:55:06.241Z</time></trkpt><trkpt lat="43.8777153" lon="11.8697839"><ele>905.6</ele><time>2026-05-01T09:55:07.25Z</time></trkpt><trkpt lat="43.8776638" lon="11.8696976"><ele>908.4000000000001</ele><time>2026-05-01T09:55:08.251Z</time></trkpt><trkpt lat="43.8776566" lon="11.8695245"><ele>911.2</ele><time>2026-05-01T09:55:10.254Z</time></trkpt><trkpt lat="43.8776794" lon="11.8694381"><ele>914.0</ele><time>2026-05-01T09:55:11.25Z</time></trkpt><trkpt lat="43.87766" lon="11.8693447"><ele>912.5000000000001</ele><time>2026-05-01T09:55:12.245Z</time></trkpt><trkpt lat="43.877703" lon="11.8692158"><ele>911.0</ele><time>2026-05-01T09:55:13.251Z</time></trkpt><trkpt lat="43.877755" lon="11.8691211"><ele>909.5</ele><time>2026-05-01T09:55:14.253Z</time></trkpt><trkpt lat="43.8777882" lon="11.869016"><ele>908.0</ele><time>2026-05-01T09:55:15.236Z</time></trkpt><trkpt lat="43.8778674" lon="11.868985"><ele>906.5000000000001</ele><time>2026-05-01T09:55:16.251Z</time></trkpt><trkpt lat="43.877941" lon="11.8689643"><ele>905.0</ele><time>2026-05-01T09:55:17.251Z</time></trkpt><trkpt lat="43.8780144" lon="11.8689879"><ele>905.0</ele><time>2026-05-01T09:55:18.25Z</time></trkpt><trkpt lat="43.8781612" lon="11.8690378"><ele>905.0</ele><time>2026-05-01T09:55:20.242Z</time></trkpt><trkpt lat="43.8782374" lon="11.8690639"><ele>905.0</ele><time>2026-05-01T09:55:21.244Z</time></trkpt><trkpt lat="43.8783558" lon="11.8691203"><ele>905.0</ele><time>2026-05-01T09:55:22.252Z</time></trkpt><trkpt lat="43.8784414" lon="11.8691641"><ele>905.0</ele><time>2026-05-01T09:55:23.251Z</time></trkpt><trkpt lat="43.8785294" lon="11.8692286"><ele>908.0</ele><time>2026-05-01T09:55:24.246Z</time></trkpt><trkpt lat="43.8786008" lon="11.8691479"><ele>911.0</ele><time>2026-05-01T09:55:25.239Z</time></trkpt><trkpt lat="43.8787069" lon="11.8691511"><ele>914.0</ele><time>2026-05-01T09:55:26.261Z</time></trkpt><trkpt lat="43.8787915" lon="11.8691385"><ele>917.0</ele><time>2026-05-01T09:55:27.25Z</time></trkpt><trkpt lat="43.878899" lon="11.8690821"><ele>920.0</ele><time>2026-05-01T09:55:28.248Z</time></trkpt><trkpt lat="43.8789781" lon="11.8690527"><ele>920.0</ele><time>2026-05-01T09:55:29.252Z</time></trkpt><trkpt lat="43.8790786" lon="11.8689803"><ele>920.0</ele><time>2026-05-01T09:55:30.234Z</time></trkpt><trkpt lat="43.8791116" lon="11.8689043"><ele>920.0</ele><time>2026-05-01T09:55:31.247Z</time></trkpt><trkpt lat="43.8791653" lon="11.8688513"><ele>920.0</ele><time>2026-05-01T09:55:32.251Z</time></trkpt><trkpt lat="43.8791947" lon="11.8687086"><ele>920.0</ele><time>2026-05-01T09:55:34.252Z</time></trkpt><trkpt lat="43.8791286" lon="11.8686007"><ele>920.0</ele><time>2026-05-01T09:55:35.245Z</time></trkpt><trkpt lat="43.879063" lon="11.8684784"><ele>920.0</ele><time>2026-05-01T09:55:36.256Z</time></trkpt><trkpt lat="43.878998" lon="11.8684129"><ele>920.0</ele><time>2026-05-01T09:55:37.251Z</time></trkpt><trkpt lat="43.8789" lon="11.8682606"><ele>920.0</ele><time>2026-05-01T09:55:38.244Z</time></trkpt><trkpt lat="43.8788481" lon="11.8681455"><ele>920.0</ele><time>2026-05-01T09:55:39.24Z</time></trkpt><trkpt lat="43.8787843" lon="11.868081"><ele>920.3333333333334</ele><time>2026-05-01T09:55:40.252Z</time></trkpt><trkpt lat="43.8787175" lon="11.8680162"><ele>920.6666666666667</ele><time>2026-05-01T09:55:41.252Z</time></trkpt><trkpt lat="43.8786643" lon="11.8679343"><ele>921.0</ele><time>2026-05-01T09:55:42.249Z</time></trkpt><trkpt lat="43.8786742" lon="11.8678199"><ele>921.3333333333333</ele><time>2026-05-01T09:55:43.253Z</time></trkpt><trkpt lat="43.8786741" lon="11.8677054"><ele>921.6666666666666</ele><time>2026-05-01T09:55:44.248Z</time></trkpt><trkpt lat="43.8786665" lon="11.8675756"><ele>922.0</ele><time>2026-05-01T09:55:45.242Z</time></trkpt><trkpt lat="43.8786696" lon="11.867461"><ele>925.6</ele><time>2026-05-01T09:55:46.247Z</time></trkpt><trkpt lat="43.8786792" lon="11.8673665"><ele>929.2</ele><time>2026-05-01T09:55:47.241Z</time></trkpt><trkpt lat="43.8786058" lon="11.8672874"><ele>932.8</ele><time>2026-05-01T09:55:48.243Z</time></trkpt><trkpt lat="43.8785549" lon="11.8671337"><ele>936.4</ele><time>2026-05-01T09:55:50.249Z</time></trkpt><trkpt lat="43.8785173" lon="11.8669565"><ele>940.0</ele><time>2026-05-01T09:55:52.239Z</time></trkpt><trkpt lat="43.8785892" lon="11.8667783"><ele>940.0</ele><time>2026-05-01T09:55:54.253Z</time></trkpt><trkpt lat="43.8786406" lon="11.8666604"><ele>940.0</ele><time>2026-05-01T09:55:55.252Z</time></trkpt><trkpt lat="43.8786925" lon="11.8665538"><ele>940.0</ele><time>2026-05-01T09:55:56.237Z</time></trkpt><trkpt lat="43.8787677" lon="11.8664507"><ele>940.0</ele><time>2026-05-01T09:55:57.242Z</time></trkpt><trkpt lat="43.878864" lon="11.8663504"><ele>940.0</ele><time>2026-05-01T09:55:58.242Z</time></trkpt><trkpt lat="43.8789349" lon="11.8663104"><ele>939.9999999999999</ele><time>2026-05-01T09:55:59.242Z</time></trkpt><trkpt lat="43.8790123" lon="11.8662453"><ele>940.0</ele><time>2026-05-01T09:56:00.245Z</time></trkpt><trkpt lat="43.8789807" lon="11.8661305"><ele>940.0</ele><time>2026-05-01T09:56:01.24Z</time></trkpt><trkpt lat="43.8789617" lon="11.866019"><ele>940.0</ele><time>2026-05-01T09:56:02.241Z</time></trkpt><trkpt lat="43.8789866" lon="11.8659265"><ele>939.9999999999999</ele><time>2026-05-01T09:56:03.25Z</time></trkpt><trkpt lat="43.8789705" lon="11.8657989"><ele>940.0</ele><time>2026-05-01T09:56:04.238Z</time></trkpt><trkpt lat="43.8789124" lon="11.86569"><ele>939.25</ele><time>2026-05-01T09:56:05.253Z</time></trkpt><trkpt lat="43.8788362" lon="11.8655341"><ele>938.5</ele><time>2026-05-01T09:56:06.239Z</time></trkpt><trkpt lat="43.8788012" lon="11.8654217"><ele>937.75</ele><time>2026-05-01T09:56:07.254Z</time></trkpt><trkpt lat="43.8787033" lon="11.8652975"><ele>937.0</ele><time>2026-05-01T09:56:08.252Z</time></trkpt><trkpt lat="43.8786195" lon="11.8652089"><ele>936.75</ele><time>2026-05-01T09:56:09.239Z</time></trkpt><trkpt lat="43.8785277" lon="11.8650974"><ele>936.5</ele><time>2026-05-01T09:56:10.258Z</time></trkpt><trkpt lat="43.8784246" lon="11.8650928"><ele>936.25</ele><time>2026-05-01T09:56:11.237Z</time></trkpt><trkpt lat="43.8783443" lon="11.8650534"><ele>936.0</ele><time>2026-05-01T09:56:12.242Z</time></trkpt><trkpt lat="43.8782027" lon="11.8650376"><ele>936.0</ele><time>2026-05-01T09:56:14.256Z</time></trkpt><trkpt lat="43.87811" lon="11.8649948"><ele>935.9999999999999</ele><time>2026-05-01T09:56:16.237Z</time></trkpt><trkpt lat="43.8781798" lon="11.8649351"><ele>935.9999999999999</ele><time>2026-05-01T09:58:07.247Z</time></trkpt><trkpt lat="43.8782634" lon="11.8648896"><ele>936.0</ele><time>2026-05-01T09:58:09.249Z</time></trkpt><trkpt lat="43.878359" lon="11.8648335"><ele>936.0</ele><time>2026-05-01T09:58:11.237Z</time></trkpt><trkpt lat="43.8784681" lon="11.8648046"><ele>936.0</ele><time>2026-05-01T09:58:13.253Z</time></trkpt><trkpt lat="43.8785345" lon="11.8647781"><ele>936.0</ele><time>2026-05-01T09:58:14.244Z</time></trkpt><trkpt lat="43.8786169" lon="11.864802"><ele>936.0</ele><time>2026-05-01T09:58:15.239Z</time></trkpt><trkpt lat="43.8786869" lon="11.8648109"><ele>936.0</ele><time>2026-05-01T09:58:16.254Z</time></trkpt><trkpt lat="43.8787627" lon="11.8647788"><ele>936.0</ele><time>2026-05-01T09:58:17.252Z</time></trkpt><trkpt lat="43.8788389" lon="11.8647448"><ele>936.0</ele><time>2026-05-01T09:58:18.25Z</time></trkpt><trkpt lat="43.8789158" lon="11.864741"><ele>936.0</ele><time>2026-05-01T09:58:19.247Z</time></trkpt><trkpt lat="43.8789926" lon="11.8647182"><ele>935.9999999999999</ele><time>2026-05-01T09:58:20.252Z</time></trkpt><trkpt lat="43.8790807" lon="11.8647137"><ele>935.9999999999999</ele><time>2026-05-01T09:58:21.238Z</time></trkpt><trkpt lat="43.8791635" lon="11.8646825"><ele>936.0</ele><time>2026-05-01T09:58:22.243Z</time></trkpt><trkpt lat="43.8792396" lon="11.8645784"><ele>936.0</ele><time>2026-05-01T09:58:25.25Z</time></trkpt><trkpt lat="43.8792966" lon="11.8644296"><ele>934.0</ele><time>2026-05-01T09:58:26.248Z</time></trkpt><trkpt lat="43.8793371" lon="11.8643463"><ele>932.0</ele><time>2026-05-01T09:58:27.25Z</time></trkpt><trkpt lat="43.8793927" lon="11.8642595"><ele>930.0</ele><time>2026-05-01T09:58:28.254Z</time></trkpt><trkpt lat="43.8794539" lon="11.8641653"><ele>928.0</ele><time>2026-05-01T09:58:29.258Z</time></trkpt><trkpt lat="43.8795142" lon="11.8640912"><ele>926.0</ele><time>2026-05-01T09:58:30.252Z</time></trkpt><trkpt lat="43.8795761" lon="11.8640099"><ele>924.0</ele><time>2026-05-01T09:58:31.257Z</time></trkpt><trkpt lat="43.8796364" lon="11.8639288"><ele>924.0</ele><time>2026-05-01T09:58:32.255Z</time></trkpt><trkpt lat="43.8797126" lon="11.8638813"><ele>924.0</ele><time>2026-05-01T09:58:33.242Z</time></trkpt><trkpt lat="43.8797783" lon="11.8637942"><ele>924.0</ele><time>2026-05-01T09:58:34.252Z</time></trkpt><trkpt lat="43.8798282" lon="11.8637306"><ele>924.0</ele><time>2026-05-01T09:58:35.239Z</time></trkpt><trkpt lat="43.8798888" lon="11.8636535"><ele>924.0</ele><time>2026-05-01T09:58:36.244Z</time></trkpt><trkpt lat="43.879949" lon="11.8636193"><ele>924.0</ele><time>2026-05-01T09:58:37.235Z</time></trkpt><trkpt lat="43.8800066" lon="11.863559"><ele>924.0</ele><time>2026-05-01T09:58:38.238Z</time></trkpt><trkpt lat="43.8800648" lon="11.8636277"><ele>924.0</ele><time>2026-05-01T09:58:39.242Z</time></trkpt><trkpt lat="43.8801257" lon="11.8636722"><ele>924.0</ele><time>2026-05-01T09:58:40.238Z</time></trkpt><trkpt lat="43.8801981" lon="11.863713"><ele>924.0</ele><time>2026-05-01T09:58:41.248Z</time></trkpt><trkpt lat="43.8802598" lon="11.863782"><ele>924.0</ele><time>2026-05-01T09:58:42.25Z</time></trkpt><trkpt lat="43.8803327" lon="11.8638294"><ele>924.0</ele><time>2026-05-01T09:58:43.246Z</time></trkpt><trkpt lat="43.8804372" lon="11.8638189"><ele>923.3333333333334</ele><time>2026-05-01T09:58:44.251Z</time></trkpt><trkpt lat="43.8805065" lon="11.8638323"><ele>922.6666666666667</ele><time>2026-05-01T09:58:45.238Z</time></trkpt><trkpt lat="43.8805786" lon="11.8638409"><ele>922.0</ele><time>2026-05-01T09:58:46.246Z</time></trkpt><trkpt lat="43.8806487" lon="11.8637253"><ele>921.3333333333334</ele><time>2026-05-01T09:58:47.253Z</time></trkpt><trkpt lat="43.8807361" lon="11.8636908"><ele>920.6666666666667</ele><time>2026-05-01T09:58:48.242Z</time></trkpt><trkpt lat="43.8808045" lon="11.8636245"><ele>920.0</ele><time>2026-05-01T09:58:49.247Z</time></trkpt><trkpt lat="43.8809231" lon="11.8636089"><ele>914.4</ele><time>2026-05-01T09:58:51.251Z</time></trkpt><trkpt lat="43.8809927" lon="11.863482"><ele>908.8</ele><time>2026-05-01T09:58:53.24Z</time></trkpt><trkpt lat="43.8810455" lon="11.8633455"><ele>903.2</ele><time>2026-05-01T09:58:55.246Z</time></trkpt><trkpt lat="43.8811006" lon="11.8632469"><ele>897.6</ele><time>2026-05-01T09:58:57.251Z</time></trkpt><trkpt lat="43.8811815" lon="11.8633565"><ele>892.0</ele><time>2026-05-01T09:58:59.24Z</time></trkpt><trkpt lat="43.8812182" lon="11.863475"><ele>892.0</ele><time>2026-05-01T09:59:02.261Z</time></trkpt><trkpt lat="43.8812476" lon="11.8636627"><ele>892.0</ele><time>2026-05-01T09:59:04.26Z</time></trkpt><trkpt lat="43.8812683" lon="11.8637878"><ele>892.0</ele><time>2026-05-01T09:59:05.263Z</time></trkpt><trkpt lat="43.8813576" lon="11.8639062"><ele>892.0</ele><time>2026-05-01T09:59:07.252Z</time></trkpt><trkpt lat="43.8814433" lon="11.8641405"><ele>891.9999999999999</ele><time>2026-05-01T09:59:08.251Z</time></trkpt><trkpt lat="43.8815124" lon="11.8641399"><ele>892.0</ele><time>2026-05-01T09:59:09.238Z</time></trkpt><trkpt lat="43.8815974" lon="11.8641464"><ele>892.0</ele><time>2026-05-01T09:59:10.254Z</time></trkpt><trkpt lat="43.8816875" lon="11.8641129"><ele>892.0</ele><time>2026-05-01T09:59:11.252Z</time></trkpt><trkpt lat="43.8817622" lon="11.8641011"><ele>891.9999999999999</ele><time>2026-05-01T09:59:12.238Z</time></trkpt><trkpt lat="43.8818349" lon="11.8641028"><ele>892.0</ele><time>2026-05-01T09:59:13.242Z</time></trkpt><trkpt lat="43.8819134" lon="11.8641016"><ele>893.3333333333333</ele><time>2026-05-01T09:59:14.248Z</time></trkpt><trkpt lat="43.8819856" lon="11.8640798"><ele>894.6666666666666</ele><time>2026-05-01T09:59:15.236Z</time></trkpt><trkpt lat="43.882056" lon="11.8639728"><ele>896.0</ele><time>2026-05-01T09:59:16.244Z</time></trkpt><trkpt lat="43.8821028" lon="11.863879"><ele>897.3333333333333</ele><time>2026-05-01T09:59:17.253Z</time></trkpt><trkpt lat="43.8821724" lon="11.8638157"><ele>898.6666666666666</ele><time>2026-05-01T09:59:18.251Z</time></trkpt><trkpt lat="43.882235" lon="11.8637214"><ele>900.0</ele><time>2026-05-01T09:59:19.255Z</time></trkpt><trkpt lat="43.8822862" lon="11.8636668"><ele>900.0</ele><time>2026-05-01T09:59:20.247Z</time></trkpt><trkpt lat="43.8823311" lon="11.863591"><ele>900.0</ele><time>2026-05-01T09:59:21.241Z</time></trkpt><trkpt lat="43.8824535" lon="11.8633893"><ele>900.0</ele><time>2026-05-01T09:59:22.242Z</time></trkpt><trkpt lat="43.882516" lon="11.8632934"><ele>900.0</ele><time>2026-05-01T09:59:23.249Z</time></trkpt><trkpt lat="43.8825606" lon="11.8631968"><ele>900.0</ele><time>2026-05-01T09:59:24.238Z</time></trkpt><trkpt lat="43.8826093" lon="11.8630805"><ele>897.3333333333334</ele><time>2026-05-01T09:59:25.244Z</time></trkpt><trkpt lat="43.8826604" lon="11.8629767"><ele>894.6666666666667</ele><time>2026-05-01T09:59:26.241Z</time></trkpt><trkpt lat="43.882696" lon="11.8628682"><ele>892.0</ele><time>2026-05-01T09:59:27.242Z</time></trkpt><trkpt lat="43.8827367" lon="11.8627582"><ele>889.3333333333334</ele><time>2026-05-01T09:59:28.242Z</time></trkpt><trkpt lat="43.8827636" lon="11.862665"><ele>886.6666666666667</ele><time>2026-05-01T09:59:29.255Z</time></trkpt><trkpt lat="43.8827928" lon="11.8625715"><ele>884.0</ele><time>2026-05-01T09:59:30.253Z</time></trkpt><trkpt lat="43.8828142" lon="11.8624658"><ele>879.4000000000001</ele><time>2026-05-01T09:59:31.247Z</time></trkpt><trkpt lat="43.8828249" lon="11.862316"><ele>874.8000000000001</ele><time>2026-05-01T09:59:33.254Z</time></trkpt><trkpt lat="43.8828457" lon="11.8621774"><ele>870.1999999999999</ele><time>2026-05-01T09:59:35.241Z</time></trkpt><trkpt lat="43.882912" lon="11.8621038"><ele>865.5999999999999</ele><time>2026-05-01T09:59:37.236Z</time></trkpt><trkpt lat="43.8829945" lon="11.8621591"><ele>861.0</ele><time>2026-05-01T09:59:39.238Z</time></trkpt><trkpt lat="43.8831106" lon="11.8622642"><ele>861.0</ele><time>2026-05-01T09:59:41.245Z</time></trkpt><trkpt lat="43.8831717" lon="11.8623203"><ele>861.0</ele><time>2026-05-01T09:59:42.238Z</time></trkpt><trkpt lat="43.8832413" lon="11.8624028"><ele>861.0</ele><time>2026-05-01T09:59:43.237Z</time></trkpt><trkpt lat="43.8833105" lon="11.8624835"><ele>861.0</ele><time>2026-05-01T09:59:44.244Z</time></trkpt><trkpt lat="43.883363" lon="11.8625825"><ele>861.0</ele><time>2026-05-01T09:59:45.252Z</time></trkpt><trkpt lat="43.8833911" lon="11.8626626"><ele>861.0</ele><time>2026-05-01T09:59:46.254Z</time></trkpt><trkpt lat="43.8834199" lon="11.8627542"><ele>858.0</ele><time>2026-05-01T09:59:47.256Z</time></trkpt><trkpt lat="43.883449" lon="11.8628371"><ele>855.0</ele><time>2026-05-01T09:59:48.239Z</time></trkpt><trkpt lat="43.8834937" lon="11.862911"><ele>852.0</ele><time>2026-05-01T09:59:49.241Z</time></trkpt><trkpt lat="43.8835392" lon="11.8629803"><ele>849.0</ele><time>2026-05-01T09:59:50.243Z</time></trkpt><trkpt lat="43.8835977" lon="11.8630394"><ele>846.0</ele><time>2026-05-01T09:59:51.239Z</time></trkpt><trkpt lat="43.8837097" lon="11.8630458"><ele>843.0</ele><time>2026-05-01T09:59:52.255Z</time></trkpt><trkpt lat="43.8837903" lon="11.8630406"><ele>843.0</ele><time>2026-05-01T09:59:53.248Z</time></trkpt><trkpt lat="43.8838728" lon="11.8630597"><ele>843.0</ele><time>2026-05-01T09:59:54.25Z</time></trkpt><trkpt lat="43.883958" lon="11.8631121"><ele>843.0</ele><time>2026-05-01T09:59:55.248Z</time></trkpt><trkpt lat="43.8840311" lon="11.8631624"><ele>843.0</ele><time>2026-05-01T09:59:56.237Z</time></trkpt><trkpt lat="43.8840985" lon="11.8632234"><ele>843.0</ele><time>2026-05-01T09:59:57.242Z</time></trkpt><trkpt lat="43.88416" lon="11.8632885"><ele>843.0</ele><time>2026-05-01T09:59:58.25Z</time></trkpt><trkpt lat="43.884218" lon="11.8634243"><ele>843.5999999999999</ele><time>2026-05-01T10:00:00.24Z</time></trkpt><trkpt lat="43.8842267" lon="11.8635737"><ele>844.1999999999999</ele><time>2026-05-01T10:00:02.24Z</time></trkpt><trkpt lat="43.8842055" lon="11.8636561"><ele>844.8</ele><time>2026-05-01T10:00:03.252Z</time></trkpt><trkpt lat="43.8841441" lon="11.8638126"><ele>845.4</ele><time>2026-05-01T10:00:05.238Z</time></trkpt><trkpt lat="43.8840999" lon="11.8639017"><ele>846.0</ele><time>2026-05-01T10:00:06.249Z</time></trkpt><trkpt lat="43.8840746" lon="11.8640052"><ele>846.0</ele><time>2026-05-01T10:00:07.242Z</time></trkpt><trkpt lat="43.8840546" lon="11.8641012"><ele>846.0</ele><time>2026-05-01T10:00:08.243Z</time></trkpt><trkpt lat="43.8840402" lon="11.8641942"><ele>846.0</ele><time>2026-05-01T10:00:09.239Z</time></trkpt><trkpt lat="43.8840948" lon="11.864294"><ele>846.0</ele><time>2026-05-01T10:00:10.242Z</time></trkpt><trkpt lat="43.8841455" lon="11.8643959"><ele>846.0</ele><time>2026-05-01T10:00:11.249Z</time></trkpt><trkpt lat="43.8841864" lon="11.8644946"><ele>846.0</ele><time>2026-05-01T10:00:12.252Z</time></trkpt><trkpt lat="43.8842195" lon="11.8646097"><ele>845.6666666666666</ele><time>2026-05-01T10:00:13.243Z</time></trkpt><trkpt lat="43.8842423" lon="11.8647218"><ele>845.3333333333333</ele><time>2026-05-01T10:00:14.24Z</time></trkpt><trkpt lat="43.8842614" lon="11.8648318"><ele>845.0</ele><time>2026-05-01T10:00:15.238Z</time></trkpt><trkpt lat="43.8842861" lon="11.8649261"><ele>844.6666666666666</ele><time>2026-05-01T10:00:16.243Z</time></trkpt><trkpt lat="43.8842938" lon="11.865038"><ele>844.3333333333333</ele><time>2026-05-01T10:00:17.251Z</time></trkpt><trkpt lat="43.8842848" lon="11.8651754"><ele>844.0</ele><time>2026-05-01T10:00:18.252Z</time></trkpt><trkpt lat="43.8842854" lon="11.8653172"><ele>843.4999999999999</ele><time>2026-05-01T10:00:19.252Z</time></trkpt><trkpt lat="43.8842685" lon="11.865448"><ele>843.0</ele><time>2026-05-01T10:00:20.252Z</time></trkpt><trkpt lat="43.8842447" lon="11.8655603"><ele>842.5</ele><time>2026-05-01T10:00:21.252Z</time></trkpt><trkpt lat="43.8842178" lon="11.8656843"><ele>842.0</ele><time>2026-05-01T10:00:22.238Z</time></trkpt><trkpt lat="43.8841877" lon="11.8658029"><ele>841.4999999999999</ele><time>2026-05-01T10:00:23.239Z</time></trkpt><trkpt lat="43.8841586" lon="11.8659096"><ele>841.0</ele><time>2026-05-01T10:00:24.249Z</time></trkpt><trkpt lat="43.8841404" lon="11.8660222"><ele>840.9999999999999</ele><time>2026-05-01T10:00:25.239Z</time></trkpt><trkpt lat="43.8841325" lon="11.8661305"><ele>841.0</ele><time>2026-05-01T10:00:26.243Z</time></trkpt><trkpt lat="43.8841288" lon="11.8662325"><ele>841.0</ele><time>2026-05-01T10:00:27.251Z</time></trkpt><trkpt lat="43.8841089" lon="11.8663251"><ele>841.0</ele><time>2026-05-01T10:00:28.239Z</time></trkpt><trkpt lat="43.8841199" lon="11.8664206"><ele>840.9999999999999</ele><time>2026-05-01T10:00:29.24Z</time></trkpt><trkpt lat="43.884183" lon="11.8665079"><ele>841.0</ele><time>2026-05-01T10:00:30.24Z</time></trkpt><trkpt lat="43.8842517" lon="11.866614"><ele>839.75</ele><time>2026-05-01T10:00:31.25Z</time></trkpt><trkpt lat="43.8843598" lon="11.8667205"><ele>838.5</ele><time>2026-05-01T10:00:32.239Z</time></trkpt><trkpt lat="43.8844881" lon="11.8667734"><ele>837.25</ele><time>2026-05-01T10:00:33.248Z</time></trkpt><trkpt lat="43.8845988" lon="11.8668263"><ele>836.0</ele><time>2026-05-01T10:00:34.246Z</time></trkpt><trkpt lat="43.8847043" lon="11.8668833"><ele>836.0000000000001</ele><time>2026-05-01T10:00:35.242Z</time></trkpt><trkpt lat="43.8848011" lon="11.8669488"><ele>836.0</ele><time>2026-05-01T10:00:36.253Z</time></trkpt><trkpt lat="43.8848869" lon="11.8669942"><ele>836.0</ele><time>2026-05-01T10:00:37.242Z</time></trkpt><trkpt lat="43.8849664" lon="11.8670446"><ele>836.0</ele><time>2026-05-01T10:00:38.247Z</time></trkpt><trkpt lat="43.8850376" lon="11.8670619"><ele>836.0000000000001</ele><time>2026-05-01T10:00:39.24Z</time></trkpt><trkpt lat="43.8851048" lon="11.8670541"><ele>836.0</ele><time>2026-05-01T10:00:40.243Z</time></trkpt><trkpt lat="43.885184" lon="11.8670293"><ele>837.4</ele><time>2026-05-01T10:00:41.243Z</time></trkpt><trkpt lat="43.8852689" lon="11.8669775"><ele>838.8</ele><time>2026-05-01T10:00:42.242Z</time></trkpt><trkpt lat="43.8853328" lon="11.8668404"><ele>840.1999999999999</ele><time>2026-05-01T10:00:43.243Z</time></trkpt><trkpt lat="43.8853849" lon="11.8667271"><ele>841.5999999999999</ele><time>2026-05-01T10:00:44.248Z</time></trkpt><trkpt lat="43.8854316" lon="11.8666317"><ele>843.0</ele><time>2026-05-01T10:00:45.253Z</time></trkpt><trkpt lat="43.8854861" lon="11.8665628"><ele>839.1428571428571</ele><time>2026-05-01T10:00:46.252Z</time></trkpt><trkpt lat="43.8855386" lon="11.866514"><ele>835.2857142857142</ele><time>2026-05-01T10:00:47.25Z</time></trkpt><trkpt lat="43.8855879" lon="11.8664588"><ele>831.4285714285714</ele><time>2026-05-01T10:00:48.249Z</time></trkpt><trkpt lat="43.8856555" lon="11.8664623"><ele>827.5714285714286</ele><time>2026-05-01T10:00:49.251Z</time></trkpt><trkpt lat="43.8857195" lon="11.8664849"><ele>823.7142857142858</ele><time>2026-05-01T10:00:50.25Z</time></trkpt><trkpt lat="43.885778" lon="11.866434"><ele>819.8571428571429</ele><time>2026-05-01T10:00:52.241Z</time></trkpt><trkpt lat="43.8858558" lon="11.8663643"><ele>816.0</ele><time>2026-05-01T10:00:54.255Z</time></trkpt><trkpt lat="43.8858813" lon="11.8661668"><ele>810.3333333333333</ele><time>2026-05-01T10:00:56.254Z</time></trkpt><trkpt lat="43.8858329" lon="11.8658162"><ele>804.6666666666666</ele><time>2026-05-01T10:01:00.246Z</time></trkpt><trkpt lat="43.8858402" lon="11.8656697"><ele>799.0</ele><time>2026-05-01T10:01:01.241Z</time></trkpt><trkpt lat="43.8858434" lon="11.8655482"><ele>798.9999999999999</ele><time>2026-05-01T10:01:02.252Z</time></trkpt><trkpt lat="43.8858398" lon="11.8654404"><ele>799.0</ele><time>2026-05-01T10:01:03.243Z</time></trkpt><trkpt lat="43.8857868" lon="11.8653532"><ele>799.0</ele><time>2026-05-01T10:01:04.236Z</time></trkpt><trkpt lat="43.8857332" lon="11.8652668"><ele>799.0</ele><time>2026-05-01T10:01:05.248Z</time></trkpt><trkpt lat="43.8856965" lon="11.8651664"><ele>798.9999999999999</ele><time>2026-05-01T10:01:06.25Z</time></trkpt><trkpt lat="43.8856754" lon="11.8650741"><ele>799.0</ele><time>2026-05-01T10:01:07.239Z</time></trkpt><trkpt lat="43.885733" lon="11.8649536"><ele>801.0</ele><time>2026-05-01T10:01:09.256Z</time></trkpt><trkpt lat="43.8857872" lon="11.864858"><ele>803.0</ele><time>2026-05-01T10:01:10.249Z</time></trkpt><trkpt lat="43.8858436" lon="11.8647594"><ele>805.0</ele><time>2026-05-01T10:01:11.25Z</time></trkpt><trkpt lat="43.8859153" lon="11.8646619"><ele>807.0</ele><time>2026-05-01T10:01:12.241Z</time></trkpt><trkpt lat="43.8859946" lon="11.8645925"><ele>809.0</ele><time>2026-05-01T10:01:13.24Z</time></trkpt><trkpt lat="43.8860726" lon="11.8644935"><ele>809.0</ele><time>2026-05-01T10:01:14.252Z</time></trkpt><trkpt lat="43.8861382" lon="11.8643722"><ele>809.0</ele><time>2026-05-01T10:01:15.236Z</time></trkpt><trkpt lat="43.8862141" lon="11.8642644"><ele>809.0</ele><time>2026-05-01T10:01:16.239Z</time></trkpt><trkpt lat="43.8862908" lon="11.8641833"><ele>809.0</ele><time>2026-05-01T10:01:17.25Z</time></trkpt><trkpt lat="43.886354" lon="11.8640967"><ele>809.0</ele><time>2026-05-01T10:01:18.236Z</time></trkpt><trkpt lat="43.8863789" lon="11.8639664"><ele>804.3333333333334</ele><time>2026-05-01T10:01:19.244Z</time></trkpt><trkpt lat="43.8863876" lon="11.8638523"><ele>799.6666666666667</ele><time>2026-05-01T10:01:20.25Z</time></trkpt><trkpt lat="43.8863987" lon="11.863758"><ele>795.0</ele><time>2026-05-01T10:01:21.237Z</time></trkpt><trkpt lat="43.8864492" lon="11.8636057"><ele>790.3333333333333</ele><time>2026-05-01T10:01:23.245Z</time></trkpt><trkpt lat="43.8865243" lon="11.8636622"><ele>785.6666666666666</ele><time>2026-05-01T10:01:25.253Z</time></trkpt><trkpt lat="43.8866103" lon="11.8636967"><ele>781.0</ele><time>2026-05-01T10:01:27.25Z</time></trkpt><trkpt lat="43.8866698" lon="11.8637915"><ele>780.9999999999999</ele><time>2026-05-01T10:01:28.241Z</time></trkpt><trkpt lat="43.8867209" lon="11.8638916"><ele>781.0</ele><time>2026-05-01T10:01:29.256Z</time></trkpt><trkpt lat="43.8867678" lon="11.8639722"><ele>781.0</ele><time>2026-05-01T10:01:30.256Z</time></trkpt><trkpt lat="43.8868264" lon="11.8640731"><ele>781.0</ele><time>2026-05-01T10:01:31.25Z</time></trkpt><trkpt lat="43.8868724" lon="11.8641761"><ele>780.9999999999999</ele><time>2026-05-01T10:01:32.243Z</time></trkpt><trkpt lat="43.8869224" lon="11.8642667"><ele>781.0</ele><time>2026-05-01T10:01:33.251Z</time></trkpt><trkpt lat="43.886987" lon="11.8643174"><ele>781.8</ele><time>2026-05-01T10:01:34.237Z</time></trkpt><trkpt lat="43.8870527" lon="11.8643446"><ele>782.5999999999999</ele><time>2026-05-01T10:01:35.25Z</time></trkpt><trkpt lat="43.8871659" lon="11.864369"><ele>783.4</ele><time>2026-05-01T10:01:37.24Z</time></trkpt><trkpt lat="43.8872473" lon="11.8642401"><ele>784.2</ele><time>2026-05-01T10:01:39.241Z</time></trkpt><trkpt lat="43.8872955" lon="11.8641584"><ele>785.0</ele><time>2026-05-01T10:01:41.235Z</time></trkpt><trkpt lat="43.8873238" lon="11.8640392"><ele>785.0</ele><time>2026-05-01T10:01:43.24Z</time></trkpt><trkpt lat="43.8873573" lon="11.8638724"><ele>785.0</ele><time>2026-05-01T10:01:45.239Z</time></trkpt><trkpt lat="43.8873788" lon="11.8637893"><ele>785.0</ele><time>2026-05-01T10:01:46.235Z</time></trkpt><trkpt lat="43.8873907" lon="11.8636991"><ele>785.0</ele><time>2026-05-01T10:01:47.238Z</time></trkpt><trkpt lat="43.8874289" lon="11.8635158"><ele>785.0</ele><time>2026-05-01T10:01:49.243Z</time></trkpt><trkpt lat="43.8874392" lon="11.8634052"><ele>782.4285714285714</ele><time>2026-05-01T10:01:50.236Z</time></trkpt><trkpt lat="43.887448" lon="11.8632984"><ele>779.8571428571428</ele><time>2026-05-01T10:01:51.237Z</time></trkpt><trkpt lat="43.8874567" lon="11.8631851"><ele>777.2857142857142</ele><time>2026-05-01T10:01:52.252Z</time></trkpt><trkpt lat="43.8874516" lon="11.8630903"><ele>774.7142857142858</ele><time>2026-05-01T10:01:53.251Z</time></trkpt><trkpt lat="43.8874406" lon="11.8629959"><ele>772.1428571428571</ele><time>2026-05-01T10:01:54.243Z</time></trkpt><trkpt lat="43.8874009" lon="11.8629086"><ele>769.5714285714286</ele><time>2026-05-01T10:01:55.251Z</time></trkpt><trkpt lat="43.8873528" lon="11.8628414"><ele>767.0</ele><time>2026-05-01T10:01:56.237Z</time></trkpt><trkpt lat="43.8872715" lon="11.8626853"><ele>765.4000000000001</ele><time>2026-05-01T10:01:58.24Z</time></trkpt><trkpt lat="43.8872085" lon="11.8625685"><ele>763.8000000000001</ele><time>2026-05-01T10:02:00.237Z</time></trkpt><trkpt lat="43.8871955" lon="11.862455"><ele>762.2</ele><time>2026-05-01T10:02:02.241Z</time></trkpt><trkpt lat="43.8872718" lon="11.8623887"><ele>760.6</ele><time>2026-05-01T10:02:03.252Z</time></trkpt><trkpt lat="43.8873911" lon="11.8623239"><ele>759.0</ele><time>2026-05-01T10:02:05.251Z</time></trkpt><trkpt lat="43.8874819" lon="11.8622847"><ele>759.0</ele><time>2026-05-01T10:02:06.236Z</time></trkpt><trkpt lat="43.8875635" lon="11.8622608"><ele>759.0</ele><time>2026-05-01T10:02:07.247Z</time></trkpt><trkpt lat="43.8876085" lon="11.8621159"><ele>759.0</ele><time>2026-05-01T10:02:09.238Z</time></trkpt><trkpt lat="43.8875882" lon="11.8620133"><ele>759.0</ele><time>2026-05-01T10:02:10.236Z</time></trkpt><trkpt lat="43.8875318" lon="11.8619201"><ele>759.0</ele><time>2026-05-01T10:02:11.238Z</time></trkpt><trkpt lat="43.8874027" lon="11.8617663"><ele>761.2</ele><time>2026-05-01T10:02:13.251Z</time></trkpt><trkpt lat="43.8873098" lon="11.861688"><ele>763.4000000000001</ele><time>2026-05-01T10:02:14.254Z</time></trkpt><trkpt lat="43.8872251" lon="11.8616247"><ele>765.6</ele><time>2026-05-01T10:02:15.246Z</time></trkpt><trkpt lat="43.8871356" lon="11.8615713"><ele>767.8</ele><time>2026-05-01T10:02:16.249Z</time></trkpt><trkpt lat="43.8870597" lon="11.861526"><ele>770.0</ele><time>2026-05-01T10:02:17.256Z</time></trkpt><trkpt lat="43.886975" lon="11.8615065"><ele>770.0</ele><time>2026-05-01T10:02:18.249Z</time></trkpt><trkpt lat="43.8869101" lon="11.861482"><ele>770.0</ele><time>2026-05-01T10:02:19.244Z</time></trkpt><trkpt lat="43.8868338" lon="11.8613955"><ele>770.0</ele><time>2026-05-01T10:02:21.245Z</time></trkpt><trkpt lat="43.8867966" lon="11.861234"><ele>770.0</ele><time>2026-05-01T10:02:23.239Z</time></trkpt><trkpt lat="43.8867708" lon="11.8611302"><ele>770.0</ele><time>2026-05-01T10:02:24.247Z</time></trkpt><trkpt lat="43.8866921" lon="11.8610196"><ele>765.0</ele><time>2026-05-01T10:02:25.25Z</time></trkpt><trkpt lat="43.8866249" lon="11.8609178"><ele>760.0</ele><time>2026-05-01T10:02:26.239Z</time></trkpt><trkpt lat="43.8865954" lon="11.8608047"><ele>755.0</ele><time>2026-05-01T10:02:27.249Z</time></trkpt><trkpt lat="43.8865849" lon="11.8606902"><ele>750.0</ele><time>2026-05-01T10:02:28.235Z</time></trkpt><trkpt lat="43.8865772" lon="11.8605666"><ele>745.0</ele><time>2026-05-01T10:02:29.25Z</time></trkpt><trkpt lat="43.8865556" lon="11.8604368"><ele>745.0</ele><time>2026-05-01T10:02:30.25Z</time></trkpt><trkpt lat="43.8865192" lon="11.8603221"><ele>745.0</ele><time>2026-05-01T10:02:31.237Z</time></trkpt><trkpt lat="43.8864803" lon="11.8602106"><ele>745.0</ele><time>2026-05-01T10:02:32.234Z</time></trkpt><trkpt lat="43.8864331" lon="11.8601073"><ele>745.0</ele><time>2026-05-01T10:02:33.24Z</time></trkpt><trkpt lat="43.8863909" lon="11.860011"><ele>745.0</ele><time>2026-05-01T10:02:34.251Z</time></trkpt><trkpt lat="43.8863506" lon="11.8599174"><ele>745.0</ele><time>2026-05-01T10:02:35.235Z</time></trkpt><trkpt lat="43.8863175" lon="11.8598139"><ele>746.6666666666667</ele><time>2026-05-01T10:02:36.24Z</time></trkpt><trkpt lat="43.8862966" lon="11.8596801"><ele>748.3333333333334</ele><time>2026-05-01T10:02:37.249Z</time></trkpt><trkpt lat="43.8862648" lon="11.8595722"><ele>750.0</ele><time>2026-05-01T10:02:38.249Z</time></trkpt><trkpt lat="43.8862272" lon="11.8594758"><ele>751.6666666666666</ele><time>2026-05-01T10:02:39.241Z</time></trkpt><trkpt lat="43.8861746" lon="11.8593885"><ele>753.3333333333333</ele><time>2026-05-01T10:02:40.241Z</time></trkpt><trkpt lat="43.8860944" lon="11.8593304"><ele>755.0</ele><time>2026-05-01T10:02:41.251Z</time></trkpt><trkpt lat="43.8860259" lon="11.8592717"><ele>758.0</ele><time>2026-05-01T10:02:42.255Z</time></trkpt><trkpt lat="43.885954" lon="11.8592101"><ele>761.0</ele><time>2026-05-01T10:02:43.233Z</time></trkpt><trkpt lat="43.8858654" lon="11.859125"><ele>764.0</ele><time>2026-05-01T10:02:44.251Z</time></trkpt><trkpt lat="43.8857671" lon="11.8590897"><ele>767.0</ele><time>2026-05-01T10:02:45.25Z</time></trkpt><trkpt lat="43.8857118" lon="11.8590045"><ele>770.0</ele><time>2026-05-01T10:02:46.251Z</time></trkpt><trkpt lat="43.8856221" lon="11.8588871"><ele>765.0</ele><time>2026-05-01T10:02:48.25Z</time></trkpt><trkpt lat="43.8856111" lon="11.8587997"><ele>760.0</ele><time>2026-05-01T10:02:49.254Z</time></trkpt><trkpt lat="43.885691" lon="11.8587335"><ele>755.0</ele><time>2026-05-01T10:02:50.255Z</time></trkpt><trkpt lat="43.8857184" lon="11.8585838"><ele>750.0</ele><time>2026-05-01T10:02:51.256Z</time></trkpt><trkpt lat="43.8857715" lon="11.8584832"><ele>745.0</ele><time>2026-05-01T10:02:52.255Z</time></trkpt><trkpt lat="43.8857583" lon="11.8582438"><ele>745.0</ele><time>2026-05-01T10:02:53.252Z</time></trkpt><trkpt lat="43.885758" lon="11.8580169"><ele>745.0</ele><time>2026-05-01T10:02:54.246Z</time></trkpt><trkpt lat="43.8857767" lon="11.857845"><ele>745.0</ele><time>2026-05-01T10:02:55.253Z</time></trkpt><trkpt lat="43.8857967" lon="11.8576811"><ele>745.0</ele><time>2026-05-01T10:02:56.253Z</time></trkpt><trkpt lat="43.8858074" lon="11.8575006"><ele>745.4</ele><time>2026-05-01T10:02:57.242Z</time></trkpt><trkpt lat="43.8858365" lon="11.8573338"><ele>745.8</ele><time>2026-05-01T10:02:58.247Z</time></trkpt><trkpt lat="43.885815" lon="11.8571861"><ele>746.2</ele><time>2026-05-01T10:02:59.251Z</time></trkpt><trkpt lat="43.8857899" lon="11.8570695"><ele>746.6</ele><time>2026-05-01T10:03:00.238Z</time></trkpt><trkpt lat="43.8857664" lon="11.856959"><ele>747.0</ele><time>2026-05-01T10:03:01.251Z</time></trkpt><trkpt lat="43.8857323" lon="11.8568237"><ele>748.3333333333334</ele><time>2026-05-01T10:03:02.238Z</time></trkpt><trkpt lat="43.885665" lon="11.8567133"><ele>749.6666666666666</ele><time>2026-05-01T10:03:03.248Z</time></trkpt><trkpt lat="43.8856076" lon="11.8566246"><ele>751.0</ele><time>2026-05-01T10:03:04.248Z</time></trkpt><trkpt lat="43.8855664" lon="11.8565353"><ele>752.3333333333333</ele><time>2026-05-01T10:03:05.25Z</time></trkpt><trkpt lat="43.8854852" lon="11.8564907"><ele>753.6666666666666</ele><time>2026-05-01T10:03:06.247Z</time></trkpt><trkpt lat="43.8853912" lon="11.8564754"><ele>755.0</ele><time>2026-05-01T10:03:07.242Z</time></trkpt><trkpt lat="43.8853118" lon="11.8564306"><ele>755.0</ele><time>2026-05-01T10:03:08.25Z</time></trkpt><trkpt lat="43.885237" lon="11.8563401"><ele>755.0</ele><time>2026-05-01T10:03:09.252Z</time></trkpt><trkpt lat="43.8851863" lon="11.8562532"><ele>755.0</ele><time>2026-05-01T10:03:10.253Z</time></trkpt><trkpt lat="43.8851232" lon="11.8561056"><ele>755.0</ele><time>2026-05-01T10:03:11.239Z</time></trkpt><trkpt lat="43.8850846" lon="11.8560045"><ele>755.0</ele><time>2026-05-01T10:03:12.256Z</time></trkpt><trkpt lat="43.8850556" lon="11.8558681"><ele>750.8</ele><time>2026-05-01T10:03:13.244Z</time></trkpt><trkpt lat="43.8850141" lon="11.8557643"><ele>746.6</ele><time>2026-05-01T10:03:14.242Z</time></trkpt><trkpt lat="43.8849556" lon="11.8556524"><ele>742.4000000000001</ele><time>2026-05-01T10:03:15.248Z</time></trkpt><trkpt lat="43.884919" lon="11.8555015"><ele>738.2</ele><time>2026-05-01T10:03:16.253Z</time></trkpt><trkpt lat="43.884847" lon="11.8554078"><ele>734.0</ele><time>2026-05-01T10:03:17.251Z</time></trkpt><trkpt lat="43.884787" lon="11.8552847"><ele>734.0</ele><time>2026-05-01T10:03:18.247Z</time></trkpt><trkpt lat="43.884722" lon="11.8552449"><ele>734.0</ele><time>2026-05-01T10:03:19.251Z</time></trkpt><trkpt lat="43.8846749" lon="11.8551636"><ele>734.0</ele><time>2026-05-01T10:03:20.237Z</time></trkpt><trkpt lat="43.8846387" lon="11.855057"><ele>734.0</ele><time>2026-05-01T10:03:21.24Z</time></trkpt><trkpt lat="43.8845803" lon="11.8549872"><ele>734.0</ele><time>2026-05-01T10:03:22.241Z</time></trkpt><trkpt lat="43.8845148" lon="11.8549106"><ele>734.0</ele><time>2026-05-01T10:03:23.242Z</time></trkpt><trkpt lat="43.8844606" lon="11.8548574"><ele>735.0</ele><time>2026-05-01T10:03:24.238Z</time></trkpt><trkpt lat="43.8844076" lon="11.8548042"><ele>736.0</ele><time>2026-05-01T10:03:25.236Z</time></trkpt><trkpt lat="43.88443" lon="11.854713"><ele>737.0</ele><time>2026-05-01T10:03:28.242Z</time></trkpt><trkpt lat="43.8845126" lon="11.85468"><ele>738.0</ele><time>2026-05-01T10:03:29.254Z</time></trkpt><trkpt lat="43.8845499" lon="11.8544842"><ele>739.0</ele><time>2026-05-01T10:03:32.254Z</time></trkpt><trkpt lat="43.8844476" lon="11.8543473"><ele>738.8000000000001</ele><time>2026-05-01T10:03:34.246Z</time></trkpt><trkpt lat="43.88441" lon="11.8542357"><ele>738.6</ele><time>2026-05-01T10:03:35.239Z</time></trkpt><trkpt lat="43.8843834" lon="11.8541062"><ele>738.4</ele><time>2026-05-01T10:03:36.25Z</time></trkpt><trkpt lat="43.8843443" lon="11.8539875"><ele>738.2</ele><time>2026-05-01T10:03:37.257Z</time></trkpt><trkpt lat="43.8843339" lon="11.8538518"><ele>738.0</ele><time>2026-05-01T10:03:38.257Z</time></trkpt><trkpt lat="43.8843276" lon="11.853741"><ele>738.0</ele><time>2026-05-01T10:03:39.243Z</time></trkpt><trkpt lat="43.8843085" lon="11.8536373"><ele>738.0</ele><time>2026-05-01T10:03:40.237Z</time></trkpt><trkpt lat="43.8843364" lon="11.8535075"><ele>738.0</ele><time>2026-05-01T10:03:41.243Z</time></trkpt><trkpt lat="43.8843153" lon="11.8532882"><ele>738.0</ele><time>2026-05-01T10:03:43.248Z</time></trkpt><trkpt lat="43.8842601" lon="11.8532128"><ele>738.0</ele><time>2026-05-01T10:03:44.242Z</time></trkpt><trkpt lat="43.8841688" lon="11.8530258"><ele>733.5</ele><time>2026-05-01T10:03:46.249Z</time></trkpt><trkpt lat="43.8840768" lon="11.8529813"><ele>729.0</ele><time>2026-05-01T10:03:47.244Z</time></trkpt><trkpt lat="43.8840025" lon="11.8529356"><ele>724.5</ele><time>2026-05-01T10:03:48.265Z</time></trkpt><trkpt lat="43.8839421" lon="11.8528693"><ele>720.0</ele><time>2026-05-01T10:03:49.251Z</time></trkpt><trkpt lat="43.883894" lon="11.8527884"><ele>715.5</ele><time>2026-05-01T10:03:50.255Z</time></trkpt><trkpt lat="43.8838414" lon="11.8527123"><ele>711.0</ele><time>2026-05-01T10:03:51.255Z</time></trkpt><trkpt lat="43.8838063" lon="11.852607"><ele>711.0</ele><time>2026-05-01T10:03:52.243Z</time></trkpt><trkpt lat="43.8837699" lon="11.852503"><ele>711.0</ele><time>2026-05-01T10:03:53.242Z</time></trkpt><trkpt lat="43.8837179" lon="11.8524027"><ele>711.0</ele><time>2026-05-01T10:03:54.255Z</time></trkpt><trkpt lat="43.8836452" lon="11.8523339"><ele>711.0</ele><time>2026-05-01T10:03:55.238Z</time></trkpt><trkpt lat="43.8836036" lon="11.8522388"><ele>711.0</ele><time>2026-05-01T10:03:56.245Z</time></trkpt><trkpt lat="43.8836146" lon="11.8521458"><ele>711.0</ele><time>2026-05-01T10:03:57.253Z</time></trkpt><trkpt lat="43.8836418" lon="11.8520534"><ele>711.0</ele><time>2026-05-01T10:03:58.24Z</time></trkpt><trkpt lat="43.8836908" lon="11.8519412"><ele>711.0</ele><time>2026-05-01T10:03:59.239Z</time></trkpt><trkpt lat="43.8837172" lon="11.8518456"><ele>711.0</ele><time>2026-05-01T10:04:00.252Z</time></trkpt><trkpt lat="43.883778" lon="11.8517182"><ele>711.0</ele><time>2026-05-01T10:04:01.246Z</time></trkpt><trkpt lat="43.8838389" lon="11.8516135"><ele>711.0</ele><time>2026-05-01T10:04:02.241Z</time></trkpt><trkpt lat="43.8839155" lon="11.8515228"><ele>710.1999999999999</ele><time>2026-05-01T10:04:03.255Z</time></trkpt><trkpt lat="43.8839586" lon="11.8513735"><ele>709.4</ele><time>2026-05-01T10:04:04.254Z</time></trkpt><trkpt lat="43.8839825" lon="11.8512523"><ele>708.6</ele><time>2026-05-01T10:04:05.251Z</time></trkpt><trkpt lat="43.8840082" lon="11.8511262"><ele>707.8</ele><time>2026-05-01T10:04:06.249Z</time></trkpt><trkpt lat="43.8840485" lon="11.8510022"><ele>707.0</ele><time>2026-05-01T10:04:07.253Z</time></trkpt><trkpt lat="43.884077" lon="11.8508835"><ele>705.4000000000001</ele><time>2026-05-01T10:04:08.237Z</time></trkpt><trkpt lat="43.8840957" lon="11.8507577"><ele>703.8000000000001</ele><time>2026-05-01T10:04:09.251Z</time></trkpt><trkpt lat="43.8841285" lon="11.8506459"><ele>702.2</ele><time>2026-05-01T10:04:10.238Z</time></trkpt><trkpt lat="43.8841599" lon="11.8505218"><ele>700.6</ele><time>2026-05-01T10:04:11.245Z</time></trkpt><trkpt lat="43.8841894" lon="11.8503885"><ele>699.0</ele><time>2026-05-01T10:04:12.244Z</time></trkpt><trkpt lat="43.8842225" lon="11.8502717"><ele>701.0</ele><time>2026-05-01T10:04:13.237Z</time></trkpt><trkpt lat="43.8842763" lon="11.8501906"><ele>703.0</ele><time>2026-05-01T10:04:14.247Z</time></trkpt><trkpt lat="43.8843195" lon="11.8500553"><ele>705.0</ele><time>2026-05-01T10:04:15.255Z</time></trkpt><trkpt lat="43.8843743" lon="11.8499413"><ele>707.0</ele><time>2026-05-01T10:04:16.24Z</time></trkpt><trkpt lat="43.8843489" lon="11.8498533"><ele>709.0</ele><time>2026-05-01T10:04:17.245Z</time></trkpt><trkpt lat="43.8843758" lon="11.8497307"><ele>711.0</ele><time>2026-05-01T10:04:18.254Z</time></trkpt><trkpt lat="43.8843653" lon="11.8496153"><ele>711.0</ele><time>2026-05-01T10:04:19.238Z</time></trkpt><trkpt lat="43.8843955" lon="11.849527"><ele>711.0</ele><time>2026-05-01T10:04:20.255Z</time></trkpt><trkpt lat="43.8844126" lon="11.8494362"><ele>711.0</ele><time>2026-05-01T10:04:21.254Z</time></trkpt><trkpt lat="43.8844795" lon="11.8493416"><ele>711.0</ele><time>2026-05-01T10:04:22.238Z</time></trkpt><trkpt lat="43.8845343" lon="11.8492451"><ele>711.0</ele><time>2026-05-01T10:04:23.247Z</time></trkpt><trkpt lat="43.8845853" lon="11.8491632"><ele>711.0</ele><time>2026-05-01T10:04:24.25Z</time></trkpt><trkpt lat="43.884657" lon="11.8490882"><ele>706.25</ele><time>2026-05-01T10:04:25.237Z</time></trkpt><trkpt lat="43.8846942" lon="11.8489156"><ele>701.5</ele><time>2026-05-01T10:04:27.25Z</time></trkpt><trkpt lat="43.8846752" lon="11.8487014"><ele>696.75</ele><time>2026-05-01T10:04:28.235Z</time></trkpt><trkpt lat="43.8846908" lon="11.8485366"><ele>692.0</ele><time>2026-05-01T10:04:29.256Z</time></trkpt><trkpt lat="43.884703" lon="11.8484027"><ele>690.8333333333333</ele><time>2026-05-01T10:04:30.238Z</time></trkpt><trkpt lat="43.8846833" lon="11.848286"><ele>689.6666666666666</ele><time>2026-05-01T10:04:31.237Z</time></trkpt><trkpt lat="43.8847169" lon="11.8481704"><ele>688.5</ele><time>2026-05-01T10:04:32.25Z</time></trkpt><trkpt lat="43.8847271" lon="11.8480549"><ele>687.3333333333334</ele><time>2026-05-01T10:04:33.25Z</time></trkpt><trkpt lat="43.8847332" lon="11.8479511"><ele>686.1666666666667</ele><time>2026-05-01T10:04:34.251Z</time></trkpt><trkpt lat="43.8847427" lon="11.847844"><ele>685.0</ele><time>2026-05-01T10:04:35.254Z</time></trkpt><trkpt lat="43.8847456" lon="11.8477383"><ele>685.0</ele><time>2026-05-01T10:04:36.246Z</time></trkpt><trkpt lat="43.8847609" lon="11.8476424"><ele>685.0</ele><time>2026-05-01T10:04:37.254Z</time></trkpt><trkpt lat="43.8847685" lon="11.8475504"><ele>685.0</ele><time>2026-05-01T10:04:38.249Z</time></trkpt><trkpt lat="43.884784" lon="11.8474385"><ele>685.0</ele><time>2026-05-01T10:04:39.255Z</time></trkpt><trkpt lat="43.8848041" lon="11.8473276"><ele>685.0</ele><time>2026-05-01T10:04:40.242Z</time></trkpt><trkpt lat="43.8848234" lon="11.8471882"><ele>685.0</ele><time>2026-05-01T10:04:41.245Z</time></trkpt><trkpt lat="43.8848328" lon="11.8470814"><ele>684.1666666666667</ele><time>2026-05-01T10:04:42.252Z</time></trkpt><trkpt lat="43.8848368" lon="11.8469781"><ele>683.3333333333334</ele><time>2026-05-01T10:04:43.251Z</time></trkpt><trkpt lat="43.8848539" lon="11.8468356"><ele>682.5</ele><time>2026-05-01T10:04:45.241Z</time></trkpt><trkpt lat="43.8847957" lon="11.8467708"><ele>681.6666666666666</ele><time>2026-05-01T10:04:47.251Z</time></trkpt><trkpt lat="43.8847727" lon="11.8466388"><ele>680.8333333333333</ele><time>2026-05-01T10:04:49.237Z</time></trkpt><trkpt lat="43.8847658" lon="11.8465363"><ele>680.0</ele><time>2026-05-01T10:04:51.247Z</time></trkpt><trkpt lat="43.8847605" lon="11.8463754"><ele>678.1666666666666</ele><time>2026-05-01T10:04:55.249Z</time></trkpt><trkpt lat="43.8847742" lon="11.8462092"><ele>676.3333333333333</ele><time>2026-05-01T10:04:57.259Z</time></trkpt><trkpt lat="43.8847982" lon="11.8461273"><ele>674.5</ele><time>2026-05-01T10:04:58.257Z</time></trkpt><trkpt lat="43.8848485" lon="11.8460468"><ele>672.6666666666666</ele><time>2026-05-01T10:04:59.256Z</time></trkpt><trkpt lat="43.884897" lon="11.8459635"><ele>670.8333333333334</ele><time>2026-05-01T10:05:00.254Z</time></trkpt><trkpt lat="43.8849255" lon="11.8458839"><ele>669.0</ele><time>2026-05-01T10:05:01.244Z</time></trkpt><trkpt lat="43.8849729" lon="11.845815"><ele>666.0</ele><time>2026-05-01T10:05:02.261Z</time></trkpt><trkpt lat="43.8850193" lon="11.8457198"><ele>663.0</ele><time>2026-05-01T10:05:03.242Z</time></trkpt><trkpt lat="43.8850767" lon="11.8456773"><ele>660.0</ele><time>2026-05-01T10:05:04.242Z</time></trkpt><trkpt lat="43.8851671" lon="11.8456262"><ele>657.0</ele><time>2026-05-01T10:05:06.24Z</time></trkpt><trkpt lat="43.8852511" lon="11.8456326"><ele>654.0</ele><time>2026-05-01T10:05:08.24Z</time></trkpt><trkpt lat="43.8853087" lon="11.8457216"><ele>651.0</ele><time>2026-05-01T10:05:11.255Z</time></trkpt><trkpt lat="43.8854261" lon="11.8458483"><ele>650.1666666666666</ele><time>2026-05-01T10:05:13.257Z</time></trkpt><trkpt lat="43.8855065" lon="11.8459095"><ele>649.3333333333334</ele><time>2026-05-01T10:05:14.26Z</time></trkpt><trkpt lat="43.8855752" lon="11.8459568"><ele>648.5</ele><time>2026-05-01T10:05:15.259Z</time></trkpt><trkpt lat="43.8856567" lon="11.8459807"><ele>647.6666666666667</ele><time>2026-05-01T10:05:16.24Z</time></trkpt><trkpt lat="43.8857381" lon="11.8459784"><ele>646.8333333333334</ele><time>2026-05-01T10:05:17.247Z</time></trkpt><trkpt lat="43.8858394" lon="11.8460368"><ele>646.0</ele><time>2026-05-01T10:05:18.258Z</time></trkpt><trkpt lat="43.8859688" lon="11.8459409"><ele>647.8333333333334</ele><time>2026-05-01T10:05:20.26Z</time></trkpt><trkpt lat="43.8860192" lon="11.8458559"><ele>649.6666666666667</ele><time>2026-05-01T10:05:21.257Z</time></trkpt><trkpt lat="43.8860587" lon="11.8457669"><ele>651.5</ele><time>2026-05-01T10:05:22.245Z</time></trkpt><trkpt lat="43.8860986" lon="11.8456822"><ele>653.3333333333334</ele><time>2026-05-01T10:05:23.253Z</time></trkpt><trkpt lat="43.8861167" lon="11.8455835"><ele>655.1666666666666</ele><time>2026-05-01T10:05:24.257Z</time></trkpt><trkpt lat="43.8861366" lon="11.8454783"><ele>657.0</ele><time>2026-05-01T10:05:25.257Z</time></trkpt><trkpt lat="43.8861741" lon="11.8453831"><ele>657.0</ele><time>2026-05-01T10:05:26.253Z</time></trkpt><trkpt lat="43.8862128" lon="11.8452871"><ele>657.0</ele><time>2026-05-01T10:05:27.251Z</time></trkpt><trkpt lat="43.88626" lon="11.8452054"><ele>657.0</ele><time>2026-05-01T10:05:28.238Z</time></trkpt><trkpt lat="43.8863191" lon="11.8451298"><ele>657.0</ele><time>2026-05-01T10:05:29.241Z</time></trkpt><trkpt lat="43.8863881" lon="11.8450675"><ele>657.0</ele><time>2026-05-01T10:05:30.246Z</time></trkpt><trkpt lat="43.8864543" lon="11.8450379"><ele>657.0</ele><time>2026-05-01T10:05:31.25Z</time></trkpt><trkpt lat="43.886519" lon="11.8449859"><ele>656.5</ele><time>2026-05-01T10:05:32.25Z</time></trkpt><trkpt lat="43.8865809" lon="11.8449422"><ele>656.0</ele><time>2026-05-01T10:05:33.246Z</time></trkpt><trkpt lat="43.8866513" lon="11.844864"><ele>655.5</ele><time>2026-05-01T10:05:34.239Z</time></trkpt><trkpt lat="43.8867253" lon="11.8447939"><ele>655.0</ele><time>2026-05-01T10:05:35.244Z</time></trkpt><trkpt lat="43.8868015" lon="11.8447253"><ele>654.5</ele><time>2026-05-01T10:05:36.241Z</time></trkpt><trkpt lat="43.886849" lon="11.8446419"><ele>654.0</ele><time>2026-05-01T10:05:37.248Z</time></trkpt><trkpt lat="43.8869073" lon="11.8445548"><ele>654.0</ele><time>2026-05-01T10:05:38.251Z</time></trkpt><trkpt lat="43.8869384" lon="11.8444559"><ele>654.0</ele><time>2026-05-01T10:05:39.247Z</time></trkpt><trkpt lat="43.8869811" lon="11.8443742"><ele>654.0</ele><time>2026-05-01T10:05:40.242Z</time></trkpt><trkpt lat="43.8870296" lon="11.8442851"><ele>654.0</ele><time>2026-05-01T10:05:41.247Z</time></trkpt><trkpt lat="43.8870755" lon="11.8441701"><ele>654.0</ele><time>2026-05-01T10:05:42.249Z</time></trkpt><trkpt lat="43.8871187" lon="11.8440715"><ele>654.0</ele><time>2026-05-01T10:05:43.248Z</time></trkpt><trkpt lat="43.8871772" lon="11.8439791"><ele>650.0</ele><time>2026-05-01T10:05:44.239Z</time></trkpt><trkpt lat="43.8872224" lon="11.8438875"><ele>646.0</ele><time>2026-05-01T10:05:45.25Z</time></trkpt><trkpt lat="43.8872748" lon="11.8437918"><ele>642.0</ele><time>2026-05-01T10:05:46.251Z</time></trkpt><trkpt lat="43.8873218" lon="11.8436808"><ele>638.0</ele><time>2026-05-01T10:05:47.254Z</time></trkpt><trkpt lat="43.8873772" lon="11.8436043"><ele>634.0</ele><time>2026-05-01T10:05:48.277Z</time></trkpt><trkpt lat="43.8874281" lon="11.8435276"><ele>630.0</ele><time>2026-05-01T10:05:49.235Z</time></trkpt><trkpt lat="43.887483" lon="11.8434436"><ele>626.0</ele><time>2026-05-01T10:05:50.236Z</time></trkpt><trkpt lat="43.8875361" lon="11.8433931"><ele>622.0</ele><time>2026-05-01T10:05:51.241Z</time></trkpt><trkpt lat="43.8875933" lon="11.8432924"><ele>618.0</ele><time>2026-05-01T10:05:53.253Z</time></trkpt><trkpt lat="43.8875328" lon="11.8432223"><ele>614.0</ele><time>2026-05-01T10:05:55.249Z</time></trkpt><trkpt lat="43.8874685" lon="11.843169"><ele>610.0</ele><time>2026-05-01T10:05:57.235Z</time></trkpt><trkpt lat="43.8874008" lon="11.843262"><ele>606.0</ele><time>2026-05-01T10:05:59.248Z</time></trkpt><trkpt lat="43.8873258" lon="11.8433548"><ele>606.0</ele><time>2026-05-01T10:06:00.248Z</time></trkpt><trkpt lat="43.8872058" lon="11.8434248"><ele>606.0</ele><time>2026-05-01T10:06:01.244Z</time></trkpt><trkpt lat="43.8871" lon="11.8434674"><ele>606.0</ele><time>2026-05-01T10:06:02.247Z</time></trkpt><trkpt lat="43.887011" lon="11.843513"><ele>606.0</ele><time>2026-05-01T10:06:03.247Z</time></trkpt><trkpt lat="43.8869314" lon="11.8435502"><ele>606.0</ele><time>2026-05-01T10:06:04.25Z</time></trkpt><trkpt lat="43.8868523" lon="11.8435792"><ele>607.3333333333334</ele><time>2026-05-01T10:06:05.238Z</time></trkpt><trkpt lat="43.8867729" lon="11.8436413"><ele>608.6666666666666</ele><time>2026-05-01T10:06:06.249Z</time></trkpt><trkpt lat="43.8866961" lon="11.8436636"><ele>610.0</ele><time>2026-05-01T10:06:07.24Z</time></trkpt><trkpt lat="43.8866124" lon="11.8437097"><ele>611.3333333333333</ele><time>2026-05-01T10:06:08.242Z</time></trkpt><trkpt lat="43.8865336" lon="11.8437498"><ele>612.6666666666666</ele><time>2026-05-01T10:06:09.241Z</time></trkpt><trkpt lat="43.8864687" lon="11.8438237"><ele>614.0</ele><time>2026-05-01T10:06:10.235Z</time></trkpt><trkpt lat="43.8864133" lon="11.8438871"><ele>614.0</ele><time>2026-05-01T10:06:11.249Z</time></trkpt><trkpt lat="43.8863583" lon="11.8439424"><ele>614.0</ele><time>2026-05-01T10:06:12.237Z</time></trkpt><trkpt lat="43.8863031" lon="11.8439965"><ele>614.0</ele><time>2026-05-01T10:06:13.245Z</time></trkpt><trkpt lat="43.8862469" lon="11.8440683"><ele>614.0</ele><time>2026-05-01T10:06:14.24Z</time></trkpt><trkpt lat="43.8861457" lon="11.8441393"><ele>614.0</ele><time>2026-05-01T10:06:15.235Z</time></trkpt><trkpt lat="43.8860831" lon="11.8441696"><ele>614.0</ele><time>2026-05-01T10:06:16.248Z</time></trkpt><trkpt lat="43.8859777" lon="11.8442175"><ele>611.6666666666666</ele><time>2026-05-01T10:06:18.24Z</time></trkpt><trkpt lat="43.8858656" lon="11.8441924"><ele>609.3333333333333</ele><time>2026-05-01T10:06:20.247Z</time></trkpt><trkpt lat="43.8857487" lon="11.8441347"><ele>607.0</ele><time>2026-05-01T10:06:22.237Z</time></trkpt><trkpt lat="43.8856828" lon="11.844112"><ele>604.6666666666666</ele><time>2026-05-01T10:06:23.237Z</time></trkpt><trkpt lat="43.8856116" lon="11.844107"><ele>602.3333333333334</ele><time>2026-05-01T10:06:24.246Z</time></trkpt><trkpt lat="43.8855476" lon="11.844124"><ele>600.0</ele><time>2026-05-01T10:06:25.24Z</time></trkpt><trkpt lat="43.8854202" lon="11.844149"><ele>600.0</ele><time>2026-05-01T10:06:27.237Z</time></trkpt><trkpt lat="43.8853432" lon="11.8441477"><ele>600.0</ele><time>2026-05-01T10:06:28.24Z</time></trkpt><trkpt lat="43.8852576" lon="11.8440974"><ele>600.0</ele><time>2026-05-01T10:06:29.236Z</time></trkpt><trkpt lat="43.8851722" lon="11.8440157"><ele>600.0</ele><time>2026-05-01T10:06:30.238Z</time></trkpt><trkpt lat="43.8851168" lon="11.8439154"><ele>600.0</ele><time>2026-05-01T10:06:31.249Z</time></trkpt><trkpt lat="43.8850547" lon="11.8438322"><ele>600.0</ele><time>2026-05-01T10:06:32.24Z</time></trkpt><trkpt lat="43.8849861" lon="11.8437728"><ele>600.0</ele><time>2026-05-01T10:06:33.242Z</time></trkpt><trkpt lat="43.8849164" lon="11.8437269"><ele>600.0</ele><time>2026-05-01T10:06:34.237Z</time></trkpt><trkpt lat="43.8848477" lon="11.8436839"><ele>600.0</ele><time>2026-05-01T10:06:35.249Z</time></trkpt><trkpt lat="43.8847891" lon="11.8436277"><ele>600.0</ele><time>2026-05-01T10:06:36.237Z</time></trkpt><trkpt lat="43.8847266" lon="11.8436498"><ele>600.0</ele><time>2026-05-01T10:06:37.245Z</time></trkpt><trkpt lat="43.8846128" lon="11.8437052"><ele>600.0</ele><time>2026-05-01T10:06:39.236Z</time></trkpt><trkpt lat="43.8845503" lon="11.8437856"><ele>600.0</ele><time>2026-05-01T10:06:40.249Z</time></trkpt><trkpt lat="43.8844927" lon="11.8438725"><ele>600.0</ele><time>2026-05-01T10:06:41.239Z</time></trkpt><trkpt lat="43.8844414" lon="11.8439495"><ele>600.0</ele><time>2026-05-01T10:06:42.238Z</time></trkpt><trkpt lat="43.8843956" lon="11.8440242"><ele>600.0</ele><time>2026-05-01T10:06:43.236Z</time></trkpt><trkpt lat="43.8843351" lon="11.8441039"><ele>600.0</ele><time>2026-05-01T10:06:44.242Z</time></trkpt><trkpt lat="43.8842295" lon="11.844173"><ele>599.6666666666666</ele><time>2026-05-01T10:06:46.238Z</time></trkpt><trkpt lat="43.884144" lon="11.8442508"><ele>599.3333333333334</ele><time>2026-05-01T10:06:48.24Z</time></trkpt><trkpt lat="43.8840975" lon="11.8443146"><ele>599.0</ele><time>2026-05-01T10:06:49.256Z</time></trkpt><trkpt lat="43.8840455" lon="11.8443811"><ele>598.6666666666667</ele><time>2026-05-01T10:06:50.236Z</time></trkpt><trkpt lat="43.8839908" lon="11.8444587"><ele>598.3333333333334</ele><time>2026-05-01T10:06:51.25Z</time></trkpt><trkpt lat="43.883943" lon="11.8445462"><ele>598.0</ele><time>2026-05-01T10:06:52.241Z</time></trkpt><trkpt lat="43.8838929" lon="11.8446166"><ele>598.0</ele><time>2026-05-01T10:06:53.244Z</time></trkpt><trkpt lat="43.883846" lon="11.844687"><ele>598.0</ele><time>2026-05-01T10:06:54.24Z</time></trkpt><trkpt lat="43.8837893" lon="11.8447609"><ele>598.0</ele><time>2026-05-01T10:06:55.25Z</time></trkpt><trkpt lat="43.8837314" lon="11.8448195"><ele>598.0</ele><time>2026-05-01T10:06:56.235Z</time></trkpt><trkpt lat="43.8836665" lon="11.8448757"><ele>598.0</ele><time>2026-05-01T10:06:57.232Z</time></trkpt><trkpt lat="43.8835995" lon="11.8449247"><ele>598.0</ele><time>2026-05-01T10:06:58.244Z</time></trkpt><trkpt lat="43.8835406" lon="11.844971"><ele>598.0</ele><time>2026-05-01T10:06:59.249Z</time></trkpt><trkpt lat="43.8834825" lon="11.8450049"><ele>592.4</ele><time>2026-05-01T10:07:00.238Z</time></trkpt><trkpt lat="43.8833586" lon="11.8450173"><ele>586.8</ele><time>2026-05-01T10:07:02.245Z</time></trkpt><trkpt lat="43.8832714" lon="11.8450039"><ele>581.2</ele><time>2026-05-01T10:07:03.24Z</time></trkpt><trkpt lat="43.8831677" lon="11.8450004"><ele>575.6</ele><time>2026-05-01T10:07:04.235Z</time></trkpt><trkpt lat="43.8830851" lon="11.8450273"><ele>570.0</ele><time>2026-05-01T10:07:05.233Z</time></trkpt><trkpt lat="43.8830087" lon="11.8450604"><ele>570.0</ele><time>2026-05-01T10:07:06.238Z</time></trkpt><trkpt lat="43.8829324" lon="11.8450903"><ele>570.0</ele><time>2026-05-01T10:07:07.24Z</time></trkpt><trkpt lat="43.8828285" lon="11.8451418"><ele>570.0</ele><time>2026-05-01T10:07:09.245Z</time></trkpt><trkpt lat="43.882764" lon="11.8451342"><ele>570.0</ele><time>2026-05-01T10:07:10.249Z</time></trkpt><trkpt lat="43.8827659" lon="11.8450312"><ele>570.0</ele><time>2026-05-01T10:07:14.245Z</time></trkpt><trkpt lat="43.8829088" lon="11.8449213"><ele>570.0</ele><time>2026-05-01T10:07:16.253Z</time></trkpt><trkpt lat="43.883017" lon="11.8448452"><ele>570.0</ele><time>2026-05-01T10:07:17.239Z</time></trkpt><trkpt lat="43.883118" lon="11.8447817"><ele>570.0</ele><time>2026-05-01T10:07:18.236Z</time></trkpt><trkpt lat="43.8831961" lon="11.8446768"><ele>570.0</ele><time>2026-05-01T10:07:19.235Z</time></trkpt><trkpt lat="43.8832477" lon="11.8445497"><ele>570.0</ele><time>2026-05-01T10:07:20.265Z</time></trkpt><trkpt lat="43.8832768" lon="11.8444301"><ele>570.0</ele><time>2026-05-01T10:07:21.24Z</time></trkpt><trkpt lat="43.8832934" lon="11.8443048"><ele>570.0</ele><time>2026-05-01T10:07:22.238Z</time></trkpt><trkpt lat="43.8833164" lon="11.8441769"><ele>570.0</ele><time>2026-05-01T10:07:23.24Z</time></trkpt><trkpt lat="43.8833459" lon="11.844061"><ele>570.0</ele><time>2026-05-01T10:07:24.253Z</time></trkpt><trkpt lat="43.8833862" lon="11.84396"><ele>570.0</ele><time>2026-05-01T10:07:25.251Z</time></trkpt><trkpt lat="43.8834341" lon="11.8438612"><ele>570.0</ele><time>2026-05-01T10:07:26.251Z</time></trkpt><trkpt lat="43.883511" lon="11.8437618"><ele>571.2</ele><time>2026-05-01T10:07:27.242Z</time></trkpt><trkpt lat="43.8835762" lon="11.8436776"><ele>572.4</ele><time>2026-05-01T10:07:28.248Z</time></trkpt><trkpt lat="43.8836343" lon="11.8435912"><ele>573.6</ele><time>2026-05-01T10:07:29.238Z</time></trkpt><trkpt lat="43.8837047" lon="11.8434603"><ele>574.8</ele><time>2026-05-01T10:07:30.248Z</time></trkpt><trkpt lat="43.883751" lon="11.8433512"><ele>576.0</ele><time>2026-05-01T10:07:31.251Z</time></trkpt><trkpt lat="43.8837916" lon="11.8432401"><ele>572.0</ele><time>2026-05-01T10:07:32.239Z</time></trkpt><trkpt lat="43.8838303" lon="11.8431136"><ele>568.0</ele><time>2026-05-01T10:07:33.238Z</time></trkpt><trkpt lat="43.8838644" lon="11.8429977"><ele>564.0</ele><time>2026-05-01T10:07:34.238Z</time></trkpt><trkpt lat="43.8839248" lon="11.842914"><ele>560.0</ele><time>2026-05-01T10:07:35.242Z</time></trkpt><trkpt lat="43.8839802" lon="11.8428316"><ele>556.0</ele><time>2026-05-01T10:07:36.235Z</time></trkpt><trkpt lat="43.884025" lon="11.8427471"><ele>552.0</ele><time>2026-05-01T10:07:37.237Z</time></trkpt><trkpt lat="43.8840931" lon="11.8427143"><ele>552.0</ele><time>2026-05-01T10:07:38.248Z</time></trkpt><trkpt lat="43.8841755" lon="11.84268"><ele>552.0</ele><time>2026-05-01T10:07:39.241Z</time></trkpt><trkpt lat="43.8842389" lon="11.8426235"><ele>552.0</ele><time>2026-05-01T10:07:40.238Z</time></trkpt><trkpt lat="43.8842951" lon="11.8425715"><ele>552.0</ele><time>2026-05-01T10:07:41.239Z</time></trkpt><trkpt lat="43.8843851" lon="11.8425299"><ele>552.0</ele><time>2026-05-01T10:07:42.239Z</time></trkpt><trkpt lat="43.8844653" lon="11.8424992"><ele>552.0</ele><time>2026-05-01T10:07:43.247Z</time></trkpt><trkpt lat="43.8845411" lon="11.8424858"><ele>548.4</ele><time>2026-05-01T10:07:44.253Z</time></trkpt><trkpt lat="43.8846258" lon="11.842444"><ele>544.8000000000001</ele><time>2026-05-01T10:07:45.248Z</time></trkpt><trkpt lat="43.8847067" lon="11.8423757"><ele>541.2</ele><time>2026-05-01T10:07:46.243Z</time></trkpt><trkpt lat="43.8847835" lon="11.8423079"><ele>537.6</ele><time>2026-05-01T10:07:47.247Z</time></trkpt><trkpt lat="43.8848707" lon="11.8422275"><ele>534.0</ele><time>2026-05-01T10:07:48.24Z</time></trkpt><trkpt lat="43.8849109" lon="11.8421333"><ele>534.0</ele><time>2026-05-01T10:07:49.234Z</time></trkpt><trkpt lat="43.8849505" lon="11.8420236"><ele>534.0</ele><time>2026-05-01T10:07:50.25Z</time></trkpt><trkpt lat="43.8849956" lon="11.8419056"><ele>534.0</ele><time>2026-05-01T10:07:51.243Z</time></trkpt><trkpt lat="43.8850044" lon="11.8418"><ele>534.0</ele><time>2026-05-01T10:07:52.247Z</time></trkpt><trkpt lat="43.8850196" lon="11.8416837"><ele>534.0</ele><time>2026-05-01T10:07:53.237Z</time></trkpt><trkpt lat="43.8850261" lon="11.8415751"><ele>534.0</ele><time>2026-05-01T10:07:54.243Z</time></trkpt><trkpt lat="43.8850244" lon="11.8414671"><ele>532.0</ele><time>2026-05-01T10:07:55.237Z</time></trkpt><trkpt lat="43.8850273" lon="11.8413454"><ele>530.0</ele><time>2026-05-01T10:07:56.255Z</time></trkpt><trkpt lat="43.8850426" lon="11.8412343"><ele>528.0</ele><time>2026-05-01T10:07:57.252Z</time></trkpt><trkpt lat="43.8850649" lon="11.8411224"><ele>526.0</ele><time>2026-05-01T10:07:58.234Z</time></trkpt><trkpt lat="43.8850954" lon="11.8410249"><ele>524.0</ele><time>2026-05-01T10:07:59.246Z</time></trkpt><trkpt lat="43.8851539" lon="11.8408938"><ele>522.0</ele><time>2026-05-01T10:08:00.246Z</time></trkpt><trkpt lat="43.885189" lon="11.8407866"><ele>522.0</ele><time>2026-05-01T10:08:01.236Z</time></trkpt><trkpt lat="43.8852521" lon="11.8406401"><ele>522.0</ele><time>2026-05-01T10:08:02.245Z</time></trkpt><trkpt lat="43.8853054" lon="11.8405321"><ele>522.0</ele><time>2026-05-01T10:08:03.247Z</time></trkpt><trkpt lat="43.8853638" lon="11.8404384"><ele>522.0</ele><time>2026-05-01T10:08:04.249Z</time></trkpt><trkpt lat="43.885442" lon="11.8403229"><ele>522.0</ele><time>2026-05-01T10:08:05.237Z</time></trkpt><trkpt lat="43.8855196" lon="11.8402737"><ele>522.0</ele><time>2026-05-01T10:08:06.239Z</time></trkpt><trkpt lat="43.8856011" lon="11.8401957"><ele>522.0</ele><time>2026-05-01T10:08:07.254Z</time></trkpt><trkpt lat="43.8856772" lon="11.8401406"><ele>522.0</ele><time>2026-05-01T10:08:08.239Z</time></trkpt><trkpt lat="43.8857506" lon="11.8400562"><ele>522.0</ele><time>2026-05-01T10:08:09.241Z</time></trkpt><trkpt lat="43.8858056" lon="11.8399902"><ele>522.0</ele><time>2026-05-01T10:08:10.238Z</time></trkpt><trkpt lat="43.8858174" lon="11.8398367"><ele>518.6</ele><time>2026-05-01T10:08:12.241Z</time></trkpt><trkpt lat="43.8858043" lon="11.8397326"><ele>515.2</ele><time>2026-05-01T10:08:14.239Z</time></trkpt><trkpt lat="43.8856907" lon="11.8397004"><ele>511.8</ele><time>2026-05-01T10:08:15.248Z</time></trkpt><trkpt lat="43.8856119" lon="11.8396957"><ele>508.4</ele><time>2026-05-01T10:08:16.237Z</time></trkpt><trkpt lat="43.8855218" lon="11.8396992"><ele>505.0</ele><time>2026-05-01T10:08:17.243Z</time></trkpt><trkpt lat="43.885402" lon="11.8397119"><ele>505.0</ele><time>2026-05-01T10:08:18.241Z</time></trkpt><trkpt lat="43.8852862" lon="11.8397436"><ele>505.0</ele><time>2026-05-01T10:08:19.249Z</time></trkpt><trkpt lat="43.885177" lon="11.8397492"><ele>505.0</ele><time>2026-05-01T10:08:20.25Z</time></trkpt><trkpt lat="43.8850816" lon="11.8398162"><ele>505.0</ele><time>2026-05-01T10:08:21.235Z</time></trkpt><trkpt lat="43.8849892" lon="11.8398907"><ele>505.0</ele><time>2026-05-01T10:08:22.256Z</time></trkpt><trkpt lat="43.8848916" lon="11.8399791"><ele>506.0</ele><time>2026-05-01T10:08:23.249Z</time></trkpt><trkpt lat="43.8847936" lon="11.8400587"><ele>507.0</ele><time>2026-05-01T10:08:24.24Z</time></trkpt><trkpt lat="43.8846877" lon="11.8401531"><ele>508.0</ele><time>2026-05-01T10:08:25.249Z</time></trkpt><trkpt lat="43.8845868" lon="11.8402361"><ele>509.0</ele><time>2026-05-01T10:08:26.24Z</time></trkpt><trkpt lat="43.8845002" lon="11.8403291"><ele>508.99999999999994</ele><time>2026-05-01T10:08:27.242Z</time></trkpt><trkpt lat="43.8844128" lon="11.840424"><ele>509.0</ele><time>2026-05-01T10:08:28.235Z</time></trkpt><trkpt lat="43.8843475" lon="11.8404797"><ele>509.0</ele><time>2026-05-01T10:08:29.243Z</time></trkpt><trkpt lat="43.8842742" lon="11.840548"><ele>509.0</ele><time>2026-05-01T10:08:30.24Z</time></trkpt><trkpt lat="43.8841918" lon="11.8405587"><ele>508.99999999999994</ele><time>2026-05-01T10:08:32.25Z</time></trkpt><trkpt lat="43.8841318" lon="11.840521"><ele>509.0</ele><time>2026-05-01T10:08:34.241Z</time></trkpt><trkpt lat="43.884148" lon="11.8403598"><ele>509.0</ele><time>2026-05-01T10:08:36.237Z</time></trkpt><trkpt lat="43.884244" lon="11.8402498"><ele>509.0</ele><time>2026-05-01T10:08:37.238Z</time></trkpt><trkpt lat="43.8843117" lon="11.8401585"><ele>509.0</ele><time>2026-05-01T10:08:38.236Z</time></trkpt><trkpt lat="43.884358" lon="11.8400868"><ele>509.0</ele><time>2026-05-01T10:08:39.24Z</time></trkpt><trkpt lat="43.8844281" lon="11.8400054"><ele>509.0</ele><time>2026-05-01T10:08:40.238Z</time></trkpt><trkpt lat="43.8844761" lon="11.8399008"><ele>505.79999999999995</ele><time>2026-05-01T10:08:41.239Z</time></trkpt><trkpt lat="43.884518" lon="11.8398169"><ele>502.59999999999997</ele><time>2026-05-01T10:08:42.236Z</time></trkpt><trkpt lat="43.8845497" lon="11.8397001"><ele>499.4</ele><time>2026-05-01T10:08:43.252Z</time></trkpt><trkpt lat="43.8845801" lon="11.8395633"><ele>496.2</ele><time>2026-05-01T10:08:44.243Z</time></trkpt><trkpt lat="43.8846108" lon="11.8394366"><ele>493.0</ele><time>2026-05-01T10:08:45.25Z</time></trkpt><trkpt lat="43.884651" lon="11.8393068"><ele>489.0</ele><time>2026-05-01T10:08:46.235Z</time></trkpt><trkpt lat="43.8847128" lon="11.8391807"><ele>484.99999999999994</ele><time>2026-05-01T10:08:47.238Z</time></trkpt><trkpt lat="43.8847774" lon="11.8390678"><ele>480.99999999999994</ele><time>2026-05-01T10:08:48.242Z</time></trkpt><trkpt lat="43.8848445" lon="11.8389618"><ele>477.0</ele><time>2026-05-01T10:08:49.241Z</time></trkpt><trkpt lat="43.884923" lon="11.8388755"><ele>473.0</ele><time>2026-05-01T10:08:50.243Z</time></trkpt><trkpt lat="43.8850369" lon="11.8388015"><ele>474.4</ele><time>2026-05-01T10:08:51.236Z</time></trkpt><trkpt lat="43.885152" lon="11.838753"><ele>475.79999999999995</ele><time>2026-05-01T10:08:52.25Z</time></trkpt><trkpt lat="43.8852589" lon="11.8387089"><ele>477.2</ele><time>2026-05-01T10:08:53.251Z</time></trkpt><trkpt lat="43.8853427" lon="11.8386734"><ele>478.6</ele><time>2026-05-01T10:08:54.237Z</time></trkpt><trkpt lat="43.8854158" lon="11.8386487"><ele>480.0</ele><time>2026-05-01T10:08:55.245Z</time></trkpt><trkpt lat="43.885505" lon="11.8386088"><ele>480.0</ele><time>2026-05-01T10:08:56.247Z</time></trkpt><trkpt lat="43.8855384" lon="11.8385137"><ele>480.0</ele><time>2026-05-01T10:08:58.236Z</time></trkpt><trkpt lat="43.8854153" lon="11.8384198"><ele>480.0</ele><time>2026-05-01T10:09:00.237Z</time></trkpt><trkpt lat="43.8852505" lon="11.8384033"><ele>480.0</ele><time>2026-05-01T10:09:02.25Z</time></trkpt><trkpt lat="43.8851234" lon="11.8384257"><ele>473.4</ele><time>2026-05-01T10:09:03.237Z</time></trkpt><trkpt lat="43.8850106" lon="11.8384319"><ele>466.8</ele><time>2026-05-01T10:09:04.248Z</time></trkpt><trkpt lat="43.8849083" lon="11.8384279"><ele>460.20000000000005</ele><time>2026-05-01T10:09:05.249Z</time></trkpt><trkpt lat="43.8848138" lon="11.8384223"><ele>453.6</ele><time>2026-05-01T10:09:06.233Z</time></trkpt><trkpt lat="43.8847335" lon="11.8384277"><ele>447.0</ele><time>2026-05-01T10:09:07.246Z</time></trkpt><trkpt lat="43.8846376" lon="11.8384193"><ele>447.0</ele><time>2026-05-01T10:09:08.244Z</time></trkpt><trkpt lat="43.884565" lon="11.8384092"><ele>447.0</ele><time>2026-05-01T10:09:09.237Z</time></trkpt><trkpt lat="43.8844905" lon="11.8383961"><ele>447.0</ele><time>2026-05-01T10:09:10.241Z</time></trkpt><trkpt lat="43.8844211" lon="11.8383275"><ele>447.0</ele><time>2026-05-01T10:09:12.237Z</time></trkpt><trkpt lat="43.8845017" lon="11.8382503"><ele>447.0</ele><time>2026-05-01T10:09:13.242Z</time></trkpt><trkpt lat="43.8845814" lon="11.8381392"><ele>447.0</ele><time>2026-05-01T10:09:15.251Z</time></trkpt><trkpt lat="43.884671" lon="11.8381213"><ele>447.0</ele><time>2026-05-01T10:09:16.247Z</time></trkpt><trkpt lat="43.8847472" lon="11.8380866"><ele>447.0</ele><time>2026-05-01T10:09:17.25Z</time></trkpt><trkpt lat="43.8849186" lon="11.8380266"><ele>447.0</ele><time>2026-05-01T10:09:18.239Z</time></trkpt><trkpt lat="43.8850464" lon="11.8379699"><ele>447.0</ele><time>2026-05-01T10:09:19.239Z</time></trkpt><trkpt lat="43.8851506" lon="11.8379296"><ele>446.5</ele><time>2026-05-01T10:09:20.249Z</time></trkpt><trkpt lat="43.8852438" lon="11.8379138"><ele>446.0</ele><time>2026-05-01T10:09:21.251Z</time></trkpt><trkpt lat="43.8853278" lon="11.8379092"><ele>445.5</ele><time>2026-05-01T10:09:22.238Z</time></trkpt><trkpt lat="43.8854271" lon="11.8379124"><ele>445.0</ele><time>2026-05-01T10:09:23.239Z</time></trkpt><trkpt lat="43.8855004" lon="11.8379386"><ele>444.5</ele><time>2026-05-01T10:09:24.247Z</time></trkpt><trkpt lat="43.885572" lon="11.8379594"><ele>444.0</ele><time>2026-05-01T10:09:25.243Z</time></trkpt><trkpt lat="43.8856384" lon="11.8379862"><ele>444.0</ele><time>2026-05-01T10:09:26.239Z</time></trkpt><trkpt lat="43.8857061" lon="11.8379104"><ele>444.0</ele><time>2026-05-01T10:09:28.24Z</time></trkpt><trkpt lat="43.8857041" lon="11.8377971"><ele>444.0</ele><time>2026-05-01T10:09:30.25Z</time></trkpt><trkpt lat="43.885567" lon="11.8377329"><ele>444.0</ele><time>2026-05-01T10:09:32.242Z</time></trkpt><trkpt lat="43.8854554" lon="11.8376948"><ele>444.0</ele><time>2026-05-01T10:09:33.247Z</time></trkpt><trkpt lat="43.8853511" lon="11.8376795"><ele>444.0</ele><time>2026-05-01T10:09:34.249Z</time></trkpt><trkpt lat="43.8852677" lon="11.8377322"><ele>444.0</ele><time>2026-05-01T10:09:35.256Z</time></trkpt><trkpt lat="43.8851903" lon="11.8377182"><ele>444.0</ele><time>2026-05-01T10:09:36.25Z</time></trkpt><trkpt lat="43.8851081" lon="11.8377173"><ele>444.0</ele><time>2026-05-01T10:09:37.255Z</time></trkpt><trkpt lat="43.8850458" lon="11.8376967"><ele>444.0</ele><time>2026-05-01T10:09:38.254Z</time></trkpt><trkpt lat="43.8850225" lon="11.8374491"><ele>441.2</ele><time>2026-05-01T10:09:39.24Z</time></trkpt><trkpt lat="43.8849734" lon="11.8372089"><ele>438.4</ele><time>2026-05-01T10:09:41.239Z</time></trkpt><trkpt lat="43.8850214" lon="11.8371433"><ele>435.6</ele><time>2026-05-01T10:09:42.239Z</time></trkpt><trkpt lat="43.8850746" lon="11.8370685"><ele>432.8</ele><time>2026-05-01T10:09:43.235Z</time></trkpt><trkpt lat="43.8851395" lon="11.8369748"><ele>430.0</ele><time>2026-05-01T10:09:44.24Z</time></trkpt><trkpt lat="43.8852342" lon="11.8369116"><ele>429.83333333333337</ele><time>2026-05-01T10:09:46.245Z</time></trkpt><trkpt lat="43.8852211" lon="11.8368136"><ele>429.6666666666667</ele><time>2026-05-01T10:09:47.237Z</time></trkpt><trkpt lat="43.8851776" lon="11.8367093"><ele>429.5</ele><time>2026-05-01T10:09:48.25Z</time></trkpt><trkpt lat="43.8851105" lon="11.8366019"><ele>429.33333333333337</ele><time>2026-05-01T10:09:49.25Z</time></trkpt><trkpt lat="43.8850785" lon="11.8364983"><ele>429.1666666666667</ele><time>2026-05-01T10:09:50.249Z</time></trkpt><trkpt lat="43.885023" lon="11.8364488"><ele>429.0</ele><time>2026-05-01T10:09:51.235Z</time></trkpt><trkpt lat="43.8849531" lon="11.8363991"><ele>429.0</ele><time>2026-05-01T10:09:52.239Z</time></trkpt><trkpt lat="43.88489" lon="11.8362734"><ele>429.0</ele><time>2026-05-01T10:09:54.242Z</time></trkpt><trkpt lat="43.8849163" lon="11.8361313"><ele>429.0</ele><time>2026-05-01T10:09:56.252Z</time></trkpt><trkpt lat="43.8849378" lon="11.8359802"><ele>429.0</ele><time>2026-05-01T10:09:58.256Z</time></trkpt><trkpt lat="43.8848137" lon="11.8359795"><ele>429.0</ele><time>2026-05-01T10:10:02.245Z</time></trkpt><trkpt lat="43.8846886" lon="11.8360574"><ele>429.0</ele><time>2026-05-01T10:10:04.24Z</time></trkpt><trkpt lat="43.884587" lon="11.8360596"><ele>429.0</ele><time>2026-05-01T10:10:08.241Z</time></trkpt><trkpt lat="43.8845319" lon="11.8359157"><ele>429.0</ele><time>2026-05-01T10:10:10.249Z</time></trkpt><trkpt lat="43.8845804" lon="11.8358195"><ele>429.0</ele><time>2026-05-01T10:10:11.244Z</time></trkpt><trkpt lat="43.8846637" lon="11.8356706"><ele>428.4</ele><time>2026-05-01T10:10:13.253Z</time></trkpt><trkpt lat="43.8847153" lon="11.8355594"><ele>427.79999999999995</ele><time>2026-05-01T10:10:15.248Z</time></trkpt><trkpt lat="43.8847734" lon="11.8354684"><ele>427.20000000000005</ele><time>2026-05-01T10:10:17.256Z</time></trkpt><trkpt lat="43.8848399" lon="11.835375"><ele>426.6</ele><time>2026-05-01T10:10:19.255Z</time></trkpt><trkpt lat="43.8849341" lon="11.8352466"><ele>426.0</ele><time>2026-05-01T10:10:26.242Z</time></trkpt><trkpt lat="43.8849986" lon="11.835162"><ele>426.1666666666667</ele><time>2026-05-01T10:10:30.252Z</time></trkpt><trkpt lat="43.8850721" lon="11.8351194"><ele>426.33333333333337</ele><time>2026-05-01T10:10:33.242Z</time></trkpt><trkpt lat="43.8851459" lon="11.835121"><ele>426.5</ele><time>2026-05-01T10:10:42.243Z</time></trkpt><trkpt lat="43.8851927" lon="11.835192"><ele>426.6666666666667</ele><time>2026-05-01T10:10:47.244Z</time></trkpt><trkpt lat="43.8852689" lon="11.8352793"><ele>426.83333333333337</ele><time>2026-05-01T10:10:49.256Z</time></trkpt><trkpt lat="43.8853421" lon="11.8353846"><ele>427.0</ele><time>2026-05-01T10:10:50.253Z</time></trkpt><trkpt lat="43.8853845" lon="11.8354526"><ele>427.00000000000006</ele><time>2026-05-01T10:10:51.253Z</time></trkpt><trkpt lat="43.8854352" lon="11.8355892"><ele>427.0</ele><time>2026-05-01T10:10:53.255Z</time></trkpt><trkpt lat="43.8854729" lon="11.8357282"><ele>427.0</ele><time>2026-05-01T10:10:55.256Z</time></trkpt><trkpt lat="43.8855016" lon="11.8358175"><ele>427.0</ele><time>2026-05-01T10:11:07.241Z</time></trkpt><trkpt lat="43.8855261" lon="11.8359026"><ele>427.00000000000006</ele><time>2026-05-01T10:11:42.262Z</time></trkpt><trkpt lat="43.885591" lon="11.8358979"><ele>427.0</ele><time>2026-05-01T10:12:19.241Z</time></trkpt><trkpt lat="43.885592" lon="11.8358089"><ele>427.0</ele><time>2026-05-01T10:12:23.259Z</time></trkpt><trkpt lat="43.8855461" lon="11.8356955"><ele>427.00000000000006</ele><time>2026-05-01T10:12:25.257Z</time></trkpt><trkpt lat="43.8854678" lon="11.8355633"><ele>427.00000000000006</ele><time>2026-05-01T10:12:27.258Z</time></trkpt><trkpt lat="43.8854344" lon="11.8354434"><ele>427.0</ele><time>2026-05-01T10:12:28.258Z</time></trkpt><trkpt lat="43.8853746" lon="11.8352914"><ele>427.0</ele><time>2026-05-01T10:12:30.259Z</time></trkpt><trkpt lat="43.8854439" lon="11.8352459"><ele>427.0</ele><time>2026-05-01T10:12:35.25Z</time></trkpt><trkpt lat="43.8855297" lon="11.8352805"><ele>427.00000000000006</ele><time>2026-05-01T10:12:37.259Z</time></trkpt><trkpt lat="43.8856041" lon="11.8353373"><ele>427.00000000000006</ele><time>2026-05-01T10:12:39.25Z</time></trkpt><trkpt lat="43.8856864" lon="11.835386"><ele>427.0</ele><time>2026-05-01T10:12:42.258Z</time></trkpt><trkpt lat="43.8857336" lon="11.8354541"><ele>427.0</ele><time>2026-05-01T10:12:44.242Z</time></trkpt><trkpt lat="43.8858677" lon="11.8355564"><ele>427.50000000000006</ele><time>2026-05-01T10:13:12.25Z</time></trkpt><trkpt lat="43.8859301" lon="11.835673"><ele>428.0</ele><time>2026-05-01T10:13:14.256Z</time></trkpt><trkpt lat="43.8859898" lon="11.8357765"><ele>428.5</ele><time>2026-05-01T10:13:16.255Z</time></trkpt><trkpt lat="43.8860194" lon="11.8358625"><ele>429.0</ele><time>2026-05-01T10:13:17.248Z</time></trkpt><trkpt lat="43.8860084" lon="11.8359746"><ele>429.50000000000006</ele><time>2026-05-01T10:13:20.246Z</time></trkpt><trkpt lat="43.886008" lon="11.8360991"><ele>430.0</ele><time>2026-05-01T10:13:22.256Z</time></trkpt><trkpt lat="43.8860016" lon="11.836229"><ele>430.0</ele><time>2026-05-01T10:13:24.245Z</time></trkpt><trkpt lat="43.886015" lon="11.8363931"><ele>430.0</ele><time>2026-05-01T10:13:26.245Z</time></trkpt><trkpt lat="43.8860736" lon="11.8364787"><ele>430.0</ele><time>2026-05-01T10:13:28.257Z</time></trkpt><trkpt lat="43.8861731" lon="11.8365373"><ele>430.0</ele><time>2026-05-01T10:13:30.254Z</time></trkpt><trkpt lat="43.8862517" lon="11.8365014"><ele>430.0</ele><time>2026-05-01T10:13:32.254Z</time></trkpt><trkpt lat="43.8863097" lon="11.836558"><ele>430.00000000000006</ele><time>2026-05-01T10:13:35.26Z</time></trkpt><trkpt lat="43.8862469" lon="11.8365447"><ele>430.0</ele><time>2026-05-01T10:13:36.258Z</time></trkpt><trkpt lat="43.8861833" lon="11.8365506"><ele>430.0</ele><time>2026-05-01T10:13:38.252Z</time></trkpt><trkpt lat="43.8860614" lon="11.8364994"><ele>430.0</ele><time>2026-05-01T10:13:40.25Z</time></trkpt><trkpt lat="43.8859968" lon="11.8364581"><ele>430.00000000000006</ele><time>2026-05-01T10:13:41.26Z</time></trkpt><trkpt lat="43.8859245" lon="11.8364546"><ele>430.0</ele><time>2026-05-01T10:13:42.257Z</time></trkpt><trkpt lat="43.8858427" lon="11.8363305"><ele>428.2</ele><time>2026-05-01T10:13:44.26Z</time></trkpt><trkpt lat="43.8857665" lon="11.8362487"><ele>426.4</ele><time>2026-05-01T10:13:46.251Z</time></trkpt><trkpt lat="43.8856964" lon="11.8361812"><ele>424.6</ele><time>2026-05-01T10:13:48.25Z</time></trkpt><trkpt lat="43.8857438" lon="11.8363636"><ele>422.8</ele><time>2026-05-01T10:14:15.241Z</time></trkpt><trkpt lat="43.885804" lon="11.8364651"><ele>421.0</ele><time>2026-05-01T10:14:17.251Z</time></trkpt><trkpt lat="43.8858989" lon="11.8366107"><ele>420.6</ele><time>2026-05-01T10:14:19.243Z</time></trkpt><trkpt lat="43.8859473" lon="11.8366743"><ele>420.20000000000005</ele><time>2026-05-01T10:14:20.257Z</time></trkpt><trkpt lat="43.8859997" lon="11.8367886"><ele>419.79999999999995</ele><time>2026-05-01T10:14:21.248Z</time></trkpt><trkpt lat="43.8860813" lon="11.8368896"><ele>419.4</ele><time>2026-05-01T10:14:22.252Z</time></trkpt><trkpt lat="43.8861478" lon="11.8369952"><ele>419.0</ele><time>2026-05-01T10:14:23.248Z</time></trkpt><trkpt lat="43.8862255" lon="11.8370774"><ele>419.0</ele><time>2026-05-01T10:14:24.258Z</time></trkpt><trkpt lat="43.886301" lon="11.8371552"><ele>419.0</ele><time>2026-05-01T10:14:25.255Z</time></trkpt><trkpt lat="43.8863766" lon="11.8372568"><ele>419.0</ele><time>2026-05-01T10:14:26.237Z</time></trkpt><trkpt lat="43.8864831" lon="11.8374028"><ele>419.0</ele><time>2026-05-01T10:14:27.243Z</time></trkpt><trkpt lat="43.886603" lon="11.8374942"><ele>419.0</ele><time>2026-05-01T10:14:28.251Z</time></trkpt><trkpt lat="43.886726" lon="11.8375996"><ele>419.0</ele><time>2026-05-01T10:14:29.244Z</time></trkpt><trkpt lat="43.8868405" lon="11.8377201"><ele>419.0</ele><time>2026-05-01T10:14:30.242Z</time></trkpt><trkpt lat="43.8869619" lon="11.8378299"><ele>419.0</ele><time>2026-05-01T10:14:31.237Z</time></trkpt><trkpt lat="43.8870991" lon="11.8378724"><ele>418.75</ele><time>2026-05-01T10:14:32.242Z</time></trkpt><trkpt lat="43.8872234" lon="11.8379373"><ele>418.5</ele><time>2026-05-01T10:14:33.247Z</time></trkpt><trkpt lat="43.8873689" lon="11.8380016"><ele>418.25</ele><time>2026-05-01T10:14:34.248Z</time></trkpt><trkpt lat="43.88752" lon="11.8380488"><ele>418.0</ele><time>2026-05-01T10:14:35.238Z</time></trkpt><trkpt lat="43.8876556" lon="11.8380902"><ele>418.0</ele><time>2026-05-01T10:14:36.247Z</time></trkpt><trkpt lat="43.8878113" lon="11.8381407"><ele>418.0</ele><time>2026-05-01T10:14:37.239Z</time></trkpt><trkpt lat="43.887977" lon="11.8381597"><ele>418.0</ele><time>2026-05-01T10:14:38.248Z</time></trkpt><trkpt lat="43.8881751" lon="11.8380907"><ele>418.0</ele><time>2026-05-01T10:14:39.238Z</time></trkpt><trkpt lat="43.8883771" lon="11.8381208"><ele>418.0</ele><time>2026-05-01T10:14:40.233Z</time></trkpt><trkpt lat="43.8885727" lon="11.8381105"><ele>418.0</ele><time>2026-05-01T10:14:41.248Z</time></trkpt><trkpt lat="43.8887479" lon="11.8381244"><ele>417.33333333333337</ele><time>2026-05-01T10:14:42.248Z</time></trkpt><trkpt lat="43.8889009" lon="11.8381057"><ele>416.66666666666663</ele><time>2026-05-01T10:14:43.238Z</time></trkpt><trkpt lat="43.8890567" lon="11.8380663"><ele>416.0</ele><time>2026-05-01T10:14:44.246Z</time></trkpt><trkpt lat="43.8892431" lon="11.8380238"><ele>414.3333333333333</ele><time>2026-05-01T10:14:45.248Z</time></trkpt><trkpt lat="43.8894296" lon="11.8380014"><ele>412.66666666666663</ele><time>2026-05-01T10:14:46.236Z</time></trkpt><trkpt lat="43.8896237" lon="11.8379803"><ele>411.0</ele><time>2026-05-01T10:14:47.25Z</time></trkpt><trkpt lat="43.889817" lon="11.8379638"><ele>411.0</ele><time>2026-05-01T10:14:48.234Z</time></trkpt><trkpt lat="43.8900101" lon="11.8379495"><ele>411.0</ele><time>2026-05-01T10:14:49.248Z</time></trkpt><trkpt lat="43.8902117" lon="11.8379287"><ele>411.0</ele><time>2026-05-01T10:14:50.236Z</time></trkpt><trkpt lat="43.8903973" lon="11.8379119"><ele>411.33333333333337</ele><time>2026-05-01T10:14:51.244Z</time></trkpt><trkpt lat="43.8905574" lon="11.8378893"><ele>411.6666666666667</ele><time>2026-05-01T10:14:52.231Z</time></trkpt><trkpt lat="43.8907332" lon="11.8379004"><ele>412.0</ele><time>2026-05-01T10:14:53.249Z</time></trkpt><trkpt lat="43.8909106" lon="11.8379252"><ele>412.75</ele><time>2026-05-01T10:14:54.236Z</time></trkpt><trkpt lat="43.8910017" lon="11.8380299"><ele>413.5</ele><time>2026-05-01T10:14:55.249Z</time></trkpt><trkpt lat="43.8911144" lon="11.8381637"><ele>414.25</ele><time>2026-05-01T10:14:56.247Z</time></trkpt><trkpt lat="43.8912021" lon="11.8382726"><ele>415.0</ele><time>2026-05-01T10:14:57.236Z</time></trkpt><trkpt lat="43.891259" lon="11.838481"><ele>415.0</ele><time>2026-05-01T10:14:58.238Z</time></trkpt><trkpt lat="43.8913003" lon="11.8386741"><ele>415.0</ele><time>2026-05-01T10:14:59.237Z</time></trkpt><trkpt lat="43.8913201" lon="11.8388397"><ele>415.0</ele><time>2026-05-01T10:15:00.24Z</time></trkpt><trkpt lat="43.8913097" lon="11.8390295"><ele>415.0</ele><time>2026-05-01T10:15:01.253Z</time></trkpt><trkpt lat="43.8913012" lon="11.8392194"><ele>415.5</ele><time>2026-05-01T10:15:02.235Z</time></trkpt><trkpt lat="43.8912826" lon="11.8394106"><ele>416.0</ele><time>2026-05-01T10:15:03.234Z</time></trkpt><trkpt lat="43.8912631" lon="11.8396002"><ele>416.5</ele><time>2026-05-01T10:15:04.235Z</time></trkpt><trkpt lat="43.8912459" lon="11.839772"><ele>417.0</ele><time>2026-05-01T10:15:05.235Z</time></trkpt><trkpt lat="43.8912265" lon="11.8399543"><ele>416.25</ele><time>2026-05-01T10:15:06.253Z</time></trkpt><trkpt lat="43.8911968" lon="11.8401442"><ele>415.5</ele><time>2026-05-01T10:15:07.235Z</time></trkpt><trkpt lat="43.8911641" lon="11.8402895"><ele>414.75</ele><time>2026-05-01T10:15:08.25Z</time></trkpt><trkpt lat="43.8911205" lon="11.8404816"><ele>414.0</ele><time>2026-05-01T10:15:09.234Z</time></trkpt><trkpt lat="43.8910527" lon="11.8406368"><ele>414.0</ele><time>2026-05-01T10:15:10.233Z</time></trkpt><trkpt lat="43.8910344" lon="11.8408167"><ele>414.0</ele><time>2026-05-01T10:15:11.249Z</time></trkpt><trkpt lat="43.8910341" lon="11.841046"><ele>414.0</ele><time>2026-05-01T10:15:12.233Z</time></trkpt><trkpt lat="43.8910453" lon="11.8412318"><ele>414.0</ele><time>2026-05-01T10:15:13.237Z</time></trkpt><trkpt lat="43.8911174" lon="11.8414399"><ele>410.66666666666663</ele><time>2026-05-01T10:15:14.248Z</time></trkpt><trkpt lat="43.8912574" lon="11.8415505"><ele>407.3333333333333</ele><time>2026-05-01T10:15:15.249Z</time></trkpt><trkpt lat="43.8913913" lon="11.8416514"><ele>404.0</ele><time>2026-05-01T10:15:16.233Z</time></trkpt><trkpt lat="43.8915528" lon="11.8417326"><ele>404.0</ele><time>2026-05-01T10:15:17.25Z</time></trkpt><trkpt lat="43.8916955" lon="11.8417917"><ele>404.0</ele><time>2026-05-01T10:15:18.25Z</time></trkpt><trkpt lat="43.8918154" lon="11.8418263"><ele>404.0</ele><time>2026-05-01T10:15:19.251Z</time></trkpt><trkpt lat="43.8919848" lon="11.8418275"><ele>404.0</ele><time>2026-05-01T10:15:20.237Z</time></trkpt><trkpt lat="43.8921515" lon="11.8418339"><ele>404.66666666666663</ele><time>2026-05-01T10:15:21.248Z</time></trkpt><trkpt lat="43.8923236" lon="11.8418456"><ele>405.33333333333337</ele><time>2026-05-01T10:15:22.236Z</time></trkpt><trkpt lat="43.8924883" lon="11.8418491"><ele>406.0</ele><time>2026-05-01T10:15:23.235Z</time></trkpt><trkpt lat="43.892661" lon="11.8418625"><ele>404.33333333333337</ele><time>2026-05-01T10:15:24.248Z</time></trkpt><trkpt lat="43.8928079" lon="11.841884"><ele>402.66666666666663</ele><time>2026-05-01T10:15:25.248Z</time></trkpt><trkpt lat="43.8929673" lon="11.8418803"><ele>401.0</ele><time>2026-05-01T10:15:26.238Z</time></trkpt><trkpt lat="43.8931232" lon="11.8418956"><ele>401.0</ele><time>2026-05-01T10:15:27.249Z</time></trkpt><trkpt lat="43.893274" lon="11.8419081"><ele>401.0</ele><time>2026-05-01T10:15:28.249Z</time></trkpt><trkpt lat="43.8934181" lon="11.8419399"><ele>401.0</ele><time>2026-05-01T10:15:29.242Z</time></trkpt><trkpt lat="43.8935473" lon="11.8419676"><ele>401.0</ele><time>2026-05-01T10:15:30.246Z</time></trkpt><trkpt lat="43.8936724" lon="11.8419971"><ele>400.5</ele><time>2026-05-01T10:15:31.234Z</time></trkpt><trkpt lat="43.8938008" lon="11.842018"><ele>400.0</ele><time>2026-05-01T10:15:32.231Z</time></trkpt><trkpt lat="43.8939203" lon="11.8420509"><ele>399.5</ele><time>2026-05-01T10:15:33.235Z</time></trkpt><trkpt lat="43.8940431" lon="11.8420631"><ele>399.0</ele><time>2026-05-01T10:15:34.235Z</time></trkpt><trkpt lat="43.8941721" lon="11.8420857"><ele>405.0</ele><time>2026-05-01T10:15:35.253Z</time></trkpt><trkpt lat="43.8943011" lon="11.8421113"><ele>411.0</ele><time>2026-05-01T10:15:36.239Z</time></trkpt><trkpt lat="43.8944187" lon="11.8421695"><ele>417.0</ele><time>2026-05-01T10:15:37.236Z</time></trkpt><trkpt lat="43.894543" lon="11.8422368"><ele>423.0</ele><time>2026-05-01T10:15:38.235Z</time></trkpt><trkpt lat="43.894641" lon="11.8423291"><ele>423.0</ele><time>2026-05-01T10:15:39.25Z</time></trkpt><trkpt lat="43.8947261" lon="11.8424769"><ele>423.0</ele><time>2026-05-01T10:15:40.234Z</time></trkpt><trkpt lat="43.8947738" lon="11.8426709"><ele>423.0</ele><time>2026-05-01T10:15:41.232Z</time></trkpt><trkpt lat="43.8948161" lon="11.8428435"><ele>423.0</ele><time>2026-05-01T10:15:42.245Z</time></trkpt><trkpt lat="43.894823" lon="11.8430387"><ele>419.0</ele><time>2026-05-01T10:15:43.248Z</time></trkpt><trkpt lat="43.8948434" lon="11.8432215"><ele>415.0</ele><time>2026-05-01T10:15:44.234Z</time></trkpt><trkpt lat="43.8948795" lon="11.8433879"><ele>411.0</ele><time>2026-05-01T10:15:45.25Z</time></trkpt><trkpt lat="43.8949333" lon="11.8435015"><ele>407.0</ele><time>2026-05-01T10:15:46.246Z</time></trkpt><trkpt lat="43.8949978" lon="11.8436159"><ele>409.25</ele><time>2026-05-01T10:15:47.25Z</time></trkpt><trkpt lat="43.8950802" lon="11.8437192"><ele>411.5</ele><time>2026-05-01T10:15:48.233Z</time></trkpt><trkpt lat="43.8951604" lon="11.8438154"><ele>413.75</ele><time>2026-05-01T10:15:49.24Z</time></trkpt><trkpt lat="43.8952447" lon="11.8439112"><ele>416.0</ele><time>2026-05-01T10:15:50.246Z</time></trkpt><trkpt lat="43.8953516" lon="11.8440138"><ele>416.0</ele><time>2026-05-01T10:15:51.235Z</time></trkpt><trkpt lat="43.8954484" lon="11.8441278"><ele>416.0</ele><time>2026-05-01T10:15:52.241Z</time></trkpt><trkpt lat="43.8955392" lon="11.8442248"><ele>416.0</ele><time>2026-05-01T10:15:53.248Z</time></trkpt><trkpt lat="43.8956324" lon="11.8443359"><ele>416.0</ele><time>2026-05-01T10:15:54.234Z</time></trkpt><trkpt lat="43.8957354" lon="11.8444223"><ele>414.0</ele><time>2026-05-01T10:15:55.238Z</time></trkpt><trkpt lat="43.8958127" lon="11.8444778"><ele>412.0</ele><time>2026-05-01T10:15:56.233Z</time></trkpt><trkpt lat="43.8959223" lon="11.8445697"><ele>410.0</ele><time>2026-05-01T10:15:57.231Z</time></trkpt><trkpt lat="43.8960255" lon="11.8446432"><ele>408.0</ele><time>2026-05-01T10:15:58.24Z</time></trkpt><trkpt lat="43.8961816" lon="11.8446956"><ele>408.0</ele><time>2026-05-01T10:15:59.234Z</time></trkpt><trkpt lat="43.8963267" lon="11.8447383"><ele>408.0</ele><time>2026-05-01T10:16:00.243Z</time></trkpt><trkpt lat="43.896484" lon="11.844753"><ele>408.0</ele><time>2026-05-01T10:16:01.238Z</time></trkpt><trkpt lat="43.8966443" lon="11.8447297"><ele>408.33333333333337</ele><time>2026-05-01T10:16:02.237Z</time></trkpt><trkpt lat="43.8968055" lon="11.8447099"><ele>408.6666666666667</ele><time>2026-05-01T10:16:03.236Z</time></trkpt><trkpt lat="43.8969667" lon="11.8446908"><ele>409.0</ele><time>2026-05-01T10:16:04.239Z</time></trkpt><trkpt lat="43.897115" lon="11.8446371"><ele>409.0</ele><time>2026-05-01T10:16:05.247Z</time></trkpt><trkpt lat="43.8972569" lon="11.8445834"><ele>409.0</ele><time>2026-05-01T10:16:06.236Z</time></trkpt><trkpt lat="43.8973785" lon="11.844497"><ele>409.0</ele><time>2026-05-01T10:16:07.246Z</time></trkpt><trkpt lat="43.8975122" lon="11.8443725"><ele>409.0</ele><time>2026-05-01T10:16:08.239Z</time></trkpt><trkpt lat="43.8975782" lon="11.8443594"><ele>415.2</ele><time>2026-05-01T10:16:09.238Z</time></trkpt><trkpt lat="43.8976925" lon="11.8443411"><ele>421.4</ele><time>2026-05-01T10:16:10.241Z</time></trkpt><trkpt lat="43.8977879" lon="11.8443403"><ele>427.6</ele><time>2026-05-01T10:16:11.242Z</time></trkpt><trkpt lat="43.8978745" lon="11.8443961"><ele>433.8</ele><time>2026-05-01T10:16:12.244Z</time></trkpt><trkpt lat="43.8979364" lon="11.8445037"><ele>440.0</ele><time>2026-05-01T10:16:13.254Z</time></trkpt><trkpt lat="43.8979742" lon="11.8447114"><ele>440.0</ele><time>2026-05-01T10:16:14.24Z</time></trkpt><trkpt lat="43.8980214" lon="11.8448389"><ele>440.0</ele><time>2026-05-01T10:16:15.246Z</time></trkpt><trkpt lat="43.8981025" lon="11.8449095"><ele>440.0</ele><time>2026-05-01T10:16:16.24Z</time></trkpt><trkpt lat="43.8982039" lon="11.844989"><ele>440.0</ele><time>2026-05-01T10:16:17.236Z</time></trkpt><trkpt lat="43.8982956" lon="11.8450467"><ele>440.0</ele><time>2026-05-01T10:16:18.256Z</time></trkpt><trkpt lat="43.8983441" lon="11.845129"><ele>436.5</ele><time>2026-05-01T10:16:19.235Z</time></trkpt><trkpt lat="43.8983797" lon="11.8452248"><ele>433.0</ele><time>2026-05-01T10:16:20.239Z</time></trkpt><trkpt lat="43.89845" lon="11.8454754"><ele>429.5</ele><time>2026-05-01T10:16:21.237Z</time></trkpt><trkpt lat="43.8985114" lon="11.8456553"><ele>426.0</ele><time>2026-05-01T10:16:22.241Z</time></trkpt><trkpt lat="43.8985634" lon="11.8458773"><ele>437.75</ele><time>2026-05-01T10:16:23.243Z</time></trkpt><trkpt lat="43.8985767" lon="11.8460644"><ele>449.5</ele><time>2026-05-01T10:16:24.236Z</time></trkpt><trkpt lat="43.898594" lon="11.8462477"><ele>461.25</ele><time>2026-05-01T10:16:25.239Z</time></trkpt><trkpt lat="43.8986265" lon="11.8464137"><ele>473.0</ele><time>2026-05-01T10:16:26.235Z</time></trkpt><trkpt lat="43.8986915" lon="11.8466198"><ele>470.75</ele><time>2026-05-01T10:16:27.247Z</time></trkpt><trkpt lat="43.8987336" lon="11.8468088"><ele>468.5</ele><time>2026-05-01T10:16:28.232Z</time></trkpt><trkpt lat="43.8987838" lon="11.8469719"><ele>466.25</ele><time>2026-05-01T10:16:29.232Z</time></trkpt><trkpt lat="43.898853" lon="11.8471804"><ele>464.0</ele><time>2026-05-01T10:16:30.24Z</time></trkpt><trkpt lat="43.8988979" lon="11.8473645"><ele>464.0</ele><time>2026-05-01T10:16:31.248Z</time></trkpt><trkpt lat="43.8989418" lon="11.8475451"><ele>464.0</ele><time>2026-05-01T10:16:32.24Z</time></trkpt><trkpt lat="43.8989585" lon="11.8477297"><ele>464.0</ele><time>2026-05-01T10:16:33.244Z</time></trkpt><trkpt lat="43.89898" lon="11.8479171"><ele>464.0</ele><time>2026-05-01T10:16:34.248Z</time></trkpt><trkpt lat="43.8989802" lon="11.8480824"><ele>462.5</ele><time>2026-05-01T10:16:35.248Z</time></trkpt><trkpt lat="43.8989709" lon="11.8482117"><ele>461.0</ele><time>2026-05-01T10:16:36.236Z</time></trkpt><trkpt lat="43.8989724" lon="11.8484025"><ele>459.5</ele><time>2026-05-01T10:16:37.257Z</time></trkpt><trkpt lat="43.8989908" lon="11.8485759"><ele>458.0</ele><time>2026-05-01T10:16:38.24Z</time></trkpt><trkpt lat="43.8990299" lon="11.8487931"><ele>457.25</ele><time>2026-05-01T10:16:39.232Z</time></trkpt><trkpt lat="43.8990678" lon="11.8489409"><ele>456.5</ele><time>2026-05-01T10:16:40.235Z</time></trkpt><trkpt lat="43.8991136" lon="11.8490834"><ele>455.75</ele><time>2026-05-01T10:16:41.236Z</time></trkpt><trkpt lat="43.8991685" lon="11.8492519"><ele>455.0</ele><time>2026-05-01T10:16:42.241Z</time></trkpt><trkpt lat="43.8991666" lon="11.8493842"><ele>454.6</ele><time>2026-05-01T10:16:43.25Z</time></trkpt><trkpt lat="43.8991581" lon="11.8495483"><ele>454.2</ele><time>2026-05-01T10:16:44.231Z</time></trkpt><trkpt lat="43.8991615" lon="11.8496742"><ele>453.79999999999995</ele><time>2026-05-01T10:16:45.238Z</time></trkpt><trkpt lat="43.899207" lon="11.8498443"><ele>453.4</ele><time>2026-05-01T10:16:47.249Z</time></trkpt><trkpt lat="43.8992962" lon="11.8498936"><ele>453.0</ele><time>2026-05-01T10:16:48.239Z</time></trkpt><trkpt lat="43.8994011" lon="11.8498755"><ele>462.25</ele><time>2026-05-01T10:16:49.247Z</time></trkpt><trkpt lat="43.8994831" lon="11.8498556"><ele>471.5</ele><time>2026-05-01T10:16:50.233Z</time></trkpt><trkpt lat="43.8995775" lon="11.8498198"><ele>480.75</ele><time>2026-05-01T10:16:51.233Z</time></trkpt><trkpt lat="43.8996532" lon="11.8496744"><ele>490.0</ele><time>2026-05-01T10:16:52.236Z</time></trkpt><trkpt lat="43.8995974" lon="11.8494482"><ele>489.0</ele><time>2026-05-01T10:16:53.236Z</time></trkpt><trkpt lat="43.8994962" lon="11.8491891"><ele>488.0</ele><time>2026-05-01T10:16:54.241Z</time></trkpt><trkpt lat="43.8994645" lon="11.8490017"><ele>487.0</ele><time>2026-05-01T10:16:55.235Z</time></trkpt><trkpt lat="43.8994187" lon="11.848813"><ele>487.0</ele><time>2026-05-01T10:16:56.242Z</time></trkpt><trkpt lat="43.8993798" lon="11.8486373"><ele>487.0</ele><time>2026-05-01T10:16:57.24Z</time></trkpt><trkpt lat="43.8993604" lon="11.8484532"><ele>487.0</ele><time>2026-05-01T10:16:58.237Z</time></trkpt><trkpt lat="43.8993379" lon="11.8482772"><ele>487.0</ele><time>2026-05-01T10:16:59.244Z</time></trkpt><trkpt lat="43.8993173" lon="11.8481276"><ele>487.40000000000003</ele><time>2026-05-01T10:17:00.238Z</time></trkpt><trkpt lat="43.8993444" lon="11.8479669"><ele>487.80000000000007</ele><time>2026-05-01T10:17:01.249Z</time></trkpt><trkpt lat="43.8993961" lon="11.8478794"><ele>488.2</ele><time>2026-05-01T10:17:02.241Z</time></trkpt><trkpt lat="43.8994652" lon="11.8478181"><ele>488.6</ele><time>2026-05-01T10:17:03.236Z</time></trkpt><trkpt lat="43.8995831" lon="11.8477861"><ele>489.0</ele><time>2026-05-01T10:17:04.234Z</time></trkpt><trkpt lat="43.8996765" lon="11.8478052"><ele>489.0</ele><time>2026-05-01T10:17:05.244Z</time></trkpt><trkpt lat="43.8997411" lon="11.847861"><ele>489.0</ele><time>2026-05-01T10:17:06.238Z</time></trkpt><trkpt lat="43.8998141" lon="11.8481315"><ele>489.0</ele><time>2026-05-01T10:17:07.24Z</time></trkpt><trkpt lat="43.8998668" lon="11.8482681"><ele>489.0</ele><time>2026-05-01T10:17:08.249Z</time></trkpt><trkpt lat="43.8999169" lon="11.8484209"><ele>488.33333333333337</ele><time>2026-05-01T10:17:09.249Z</time></trkpt><trkpt lat="43.8999849" lon="11.8485913"><ele>487.6666666666667</ele><time>2026-05-01T10:17:10.24Z</time></trkpt><trkpt lat="43.900067" lon="11.8487849"><ele>487.0</ele><time>2026-05-01T10:17:11.236Z</time></trkpt><trkpt lat="43.9001738" lon="11.8489498"><ele>489.5</ele><time>2026-05-01T10:17:12.233Z</time></trkpt><trkpt lat="43.9003017" lon="11.8490547"><ele>492.0</ele><time>2026-05-01T10:17:13.25Z</time></trkpt><trkpt lat="43.9004148" lon="11.8491496"><ele>494.5</ele><time>2026-05-01T10:17:14.242Z</time></trkpt><trkpt lat="43.9005384" lon="11.8492251"><ele>497.0</ele><time>2026-05-01T10:17:15.25Z</time></trkpt><trkpt lat="43.9006283" lon="11.849322"><ele>497.0</ele><time>2026-05-01T10:17:16.234Z</time></trkpt><trkpt lat="43.900739" lon="11.8494186"><ele>497.0</ele><time>2026-05-01T10:17:17.248Z</time></trkpt><trkpt lat="43.9008446" lon="11.8495157"><ele>497.0</ele><time>2026-05-01T10:17:18.236Z</time></trkpt><trkpt lat="43.9009597" lon="11.8495882"><ele>497.0</ele><time>2026-05-01T10:17:19.239Z</time></trkpt><trkpt lat="43.9010471" lon="11.8496628"><ele>495.5</ele><time>2026-05-01T10:17:20.241Z</time></trkpt><trkpt lat="43.9011576" lon="11.849688"><ele>494.0</ele><time>2026-05-01T10:17:21.237Z</time></trkpt><trkpt lat="43.9013297" lon="11.8496591"><ele>492.5</ele><time>2026-05-01T10:17:22.249Z</time></trkpt><trkpt lat="43.9014526" lon="11.8496201"><ele>491.0</ele><time>2026-05-01T10:17:23.247Z</time></trkpt><trkpt lat="43.9015595" lon="11.8495494"><ele>491.0</ele><time>2026-05-01T10:17:24.248Z</time></trkpt><trkpt lat="43.901585" lon="11.8493111"><ele>491.0</ele><time>2026-05-01T10:17:25.239Z</time></trkpt><trkpt lat="43.9016348" lon="11.8491512"><ele>491.0</ele><time>2026-05-01T10:17:26.234Z</time></trkpt><trkpt lat="43.9016953" lon="11.8490335"><ele>491.0</ele><time>2026-05-01T10:17:27.24Z</time></trkpt><trkpt lat="43.9018359" lon="11.8489206"><ele>491.0</ele><time>2026-05-01T10:17:28.236Z</time></trkpt><trkpt lat="43.9019726" lon="11.8488251"><ele>491.0</ele><time>2026-05-01T10:17:29.251Z</time></trkpt><trkpt lat="43.902118" lon="11.8487678"><ele>491.0</ele><time>2026-05-01T10:17:30.237Z</time></trkpt><trkpt lat="43.9022477" lon="11.8487484"><ele>491.0</ele><time>2026-05-01T10:17:31.24Z</time></trkpt><trkpt lat="43.9023768" lon="11.8487141"><ele>491.0</ele><time>2026-05-01T10:17:32.241Z</time></trkpt><trkpt lat="43.9025134" lon="11.8486399"><ele>491.0</ele><time>2026-05-01T10:17:33.247Z</time></trkpt><trkpt lat="43.9026428" lon="11.8485847"><ele>491.0</ele><time>2026-05-01T10:17:34.234Z</time></trkpt><trkpt lat="43.9027454" lon="11.8485032"><ele>491.0</ele><time>2026-05-01T10:17:35.24Z</time></trkpt><trkpt lat="43.9028572" lon="11.8484026"><ele>494.25</ele><time>2026-05-01T10:17:36.241Z</time></trkpt><trkpt lat="43.9029528" lon="11.8483241"><ele>497.5</ele><time>2026-05-01T10:17:37.234Z</time></trkpt><trkpt lat="43.9030648" lon="11.8482661"><ele>500.75</ele><time>2026-05-01T10:17:38.239Z</time></trkpt><trkpt lat="43.9031863" lon="11.8481962"><ele>504.0</ele><time>2026-05-01T10:17:39.242Z</time></trkpt><trkpt lat="43.9033058" lon="11.8481173"><ele>504.0</ele><time>2026-05-01T10:17:40.241Z</time></trkpt><trkpt lat="43.903402" lon="11.8480152"><ele>504.0</ele><time>2026-05-01T10:17:41.255Z</time></trkpt><trkpt lat="43.9034963" lon="11.8478823"><ele>504.0</ele><time>2026-05-01T10:17:42.234Z</time></trkpt><trkpt lat="43.9035518" lon="11.847751"><ele>504.0</ele><time>2026-05-01T10:17:43.238Z</time></trkpt><trkpt lat="43.9036126" lon="11.8476058"><ele>508.25</ele><time>2026-05-01T10:17:44.232Z</time></trkpt><trkpt lat="43.9036381" lon="11.8474258"><ele>512.5</ele><time>2026-05-01T10:17:45.239Z</time></trkpt><trkpt lat="43.9036251" lon="11.8472778"><ele>516.75</ele><time>2026-05-01T10:17:46.233Z</time></trkpt><trkpt lat="43.903582" lon="11.8470969"><ele>521.0</ele><time>2026-05-01T10:17:47.249Z</time></trkpt><trkpt lat="43.9035758" lon="11.8469202"><ele>523.0</ele><time>2026-05-01T10:17:48.234Z</time></trkpt><trkpt lat="43.9036104" lon="11.8467557"><ele>525.0</ele><time>2026-05-01T10:17:49.247Z</time></trkpt><trkpt lat="43.9036689" lon="11.8466309"><ele>527.0</ele><time>2026-05-01T10:17:50.237Z</time></trkpt><trkpt lat="43.9037382" lon="11.8465386"><ele>529.0</ele><time>2026-05-01T10:17:51.233Z</time></trkpt><trkpt lat="43.9038084" lon="11.8464975"><ele>531.0</ele><time>2026-05-01T10:17:52.236Z</time></trkpt><trkpt lat="43.903921" lon="11.8465073"><ele>531.0</ele><time>2026-05-01T10:17:54.238Z</time></trkpt><trkpt lat="43.9039863" lon="11.8465136"><ele>531.0</ele><time>2026-05-01T10:17:55.252Z</time></trkpt><trkpt lat="43.9040714" lon="11.8465202"><ele>531.0</ele><time>2026-05-01T10:17:58.242Z</time></trkpt><trkpt lat="43.9041354" lon="11.8463831"><ele>531.0</ele><time>2026-05-01T10:18:00.24Z</time></trkpt><trkpt lat="43.9041794" lon="11.8462096"><ele>531.0</ele><time>2026-05-01T10:18:02.236Z</time></trkpt><trkpt lat="43.9041689" lon="11.846028"><ele>533.5</ele><time>2026-05-01T10:18:04.235Z</time></trkpt><trkpt lat="43.9040959" lon="11.8458822"><ele>536.0</ele><time>2026-05-01T10:18:05.249Z</time></trkpt><trkpt lat="43.9040394" lon="11.8457671"><ele>538.5</ele><time>2026-05-01T10:18:06.248Z</time></trkpt><trkpt lat="43.9039665" lon="11.8456385"><ele>541.0</ele><time>2026-05-01T10:18:07.235Z</time></trkpt><trkpt lat="43.9038895" lon="11.845481"><ele>541.0</ele><time>2026-05-01T10:18:08.25Z</time></trkpt><trkpt lat="43.9037918" lon="11.8453283"><ele>541.0</ele><time>2026-05-01T10:18:09.237Z</time></trkpt><trkpt lat="43.9037042" lon="11.8451889"><ele>541.0</ele><time>2026-05-01T10:18:10.247Z</time></trkpt><trkpt lat="43.9036188" lon="11.8450942"><ele>541.0</ele><time>2026-05-01T10:18:11.247Z</time></trkpt><trkpt lat="43.9035422" lon="11.8450104"><ele>541.8</ele><time>2026-05-01T10:18:12.25Z</time></trkpt><trkpt lat="43.9034292" lon="11.8449202"><ele>542.6</ele><time>2026-05-01T10:18:13.254Z</time></trkpt><trkpt lat="43.9033208" lon="11.8448703"><ele>543.4</ele><time>2026-05-01T10:18:14.234Z</time></trkpt><trkpt lat="43.9032422" lon="11.8448929"><ele>544.2</ele><time>2026-05-01T10:18:15.237Z</time></trkpt><trkpt lat="43.9031353" lon="11.8449692"><ele>545.0</ele><time>2026-05-01T10:18:16.24Z</time></trkpt><trkpt lat="43.9030263" lon="11.8450251"><ele>544.0</ele><time>2026-05-01T10:18:17.247Z</time></trkpt><trkpt lat="43.9029626" lon="11.8451821"><ele>543.0</ele><time>2026-05-01T10:18:18.231Z</time></trkpt><trkpt lat="43.9028961" lon="11.8453074"><ele>542.0</ele><time>2026-05-01T10:18:19.233Z</time></trkpt><trkpt lat="43.9027933" lon="11.8455472"><ele>541.0</ele><time>2026-05-01T10:18:20.249Z</time></trkpt><trkpt lat="43.9027261" lon="11.8457221"><ele>541.0</ele><time>2026-05-01T10:18:22.239Z</time></trkpt><trkpt lat="43.9026825" lon="11.845825"><ele>541.0</ele><time>2026-05-01T10:18:23.253Z</time></trkpt><trkpt lat="43.9026561" lon="11.8459053"><ele>541.0</ele><time>2026-05-01T10:18:24.25Z</time></trkpt><trkpt lat="43.9026205" lon="11.8459864"><ele>541.0</ele><time>2026-05-01T10:18:25.237Z</time></trkpt><trkpt lat="43.9025215" lon="11.8461138"><ele>541.0</ele><time>2026-05-01T10:18:27.233Z</time></trkpt><trkpt lat="43.9024138" lon="11.846171"><ele>542.3333333333334</ele><time>2026-05-01T10:18:29.249Z</time></trkpt><trkpt lat="43.9023319" lon="11.8461033"><ele>543.6666666666667</ele><time>2026-05-01T10:18:30.252Z</time></trkpt><trkpt lat="43.9022701" lon="11.8460488"><ele>545.0</ele><time>2026-05-01T10:18:31.238Z</time></trkpt><trkpt lat="43.9022152" lon="11.8459792"><ele>546.3333333333334</ele><time>2026-05-01T10:18:32.234Z</time></trkpt><trkpt lat="43.9021492" lon="11.8458953"><ele>547.6666666666666</ele><time>2026-05-01T10:18:33.238Z</time></trkpt><trkpt lat="43.902094" lon="11.8458155"><ele>549.0</ele><time>2026-05-01T10:18:34.249Z</time></trkpt><trkpt lat="43.9020306" lon="11.8457472"><ele>550.0</ele><time>2026-05-01T10:18:35.249Z</time></trkpt><trkpt lat="43.9019579" lon="11.845684"><ele>551.0</ele><time>2026-05-01T10:18:36.25Z</time></trkpt><trkpt lat="43.9018995" lon="11.8456057"><ele>552.0</ele><time>2026-05-01T10:18:37.248Z</time></trkpt><trkpt lat="43.9017965" lon="11.8454736"><ele>553.0</ele><time>2026-05-01T10:18:39.241Z</time></trkpt><trkpt lat="43.9017299" lon="11.8453362"><ele>554.0</ele><time>2026-05-01T10:18:41.237Z</time></trkpt><trkpt lat="43.9017855" lon="11.8452853"><ele>554.4</ele><time>2026-05-01T10:18:44.232Z</time></trkpt><trkpt lat="43.9018525" lon="11.8452414"><ele>554.8</ele><time>2026-05-01T10:18:46.242Z</time></trkpt><trkpt lat="43.9019439" lon="11.8451668"><ele>555.2</ele><time>2026-05-01T10:18:48.244Z</time></trkpt><trkpt lat="43.9020388" lon="11.8450752"><ele>555.6</ele><time>2026-05-01T10:18:50.233Z</time></trkpt><trkpt lat="43.9020912" lon="11.8450067"><ele>556.0</ele><time>2026-05-01T10:18:52.249Z</time></trkpt><trkpt lat="43.9021632" lon="11.8448671"><ele>556.3333333333334</ele><time>2026-05-01T10:18:53.242Z</time></trkpt><trkpt lat="43.9022087" lon="11.8447799"><ele>556.6666666666667</ele><time>2026-05-01T10:18:54.239Z</time></trkpt><trkpt lat="43.9022426" lon="11.8447033"><ele>557.0</ele><time>2026-05-01T10:18:55.241Z</time></trkpt><trkpt lat="43.9022922" lon="11.8445883"><ele>557.3333333333334</ele><time>2026-05-01T10:18:56.253Z</time></trkpt><trkpt lat="43.9023344" lon="11.8444805"><ele>557.6666666666666</ele><time>2026-05-01T10:18:57.24Z</time></trkpt><trkpt lat="43.9023755" lon="11.8443787"><ele>558.0</ele><time>2026-05-01T10:18:58.24Z</time></trkpt><trkpt lat="43.9024219" lon="11.844242"><ele>557.6</ele><time>2026-05-01T10:19:00.24Z</time></trkpt><trkpt lat="43.9024652" lon="11.8441013"><ele>557.1999999999999</ele><time>2026-05-01T10:19:02.261Z</time></trkpt><trkpt lat="43.9025065" lon="11.8439782"><ele>556.8</ele><time>2026-05-01T10:19:03.25Z</time></trkpt><trkpt lat="43.902551" lon="11.8438409"><ele>556.4</ele><time>2026-05-01T10:19:04.235Z</time></trkpt><trkpt lat="43.9025897" lon="11.8437434"><ele>556.0</ele><time>2026-05-01T10:19:05.249Z</time></trkpt><trkpt lat="43.9026297" lon="11.8435968"><ele>559.5</ele><time>2026-05-01T10:19:06.246Z</time></trkpt><trkpt lat="43.9026647" lon="11.843457"><ele>563.0</ele><time>2026-05-01T10:19:07.251Z</time></trkpt><trkpt lat="43.9027007" lon="11.843307"><ele>566.5</ele><time>2026-05-01T10:19:08.25Z</time></trkpt><trkpt lat="43.9027269" lon="11.8431526"><ele>570.0</ele><time>2026-05-01T10:19:09.249Z</time></trkpt><trkpt lat="43.9027449" lon="11.8429945"><ele>570.0</ele><time>2026-05-01T10:19:10.234Z</time></trkpt><trkpt lat="43.9027869" lon="11.8428834"><ele>570.0</ele><time>2026-05-01T10:19:11.247Z</time></trkpt><trkpt lat="43.9028348" lon="11.8427504"><ele>570.0</ele><time>2026-05-01T10:19:12.239Z</time></trkpt><trkpt lat="43.9028748" lon="11.8426214"><ele>570.0</ele><time>2026-05-01T10:19:13.235Z</time></trkpt><trkpt lat="43.9029255" lon="11.8425172"><ele>570.0</ele><time>2026-05-01T10:19:14.25Z</time></trkpt><trkpt lat="43.9029853" lon="11.8424229"><ele>572.6</ele><time>2026-05-01T10:19:15.231Z</time></trkpt><trkpt lat="43.9030428" lon="11.8423231"><ele>575.2</ele><time>2026-05-01T10:19:16.236Z</time></trkpt><trkpt lat="43.9031104" lon="11.8422287"><ele>577.8</ele><time>2026-05-01T10:19:17.236Z</time></trkpt><trkpt lat="43.9031835" lon="11.8421497"><ele>580.4</ele><time>2026-05-01T10:19:18.248Z</time></trkpt><trkpt lat="43.9032583" lon="11.8420704"><ele>583.0</ele><time>2026-05-01T10:19:19.249Z</time></trkpt><trkpt lat="43.9033351" lon="11.8419889"><ele>583.0</ele><time>2026-05-01T10:19:20.233Z</time></trkpt><trkpt lat="43.9034204" lon="11.8419431"><ele>583.0</ele><time>2026-05-01T10:19:21.234Z</time></trkpt><trkpt lat="43.903521" lon="11.8418843"><ele>583.0</ele><time>2026-05-01T10:19:22.235Z</time></trkpt><trkpt lat="43.9036222" lon="11.8418103"><ele>583.0</ele><time>2026-05-01T10:19:23.247Z</time></trkpt><trkpt lat="43.9037197" lon="11.8417321"><ele>583.0</ele><time>2026-05-01T10:19:24.234Z</time></trkpt><trkpt lat="43.9037823" lon="11.841671"><ele>585.75</ele><time>2026-05-01T10:19:25.238Z</time></trkpt><trkpt lat="43.9038804" lon="11.8415355"><ele>588.5</ele><time>2026-05-01T10:19:26.243Z</time></trkpt><trkpt lat="43.9039644" lon="11.8413985"><ele>591.25</ele><time>2026-05-01T10:19:27.247Z</time></trkpt><trkpt lat="43.9040204" lon="11.8412768"><ele>594.0</ele><time>2026-05-01T10:19:28.241Z</time></trkpt><trkpt lat="43.9040808" lon="11.8411417"><ele>594.0</ele><time>2026-05-01T10:19:29.24Z</time></trkpt><trkpt lat="43.9041415" lon="11.8410119"><ele>594.0</ele><time>2026-05-01T10:19:30.24Z</time></trkpt><trkpt lat="43.904205" lon="11.8408402"><ele>594.0</ele><time>2026-05-01T10:19:31.24Z</time></trkpt><trkpt lat="43.9042652" lon="11.8406979"><ele>594.0</ele><time>2026-05-01T10:19:32.239Z</time></trkpt><trkpt lat="43.9043219" lon="11.8405665"><ele>598.2</ele><time>2026-05-01T10:19:33.248Z</time></trkpt><trkpt lat="43.9043776" lon="11.8404355"><ele>602.4</ele><time>2026-05-01T10:19:34.234Z</time></trkpt><trkpt lat="43.9044389" lon="11.8403097"><ele>606.6</ele><time>2026-05-01T10:19:35.24Z</time></trkpt><trkpt lat="43.9045093" lon="11.8402248"><ele>610.8</ele><time>2026-05-01T10:19:36.24Z</time></trkpt><trkpt lat="43.904599" lon="11.8401689"><ele>615.0</ele><time>2026-05-01T10:19:37.246Z</time></trkpt><trkpt lat="43.9046935" lon="11.8401586"><ele>615.0</ele><time>2026-05-01T10:19:38.237Z</time></trkpt><trkpt lat="43.9047815" lon="11.8402049"><ele>615.0</ele><time>2026-05-01T10:19:39.25Z</time></trkpt><trkpt lat="43.9048874" lon="11.8403009"><ele>615.0</ele><time>2026-05-01T10:19:40.241Z</time></trkpt><trkpt lat="43.9050072" lon="11.8404525"><ele>615.0</ele><time>2026-05-01T10:19:41.24Z</time></trkpt><trkpt lat="43.905111" lon="11.8405946"><ele>618.75</ele><time>2026-05-01T10:19:42.235Z</time></trkpt><trkpt lat="43.9052012" lon="11.8407409"><ele>622.5</ele><time>2026-05-01T10:19:43.241Z</time></trkpt><trkpt lat="43.9053158" lon="11.8408925"><ele>626.25</ele><time>2026-05-01T10:19:44.248Z</time></trkpt><trkpt lat="43.9054168" lon="11.8410321"><ele>630.0</ele><time>2026-05-01T10:19:45.239Z</time></trkpt><trkpt lat="43.9055198" lon="11.8411787"><ele>630.0</ele><time>2026-05-01T10:19:46.238Z</time></trkpt><trkpt lat="43.9055975" lon="11.841295"><ele>630.0</ele><time>2026-05-01T10:19:47.238Z</time></trkpt><trkpt lat="43.9056623" lon="11.841379"><ele>630.0</ele><time>2026-05-01T10:19:48.242Z</time></trkpt><trkpt lat="43.9057203" lon="11.8414655"><ele>630.0</ele><time>2026-05-01T10:19:49.254Z</time></trkpt><trkpt lat="43.9058123" lon="11.8414387"><ele>630.0</ele><time>2026-05-01T10:19:51.249Z</time></trkpt><trkpt lat="43.9058333" lon="11.8412563"><ele>630.0</ele><time>2026-05-01T10:19:53.253Z</time></trkpt><trkpt lat="43.9058065" lon="11.841126"><ele>630.0</ele><time>2026-05-01T10:19:54.233Z</time></trkpt><trkpt lat="43.9057928" lon="11.8410047"><ele>630.0</ele><time>2026-05-01T10:19:55.239Z</time></trkpt><trkpt lat="43.9057665" lon="11.8409151"><ele>630.0</ele><time>2026-05-01T10:19:56.241Z</time></trkpt><trkpt lat="43.9057729" lon="11.8408276"><ele>630.0</ele><time>2026-05-01T10:19:57.239Z</time></trkpt><trkpt lat="43.905771" lon="11.8407355"><ele>630.0</ele><time>2026-05-01T10:19:58.24Z</time></trkpt><trkpt lat="43.905757" lon="11.8406318"><ele>632.8</ele><time>2026-05-01T10:19:59.237Z</time></trkpt><trkpt lat="43.9057668" lon="11.8405254"><ele>635.6</ele><time>2026-05-01T10:20:00.239Z</time></trkpt><trkpt lat="43.9057765" lon="11.8403955"><ele>638.4000000000001</ele><time>2026-05-01T10:20:01.241Z</time></trkpt><trkpt lat="43.9057884" lon="11.8402678"><ele>641.2</ele><time>2026-05-01T10:20:02.235Z</time></trkpt><trkpt lat="43.9057922" lon="11.8401339"><ele>644.0</ele><time>2026-05-01T10:20:03.247Z</time></trkpt><trkpt lat="43.9057987" lon="11.8399774"><ele>645.2857142857143</ele><time>2026-05-01T10:20:04.24Z</time></trkpt><trkpt lat="43.905768" lon="11.8398935"><ele>646.5714285714286</ele><time>2026-05-01T10:20:05.242Z</time></trkpt><trkpt lat="43.9057589" lon="11.8397811"><ele>647.8571428571429</ele><time>2026-05-01T10:20:06.234Z</time></trkpt><trkpt lat="43.9057492" lon="11.839667"><ele>649.1428571428571</ele><time>2026-05-01T10:20:07.234Z</time></trkpt><trkpt lat="43.9057424" lon="11.8395765"><ele>650.4285714285714</ele><time>2026-05-01T10:20:08.241Z</time></trkpt><trkpt lat="43.9057323" lon="11.8394672"><ele>651.7142857142858</ele><time>2026-05-01T10:20:10.248Z</time></trkpt><trkpt lat="43.9057739" lon="11.839392"><ele>653.0</ele><time>2026-05-01T10:20:13.248Z</time></trkpt><trkpt lat="43.9057258" lon="11.8392833"><ele>653.25</ele><time>2026-05-01T10:20:56.117Z</time></trkpt><trkpt lat="43.9057119" lon="11.8390285"><ele>653.5</ele><time>2026-05-01T10:20:57.232Z</time></trkpt><trkpt lat="43.9057057" lon="11.8388572"><ele>653.75</ele><time>2026-05-01T10:20:59.25Z</time></trkpt><trkpt lat="43.9057081" lon="11.838697"><ele>654.0</ele><time>2026-05-01T10:21:01.24Z</time></trkpt><trkpt lat="43.9056976" lon="11.8385101"><ele>653.6</ele><time>2026-05-01T10:21:03.249Z</time></trkpt><trkpt lat="43.9056759" lon="11.8383756"><ele>653.2</ele><time>2026-05-01T10:21:36.24Z</time></trkpt><trkpt lat="43.9056696" lon="11.8382312"><ele>652.8000000000001</ele><time>2026-05-01T10:21:38.247Z</time></trkpt><trkpt lat="43.9056947" lon="11.8380639"><ele>652.4000000000001</ele><time>2026-05-01T10:21:40.254Z</time></trkpt><trkpt lat="43.905725" lon="11.8379806"><ele>652.0</ele><time>2026-05-01T10:21:41.248Z</time></trkpt><trkpt lat="43.9057231" lon="11.8378477"><ele>652.0</ele><time>2026-05-01T10:21:43.249Z</time></trkpt><trkpt lat="43.9057286" lon="11.8377314"><ele>652.0</ele><time>2026-05-01T10:21:45.243Z</time></trkpt><trkpt lat="43.9057334" lon="11.8375799"><ele>652.0</ele><time>2026-05-01T10:21:47.253Z</time></trkpt><trkpt lat="43.9057241" lon="11.8374109"><ele>652.0</ele><time>2026-05-01T10:21:49.244Z</time></trkpt><trkpt lat="43.9056985" lon="11.8372403"><ele>652.0</ele><time>2026-05-01T10:21:51.249Z</time></trkpt><trkpt lat="43.9055819" lon="11.8371431"><ele>650.8</ele><time>2026-05-01T10:21:53.256Z</time></trkpt><trkpt lat="43.905499" lon="11.8370111"><ele>649.6</ele><time>2026-05-01T10:21:55.234Z</time></trkpt><trkpt lat="43.9054579" lon="11.8369286"><ele>648.4</ele><time>2026-05-01T10:21:56.241Z</time></trkpt><trkpt lat="43.905357" lon="11.8367845"><ele>647.1999999999999</ele><time>2026-05-01T10:21:58.234Z</time></trkpt><trkpt lat="43.9053132" lon="11.8366933"><ele>646.0</ele><time>2026-05-01T10:21:59.242Z</time></trkpt><trkpt lat="43.9052589" lon="11.8366059"><ele>649.5999999999999</ele><time>2026-05-01T10:22:00.243Z</time></trkpt><trkpt lat="43.9052097" lon="11.8364971"><ele>653.2</ele><time>2026-05-01T10:22:01.246Z</time></trkpt><trkpt lat="43.9051576" lon="11.8364017"><ele>656.8</ele><time>2026-05-01T10:22:02.248Z</time></trkpt><trkpt lat="43.9051052" lon="11.8362838"><ele>660.4000000000001</ele><time>2026-05-01T10:22:03.244Z</time></trkpt><trkpt lat="43.9050593" lon="11.8361436"><ele>664.0</ele><time>2026-05-01T10:22:04.246Z</time></trkpt><trkpt lat="43.9050192" lon="11.8360163"><ele>660.4000000000001</ele><time>2026-05-01T10:22:05.231Z</time></trkpt><trkpt lat="43.9050388" lon="11.8358622"><ele>656.8</ele><time>2026-05-01T10:22:06.249Z</time></trkpt><trkpt lat="43.905023" lon="11.835735"><ele>653.2</ele><time>2026-05-01T10:22:07.248Z</time></trkpt><trkpt lat="43.9050106" lon="11.8356032"><ele>649.5999999999999</ele><time>2026-05-01T10:22:08.234Z</time></trkpt><trkpt lat="43.9050508" lon="11.8354879"><ele>646.0</ele><time>2026-05-01T10:22:09.24Z</time></trkpt><trkpt lat="43.90505" lon="11.8353617"><ele>636.3333333333334</ele><time>2026-05-01T10:22:10.241Z</time></trkpt><trkpt lat="43.9050949" lon="11.835266"><ele>626.6666666666667</ele><time>2026-05-01T10:22:11.239Z</time></trkpt><trkpt lat="43.9051709" lon="11.83521"><ele>617.0</ele><time>2026-05-01T10:22:12.239Z</time></trkpt><trkpt lat="43.9052107" lon="11.8351153"><ele>607.3333333333334</ele><time>2026-05-01T10:22:13.244Z</time></trkpt><trkpt lat="43.9052305" lon="11.8350155"><ele>597.6666666666666</ele><time>2026-05-01T10:22:14.248Z</time></trkpt><trkpt lat="43.9052221" lon="11.8349233"><ele>588.0</ele><time>2026-05-01T10:22:15.239Z</time></trkpt><trkpt lat="43.9052304" lon="11.8347933"><ele>588.0</ele><time>2026-05-01T10:22:16.235Z</time></trkpt><trkpt lat="43.905239" lon="11.8346603"><ele>588.0</ele><time>2026-05-01T10:22:17.249Z</time></trkpt><trkpt lat="43.9052576" lon="11.8345488"><ele>588.0</ele><time>2026-05-01T10:22:18.241Z</time></trkpt><trkpt lat="43.9053173" lon="11.834498"><ele>588.0</ele><time>2026-05-01T10:22:19.239Z</time></trkpt><trkpt lat="43.905374" lon="11.8344277"><ele>588.0</ele><time>2026-05-01T10:22:20.245Z</time></trkpt><trkpt lat="43.9053902" lon="11.8343038"><ele>588.0</ele><time>2026-05-01T10:22:22.237Z</time></trkpt><trkpt lat="43.9053614" lon="11.8341117"><ele>588.1999999999999</ele><time>2026-05-01T10:22:24.242Z</time></trkpt><trkpt lat="43.9053309" lon="11.8339565"><ele>588.4</ele><time>2026-05-01T10:22:25.239Z</time></trkpt><trkpt lat="43.9053289" lon="11.8338421"><ele>588.5999999999999</ele><time>2026-05-01T10:22:26.252Z</time></trkpt><trkpt lat="43.9053033" lon="11.8337258"><ele>588.8</ele><time>2026-05-01T10:22:27.247Z</time></trkpt><trkpt lat="43.9052816" lon="11.8336182"><ele>589.0</ele><time>2026-05-01T10:22:28.232Z</time></trkpt><trkpt lat="43.905243" lon="11.8334858"><ele>588.6666666666667</ele><time>2026-05-01T10:22:29.24Z</time></trkpt><trkpt lat="43.9052679" lon="11.8333717"><ele>588.3333333333334</ele><time>2026-05-01T10:22:30.25Z</time></trkpt><trkpt lat="43.9052822" lon="11.833283"><ele>588.0</ele><time>2026-05-01T10:22:31.237Z</time></trkpt><trkpt lat="43.9052932" lon="11.8331802"><ele>587.6666666666666</ele><time>2026-05-01T10:22:32.241Z</time></trkpt><trkpt lat="43.9053042" lon="11.833082"><ele>587.3333333333333</ele><time>2026-05-01T10:22:33.24Z</time></trkpt><trkpt lat="43.9053149" lon="11.8329712"><ele>587.0</ele><time>2026-05-01T10:22:34.25Z</time></trkpt><trkpt lat="43.9053054" lon="11.8328475"><ele>587.0</ele><time>2026-05-01T10:22:35.233Z</time></trkpt><trkpt lat="43.9052827" lon="11.8327501"><ele>587.0</ele><time>2026-05-01T10:22:36.233Z</time></trkpt><trkpt lat="43.9052605" lon="11.8326509"><ele>587.0</ele><time>2026-05-01T10:22:37.232Z</time></trkpt><trkpt lat="43.9052157" lon="11.8325339"><ele>587.0</ele><time>2026-05-01T10:22:38.239Z</time></trkpt><trkpt lat="43.9051345" lon="11.832394"><ele>587.0</ele><time>2026-05-01T10:22:40.241Z</time></trkpt><trkpt lat="43.9050792" lon="11.8323163"><ele>592.8000000000001</ele><time>2026-05-01T10:22:41.232Z</time></trkpt><trkpt lat="43.9050148" lon="11.8322275"><ele>598.6</ele><time>2026-05-01T10:22:42.239Z</time></trkpt><trkpt lat="43.9049215" lon="11.8321722"><ele>604.4000000000001</ele><time>2026-05-01T10:22:44.244Z</time></trkpt><trkpt lat="43.9048001" lon="11.8321672"><ele>610.2</ele><time>2026-05-01T10:22:46.24Z</time></trkpt><trkpt lat="43.9047214" lon="11.8322077"><ele>616.0</ele><time>2026-05-01T10:22:47.252Z</time></trkpt><trkpt lat="43.9046591" lon="11.8322427"><ele>616.0</ele><time>2026-05-01T10:22:48.235Z</time></trkpt><trkpt lat="43.9045415" lon="11.8323126"><ele>616.0</ele><time>2026-05-01T10:22:49.244Z</time></trkpt><trkpt lat="43.9044376" lon="11.8323067"><ele>616.0</ele><time>2026-05-01T10:22:50.241Z</time></trkpt><trkpt lat="43.9043501" lon="11.832219"><ele>616.0</ele><time>2026-05-01T10:22:52.248Z</time></trkpt><trkpt lat="43.9042725" lon="11.8321421"><ele>616.0</ele><time>2026-05-01T10:22:54.243Z</time></trkpt><trkpt lat="43.9042094" lon="11.8319907"><ele>615.5</ele><time>2026-05-01T10:22:56.237Z</time></trkpt><trkpt lat="43.9041754" lon="11.8318983"><ele>615.0</ele><time>2026-05-01T10:22:57.253Z</time></trkpt><trkpt lat="43.9041385" lon="11.8318098"><ele>614.5</ele><time>2026-05-01T10:22:58.237Z</time></trkpt><trkpt lat="43.9041037" lon="11.8317007"><ele>614.0</ele><time>2026-05-01T10:22:59.234Z</time></trkpt><trkpt lat="43.9040683" lon="11.8316233"><ele>613.5</ele><time>2026-05-01T10:23:00.238Z</time></trkpt><trkpt lat="43.9040097" lon="11.8314514"><ele>613.0</ele><time>2026-05-01T10:23:01.24Z</time></trkpt><trkpt lat="43.9039603" lon="11.8313424"><ele>609.8</ele><time>2026-05-01T10:23:02.239Z</time></trkpt><trkpt lat="43.9039225" lon="11.8312084"><ele>606.5999999999999</ele><time>2026-05-01T10:23:03.232Z</time></trkpt><trkpt lat="43.9038934" lon="11.8310587"><ele>603.4000000000001</ele><time>2026-05-01T10:23:04.241Z</time></trkpt><trkpt lat="43.9038783" lon="11.8309172"><ele>600.2</ele><time>2026-05-01T10:23:05.24Z</time></trkpt><trkpt lat="43.9038648" lon="11.8307985"><ele>597.0</ele><time>2026-05-01T10:23:06.24Z</time></trkpt><trkpt lat="43.9038527" lon="11.830667"><ele>593.8000000000001</ele><time>2026-05-01T10:23:07.24Z</time></trkpt><trkpt lat="43.9038282" lon="11.8305236"><ele>590.6</ele><time>2026-05-01T10:23:08.231Z</time></trkpt><trkpt lat="43.9038339" lon="11.8303922"><ele>587.4000000000001</ele><time>2026-05-01T10:23:09.236Z</time></trkpt><trkpt lat="43.9038287" lon="11.8302715"><ele>584.2</ele><time>2026-05-01T10:23:10.231Z</time></trkpt><trkpt lat="43.9038367" lon="11.8301159"><ele>581.0</ele><time>2026-05-01T10:23:11.247Z</time></trkpt><trkpt lat="43.9038497" lon="11.8299551"><ele>579.3333333333333</ele><time>2026-05-01T10:23:12.244Z</time></trkpt><trkpt lat="43.9038665" lon="11.8298658"><ele>577.6666666666666</ele><time>2026-05-01T10:23:13.247Z</time></trkpt><trkpt lat="43.9038788" lon="11.829764"><ele>576.0</ele><time>2026-05-01T10:23:14.23Z</time></trkpt><trkpt lat="43.9038891" lon="11.8296561"><ele>574.3333333333334</ele><time>2026-05-01T10:23:15.247Z</time></trkpt><trkpt lat="43.9039087" lon="11.8295453"><ele>572.6666666666667</ele><time>2026-05-01T10:23:16.239Z</time></trkpt><trkpt lat="43.9039746" lon="11.829423"><ele>571.0</ele><time>2026-05-01T10:23:17.239Z</time></trkpt><trkpt lat="43.9040094" lon="11.8293099"><ele>570.8333333333334</ele><time>2026-05-01T10:23:18.24Z</time></trkpt><trkpt lat="43.9040606" lon="11.8292065"><ele>570.6666666666667</ele><time>2026-05-01T10:23:19.233Z</time></trkpt><trkpt lat="43.9040918" lon="11.8290985"><ele>570.5</ele><time>2026-05-01T10:23:20.235Z</time></trkpt><trkpt lat="43.9041256" lon="11.8290116"><ele>570.3333333333334</ele><time>2026-05-01T10:23:21.239Z</time></trkpt><trkpt lat="43.9041713" lon="11.8289115"><ele>570.1666666666666</ele><time>2026-05-01T10:23:22.236Z</time></trkpt><trkpt lat="43.904214" lon="11.8288255"><ele>570.0</ele><time>2026-05-01T10:23:23.239Z</time></trkpt><trkpt lat="43.9042772" lon="11.8287455"><ele>561.2</ele><time>2026-05-01T10:23:24.239Z</time></trkpt><trkpt lat="43.9043492" lon="11.82859"><ele>552.4</ele><time>2026-05-01T10:23:25.238Z</time></trkpt><trkpt lat="43.9043864" lon="11.8284899"><ele>543.6</ele><time>2026-05-01T10:23:26.249Z</time></trkpt><trkpt lat="43.9044341" lon="11.828386"><ele>534.8</ele><time>2026-05-01T10:23:27.239Z</time></trkpt><trkpt lat="43.9044912" lon="11.8283096"><ele>526.0</ele><time>2026-05-01T10:23:28.239Z</time></trkpt><trkpt lat="43.9045407" lon="11.82822"><ele>525.6666666666667</ele><time>2026-05-01T10:23:29.245Z</time></trkpt><trkpt lat="43.904578" lon="11.8281306"><ele>525.3333333333334</ele><time>2026-05-01T10:23:30.239Z</time></trkpt><trkpt lat="43.904619" lon="11.8280361"><ele>525.0</ele><time>2026-05-01T10:23:31.237Z</time></trkpt><trkpt lat="43.9046707" lon="11.8279577"><ele>524.6666666666666</ele><time>2026-05-01T10:23:32.239Z</time></trkpt><trkpt lat="43.9046996" lon="11.8278677"><ele>524.3333333333333</ele><time>2026-05-01T10:23:33.234Z</time></trkpt><trkpt lat="43.9047426" lon="11.8277662"><ele>524.0</ele><time>2026-05-01T10:23:34.234Z</time></trkpt><trkpt lat="43.9047935" lon="11.8276904"><ele>526.2</ele><time>2026-05-01T10:23:35.239Z</time></trkpt><trkpt lat="43.9048581" lon="11.8276077"><ele>528.4</ele><time>2026-05-01T10:23:36.23Z</time></trkpt><trkpt lat="43.9049536" lon="11.8274922"><ele>530.6</ele><time>2026-05-01T10:23:37.239Z</time></trkpt><trkpt lat="43.9050194" lon="11.8273976"><ele>532.8</ele><time>2026-05-01T10:23:38.247Z</time></trkpt><trkpt lat="43.9051222" lon="11.8273168"><ele>535.0</ele><time>2026-05-01T10:23:40.235Z</time></trkpt><trkpt lat="43.9051886" lon="11.827252"><ele>528.5</ele><time>2026-05-01T10:23:41.248Z</time></trkpt><trkpt lat="43.905248" lon="11.8271973"><ele>522.0</ele><time>2026-05-01T10:23:42.231Z</time></trkpt><trkpt lat="43.9053038" lon="11.8271365"><ele>515.5</ele><time>2026-05-01T10:23:43.234Z</time></trkpt><trkpt lat="43.9053715" lon="11.827031"><ele>509.0</ele><time>2026-05-01T10:23:45.236Z</time></trkpt><trkpt lat="43.9054084" lon="11.8269428"><ele>502.50000000000006</ele><time>2026-05-01T10:23:47.234Z</time></trkpt><trkpt lat="43.9053519" lon="11.8268388"><ele>496.0</ele><time>2026-05-01T10:23:49.244Z</time></trkpt><trkpt lat="43.9053224" lon="11.8267519"><ele>495.8</ele><time>2026-05-01T10:23:50.243Z</time></trkpt><trkpt lat="43.9052834" lon="11.8266659"><ele>495.6</ele><time>2026-05-01T10:23:51.232Z</time></trkpt><trkpt lat="43.9052181" lon="11.8266009"><ele>495.4</ele><time>2026-05-01T10:23:52.244Z</time></trkpt><trkpt lat="43.9051679" lon="11.8265332"><ele>495.2</ele><time>2026-05-01T10:23:53.242Z</time></trkpt><trkpt lat="43.9050132" lon="11.8265353"><ele>495.0</ele><time>2026-05-01T10:23:54.259Z</time></trkpt><trkpt lat="43.9048539" lon="11.8264777"><ele>501.4</ele><time>2026-05-01T10:23:55.245Z</time></trkpt><trkpt lat="43.9047798" lon="11.8264635"><ele>507.8</ele><time>2026-05-01T10:23:56.23Z</time></trkpt><trkpt lat="43.9047011" lon="11.8264726"><ele>514.2</ele><time>2026-05-01T10:23:57.246Z</time></trkpt><trkpt lat="43.9045936" lon="11.8264875"><ele>520.6</ele><time>2026-05-01T10:23:58.248Z</time></trkpt><trkpt lat="43.9044522" lon="11.8264366"><ele>527.0</ele><time>2026-05-01T10:24:00.239Z</time></trkpt><trkpt lat="43.9043869" lon="11.8264325"><ele>527.0</ele><time>2026-05-01T10:24:01.235Z</time></trkpt><trkpt lat="43.9043072" lon="11.826387"><ele>527.0</ele><time>2026-05-01T10:24:02.245Z</time></trkpt><trkpt lat="43.9042872" lon="11.8262225"><ele>527.0</ele><time>2026-05-01T10:24:04.234Z</time></trkpt><trkpt lat="43.9043452" lon="11.8261856"><ele>527.0</ele><time>2026-05-01T10:24:05.24Z</time></trkpt><trkpt lat="43.9044881" lon="11.8261226"><ele>527.0</ele><time>2026-05-01T10:24:07.233Z</time></trkpt><trkpt lat="43.9045796" lon="11.8260765"><ele>527.0</ele><time>2026-05-01T10:24:08.239Z</time></trkpt><trkpt lat="43.9046812" lon="11.8260577"><ele>527.0</ele><time>2026-05-01T10:24:09.246Z</time></trkpt><trkpt lat="43.9047379" lon="11.8260044"><ele>527.0</ele><time>2026-05-01T10:24:10.231Z</time></trkpt><trkpt lat="43.9047983" lon="11.8259768"><ele>527.0</ele><time>2026-05-01T10:24:11.238Z</time></trkpt><trkpt lat="43.9048897" lon="11.8258716"><ele>527.0</ele><time>2026-05-01T10:24:13.235Z</time></trkpt><trkpt lat="43.9049781" lon="11.8258813"><ele>527.0</ele><time>2026-05-01T10:24:14.25Z</time></trkpt><trkpt lat="43.9050845" lon="11.8258457"><ele>520.6</ele><time>2026-05-01T10:24:16.239Z</time></trkpt><trkpt lat="43.9051944" lon="11.8258833"><ele>514.2</ele><time>2026-05-01T10:24:17.252Z</time></trkpt><trkpt lat="43.9053017" lon="11.8259074"><ele>507.8</ele><time>2026-05-01T10:24:18.234Z</time></trkpt><trkpt lat="43.9054038" lon="11.8259616"><ele>501.4</ele><time>2026-05-01T10:24:19.235Z</time></trkpt><trkpt lat="43.9055008" lon="11.8260222"><ele>495.0</ele><time>2026-05-01T10:24:20.247Z</time></trkpt><trkpt lat="43.905576" lon="11.8260547"><ele>495.0</ele><time>2026-05-01T10:24:21.231Z</time></trkpt><trkpt lat="43.9056423" lon="11.8261346"><ele>495.0</ele><time>2026-05-01T10:24:22.242Z</time></trkpt><trkpt lat="43.905703" lon="11.8261834"><ele>495.0</ele><time>2026-05-01T10:24:23.24Z</time></trkpt><trkpt lat="43.9057719" lon="11.8262316"><ele>495.0</ele><time>2026-05-01T10:24:24.239Z</time></trkpt><trkpt lat="43.905831" lon="11.8263133"><ele>495.0</ele><time>2026-05-01T10:24:25.236Z</time></trkpt><trkpt lat="43.9058969" lon="11.8263759"><ele>495.0</ele><time>2026-05-01T10:24:26.233Z</time></trkpt><trkpt lat="43.9059892" lon="11.8264051"><ele>490.3333333333333</ele><time>2026-05-01T10:24:27.247Z</time></trkpt><trkpt lat="43.9060752" lon="11.8264422"><ele>485.66666666666663</ele><time>2026-05-01T10:24:28.232Z</time></trkpt><trkpt lat="43.9061455" lon="11.8264198"><ele>481.0</ele><time>2026-05-01T10:24:29.238Z</time></trkpt><trkpt lat="43.9062276" lon="11.8264013"><ele>476.3333333333333</ele><time>2026-05-01T10:24:30.24Z</time></trkpt><trkpt lat="43.9063161" lon="11.8263915"><ele>471.66666666666663</ele><time>2026-05-01T10:24:31.237Z</time></trkpt><trkpt lat="43.9063913" lon="11.8264116"><ele>467.0</ele><time>2026-05-01T10:24:32.239Z</time></trkpt><trkpt lat="43.9065" lon="11.8264994"><ele>467.0</ele><time>2026-05-01T10:24:34.24Z</time></trkpt><trkpt lat="43.9065852" lon="11.8265777"><ele>467.0</ele><time>2026-05-01T10:24:35.239Z</time></trkpt><trkpt lat="43.9066619" lon="11.8266959"><ele>467.0</ele><time>2026-05-01T10:24:36.239Z</time></trkpt><trkpt lat="43.9067562" lon="11.8267804"><ele>467.0</ele><time>2026-05-01T10:24:37.238Z</time></trkpt><trkpt lat="43.9068736" lon="11.8268822"><ele>463.8</ele><time>2026-05-01T10:24:38.245Z</time></trkpt><trkpt lat="43.9069593" lon="11.826951"><ele>460.6</ele><time>2026-05-01T10:24:39.241Z</time></trkpt><trkpt lat="43.9070381" lon="11.8270281"><ele>457.40000000000003</ele><time>2026-05-01T10:24:40.235Z</time></trkpt><trkpt lat="43.9071206" lon="11.8271104"><ele>454.20000000000005</ele><time>2026-05-01T10:24:41.248Z</time></trkpt><trkpt lat="43.9071939" lon="11.8272373"><ele>451.0</ele><time>2026-05-01T10:24:42.232Z</time></trkpt><trkpt lat="43.9072674" lon="11.8273667"><ele>451.00000000000006</ele><time>2026-05-01T10:24:43.244Z</time></trkpt><trkpt lat="43.9073208" lon="11.827475"><ele>451.0</ele><time>2026-05-01T10:24:44.247Z</time></trkpt><trkpt lat="43.907381" lon="11.8275812"><ele>451.0</ele><time>2026-05-01T10:24:45.245Z</time></trkpt><trkpt lat="43.9074227" lon="11.8276498"><ele>451.0</ele><time>2026-05-01T10:24:46.242Z</time></trkpt><trkpt lat="43.9074798" lon="11.8277127"><ele>451.00000000000006</ele><time>2026-05-01T10:24:47.235Z</time></trkpt><trkpt lat="43.9075873" lon="11.8277105"><ele>451.0</ele><time>2026-05-01T10:24:49.238Z</time></trkpt><trkpt lat="43.9076392" lon="11.8276572"><ele>445.6</ele><time>2026-05-01T10:24:50.24Z</time></trkpt><trkpt lat="43.9076893" lon="11.8275783"><ele>440.20000000000005</ele><time>2026-05-01T10:24:51.24Z</time></trkpt><trkpt lat="43.9077493" lon="11.8275061"><ele>434.79999999999995</ele><time>2026-05-01T10:24:52.231Z</time></trkpt><trkpt lat="43.9078096" lon="11.827423"><ele>429.4</ele><time>2026-05-01T10:24:53.24Z</time></trkpt><trkpt lat="43.9078624" lon="11.8273342"><ele>424.0</ele><time>2026-05-01T10:24:54.239Z</time></trkpt><trkpt lat="43.9079603" lon="11.8271929"><ele>424.0</ele><time>2026-05-01T10:24:56.25Z</time></trkpt><trkpt lat="43.9080063" lon="11.8270979"><ele>424.0</ele><time>2026-05-01T10:24:57.234Z</time></trkpt><trkpt lat="43.9080484" lon="11.8269734"><ele>424.0</ele><time>2026-05-01T10:24:58.24Z</time></trkpt><trkpt lat="43.9080875" lon="11.8268319"><ele>424.0</ele><time>2026-05-01T10:24:59.239Z</time></trkpt><trkpt lat="43.9080997" lon="11.8266905"><ele>424.0</ele><time>2026-05-01T10:25:00.247Z</time></trkpt><trkpt lat="43.9081199" lon="11.8265388"><ele>424.50000000000006</ele><time>2026-05-01T10:25:01.23Z</time></trkpt><trkpt lat="43.9081399" lon="11.8264332"><ele>425.0</ele><time>2026-05-01T10:25:02.239Z</time></trkpt><trkpt lat="43.9081491" lon="11.8263366"><ele>425.5</ele><time>2026-05-01T10:25:03.251Z</time></trkpt><trkpt lat="43.9082076" lon="11.8261982"><ele>426.0</ele><time>2026-05-01T10:25:05.243Z</time></trkpt><trkpt lat="43.9082827" lon="11.8261612"><ele>426.50000000000006</ele><time>2026-05-01T10:25:06.245Z</time></trkpt><trkpt lat="43.908358" lon="11.8261483"><ele>427.0</ele><time>2026-05-01T10:25:07.247Z</time></trkpt><trkpt lat="43.9084155" lon="11.8261953"><ele>428.0</ele><time>2026-05-01T10:25:08.248Z</time></trkpt><trkpt lat="43.9085451" lon="11.8262515"><ele>429.00000000000006</ele><time>2026-05-01T10:25:10.237Z</time></trkpt><trkpt lat="43.9085766" lon="11.8263383"><ele>430.00000000000006</ele><time>2026-05-01T10:25:11.247Z</time></trkpt><trkpt lat="43.9086048" lon="11.8265028"><ele>431.0</ele><time>2026-05-01T10:25:13.231Z</time></trkpt><trkpt lat="43.9086259" lon="11.8266062"><ele>432.0</ele><time>2026-05-01T10:25:15.235Z</time></trkpt><trkpt lat="43.9086557" lon="11.8267005"><ele>432.0</ele><time>2026-05-01T10:25:17.245Z</time></trkpt><trkpt lat="43.9086932" lon="11.8267724"><ele>432.0</ele><time>2026-05-01T10:25:19.242Z</time></trkpt><trkpt lat="43.908732" lon="11.8268634"><ele>432.0</ele><time>2026-05-01T10:25:21.241Z</time></trkpt><trkpt lat="43.9087612" lon="11.8269552"><ele>432.0</ele><time>2026-05-01T10:25:23.232Z</time></trkpt><trkpt lat="43.9088103" lon="11.8270178"><ele>432.0</ele><time>2026-05-01T10:25:26.248Z</time></trkpt><trkpt lat="43.9088944" lon="11.827017"><ele>432.0</ele><time>2026-05-01T10:25:30.253Z</time></trkpt><trkpt lat="43.9089585" lon="11.8270065"><ele>432.0</ele><time>2026-05-01T10:25:32.238Z</time></trkpt><trkpt lat="43.9090276" lon="11.8270131"><ele>431.0</ele><time>2026-05-01T10:25:36.237Z</time></trkpt><trkpt lat="43.9090679" lon="11.8271022"><ele>430.00000000000006</ele><time>2026-05-01T10:26:05.236Z</time></trkpt><trkpt lat="43.9090774" lon="11.8272155"><ele>429.00000000000006</ele><time>2026-05-01T10:26:07.24Z</time></trkpt><trkpt lat="43.9090769" lon="11.8274922"><ele>428.0</ele><time>2026-05-01T10:26:09.236Z</time></trkpt><trkpt lat="43.9090667" lon="11.827606"><ele>427.0</ele><time>2026-05-01T10:26:10.241Z</time></trkpt><trkpt lat="43.9090325" lon="11.827762"><ele>427.0</ele><time>2026-05-01T10:26:11.234Z</time></trkpt><trkpt lat="43.9090312" lon="11.827905"><ele>427.0</ele><time>2026-05-01T10:26:12.245Z</time></trkpt><trkpt lat="43.9090153" lon="11.8280789"><ele>427.0</ele><time>2026-05-01T10:26:13.24Z</time></trkpt><trkpt lat="43.9089908" lon="11.8283451"><ele>427.0</ele><time>2026-05-01T10:26:14.24Z</time></trkpt><trkpt lat="43.9090052" lon="11.8287761"><ele>426.6666666666667</ele><time>2026-05-01T10:26:15.233Z</time></trkpt><trkpt lat="43.9089884" lon="11.8289827"><ele>426.33333333333337</ele><time>2026-05-01T10:26:16.248Z</time></trkpt><trkpt lat="43.9089725" lon="11.8291647"><ele>426.0</ele><time>2026-05-01T10:26:17.24Z</time></trkpt><trkpt lat="43.9089548" lon="11.8295376"><ele>426.0</ele><time>2026-05-01T10:26:18.236Z</time></trkpt><trkpt lat="43.9089233" lon="11.8297933"><ele>426.0</ele><time>2026-05-01T10:26:19.249Z</time></trkpt><trkpt lat="43.9089152" lon="11.8299283"><ele>426.0</ele><time>2026-05-01T10:26:20.237Z</time></trkpt><trkpt lat="43.9088963" lon="11.8301116"><ele>426.0</ele><time>2026-05-01T10:26:21.249Z</time></trkpt><trkpt lat="43.9089199" lon="11.8303108"><ele>423.66666666666663</ele><time>2026-05-01T10:26:22.248Z</time></trkpt><trkpt lat="43.9089503" lon="11.8304918"><ele>421.3333333333333</ele><time>2026-05-01T10:26:23.25Z</time></trkpt><trkpt lat="43.9089894" lon="11.8306601"><ele>419.0</ele><time>2026-05-01T10:26:24.24Z</time></trkpt><trkpt lat="43.9091248" lon="11.8308549"><ele>417.3333333333333</ele><time>2026-05-01T10:26:25.232Z</time></trkpt><trkpt lat="43.9091884" lon="11.8310693"><ele>415.66666666666663</ele><time>2026-05-01T10:26:26.237Z</time></trkpt><trkpt lat="43.9092729" lon="11.8312779"><ele>414.0</ele><time>2026-05-01T10:26:27.233Z</time></trkpt><trkpt lat="43.9093478" lon="11.8314789"><ele>419.33333333333337</ele><time>2026-05-01T10:26:28.237Z</time></trkpt><trkpt lat="43.90941" lon="11.831687"><ele>424.6666666666667</ele><time>2026-05-01T10:26:29.239Z</time></trkpt><trkpt lat="43.9094451" lon="11.8318983"><ele>430.0</ele><time>2026-05-01T10:26:30.239Z</time></trkpt><trkpt lat="43.9094869" lon="11.8321126"><ele>430.0</ele><time>2026-05-01T10:26:31.239Z</time></trkpt><trkpt lat="43.9095293" lon="11.8323207"><ele>430.0</ele><time>2026-05-01T10:26:32.237Z</time></trkpt><trkpt lat="43.9095519" lon="11.8325321"><ele>430.0</ele><time>2026-05-01T10:26:33.236Z</time></trkpt><trkpt lat="43.9095684" lon="11.8327528"><ele>426.6666666666667</ele><time>2026-05-01T10:26:34.236Z</time></trkpt><trkpt lat="43.9095937" lon="11.8329806"><ele>423.33333333333337</ele><time>2026-05-01T10:26:35.23Z</time></trkpt><trkpt lat="43.9096348" lon="11.8331771"><ele>420.0</ele><time>2026-05-01T10:26:36.239Z</time></trkpt><trkpt lat="43.9097101" lon="11.8333769"><ele>418.33333333333337</ele><time>2026-05-01T10:26:37.239Z</time></trkpt><trkpt lat="43.9097703" lon="11.833583"><ele>416.6666666666667</ele><time>2026-05-01T10:26:38.239Z</time></trkpt><trkpt lat="43.9098292" lon="11.8337825"><ele>415.0</ele><time>2026-05-01T10:26:39.242Z</time></trkpt><trkpt lat="43.9098688" lon="11.8339996"><ele>415.0</ele><time>2026-05-01T10:26:40.236Z</time></trkpt><trkpt lat="43.9099097" lon="11.8342206"><ele>415.0</ele><time>2026-05-01T10:26:41.239Z</time></trkpt><trkpt lat="43.9099322" lon="11.8343632"><ele>415.0</ele><time>2026-05-01T10:26:42.239Z</time></trkpt><trkpt lat="43.909956" lon="11.8345311"><ele>415.0</ele><time>2026-05-01T10:26:43.232Z</time></trkpt><trkpt lat="43.9099768" lon="11.8346818"><ele>414.0</ele><time>2026-05-01T10:26:44.237Z</time></trkpt><trkpt lat="43.9100044" lon="11.8348222"><ele>413.0</ele><time>2026-05-01T10:26:45.238Z</time></trkpt><trkpt lat="43.9100362" lon="11.8349273"><ele>412.0</ele><time>2026-05-01T10:26:46.246Z</time></trkpt><trkpt lat="43.9100991" lon="11.8350557"><ele>411.0</ele><time>2026-05-01T10:26:47.24Z</time></trkpt><trkpt lat="43.9101509" lon="11.8351541"><ele>410.0</ele><time>2026-05-01T10:26:48.238Z</time></trkpt><trkpt lat="43.9103389" lon="11.8352501"><ele>409.0</ele><time>2026-05-01T10:26:49.232Z</time></trkpt><trkpt lat="43.9104653" lon="11.8353442"><ele>408.0</ele><time>2026-05-01T10:26:50.232Z</time></trkpt><trkpt lat="43.9106178" lon="11.8354806"><ele>407.0</ele><time>2026-05-01T10:26:51.234Z</time></trkpt><trkpt lat="43.9107813" lon="11.8355999"><ele>408.66666666666663</ele><time>2026-05-01T10:26:52.23Z</time></trkpt><trkpt lat="43.9109434" lon="11.8357181"><ele>410.33333333333337</ele><time>2026-05-01T10:26:53.24Z</time></trkpt><trkpt lat="43.9111389" lon="11.8358392"><ele>412.0</ele><time>2026-05-01T10:26:54.248Z</time></trkpt><trkpt lat="43.9113043" lon="11.8359733"><ele>409.0</ele><time>2026-05-01T10:26:55.232Z</time></trkpt><trkpt lat="43.9114637" lon="11.8360815"><ele>406.0</ele><time>2026-05-01T10:26:56.23Z</time></trkpt><trkpt lat="43.9116215" lon="11.8362047"><ele>403.0</ele><time>2026-05-01T10:26:57.247Z</time></trkpt><trkpt lat="43.9117769" lon="11.8362718"><ele>403.0</ele><time>2026-05-01T10:26:58.24Z</time></trkpt><trkpt lat="43.9119308" lon="11.8363602"><ele>403.0</ele><time>2026-05-01T10:26:59.237Z</time></trkpt><trkpt lat="43.9121309" lon="11.8364173"><ele>403.0</ele><time>2026-05-01T10:27:00.246Z</time></trkpt><trkpt lat="43.9123092" lon="11.8364552"><ele>403.0</ele><time>2026-05-01T10:27:01.235Z</time></trkpt><trkpt lat="43.9124822" lon="11.8364694"><ele>403.0</ele><time>2026-05-01T10:27:02.239Z</time></trkpt><trkpt lat="43.9126776" lon="11.8364946"><ele>403.0</ele><time>2026-05-01T10:27:03.234Z</time></trkpt><trkpt lat="43.9128795" lon="11.8364921"><ele>403.33333333333337</ele><time>2026-05-01T10:27:04.238Z</time></trkpt><trkpt lat="43.913078" lon="11.8364921"><ele>403.66666666666663</ele><time>2026-05-01T10:27:05.235Z</time></trkpt><trkpt lat="43.9132653" lon="11.8365223"><ele>404.0</ele><time>2026-05-01T10:27:06.247Z</time></trkpt><trkpt lat="43.9134499" lon="11.8365843"><ele>405.3333333333333</ele><time>2026-05-01T10:27:07.232Z</time></trkpt><trkpt lat="43.9136429" lon="11.8366489"><ele>406.66666666666663</ele><time>2026-05-01T10:27:08.239Z</time></trkpt><trkpt lat="43.9138376" lon="11.8366637"><ele>408.0</ele><time>2026-05-01T10:27:09.243Z</time></trkpt><trkpt lat="43.9139982" lon="11.8367037"><ele>408.0</ele><time>2026-05-01T10:27:10.231Z</time></trkpt><trkpt lat="43.91416" lon="11.8367063"><ele>408.0</ele><time>2026-05-01T10:27:11.239Z</time></trkpt><trkpt lat="43.9143429" lon="11.836618"><ele>408.0</ele><time>2026-05-01T10:27:12.234Z</time></trkpt><trkpt lat="43.9145003" lon="11.8365743"><ele>407.75</ele><time>2026-05-01T10:27:13.238Z</time></trkpt><trkpt lat="43.914646" lon="11.8365329"><ele>407.5</ele><time>2026-05-01T10:27:14.249Z</time></trkpt><trkpt lat="43.9148098" lon="11.8364946"><ele>407.25</ele><time>2026-05-01T10:27:15.24Z</time></trkpt><trkpt lat="43.9149433" lon="11.8364943"><ele>407.0</ele><time>2026-05-01T10:27:16.238Z</time></trkpt><trkpt lat="43.915093" lon="11.8366127"><ele>409.0</ele><time>2026-05-01T10:27:17.231Z</time></trkpt><trkpt lat="43.9152709" lon="11.8366938"><ele>411.0</ele><time>2026-05-01T10:27:18.233Z</time></trkpt><trkpt lat="43.9154401" lon="11.8367893"><ele>413.0</ele><time>2026-05-01T10:27:19.239Z</time></trkpt><trkpt lat="43.9155706" lon="11.8368536"><ele>410.66666666666663</ele><time>2026-05-01T10:27:20.231Z</time></trkpt><trkpt lat="43.9157197" lon="11.8369516"><ele>408.33333333333337</ele><time>2026-05-01T10:27:21.25Z</time></trkpt><trkpt lat="43.9158613" lon="11.837035"><ele>406.0</ele><time>2026-05-01T10:27:22.231Z</time></trkpt><trkpt lat="43.9160017" lon="11.8371121"><ele>406.0</ele><time>2026-05-01T10:27:23.235Z</time></trkpt><trkpt lat="43.9161374" lon="11.8371898"><ele>406.0</ele><time>2026-05-01T10:27:24.238Z</time></trkpt><trkpt lat="43.9162766" lon="11.8373133"><ele>406.0</ele><time>2026-05-01T10:27:25.229Z</time></trkpt><trkpt lat="43.9164082" lon="11.8374336"><ele>406.0</ele><time>2026-05-01T10:27:26.241Z</time></trkpt><trkpt lat="43.9165446" lon="11.8375765"><ele>406.0</ele><time>2026-05-01T10:27:27.239Z</time></trkpt><trkpt lat="43.9166693" lon="11.8376578"><ele>406.0</ele><time>2026-05-01T10:27:28.239Z</time></trkpt><trkpt lat="43.9168114" lon="11.8377514"><ele>403.33333333333337</ele><time>2026-05-01T10:27:29.24Z</time></trkpt><trkpt lat="43.9169879" lon="11.8378218"><ele>400.66666666666663</ele><time>2026-05-01T10:27:30.232Z</time></trkpt><trkpt lat="43.9171542" lon="11.8378859"><ele>398.0</ele><time>2026-05-01T10:27:31.24Z</time></trkpt><trkpt lat="43.9173273" lon="11.8379436"><ele>398.0</ele><time>2026-05-01T10:27:32.232Z</time></trkpt><trkpt lat="43.9175022" lon="11.8380128"><ele>398.0</ele><time>2026-05-01T10:27:33.237Z</time></trkpt><trkpt lat="43.917661" lon="11.8380719"><ele>398.0</ele><time>2026-05-01T10:27:34.246Z</time></trkpt><trkpt lat="43.9178105" lon="11.8381289"><ele>401.0</ele><time>2026-05-01T10:27:35.232Z</time></trkpt><trkpt lat="43.9179485" lon="11.8381876"><ele>404.0</ele><time>2026-05-01T10:27:36.237Z</time></trkpt><trkpt lat="43.9180836" lon="11.838244"><ele>407.0</ele><time>2026-05-01T10:27:37.246Z</time></trkpt><trkpt lat="43.9182016" lon="11.8383294"><ele>410.0</ele><time>2026-05-01T10:27:38.233Z</time></trkpt><trkpt lat="43.9183185" lon="11.8384408"><ele>412.3333333333333</ele><time>2026-05-01T10:27:39.234Z</time></trkpt><trkpt lat="43.9184262" lon="11.8385684"><ele>414.66666666666663</ele><time>2026-05-01T10:27:40.239Z</time></trkpt><trkpt lat="43.9185293" lon="11.8387178"><ele>417.0</ele><time>2026-05-01T10:27:41.233Z</time></trkpt><trkpt lat="43.9186126" lon="11.8389063"><ele>417.0</ele><time>2026-05-01T10:27:42.239Z</time></trkpt><trkpt lat="43.9186399" lon="11.8391245"><ele>417.0</ele><time>2026-05-01T10:27:43.245Z</time></trkpt><trkpt lat="43.9186872" lon="11.8393319"><ele>417.0</ele><time>2026-05-01T10:27:44.238Z</time></trkpt><trkpt lat="43.9187419" lon="11.8395379"><ele>416.0</ele><time>2026-05-01T10:27:45.235Z</time></trkpt><trkpt lat="43.9188018" lon="11.8397415"><ele>415.0</ele><time>2026-05-01T10:27:46.246Z</time></trkpt><trkpt lat="43.9188443" lon="11.8399313"><ele>414.0</ele><time>2026-05-01T10:27:47.239Z</time></trkpt><trkpt lat="43.9189049" lon="11.8401605"><ele>414.0</ele><time>2026-05-01T10:27:48.234Z</time></trkpt><trkpt lat="43.9189593" lon="11.8403633"><ele>414.0</ele><time>2026-05-01T10:27:49.232Z</time></trkpt><trkpt lat="43.9189972" lon="11.8406456"><ele>414.0</ele><time>2026-05-01T10:27:50.238Z</time></trkpt><trkpt lat="43.9190488" lon="11.8409109"><ele>413.0</ele><time>2026-05-01T10:27:51.231Z</time></trkpt><trkpt lat="43.9190979" lon="11.8411686"><ele>412.0</ele><time>2026-05-01T10:27:52.239Z</time></trkpt><trkpt lat="43.9191228" lon="11.8413885"><ele>411.0</ele><time>2026-05-01T10:27:53.23Z</time></trkpt><trkpt lat="43.9191561" lon="11.8416042"><ele>409.66666666666663</ele><time>2026-05-01T10:27:54.235Z</time></trkpt><trkpt lat="43.9191674" lon="11.8418181"><ele>408.3333333333333</ele><time>2026-05-01T10:27:55.23Z</time></trkpt><trkpt lat="43.9191637" lon="11.8420224"><ele>407.0</ele><time>2026-05-01T10:27:56.24Z</time></trkpt><trkpt lat="43.9191685" lon="11.842262"><ele>407.0</ele><time>2026-05-01T10:27:57.233Z</time></trkpt><trkpt lat="43.9191725" lon="11.842487"><ele>407.0</ele><time>2026-05-01T10:27:58.232Z</time></trkpt><trkpt lat="43.9191732" lon="11.842638"><ele>407.0</ele><time>2026-05-01T10:27:59.239Z</time></trkpt><trkpt lat="43.9191812" lon="11.8428168"><ele>407.0</ele><time>2026-05-01T10:28:00.239Z</time></trkpt><trkpt lat="43.9192155" lon="11.8429394"><ele>406.75</ele><time>2026-05-01T10:28:01.24Z</time></trkpt><trkpt lat="43.9192794" lon="11.8430084"><ele>406.5</ele><time>2026-05-01T10:28:02.233Z</time></trkpt><trkpt lat="43.9193586" lon="11.8430916"><ele>406.25</ele><time>2026-05-01T10:28:03.24Z</time></trkpt><trkpt lat="43.9195078" lon="11.8432027"><ele>406.0</ele><time>2026-05-01T10:28:04.245Z</time></trkpt><trkpt lat="43.9196555" lon="11.843319"><ele>406.0</ele><time>2026-05-01T10:28:05.231Z</time></trkpt><trkpt lat="43.9198084" lon="11.8434309"><ele>406.0</ele><time>2026-05-01T10:28:06.234Z</time></trkpt><trkpt lat="43.9199315" lon="11.8435192"><ele>406.0</ele><time>2026-05-01T10:28:07.231Z</time></trkpt><trkpt lat="43.9200584" lon="11.8436177"><ele>404.75</ele><time>2026-05-01T10:28:08.232Z</time></trkpt><trkpt lat="43.9201794" lon="11.8436507"><ele>403.5</ele><time>2026-05-01T10:28:09.247Z</time></trkpt><trkpt lat="43.9202996" lon="11.8436921"><ele>402.25</ele><time>2026-05-01T10:28:10.229Z</time></trkpt><trkpt lat="43.9204036" lon="11.8437594"><ele>401.0</ele><time>2026-05-01T10:28:11.239Z</time></trkpt><trkpt lat="43.9204951" lon="11.8438491"><ele>401.0</ele><time>2026-05-01T10:28:12.239Z</time></trkpt><trkpt lat="43.9205671" lon="11.8439811"><ele>401.0</ele><time>2026-05-01T10:28:13.237Z</time></trkpt><trkpt lat="43.9206227" lon="11.8441236"><ele>401.0</ele><time>2026-05-01T10:28:14.24Z</time></trkpt><trkpt lat="43.9206817" lon="11.8442418"><ele>401.0</ele><time>2026-05-01T10:28:15.24Z</time></trkpt><trkpt lat="43.9207464" lon="11.8443414"><ele>401.0</ele><time>2026-05-01T10:28:16.235Z</time></trkpt><trkpt lat="43.9208532" lon="11.8443868"><ele>399.25</ele><time>2026-05-01T10:28:17.233Z</time></trkpt><trkpt lat="43.920946" lon="11.8443835"><ele>397.5</ele><time>2026-05-01T10:28:18.237Z</time></trkpt><trkpt lat="43.9210329" lon="11.8443613"><ele>395.75</ele><time>2026-05-01T10:28:19.246Z</time></trkpt><trkpt lat="43.9211777" lon="11.8443053"><ele>394.0</ele><time>2026-05-01T10:28:20.248Z</time></trkpt><trkpt lat="43.9212762" lon="11.8442056"><ele>394.0</ele><time>2026-05-01T10:28:21.246Z</time></trkpt><trkpt lat="43.9213897" lon="11.8441572"><ele>394.0</ele><time>2026-05-01T10:28:22.232Z</time></trkpt><trkpt lat="43.921495" lon="11.8441614"><ele>394.0</ele><time>2026-05-01T10:28:23.245Z</time></trkpt><trkpt lat="43.92161" lon="11.8441561"><ele>394.0</ele><time>2026-05-01T10:28:24.245Z</time></trkpt><trkpt lat="43.9218101" lon="11.8441817"><ele>391.5</ele><time>2026-05-01T10:28:25.24Z</time></trkpt><trkpt lat="43.9219727" lon="11.8441842"><ele>389.0</ele><time>2026-05-01T10:28:26.236Z</time></trkpt><trkpt lat="43.9220896" lon="11.8441216"><ele>386.5</ele><time>2026-05-01T10:28:27.236Z</time></trkpt><trkpt lat="43.9222124" lon="11.8440707"><ele>384.0</ele><time>2026-05-01T10:28:28.236Z</time></trkpt><trkpt lat="43.9223472" lon="11.8439995"><ele>384.0</ele><time>2026-05-01T10:28:29.239Z</time></trkpt><trkpt lat="43.922464" lon="11.8439341"><ele>384.0</ele><time>2026-05-01T10:28:30.235Z</time></trkpt><trkpt lat="43.9225772" lon="11.8438668"><ele>384.0</ele><time>2026-05-01T10:28:31.24Z</time></trkpt><trkpt lat="43.9227008" lon="11.8438303"><ele>384.0</ele><time>2026-05-01T10:28:32.246Z</time></trkpt><trkpt lat="43.9228189" lon="11.8437933"><ele>384.25</ele><time>2026-05-01T10:28:33.246Z</time></trkpt><trkpt lat="43.9229667" lon="11.8437857"><ele>384.5</ele><time>2026-05-01T10:28:34.247Z</time></trkpt><trkpt lat="43.9230918" lon="11.843784"><ele>384.75</ele><time>2026-05-01T10:28:35.239Z</time></trkpt><trkpt lat="43.9232336" lon="11.8437839"><ele>385.0</ele><time>2026-05-01T10:28:36.238Z</time></trkpt><trkpt lat="43.9233375" lon="11.8438086"><ele>394.75</ele><time>2026-05-01T10:28:37.232Z</time></trkpt><trkpt lat="43.9234205" lon="11.8439559"><ele>404.5</ele><time>2026-05-01T10:28:38.248Z</time></trkpt><trkpt lat="43.9235268" lon="11.8440462"><ele>414.25</ele><time>2026-05-01T10:28:39.238Z</time></trkpt><trkpt lat="43.9236244" lon="11.8441543"><ele>424.0</ele><time>2026-05-01T10:28:40.236Z</time></trkpt><trkpt lat="43.9237025" lon="11.8442803"><ele>422.0</ele><time>2026-05-01T10:28:41.247Z</time></trkpt><trkpt lat="43.9237695" lon="11.8444083"><ele>420.0</ele><time>2026-05-01T10:28:42.239Z</time></trkpt><trkpt lat="43.9238212" lon="11.8445452"><ele>418.0</ele><time>2026-05-01T10:28:43.236Z</time></trkpt><trkpt lat="43.9238792" lon="11.844694"><ele>416.0</ele><time>2026-05-01T10:28:44.239Z</time></trkpt><trkpt lat="43.9239146" lon="11.8449764"><ele>416.66666666666663</ele><time>2026-05-01T10:28:45.239Z</time></trkpt><trkpt lat="43.9239223" lon="11.8451661"><ele>417.33333333333337</ele><time>2026-05-01T10:28:46.234Z</time></trkpt><trkpt lat="43.9239233" lon="11.845388"><ele>418.0</ele><time>2026-05-01T10:28:47.231Z</time></trkpt><trkpt lat="43.9239215" lon="11.8456266"><ele>418.0</ele><time>2026-05-01T10:28:48.239Z</time></trkpt><trkpt lat="43.9238407" lon="11.8458103"><ele>418.0</ele><time>2026-05-01T10:28:49.238Z</time></trkpt><trkpt lat="43.9237722" lon="11.8460019"><ele>418.0</ele><time>2026-05-01T10:28:50.233Z</time></trkpt><trkpt lat="43.9236927" lon="11.8462142"><ele>421.0</ele><time>2026-05-01T10:28:51.239Z</time></trkpt><trkpt lat="43.9236121" lon="11.8463632"><ele>424.0</ele><time>2026-05-01T10:28:52.241Z</time></trkpt><trkpt lat="43.9235102" lon="11.8465218"><ele>427.0</ele><time>2026-05-01T10:28:53.232Z</time></trkpt><trkpt lat="43.9233906" lon="11.8466695"><ele>430.0</ele><time>2026-05-01T10:28:54.248Z</time></trkpt><trkpt lat="43.9232829" lon="11.8467486"><ele>422.0</ele><time>2026-05-01T10:28:55.232Z</time></trkpt><trkpt lat="43.9231914" lon="11.8468821"><ele>414.0</ele><time>2026-05-01T10:28:56.232Z</time></trkpt><trkpt lat="43.9230946" lon="11.8470175"><ele>406.0</ele><time>2026-05-01T10:28:57.239Z</time></trkpt><trkpt lat="43.9230131" lon="11.8471718"><ele>398.0</ele><time>2026-05-01T10:28:58.245Z</time></trkpt><trkpt lat="43.9229332" lon="11.8473177"><ele>398.0</ele><time>2026-05-01T10:28:59.24Z</time></trkpt><trkpt lat="43.9228525" lon="11.8474434"><ele>398.0</ele><time>2026-05-01T10:29:00.237Z</time></trkpt><trkpt lat="43.9227649" lon="11.8475779"><ele>398.0</ele><time>2026-05-01T10:29:01.248Z</time></trkpt><trkpt lat="43.9226638" lon="11.8477063"><ele>398.0</ele><time>2026-05-01T10:29:02.247Z</time></trkpt><trkpt lat="43.9225974" lon="11.8478278"><ele>395.0</ele><time>2026-05-01T10:29:03.239Z</time></trkpt><trkpt lat="43.9225351" lon="11.8479357"><ele>392.0</ele><time>2026-05-01T10:29:04.25Z</time></trkpt><trkpt lat="43.9225007" lon="11.8480887"><ele>389.0</ele><time>2026-05-01T10:29:05.25Z</time></trkpt><trkpt lat="43.9224871" lon="11.8482088"><ele>386.0</ele><time>2026-05-01T10:29:06.239Z</time></trkpt><trkpt lat="43.9225648" lon="11.8483092"><ele>383.0</ele><time>2026-05-01T10:29:07.238Z</time></trkpt><trkpt lat="43.9226456" lon="11.8483816"><ele>378.75</ele><time>2026-05-01T10:29:08.245Z</time></trkpt><trkpt lat="43.922735" lon="11.8484729"><ele>374.5</ele><time>2026-05-01T10:29:09.232Z</time></trkpt><trkpt lat="43.9228686" lon="11.8485057"><ele>370.25</ele><time>2026-05-01T10:29:10.239Z</time></trkpt><trkpt lat="43.9230477" lon="11.8485067"><ele>366.0</ele><time>2026-05-01T10:29:11.24Z</time></trkpt><trkpt lat="43.9232005" lon="11.8485166"><ele>366.0</ele><time>2026-05-01T10:29:12.238Z</time></trkpt><trkpt lat="43.9233638" lon="11.8485259"><ele>366.0</ele><time>2026-05-01T10:29:13.239Z</time></trkpt><trkpt lat="43.9235491" lon="11.8484307"><ele>366.0</ele><time>2026-05-01T10:29:14.239Z</time></trkpt><trkpt lat="43.9237238" lon="11.8484119"><ele>366.0</ele><time>2026-05-01T10:29:15.239Z</time></trkpt><trkpt lat="43.9238828" lon="11.8483863"><ele>366.0</ele><time>2026-05-01T10:29:16.236Z</time></trkpt><trkpt lat="43.9240478" lon="11.8483436"><ele>366.0</ele><time>2026-05-01T10:29:17.247Z</time></trkpt><trkpt lat="43.9242416" lon="11.8483328"><ele>366.0</ele><time>2026-05-01T10:29:18.233Z</time></trkpt><trkpt lat="43.9243556" lon="11.8482828"><ele>366.0</ele><time>2026-05-01T10:29:19.242Z</time></trkpt><trkpt lat="43.9244928" lon="11.8482241"><ele>366.0</ele><time>2026-05-01T10:29:20.246Z</time></trkpt><trkpt lat="43.9246408" lon="11.8481834"><ele>366.0</ele><time>2026-05-01T10:29:21.248Z</time></trkpt><trkpt lat="43.9247834" lon="11.8481254"><ele>366.0</ele><time>2026-05-01T10:29:22.238Z</time></trkpt><trkpt lat="43.9249372" lon="11.8480589"><ele>366.0</ele><time>2026-05-01T10:29:23.24Z</time></trkpt><trkpt lat="43.9250822" lon="11.8480015"><ele>366.0</ele><time>2026-05-01T10:29:24.245Z</time></trkpt><trkpt lat="43.9252333" lon="11.8479592"><ele>365.6666666666667</ele><time>2026-05-01T10:29:25.234Z</time></trkpt><trkpt lat="43.9253888" lon="11.8479201"><ele>365.33333333333337</ele><time>2026-05-01T10:29:26.239Z</time></trkpt><trkpt lat="43.9255525" lon="11.8479085"><ele>365.0</ele><time>2026-05-01T10:29:27.247Z</time></trkpt><trkpt lat="43.9257194" lon="11.8479229"><ele>365.0</ele><time>2026-05-01T10:29:28.232Z</time></trkpt><trkpt lat="43.9258864" lon="11.8479575"><ele>365.0</ele><time>2026-05-01T10:29:29.245Z</time></trkpt><trkpt lat="43.9260561" lon="11.848008"><ele>365.0</ele><time>2026-05-01T10:29:30.233Z</time></trkpt><trkpt lat="43.9262232" lon="11.848071"><ele>368.6666666666667</ele><time>2026-05-01T10:29:31.236Z</time></trkpt><trkpt lat="43.926399" lon="11.8481938"><ele>372.3333333333333</ele><time>2026-05-01T10:29:32.233Z</time></trkpt><trkpt lat="43.9265373" lon="11.8482809"><ele>376.0</ele><time>2026-05-01T10:29:33.234Z</time></trkpt><trkpt lat="43.9266662" lon="11.8483979"><ele>375.5</ele><time>2026-05-01T10:29:34.23Z</time></trkpt><trkpt lat="43.9267851" lon="11.8485132"><ele>375.0</ele><time>2026-05-01T10:29:35.239Z</time></trkpt><trkpt lat="43.9268831" lon="11.8486538"><ele>374.5</ele><time>2026-05-01T10:29:36.235Z</time></trkpt><trkpt lat="43.9269986" lon="11.8487313"><ele>374.0</ele><time>2026-05-01T10:29:37.23Z</time></trkpt><trkpt lat="43.9271272" lon="11.848804"><ele>374.0</ele><time>2026-05-01T10:29:38.23Z</time></trkpt><trkpt lat="43.9272572" lon="11.8488899"><ele>374.0</ele><time>2026-05-01T10:29:39.238Z</time></trkpt><trkpt lat="43.9273965" lon="11.8489937"><ele>374.0</ele><time>2026-05-01T10:29:40.251Z</time></trkpt><trkpt lat="43.9275412" lon="11.8490787"><ele>375.6666666666667</ele><time>2026-05-01T10:29:41.248Z</time></trkpt><trkpt lat="43.927687" lon="11.8491358"><ele>377.3333333333333</ele><time>2026-05-01T10:29:42.24Z</time></trkpt><trkpt lat="43.9278626" lon="11.8491773"><ele>379.0</ele><time>2026-05-01T10:29:43.24Z</time></trkpt><trkpt lat="43.9280239" lon="11.8492219"><ele>379.0</ele><time>2026-05-01T10:29:44.251Z</time></trkpt><trkpt lat="43.9281868" lon="11.8492442"><ele>379.0</ele><time>2026-05-01T10:29:45.239Z</time></trkpt><trkpt lat="43.9283578" lon="11.8492915"><ele>379.0</ele><time>2026-05-01T10:29:46.248Z</time></trkpt><trkpt lat="43.9285372" lon="11.8493405"><ele>375.0</ele><time>2026-05-01T10:29:47.24Z</time></trkpt><trkpt lat="43.9287176" lon="11.8494046"><ele>371.0</ele><time>2026-05-01T10:29:48.234Z</time></trkpt><trkpt lat="43.9289058" lon="11.8494674"><ele>367.0</ele><time>2026-05-01T10:29:49.246Z</time></trkpt><trkpt lat="43.9290758" lon="11.8495374"><ele>369.3333333333333</ele><time>2026-05-01T10:29:50.248Z</time></trkpt><trkpt lat="43.9292348" lon="11.8496237"><ele>371.6666666666667</ele><time>2026-05-01T10:29:51.247Z</time></trkpt><trkpt lat="43.929382" lon="11.8497148"><ele>374.0</ele><time>2026-05-01T10:29:52.241Z</time></trkpt><trkpt lat="43.9295078" lon="11.8497965"><ele>374.0</ele><time>2026-05-01T10:29:53.234Z</time></trkpt><trkpt lat="43.9296298" lon="11.8498699"><ele>374.0</ele><time>2026-05-01T10:29:54.241Z</time></trkpt><trkpt lat="43.929747" lon="11.8499137"><ele>374.0</ele><time>2026-05-01T10:29:55.236Z</time></trkpt><trkpt lat="43.9298824" lon="11.8499729"><ele>374.0</ele><time>2026-05-01T10:29:56.244Z</time></trkpt><trkpt lat="43.9299565" lon="11.8500527"><ele>373.4</ele><time>2026-05-01T10:29:57.24Z</time></trkpt><trkpt lat="43.9300205" lon="11.850163"><ele>372.79999999999995</ele><time>2026-05-01T10:29:58.236Z</time></trkpt><trkpt lat="43.9300626" lon="11.8502941"><ele>372.20000000000005</ele><time>2026-05-01T10:29:59.232Z</time></trkpt><trkpt lat="43.9300895" lon="11.8504409"><ele>371.6</ele><time>2026-05-01T10:30:00.235Z</time></trkpt><trkpt lat="43.9300959" lon="11.8506155"><ele>371.0</ele><time>2026-05-01T10:30:01.23Z</time></trkpt><trkpt lat="43.9300983" lon="11.8507644"><ele>371.0</ele><time>2026-05-01T10:30:02.241Z</time></trkpt><trkpt lat="43.9300448" lon="11.8509139"><ele>371.0</ele><time>2026-05-01T10:30:03.24Z</time></trkpt><trkpt lat="43.9299784" lon="11.8510511"><ele>371.0</ele><time>2026-05-01T10:30:04.247Z</time></trkpt><trkpt lat="43.9298999" lon="11.8512234"><ele>371.0</ele><time>2026-05-01T10:30:05.232Z</time></trkpt><trkpt lat="43.9298502" lon="11.8513953"><ele>371.75</ele><time>2026-05-01T10:30:06.237Z</time></trkpt><trkpt lat="43.92982" lon="11.851575"><ele>372.5</ele><time>2026-05-01T10:30:07.238Z</time></trkpt><trkpt lat="43.929782" lon="11.8517631"><ele>373.25</ele><time>2026-05-01T10:30:08.238Z</time></trkpt><trkpt lat="43.9297608" lon="11.8519303"><ele>374.0</ele><time>2026-05-01T10:30:09.247Z</time></trkpt><trkpt lat="43.9297343" lon="11.8521191"><ele>374.0</ele><time>2026-05-01T10:30:10.231Z</time></trkpt><trkpt lat="43.9297125" lon="11.852307"><ele>374.0</ele><time>2026-05-01T10:30:11.233Z</time></trkpt><trkpt lat="43.9297002" lon="11.8524779"><ele>374.0</ele><time>2026-05-01T10:30:12.246Z</time></trkpt><trkpt lat="43.9296829" lon="11.8526846"><ele>374.0</ele><time>2026-05-01T10:30:13.233Z</time></trkpt><trkpt lat="43.9296973" lon="11.852881"><ele>372.6666666666667</ele><time>2026-05-01T10:30:14.244Z</time></trkpt><trkpt lat="43.9297226" lon="11.8530653"><ele>371.3333333333333</ele><time>2026-05-01T10:30:15.239Z</time></trkpt><trkpt lat="43.9297997" lon="11.8533216"><ele>370.0</ele><time>2026-05-01T10:30:16.238Z</time></trkpt><trkpt lat="43.9298875" lon="11.8534967"><ele>370.0</ele><time>2026-05-01T10:30:17.239Z</time></trkpt><trkpt lat="43.9299571" lon="11.8536651"><ele>370.0</ele><time>2026-05-01T10:30:18.234Z</time></trkpt><trkpt lat="43.9300094" lon="11.8538196"><ele>370.0</ele><time>2026-05-01T10:30:19.239Z</time></trkpt><trkpt lat="43.9300702" lon="11.8539933"><ele>370.0</ele><time>2026-05-01T10:30:20.231Z</time></trkpt><trkpt lat="43.9301136" lon="11.8541818"><ele>375.5</ele><time>2026-05-01T10:30:21.236Z</time></trkpt><trkpt lat="43.9301391" lon="11.8543804"><ele>381.0</ele><time>2026-05-01T10:30:22.239Z</time></trkpt><trkpt lat="43.9301648" lon="11.8545849"><ele>386.5</ele><time>2026-05-01T10:30:23.239Z</time></trkpt><trkpt lat="43.9301932" lon="11.8547835"><ele>392.0</ele><time>2026-05-01T10:30:24.243Z</time></trkpt><trkpt lat="43.9302326" lon="11.8549741"><ele>386.5</ele><time>2026-05-01T10:30:25.24Z</time></trkpt><trkpt lat="43.9303018" lon="11.8551588"><ele>381.0</ele><time>2026-05-01T10:30:26.237Z</time></trkpt><trkpt lat="43.9303876" lon="11.8553222"><ele>375.5</ele><time>2026-05-01T10:30:27.231Z</time></trkpt><trkpt lat="43.930465" lon="11.8554765"><ele>370.0</ele><time>2026-05-01T10:30:28.232Z</time></trkpt><trkpt lat="43.9305577" lon="11.8556355"><ele>370.0</ele><time>2026-05-01T10:30:29.239Z</time></trkpt><trkpt lat="43.9306643" lon="11.855787"><ele>370.0</ele><time>2026-05-01T10:30:30.239Z</time></trkpt><trkpt lat="43.9307648" lon="11.8559392"><ele>370.0</ele><time>2026-05-01T10:30:31.237Z</time></trkpt><trkpt lat="43.9308658" lon="11.8560899"><ele>370.0</ele><time>2026-05-01T10:30:32.234Z</time></trkpt><trkpt lat="43.9309749" lon="11.8562692"><ele>373.0</ele><time>2026-05-01T10:30:33.233Z</time></trkpt><trkpt lat="43.9310848" lon="11.856445"><ele>376.0</ele><time>2026-05-01T10:30:34.246Z</time></trkpt><trkpt lat="43.9311813" lon="11.8566079"><ele>379.0</ele><time>2026-05-01T10:30:35.231Z</time></trkpt><trkpt lat="43.9312621" lon="11.8567835"><ele>380.3333333333333</ele><time>2026-05-01T10:30:36.239Z</time></trkpt><trkpt lat="43.9313123" lon="11.8569537"><ele>381.6666666666667</ele><time>2026-05-01T10:30:37.239Z</time></trkpt><trkpt lat="43.9313401" lon="11.85718"><ele>383.0</ele><time>2026-05-01T10:30:38.247Z</time></trkpt><trkpt lat="43.931381" lon="11.8574094"><ele>382.6666666666667</ele><time>2026-05-01T10:30:39.234Z</time></trkpt><trkpt lat="43.9314226" lon="11.8576332"><ele>382.3333333333333</ele><time>2026-05-01T10:30:40.236Z</time></trkpt><trkpt lat="43.9314646" lon="11.8578664"><ele>382.0</ele><time>2026-05-01T10:30:41.239Z</time></trkpt><trkpt lat="43.9315043" lon="11.8581081"><ele>382.0</ele><time>2026-05-01T10:30:42.245Z</time></trkpt><trkpt lat="43.9315491" lon="11.8583574"><ele>382.0</ele><time>2026-05-01T10:30:43.235Z</time></trkpt><trkpt lat="43.9315957" lon="11.8585962"><ele>382.0</ele><time>2026-05-01T10:30:44.234Z</time></trkpt><trkpt lat="43.9316338" lon="11.8588234"><ele>379.3333333333333</ele><time>2026-05-01T10:30:45.239Z</time></trkpt><trkpt lat="43.9316642" lon="11.8590636"><ele>376.6666666666667</ele><time>2026-05-01T10:30:46.232Z</time></trkpt><trkpt lat="43.9316555" lon="11.8593078"><ele>374.0</ele><time>2026-05-01T10:30:47.237Z</time></trkpt><trkpt lat="43.9316461" lon="11.8595217"><ele>375.33333333333337</ele><time>2026-05-01T10:30:48.239Z</time></trkpt><trkpt lat="43.9316182" lon="11.8597188"><ele>376.6666666666667</ele><time>2026-05-01T10:30:49.234Z</time></trkpt><trkpt lat="43.9315896" lon="11.8599169"><ele>378.0</ele><time>2026-05-01T10:30:50.237Z</time></trkpt><trkpt lat="43.9315538" lon="11.8601464"><ele>378.0</ele><time>2026-05-01T10:30:51.242Z</time></trkpt><trkpt lat="43.9315204" lon="11.8603113"><ele>378.0</ele><time>2026-05-01T10:30:52.242Z</time></trkpt><trkpt lat="43.9315039" lon="11.8604885"><ele>378.0</ele><time>2026-05-01T10:30:53.238Z</time></trkpt><trkpt lat="43.9314983" lon="11.860682"><ele>378.0</ele><time>2026-05-01T10:30:54.241Z</time></trkpt><trkpt lat="43.9314772" lon="11.8608651"><ele>384.25</ele><time>2026-05-01T10:30:55.246Z</time></trkpt><trkpt lat="43.9314668" lon="11.8610327"><ele>390.5</ele><time>2026-05-01T10:30:56.241Z</time></trkpt><trkpt lat="43.931444" lon="11.8611657"><ele>396.75</ele><time>2026-05-01T10:30:57.233Z</time></trkpt><trkpt lat="43.9313571" lon="11.8613271"><ele>403.0</ele><time>2026-05-01T10:30:58.232Z</time></trkpt><trkpt lat="43.9312758" lon="11.8614489"><ele>403.0</ele><time>2026-05-01T10:30:59.239Z</time></trkpt><trkpt lat="43.9311457" lon="11.8615707"><ele>403.0</ele><time>2026-05-01T10:31:00.246Z</time></trkpt><trkpt lat="43.9310045" lon="11.8616751"><ele>403.0</ele><time>2026-05-01T10:31:01.243Z</time></trkpt><trkpt lat="43.9308872" lon="11.8617964"><ele>398.25</ele><time>2026-05-01T10:31:02.237Z</time></trkpt><trkpt lat="43.930786" lon="11.8619156"><ele>393.5</ele><time>2026-05-01T10:31:03.238Z</time></trkpt><trkpt lat="43.9306855" lon="11.8620726"><ele>388.75</ele><time>2026-05-01T10:31:04.234Z</time></trkpt><trkpt lat="43.9306035" lon="11.8622335"><ele>384.0</ele><time>2026-05-01T10:31:05.232Z</time></trkpt><trkpt lat="43.9304982" lon="11.8623786"><ele>384.0</ele><time>2026-05-01T10:31:06.232Z</time></trkpt><trkpt lat="43.9303896" lon="11.8624435"><ele>384.0</ele><time>2026-05-01T10:31:07.238Z</time></trkpt><trkpt lat="43.9303119" lon="11.8625325"><ele>384.0</ele><time>2026-05-01T10:31:08.24Z</time></trkpt><trkpt lat="43.9302519" lon="11.8626214"><ele>384.0</ele><time>2026-05-01T10:31:09.239Z</time></trkpt><trkpt lat="43.930178" lon="11.8627803"><ele>384.0</ele><time>2026-05-01T10:31:10.245Z</time></trkpt><trkpt lat="43.9301399" lon="11.8629358"><ele>386.0</ele><time>2026-05-01T10:31:11.239Z</time></trkpt><trkpt lat="43.9300809" lon="11.8630442"><ele>388.0</ele><time>2026-05-01T10:31:12.244Z</time></trkpt><trkpt lat="43.9300736" lon="11.8632177"><ele>390.0</ele><time>2026-05-01T10:31:13.233Z</time></trkpt><trkpt lat="43.9300813" lon="11.863351"><ele>392.0</ele><time>2026-05-01T10:31:14.239Z</time></trkpt><trkpt lat="43.9301266" lon="11.8635257"><ele>392.0</ele><time>2026-05-01T10:31:15.233Z</time></trkpt><trkpt lat="43.9301809" lon="11.8637478"><ele>392.0</ele><time>2026-05-01T10:31:16.23Z</time></trkpt><trkpt lat="43.930178" lon="11.863909"><ele>392.0</ele><time>2026-05-01T10:31:17.238Z</time></trkpt><trkpt lat="43.9301633" lon="11.864071"><ele>392.0</ele><time>2026-05-01T10:31:18.239Z</time></trkpt><trkpt lat="43.9301111" lon="11.8643275"><ele>392.5</ele><time>2026-05-01T10:31:19.24Z</time></trkpt><trkpt lat="43.9300602" lon="11.8645397"><ele>393.0</ele><time>2026-05-01T10:31:20.267Z</time></trkpt><trkpt lat="43.9300345" lon="11.8647295"><ele>393.5</ele><time>2026-05-01T10:31:21.24Z</time></trkpt><trkpt lat="43.9300277" lon="11.8649223"><ele>394.0</ele><time>2026-05-01T10:31:22.233Z</time></trkpt><trkpt lat="43.9300864" lon="11.8651246"><ele>392.33333333333337</ele><time>2026-05-01T10:31:23.233Z</time></trkpt><trkpt lat="43.9302326" lon="11.8653476"><ele>390.66666666666663</ele><time>2026-05-01T10:31:24.24Z</time></trkpt><trkpt lat="43.9302992" lon="11.8655643"><ele>389.0</ele><time>2026-05-01T10:31:25.233Z</time></trkpt><trkpt lat="43.9303854" lon="11.865787"><ele>389.0</ele><time>2026-05-01T10:31:26.235Z</time></trkpt><trkpt lat="43.9304375" lon="11.865944"><ele>389.0</ele><time>2026-05-01T10:31:27.234Z</time></trkpt><trkpt lat="43.93048" lon="11.8661356"><ele>389.0</ele><time>2026-05-01T10:31:28.231Z</time></trkpt><trkpt lat="43.930485" lon="11.8663072"><ele>389.0</ele><time>2026-05-01T10:31:29.239Z</time></trkpt><trkpt lat="43.9305111" lon="11.8664629"><ele>387.25</ele><time>2026-05-01T10:31:30.233Z</time></trkpt><trkpt lat="43.9305207" lon="11.86662"><ele>385.5</ele><time>2026-05-01T10:31:31.234Z</time></trkpt><trkpt lat="43.9305579" lon="11.8668276"><ele>383.75</ele><time>2026-05-01T10:31:32.239Z</time></trkpt><trkpt lat="43.9306296" lon="11.8669307"><ele>382.0</ele><time>2026-05-01T10:31:33.231Z</time></trkpt><trkpt lat="43.9306974" lon="11.8670907"><ele>380.75</ele><time>2026-05-01T10:31:34.245Z</time></trkpt><trkpt lat="43.9307678" lon="11.8672155"><ele>379.5</ele><time>2026-05-01T10:31:35.241Z</time></trkpt><trkpt lat="43.9308016" lon="11.8673888"><ele>378.25</ele><time>2026-05-01T10:31:36.238Z</time></trkpt><trkpt lat="43.9308393" lon="11.8675462"><ele>377.0</ele><time>2026-05-01T10:31:37.24Z</time></trkpt><trkpt lat="43.9308616" lon="11.8677365"><ele>382.0</ele><time>2026-05-01T10:31:38.238Z</time></trkpt><trkpt lat="43.9308519" lon="11.8679025"><ele>387.0</ele><time>2026-05-01T10:31:39.24Z</time></trkpt><trkpt lat="43.9307731" lon="11.8680429"><ele>392.0</ele><time>2026-05-01T10:31:40.24Z</time></trkpt><trkpt lat="43.9306545" lon="11.8681557"><ele>397.0</ele><time>2026-05-01T10:31:41.234Z</time></trkpt><trkpt lat="43.9305256" lon="11.8682507"><ele>397.0</ele><time>2026-05-01T10:31:42.241Z</time></trkpt><trkpt lat="43.9304314" lon="11.8683512"><ele>397.0</ele><time>2026-05-01T10:31:43.234Z</time></trkpt><trkpt lat="43.9303504" lon="11.8684992"><ele>397.0</ele><time>2026-05-01T10:31:44.247Z</time></trkpt><trkpt lat="43.9302702" lon="11.8686657"><ele>397.0</ele><time>2026-05-01T10:31:45.231Z</time></trkpt><trkpt lat="43.930163" lon="11.8688216"><ele>390.6666666666667</ele><time>2026-05-01T10:31:46.23Z</time></trkpt><trkpt lat="43.9300435" lon="11.8689836"><ele>384.33333333333337</ele><time>2026-05-01T10:31:47.235Z</time></trkpt><trkpt lat="43.9299239" lon="11.8691101"><ele>378.0</ele><time>2026-05-01T10:31:48.23Z</time></trkpt><trkpt lat="43.9297903" lon="11.8691593"><ele>378.0</ele><time>2026-05-01T10:31:49.237Z</time></trkpt><trkpt lat="43.9296749" lon="11.869246"><ele>378.0</ele><time>2026-05-01T10:31:50.237Z</time></trkpt><trkpt lat="43.9295476" lon="11.8693037"><ele>378.0</ele><time>2026-05-01T10:31:51.234Z</time></trkpt><trkpt lat="43.9294227" lon="11.8694162"><ele>378.0</ele><time>2026-05-01T10:31:52.238Z</time></trkpt><trkpt lat="43.9292944" lon="11.8695654"><ele>378.6666666666667</ele><time>2026-05-01T10:31:53.241Z</time></trkpt><trkpt lat="43.9291538" lon="11.8696652"><ele>379.33333333333337</ele><time>2026-05-01T10:31:54.239Z</time></trkpt><trkpt lat="43.92903" lon="11.8697749"><ele>380.0</ele><time>2026-05-01T10:31:55.233Z</time></trkpt><trkpt lat="43.9289081" lon="11.8698988"><ele>380.0</ele><time>2026-05-01T10:31:56.237Z</time></trkpt><trkpt lat="43.9287889" lon="11.8700272"><ele>380.0</ele><time>2026-05-01T10:31:57.236Z</time></trkpt><trkpt lat="43.9286551" lon="11.8701701"><ele>380.0</ele><time>2026-05-01T10:31:58.242Z</time></trkpt><trkpt lat="43.9285392" lon="11.8703112"><ele>376.33333333333337</ele><time>2026-05-01T10:31:59.233Z</time></trkpt><trkpt lat="43.9284479" lon="11.8704792"><ele>372.6666666666667</ele><time>2026-05-01T10:32:00.239Z</time></trkpt><trkpt lat="43.9283296" lon="11.8706551"><ele>369.0</ele><time>2026-05-01T10:32:01.244Z</time></trkpt><trkpt lat="43.9282208" lon="11.8708147"><ele>379.0</ele><time>2026-05-01T10:32:02.233Z</time></trkpt><trkpt lat="43.9280982" lon="11.8709545"><ele>389.0</ele><time>2026-05-01T10:32:03.238Z</time></trkpt><trkpt lat="43.9279786" lon="11.8710537"><ele>399.0</ele><time>2026-05-01T10:32:04.239Z</time></trkpt><trkpt lat="43.9278467" lon="11.8711974"><ele>399.0</ele><time>2026-05-01T10:32:05.23Z</time></trkpt><trkpt lat="43.9277325" lon="11.8713434"><ele>399.0</ele><time>2026-05-01T10:32:06.238Z</time></trkpt><trkpt lat="43.9275951" lon="11.871452"><ele>399.0</ele><time>2026-05-01T10:32:07.234Z</time></trkpt><trkpt lat="43.9274847" lon="11.8715529"><ele>399.0</ele><time>2026-05-01T10:32:08.236Z</time></trkpt><trkpt lat="43.9273756" lon="11.8716576"><ele>396.5</ele><time>2026-05-01T10:32:09.243Z</time></trkpt><trkpt lat="43.9272628" lon="11.8717756"><ele>394.0</ele><time>2026-05-01T10:32:10.228Z</time></trkpt><trkpt lat="43.9271494" lon="11.8719078"><ele>391.5</ele><time>2026-05-01T10:32:11.232Z</time></trkpt><trkpt lat="43.9270192" lon="11.8720368"><ele>389.0</ele><time>2026-05-01T10:32:12.228Z</time></trkpt><trkpt lat="43.9268871" lon="11.8721417"><ele>389.0</ele><time>2026-05-01T10:32:13.243Z</time></trkpt><trkpt lat="43.9267472" lon="11.8722966"><ele>389.0</ele><time>2026-05-01T10:32:14.229Z</time></trkpt><trkpt lat="43.9266248" lon="11.87244"><ele>389.0</ele><time>2026-05-01T10:32:15.236Z</time></trkpt><trkpt lat="43.9265164" lon="11.8726028"><ele>385.3333333333333</ele><time>2026-05-01T10:32:16.231Z</time></trkpt><trkpt lat="43.9264164" lon="11.8727986"><ele>381.66666666666663</ele><time>2026-05-01T10:32:17.244Z</time></trkpt><trkpt lat="43.9263167" lon="11.8730074"><ele>378.0</ele><time>2026-05-01T10:32:18.233Z</time></trkpt><trkpt lat="43.9262215" lon="11.8732166"><ele>378.0</ele><time>2026-05-01T10:32:19.235Z</time></trkpt><trkpt lat="43.9261309" lon="11.8734127"><ele>378.0</ele><time>2026-05-01T10:32:20.246Z</time></trkpt><trkpt lat="43.9260324" lon="11.8735964"><ele>378.0</ele><time>2026-05-01T10:32:21.231Z</time></trkpt><trkpt lat="43.9259375" lon="11.8737806"><ele>371.75</ele><time>2026-05-01T10:32:22.234Z</time></trkpt><trkpt lat="43.9258619" lon="11.8739571"><ele>365.5</ele><time>2026-05-01T10:32:23.24Z</time></trkpt><trkpt lat="43.9257788" lon="11.8741176"><ele>359.25</ele><time>2026-05-01T10:32:24.238Z</time></trkpt><trkpt lat="43.9257166" lon="11.8742903"><ele>353.0</ele><time>2026-05-01T10:32:25.247Z</time></trkpt><trkpt lat="43.9256806" lon="11.8744673"><ele>353.0</ele><time>2026-05-01T10:32:26.232Z</time></trkpt><trkpt lat="43.9256429" lon="11.8746352"><ele>353.0</ele><time>2026-05-01T10:32:27.24Z</time></trkpt><trkpt lat="43.9256159" lon="11.8748109"><ele>353.0</ele><time>2026-05-01T10:32:28.233Z</time></trkpt><trkpt lat="43.9255831" lon="11.8749983"><ele>353.0</ele><time>2026-05-01T10:32:29.239Z</time></trkpt><trkpt lat="43.9255505" lon="11.8751748"><ele>353.25</ele><time>2026-05-01T10:32:30.238Z</time></trkpt><trkpt lat="43.9255332" lon="11.8753506"><ele>353.5</ele><time>2026-05-01T10:32:31.234Z</time></trkpt><trkpt lat="43.9255029" lon="11.875531"><ele>353.75</ele><time>2026-05-01T10:32:32.24Z</time></trkpt><trkpt lat="43.9254533" lon="11.8756624"><ele>354.0</ele><time>2026-05-01T10:32:33.232Z</time></trkpt><trkpt lat="43.9253516" lon="11.8757542"><ele>354.0</ele><time>2026-05-01T10:32:34.235Z</time></trkpt><trkpt lat="43.9252582" lon="11.8757979"><ele>354.0</ele><time>2026-05-01T10:32:35.239Z</time></trkpt><trkpt lat="43.9251805" lon="11.8758997"><ele>354.0</ele><time>2026-05-01T10:32:36.235Z</time></trkpt><trkpt lat="43.925106" lon="11.8760051"><ele>354.0</ele><time>2026-05-01T10:32:37.24Z</time></trkpt><trkpt lat="43.9250433" lon="11.8761626"><ele>354.0</ele><time>2026-05-01T10:32:38.23Z</time></trkpt><trkpt lat="43.9250316" lon="11.876382"><ele>350.25</ele><time>2026-05-01T10:32:39.244Z</time></trkpt><trkpt lat="43.9250552" lon="11.8765426"><ele>346.5</ele><time>2026-05-01T10:32:40.242Z</time></trkpt><trkpt lat="43.9250505" lon="11.8767188"><ele>342.75</ele><time>2026-05-01T10:32:41.234Z</time></trkpt><trkpt lat="43.9250601" lon="11.8768863"><ele>339.0</ele><time>2026-05-01T10:32:42.239Z</time></trkpt><trkpt lat="43.9251335" lon="11.8771438"><ele>345.75</ele><time>2026-05-01T10:32:43.232Z</time></trkpt><trkpt lat="43.9251547" lon="11.8773362"><ele>352.5</ele><time>2026-05-01T10:32:44.228Z</time></trkpt><trkpt lat="43.9251591" lon="11.8775128"><ele>359.25</ele><time>2026-05-01T10:32:45.238Z</time></trkpt><trkpt lat="43.9251549" lon="11.8776792"><ele>366.0</ele><time>2026-05-01T10:32:46.245Z</time></trkpt><trkpt lat="43.9251396" lon="11.8778544"><ele>366.0</ele><time>2026-05-01T10:32:47.239Z</time></trkpt><trkpt lat="43.9251135" lon="11.8780067"><ele>366.0</ele><time>2026-05-01T10:32:48.239Z</time></trkpt><trkpt lat="43.9250807" lon="11.8781609"><ele>366.0</ele><time>2026-05-01T10:32:49.239Z</time></trkpt><trkpt lat="43.9250546" lon="11.8783011"><ele>366.0</ele><time>2026-05-01T10:32:50.251Z</time></trkpt><trkpt lat="43.9250148" lon="11.8784335"><ele>366.0</ele><time>2026-05-01T10:32:51.251Z</time></trkpt><trkpt lat="43.9249786" lon="11.8785534"><ele>358.0</ele><time>2026-05-01T10:32:52.233Z</time></trkpt><trkpt lat="43.9249594" lon="11.878691"><ele>350.0</ele><time>2026-05-01T10:32:53.239Z</time></trkpt><trkpt lat="43.9249371" lon="11.8788284"><ele>342.0</ele><time>2026-05-01T10:32:54.241Z</time></trkpt><trkpt lat="43.924946" lon="11.8789838"><ele>334.0</ele><time>2026-05-01T10:32:55.236Z</time></trkpt><trkpt lat="43.9249777" lon="11.8792025"><ele>331.75</ele><time>2026-05-01T10:32:56.233Z</time></trkpt><trkpt lat="43.9250168" lon="11.8793995"><ele>329.5</ele><time>2026-05-01T10:32:57.242Z</time></trkpt><trkpt lat="43.9250679" lon="11.8795716"><ele>327.25</ele><time>2026-05-01T10:32:58.239Z</time></trkpt><trkpt lat="43.9251399" lon="11.8797779"><ele>325.0</ele><time>2026-05-01T10:32:59.231Z</time></trkpt><trkpt lat="43.9252065" lon="11.8799739"><ele>331.3333333333333</ele><time>2026-05-01T10:33:00.239Z</time></trkpt><trkpt lat="43.9252768" lon="11.8801807"><ele>337.6666666666667</ele><time>2026-05-01T10:33:01.239Z</time></trkpt><trkpt lat="43.9253497" lon="11.8803622"><ele>344.0</ele><time>2026-05-01T10:33:02.238Z</time></trkpt><trkpt lat="43.9254114" lon="11.8805371"><ele>344.0</ele><time>2026-05-01T10:33:03.236Z</time></trkpt><trkpt lat="43.9254661" lon="11.8806942"><ele>344.0</ele><time>2026-05-01T10:33:04.246Z</time></trkpt><trkpt lat="43.925519" lon="11.8808383"><ele>344.0</ele><time>2026-05-01T10:33:05.24Z</time></trkpt><trkpt lat="43.925573" lon="11.8809676"><ele>344.0</ele><time>2026-05-01T10:33:06.235Z</time></trkpt><trkpt lat="43.9256191" lon="11.8810806"><ele>344.0</ele><time>2026-05-01T10:33:07.24Z</time></trkpt><trkpt lat="43.925656" lon="11.8811706"><ele>340.25</ele><time>2026-05-01T10:33:08.239Z</time></trkpt><trkpt lat="43.925699" lon="11.8813044"><ele>336.5</ele><time>2026-05-01T10:33:09.234Z</time></trkpt><trkpt lat="43.9257399" lon="11.8814297"><ele>332.75</ele><time>2026-05-01T10:33:10.23Z</time></trkpt><trkpt lat="43.9257972" lon="11.8815854"><ele>329.0</ele><time>2026-05-01T10:33:11.246Z</time></trkpt><trkpt lat="43.9258573" lon="11.8817403"><ele>331.0</ele><time>2026-05-01T10:33:12.244Z</time></trkpt><trkpt lat="43.9259319" lon="11.8818927"><ele>333.0</ele><time>2026-05-01T10:33:13.232Z</time></trkpt><trkpt lat="43.9260328" lon="11.8820537"><ele>335.0</ele><time>2026-05-01T10:33:14.235Z</time></trkpt><trkpt lat="43.9261545" lon="11.8821942"><ele>337.0</ele><time>2026-05-01T10:33:15.239Z</time></trkpt><trkpt lat="43.9262585" lon="11.8823403"><ele>337.0</ele><time>2026-05-01T10:33:16.234Z</time></trkpt><trkpt lat="43.9263733" lon="11.8825298"><ele>337.0</ele><time>2026-05-01T10:33:17.23Z</time></trkpt><trkpt lat="43.9264911" lon="11.8826771"><ele>337.0</ele><time>2026-05-01T10:33:18.24Z</time></trkpt><trkpt lat="43.9266211" lon="11.8828293"><ele>339.3333333333333</ele><time>2026-05-01T10:33:19.241Z</time></trkpt><trkpt lat="43.9267385" lon="11.8829641"><ele>341.6666666666667</ele><time>2026-05-01T10:33:20.231Z</time></trkpt><trkpt lat="43.926868" lon="11.883124"><ele>344.0</ele><time>2026-05-01T10:33:21.234Z</time></trkpt><trkpt lat="43.926989" lon="11.8832715"><ele>344.0</ele><time>2026-05-01T10:33:22.239Z</time></trkpt><trkpt lat="43.9271215" lon="11.8834216"><ele>344.0</ele><time>2026-05-01T10:33:23.237Z</time></trkpt><trkpt lat="43.9272617" lon="11.8835959"><ele>344.0</ele><time>2026-05-01T10:33:24.246Z</time></trkpt><trkpt lat="43.9273862" lon="11.8837376"><ele>350.33333333333337</ele><time>2026-05-01T10:33:25.239Z</time></trkpt><trkpt lat="43.9275333" lon="11.8838758"><ele>356.6666666666667</ele><time>2026-05-01T10:33:26.234Z</time></trkpt><trkpt lat="43.9276744" lon="11.8840174"><ele>363.0</ele><time>2026-05-01T10:33:27.238Z</time></trkpt><trkpt lat="43.9277986" lon="11.8841833"><ele>355.3333333333333</ele><time>2026-05-01T10:33:28.234Z</time></trkpt><trkpt lat="43.9279091" lon="11.8843408"><ele>347.66666666666663</ele><time>2026-05-01T10:33:29.231Z</time></trkpt><trkpt lat="43.9280096" lon="11.8845342"><ele>340.0</ele><time>2026-05-01T10:33:30.238Z</time></trkpt><trkpt lat="43.9280992" lon="11.8847298"><ele>340.0</ele><time>2026-05-01T10:33:31.232Z</time></trkpt><trkpt lat="43.9281746" lon="11.8848922"><ele>340.0</ele><time>2026-05-01T10:33:32.238Z</time></trkpt><trkpt lat="43.9282448" lon="11.8850957"><ele>340.0</ele><time>2026-05-01T10:33:33.234Z</time></trkpt><trkpt lat="43.9283032" lon="11.8852982"><ele>334.0</ele><time>2026-05-01T10:33:34.233Z</time></trkpt><trkpt lat="43.9283327" lon="11.885556"><ele>328.0</ele><time>2026-05-01T10:33:35.233Z</time></trkpt><trkpt lat="43.928343" lon="11.8857752"><ele>322.0</ele><time>2026-05-01T10:33:36.233Z</time></trkpt><trkpt lat="43.9283675" lon="11.886006"><ele>328.0</ele><time>2026-05-01T10:33:37.239Z</time></trkpt><trkpt lat="43.9284197" lon="11.8862148"><ele>334.0</ele><time>2026-05-01T10:33:38.24Z</time></trkpt><trkpt lat="43.9284784" lon="11.8864444"><ele>340.0</ele><time>2026-05-01T10:33:39.23Z</time></trkpt><trkpt lat="43.9285406" lon="11.8866551"><ele>336.3333333333333</ele><time>2026-05-01T10:33:40.244Z</time></trkpt><trkpt lat="43.9285963" lon="11.8868423"><ele>332.6666666666667</ele><time>2026-05-01T10:33:41.235Z</time></trkpt><trkpt lat="43.9286726" lon="11.8870104"><ele>329.0</ele><time>2026-05-01T10:33:42.23Z</time></trkpt><trkpt lat="43.9287838" lon="11.8871945"><ele>329.0</ele><time>2026-05-01T10:33:43.233Z</time></trkpt><trkpt lat="43.9289098" lon="11.8873609"><ele>329.0</ele><time>2026-05-01T10:33:44.246Z</time></trkpt><trkpt lat="43.9290426" lon="11.8875476"><ele>329.0</ele><time>2026-05-01T10:33:45.233Z</time></trkpt><trkpt lat="43.9292078" lon="11.8877327"><ele>326.6666666666667</ele><time>2026-05-01T10:33:46.243Z</time></trkpt><trkpt lat="43.9293589" lon="11.8879472"><ele>324.3333333333333</ele><time>2026-05-01T10:33:47.234Z</time></trkpt><trkpt lat="43.9295218" lon="11.8881522"><ele>322.0</ele><time>2026-05-01T10:33:48.245Z</time></trkpt><trkpt lat="43.9296955" lon="11.8883356"><ele>321.3333333333333</ele><time>2026-05-01T10:33:49.234Z</time></trkpt><trkpt lat="43.9298511" lon="11.8884976"><ele>320.6666666666667</ele><time>2026-05-01T10:33:50.232Z</time></trkpt><trkpt lat="43.929985" lon="11.8886646"><ele>320.0</ele><time>2026-05-01T10:33:51.239Z</time></trkpt><trkpt lat="43.9301096" lon="11.8888136"><ele>320.0</ele><time>2026-05-01T10:33:52.232Z</time></trkpt><trkpt lat="43.9302533" lon="11.8889846"><ele>320.0</ele><time>2026-05-01T10:33:53.249Z</time></trkpt><trkpt lat="43.9303716" lon="11.8890819"><ele>320.0</ele><time>2026-05-01T10:33:54.231Z</time></trkpt><trkpt lat="43.9304936" lon="11.8891926"><ele>319.33333333333337</ele><time>2026-05-01T10:33:55.243Z</time></trkpt><trkpt lat="43.9306429" lon="11.8892648"><ele>318.6666666666667</ele><time>2026-05-01T10:33:56.246Z</time></trkpt><trkpt lat="43.9307919" lon="11.8893425"><ele>318.0</ele><time>2026-05-01T10:33:57.233Z</time></trkpt><trkpt lat="43.930944" lon="11.8894232"><ele>318.0</ele><time>2026-05-01T10:33:58.239Z</time></trkpt><trkpt lat="43.9311151" lon="11.8895019"><ele>318.0</ele><time>2026-05-01T10:33:59.239Z</time></trkpt><trkpt lat="43.9312547" lon="11.8896113"><ele>318.0</ele><time>2026-05-01T10:34:00.233Z</time></trkpt><trkpt lat="43.9314396" lon="11.8898332"><ele>318.0</ele><time>2026-05-01T10:34:01.241Z</time></trkpt><trkpt lat="43.9316206" lon="11.8900203"><ele>318.0</ele><time>2026-05-01T10:34:02.234Z</time></trkpt><trkpt lat="43.931762" lon="11.8901791"><ele>318.0</ele><time>2026-05-01T10:34:03.239Z</time></trkpt><trkpt lat="43.9318983" lon="11.8903469"><ele>318.3333333333333</ele><time>2026-05-01T10:34:04.232Z</time></trkpt><trkpt lat="43.9320336" lon="11.8904779"><ele>318.66666666666663</ele><time>2026-05-01T10:34:05.239Z</time></trkpt><trkpt lat="43.932151" lon="11.8905993"><ele>319.0</ele><time>2026-05-01T10:34:06.231Z</time></trkpt><trkpt lat="43.9323101" lon="11.8907773"><ele>319.0</ele><time>2026-05-01T10:34:07.231Z</time></trkpt><trkpt lat="43.9324669" lon="11.8908959"><ele>319.0</ele><time>2026-05-01T10:34:08.232Z</time></trkpt><trkpt lat="43.9326262" lon="11.8910044"><ele>319.0</ele><time>2026-05-01T10:34:09.228Z</time></trkpt><trkpt lat="43.932795" lon="11.8910529"><ele>318.0</ele><time>2026-05-01T10:34:10.245Z</time></trkpt><trkpt lat="43.9329303" lon="11.8911406"><ele>317.0</ele><time>2026-05-01T10:34:11.234Z</time></trkpt><trkpt lat="43.9330663" lon="11.8912128"><ele>316.0</ele><time>2026-05-01T10:34:12.23Z</time></trkpt><trkpt lat="43.9331848" lon="11.89135"><ele>315.0</ele><time>2026-05-01T10:34:13.245Z</time></trkpt><trkpt lat="43.9333195" lon="11.8915102"><ele>315.6666666666667</ele><time>2026-05-01T10:34:14.235Z</time></trkpt><trkpt lat="43.9334363" lon="11.8916877"><ele>316.33333333333337</ele><time>2026-05-01T10:34:15.239Z</time></trkpt><trkpt lat="43.9335534" lon="11.8918411"><ele>317.0</ele><time>2026-05-01T10:34:16.232Z</time></trkpt><trkpt lat="43.933673" lon="11.8919894"><ele>317.0</ele><time>2026-05-01T10:34:17.23Z</time></trkpt><trkpt lat="43.9337746" lon="11.892114"><ele>317.0</ele><time>2026-05-01T10:34:18.231Z</time></trkpt><trkpt lat="43.9338791" lon="11.8922548"><ele>317.0</ele><time>2026-05-01T10:34:19.231Z</time></trkpt><trkpt lat="43.9339289" lon="11.8923657"><ele>317.0</ele><time>2026-05-01T10:34:20.245Z</time></trkpt><trkpt lat="43.9339508" lon="11.8925515"><ele>315.5</ele><time>2026-05-01T10:34:21.234Z</time></trkpt><trkpt lat="43.9339625" lon="11.8927152"><ele>314.0</ele><time>2026-05-01T10:34:22.235Z</time></trkpt><trkpt lat="43.9339892" lon="11.8928879"><ele>312.5</ele><time>2026-05-01T10:34:23.239Z</time></trkpt><trkpt lat="43.9340182" lon="11.893084"><ele>311.0</ele><time>2026-05-01T10:34:24.232Z</time></trkpt><trkpt lat="43.9340987" lon="11.8932393"><ele>311.0</ele><time>2026-05-01T10:34:25.235Z</time></trkpt><trkpt lat="43.934199" lon="11.8933654"><ele>311.0</ele><time>2026-05-01T10:34:26.242Z</time></trkpt><trkpt lat="43.9343154" lon="11.89353"><ele>311.0</ele><time>2026-05-01T10:34:27.24Z</time></trkpt><trkpt lat="43.9344312" lon="11.8936608"><ele>310.5</ele><time>2026-05-01T10:34:28.24Z</time></trkpt><trkpt lat="43.9345386" lon="11.8937893"><ele>310.0</ele><time>2026-05-01T10:34:29.247Z</time></trkpt><trkpt lat="43.9346232" lon="11.8939236"><ele>309.5</ele><time>2026-05-01T10:34:30.233Z</time></trkpt><trkpt lat="43.9347107" lon="11.8940183"><ele>309.0</ele><time>2026-05-01T10:34:31.246Z</time></trkpt><trkpt lat="43.9348062" lon="11.8941336"><ele>309.0</ele><time>2026-05-01T10:34:32.237Z</time></trkpt><trkpt lat="43.9348726" lon="11.8942422"><ele>309.0</ele><time>2026-05-01T10:34:33.237Z</time></trkpt><trkpt lat="43.9348825" lon="11.8943616"><ele>309.0</ele><time>2026-05-01T10:34:34.232Z</time></trkpt><trkpt lat="43.9348616" lon="11.8945408"><ele>309.0</ele><time>2026-05-01T10:34:35.24Z</time></trkpt><trkpt lat="43.9348194" lon="11.8946992"><ele>309.0</ele><time>2026-05-01T10:34:36.232Z</time></trkpt><trkpt lat="43.9347878" lon="11.8948578"><ele>309.25</ele><time>2026-05-01T10:34:37.239Z</time></trkpt><trkpt lat="43.9348213" lon="11.8950013"><ele>309.5</ele><time>2026-05-01T10:34:38.24Z</time></trkpt><trkpt lat="43.9348083" lon="11.8951739"><ele>309.75</ele><time>2026-05-01T10:34:39.234Z</time></trkpt><trkpt lat="43.9348106" lon="11.8953604"><ele>310.0</ele><time>2026-05-01T10:34:40.244Z</time></trkpt><trkpt lat="43.9348062" lon="11.8955428"><ele>309.5</ele><time>2026-05-01T10:34:41.237Z</time></trkpt><trkpt lat="43.9348167" lon="11.8957294"><ele>309.0</ele><time>2026-05-01T10:34:42.24Z</time></trkpt><trkpt lat="43.9348447" lon="11.8958891"><ele>308.5</ele><time>2026-05-01T10:34:43.238Z</time></trkpt><trkpt lat="43.9348822" lon="11.8960434"><ele>308.0</ele><time>2026-05-01T10:34:44.272Z</time></trkpt><trkpt lat="43.9349048" lon="11.8962026"><ele>308.75</ele><time>2026-05-01T10:34:45.232Z</time></trkpt><trkpt lat="43.9349558" lon="11.8963637"><ele>309.5</ele><time>2026-05-01T10:34:46.233Z</time></trkpt><trkpt lat="43.9350232" lon="11.8965554"><ele>310.25</ele><time>2026-05-01T10:34:47.234Z</time></trkpt><trkpt lat="43.935109" lon="11.8967133"><ele>311.0</ele><time>2026-05-01T10:34:48.243Z</time></trkpt><trkpt lat="43.9352071" lon="11.8968564"><ele>306.33333333333337</ele><time>2026-05-01T10:34:49.245Z</time></trkpt><trkpt lat="43.935305" lon="11.8969675"><ele>301.6666666666667</ele><time>2026-05-01T10:34:50.234Z</time></trkpt><trkpt lat="43.9354366" lon="11.8970969"><ele>297.0</ele><time>2026-05-01T10:34:51.246Z</time></trkpt><trkpt lat="43.9355738" lon="11.8972463"><ele>297.0</ele><time>2026-05-01T10:34:52.247Z</time></trkpt><trkpt lat="43.935699" lon="11.8973798"><ele>297.0</ele><time>2026-05-01T10:34:53.233Z</time></trkpt><trkpt lat="43.9358395" lon="11.8974989"><ele>297.0</ele><time>2026-05-01T10:34:54.238Z</time></trkpt><trkpt lat="43.9359607" lon="11.8976166"><ele>296.0</ele><time>2026-05-01T10:34:55.239Z</time></trkpt><trkpt lat="43.9360905" lon="11.8977171"><ele>295.0</ele><time>2026-05-01T10:34:56.24Z</time></trkpt><trkpt lat="43.9362276" lon="11.8977421"><ele>294.0</ele><time>2026-05-01T10:34:57.231Z</time></trkpt><trkpt lat="43.9363672" lon="11.8977204"><ele>293.0</ele><time>2026-05-01T10:34:58.236Z</time></trkpt><trkpt lat="43.936517" lon="11.8977153"><ele>293.0</ele><time>2026-05-01T10:34:59.239Z</time></trkpt><trkpt lat="43.9366707" lon="11.8977167"><ele>293.0</ele><time>2026-05-01T10:35:00.231Z</time></trkpt><trkpt lat="43.9368145" lon="11.897781"><ele>293.0</ele><time>2026-05-01T10:35:01.246Z</time></trkpt><trkpt lat="43.9369913" lon="11.8978966"><ele>294.0</ele><time>2026-05-01T10:35:02.229Z</time></trkpt><trkpt lat="43.9371303" lon="11.8980202"><ele>295.0</ele><time>2026-05-01T10:35:03.243Z</time></trkpt><trkpt lat="43.937266" lon="11.8981531"><ele>296.0</ele><time>2026-05-01T10:35:04.239Z</time></trkpt><trkpt lat="43.9374141" lon="11.8982892"><ele>294.6666666666667</ele><time>2026-05-01T10:35:05.24Z</time></trkpt><trkpt lat="43.9375525" lon="11.8984495"><ele>293.3333333333333</ele><time>2026-05-01T10:35:06.239Z</time></trkpt><trkpt lat="43.9376896" lon="11.8985963"><ele>292.0</ele><time>2026-05-01T10:35:07.244Z</time></trkpt><trkpt lat="43.937798" lon="11.8987809"><ele>292.0</ele><time>2026-05-01T10:35:08.234Z</time></trkpt><trkpt lat="43.9378824" lon="11.8989571"><ele>292.0</ele><time>2026-05-01T10:35:09.239Z</time></trkpt><trkpt lat="43.9379693" lon="11.8991526"><ele>292.0</ele><time>2026-05-01T10:35:10.238Z</time></trkpt><trkpt lat="43.9380496" lon="11.8993554"><ele>289.66666666666663</ele><time>2026-05-01T10:35:11.234Z</time></trkpt><trkpt lat="43.9381325" lon="11.899552"><ele>287.3333333333333</ele><time>2026-05-01T10:35:12.242Z</time></trkpt><trkpt lat="43.9382249" lon="11.8997421"><ele>285.0</ele><time>2026-05-01T10:35:13.234Z</time></trkpt><trkpt lat="43.9383244" lon="11.8999436"><ele>284.3333333333333</ele><time>2026-05-01T10:35:14.238Z</time></trkpt><trkpt lat="43.9384365" lon="11.900153"><ele>283.66666666666663</ele><time>2026-05-01T10:35:15.235Z</time></trkpt><trkpt lat="43.9385226" lon="11.9003424"><ele>283.0</ele><time>2026-05-01T10:35:16.233Z</time></trkpt><trkpt lat="43.9386239" lon="11.9005414"><ele>283.0</ele><time>2026-05-01T10:35:17.234Z</time></trkpt><trkpt lat="43.9387246" lon="11.9006946"><ele>283.0</ele><time>2026-05-01T10:35:18.249Z</time></trkpt><trkpt lat="43.9388319" lon="11.9008559"><ele>283.0</ele><time>2026-05-01T10:35:19.246Z</time></trkpt><trkpt lat="43.9389457" lon="11.9009832"><ele>282.3333333333333</ele><time>2026-05-01T10:35:20.241Z</time></trkpt><trkpt lat="43.9390863" lon="11.9011372"><ele>281.6666666666667</ele><time>2026-05-01T10:35:21.237Z</time></trkpt><trkpt lat="43.9392142" lon="11.9012865"><ele>281.0</ele><time>2026-05-01T10:35:22.245Z</time></trkpt><trkpt lat="43.9393457" lon="11.9014366"><ele>281.0</ele><time>2026-05-01T10:35:23.24Z</time></trkpt><trkpt lat="43.9394854" lon="11.9015942"><ele>281.0</ele><time>2026-05-01T10:35:24.238Z</time></trkpt><trkpt lat="43.9396247" lon="11.9017666"><ele>281.0</ele><time>2026-05-01T10:35:25.239Z</time></trkpt><trkpt lat="43.9397618" lon="11.9019493"><ele>280.0</ele><time>2026-05-01T10:35:26.233Z</time></trkpt><trkpt lat="43.9398969" lon="11.9021022"><ele>279.0</ele><time>2026-05-01T10:35:27.23Z</time></trkpt><trkpt lat="43.9400328" lon="11.9022469"><ele>278.0</ele><time>2026-05-01T10:35:28.239Z</time></trkpt><trkpt lat="43.9401571" lon="11.9023532"><ele>278.0</ele><time>2026-05-01T10:35:29.239Z</time></trkpt><trkpt lat="43.9402763" lon="11.902488"><ele>278.0</ele><time>2026-05-01T10:35:30.239Z</time></trkpt><trkpt lat="43.9404055" lon="11.9026301"><ele>278.0</ele><time>2026-05-01T10:35:31.239Z</time></trkpt><trkpt lat="43.9405249" lon="11.9027766"><ele>277.0</ele><time>2026-05-01T10:35:32.237Z</time></trkpt><trkpt lat="43.9406509" lon="11.9029153"><ele>276.0</ele><time>2026-05-01T10:35:33.239Z</time></trkpt><trkpt lat="43.9407701" lon="11.9030517"><ele>275.0</ele><time>2026-05-01T10:35:34.246Z</time></trkpt><trkpt lat="43.9408811" lon="11.903174"><ele>275.33333333333337</ele><time>2026-05-01T10:35:35.239Z</time></trkpt><trkpt lat="43.9409851" lon="11.9033076"><ele>275.6666666666667</ele><time>2026-05-01T10:35:36.238Z</time></trkpt><trkpt lat="43.9411119" lon="11.9034391"><ele>276.0</ele><time>2026-05-01T10:35:37.255Z</time></trkpt><trkpt lat="43.9412271" lon="11.9035771"><ele>274.75</ele><time>2026-05-01T10:35:38.239Z</time></trkpt><trkpt lat="43.9413306" lon="11.9037044"><ele>273.5</ele><time>2026-05-01T10:35:39.235Z</time></trkpt><trkpt lat="43.9414324" lon="11.9038353"><ele>272.25</ele><time>2026-05-01T10:35:40.228Z</time></trkpt><trkpt lat="43.9415462" lon="11.9039761"><ele>271.0</ele><time>2026-05-01T10:35:41.248Z</time></trkpt><trkpt lat="43.9416686" lon="11.9040898"><ele>271.66666666666663</ele><time>2026-05-01T10:35:42.231Z</time></trkpt><trkpt lat="43.9417998" lon="11.904228"><ele>272.3333333333333</ele><time>2026-05-01T10:35:43.239Z</time></trkpt><trkpt lat="43.941912" lon="11.9043962"><ele>273.0</ele><time>2026-05-01T10:35:44.239Z</time></trkpt><trkpt lat="43.9420385" lon="11.9045568"><ele>271.0</ele><time>2026-05-01T10:35:45.232Z</time></trkpt><trkpt lat="43.9421607" lon="11.9047158"><ele>269.0</ele><time>2026-05-01T10:35:46.24Z</time></trkpt><trkpt lat="43.9422883" lon="11.9048516"><ele>267.0</ele><time>2026-05-01T10:35:47.23Z</time></trkpt><trkpt lat="43.9423945" lon="11.9049252"><ele>265.0</ele><time>2026-05-01T10:35:48.236Z</time></trkpt><trkpt lat="43.9425075" lon="11.9050179"><ele>263.8</ele><time>2026-05-01T10:35:49.233Z</time></trkpt><trkpt lat="43.9425956" lon="11.9050896"><ele>262.6</ele><time>2026-05-01T10:35:50.239Z</time></trkpt><trkpt lat="43.9426856" lon="11.9051713"><ele>261.4</ele><time>2026-05-01T10:35:51.239Z</time></trkpt><trkpt lat="43.9427761" lon="11.9052319"><ele>260.2</ele><time>2026-05-01T10:35:52.24Z</time></trkpt><trkpt lat="43.942874" lon="11.9052975"><ele>259.0</ele><time>2026-05-01T10:35:54.233Z</time></trkpt><trkpt lat="43.9429718" lon="11.9053549"><ele>259.0</ele><time>2026-05-01T10:35:55.233Z</time></trkpt><trkpt lat="43.9430527" lon="11.9053932"><ele>259.0</ele><time>2026-05-01T10:35:56.231Z</time></trkpt><trkpt lat="43.9431403" lon="11.9054361"><ele>259.0</ele><time>2026-05-01T10:35:57.232Z</time></trkpt><trkpt lat="43.9432276" lon="11.9054847"><ele>259.0</ele><time>2026-05-01T10:35:58.239Z</time></trkpt><trkpt lat="43.9433529" lon="11.9055471"><ele>259.0</ele><time>2026-05-01T10:36:00.234Z</time></trkpt><trkpt lat="43.9434472" lon="11.9055909"><ele>259.16666666666663</ele><time>2026-05-01T10:36:01.239Z</time></trkpt><trkpt lat="43.9435237" lon="11.9056144"><ele>259.3333333333333</ele><time>2026-05-01T10:36:02.245Z</time></trkpt><trkpt lat="43.9436361" lon="11.9056786"><ele>259.5</ele><time>2026-05-01T10:36:04.23Z</time></trkpt><trkpt lat="43.9437015" lon="11.9057367"><ele>259.6666666666667</ele><time>2026-05-01T10:36:05.23Z</time></trkpt><trkpt lat="43.9437704" lon="11.9058005"><ele>259.83333333333337</ele><time>2026-05-01T10:36:06.246Z</time></trkpt><trkpt lat="43.9438164" lon="11.9058857"><ele>260.0</ele><time>2026-05-01T10:36:07.239Z</time></trkpt><trkpt lat="43.9438315" lon="11.9060206"><ele>259.4</ele><time>2026-05-01T10:36:08.237Z</time></trkpt><trkpt lat="43.9438319" lon="11.9061391"><ele>258.8</ele><time>2026-05-01T10:36:09.238Z</time></trkpt><trkpt lat="43.9438199" lon="11.9062539"><ele>258.2</ele><time>2026-05-01T10:36:10.232Z</time></trkpt><trkpt lat="43.9438084" lon="11.906372"><ele>257.6</ele><time>2026-05-01T10:36:11.231Z</time></trkpt><trkpt lat="43.9437984" lon="11.9065509"><ele>257.0</ele><time>2026-05-01T10:36:12.233Z</time></trkpt><trkpt lat="43.943779" lon="11.9066733"><ele>257.4</ele><time>2026-05-01T10:36:13.233Z</time></trkpt><trkpt lat="43.9437624" lon="11.9067942"><ele>257.79999999999995</ele><time>2026-05-01T10:36:14.239Z</time></trkpt><trkpt lat="43.9437549" lon="11.9069484"><ele>258.2</ele><time>2026-05-01T10:36:15.239Z</time></trkpt><trkpt lat="43.9437721" lon="11.9070745"><ele>258.59999999999997</ele><time>2026-05-01T10:36:16.24Z</time></trkpt><trkpt lat="43.9438352" lon="11.9071861"><ele>259.0</ele><time>2026-05-01T10:36:17.237Z</time></trkpt><trkpt lat="43.9439283" lon="11.9073313"><ele>259.0</ele><time>2026-05-01T10:36:18.23Z</time></trkpt><trkpt lat="43.9440366" lon="11.9074471"><ele>259.0</ele><time>2026-05-01T10:36:19.239Z</time></trkpt><trkpt lat="43.9441358" lon="11.9075515"><ele>259.0</ele><time>2026-05-01T10:36:20.239Z</time></trkpt><trkpt lat="43.9442354" lon="11.9076722"><ele>259.0</ele><time>2026-05-01T10:36:21.239Z</time></trkpt><trkpt lat="43.944326" lon="11.9077811"><ele>258.5</ele><time>2026-05-01T10:36:22.238Z</time></trkpt><trkpt lat="43.9444152" lon="11.9079054"><ele>258.0</ele><time>2026-05-01T10:36:23.232Z</time></trkpt><trkpt lat="43.9444971" lon="11.9080106"><ele>257.5</ele><time>2026-05-01T10:36:24.238Z</time></trkpt><trkpt lat="43.944581" lon="11.9081161"><ele>257.0</ele><time>2026-05-01T10:36:25.239Z</time></trkpt><trkpt lat="43.9446728" lon="11.9082182"><ele>257.0</ele><time>2026-05-01T10:36:26.236Z</time></trkpt><trkpt lat="43.9447542" lon="11.9083269"><ele>257.0</ele><time>2026-05-01T10:36:27.239Z</time></trkpt><trkpt lat="43.9448284" lon="11.9084182"><ele>257.0</ele><time>2026-05-01T10:36:28.235Z</time></trkpt><trkpt lat="43.94492" lon="11.9085051"><ele>257.0</ele><time>2026-05-01T10:36:29.231Z</time></trkpt><trkpt lat="43.9449986" lon="11.9085974"><ele>257.0</ele><time>2026-05-01T10:36:30.246Z</time></trkpt><trkpt lat="43.9451059" lon="11.9087172"><ele>257.0</ele><time>2026-05-01T10:36:31.245Z</time></trkpt><trkpt lat="43.9451783" lon="11.9087933"><ele>257.0</ele><time>2026-05-01T10:36:32.236Z</time></trkpt><trkpt lat="43.9452664" lon="11.9088799"><ele>257.0</ele><time>2026-05-01T10:36:33.23Z</time></trkpt><trkpt lat="43.9453572" lon="11.9089891"><ele>257.0</ele><time>2026-05-01T10:36:34.232Z</time></trkpt><trkpt lat="43.9454329" lon="11.9090817"><ele>257.0</ele><time>2026-05-01T10:36:35.23Z</time></trkpt><trkpt lat="43.9455011" lon="11.9091562"><ele>257.1666666666667</ele><time>2026-05-01T10:36:36.233Z</time></trkpt><trkpt lat="43.9455933" lon="11.9092709"><ele>257.33333333333337</ele><time>2026-05-01T10:36:37.239Z</time></trkpt><trkpt lat="43.9456561" lon="11.9093511"><ele>257.5</ele><time>2026-05-01T10:36:38.232Z</time></trkpt><trkpt lat="43.9457196" lon="11.9094171"><ele>257.6666666666667</ele><time>2026-05-01T10:36:39.233Z</time></trkpt><trkpt lat="43.9457656" lon="11.9094872"><ele>257.8333333333333</ele><time>2026-05-01T10:36:40.239Z</time></trkpt><trkpt lat="43.9458241" lon="11.9095644"><ele>258.0</ele><time>2026-05-01T10:36:41.236Z</time></trkpt><trkpt lat="43.9458873" lon="11.9096258"><ele>258.5</ele><time>2026-05-01T10:36:42.245Z</time></trkpt><trkpt lat="43.9459338" lon="11.9096913"><ele>259.0</ele><time>2026-05-01T10:36:43.239Z</time></trkpt><trkpt lat="43.9459951" lon="11.9097585"><ele>259.5</ele><time>2026-05-01T10:36:44.246Z</time></trkpt><trkpt lat="43.9460859" lon="11.9098564"><ele>260.0</ele><time>2026-05-01T10:36:46.232Z</time></trkpt><trkpt lat="43.9461699" lon="11.9099485"><ele>260.5</ele><time>2026-05-01T10:36:48.23Z</time></trkpt><trkpt lat="43.9462208" lon="11.9100095"><ele>261.0</ele><time>2026-05-01T10:36:49.234Z</time></trkpt><trkpt lat="43.9462821" lon="11.9100435"><ele>261.0</ele><time>2026-05-01T10:36:51.233Z</time></trkpt><trkpt lat="43.9463509" lon="11.9100423"><ele>261.0</ele><time>2026-05-01T10:36:53.24Z</time></trkpt><trkpt lat="43.9464408" lon="11.9100039"><ele>261.0</ele><time>2026-05-01T10:36:55.241Z</time></trkpt><trkpt lat="43.9465075" lon="11.9099805"><ele>261.0</ele><time>2026-05-01T10:36:57.232Z</time></trkpt><trkpt lat="43.9465727" lon="11.9099232"><ele>261.0</ele><time>2026-05-01T10:36:59.242Z</time></trkpt><trkpt lat="43.946639" lon="11.9098519"><ele>261.0</ele><time>2026-05-01T10:37:02.236Z</time></trkpt><trkpt lat="43.9466984" lon="11.9098829"><ele>261.0</ele><time>2026-05-01T10:37:05.235Z</time></trkpt><trkpt lat="43.9467698" lon="11.9099284"><ele>261.0</ele><time>2026-05-01T10:37:23.248Z</time></trkpt><trkpt lat="43.946793" lon="11.9097394"><ele>261.0</ele><time>2026-05-01T10:37:26.247Z</time></trkpt><trkpt lat="43.9467282" lon="11.9098066"><ele>261.0</ele><time>2026-05-01T10:37:28.238Z</time></trkpt><trkpt lat="43.9466441" lon="11.9098477"><ele>261.0</ele><time>2026-05-01T10:37:30.244Z</time></trkpt><trkpt lat="43.9465788" lon="11.9099053"><ele>261.0</ele><time>2026-05-01T10:37:32.25Z</time></trkpt><trkpt lat="43.9465189" lon="11.909958"><ele>261.0</ele><time>2026-05-01T10:37:34.246Z</time></trkpt><trkpt lat="43.9465832" lon="11.9099835"><ele>261.0</ele><time>2026-05-01T10:37:39.239Z</time></trkpt><trkpt lat="43.9466462" lon="11.9099399"><ele>261.0</ele><time>2026-05-01T10:56:24.231Z</time></trkpt><trkpt lat="43.946716" lon="11.9099089"><ele>261.0</ele><time>2026-05-01T10:56:27.238Z</time></trkpt><trkpt lat="43.9467497" lon="11.909997"><ele>261.0</ele><time>2026-05-01T10:56:30.233Z</time></trkpt><trkpt lat="43.9467254" lon="11.9101037"><ele>261.0</ele><time>2026-05-01T10:56:36.238Z</time></trkpt><trkpt lat="43.9466727" lon="11.9102612"><ele>262.25</ele><time>2026-05-01T10:56:38.232Z</time></trkpt><trkpt lat="43.9466446" lon="11.9103766"><ele>263.5</ele><time>2026-05-01T10:56:39.235Z</time></trkpt><trkpt lat="43.9466088" lon="11.9104933"><ele>264.75</ele><time>2026-05-01T10:56:40.25Z</time></trkpt><trkpt lat="43.9465271" lon="11.9106808"><ele>266.0</ele><time>2026-05-01T10:56:43.239Z</time></trkpt><trkpt lat="43.946231" lon="11.911186"><ele>266.0</ele><time>2026-05-01T10:56:46.233Z</time></trkpt><trkpt lat="43.9462166" lon="11.911289"><ele>266.0</ele><time>2026-05-01T10:56:47.241Z</time></trkpt><trkpt lat="43.9461824" lon="11.9114014"><ele>266.0</ele><time>2026-05-01T10:56:48.234Z</time></trkpt><trkpt lat="43.9460947" lon="11.9114848"><ele>266.0</ele><time>2026-05-01T10:56:49.236Z</time></trkpt><trkpt lat="43.9460327" lon="11.911567"><ele>266.0</ele><time>2026-05-01T10:56:50.226Z</time></trkpt><trkpt lat="43.9459639" lon="11.9116282"><ele>266.0</ele><time>2026-05-01T10:56:51.25Z</time></trkpt><trkpt lat="43.9458981" lon="11.911687"><ele>267.0</ele><time>2026-05-01T10:56:52.229Z</time></trkpt><trkpt lat="43.9458009" lon="11.9116752"><ele>268.0</ele><time>2026-05-01T10:56:53.226Z</time></trkpt><trkpt lat="43.9457055" lon="11.911705"><ele>269.0</ele><time>2026-05-01T10:56:54.241Z</time></trkpt><trkpt lat="43.9456079" lon="11.9117106"><ele>270.0</ele><time>2026-05-01T10:56:55.225Z</time></trkpt><trkpt lat="43.9455362" lon="11.9117173"><ele>271.0</ele><time>2026-05-01T10:56:56.245Z</time></trkpt><trkpt lat="43.9454445" lon="11.9116784"><ele>271.0</ele><time>2026-05-01T10:56:57.224Z</time></trkpt><trkpt lat="43.9453021" lon="11.9116858"><ele>271.0</ele><time>2026-05-01T10:56:58.23Z</time></trkpt><trkpt lat="43.945214" lon="11.911695"><ele>271.0</ele><time>2026-05-01T10:56:59.226Z</time></trkpt><trkpt lat="43.9451312" lon="11.911701"><ele>271.0</ele><time>2026-05-01T10:57:00.226Z</time></trkpt><trkpt lat="43.9450284" lon="11.9117608"><ele>271.0</ele><time>2026-05-01T10:57:01.229Z</time></trkpt><trkpt lat="43.9449531" lon="11.9118099"><ele>271.6</ele><time>2026-05-01T10:57:02.224Z</time></trkpt><trkpt lat="43.9449122" lon="11.911895"><ele>272.20000000000005</ele><time>2026-05-01T10:57:03.24Z</time></trkpt><trkpt lat="43.9448509" lon="11.9119745"><ele>272.79999999999995</ele><time>2026-05-01T10:57:04.232Z</time></trkpt><trkpt lat="43.94483" lon="11.9121339"><ele>273.4</ele><time>2026-05-01T10:57:05.225Z</time></trkpt><trkpt lat="43.9447716" lon="11.9122413"><ele>274.0</ele><time>2026-05-01T10:57:06.231Z</time></trkpt><trkpt lat="43.9447178" lon="11.9123826"><ele>274.0</ele><time>2026-05-01T10:57:07.231Z</time></trkpt><trkpt lat="43.9446296" lon="11.9124886"><ele>274.0</ele><time>2026-05-01T10:57:08.23Z</time></trkpt><trkpt lat="43.9445637" lon="11.9126208"><ele>274.0</ele><time>2026-05-01T10:57:09.23Z</time></trkpt><trkpt lat="43.9444463" lon="11.9126716"><ele>274.0</ele><time>2026-05-01T10:57:10.227Z</time></trkpt><trkpt lat="43.944317" lon="11.9127412"><ele>273.0</ele><time>2026-05-01T10:57:11.226Z</time></trkpt><trkpt lat="43.9441446" lon="11.9127237"><ele>272.0</ele><time>2026-05-01T10:57:12.234Z</time></trkpt><trkpt lat="43.9440053" lon="11.9127619"><ele>271.0</ele><time>2026-05-01T10:57:13.225Z</time></trkpt><trkpt lat="43.9438608" lon="11.9127928"><ele>271.0</ele><time>2026-05-01T10:57:14.226Z</time></trkpt><trkpt lat="43.9437443" lon="11.9128393"><ele>271.0</ele><time>2026-05-01T10:57:15.225Z</time></trkpt><trkpt lat="43.9436222" lon="11.9129229"><ele>271.0</ele><time>2026-05-01T10:57:16.237Z</time></trkpt><trkpt lat="43.9434958" lon="11.9130117"><ele>271.0</ele><time>2026-05-01T10:57:17.226Z</time></trkpt><trkpt lat="43.9433736" lon="11.9131095"><ele>272.25</ele><time>2026-05-01T10:57:18.24Z</time></trkpt><trkpt lat="43.9432517" lon="11.9132107"><ele>273.5</ele><time>2026-05-01T10:57:19.231Z</time></trkpt><trkpt lat="43.9431672" lon="11.9133488"><ele>274.75</ele><time>2026-05-01T10:57:20.233Z</time></trkpt><trkpt lat="43.9430638" lon="11.9134736"><ele>276.0</ele><time>2026-05-01T10:57:21.226Z</time></trkpt><trkpt lat="43.943009" lon="11.913668"><ele>276.0</ele><time>2026-05-01T10:57:22.227Z</time></trkpt><trkpt lat="43.9429874" lon="11.9138986"><ele>276.0</ele><time>2026-05-01T10:57:23.224Z</time></trkpt><trkpt lat="43.9429488" lon="11.9140982"><ele>276.0</ele><time>2026-05-01T10:57:24.227Z</time></trkpt><trkpt lat="43.9428931" lon="11.9142977"><ele>279.0</ele><time>2026-05-01T10:57:25.235Z</time></trkpt><trkpt lat="43.9428198" lon="11.9145101"><ele>282.0</ele><time>2026-05-01T10:57:26.225Z</time></trkpt><trkpt lat="43.9427678" lon="11.9147549"><ele>285.0</ele><time>2026-05-01T10:57:27.24Z</time></trkpt><trkpt lat="43.9427016" lon="11.9149335"><ele>284.6666666666667</ele><time>2026-05-01T10:57:28.228Z</time></trkpt><trkpt lat="43.9426249" lon="11.9151153"><ele>284.33333333333337</ele><time>2026-05-01T10:57:29.233Z</time></trkpt><trkpt lat="43.9425294" lon="11.9152889"><ele>284.0</ele><time>2026-05-01T10:57:30.227Z</time></trkpt><trkpt lat="43.9424328" lon="11.9154566"><ele>284.0</ele><time>2026-05-01T10:57:31.23Z</time></trkpt><trkpt lat="43.9423302" lon="11.9156428"><ele>284.0</ele><time>2026-05-01T10:57:32.229Z</time></trkpt><trkpt lat="43.942229" lon="11.9158325"><ele>284.0</ele><time>2026-05-01T10:57:33.23Z</time></trkpt><trkpt lat="43.9421351" lon="11.9160332"><ele>287.0</ele><time>2026-05-01T10:57:34.226Z</time></trkpt><trkpt lat="43.9420429" lon="11.9162202"><ele>290.0</ele><time>2026-05-01T10:57:35.223Z</time></trkpt><trkpt lat="43.9419643" lon="11.9164454"><ele>293.0</ele><time>2026-05-01T10:57:36.238Z</time></trkpt><trkpt lat="43.9418882" lon="11.9166649"><ele>291.6666666666667</ele><time>2026-05-01T10:57:37.223Z</time></trkpt><trkpt lat="43.9418085" lon="11.9168815"><ele>290.3333333333333</ele><time>2026-05-01T10:57:38.229Z</time></trkpt><trkpt lat="43.941751" lon="11.9171222"><ele>289.0</ele><time>2026-05-01T10:57:39.233Z</time></trkpt><trkpt lat="43.9416822" lon="11.917351"><ele>289.0</ele><time>2026-05-01T10:57:40.226Z</time></trkpt><trkpt lat="43.9416027" lon="11.9175614"><ele>289.0</ele><time>2026-05-01T10:57:41.241Z</time></trkpt><trkpt lat="43.9415309" lon="11.9177953"><ele>289.0</ele><time>2026-05-01T10:57:42.236Z</time></trkpt><trkpt lat="43.9414881" lon="11.9180477"><ele>289.0</ele><time>2026-05-01T10:57:43.237Z</time></trkpt><trkpt lat="43.9414387" lon="11.9182686"><ele>289.0</ele><time>2026-05-01T10:57:44.235Z</time></trkpt><trkpt lat="43.9413854" lon="11.9185013"><ele>289.0</ele><time>2026-05-01T10:57:45.224Z</time></trkpt><trkpt lat="43.9413097" lon="11.9187068"><ele>289.0</ele><time>2026-05-01T10:57:46.236Z</time></trkpt><trkpt lat="43.9412699" lon="11.918919"><ele>289.0</ele><time>2026-05-01T10:57:47.236Z</time></trkpt><trkpt lat="43.941226" lon="11.9191329"><ele>289.0</ele><time>2026-05-01T10:57:48.236Z</time></trkpt><trkpt lat="43.941176" lon="11.919359"><ele>289.25</ele><time>2026-05-01T10:57:49.237Z</time></trkpt><trkpt lat="43.9411298" lon="11.9195653"><ele>289.5</ele><time>2026-05-01T10:57:50.227Z</time></trkpt><trkpt lat="43.9411095" lon="11.9197356"><ele>289.75</ele><time>2026-05-01T10:57:51.238Z</time></trkpt><trkpt lat="43.9410838" lon="11.919886"><ele>290.0</ele><time>2026-05-01T10:57:52.236Z</time></trkpt><trkpt lat="43.9411222" lon="11.9200436"><ele>292.0</ele><time>2026-05-01T10:57:53.231Z</time></trkpt><trkpt lat="43.9411535" lon="11.9201859"><ele>294.0</ele><time>2026-05-01T10:57:54.226Z</time></trkpt><trkpt lat="43.9412371" lon="11.9202632"><ele>296.0</ele><time>2026-05-01T10:57:55.225Z</time></trkpt><trkpt lat="43.9413149" lon="11.9203543"><ele>298.0</ele><time>2026-05-01T10:57:56.227Z</time></trkpt><trkpt lat="43.9414505" lon="11.920318"><ele>300.0</ele><time>2026-05-01T10:57:57.224Z</time></trkpt><trkpt lat="43.9415794" lon="11.920273"><ele>300.0</ele><time>2026-05-01T10:57:58.237Z</time></trkpt><trkpt lat="43.9417025" lon="11.9202309"><ele>300.0</ele><time>2026-05-01T10:57:59.225Z</time></trkpt><trkpt lat="43.9418251" lon="11.9201882"><ele>300.0</ele><time>2026-05-01T10:58:00.234Z</time></trkpt><trkpt lat="43.9419525" lon="11.9201649"><ele>300.0</ele><time>2026-05-01T10:58:01.227Z</time></trkpt><trkpt lat="43.9420748" lon="11.920204"><ele>300.25</ele><time>2026-05-01T10:58:02.236Z</time></trkpt><trkpt lat="43.9421643" lon="11.9202792"><ele>300.5</ele><time>2026-05-01T10:58:03.225Z</time></trkpt><trkpt lat="43.9422641" lon="11.9203475"><ele>300.75</ele><time>2026-05-01T10:58:04.237Z</time></trkpt><trkpt lat="43.9423356" lon="11.9204717"><ele>301.0</ele><time>2026-05-01T10:58:05.236Z</time></trkpt><trkpt lat="43.9423858" lon="11.9206487"><ele>301.0</ele><time>2026-05-01T10:58:06.237Z</time></trkpt><trkpt lat="43.9424341" lon="11.9208409"><ele>301.0</ele><time>2026-05-01T10:58:07.23Z</time></trkpt><trkpt lat="43.942447" lon="11.9210872"><ele>301.0</ele><time>2026-05-01T10:58:08.237Z</time></trkpt><trkpt lat="43.9424838" lon="11.9213081"><ele>300.66666666666663</ele><time>2026-05-01T10:58:09.234Z</time></trkpt><trkpt lat="43.9425234" lon="11.9215288"><ele>300.3333333333333</ele><time>2026-05-01T10:58:10.228Z</time></trkpt><trkpt lat="43.94257" lon="11.9217443"><ele>300.0</ele><time>2026-05-01T10:58:11.237Z</time></trkpt><trkpt lat="43.9426217" lon="11.9219701"><ele>308.3333333333333</ele><time>2026-05-01T10:58:12.226Z</time></trkpt><trkpt lat="43.9426868" lon="11.9222138"><ele>316.66666666666663</ele><time>2026-05-01T10:58:13.236Z</time></trkpt><trkpt lat="43.9427541" lon="11.9224362"><ele>325.0</ele><time>2026-05-01T10:58:14.238Z</time></trkpt><trkpt lat="43.9428465" lon="11.9227135"><ele>328.3333333333333</ele><time>2026-05-01T10:58:15.227Z</time></trkpt><trkpt lat="43.9429007" lon="11.9229828"><ele>331.6666666666667</ele><time>2026-05-01T10:58:16.237Z</time></trkpt><trkpt lat="43.9429382" lon="11.9232298"><ele>335.0</ele><time>2026-05-01T10:58:17.237Z</time></trkpt><trkpt lat="43.9429706" lon="11.9234721"><ele>337.6666666666667</ele><time>2026-05-01T10:58:18.236Z</time></trkpt><trkpt lat="43.9429658" lon="11.9236952"><ele>340.3333333333333</ele><time>2026-05-01T10:58:19.225Z</time></trkpt><trkpt lat="43.9429068" lon="11.9239397"><ele>343.0</ele><time>2026-05-01T10:58:20.237Z</time></trkpt><trkpt lat="43.942874" lon="11.9241567"><ele>344.0</ele><time>2026-05-01T10:58:21.237Z</time></trkpt><trkpt lat="43.9427982" lon="11.9243865"><ele>345.0</ele><time>2026-05-01T10:58:22.226Z</time></trkpt><trkpt lat="43.9427471" lon="11.9246017"><ele>346.0</ele><time>2026-05-01T10:58:23.228Z</time></trkpt><trkpt lat="43.9427312" lon="11.9248068"><ele>346.0</ele><time>2026-05-01T10:58:24.236Z</time></trkpt><trkpt lat="43.9427071" lon="11.9250487"><ele>346.0</ele><time>2026-05-01T10:58:25.236Z</time></trkpt><trkpt lat="43.9427155" lon="11.9253055"><ele>346.0</ele><time>2026-05-01T10:58:26.229Z</time></trkpt><trkpt lat="43.9427414" lon="11.9255739"><ele>346.25</ele><time>2026-05-01T10:58:27.225Z</time></trkpt><trkpt lat="43.942739" lon="11.9257462"><ele>346.5</ele><time>2026-05-01T10:58:28.237Z</time></trkpt><trkpt lat="43.9427151" lon="11.9259402"><ele>346.75</ele><time>2026-05-01T10:58:29.237Z</time></trkpt><trkpt lat="43.9426869" lon="11.9260872"><ele>347.0</ele><time>2026-05-01T10:58:30.234Z</time></trkpt><trkpt lat="43.9426235" lon="11.9262234"><ele>343.5</ele><time>2026-05-01T10:58:31.238Z</time></trkpt><trkpt lat="43.9425526" lon="11.9263308"><ele>340.0</ele><time>2026-05-01T10:58:32.236Z</time></trkpt><trkpt lat="43.9424295" lon="11.9263875"><ele>336.5</ele><time>2026-05-01T10:58:33.238Z</time></trkpt><trkpt lat="43.9423205" lon="11.9264537"><ele>333.0</ele><time>2026-05-01T10:58:34.236Z</time></trkpt><trkpt lat="43.9421375" lon="11.926458"><ele>333.0</ele><time>2026-05-01T10:58:35.237Z</time></trkpt><trkpt lat="43.9419618" lon="11.9264951"><ele>333.0</ele><time>2026-05-01T10:58:36.24Z</time></trkpt><trkpt lat="43.941792" lon="11.9265149"><ele>333.0</ele><time>2026-05-01T10:58:37.236Z</time></trkpt><trkpt lat="43.9416562" lon="11.9266142"><ele>331.0</ele><time>2026-05-01T10:58:38.236Z</time></trkpt><trkpt lat="43.9414934" lon="11.9267371"><ele>329.0</ele><time>2026-05-01T10:58:39.236Z</time></trkpt><trkpt lat="43.9413617" lon="11.9269035"><ele>327.0</ele><time>2026-05-01T10:58:40.225Z</time></trkpt><trkpt lat="43.9413041" lon="11.9271214"><ele>327.0</ele><time>2026-05-01T10:58:41.226Z</time></trkpt><trkpt lat="43.9412546" lon="11.9273006"><ele>327.0</ele><time>2026-05-01T10:58:42.236Z</time></trkpt><trkpt lat="43.9412465" lon="11.9275676"><ele>327.0</ele><time>2026-05-01T10:58:43.237Z</time></trkpt><trkpt lat="43.9413657" lon="11.9278063"><ele>329.0</ele><time>2026-05-01T10:58:44.236Z</time></trkpt><trkpt lat="43.9413969" lon="11.92803"><ele>331.0</ele><time>2026-05-01T10:58:45.245Z</time></trkpt><trkpt lat="43.9414736" lon="11.9282613"><ele>333.0</ele><time>2026-05-01T10:58:46.225Z</time></trkpt><trkpt lat="43.9415338" lon="11.92847"><ele>333.4</ele><time>2026-05-01T10:58:47.222Z</time></trkpt><trkpt lat="43.9415562" lon="11.9286623"><ele>333.79999999999995</ele><time>2026-05-01T10:58:48.236Z</time></trkpt><trkpt lat="43.9415794" lon="11.9287956"><ele>334.2</ele><time>2026-05-01T10:58:49.227Z</time></trkpt><trkpt lat="43.9415606" lon="11.9289074"><ele>334.6</ele><time>2026-05-01T10:58:50.235Z</time></trkpt><trkpt lat="43.9415296" lon="11.9290111"><ele>335.0</ele><time>2026-05-01T10:58:51.237Z</time></trkpt><trkpt lat="43.9414634" lon="11.929047"><ele>335.0</ele><time>2026-05-01T10:58:52.231Z</time></trkpt><trkpt lat="43.9413524" lon="11.9290019"><ele>335.0</ele><time>2026-05-01T10:58:54.236Z</time></trkpt><trkpt lat="43.9412422" lon="11.9288465"><ele>335.0</ele><time>2026-05-01T10:58:55.223Z</time></trkpt><trkpt lat="43.941165" lon="11.9286806"><ele>335.0</ele><time>2026-05-01T10:58:56.237Z</time></trkpt><trkpt lat="43.9410645" lon="11.9285189"><ele>334.33333333333337</ele><time>2026-05-01T10:58:57.224Z</time></trkpt><trkpt lat="43.9409875" lon="11.9281513"><ele>333.6666666666667</ele><time>2026-05-01T10:58:58.236Z</time></trkpt><trkpt lat="43.9409261" lon="11.9279349"><ele>333.0</ele><time>2026-05-01T10:58:59.237Z</time></trkpt><trkpt lat="43.9408968" lon="11.9276302"><ele>340.0</ele><time>2026-05-01T10:59:00.237Z</time></trkpt><trkpt lat="43.9408785" lon="11.9273336"><ele>347.0</ele><time>2026-05-01T10:59:01.238Z</time></trkpt><trkpt lat="43.9408279" lon="11.9270891"><ele>354.0</ele><time>2026-05-01T10:59:02.23Z</time></trkpt><trkpt lat="43.9407745" lon="11.9268561"><ele>353.6666666666667</ele><time>2026-05-01T10:59:03.233Z</time></trkpt><trkpt lat="43.9407438" lon="11.9266403"><ele>353.33333333333337</ele><time>2026-05-01T10:59:04.236Z</time></trkpt><trkpt lat="43.9407485" lon="11.926394"><ele>353.0</ele><time>2026-05-01T10:59:05.235Z</time></trkpt><trkpt lat="43.9408048" lon="11.9261747"><ele>353.0</ele><time>2026-05-01T10:59:06.235Z</time></trkpt><trkpt lat="43.9408714" lon="11.9259756"><ele>353.0</ele><time>2026-05-01T10:59:07.236Z</time></trkpt><trkpt lat="43.9409455" lon="11.9257792"><ele>353.0</ele><time>2026-05-01T10:59:08.236Z</time></trkpt><trkpt lat="43.9410136" lon="11.9255849"><ele>351.25</ele><time>2026-05-01T10:59:09.224Z</time></trkpt><trkpt lat="43.9410865" lon="11.925417"><ele>349.5</ele><time>2026-05-01T10:59:10.236Z</time></trkpt><trkpt lat="43.9411402" lon="11.9252327"><ele>347.75</ele><time>2026-05-01T10:59:11.227Z</time></trkpt><trkpt lat="43.9411831" lon="11.9250706"><ele>346.0</ele><time>2026-05-01T10:59:12.236Z</time></trkpt><trkpt lat="43.9412179" lon="11.9249578"><ele>346.0</ele><time>2026-05-01T10:59:13.236Z</time></trkpt><trkpt lat="43.9412115" lon="11.9248075"><ele>346.0</ele><time>2026-05-01T10:59:14.237Z</time></trkpt><trkpt lat="43.9411148" lon="11.9247934"><ele>346.0</ele><time>2026-05-01T10:59:15.236Z</time></trkpt><trkpt lat="43.9410583" lon="11.9247489"><ele>346.0</ele><time>2026-05-01T10:59:16.236Z</time></trkpt><trkpt lat="43.9409077" lon="11.9249022"><ele>352.0</ele><time>2026-05-01T10:59:18.236Z</time></trkpt><trkpt lat="43.9408182" lon="11.9250589"><ele>358.0</ele><time>2026-05-01T10:59:19.231Z</time></trkpt><trkpt lat="43.9407359" lon="11.9252362"><ele>364.0</ele><time>2026-05-01T10:59:20.23Z</time></trkpt><trkpt lat="43.9406378" lon="11.9254471"><ele>364.0</ele><time>2026-05-01T10:59:21.236Z</time></trkpt><trkpt lat="43.9405428" lon="11.9256427"><ele>364.0</ele><time>2026-05-01T10:59:22.238Z</time></trkpt><trkpt lat="43.94044" lon="11.9259112"><ele>364.0</ele><time>2026-05-01T10:59:23.226Z</time></trkpt><trkpt lat="43.9403248" lon="11.9261545"><ele>360.3333333333333</ele><time>2026-05-01T10:59:24.227Z</time></trkpt><trkpt lat="43.940196" lon="11.9263783"><ele>356.6666666666667</ele><time>2026-05-01T10:59:25.233Z</time></trkpt><trkpt lat="43.9400722" lon="11.9265955"><ele>353.0</ele><time>2026-05-01T10:59:26.232Z</time></trkpt><trkpt lat="43.9399443" lon="11.926768"><ele>362.0</ele><time>2026-05-01T10:59:27.236Z</time></trkpt><trkpt lat="43.9398231" lon="11.9269291"><ele>371.0</ele><time>2026-05-01T10:59:28.237Z</time></trkpt><trkpt lat="43.9396943" lon="11.9270851"><ele>380.0</ele><time>2026-05-01T10:59:29.225Z</time></trkpt><trkpt lat="43.9395526" lon="11.9272155"><ele>380.0</ele><time>2026-05-01T10:59:30.227Z</time></trkpt><trkpt lat="43.9394323" lon="11.9273141"><ele>380.0</ele><time>2026-05-01T10:59:31.237Z</time></trkpt><trkpt lat="43.9393743" lon="11.9274381"><ele>380.0</ele><time>2026-05-01T10:59:32.227Z</time></trkpt><trkpt lat="43.9392846" lon="11.9275246"><ele>380.0</ele><time>2026-05-01T10:59:33.233Z</time></trkpt><trkpt lat="43.9391794" lon="11.9275478"><ele>381.0</ele><time>2026-05-01T10:59:34.224Z</time></trkpt><trkpt lat="43.9390272" lon="11.9275236"><ele>382.0</ele><time>2026-05-01T10:59:35.236Z</time></trkpt><trkpt lat="43.9388857" lon="11.9274975"><ele>383.0</ele><time>2026-05-01T10:59:36.237Z</time></trkpt><trkpt lat="43.9386877" lon="11.9274259"><ele>383.0</ele><time>2026-05-01T10:59:37.223Z</time></trkpt><trkpt lat="43.9385151" lon="11.9273848"><ele>383.0</ele><time>2026-05-01T10:59:38.225Z</time></trkpt><trkpt lat="43.9383568" lon="11.9273282"><ele>383.0</ele><time>2026-05-01T10:59:39.227Z</time></trkpt><trkpt lat="43.9382436" lon="11.9272284"><ele>385.25</ele><time>2026-05-01T10:59:40.237Z</time></trkpt><trkpt lat="43.9381211" lon="11.9271569"><ele>387.5</ele><time>2026-05-01T10:59:41.224Z</time></trkpt><trkpt lat="43.9380004" lon="11.9270827"><ele>389.75</ele><time>2026-05-01T10:59:42.23Z</time></trkpt><trkpt lat="43.9378823" lon="11.927058"><ele>392.0</ele><time>2026-05-01T10:59:43.227Z</time></trkpt><trkpt lat="43.937743" lon="11.9271825"><ele>392.0</ele><time>2026-05-01T10:59:44.237Z</time></trkpt><trkpt lat="43.9376035" lon="11.9272771"><ele>392.0</ele><time>2026-05-01T10:59:45.236Z</time></trkpt><trkpt lat="43.9374433" lon="11.9273721"><ele>392.0</ele><time>2026-05-01T10:59:46.236Z</time></trkpt><trkpt lat="43.937276" lon="11.9274197"><ele>396.0</ele><time>2026-05-01T10:59:47.228Z</time></trkpt><trkpt lat="43.9371082" lon="11.9274404"><ele>400.0</ele><time>2026-05-01T10:59:48.238Z</time></trkpt><trkpt lat="43.9369621" lon="11.9274559"><ele>404.0</ele><time>2026-05-01T10:59:49.237Z</time></trkpt><trkpt lat="43.9368122" lon="11.9274735"><ele>405.66666666666663</ele><time>2026-05-01T10:59:50.237Z</time></trkpt><trkpt lat="43.9366646" lon="11.9275049"><ele>407.33333333333337</ele><time>2026-05-01T10:59:51.237Z</time></trkpt><trkpt lat="43.9365027" lon="11.9275851"><ele>409.0</ele><time>2026-05-01T10:59:52.227Z</time></trkpt><trkpt lat="43.9363603" lon="11.9275934"><ele>409.0</ele><time>2026-05-01T10:59:53.23Z</time></trkpt><trkpt lat="43.93622" lon="11.9276268"><ele>409.0</ele><time>2026-05-01T10:59:54.238Z</time></trkpt><trkpt lat="43.9360631" lon="11.9276608"><ele>409.0</ele><time>2026-05-01T10:59:55.232Z</time></trkpt><trkpt lat="43.9359105" lon="11.9276655"><ele>411.25</ele><time>2026-05-01T10:59:56.239Z</time></trkpt><trkpt lat="43.9357479" lon="11.9276501"><ele>413.5</ele><time>2026-05-01T10:59:57.237Z</time></trkpt><trkpt lat="43.9355903" lon="11.9276728"><ele>415.75</ele><time>2026-05-01T10:59:58.227Z</time></trkpt><trkpt lat="43.935475" lon="11.9276494"><ele>418.0</ele><time>2026-05-01T10:59:59.237Z</time></trkpt><trkpt lat="43.9353672" lon="11.9276678"><ele>418.0</ele><time>2026-05-01T11:00:00.238Z</time></trkpt><trkpt lat="43.935255" lon="11.9276936"><ele>418.0</ele><time>2026-05-01T11:00:01.233Z</time></trkpt><trkpt lat="43.9351756" lon="11.9278089"><ele>418.0</ele><time>2026-05-01T11:00:02.226Z</time></trkpt><trkpt lat="43.9351004" lon="11.9279243"><ele>418.0</ele><time>2026-05-01T11:00:03.237Z</time></trkpt><trkpt lat="43.9350725" lon="11.9281049"><ele>418.0</ele><time>2026-05-01T11:00:04.237Z</time></trkpt><trkpt lat="43.9350826" lon="11.9283686"><ele>418.0</ele><time>2026-05-01T11:00:05.227Z</time></trkpt><trkpt lat="43.9350488" lon="11.9285612"><ele>418.0</ele><time>2026-05-01T11:00:06.235Z</time></trkpt><trkpt lat="43.934976" lon="11.9287871"><ele>419.33333333333337</ele><time>2026-05-01T11:00:07.224Z</time></trkpt><trkpt lat="43.9348459" lon="11.928968"><ele>420.66666666666663</ele><time>2026-05-01T11:00:08.235Z</time></trkpt><trkpt lat="43.9347305" lon="11.9291162"><ele>422.0</ele><time>2026-05-01T11:00:09.237Z</time></trkpt><trkpt lat="43.9346016" lon="11.9292274"><ele>425.66666666666663</ele><time>2026-05-01T11:00:10.237Z</time></trkpt><trkpt lat="43.934472" lon="11.9293212"><ele>429.33333333333337</ele><time>2026-05-01T11:00:11.227Z</time></trkpt><trkpt lat="43.9343135" lon="11.9293982"><ele>433.0</ele><time>2026-05-01T11:00:12.231Z</time></trkpt><trkpt lat="43.9341725" lon="11.9294032"><ele>433.0</ele><time>2026-05-01T11:00:13.226Z</time></trkpt><trkpt lat="43.9340747" lon="11.9293917"><ele>432.99999999999994</ele><time>2026-05-01T11:00:14.227Z</time></trkpt><trkpt lat="43.9339733" lon="11.9294093"><ele>432.99999999999994</ele><time>2026-05-01T11:00:15.228Z</time></trkpt><trkpt lat="43.9338892" lon="11.9294559"><ele>433.0</ele><time>2026-05-01T11:00:16.226Z</time></trkpt><trkpt lat="43.9338029" lon="11.9295671"><ele>433.0</ele><time>2026-05-01T11:00:17.236Z</time></trkpt><trkpt lat="43.9337148" lon="11.9296975"><ele>433.0</ele><time>2026-05-01T11:00:18.236Z</time></trkpt><trkpt lat="43.9336305" lon="11.9298317"><ele>433.0</ele><time>2026-05-01T11:00:19.236Z</time></trkpt><trkpt lat="43.9335403" lon="11.9299547"><ele>433.0</ele><time>2026-05-01T11:00:20.229Z</time></trkpt><trkpt lat="43.9334518" lon="11.9301328"><ele>433.0</ele><time>2026-05-01T11:00:21.224Z</time></trkpt><trkpt lat="43.9333701" lon="11.9302871"><ele>432.79999999999995</ele><time>2026-05-01T11:00:22.237Z</time></trkpt><trkpt lat="43.9332874" lon="11.9304397"><ele>432.59999999999997</ele><time>2026-05-01T11:00:23.237Z</time></trkpt><trkpt lat="43.9332225" lon="11.9305727"><ele>432.40000000000003</ele><time>2026-05-01T11:00:24.228Z</time></trkpt><trkpt lat="43.9331787" lon="11.9306793"><ele>432.20000000000005</ele><time>2026-05-01T11:00:25.233Z</time></trkpt><trkpt lat="43.9331562" lon="11.93081"><ele>432.0</ele><time>2026-05-01T11:00:26.226Z</time></trkpt><trkpt lat="43.9331324" lon="11.9309607"><ele>432.0</ele><time>2026-05-01T11:00:27.226Z</time></trkpt><trkpt lat="43.9331" lon="11.9310705"><ele>432.0</ele><time>2026-05-01T11:00:28.225Z</time></trkpt><trkpt lat="43.9330807" lon="11.9312409"><ele>432.0</ele><time>2026-05-01T11:00:29.226Z</time></trkpt><trkpt lat="43.9330456" lon="11.9313918"><ele>432.0</ele><time>2026-05-01T11:00:30.228Z</time></trkpt><trkpt lat="43.9330246" lon="11.9315702"><ele>429.5</ele><time>2026-05-01T11:00:31.228Z</time></trkpt><trkpt lat="43.9329829" lon="11.931736"><ele>427.0</ele><time>2026-05-01T11:00:32.232Z</time></trkpt><trkpt lat="43.9329232" lon="11.9319047"><ele>424.5</ele><time>2026-05-01T11:00:33.227Z</time></trkpt><trkpt lat="43.9328872" lon="11.9320947"><ele>422.0</ele><time>2026-05-01T11:00:34.23Z</time></trkpt><trkpt lat="43.9328649" lon="11.9323436"><ele>422.0</ele><time>2026-05-01T11:00:35.226Z</time></trkpt><trkpt lat="43.932809" lon="11.9325235"><ele>422.0</ele><time>2026-05-01T11:00:36.237Z</time></trkpt><trkpt lat="43.932795" lon="11.9327319"><ele>422.0</ele><time>2026-05-01T11:00:37.227Z</time></trkpt><trkpt lat="43.9327557" lon="11.9329569"><ele>421.75</ele><time>2026-05-01T11:00:38.226Z</time></trkpt><trkpt lat="43.9327031" lon="11.93312"><ele>421.5</ele><time>2026-05-01T11:00:39.226Z</time></trkpt><trkpt lat="43.9326695" lon="11.9333191"><ele>421.25</ele><time>2026-05-01T11:00:40.223Z</time></trkpt><trkpt lat="43.9326347" lon="11.9335084"><ele>421.0</ele><time>2026-05-01T11:00:41.227Z</time></trkpt><trkpt lat="43.9326255" lon="11.9337368"><ele>421.75</ele><time>2026-05-01T11:00:42.236Z</time></trkpt><trkpt lat="43.9325838" lon="11.9339069"><ele>422.5</ele><time>2026-05-01T11:00:43.226Z</time></trkpt><trkpt lat="43.9326478" lon="11.9340736"><ele>423.25</ele><time>2026-05-01T11:00:44.245Z</time></trkpt><trkpt lat="43.9327195" lon="11.9342579"><ele>424.0</ele><time>2026-05-01T11:00:45.232Z</time></trkpt><trkpt lat="43.9328855" lon="11.9344748"><ele>425.33333333333337</ele><time>2026-05-01T11:00:46.227Z</time></trkpt><trkpt lat="43.9330058" lon="11.9346848"><ele>426.66666666666663</ele><time>2026-05-01T11:00:47.236Z</time></trkpt><trkpt lat="43.933137" lon="11.9349144"><ele>428.0</ele><time>2026-05-01T11:00:48.232Z</time></trkpt><trkpt lat="43.9332326" lon="11.9350969"><ele>427.0</ele><time>2026-05-01T11:00:49.234Z</time></trkpt><trkpt lat="43.9333379" lon="11.9352976"><ele>426.0</ele><time>2026-05-01T11:00:50.236Z</time></trkpt><trkpt lat="43.9334185" lon="11.9355095"><ele>425.0</ele><time>2026-05-01T11:00:51.242Z</time></trkpt><trkpt lat="43.933428" lon="11.935756"><ele>428.0</ele><time>2026-05-01T11:00:52.236Z</time></trkpt><trkpt lat="43.9334522" lon="11.9359923"><ele>431.0</ele><time>2026-05-01T11:00:53.227Z</time></trkpt><trkpt lat="43.9334138" lon="11.9362025"><ele>434.0</ele><time>2026-05-01T11:00:54.236Z</time></trkpt><trkpt lat="43.9333619" lon="11.936383"><ele>435.66666666666663</ele><time>2026-05-01T11:00:55.225Z</time></trkpt><trkpt lat="43.9333123" lon="11.9365861"><ele>437.33333333333337</ele><time>2026-05-01T11:00:56.226Z</time></trkpt><trkpt lat="43.9331992" lon="11.9367557"><ele>439.0</ele><time>2026-05-01T11:00:57.235Z</time></trkpt><trkpt lat="43.9330823" lon="11.9369285"><ele>439.33333333333337</ele><time>2026-05-01T11:00:58.226Z</time></trkpt><trkpt lat="43.9329551" lon="11.9371224"><ele>439.66666666666663</ele><time>2026-05-01T11:00:59.232Z</time></trkpt><trkpt lat="43.9328275" lon="11.9373233"><ele>440.0</ele><time>2026-05-01T11:01:00.237Z</time></trkpt><trkpt lat="43.9326892" lon="11.9375116"><ele>444.66666666666663</ele><time>2026-05-01T11:01:01.237Z</time></trkpt><trkpt lat="43.9325533" lon="11.9377169"><ele>449.33333333333337</ele><time>2026-05-01T11:01:02.235Z</time></trkpt><trkpt lat="43.9324236" lon="11.9378739"><ele>454.0</ele><time>2026-05-01T11:01:03.236Z</time></trkpt><trkpt lat="43.9322861" lon="11.9380101"><ele>454.0</ele><time>2026-05-01T11:01:04.238Z</time></trkpt><trkpt lat="43.932144" lon="11.9381494"><ele>454.0</ele><time>2026-05-01T11:01:05.237Z</time></trkpt><trkpt lat="43.9319943" lon="11.9382591"><ele>454.0</ele><time>2026-05-01T11:01:06.236Z</time></trkpt><trkpt lat="43.9318461" lon="11.9383513"><ele>457.75</ele><time>2026-05-01T11:01:07.225Z</time></trkpt><trkpt lat="43.931705" lon="11.9384388"><ele>461.5</ele><time>2026-05-01T11:01:08.237Z</time></trkpt><trkpt lat="43.9315772" lon="11.9385236"><ele>465.25</ele><time>2026-05-01T11:01:09.236Z</time></trkpt><trkpt lat="43.9314845" lon="11.9386322"><ele>469.0</ele><time>2026-05-01T11:01:10.235Z</time></trkpt><trkpt lat="43.9313907" lon="11.9387645"><ele>469.0</ele><time>2026-05-01T11:01:11.224Z</time></trkpt><trkpt lat="43.9313168" lon="11.9389111"><ele>469.0</ele><time>2026-05-01T11:01:12.226Z</time></trkpt><trkpt lat="43.9313365" lon="11.9391661"><ele>469.0</ele><time>2026-05-01T11:01:13.238Z</time></trkpt><trkpt lat="43.9313253" lon="11.939358"><ele>469.33333333333337</ele><time>2026-05-01T11:01:14.224Z</time></trkpt><trkpt lat="43.9313199" lon="11.9396149"><ele>469.66666666666663</ele><time>2026-05-01T11:01:15.232Z</time></trkpt><trkpt lat="43.9313171" lon="11.939838"><ele>470.0</ele><time>2026-05-01T11:01:16.237Z</time></trkpt><trkpt lat="43.9313059" lon="11.9400378"><ele>470.5</ele><time>2026-05-01T11:01:17.236Z</time></trkpt><trkpt lat="43.9312802" lon="11.9402359"><ele>471.0</ele><time>2026-05-01T11:01:18.236Z</time></trkpt><trkpt lat="43.9312379" lon="11.9404321"><ele>471.5</ele><time>2026-05-01T11:01:19.238Z</time></trkpt><trkpt lat="43.9311916" lon="11.9406337"><ele>472.0</ele><time>2026-05-01T11:01:20.234Z</time></trkpt><trkpt lat="43.9311106" lon="11.9408178"><ele>473.0</ele><time>2026-05-01T11:01:21.226Z</time></trkpt><trkpt lat="43.9309728" lon="11.9409779"><ele>474.0</ele><time>2026-05-01T11:01:22.236Z</time></trkpt><trkpt lat="43.9308549" lon="11.9411573"><ele>475.0</ele><time>2026-05-01T11:01:23.236Z</time></trkpt><trkpt lat="43.9307369" lon="11.9413455"><ele>479.33333333333337</ele><time>2026-05-01T11:01:24.237Z</time></trkpt><trkpt lat="43.9306054" lon="11.9415351"><ele>483.66666666666663</ele><time>2026-05-01T11:01:25.236Z</time></trkpt><trkpt lat="43.930457" lon="11.9417152"><ele>488.0</ele><time>2026-05-01T11:01:26.229Z</time></trkpt><trkpt lat="43.930311" lon="11.9418696"><ele>488.0</ele><time>2026-05-01T11:01:27.237Z</time></trkpt><trkpt lat="43.9301658" lon="11.9420485"><ele>488.0</ele><time>2026-05-01T11:01:28.238Z</time></trkpt><trkpt lat="43.930013" lon="11.9422219"><ele>488.0</ele><time>2026-05-01T11:01:29.236Z</time></trkpt><trkpt lat="43.929856" lon="11.9423972"><ele>491.3333333333333</ele><time>2026-05-01T11:01:30.227Z</time></trkpt><trkpt lat="43.9297183" lon="11.942576"><ele>494.66666666666663</ele><time>2026-05-01T11:01:31.224Z</time></trkpt><trkpt lat="43.9295734" lon="11.9427574"><ele>498.0</ele><time>2026-05-01T11:01:32.237Z</time></trkpt><trkpt lat="43.9294297" lon="11.9429382"><ele>498.0</ele><time>2026-05-01T11:01:33.236Z</time></trkpt><trkpt lat="43.9292921" lon="11.9431377"><ele>498.0</ele><time>2026-05-01T11:01:34.236Z</time></trkpt><trkpt lat="43.9291688" lon="11.9433621"><ele>498.0</ele><time>2026-05-01T11:01:35.243Z</time></trkpt><trkpt lat="43.929041" lon="11.9435463"><ele>501.66666666666663</ele><time>2026-05-01T11:01:36.236Z</time></trkpt><trkpt lat="43.9289026" lon="11.9437215"><ele>505.3333333333333</ele><time>2026-05-01T11:01:37.226Z</time></trkpt><trkpt lat="43.9287647" lon="11.9438752"><ele>509.0</ele><time>2026-05-01T11:01:38.236Z</time></trkpt><trkpt lat="43.9286038" lon="11.9440202"><ele>509.0</ele><time>2026-05-01T11:01:39.235Z</time></trkpt><trkpt lat="43.9284106" lon="11.944107"><ele>509.0</ele><time>2026-05-01T11:01:40.236Z</time></trkpt><trkpt lat="43.9282261" lon="11.9441759"><ele>509.0</ele><time>2026-05-01T11:01:41.236Z</time></trkpt><trkpt lat="43.9280244" lon="11.9442161"><ele>510.66666666666663</ele><time>2026-05-01T11:01:42.223Z</time></trkpt><trkpt lat="43.9278551" lon="11.9443028"><ele>512.3333333333334</ele><time>2026-05-01T11:01:43.223Z</time></trkpt><trkpt lat="43.9276825" lon="11.9444153"><ele>514.0</ele><time>2026-05-01T11:01:44.228Z</time></trkpt><trkpt lat="43.9275047" lon="11.9445232"><ele>516.6666666666667</ele><time>2026-05-01T11:01:45.226Z</time></trkpt><trkpt lat="43.9273484" lon="11.9446407"><ele>519.3333333333334</ele><time>2026-05-01T11:01:46.224Z</time></trkpt><trkpt lat="43.927174" lon="11.9447676"><ele>522.0</ele><time>2026-05-01T11:01:47.238Z</time></trkpt><trkpt lat="43.927006" lon="11.9448848"><ele>522.0</ele><time>2026-05-01T11:01:48.226Z</time></trkpt><trkpt lat="43.9268271" lon="11.9450164"><ele>522.0</ele><time>2026-05-01T11:01:49.238Z</time></trkpt><trkpt lat="43.9266501" lon="11.9451767"><ele>522.0</ele><time>2026-05-01T11:01:50.222Z</time></trkpt><trkpt lat="43.9264905" lon="11.9453037"><ele>526.3333333333334</ele><time>2026-05-01T11:01:51.225Z</time></trkpt><trkpt lat="43.926333" lon="11.945412"><ele>530.6666666666667</ele><time>2026-05-01T11:01:52.228Z</time></trkpt><trkpt lat="43.9261924" lon="11.9455239"><ele>535.0</ele><time>2026-05-01T11:01:53.239Z</time></trkpt><trkpt lat="43.9260654" lon="11.9456298"><ele>535.0</ele><time>2026-05-01T11:01:54.236Z</time></trkpt><trkpt lat="43.9259143" lon="11.945741"><ele>535.0</ele><time>2026-05-01T11:01:55.224Z</time></trkpt><trkpt lat="43.9257928" lon="11.9458951"><ele>535.0</ele><time>2026-05-01T11:01:56.228Z</time></trkpt><trkpt lat="43.925645" lon="11.946024"><ele>536.6666666666667</ele><time>2026-05-01T11:01:57.227Z</time></trkpt><trkpt lat="43.9255278" lon="11.9461882"><ele>538.3333333333334</ele><time>2026-05-01T11:01:58.237Z</time></trkpt><trkpt lat="43.9254011" lon="11.9464025"><ele>540.0</ele><time>2026-05-01T11:01:59.236Z</time></trkpt><trkpt lat="43.9252798" lon="11.9465852"><ele>543.3333333333334</ele><time>2026-05-01T11:02:00.226Z</time></trkpt><trkpt lat="43.9251455" lon="11.9467529"><ele>546.6666666666667</ele><time>2026-05-01T11:02:01.239Z</time></trkpt><trkpt lat="43.9249976" lon="11.9469031"><ele>550.0</ele><time>2026-05-01T11:02:02.222Z</time></trkpt><trkpt lat="43.9248521" lon="11.9470282"><ele>550.0</ele><time>2026-05-01T11:02:03.223Z</time></trkpt><trkpt lat="43.924717" lon="11.9471167"><ele>550.0</ele><time>2026-05-01T11:02:04.236Z</time></trkpt><trkpt lat="43.9245802" lon="11.947229"><ele>550.0</ele><time>2026-05-01T11:02:05.226Z</time></trkpt><trkpt lat="43.9244511" lon="11.9473373"><ele>550.0</ele><time>2026-05-01T11:02:06.234Z</time></trkpt><trkpt lat="43.9243173" lon="11.9474523"><ele>550.0</ele><time>2026-05-01T11:02:07.23Z</time></trkpt><trkpt lat="43.924189" lon="11.9475764"><ele>550.0</ele><time>2026-05-01T11:02:08.227Z</time></trkpt><trkpt lat="43.9240572" lon="11.9477009"><ele>553.3333333333334</ele><time>2026-05-01T11:02:09.227Z</time></trkpt><trkpt lat="43.9239275" lon="11.9478307"><ele>556.6666666666666</ele><time>2026-05-01T11:02:10.236Z</time></trkpt><trkpt lat="43.9238079" lon="11.9479535"><ele>560.0</ele><time>2026-05-01T11:02:11.237Z</time></trkpt><trkpt lat="43.9236749" lon="11.9480944"><ele>560.0</ele><time>2026-05-01T11:02:12.223Z</time></trkpt><trkpt lat="43.9235536" lon="11.9482237"><ele>560.0</ele><time>2026-05-01T11:02:13.228Z</time></trkpt><trkpt lat="43.9234342" lon="11.9483359"><ele>560.0</ele><time>2026-05-01T11:02:14.225Z</time></trkpt><trkpt lat="43.9233328" lon="11.9484407"><ele>560.0</ele><time>2026-05-01T11:02:15.226Z</time></trkpt><trkpt lat="43.9232242" lon="11.9485394"><ele>562.5</ele><time>2026-05-01T11:02:16.226Z</time></trkpt><trkpt lat="43.9231106" lon="11.9486697"><ele>565.0</ele><time>2026-05-01T11:02:17.224Z</time></trkpt><trkpt lat="43.9230151" lon="11.9487814"><ele>567.5</ele><time>2026-05-01T11:02:18.236Z</time></trkpt><trkpt lat="43.9228997" lon="11.9488853"><ele>570.0</ele><time>2026-05-01T11:02:19.236Z</time></trkpt><trkpt lat="43.9227815" lon="11.9489955"><ele>570.0</ele><time>2026-05-01T11:02:20.223Z</time></trkpt><trkpt lat="43.9226665" lon="11.9491304"><ele>570.0</ele><time>2026-05-01T11:02:21.239Z</time></trkpt><trkpt lat="43.9225671" lon="11.9492828"><ele>570.0</ele><time>2026-05-01T11:02:22.237Z</time></trkpt><trkpt lat="43.9224752" lon="11.949425"><ele>570.0</ele><time>2026-05-01T11:02:23.236Z</time></trkpt><trkpt lat="43.9224146" lon="11.9495858"><ele>572.75</ele><time>2026-05-01T11:02:24.236Z</time></trkpt><trkpt lat="43.9223592" lon="11.9497479"><ele>575.5</ele><time>2026-05-01T11:02:25.236Z</time></trkpt><trkpt lat="43.9223459" lon="11.9499222"><ele>578.25</ele><time>2026-05-01T11:02:26.236Z</time></trkpt><trkpt lat="43.9223739" lon="11.9501281"><ele>581.0</ele><time>2026-05-01T11:02:27.234Z</time></trkpt><trkpt lat="43.9223981" lon="11.9503292"><ele>582.3333333333333</ele><time>2026-05-01T11:02:28.223Z</time></trkpt><trkpt lat="43.922438" lon="11.9505514"><ele>583.6666666666666</ele><time>2026-05-01T11:02:29.236Z</time></trkpt><trkpt lat="43.9225027" lon="11.9507681"><ele>585.0</ele><time>2026-05-01T11:02:30.225Z</time></trkpt><trkpt lat="43.9225624" lon="11.9509668"><ele>585.6666666666666</ele><time>2026-05-01T11:02:31.236Z</time></trkpt><trkpt lat="43.9226159" lon="11.9511601"><ele>586.3333333333333</ele><time>2026-05-01T11:02:32.226Z</time></trkpt><trkpt lat="43.922679" lon="11.9513798"><ele>587.0</ele><time>2026-05-01T11:02:33.235Z</time></trkpt><trkpt lat="43.9227382" lon="11.9515827"><ele>592.3333333333333</ele><time>2026-05-01T11:02:34.236Z</time></trkpt><trkpt lat="43.9227675" lon="11.9517862"><ele>597.6666666666666</ele><time>2026-05-01T11:02:35.236Z</time></trkpt><trkpt lat="43.9227896" lon="11.9519945"><ele>603.0</ele><time>2026-05-01T11:02:36.236Z</time></trkpt><trkpt lat="43.9227927" lon="11.9522125"><ele>603.0</ele><time>2026-05-01T11:02:37.224Z</time></trkpt><trkpt lat="43.9227197" lon="11.9524017"><ele>603.0</ele><time>2026-05-01T11:02:38.239Z</time></trkpt><trkpt lat="43.9226668" lon="11.952608"><ele>603.0</ele><time>2026-05-01T11:02:39.224Z</time></trkpt><trkpt lat="43.9226353" lon="11.9527836"><ele>603.0</ele><time>2026-05-01T11:02:40.224Z</time></trkpt><trkpt lat="43.9226087" lon="11.9529228"><ele>606.0</ele><time>2026-05-01T11:02:41.224Z</time></trkpt><trkpt lat="43.92259" lon="11.9530814"><ele>609.0</ele><time>2026-05-01T11:02:42.237Z</time></trkpt><trkpt lat="43.9226219" lon="11.9531737"><ele>612.0</ele><time>2026-05-01T11:02:43.223Z</time></trkpt><trkpt lat="43.9226771" lon="11.9532538"><ele>615.0</ele><time>2026-05-01T11:02:44.222Z</time></trkpt><trkpt lat="43.9227456" lon="11.9533195"><ele>618.0</ele><time>2026-05-01T11:02:45.236Z</time></trkpt><trkpt lat="43.9228642" lon="11.953232"><ele>618.0</ele><time>2026-05-01T11:02:46.237Z</time></trkpt><trkpt lat="43.9229904" lon="11.9530775"><ele>618.0</ele><time>2026-05-01T11:02:47.232Z</time></trkpt><trkpt lat="43.9231054" lon="11.9529639"><ele>618.0</ele><time>2026-05-01T11:02:48.224Z</time></trkpt><trkpt lat="43.9232192" lon="11.9528539"><ele>618.0</ele><time>2026-05-01T11:02:49.224Z</time></trkpt><trkpt lat="43.9233374" lon="11.9527638"><ele>620.1999999999999</ele><time>2026-05-01T11:02:50.238Z</time></trkpt><trkpt lat="43.9234266" lon="11.9527034"><ele>622.4</ele><time>2026-05-01T11:02:51.23Z</time></trkpt><trkpt lat="43.9234978" lon="11.9526857"><ele>624.5999999999999</ele><time>2026-05-01T11:02:52.243Z</time></trkpt><trkpt lat="43.9235256" lon="11.9528245"><ele>626.8</ele><time>2026-05-01T11:02:53.236Z</time></trkpt><trkpt lat="43.92358" lon="11.9529008"><ele>629.0</ele><time>2026-05-01T11:02:54.236Z</time></trkpt><trkpt lat="43.923578" lon="11.95304"><ele>629.0</ele><time>2026-05-01T11:02:55.226Z</time></trkpt><trkpt lat="43.9235494" lon="11.9531961"><ele>629.0</ele><time>2026-05-01T11:02:56.236Z</time></trkpt><trkpt lat="43.9235505" lon="11.9534645"><ele>629.0</ele><time>2026-05-01T11:02:57.236Z</time></trkpt><trkpt lat="43.9234974" lon="11.9537242"><ele>628.6666666666666</ele><time>2026-05-01T11:02:58.237Z</time></trkpt><trkpt lat="43.9234382" lon="11.9539501"><ele>628.3333333333334</ele><time>2026-05-01T11:02:59.221Z</time></trkpt><trkpt lat="43.9233905" lon="11.9541697"><ele>628.0</ele><time>2026-05-01T11:03:00.236Z</time></trkpt><trkpt lat="43.9233213" lon="11.9543824"><ele>634.0</ele><time>2026-05-01T11:03:01.227Z</time></trkpt><trkpt lat="43.9232717" lon="11.9545748"><ele>640.0</ele><time>2026-05-01T11:03:02.225Z</time></trkpt><trkpt lat="43.9231714" lon="11.954735"><ele>646.0</ele><time>2026-05-01T11:03:03.221Z</time></trkpt><trkpt lat="43.9230578" lon="11.9548728"><ele>646.0</ele><time>2026-05-01T11:03:04.224Z</time></trkpt><trkpt lat="43.9229437" lon="11.9550094"><ele>646.0</ele><time>2026-05-01T11:03:05.236Z</time></trkpt><trkpt lat="43.9228125" lon="11.9551084"><ele>646.0</ele><time>2026-05-01T11:03:06.235Z</time></trkpt><trkpt lat="43.9226995" lon="11.9552249"><ele>646.0</ele><time>2026-05-01T11:03:07.23Z</time></trkpt><trkpt lat="43.9225877" lon="11.9553311"><ele>646.1999999999999</ele><time>2026-05-01T11:03:08.235Z</time></trkpt><trkpt lat="43.922513" lon="11.9554387"><ele>646.4</ele><time>2026-05-01T11:03:09.225Z</time></trkpt><trkpt lat="43.9224565" lon="11.9555482"><ele>646.6</ele><time>2026-05-01T11:03:10.223Z</time></trkpt><trkpt lat="43.9224121" lon="11.955623"><ele>646.8</ele><time>2026-05-01T11:03:11.225Z</time></trkpt><trkpt lat="43.9224415" lon="11.9557339"><ele>647.0</ele><time>2026-05-01T11:03:12.237Z</time></trkpt><trkpt lat="43.9225003" lon="11.9558342"><ele>652.6666666666666</ele><time>2026-05-01T11:03:13.224Z</time></trkpt><trkpt lat="43.9225933" lon="11.9558939"><ele>658.3333333333334</ele><time>2026-05-01T11:03:14.226Z</time></trkpt><trkpt lat="43.9228447" lon="11.9557378"><ele>664.0</ele><time>2026-05-01T11:03:15.238Z</time></trkpt><trkpt lat="43.9229779" lon="11.9556976"><ele>664.0</ele><time>2026-05-01T11:03:16.227Z</time></trkpt><trkpt lat="43.9231465" lon="11.9556656"><ele>664.0</ele><time>2026-05-01T11:03:17.232Z</time></trkpt><trkpt lat="43.9233102" lon="11.9556052"><ele>664.0</ele><time>2026-05-01T11:03:18.236Z</time></trkpt><trkpt lat="43.9235091" lon="11.955556"><ele>670.0</ele><time>2026-05-01T11:03:19.224Z</time></trkpt><trkpt lat="43.9236955" lon="11.9555211"><ele>676.0</ele><time>2026-05-01T11:03:20.233Z</time></trkpt><trkpt lat="43.9238627" lon="11.9554893"><ele>682.0</ele><time>2026-05-01T11:03:21.221Z</time></trkpt><trkpt lat="43.9240434" lon="11.9554637"><ele>682.0</ele><time>2026-05-01T11:03:22.236Z</time></trkpt><trkpt lat="43.9241832" lon="11.9554388"><ele>682.0</ele><time>2026-05-01T11:03:23.225Z</time></trkpt><trkpt lat="43.9243134" lon="11.9553735"><ele>682.0</ele><time>2026-05-01T11:03:24.235Z</time></trkpt><trkpt lat="43.9244523" lon="11.9553076"><ele>682.0</ele><time>2026-05-01T11:03:25.229Z</time></trkpt><trkpt lat="43.9245842" lon="11.9552377"><ele>683.0</ele><time>2026-05-01T11:03:26.226Z</time></trkpt><trkpt lat="43.9247147" lon="11.9551637"><ele>684.0</ele><time>2026-05-01T11:03:27.226Z</time></trkpt><trkpt lat="43.9248342" lon="11.9550932"><ele>685.0</ele><time>2026-05-01T11:03:28.224Z</time></trkpt><trkpt lat="43.9249443" lon="11.9550442"><ele>686.0</ele><time>2026-05-01T11:03:29.221Z</time></trkpt><trkpt lat="43.9250698" lon="11.9550216"><ele>686.0</ele><time>2026-05-01T11:03:30.224Z</time></trkpt><trkpt lat="43.925196" lon="11.9550213"><ele>686.0</ele><time>2026-05-01T11:03:31.224Z</time></trkpt><trkpt lat="43.9252579" lon="11.9551334"><ele>686.0</ele><time>2026-05-01T11:03:32.236Z</time></trkpt><trkpt lat="43.9253192" lon="11.9552968"><ele>686.0</ele><time>2026-05-01T11:03:33.223Z</time></trkpt><trkpt lat="43.9254117" lon="11.9554172"><ele>689.0</ele><time>2026-05-01T11:03:34.236Z</time></trkpt><trkpt lat="43.9255149" lon="11.9555568"><ele>692.0</ele><time>2026-05-01T11:03:35.234Z</time></trkpt><trkpt lat="43.9256103" lon="11.9556659"><ele>695.0</ele><time>2026-05-01T11:03:36.229Z</time></trkpt><trkpt lat="43.9257559" lon="11.9557406"><ele>698.0</ele><time>2026-05-01T11:03:37.225Z</time></trkpt><trkpt lat="43.9258949" lon="11.9558037"><ele>705.2</ele><time>2026-05-01T11:03:38.237Z</time></trkpt><trkpt lat="43.9260212" lon="11.9558819"><ele>712.4</ele><time>2026-05-01T11:03:39.236Z</time></trkpt><trkpt lat="43.9260833" lon="11.9559472"><ele>719.6</ele><time>2026-05-01T11:03:40.225Z</time></trkpt><trkpt lat="43.9261395" lon="11.9560263"><ele>726.8000000000001</ele><time>2026-05-01T11:03:41.238Z</time></trkpt><trkpt lat="43.9262063" lon="11.956123"><ele>734.0</ele><time>2026-05-01T11:03:42.228Z</time></trkpt><trkpt lat="43.9261798" lon="11.9562404"><ele>734.0</ele><time>2026-05-01T11:03:43.228Z</time></trkpt><trkpt lat="43.9261174" lon="11.9563585"><ele>734.0</ele><time>2026-05-01T11:03:44.227Z</time></trkpt><trkpt lat="43.926075" lon="11.9564507"><ele>734.0</ele><time>2026-05-01T11:03:45.236Z</time></trkpt><trkpt lat="43.9259163" lon="11.9564623"><ele>734.0</ele><time>2026-05-01T11:03:46.226Z</time></trkpt><trkpt lat="43.9257073" lon="11.9563853"><ele>730.5</ele><time>2026-05-01T11:03:47.235Z</time></trkpt><trkpt lat="43.9255567" lon="11.9563831"><ele>727.0</ele><time>2026-05-01T11:03:48.221Z</time></trkpt><trkpt lat="43.9254317" lon="11.9564567"><ele>723.5</ele><time>2026-05-01T11:03:49.223Z</time></trkpt><trkpt lat="43.9253242" lon="11.9565609"><ele>720.0</ele><time>2026-05-01T11:03:50.226Z</time></trkpt><trkpt lat="43.9252133" lon="11.9566682"><ele>723.0</ele><time>2026-05-01T11:03:51.233Z</time></trkpt><trkpt lat="43.9251183" lon="11.956801"><ele>726.0</ele><time>2026-05-01T11:03:52.224Z</time></trkpt><trkpt lat="43.9250287" lon="11.9571032"><ele>729.0</ele><time>2026-05-01T11:03:53.236Z</time></trkpt><trkpt lat="43.9249248" lon="11.9573699"><ele>735.5</ele><time>2026-05-01T11:03:54.233Z</time></trkpt><trkpt lat="43.924829" lon="11.9576754"><ele>742.0</ele><time>2026-05-01T11:03:55.237Z</time></trkpt><trkpt lat="43.9247289" lon="11.9579567"><ele>742.0</ele><time>2026-05-01T11:03:56.236Z</time></trkpt><trkpt lat="43.9246428" lon="11.9582277"><ele>742.0</ele><time>2026-05-01T11:03:57.235Z</time></trkpt><trkpt lat="43.9245593" lon="11.9584791"><ele>742.0</ele><time>2026-05-01T11:03:58.234Z</time></trkpt><trkpt lat="43.924476" lon="11.9587031"><ele>741.3333333333334</ele><time>2026-05-01T11:03:59.231Z</time></trkpt><trkpt lat="43.9244101" lon="11.958924"><ele>740.6666666666666</ele><time>2026-05-01T11:04:00.234Z</time></trkpt><trkpt lat="43.924343" lon="11.9591281"><ele>740.0</ele><time>2026-05-01T11:04:01.237Z</time></trkpt><trkpt lat="43.924269" lon="11.9593163"><ele>736.6666666666666</ele><time>2026-05-01T11:04:02.234Z</time></trkpt><trkpt lat="43.9241911" lon="11.9594944"><ele>733.3333333333334</ele><time>2026-05-01T11:04:03.236Z</time></trkpt><trkpt lat="43.924103" lon="11.9596603"><ele>730.0</ele><time>2026-05-01T11:04:04.231Z</time></trkpt><trkpt lat="43.9240051" lon="11.9598352"><ele>730.0</ele><time>2026-05-01T11:04:05.235Z</time></trkpt><trkpt lat="43.9239015" lon="11.9599966"><ele>730.0</ele><time>2026-05-01T11:04:06.227Z</time></trkpt><trkpt lat="43.923787" lon="11.9601547"><ele>730.0</ele><time>2026-05-01T11:04:07.225Z</time></trkpt><trkpt lat="43.9236708" lon="11.9603047"><ele>728.0</ele><time>2026-05-01T11:04:08.236Z</time></trkpt><trkpt lat="43.9235344" lon="11.960431"><ele>726.0</ele><time>2026-05-01T11:04:09.226Z</time></trkpt><trkpt lat="43.9234025" lon="11.9605607"><ele>724.0</ele><time>2026-05-01T11:04:10.237Z</time></trkpt><trkpt lat="43.9232758" lon="11.960704"><ele>724.0</ele><time>2026-05-01T11:04:11.227Z</time></trkpt><trkpt lat="43.9231519" lon="11.9608382"><ele>724.0</ele><time>2026-05-01T11:04:12.236Z</time></trkpt><trkpt lat="43.9230162" lon="11.9609628"><ele>724.0</ele><time>2026-05-01T11:04:13.237Z</time></trkpt><trkpt lat="43.9228765" lon="11.9610858"><ele>722.0</ele><time>2026-05-01T11:04:14.226Z</time></trkpt><trkpt lat="43.9227267" lon="11.9611961"><ele>720.0</ele><time>2026-05-01T11:04:15.226Z</time></trkpt><trkpt lat="43.9225822" lon="11.9613278"><ele>718.0</ele><time>2026-05-01T11:04:16.221Z</time></trkpt><trkpt lat="43.9224387" lon="11.9614594"><ele>718.0</ele><time>2026-05-01T11:04:17.23Z</time></trkpt><trkpt lat="43.9222921" lon="11.9615914"><ele>718.0</ele><time>2026-05-01T11:04:18.235Z</time></trkpt><trkpt lat="43.9221421" lon="11.9616951"><ele>718.0</ele><time>2026-05-01T11:04:19.238Z</time></trkpt><trkpt lat="43.9220002" lon="11.9618153"><ele>714.3333333333334</ele><time>2026-05-01T11:04:20.225Z</time></trkpt><trkpt lat="43.921866" lon="11.9619364"><ele>710.6666666666666</ele><time>2026-05-01T11:04:21.221Z</time></trkpt><trkpt lat="43.9217282" lon="11.9620633"><ele>707.0</ele><time>2026-05-01T11:04:22.237Z</time></trkpt><trkpt lat="43.9215691" lon="11.9621779"><ele>707.0</ele><time>2026-05-01T11:04:23.232Z</time></trkpt><trkpt lat="43.9214463" lon="11.9623336"><ele>707.0</ele><time>2026-05-01T11:04:24.223Z</time></trkpt><trkpt lat="43.9213525" lon="11.9625045"><ele>707.0</ele><time>2026-05-01T11:04:25.238Z</time></trkpt><trkpt lat="43.9212622" lon="11.9626576"><ele>709.6666666666666</ele><time>2026-05-01T11:04:26.228Z</time></trkpt><trkpt lat="43.9211485" lon="11.9628216"><ele>712.3333333333334</ele><time>2026-05-01T11:04:27.237Z</time></trkpt><trkpt lat="43.9210397" lon="11.962989"><ele>715.0</ele><time>2026-05-01T11:04:28.23Z</time></trkpt><trkpt lat="43.920896" lon="11.9631234"><ele>711.0</ele><time>2026-05-01T11:04:29.233Z</time></trkpt><trkpt lat="43.920787" lon="11.9632732"><ele>707.0</ele><time>2026-05-01T11:04:30.222Z</time></trkpt><trkpt lat="43.9206926" lon="11.9634099"><ele>703.0</ele><time>2026-05-01T11:04:31.236Z</time></trkpt><trkpt lat="43.9206193" lon="11.9635644"><ele>699.0</ele><time>2026-05-01T11:04:32.225Z</time></trkpt><trkpt lat="43.9205636" lon="11.9637357"><ele>699.0</ele><time>2026-05-01T11:04:33.236Z</time></trkpt><trkpt lat="43.9204867" lon="11.9638716"><ele>699.0</ele><time>2026-05-01T11:04:34.236Z</time></trkpt><trkpt lat="43.9204071" lon="11.9640023"><ele>699.0</ele><time>2026-05-01T11:04:35.237Z</time></trkpt><trkpt lat="43.920331" lon="11.9641241"><ele>699.0</ele><time>2026-05-01T11:04:36.242Z</time></trkpt><trkpt lat="43.920219" lon="11.9642987"><ele>698.3333333333334</ele><time>2026-05-01T11:04:37.223Z</time></trkpt><trkpt lat="43.920111" lon="11.9644603"><ele>697.6666666666667</ele><time>2026-05-01T11:04:38.227Z</time></trkpt><trkpt lat="43.920023" lon="11.9646314"><ele>697.0</ele><time>2026-05-01T11:04:39.226Z</time></trkpt><trkpt lat="43.9199411" lon="11.9648316"><ele>698.0</ele><time>2026-05-01T11:04:40.236Z</time></trkpt><trkpt lat="43.9199441" lon="11.9651322"><ele>699.0</ele><time>2026-05-01T11:04:41.225Z</time></trkpt><trkpt lat="43.9199054" lon="11.9654006"><ele>700.0</ele><time>2026-05-01T11:04:42.228Z</time></trkpt><trkpt lat="43.9198809" lon="11.9657008"><ele>703.6666666666667</ele><time>2026-05-01T11:04:43.236Z</time></trkpt><trkpt lat="43.9198556" lon="11.9659412"><ele>707.3333333333334</ele><time>2026-05-01T11:04:44.237Z</time></trkpt><trkpt lat="43.9197856" lon="11.9661662"><ele>711.0</ele><time>2026-05-01T11:04:45.224Z</time></trkpt><trkpt lat="43.9196902" lon="11.9663744"><ele>711.0</ele><time>2026-05-01T11:04:46.247Z</time></trkpt><trkpt lat="43.9196261" lon="11.9665962"><ele>711.0</ele><time>2026-05-01T11:04:47.236Z</time></trkpt><trkpt lat="43.9195472" lon="11.9668056"><ele>711.0</ele><time>2026-05-01T11:04:48.226Z</time></trkpt><trkpt lat="43.9194832" lon="11.9670169"><ele>714.0</ele><time>2026-05-01T11:04:49.236Z</time></trkpt><trkpt lat="43.9193924" lon="11.967202"><ele>717.0</ele><time>2026-05-01T11:04:50.236Z</time></trkpt><trkpt lat="43.9192959" lon="11.9673667"><ele>720.0</ele><time>2026-05-01T11:04:51.221Z</time></trkpt><trkpt lat="43.9191872" lon="11.9675121"><ele>715.0</ele><time>2026-05-01T11:04:52.231Z</time></trkpt><trkpt lat="43.9190717" lon="11.9676768"><ele>710.0</ele><time>2026-05-01T11:04:53.223Z</time></trkpt><trkpt lat="43.9189678" lon="11.9678286"><ele>705.0</ele><time>2026-05-01T11:04:54.222Z</time></trkpt><trkpt lat="43.9189979" lon="11.9679733"><ele>700.0</ele><time>2026-05-01T11:04:55.224Z</time></trkpt><trkpt lat="43.9189989" lon="11.968176"><ele>698.5</ele><time>2026-05-01T11:04:56.224Z</time></trkpt><trkpt lat="43.9190047" lon="11.968372"><ele>697.0</ele><time>2026-05-01T11:04:57.223Z</time></trkpt><trkpt lat="43.9190442" lon="11.9685576"><ele>695.5</ele><time>2026-05-01T11:04:58.233Z</time></trkpt><trkpt lat="43.9191249" lon="11.9686881"><ele>694.0</ele><time>2026-05-01T11:04:59.227Z</time></trkpt><trkpt lat="43.9192261" lon="11.9688464"><ele>699.6666666666667</ele><time>2026-05-01T11:05:00.224Z</time></trkpt><trkpt lat="43.9193544" lon="11.9689668"><ele>705.3333333333334</ele><time>2026-05-01T11:05:01.236Z</time></trkpt><trkpt lat="43.9194953" lon="11.9691077"><ele>711.0</ele><time>2026-05-01T11:05:02.226Z</time></trkpt><trkpt lat="43.9196492" lon="11.9692778"><ele>711.0</ele><time>2026-05-01T11:05:03.23Z</time></trkpt><trkpt lat="43.91978" lon="11.9694931"><ele>711.0</ele><time>2026-05-01T11:05:04.238Z</time></trkpt><trkpt lat="43.9198986" lon="11.9696909"><ele>711.0</ele><time>2026-05-01T11:05:05.233Z</time></trkpt><trkpt lat="43.9200187" lon="11.9698898"><ele>715.0</ele><time>2026-05-01T11:05:06.236Z</time></trkpt><trkpt lat="43.920136" lon="11.9700721"><ele>719.0</ele><time>2026-05-01T11:05:07.224Z</time></trkpt><trkpt lat="43.920244" lon="11.9702784"><ele>723.0</ele><time>2026-05-01T11:05:08.236Z</time></trkpt><trkpt lat="43.9203308" lon="11.9704225"><ele>723.0</ele><time>2026-05-01T11:05:09.227Z</time></trkpt><trkpt lat="43.9204295" lon="11.9705768"><ele>723.0</ele><time>2026-05-01T11:05:10.234Z</time></trkpt><trkpt lat="43.9205058" lon="11.9707286"><ele>723.0</ele><time>2026-05-01T11:05:11.236Z</time></trkpt><trkpt lat="43.9205766" lon="11.9709323"><ele>723.0</ele><time>2026-05-01T11:05:12.235Z</time></trkpt><trkpt lat="43.9205931" lon="11.9711286"><ele>725.3333333333334</ele><time>2026-05-01T11:05:13.227Z</time></trkpt><trkpt lat="43.9206085" lon="11.9713327"><ele>727.6666666666667</ele><time>2026-05-01T11:05:14.232Z</time></trkpt><trkpt lat="43.9205605" lon="11.9716481"><ele>730.0</ele><time>2026-05-01T11:05:15.224Z</time></trkpt><trkpt lat="43.9205492" lon="11.971925"><ele>732.6666666666667</ele><time>2026-05-01T11:05:16.226Z</time></trkpt><trkpt lat="43.9205001" lon="11.9721503"><ele>735.3333333333334</ele><time>2026-05-01T11:05:17.225Z</time></trkpt><trkpt lat="43.920493" lon="11.9724124"><ele>738.0</ele><time>2026-05-01T11:05:18.222Z</time></trkpt><trkpt lat="43.920469" lon="11.9726938"><ele>740.3333333333334</ele><time>2026-05-01T11:05:19.228Z</time></trkpt><trkpt lat="43.920446" lon="11.9729383"><ele>742.6666666666667</ele><time>2026-05-01T11:05:20.237Z</time></trkpt><trkpt lat="43.9204191" lon="11.9731533"><ele>745.0</ele><time>2026-05-01T11:05:21.223Z</time></trkpt><trkpt lat="43.9204116" lon="11.973395"><ele>746.6666666666667</ele><time>2026-05-01T11:05:22.228Z</time></trkpt><trkpt lat="43.9203998" lon="11.9736146"><ele>748.3333333333334</ele><time>2026-05-01T11:05:23.235Z</time></trkpt><trkpt lat="43.9204142" lon="11.9738365"><ele>750.0</ele><time>2026-05-01T11:05:24.224Z</time></trkpt><trkpt lat="43.9204404" lon="11.9740403"><ele>750.0</ele><time>2026-05-01T11:05:25.226Z</time></trkpt><trkpt lat="43.9204914" lon="11.9742401"><ele>750.0</ele><time>2026-05-01T11:05:26.236Z</time></trkpt><trkpt lat="43.9205528" lon="11.9744414"><ele>750.0</ele><time>2026-05-01T11:05:27.227Z</time></trkpt><trkpt lat="43.9205616" lon="11.9746537"><ele>750.0</ele><time>2026-05-01T11:05:28.228Z</time></trkpt><trkpt lat="43.9205543" lon="11.9748683"><ele>750.0</ele><time>2026-05-01T11:05:29.236Z</time></trkpt><trkpt lat="43.9205263" lon="11.9750954"><ele>750.0</ele><time>2026-05-01T11:05:30.224Z</time></trkpt><trkpt lat="43.9204953" lon="11.9753539"><ele>751.6666666666666</ele><time>2026-05-01T11:05:31.229Z</time></trkpt><trkpt lat="43.9204744" lon="11.9755902"><ele>753.3333333333333</ele><time>2026-05-01T11:05:32.226Z</time></trkpt><trkpt lat="43.9204728" lon="11.9758115"><ele>755.0</ele><time>2026-05-01T11:05:33.223Z</time></trkpt><trkpt lat="43.9204812" lon="11.9759909"><ele>757.6666666666666</ele><time>2026-05-01T11:05:34.224Z</time></trkpt><trkpt lat="43.9204954" lon="11.9762011"><ele>760.3333333333334</ele><time>2026-05-01T11:05:35.226Z</time></trkpt><trkpt lat="43.9205529" lon="11.9763953"><ele>763.0</ele><time>2026-05-01T11:05:36.226Z</time></trkpt><trkpt lat="43.9206231" lon="11.9766018"><ele>763.6666666666667</ele><time>2026-05-01T11:05:37.239Z</time></trkpt><trkpt lat="43.9207049" lon="11.97684"><ele>764.3333333333334</ele><time>2026-05-01T11:05:38.223Z</time></trkpt><trkpt lat="43.9208313" lon="11.9771038"><ele>765.0</ele><time>2026-05-01T11:05:39.235Z</time></trkpt><trkpt lat="43.9209367" lon="11.9773436"><ele>769.3333333333333</ele><time>2026-05-01T11:05:40.224Z</time></trkpt><trkpt lat="43.9210336" lon="11.9775848"><ele>773.6666666666666</ele><time>2026-05-01T11:05:41.235Z</time></trkpt><trkpt lat="43.9211473" lon="11.9778276"><ele>778.0</ele><time>2026-05-01T11:05:42.22Z</time></trkpt><trkpt lat="43.9212467" lon="11.9780898"><ele>778.0</ele><time>2026-05-01T11:05:43.222Z</time></trkpt><trkpt lat="43.921335" lon="11.9783302"><ele>778.0</ele><time>2026-05-01T11:05:44.235Z</time></trkpt><trkpt lat="43.9214368" lon="11.9785573"><ele>778.0</ele><time>2026-05-01T11:05:45.228Z</time></trkpt><trkpt lat="43.9215233" lon="11.9787478"><ele>779.3333333333333</ele><time>2026-05-01T11:05:46.232Z</time></trkpt><trkpt lat="43.9216014" lon="11.978943"><ele>780.6666666666667</ele><time>2026-05-01T11:05:47.235Z</time></trkpt><trkpt lat="43.9216686" lon="11.9791356"><ele>782.0</ele><time>2026-05-01T11:05:48.222Z</time></trkpt><trkpt lat="43.9217429" lon="11.9793137"><ele>785.5</ele><time>2026-05-01T11:05:49.233Z</time></trkpt><trkpt lat="43.9218183" lon="11.9795009"><ele>789.0</ele><time>2026-05-01T11:05:50.222Z</time></trkpt><trkpt lat="43.9218815" lon="11.9796813"><ele>792.5</ele><time>2026-05-01T11:05:51.227Z</time></trkpt><trkpt lat="43.9219506" lon="11.9798328"><ele>796.0</ele><time>2026-05-01T11:05:52.235Z</time></trkpt><trkpt lat="43.9220241" lon="11.9799907"><ele>798.75</ele><time>2026-05-01T11:05:53.236Z</time></trkpt><trkpt lat="43.9221401" lon="11.980092"><ele>801.5</ele><time>2026-05-01T11:05:54.232Z</time></trkpt><trkpt lat="43.9222587" lon="11.9801824"><ele>804.25</ele><time>2026-05-01T11:05:55.237Z</time></trkpt><trkpt lat="43.9223685" lon="11.9802254"><ele>807.0</ele><time>2026-05-01T11:05:56.235Z</time></trkpt><trkpt lat="43.9225035" lon="11.9802493"><ele>807.75</ele><time>2026-05-01T11:05:57.232Z</time></trkpt><trkpt lat="43.9226246" lon="11.9802663"><ele>808.5</ele><time>2026-05-01T11:05:58.235Z</time></trkpt><trkpt lat="43.9227577" lon="11.9802728"><ele>809.25</ele><time>2026-05-01T11:05:59.225Z</time></trkpt><trkpt lat="43.9228463" lon="11.9802986"><ele>810.0</ele><time>2026-05-01T11:06:00.229Z</time></trkpt><trkpt lat="43.9228934" lon="11.9804889"><ele>810.0</ele><time>2026-05-01T11:06:02.222Z</time></trkpt><trkpt lat="43.9226364" lon="11.9807661"><ele>810.0</ele><time>2026-05-01T11:06:04.223Z</time></trkpt><trkpt lat="43.9225" lon="11.9809198"><ele>812.6666666666667</ele><time>2026-05-01T11:06:05.229Z</time></trkpt><trkpt lat="43.9223606" lon="11.9810365"><ele>815.3333333333334</ele><time>2026-05-01T11:06:06.234Z</time></trkpt><trkpt lat="43.9222012" lon="11.9811424"><ele>818.0</ele><time>2026-05-01T11:06:07.236Z</time></trkpt><trkpt lat="43.9220686" lon="11.9812299"><ele>818.0</ele><time>2026-05-01T11:06:08.222Z</time></trkpt><trkpt lat="43.9219881" lon="11.981345"><ele>818.0</ele><time>2026-05-01T11:06:09.238Z</time></trkpt><trkpt lat="43.9219132" lon="11.9814589"><ele>818.0</ele><time>2026-05-01T11:06:10.235Z</time></trkpt><trkpt lat="43.9218652" lon="11.9815922"><ele>818.0</ele><time>2026-05-01T11:06:11.223Z</time></trkpt><trkpt lat="43.921873" lon="11.9817815"><ele>816.5</ele><time>2026-05-01T11:06:12.223Z</time></trkpt><trkpt lat="43.9218918" lon="11.981952"><ele>815.0</ele><time>2026-05-01T11:06:13.237Z</time></trkpt><trkpt lat="43.921905" lon="11.982122"><ele>813.5</ele><time>2026-05-01T11:06:14.237Z</time></trkpt><trkpt lat="43.9219156" lon="11.9823017"><ele>812.0</ele><time>2026-05-01T11:06:15.222Z</time></trkpt><trkpt lat="43.9219535" lon="11.9824001"><ele>812.0000000000001</ele><time>2026-05-01T11:06:16.235Z</time></trkpt><trkpt lat="43.9220364" lon="11.9824728"><ele>812.0</ele><time>2026-05-01T11:06:17.222Z</time></trkpt><trkpt lat="43.922109" lon="11.9825133"><ele>812.0</ele><time>2026-05-01T11:06:18.226Z</time></trkpt><trkpt lat="43.92218" lon="11.9825528"><ele>812.0</ele><time>2026-05-01T11:06:19.234Z</time></trkpt><trkpt lat="43.9222884" lon="11.9824963"><ele>812.0000000000001</ele><time>2026-05-01T11:06:21.236Z</time></trkpt><trkpt lat="43.9223419" lon="11.9824467"><ele>812.0</ele><time>2026-05-01T11:06:22.235Z</time></trkpt><trkpt lat="43.9223542" lon="11.9822998"><ele>812.0</ele><time>2026-05-01T11:06:23.239Z</time></trkpt><trkpt lat="43.9223857" lon="11.9821326"><ele>812.0</ele><time>2026-05-01T11:06:25.233Z</time></trkpt><trkpt lat="43.9224027" lon="11.982041"><ele>812.0</ele><time>2026-05-01T11:06:26.235Z</time></trkpt><trkpt lat="43.9224142" lon="11.9818763"><ele>812.0</ele><time>2026-05-01T11:06:28.233Z</time></trkpt><trkpt lat="43.9224336" lon="11.9817727"><ele>812.0</ele><time>2026-05-01T11:06:29.236Z</time></trkpt><trkpt lat="43.9225007" lon="11.9816106"><ele>813.2</ele><time>2026-05-01T11:06:31.225Z</time></trkpt><trkpt lat="43.9225482" lon="11.9815264"><ele>814.4000000000001</ele><time>2026-05-01T11:06:32.222Z</time></trkpt><trkpt lat="43.9226556" lon="11.9814693"><ele>815.5999999999999</ele><time>2026-05-01T11:06:33.236Z</time></trkpt><trkpt lat="43.922741" lon="11.9814298"><ele>816.8</ele><time>2026-05-01T11:06:34.235Z</time></trkpt><trkpt lat="43.922822" lon="11.9813981"><ele>818.0</ele><time>2026-05-01T11:06:35.236Z</time></trkpt><trkpt lat="43.9229116" lon="11.9813543"><ele>818.0</ele><time>2026-05-01T11:06:36.237Z</time></trkpt><trkpt lat="43.9230336" lon="11.9812807"><ele>818.0</ele><time>2026-05-01T11:06:37.232Z</time></trkpt><trkpt lat="43.9231307" lon="11.9812279"><ele>818.0</ele><time>2026-05-01T11:06:38.238Z</time></trkpt><trkpt lat="43.923222" lon="11.9812079"><ele>818.0</ele><time>2026-05-01T11:06:39.235Z</time></trkpt><trkpt lat="43.9233341" lon="11.9812233"><ele>818.0</ele><time>2026-05-01T11:06:41.225Z</time></trkpt><trkpt lat="43.9234862" lon="11.9813494"><ele>818.0000000000001</ele><time>2026-05-01T11:06:43.229Z</time></trkpt><trkpt lat="43.9235785" lon="11.9814101"><ele>818.0</ele><time>2026-05-01T11:06:44.237Z</time></trkpt><trkpt lat="43.9236555" lon="11.981463"><ele>818.0</ele><time>2026-05-01T11:06:45.235Z</time></trkpt><trkpt lat="43.9237288" lon="11.9815084"><ele>818.0</ele><time>2026-05-01T11:06:46.23Z</time></trkpt><trkpt lat="43.9238021" lon="11.9815741"><ele>818.0000000000001</ele><time>2026-05-01T11:06:47.225Z</time></trkpt><trkpt lat="43.9238763" lon="11.9816188"><ele>818.0</ele><time>2026-05-01T11:06:48.237Z</time></trkpt><trkpt lat="43.9239588" lon="11.9816807"><ele>818.0</ele><time>2026-05-01T11:06:49.235Z</time></trkpt><trkpt lat="43.9240436" lon="11.981733"><ele>818.0</ele><time>2026-05-01T11:06:50.223Z</time></trkpt><trkpt lat="43.9241532" lon="11.9817822"><ele>818.0</ele><time>2026-05-01T11:06:51.235Z</time></trkpt><trkpt lat="43.9242483" lon="11.9818428"><ele>818.0</ele><time>2026-05-01T11:06:52.236Z</time></trkpt><trkpt lat="43.9243684" lon="11.9818841"><ele>818.0</ele><time>2026-05-01T11:06:53.235Z</time></trkpt><trkpt lat="43.9244987" lon="11.9819087"><ele>820.75</ele><time>2026-05-01T11:06:54.242Z</time></trkpt><trkpt lat="43.9246209" lon="11.9819523"><ele>823.5</ele><time>2026-05-01T11:06:55.236Z</time></trkpt><trkpt lat="43.9247438" lon="11.9820025"><ele>826.25</ele><time>2026-05-01T11:06:56.222Z</time></trkpt><trkpt lat="43.9248547" lon="11.9820216"><ele>829.0</ele><time>2026-05-01T11:06:57.225Z</time></trkpt><trkpt lat="43.9250048" lon="11.9819747"><ele>834.3333333333333</ele><time>2026-05-01T11:06:58.235Z</time></trkpt><trkpt lat="43.9251825" lon="11.9819277"><ele>839.6666666666667</ele><time>2026-05-01T11:07:00.231Z</time></trkpt><trkpt lat="43.9253366" lon="11.9817073"><ele>845.0</ele><time>2026-05-01T11:07:01.222Z</time></trkpt><trkpt lat="43.9254548" lon="11.9815966"><ele>845.0</ele><time>2026-05-01T11:07:02.235Z</time></trkpt><trkpt lat="43.9256075" lon="11.981453"><ele>845.0</ele><time>2026-05-01T11:07:03.228Z</time></trkpt><trkpt lat="43.925789" lon="11.9813218"><ele>845.0</ele><time>2026-05-01T11:07:04.223Z</time></trkpt><trkpt lat="43.9258886" lon="11.9812385"><ele>846.8</ele><time>2026-05-01T11:07:05.222Z</time></trkpt><trkpt lat="43.9260088" lon="11.9811765"><ele>848.6</ele><time>2026-05-01T11:07:06.222Z</time></trkpt><trkpt lat="43.9260838" lon="11.9812051"><ele>850.4000000000001</ele><time>2026-05-01T11:07:07.227Z</time></trkpt><trkpt lat="43.9262049" lon="11.9811951"><ele>852.2</ele><time>2026-05-01T11:07:08.225Z</time></trkpt><trkpt lat="43.9263047" lon="11.9811905"><ele>854.0</ele><time>2026-05-01T11:07:09.237Z</time></trkpt><trkpt lat="43.9263953" lon="11.9811989"><ele>854.0</ele><time>2026-05-01T11:07:10.225Z</time></trkpt><trkpt lat="43.9264839" lon="11.9812043"><ele>854.0000000000001</ele><time>2026-05-01T11:07:11.232Z</time></trkpt><trkpt lat="43.9265627" lon="11.981118"><ele>854.0000000000001</ele><time>2026-05-01T11:07:12.235Z</time></trkpt><trkpt lat="43.9266253" lon="11.9810262"><ele>854.0</ele><time>2026-05-01T11:07:13.23Z</time></trkpt><trkpt lat="43.9266627" lon="11.9808848"><ele>854.0</ele><time>2026-05-01T11:07:14.232Z</time></trkpt><trkpt lat="43.9267098" lon="11.9807449"><ele>858.0</ele><time>2026-05-01T11:07:15.237Z</time></trkpt><trkpt lat="43.9267392" lon="11.9805222"><ele>862.0</ele><time>2026-05-01T11:07:16.222Z</time></trkpt><trkpt lat="43.9267626" lon="11.9803412"><ele>866.0</ele><time>2026-05-01T11:07:17.235Z</time></trkpt><trkpt lat="43.9267925" lon="11.9801451"><ele>870.0</ele><time>2026-05-01T11:07:18.226Z</time></trkpt><trkpt lat="43.9268291" lon="11.979974"><ele>870.0</ele><time>2026-05-01T11:07:19.229Z</time></trkpt><trkpt lat="43.9268945" lon="11.9798467"><ele>870.0</ele><time>2026-05-01T11:07:20.236Z</time></trkpt><trkpt lat="43.926977" lon="11.9797475"><ele>870.0</ele><time>2026-05-01T11:07:21.237Z</time></trkpt><trkpt lat="43.9270905" lon="11.9796145"><ele>870.0</ele><time>2026-05-01T11:07:22.224Z</time></trkpt><trkpt lat="43.927262" lon="11.9793969"><ele>870.0</ele><time>2026-05-01T11:07:23.223Z</time></trkpt><trkpt lat="43.9273774" lon="11.9792914"><ele>870.0</ele><time>2026-05-01T11:07:24.225Z</time></trkpt><trkpt lat="43.9275362" lon="11.9791464"><ele>870.0</ele><time>2026-05-01T11:07:25.233Z</time></trkpt><trkpt lat="43.9276995" lon="11.9791024"><ele>870.5</ele><time>2026-05-01T11:07:26.223Z</time></trkpt><trkpt lat="43.9278377" lon="11.9790218"><ele>871.0</ele><time>2026-05-01T11:07:27.232Z</time></trkpt><trkpt lat="43.9279711" lon="11.9789611"><ele>871.5</ele><time>2026-05-01T11:07:28.235Z</time></trkpt><trkpt lat="43.9280535" lon="11.9789012"><ele>872.0</ele><time>2026-05-01T11:07:29.224Z</time></trkpt><trkpt lat="43.9281573" lon="11.9788163"><ele>872.0</ele><time>2026-05-01T11:07:30.235Z</time></trkpt><trkpt lat="43.9282547" lon="11.9787416"><ele>872.0</ele><time>2026-05-01T11:07:31.227Z</time></trkpt><trkpt lat="43.9283826" lon="11.9786642"><ele>872.0</ele><time>2026-05-01T11:07:32.239Z</time></trkpt><trkpt lat="43.928485" lon="11.97857"><ele>872.0</ele><time>2026-05-01T11:07:33.222Z</time></trkpt><trkpt lat="43.928599" lon="11.9784888"><ele>873.2</ele><time>2026-05-01T11:07:34.229Z</time></trkpt><trkpt lat="43.9286913" lon="11.9784394"><ele>874.4000000000001</ele><time>2026-05-01T11:07:35.225Z</time></trkpt><trkpt lat="43.9287809" lon="11.9784029"><ele>875.5999999999999</ele><time>2026-05-01T11:07:36.235Z</time></trkpt><trkpt lat="43.9288695" lon="11.9783582"><ele>876.8</ele><time>2026-05-01T11:07:37.223Z</time></trkpt><trkpt lat="43.9289781" lon="11.9783147"><ele>878.0</ele><time>2026-05-01T11:07:39.235Z</time></trkpt><trkpt lat="43.9290275" lon="11.9782565"><ele>878.0000000000001</ele><time>2026-05-01T11:07:40.221Z</time></trkpt><trkpt lat="43.929093" lon="11.9782203"><ele>878.0</ele><time>2026-05-01T11:07:42.234Z</time></trkpt><trkpt lat="43.9291593" lon="11.9782039"><ele>878.0</ele><time>2026-05-01T11:09:23.229Z</time></trkpt><trkpt lat="43.929206" lon="11.9781391"><ele>878.0</ele><time>2026-05-01T11:09:24.232Z</time></trkpt><trkpt lat="43.9292721" lon="11.9780538"><ele>878.0000000000001</ele><time>2026-05-01T11:09:25.234Z</time></trkpt><trkpt lat="43.929346" lon="11.9779772"><ele>878.0</ele><time>2026-05-01T11:09:26.231Z</time></trkpt><trkpt lat="43.9294351" lon="11.9779027"><ele>874.0</ele><time>2026-05-01T11:09:27.231Z</time></trkpt><trkpt lat="43.9295571" lon="11.9777981"><ele>870.0</ele><time>2026-05-01T11:09:28.222Z</time></trkpt><trkpt lat="43.9296687" lon="11.9777256"><ele>866.0</ele><time>2026-05-01T11:09:29.231Z</time></trkpt><trkpt lat="43.9297753" lon="11.9776614"><ele>862.0</ele><time>2026-05-01T11:09:30.236Z</time></trkpt><trkpt lat="43.9298882" lon="11.9775791"><ele>862.0</ele><time>2026-05-01T11:09:31.226Z</time></trkpt><trkpt lat="43.9300059" lon="11.9775286"><ele>862.0</ele><time>2026-05-01T11:09:32.224Z</time></trkpt><trkpt lat="43.9301211" lon="11.977465"><ele>862.0</ele><time>2026-05-01T11:09:33.226Z</time></trkpt><trkpt lat="43.9302229" lon="11.9774182"><ele>862.0</ele><time>2026-05-01T11:09:34.227Z</time></trkpt><trkpt lat="43.9303413" lon="11.9773748"><ele>864.0</ele><time>2026-05-01T11:09:35.227Z</time></trkpt><trkpt lat="43.9304416" lon="11.9773428"><ele>866.0</ele><time>2026-05-01T11:09:36.224Z</time></trkpt><trkpt lat="43.930543" lon="11.9773169"><ele>868.0</ele><time>2026-05-01T11:09:37.229Z</time></trkpt><trkpt lat="43.9306291" lon="11.9773105"><ele>870.0</ele><time>2026-05-01T11:09:38.223Z</time></trkpt><trkpt lat="43.930733" lon="11.9773204"><ele>872.0</ele><time>2026-05-01T11:09:39.226Z</time></trkpt><trkpt lat="43.9308619" lon="11.9772797"><ele>869.6666666666667</ele><time>2026-05-01T11:09:40.236Z</time></trkpt><trkpt lat="43.9309715" lon="11.9772295"><ele>867.3333333333333</ele><time>2026-05-01T11:09:41.226Z</time></trkpt><trkpt lat="43.9310813" lon="11.9771322"><ele>865.0</ele><time>2026-05-01T11:09:42.237Z</time></trkpt><trkpt lat="43.9312342" lon="11.9769013"><ele>865.0</ele><time>2026-05-01T11:09:43.225Z</time></trkpt><trkpt lat="43.931331" lon="11.9768376"><ele>865.0</ele><time>2026-05-01T11:09:44.226Z</time></trkpt><trkpt lat="43.9314352" lon="11.97675"><ele>865.0</ele><time>2026-05-01T11:09:45.237Z</time></trkpt><trkpt lat="43.9315388" lon="11.9766709"><ele>865.0</ele><time>2026-05-01T11:09:46.221Z</time></trkpt><trkpt lat="43.931642" lon="11.9765757"><ele>870.5</ele><time>2026-05-01T11:09:47.231Z</time></trkpt><trkpt lat="43.9317363" lon="11.9764684"><ele>876.0</ele><time>2026-05-01T11:09:48.236Z</time></trkpt><trkpt lat="43.9318227" lon="11.97636"><ele>881.5</ele><time>2026-05-01T11:09:49.236Z</time></trkpt><trkpt lat="43.931935" lon="11.9762044"><ele>887.0</ele><time>2026-05-01T11:09:50.225Z</time></trkpt><trkpt lat="43.932025" lon="11.9760496"><ele>887.0</ele><time>2026-05-01T11:09:51.225Z</time></trkpt><trkpt lat="43.9321473" lon="11.9759012"><ele>887.0</ele><time>2026-05-01T11:09:52.236Z</time></trkpt><trkpt lat="43.9322471" lon="11.9757645"><ele>887.0</ele><time>2026-05-01T11:09:53.224Z</time></trkpt><trkpt lat="43.9323328" lon="11.9756359"><ele>887.0</ele><time>2026-05-01T11:09:54.229Z</time></trkpt><trkpt lat="43.9324098" lon="11.9755276"><ele>888.2</ele><time>2026-05-01T11:09:55.222Z</time></trkpt><trkpt lat="43.9324842" lon="11.9754339"><ele>889.4000000000001</ele><time>2026-05-01T11:09:56.221Z</time></trkpt><trkpt lat="43.9325599" lon="11.9753447"><ele>890.5999999999999</ele><time>2026-05-01T11:09:57.221Z</time></trkpt><trkpt lat="43.9326403" lon="11.9752153"><ele>891.8</ele><time>2026-05-01T11:09:58.225Z</time></trkpt><trkpt lat="43.9327205" lon="11.9751457"><ele>893.0</ele><time>2026-05-01T11:09:59.228Z</time></trkpt><trkpt lat="43.9328241" lon="11.9750784"><ele>889.4</ele><time>2026-05-01T11:10:00.225Z</time></trkpt><trkpt lat="43.9329442" lon="11.9751297"><ele>885.8</ele><time>2026-05-01T11:10:01.236Z</time></trkpt><trkpt lat="43.9330331" lon="11.9751014"><ele>882.2</ele><time>2026-05-01T11:10:02.225Z</time></trkpt><trkpt lat="43.9331082" lon="11.9751105"><ele>878.6</ele><time>2026-05-01T11:10:03.227Z</time></trkpt><trkpt lat="43.9332175" lon="11.9751041"><ele>875.0</ele><time>2026-05-01T11:10:04.233Z</time></trkpt><trkpt lat="43.9333436" lon="11.9751069"><ele>875.2</ele><time>2026-05-01T11:10:05.235Z</time></trkpt><trkpt lat="43.933437" lon="11.9751253"><ele>875.4</ele><time>2026-05-01T11:10:06.222Z</time></trkpt><trkpt lat="43.933547" lon="11.9751428"><ele>875.5999999999999</ele><time>2026-05-01T11:10:07.227Z</time></trkpt><trkpt lat="43.9336458" lon="11.9751642"><ele>875.8</ele><time>2026-05-01T11:10:08.234Z</time></trkpt><trkpt lat="43.9337646" lon="11.9751399"><ele>876.0</ele><time>2026-05-01T11:10:09.228Z</time></trkpt><trkpt lat="43.9338734" lon="11.9751252"><ele>876.0</ele><time>2026-05-01T11:10:10.233Z</time></trkpt><trkpt lat="43.9339481" lon="11.975111"><ele>875.9999999999999</ele><time>2026-05-01T11:10:11.226Z</time></trkpt><trkpt lat="43.9340505" lon="11.9750936"><ele>875.9999999999999</ele><time>2026-05-01T11:10:12.236Z</time></trkpt><trkpt lat="43.9341727" lon="11.9751415"><ele>876.0</ele><time>2026-05-01T11:10:13.239Z</time></trkpt><trkpt lat="43.9342844" lon="11.975152"><ele>876.0</ele><time>2026-05-01T11:10:14.229Z</time></trkpt><trkpt lat="43.9344016" lon="11.975184"><ele>880.4</ele><time>2026-05-01T11:10:15.237Z</time></trkpt><trkpt lat="43.9345002" lon="11.9752211"><ele>884.8</ele><time>2026-05-01T11:10:16.224Z</time></trkpt><trkpt lat="43.934601" lon="11.9752281"><ele>889.1999999999999</ele><time>2026-05-01T11:10:17.226Z</time></trkpt><trkpt lat="43.9346813" lon="11.9753135"><ele>893.5999999999999</ele><time>2026-05-01T11:10:18.222Z</time></trkpt><trkpt lat="43.9347585" lon="11.9753676"><ele>898.0</ele><time>2026-05-01T11:10:19.222Z</time></trkpt><trkpt lat="43.9348515" lon="11.9754468"><ele>898.0</ele><time>2026-05-01T11:10:20.235Z</time></trkpt><trkpt lat="43.9349045" lon="11.9755824"><ele>898.0</ele><time>2026-05-01T11:10:21.237Z</time></trkpt><trkpt lat="43.9349409" lon="11.9757165"><ele>898.0</ele><time>2026-05-01T11:10:22.225Z</time></trkpt><trkpt lat="43.9349831" lon="11.9758272"><ele>898.0</ele><time>2026-05-01T11:10:23.223Z</time></trkpt><trkpt lat="43.9350224" lon="11.9759418"><ele>898.0</ele><time>2026-05-01T11:10:24.236Z</time></trkpt><trkpt lat="43.9350777" lon="11.9760476"><ele>895.8</ele><time>2026-05-01T11:10:25.232Z</time></trkpt><trkpt lat="43.9351669" lon="11.9761251"><ele>893.5999999999999</ele><time>2026-05-01T11:10:26.231Z</time></trkpt><trkpt lat="43.9352465" lon="11.9762066"><ele>891.4000000000001</ele><time>2026-05-01T11:10:27.225Z</time></trkpt><trkpt lat="43.9353026" lon="11.9762955"><ele>889.2</ele><time>2026-05-01T11:10:28.237Z</time></trkpt><trkpt lat="43.9353525" lon="11.9763973"><ele>887.0</ele><time>2026-05-01T11:10:29.229Z</time></trkpt><trkpt lat="43.9353768" lon="11.976527"><ele>887.0000000000001</ele><time>2026-05-01T11:10:30.222Z</time></trkpt><trkpt lat="43.9353897" lon="11.9766386"><ele>887.0</ele><time>2026-05-01T11:10:31.222Z</time></trkpt><trkpt lat="43.9354115" lon="11.9767573"><ele>887.0</ele><time>2026-05-01T11:10:32.225Z</time></trkpt><trkpt lat="43.9354197" lon="11.9768638"><ele>887.0</ele><time>2026-05-01T11:10:33.236Z</time></trkpt><trkpt lat="43.9354582" lon="11.9769575"><ele>887.0000000000001</ele><time>2026-05-01T11:10:34.225Z</time></trkpt><trkpt lat="43.9355038" lon="11.9770377"><ele>887.0</ele><time>2026-05-01T11:10:35.232Z</time></trkpt><trkpt lat="43.9355589" lon="11.9770965"><ele>883.4000000000001</ele><time>2026-05-01T11:10:36.225Z</time></trkpt><trkpt lat="43.9356318" lon="11.9771483"><ele>879.8000000000001</ele><time>2026-05-01T11:10:37.222Z</time></trkpt><trkpt lat="43.9357449" lon="11.9771106"><ele>876.2</ele><time>2026-05-01T11:10:39.236Z</time></trkpt><trkpt lat="43.9358261" lon="11.9770216"><ele>872.6</ele><time>2026-05-01T11:10:41.239Z</time></trkpt><trkpt lat="43.9358662" lon="11.9769036"><ele>869.0</ele><time>2026-05-01T11:10:42.228Z</time></trkpt><trkpt lat="43.9359031" lon="11.9768033"><ele>868.3333333333334</ele><time>2026-05-01T11:10:43.235Z</time></trkpt><trkpt lat="43.9359454" lon="11.9767212"><ele>867.6666666666667</ele><time>2026-05-01T11:10:44.223Z</time></trkpt><trkpt lat="43.9360243" lon="11.9766994"><ele>867.0</ele><time>2026-05-01T11:10:45.222Z</time></trkpt><trkpt lat="43.9360933" lon="11.9766694"><ele>866.3333333333333</ele><time>2026-05-01T11:10:46.235Z</time></trkpt><trkpt lat="43.9361698" lon="11.9767259"><ele>865.6666666666666</ele><time>2026-05-01T11:10:47.225Z</time></trkpt><trkpt lat="43.9362412" lon="11.9767764"><ele>865.0</ele><time>2026-05-01T11:10:48.231Z</time></trkpt><trkpt lat="43.9363106" lon="11.9768766"><ele>864.9999999999999</ele><time>2026-05-01T11:10:49.235Z</time></trkpt><trkpt lat="43.9363767" lon="11.9769615"><ele>865.0</ele><time>2026-05-01T11:10:50.229Z</time></trkpt><trkpt lat="43.9364562" lon="11.9770328"><ele>865.0</ele><time>2026-05-01T11:10:51.227Z</time></trkpt><trkpt lat="43.9365363" lon="11.9771039"><ele>865.0</ele><time>2026-05-01T11:10:52.225Z</time></trkpt><trkpt lat="43.936594" lon="11.9771478"><ele>864.9999999999999</ele><time>2026-05-01T11:10:53.237Z</time></trkpt><trkpt lat="43.9366834" lon="11.9771724"><ele>865.0</ele><time>2026-05-01T11:10:54.235Z</time></trkpt><trkpt lat="43.9367612" lon="11.9771692"><ele>864.8333333333333</ele><time>2026-05-01T11:10:55.222Z</time></trkpt><trkpt lat="43.9368444" lon="11.9771596"><ele>864.6666666666666</ele><time>2026-05-01T11:10:56.237Z</time></trkpt><trkpt lat="43.9369337" lon="11.9771267"><ele>864.5</ele><time>2026-05-01T11:10:57.224Z</time></trkpt><trkpt lat="43.9370002" lon="11.9771449"><ele>864.3333333333333</ele><time>2026-05-01T11:10:58.225Z</time></trkpt><trkpt lat="43.9370698" lon="11.9771757"><ele>864.1666666666666</ele><time>2026-05-01T11:10:59.221Z</time></trkpt><trkpt lat="43.9371327" lon="11.977201"><ele>864.0</ele><time>2026-05-01T11:11:00.236Z</time></trkpt><trkpt lat="43.9372343" lon="11.9772821"><ele>864.0</ele><time>2026-05-01T11:11:01.221Z</time></trkpt><trkpt lat="43.9373346" lon="11.9773645"><ele>864.0000000000001</ele><time>2026-05-01T11:11:02.224Z</time></trkpt><trkpt lat="43.9374042" lon="11.9774313"><ele>864.0000000000001</ele><time>2026-05-01T11:11:03.221Z</time></trkpt><trkpt lat="43.9375053" lon="11.9775558"><ele>864.0</ele><time>2026-05-01T11:11:04.225Z</time></trkpt><trkpt lat="43.937589" lon="11.9776282"><ele>864.0</ele><time>2026-05-01T11:11:05.224Z</time></trkpt><trkpt lat="43.9376411" lon="11.9777162"><ele>860.8000000000001</ele><time>2026-05-01T11:11:06.222Z</time></trkpt><trkpt lat="43.9376847" lon="11.9778043"><ele>857.6000000000001</ele><time>2026-05-01T11:11:07.232Z</time></trkpt><trkpt lat="43.9377467" lon="11.9779024"><ele>854.4</ele><time>2026-05-01T11:11:08.237Z</time></trkpt><trkpt lat="43.9378048" lon="11.9779925"><ele>851.2</ele><time>2026-05-01T11:11:09.236Z</time></trkpt><trkpt lat="43.9378681" lon="11.9780726"><ele>848.0</ele><time>2026-05-01T11:11:10.223Z</time></trkpt><trkpt lat="43.9379838" lon="11.9781793"><ele>848.0</ele><time>2026-05-01T11:11:12.224Z</time></trkpt><trkpt lat="43.938062" lon="11.9782311"><ele>848.0</ele><time>2026-05-01T11:11:13.224Z</time></trkpt><trkpt lat="43.9381774" lon="11.9782806"><ele>848.0</ele><time>2026-05-01T11:11:14.224Z</time></trkpt><trkpt lat="43.9383074" lon="11.9783125"><ele>848.0</ele><time>2026-05-01T11:11:15.236Z</time></trkpt><trkpt lat="43.938397" lon="11.9783229"><ele>848.0</ele><time>2026-05-01T11:11:16.236Z</time></trkpt><trkpt lat="43.9384885" lon="11.9783483"><ele>845.2</ele><time>2026-05-01T11:11:17.236Z</time></trkpt><trkpt lat="43.9385867" lon="11.9784223"><ele>842.4</ele><time>2026-05-01T11:11:18.24Z</time></trkpt><trkpt lat="43.9386726" lon="11.9784848"><ele>839.6</ele><time>2026-05-01T11:11:19.225Z</time></trkpt><trkpt lat="43.9387391" lon="11.9785826"><ele>836.8000000000001</ele><time>2026-05-01T11:11:20.236Z</time></trkpt><trkpt lat="43.9388351" lon="11.9786838"><ele>834.0</ele><time>2026-05-01T11:11:21.237Z</time></trkpt><trkpt lat="43.9389084" lon="11.978749"><ele>834.0</ele><time>2026-05-01T11:11:22.234Z</time></trkpt><trkpt lat="43.9390205" lon="11.9788465"><ele>834.0</ele><time>2026-05-01T11:11:23.235Z</time></trkpt><trkpt lat="43.9391006" lon="11.9788848"><ele>834.0</ele><time>2026-05-01T11:11:24.23Z</time></trkpt><trkpt lat="43.9391793" lon="11.9789443"><ele>834.0</ele><time>2026-05-01T11:11:25.223Z</time></trkpt><trkpt lat="43.9392538" lon="11.9789835"><ele>834.0</ele><time>2026-05-01T11:11:26.236Z</time></trkpt><trkpt lat="43.939346" lon="11.979086"><ele>833.2</ele><time>2026-05-01T11:11:27.235Z</time></trkpt><trkpt lat="43.9394213" lon="11.9791911"><ele>832.4000000000001</ele><time>2026-05-01T11:11:28.221Z</time></trkpt><trkpt lat="43.9395155" lon="11.9792979"><ele>831.6</ele><time>2026-05-01T11:11:29.236Z</time></trkpt><trkpt lat="43.9395891" lon="11.9794164"><ele>830.8</ele><time>2026-05-01T11:11:30.231Z</time></trkpt><trkpt lat="43.9396531" lon="11.9795368"><ele>830.0</ele><time>2026-05-01T11:11:31.237Z</time></trkpt><trkpt lat="43.9397034" lon="11.9796364"><ele>830.0</ele><time>2026-05-01T11:11:32.229Z</time></trkpt><trkpt lat="43.9397569" lon="11.9797408"><ele>830.0</ele><time>2026-05-01T11:11:33.235Z</time></trkpt><trkpt lat="43.9398164" lon="11.9798637"><ele>830.0</ele><time>2026-05-01T11:11:34.236Z</time></trkpt><trkpt lat="43.9398929" lon="11.9799637"><ele>830.0</ele><time>2026-05-01T11:11:35.231Z</time></trkpt><trkpt lat="43.9399759" lon="11.9800516"><ele>830.0</ele><time>2026-05-01T11:11:36.224Z</time></trkpt><trkpt lat="43.9400678" lon="11.9801116"><ele>831.6</ele><time>2026-05-01T11:11:37.236Z</time></trkpt><trkpt lat="43.9401528" lon="11.9801779"><ele>833.2</ele><time>2026-05-01T11:11:38.227Z</time></trkpt><trkpt lat="43.940218" lon="11.9802349"><ele>834.8</ele><time>2026-05-01T11:11:39.223Z</time></trkpt><trkpt lat="43.9402832" lon="11.9803078"><ele>836.4</ele><time>2026-05-01T11:11:40.225Z</time></trkpt><trkpt lat="43.9403536" lon="11.9803815"><ele>838.0</ele><time>2026-05-01T11:11:41.225Z</time></trkpt><trkpt lat="43.9404497" lon="11.9805121"><ele>838.0</ele><time>2026-05-01T11:11:42.231Z</time></trkpt><trkpt lat="43.9405451" lon="11.9806169"><ele>838.0</ele><time>2026-05-01T11:11:43.222Z</time></trkpt><trkpt lat="43.9406423" lon="11.9807097"><ele>838.0</ele><time>2026-05-01T11:11:44.222Z</time></trkpt><trkpt lat="43.9407722" lon="11.9808175"><ele>838.0</ele><time>2026-05-01T11:11:45.222Z</time></trkpt><trkpt lat="43.9408899" lon="11.9809039"><ele>838.8</ele><time>2026-05-01T11:11:46.236Z</time></trkpt><trkpt lat="43.9409904" lon="11.9810076"><ele>839.5999999999999</ele><time>2026-05-01T11:11:47.224Z</time></trkpt><trkpt lat="43.9410847" lon="11.9810625"><ele>840.4000000000001</ele><time>2026-05-01T11:11:48.22Z</time></trkpt><trkpt lat="43.9411619" lon="11.9811483"><ele>841.2</ele><time>2026-05-01T11:11:49.225Z</time></trkpt><trkpt lat="43.9412351" lon="11.9812211"><ele>842.0</ele><time>2026-05-01T11:11:50.223Z</time></trkpt><trkpt lat="43.9413039" lon="11.9812505"><ele>842.0000000000001</ele><time>2026-05-01T11:11:51.236Z</time></trkpt><trkpt lat="43.9413666" lon="11.9812947"><ele>842.0</ele><time>2026-05-01T11:11:52.232Z</time></trkpt><trkpt lat="43.9414486" lon="11.9813346"><ele>842.0</ele><time>2026-05-01T11:11:53.228Z</time></trkpt><trkpt lat="43.94153" lon="11.981347"><ele>842.0</ele><time>2026-05-01T11:11:54.223Z</time></trkpt><trkpt lat="43.9416309" lon="11.9813479"><ele>842.0000000000001</ele><time>2026-05-01T11:11:55.232Z</time></trkpt><trkpt lat="43.9417304" lon="11.9813309"><ele>842.0</ele><time>2026-05-01T11:11:56.223Z</time></trkpt><trkpt lat="43.9418211" lon="11.9813006"><ele>840.8</ele><time>2026-05-01T11:11:57.225Z</time></trkpt><trkpt lat="43.9419185" lon="11.9812757"><ele>839.6</ele><time>2026-05-01T11:11:58.235Z</time></trkpt><trkpt lat="43.9420378" lon="11.9812467"><ele>838.4</ele><time>2026-05-01T11:11:59.223Z</time></trkpt><trkpt lat="43.9421444" lon="11.9811944"><ele>837.1999999999999</ele><time>2026-05-01T11:12:00.238Z</time></trkpt><trkpt lat="43.9422531" lon="11.9811486"><ele>836.0</ele><time>2026-05-01T11:12:01.236Z</time></trkpt><trkpt lat="43.9423484" lon="11.9811244"><ele>836.0</ele><time>2026-05-01T11:12:02.223Z</time></trkpt><trkpt lat="43.9424883" lon="11.9811849"><ele>836.0</ele><time>2026-05-01T11:12:04.225Z</time></trkpt><trkpt lat="43.94257" lon="11.9812023"><ele>836.0</ele><time>2026-05-01T11:12:05.222Z</time></trkpt><trkpt lat="43.9426486" lon="11.9812387"><ele>836.0</ele><time>2026-05-01T11:12:06.231Z</time></trkpt><trkpt lat="43.9427397" lon="11.9812993"><ele>836.0</ele><time>2026-05-01T11:12:07.235Z</time></trkpt><trkpt lat="43.9428351" lon="11.9813639"><ele>832.1999999999999</ele><time>2026-05-01T11:12:08.223Z</time></trkpt><trkpt lat="43.9429079" lon="11.9814392"><ele>828.4</ele><time>2026-05-01T11:12:09.224Z</time></trkpt><trkpt lat="43.9430245" lon="11.9814968"><ele>824.6</ele><time>2026-05-01T11:12:10.221Z</time></trkpt><trkpt lat="43.9430848" lon="11.9815294"><ele>820.8</ele><time>2026-05-01T11:12:11.23Z</time></trkpt><trkpt lat="43.9431561" lon="11.9815738"><ele>817.0</ele><time>2026-05-01T11:12:12.221Z</time></trkpt><trkpt lat="43.9432845" lon="11.981597"><ele>817.0</ele><time>2026-05-01T11:12:14.225Z</time></trkpt><trkpt lat="43.9433591" lon="11.9815946"><ele>817.0</ele><time>2026-05-01T11:12:15.219Z</time></trkpt><trkpt lat="43.9434305" lon="11.9815877"><ele>817.0</ele><time>2026-05-01T11:12:16.235Z</time></trkpt><trkpt lat="43.9435183" lon="11.9815573"><ele>817.0</ele><time>2026-05-01T11:12:17.221Z</time></trkpt><trkpt lat="43.9436171" lon="11.9815202"><ele>817.0</ele><time>2026-05-01T11:12:18.228Z</time></trkpt><trkpt lat="43.9437413" lon="11.9814914"><ele>816.2</ele><time>2026-05-01T11:12:19.234Z</time></trkpt><trkpt lat="43.9438381" lon="11.9814959"><ele>815.4000000000001</ele><time>2026-05-01T11:12:20.235Z</time></trkpt><trkpt lat="43.9439385" lon="11.9815209"><ele>814.5999999999999</ele><time>2026-05-01T11:12:21.233Z</time></trkpt><trkpt lat="43.944034" lon="11.9815386"><ele>813.8</ele><time>2026-05-01T11:12:22.224Z</time></trkpt><trkpt lat="43.9441389" lon="11.9815766"><ele>813.0</ele><time>2026-05-01T11:12:23.234Z</time></trkpt><trkpt lat="43.9442032" lon="11.981629"><ele>817.3333333333334</ele><time>2026-05-01T11:12:24.222Z</time></trkpt><trkpt lat="43.944274" lon="11.9816561"><ele>821.6666666666667</ele><time>2026-05-01T11:12:25.221Z</time></trkpt><trkpt lat="43.9443484" lon="11.9816782"><ele>826.0</ele><time>2026-05-01T11:12:26.223Z</time></trkpt><trkpt lat="43.9444138" lon="11.9817392"><ele>830.3333333333334</ele><time>2026-05-01T11:12:27.224Z</time></trkpt><trkpt lat="43.9444739" lon="11.9818393"><ele>834.6666666666667</ele><time>2026-05-01T11:12:28.229Z</time></trkpt><trkpt lat="43.9445279" lon="11.9819314"><ele>839.0</ele><time>2026-05-01T11:12:29.224Z</time></trkpt><trkpt lat="43.9445618" lon="11.9820093"><ele>839.0</ele><time>2026-05-01T11:12:30.237Z</time></trkpt><trkpt lat="43.9445905" lon="11.982192"><ele>839.0</ele><time>2026-05-01T11:12:32.224Z</time></trkpt><trkpt lat="43.9445181" lon="11.98232"><ele>839.0</ele><time>2026-05-01T11:12:33.221Z</time></trkpt><trkpt lat="43.9444692" lon="11.9823923"><ele>839.0</ele><time>2026-05-01T11:12:34.236Z</time></trkpt><trkpt lat="43.944448" lon="11.9824762"><ele>839.0</ele><time>2026-05-01T11:12:35.224Z</time></trkpt><trkpt lat="43.9444145" lon="11.9825706"><ele>836.0000000000001</ele><time>2026-05-01T11:12:36.225Z</time></trkpt><trkpt lat="43.94435" lon="11.9826758"><ele>833.0</ele><time>2026-05-01T11:12:37.224Z</time></trkpt><trkpt lat="43.9443459" lon="11.9827846"><ele>830.0</ele><time>2026-05-01T11:12:38.235Z</time></trkpt><trkpt lat="43.9443808" lon="11.9828702"><ele>827.0</ele><time>2026-05-01T11:12:39.224Z</time></trkpt><trkpt lat="43.9443913" lon="11.98296"><ele>824.0000000000001</ele><time>2026-05-01T11:12:40.224Z</time></trkpt><trkpt lat="43.9444667" lon="11.9830968"><ele>821.0</ele><time>2026-05-01T11:12:42.223Z</time></trkpt><trkpt lat="43.9445484" lon="11.9831866"><ele>821.0</ele><time>2026-05-01T11:12:43.239Z</time></trkpt><trkpt lat="43.9446483" lon="11.9833066"><ele>821.0</ele><time>2026-05-01T11:12:44.235Z</time></trkpt><trkpt lat="43.9447206" lon="11.9833965"><ele>821.0</ele><time>2026-05-01T11:12:45.222Z</time></trkpt><trkpt lat="43.9447854" lon="11.9834789"><ele>821.0</ele><time>2026-05-01T11:12:46.233Z</time></trkpt><trkpt lat="43.9448638" lon="11.9835795"><ele>821.0</ele><time>2026-05-01T11:12:48.22Z</time></trkpt><trkpt lat="43.944839" lon="11.9837191"><ele>820.6666666666667</ele><time>2026-05-01T11:12:50.221Z</time></trkpt><trkpt lat="43.9447566" lon="11.9838092"><ele>820.3333333333334</ele><time>2026-05-01T11:12:52.222Z</time></trkpt><trkpt lat="43.9446831" lon="11.9838748"><ele>820.0</ele><time>2026-05-01T11:12:53.228Z</time></trkpt><trkpt lat="43.9446294" lon="11.9839387"><ele>819.6666666666667</ele><time>2026-05-01T11:12:54.23Z</time></trkpt><trkpt lat="43.9445752" lon="11.9839917"><ele>819.3333333333334</ele><time>2026-05-01T11:12:55.235Z</time></trkpt><trkpt lat="43.9444916" lon="11.9840633"><ele>819.0</ele><time>2026-05-01T11:12:57.224Z</time></trkpt><trkpt lat="43.9444369" lon="11.9841817"><ele>819.0</ele><time>2026-05-01T11:12:59.227Z</time></trkpt><trkpt lat="43.9444604" lon="11.9842689"><ele>819.0</ele><time>2026-05-01T11:13:00.225Z</time></trkpt><trkpt lat="43.9444936" lon="11.9843674"><ele>819.0</ele><time>2026-05-01T11:13:01.224Z</time></trkpt><trkpt lat="43.9445187" lon="11.984462"><ele>819.0</ele><time>2026-05-01T11:13:02.225Z</time></trkpt><trkpt lat="43.9445183" lon="11.984551"><ele>819.0</ele><time>2026-05-01T11:13:03.224Z</time></trkpt><trkpt lat="43.9445699" lon="11.984658"><ele>819.0</ele><time>2026-05-01T11:13:04.235Z</time></trkpt><trkpt lat="43.9446204" lon="11.984762"><ele>819.0</ele><time>2026-05-01T11:13:05.221Z</time></trkpt><trkpt lat="43.9446808" lon="11.9848371"><ele>819.0</ele><time>2026-05-01T11:13:06.229Z</time></trkpt><trkpt lat="43.9447331" lon="11.9849148"><ele>819.0</ele><time>2026-05-01T11:13:07.221Z</time></trkpt><trkpt lat="43.9448089" lon="11.9850117"><ele>819.0</ele><time>2026-05-01T11:13:08.224Z</time></trkpt><trkpt lat="43.9448371" lon="11.9851411"><ele>819.0</ele><time>2026-05-01T11:13:09.223Z</time></trkpt><trkpt lat="43.9448784" lon="11.9852449"><ele>819.0</ele><time>2026-05-01T11:13:10.222Z</time></trkpt><trkpt lat="43.9449018" lon="11.9853389"><ele>817.6</ele><time>2026-05-01T11:13:11.229Z</time></trkpt><trkpt lat="43.9448898" lon="11.9854932"><ele>816.2</ele><time>2026-05-01T11:13:13.224Z</time></trkpt><trkpt lat="43.9448781" lon="11.9855842"><ele>814.8000000000001</ele><time>2026-05-01T11:13:14.231Z</time></trkpt><trkpt lat="43.9448444" lon="11.9857265"><ele>813.4000000000001</ele><time>2026-05-01T11:13:16.228Z</time></trkpt><trkpt lat="43.9447519" lon="11.9858814"><ele>812.0</ele><time>2026-05-01T11:13:18.229Z</time></trkpt><trkpt lat="43.9446973" lon="11.9859863"><ele>808.0</ele><time>2026-05-01T11:13:19.239Z</time></trkpt><trkpt lat="43.9446442" lon="11.9860528"><ele>804.0</ele><time>2026-05-01T11:13:20.235Z</time></trkpt><trkpt lat="43.9445797" lon="11.9862057"><ele>800.0</ele><time>2026-05-01T11:13:22.239Z</time></trkpt><trkpt lat="43.9446485" lon="11.9863378"><ele>796.0</ele><time>2026-05-01T11:13:24.249Z</time></trkpt><trkpt lat="43.9447387" lon="11.9865034"><ele>796.0</ele><time>2026-05-01T11:13:26.235Z</time></trkpt><trkpt lat="43.9447992" lon="11.9865837"><ele>796.0</ele><time>2026-05-01T11:13:27.224Z</time></trkpt><trkpt lat="43.9449016" lon="11.9866185"><ele>796.0</ele><time>2026-05-01T11:13:28.233Z</time></trkpt><trkpt lat="43.9449815" lon="11.9866616"><ele>796.0</ele><time>2026-05-01T11:13:29.224Z</time></trkpt><trkpt lat="43.9450733" lon="11.9867029"><ele>796.0</ele><time>2026-05-01T11:13:30.22Z</time></trkpt><trkpt lat="43.9451778" lon="11.9867346"><ele>789.0</ele><time>2026-05-01T11:13:31.225Z</time></trkpt><trkpt lat="43.9452738" lon="11.9867437"><ele>782.0</ele><time>2026-05-01T11:13:32.237Z</time></trkpt><trkpt lat="43.9453779" lon="11.9867493"><ele>775.0</ele><time>2026-05-01T11:13:33.223Z</time></trkpt><trkpt lat="43.9454647" lon="11.986744"><ele>768.0</ele><time>2026-05-01T11:13:34.229Z</time></trkpt><trkpt lat="43.9455755" lon="11.9867338"><ele>761.0</ele><time>2026-05-01T11:13:35.221Z</time></trkpt><trkpt lat="43.9456874" lon="11.9867294"><ele>765.75</ele><time>2026-05-01T11:13:36.241Z</time></trkpt><trkpt lat="43.9458206" lon="11.9866657"><ele>770.5</ele><time>2026-05-01T11:13:37.237Z</time></trkpt><trkpt lat="43.9459391" lon="11.9866257"><ele>775.25</ele><time>2026-05-01T11:13:38.224Z</time></trkpt><trkpt lat="43.9460423" lon="11.9865856"><ele>780.0</ele><time>2026-05-01T11:13:39.222Z</time></trkpt><trkpt lat="43.9461423" lon="11.9865304"><ele>780.0</ele><time>2026-05-01T11:13:40.221Z</time></trkpt><trkpt lat="43.9462043" lon="11.9864793"><ele>780.0</ele><time>2026-05-01T11:13:41.222Z</time></trkpt><trkpt lat="43.9462848" lon="11.9864111"><ele>780.0</ele><time>2026-05-01T11:13:42.232Z</time></trkpt><trkpt lat="43.9463625" lon="11.9863433"><ele>780.0</ele><time>2026-05-01T11:13:43.235Z</time></trkpt><trkpt lat="43.9464347" lon="11.9863268"><ele>780.0</ele><time>2026-05-01T11:13:44.221Z</time></trkpt><trkpt lat="43.9465122" lon="11.986336"><ele>780.0</ele><time>2026-05-01T11:13:45.235Z</time></trkpt><trkpt lat="43.9466081" lon="11.9863654"><ele>780.0</ele><time>2026-05-01T11:13:46.223Z</time></trkpt><trkpt lat="43.946692" lon="11.986366"><ele>780.0</ele><time>2026-05-01T11:13:47.232Z</time></trkpt><trkpt lat="43.9467808" lon="11.9863812"><ele>780.0</ele><time>2026-05-01T11:13:48.232Z</time></trkpt><trkpt lat="43.9468879" lon="11.9863887"><ele>780.0</ele><time>2026-05-01T11:13:49.223Z</time></trkpt><trkpt lat="43.9469808" lon="11.9863612"><ele>780.0</ele><time>2026-05-01T11:13:50.24Z</time></trkpt><trkpt lat="43.9470604" lon="11.98638"><ele>783.2</ele><time>2026-05-01T11:13:51.227Z</time></trkpt><trkpt lat="43.9471254" lon="11.9864143"><ele>786.4</ele><time>2026-05-01T11:13:52.225Z</time></trkpt><trkpt lat="43.9472286" lon="11.9865123"><ele>789.5999999999999</ele><time>2026-05-01T11:13:53.235Z</time></trkpt><trkpt lat="43.9473251" lon="11.9865477"><ele>792.8</ele><time>2026-05-01T11:13:54.225Z</time></trkpt><trkpt lat="43.9473975" lon="11.9865711"><ele>796.0</ele><time>2026-05-01T11:13:55.241Z</time></trkpt><trkpt lat="43.9474937" lon="11.9865906"><ele>792.8</ele><time>2026-05-01T11:13:56.236Z</time></trkpt><trkpt lat="43.9475853" lon="11.986609"><ele>789.5999999999999</ele><time>2026-05-01T11:13:57.236Z</time></trkpt><trkpt lat="43.9476805" lon="11.9866493"><ele>786.4</ele><time>2026-05-01T11:13:58.227Z</time></trkpt><trkpt lat="43.9477594" lon="11.9866872"><ele>783.2</ele><time>2026-05-01T11:13:59.222Z</time></trkpt><trkpt lat="43.9478454" lon="11.9867534"><ele>780.0</ele><time>2026-05-01T11:14:00.229Z</time></trkpt><trkpt lat="43.9479369" lon="11.9868245"><ele>780.0</ele><time>2026-05-01T11:14:01.223Z</time></trkpt><trkpt lat="43.948023" lon="11.9868894"><ele>780.0</ele><time>2026-05-01T11:14:02.222Z</time></trkpt><trkpt lat="43.9480926" lon="11.9869534"><ele>780.0</ele><time>2026-05-01T11:14:03.235Z</time></trkpt><trkpt lat="43.9481663" lon="11.9869589"><ele>780.0</ele><time>2026-05-01T11:14:04.235Z</time></trkpt><trkpt lat="43.948245" lon="11.986961"><ele>780.0</ele><time>2026-05-01T11:14:05.224Z</time></trkpt><trkpt lat="43.9483106" lon="11.9869755"><ele>780.0</ele><time>2026-05-01T11:14:06.236Z</time></trkpt><trkpt lat="43.9483803" lon="11.9869817"><ele>780.6666666666666</ele><time>2026-05-01T11:14:07.22Z</time></trkpt><trkpt lat="43.9484613" lon="11.9869881"><ele>781.3333333333333</ele><time>2026-05-01T11:14:08.219Z</time></trkpt><trkpt lat="43.9485363" lon="11.9870089"><ele>782.0</ele><time>2026-05-01T11:14:09.232Z</time></trkpt><trkpt lat="43.9486106" lon="11.987002"><ele>782.6666666666666</ele><time>2026-05-01T11:14:10.224Z</time></trkpt><trkpt lat="43.9486897" lon="11.9870013"><ele>783.3333333333333</ele><time>2026-05-01T11:14:11.231Z</time></trkpt><trkpt lat="43.9488148" lon="11.9869934"><ele>784.0</ele><time>2026-05-01T11:14:12.22Z</time></trkpt><trkpt lat="43.9489424" lon="11.9869976"><ele>784.0</ele><time>2026-05-01T11:14:13.222Z</time></trkpt><trkpt lat="43.9490894" lon="11.9869731"><ele>784.0</ele><time>2026-05-01T11:14:14.245Z</time></trkpt><trkpt lat="43.9492631" lon="11.9869763"><ele>784.0</ele><time>2026-05-01T11:14:15.221Z</time></trkpt><trkpt lat="43.9494245" lon="11.9869985"><ele>786.3333333333333</ele><time>2026-05-01T11:14:16.232Z</time></trkpt><trkpt lat="43.9495851" lon="11.9870292"><ele>788.6666666666667</ele><time>2026-05-01T11:14:17.235Z</time></trkpt><trkpt lat="43.9497547" lon="11.9870684"><ele>791.0</ele><time>2026-05-01T11:14:18.223Z</time></trkpt><trkpt lat="43.9499066" lon="11.9871122"><ele>791.75</ele><time>2026-05-01T11:14:19.239Z</time></trkpt><trkpt lat="43.9500621" lon="11.9871442"><ele>792.5</ele><time>2026-05-01T11:14:20.221Z</time></trkpt><trkpt lat="43.9501974" lon="11.9871711"><ele>793.25</ele><time>2026-05-01T11:14:21.23Z</time></trkpt><trkpt lat="43.9503241" lon="11.9871947"><ele>794.0</ele><time>2026-05-01T11:14:22.233Z</time></trkpt><trkpt lat="43.9504432" lon="11.9872329"><ele>794.0</ele><time>2026-05-01T11:14:23.222Z</time></trkpt><trkpt lat="43.9505483" lon="11.9872707"><ele>794.0</ele><time>2026-05-01T11:14:24.235Z</time></trkpt><trkpt lat="43.9506441" lon="11.9873162"><ele>794.0</ele><time>2026-05-01T11:14:25.222Z</time></trkpt><trkpt lat="43.9507325" lon="11.9873389"><ele>794.0</ele><time>2026-05-01T11:14:26.231Z</time></trkpt><trkpt lat="43.9507972" lon="11.9873647"><ele>794.0</ele><time>2026-05-01T11:14:27.235Z</time></trkpt><trkpt lat="43.9508762" lon="11.9873983"><ele>795.0</ele><time>2026-05-01T11:14:28.235Z</time></trkpt><trkpt lat="43.9509674" lon="11.9874342"><ele>796.0</ele><time>2026-05-01T11:14:29.225Z</time></trkpt><trkpt lat="43.95109" lon="11.9874829"><ele>797.0</ele><time>2026-05-01T11:14:30.222Z</time></trkpt><trkpt lat="43.951189" lon="11.9875352"><ele>798.0</ele><time>2026-05-01T11:14:31.232Z</time></trkpt><trkpt lat="43.9512851" lon="11.9875996"><ele>799.0</ele><time>2026-05-01T11:14:32.222Z</time></trkpt><trkpt lat="43.9513658" lon="11.987632"><ele>797.25</ele><time>2026-05-01T11:14:33.226Z</time></trkpt><trkpt lat="43.9514699" lon="11.9877238"><ele>795.5</ele><time>2026-05-01T11:14:34.236Z</time></trkpt><trkpt lat="43.9515768" lon="11.9878242"><ele>793.75</ele><time>2026-05-01T11:14:35.224Z</time></trkpt><trkpt lat="43.9516855" lon="11.987912"><ele>792.0</ele><time>2026-05-01T11:14:36.24Z</time></trkpt><trkpt lat="43.951794" lon="11.9879891"><ele>792.0</ele><time>2026-05-01T11:14:37.225Z</time></trkpt><trkpt lat="43.9518759" lon="11.9880114"><ele>792.0</ele><time>2026-05-01T11:14:38.224Z</time></trkpt><trkpt lat="43.9519783" lon="11.9880701"><ele>792.0</ele><time>2026-05-01T11:14:39.225Z</time></trkpt><trkpt lat="43.9520618" lon="11.9881279"><ele>792.0</ele><time>2026-05-01T11:14:40.235Z</time></trkpt><trkpt lat="43.9521406" lon="11.9881934"><ele>792.0</ele><time>2026-05-01T11:14:41.222Z</time></trkpt><trkpt lat="43.9522139" lon="11.9882861"><ele>792.4000000000001</ele><time>2026-05-01T11:14:42.227Z</time></trkpt><trkpt lat="43.9522608" lon="11.9883869"><ele>792.8000000000001</ele><time>2026-05-01T11:14:43.235Z</time></trkpt><trkpt lat="43.9523229" lon="11.988502"><ele>793.2</ele><time>2026-05-01T11:14:44.222Z</time></trkpt><trkpt lat="43.9523691" lon="11.9886124"><ele>793.6</ele><time>2026-05-01T11:14:45.236Z</time></trkpt><trkpt lat="43.9523945" lon="11.9887356"><ele>794.0</ele><time>2026-05-01T11:14:46.235Z</time></trkpt><trkpt lat="43.9524237" lon="11.9889033"><ele>794.0</ele><time>2026-05-01T11:14:47.235Z</time></trkpt><trkpt lat="43.9524383" lon="11.9890545"><ele>794.0</ele><time>2026-05-01T11:14:48.224Z</time></trkpt><trkpt lat="43.952473" lon="11.9892188"><ele>794.0</ele><time>2026-05-01T11:14:49.228Z</time></trkpt><trkpt lat="43.95252" lon="11.9893729"><ele>794.0</ele><time>2026-05-01T11:14:50.235Z</time></trkpt><trkpt lat="43.9525639" lon="11.9894908"><ele>794.0</ele><time>2026-05-01T11:14:51.228Z</time></trkpt><trkpt lat="43.9526474" lon="11.9895372"><ele>798.2</ele><time>2026-05-01T11:14:52.235Z</time></trkpt><trkpt lat="43.9527182" lon="11.9896419"><ele>802.4000000000001</ele><time>2026-05-01T11:14:53.235Z</time></trkpt><trkpt lat="43.9527913" lon="11.9897264"><ele>806.6</ele><time>2026-05-01T11:14:54.225Z</time></trkpt><trkpt lat="43.952861" lon="11.9898282"><ele>810.8</ele><time>2026-05-01T11:14:55.226Z</time></trkpt><trkpt lat="43.9529283" lon="11.9899264"><ele>815.0</ele><time>2026-05-01T11:14:56.227Z</time></trkpt><trkpt lat="43.9530083" lon="11.9899485"><ele>815.6</ele><time>2026-05-01T11:14:57.226Z</time></trkpt><trkpt lat="43.953082" lon="11.9900223"><ele>816.2</ele><time>2026-05-01T11:14:58.227Z</time></trkpt><trkpt lat="43.9532242" lon="11.9900785"><ele>816.8</ele><time>2026-05-01T11:15:00.233Z</time></trkpt><trkpt lat="43.953293" lon="11.9900786"><ele>817.4</ele><time>2026-05-01T11:15:01.221Z</time></trkpt><trkpt lat="43.9533649" lon="11.9900835"><ele>818.0</ele><time>2026-05-01T11:15:02.224Z</time></trkpt><trkpt lat="43.9534384" lon="11.9900297"><ele>820.8</ele><time>2026-05-01T11:15:03.221Z</time></trkpt><trkpt lat="43.9535285" lon="11.9900237"><ele>823.5999999999999</ele><time>2026-05-01T11:15:04.235Z</time></trkpt><trkpt lat="43.9536" lon="11.9900777"><ele>826.4000000000001</ele><time>2026-05-01T11:15:05.224Z</time></trkpt><trkpt lat="43.9537002" lon="11.9901104"><ele>829.2</ele><time>2026-05-01T11:15:06.22Z</time></trkpt><trkpt lat="43.9537995" lon="11.9901368"><ele>832.0</ele><time>2026-05-01T11:15:07.222Z</time></trkpt><trkpt lat="43.9539141" lon="11.9900985"><ele>832.0</ele><time>2026-05-01T11:15:08.237Z</time></trkpt><trkpt lat="43.9540082" lon="11.9901061"><ele>832.0</ele><time>2026-05-01T11:15:09.235Z</time></trkpt><trkpt lat="43.9541084" lon="11.9901028"><ele>832.0</ele><time>2026-05-01T11:15:10.236Z</time></trkpt><trkpt lat="43.9541986" lon="11.9900653"><ele>832.0</ele><time>2026-05-01T11:15:11.235Z</time></trkpt><trkpt lat="43.9542878" lon="11.9899824"><ele>832.0</ele><time>2026-05-01T11:15:12.226Z</time></trkpt><trkpt lat="43.9543792" lon="11.9899381"><ele>829.6</ele><time>2026-05-01T11:15:13.224Z</time></trkpt><trkpt lat="43.9544352" lon="11.9898101"><ele>827.2</ele><time>2026-05-01T11:15:14.235Z</time></trkpt><trkpt lat="43.9545053" lon="11.9897205"><ele>824.8</ele><time>2026-05-01T11:15:15.235Z</time></trkpt><trkpt lat="43.954574" lon="11.9896203"><ele>822.4</ele><time>2026-05-01T11:15:16.234Z</time></trkpt><trkpt lat="43.9546357" lon="11.9895231"><ele>820.0</ele><time>2026-05-01T11:15:17.237Z</time></trkpt><trkpt lat="43.9547466" lon="11.9895524"><ele>820.0</ele><time>2026-05-01T11:15:19.246Z</time></trkpt><trkpt lat="43.954847" lon="11.9895919"><ele>820.0</ele><time>2026-05-01T11:15:21.222Z</time></trkpt><trkpt lat="43.9548354" lon="11.989743"><ele>820.0</ele><time>2026-05-01T11:15:22.248Z</time></trkpt><trkpt lat="43.9548684" lon="11.9898899"><ele>820.0</ele><time>2026-05-01T11:15:23.224Z</time></trkpt><trkpt lat="43.9549064" lon="11.9900409"><ele>820.0</ele><time>2026-05-01T11:15:24.228Z</time></trkpt><trkpt lat="43.9549872" lon="11.9902354"><ele>820.8</ele><time>2026-05-01T11:15:25.238Z</time></trkpt><trkpt lat="43.955035" lon="11.990385"><ele>821.6</ele><time>2026-05-01T11:15:26.227Z</time></trkpt><trkpt lat="43.9550706" lon="11.9904977"><ele>822.4000000000001</ele><time>2026-05-01T11:15:27.247Z</time></trkpt><trkpt lat="43.9551191" lon="11.9906258"><ele>823.2</ele><time>2026-05-01T11:15:28.237Z</time></trkpt><trkpt lat="43.9551794" lon="11.9907113"><ele>824.0</ele><time>2026-05-01T11:15:29.222Z</time></trkpt><trkpt lat="43.955213" lon="11.9909035"><ele>819.4000000000001</ele><time>2026-05-01T11:15:31.22Z</time></trkpt><trkpt lat="43.9552329" lon="11.9910269"><ele>814.8</ele><time>2026-05-01T11:15:32.235Z</time></trkpt><trkpt lat="43.9552479" lon="11.9911689"><ele>810.2</ele><time>2026-05-01T11:15:33.222Z</time></trkpt><trkpt lat="43.9552441" lon="11.9913192"><ele>805.5999999999999</ele><time>2026-05-01T11:15:34.219Z</time></trkpt><trkpt lat="43.955223" lon="11.9914251"><ele>801.0</ele><time>2026-05-01T11:15:35.218Z</time></trkpt><trkpt lat="43.9552153" lon="11.9915339"><ele>801.0</ele><time>2026-05-01T11:15:36.22Z</time></trkpt><trkpt lat="43.9552259" lon="11.9916664"><ele>801.0</ele><time>2026-05-01T11:15:37.239Z</time></trkpt><trkpt lat="43.9552735" lon="11.9917901"><ele>801.0</ele><time>2026-05-01T11:15:38.228Z</time></trkpt><trkpt lat="43.9553122" lon="11.9919264"><ele>801.0</ele><time>2026-05-01T11:15:40.219Z</time></trkpt><trkpt lat="43.9553501" lon="11.9920805"><ele>801.0</ele><time>2026-05-01T11:15:42.219Z</time></trkpt><trkpt lat="43.9553901" lon="11.9921765"><ele>801.6666666666666</ele><time>2026-05-01T11:15:43.223Z</time></trkpt><trkpt lat="43.955422" lon="11.9922816"><ele>802.3333333333333</ele><time>2026-05-01T11:15:44.22Z</time></trkpt><trkpt lat="43.9554486" lon="11.9923932"><ele>803.0</ele><time>2026-05-01T11:15:45.235Z</time></trkpt><trkpt lat="43.9555111" lon="11.9924832"><ele>803.6666666666666</ele><time>2026-05-01T11:15:46.219Z</time></trkpt><trkpt lat="43.9555409" lon="11.9925891"><ele>804.3333333333333</ele><time>2026-05-01T11:15:47.229Z</time></trkpt><trkpt lat="43.9556004" lon="11.992689"><ele>805.0</ele><time>2026-05-01T11:15:48.223Z</time></trkpt><trkpt lat="43.9556763" lon="11.9927915"><ele>802.8</ele><time>2026-05-01T11:15:49.221Z</time></trkpt><trkpt lat="43.955742" lon="11.9928937"><ele>800.6</ele><time>2026-05-01T11:15:50.233Z</time></trkpt><trkpt lat="43.9558008" lon="11.9930152"><ele>798.4000000000001</ele><time>2026-05-01T11:15:51.228Z</time></trkpt><trkpt lat="43.9558712" lon="11.9931265"><ele>796.2</ele><time>2026-05-01T11:15:52.226Z</time></trkpt><trkpt lat="43.9559347" lon="11.9932604"><ele>794.0</ele><time>2026-05-01T11:15:53.225Z</time></trkpt><trkpt lat="43.9560014" lon="11.9933995"><ele>791.0</ele><time>2026-05-01T11:15:54.221Z</time></trkpt><trkpt lat="43.9560678" lon="11.9934935"><ele>788.0</ele><time>2026-05-01T11:15:55.224Z</time></trkpt><trkpt lat="43.956149" lon="11.9936114"><ele>785.0</ele><time>2026-05-01T11:15:56.22Z</time></trkpt><trkpt lat="43.9561765" lon="11.9937591"><ele>782.0</ele><time>2026-05-01T11:15:57.228Z</time></trkpt><trkpt lat="43.9562302" lon="11.9938883"><ele>779.0</ele><time>2026-05-01T11:15:58.236Z</time></trkpt><trkpt lat="43.9562721" lon="11.9940446"><ele>779.0000000000001</ele><time>2026-05-01T11:15:59.226Z</time></trkpt><trkpt lat="43.9563034" lon="11.9941533"><ele>779.0</ele><time>2026-05-01T11:16:00.228Z</time></trkpt><trkpt lat="43.9563335" lon="11.9942432"><ele>779.0</ele><time>2026-05-01T11:16:01.236Z</time></trkpt><trkpt lat="43.9563625" lon="11.9943837"><ele>779.0</ele><time>2026-05-01T11:16:03.239Z</time></trkpt><trkpt lat="43.9563674" lon="11.994476"><ele>779.0000000000001</ele><time>2026-05-01T11:16:04.22Z</time></trkpt><trkpt lat="43.9563537" lon="11.9945735"><ele>779.0</ele><time>2026-05-01T11:16:06.223Z</time></trkpt><trkpt lat="43.9563257" lon="11.9946863"><ele>779.3333333333334</ele><time>2026-05-01T11:16:09.223Z</time></trkpt><trkpt lat="43.9563002" lon="11.9947887"><ele>779.6666666666667</ele><time>2026-05-01T11:16:10.226Z</time></trkpt><trkpt lat="43.9562642" lon="11.9949135"><ele>780.0</ele><time>2026-05-01T11:16:12.223Z</time></trkpt><trkpt lat="43.9562472" lon="11.9949991"><ele>780.3333333333333</ele><time>2026-05-01T11:16:14.22Z</time></trkpt><trkpt lat="43.9561988" lon="11.9950716"><ele>780.6666666666666</ele><time>2026-05-01T11:16:19.237Z</time></trkpt><trkpt lat="43.956154" lon="11.9952284"><ele>781.0</ele><time>2026-05-01T11:16:21.231Z</time></trkpt><trkpt lat="43.9561063" lon="11.9954579"><ele>781.0</ele><time>2026-05-01T11:16:23.235Z</time></trkpt><trkpt lat="43.956024" lon="11.9956"><ele>781.0</ele><time>2026-05-01T11:16:24.222Z</time></trkpt><trkpt lat="43.9559942" lon="11.9957143"><ele>781.0</ele><time>2026-05-01T11:16:25.232Z</time></trkpt><trkpt lat="43.9560177" lon="11.995821"><ele>781.0</ele><time>2026-05-01T11:16:26.222Z</time></trkpt><trkpt lat="43.9560446" lon="11.9959266"><ele>781.0</ele><time>2026-05-01T11:16:27.224Z</time></trkpt><trkpt lat="43.956087" lon="11.9960348"><ele>780.75</ele><time>2026-05-01T11:16:28.234Z</time></trkpt><trkpt lat="43.9561291" lon="11.9961861"><ele>780.5</ele><time>2026-05-01T11:16:29.22Z</time></trkpt><trkpt lat="43.9561831" lon="11.9963937"><ele>780.25</ele><time>2026-05-01T11:16:30.242Z</time></trkpt><trkpt lat="43.9562373" lon="11.9965754"><ele>780.0</ele><time>2026-05-01T11:16:31.223Z</time></trkpt><trkpt lat="43.956298" lon="11.9966908"><ele>782.4</ele><time>2026-05-01T11:16:32.224Z</time></trkpt><trkpt lat="43.9563346" lon="11.996806"><ele>784.8</ele><time>2026-05-01T11:16:33.224Z</time></trkpt><trkpt lat="43.9563613" lon="11.9969447"><ele>787.2</ele><time>2026-05-01T11:16:34.226Z</time></trkpt><trkpt lat="43.9563467" lon="11.9970746"><ele>789.6</ele><time>2026-05-01T11:16:35.227Z</time></trkpt><trkpt lat="43.9562929" lon="11.9971587"><ele>792.0</ele><time>2026-05-01T11:16:36.223Z</time></trkpt><trkpt lat="43.9562825" lon="11.997273"><ele>792.0</ele><time>2026-05-01T11:16:37.244Z</time></trkpt><trkpt lat="43.956274" lon="11.9973825"><ele>792.0</ele><time>2026-05-01T11:16:38.236Z</time></trkpt><trkpt lat="43.9562657" lon="11.9975264"><ele>792.0</ele><time>2026-05-01T11:16:39.231Z</time></trkpt><trkpt lat="43.9562531" lon="11.9976615"><ele>792.0</ele><time>2026-05-01T11:16:40.226Z</time></trkpt><trkpt lat="43.9562174" lon="11.9977486"><ele>792.0</ele><time>2026-05-01T11:16:41.225Z</time></trkpt><trkpt lat="43.9561896" lon="11.9978645"><ele>792.0</ele><time>2026-05-01T11:16:42.224Z</time></trkpt><trkpt lat="43.9562097" lon="11.9980366"><ele>794.0</ele><time>2026-05-01T11:16:44.221Z</time></trkpt><trkpt lat="43.9562464" lon="11.9981141"><ele>796.0</ele><time>2026-05-01T11:16:45.222Z</time></trkpt><trkpt lat="43.9563208" lon="11.9981935"><ele>798.0</ele><time>2026-05-01T11:16:46.222Z</time></trkpt><trkpt lat="43.9563808" lon="11.9983087"><ele>800.0</ele><time>2026-05-01T11:16:47.22Z</time></trkpt><trkpt lat="43.9564947" lon="11.9983706"><ele>802.0</ele><time>2026-05-01T11:16:48.235Z</time></trkpt><trkpt lat="43.9565807" lon="11.9984698"><ele>802.8</ele><time>2026-05-01T11:16:49.223Z</time></trkpt><trkpt lat="43.9566543" lon="11.9985393"><ele>803.6</ele><time>2026-05-01T11:16:50.221Z</time></trkpt><trkpt lat="43.9567587" lon="11.9986197"><ele>804.4</ele><time>2026-05-01T11:16:51.236Z</time></trkpt><trkpt lat="43.9568248" lon="11.9986944"><ele>805.1999999999999</ele><time>2026-05-01T11:16:52.222Z</time></trkpt><trkpt lat="43.9568909" lon="11.9987556"><ele>806.0</ele><time>2026-05-01T11:16:53.238Z</time></trkpt><trkpt lat="43.9569704" lon="11.9988381"><ele>807.25</ele><time>2026-05-01T11:16:54.236Z</time></trkpt><trkpt lat="43.9570617" lon="11.9989768"><ele>808.5</ele><time>2026-05-01T11:16:55.251Z</time></trkpt><trkpt lat="43.9571572" lon="11.9990932"><ele>809.75</ele><time>2026-05-01T11:16:56.235Z</time></trkpt><trkpt lat="43.9572602" lon="11.9992242"><ele>811.0</ele><time>2026-05-01T11:16:57.235Z</time></trkpt><trkpt lat="43.9573325" lon="11.9993002"><ele>812.1999999999999</ele><time>2026-05-01T11:16:58.237Z</time></trkpt><trkpt lat="43.9573955" lon="11.9994268"><ele>813.4</ele><time>2026-05-01T11:16:59.228Z</time></trkpt><trkpt lat="43.957461" lon="11.9995363"><ele>814.6</ele><time>2026-05-01T11:17:00.241Z</time></trkpt><trkpt lat="43.9575118" lon="11.9996701"><ele>815.8</ele><time>2026-05-01T11:17:01.229Z</time></trkpt><trkpt lat="43.9575451" lon="11.9998014"><ele>817.0</ele><time>2026-05-01T11:17:02.227Z</time></trkpt><trkpt lat="43.9575252" lon="11.9999048"><ele>816.9999999999999</ele><time>2026-05-01T11:17:03.237Z</time></trkpt><trkpt lat="43.9575126" lon="11.999995"><ele>817.0</ele><time>2026-05-01T11:17:04.22Z</time></trkpt><trkpt lat="43.9575116" lon="12.0000889"><ele>817.0</ele><time>2026-05-01T11:17:05.245Z</time></trkpt><trkpt lat="43.9574507" lon="12.0002186"><ele>817.0</ele><time>2026-05-01T11:17:06.236Z</time></trkpt><trkpt lat="43.9574075" lon="12.0003124"><ele>816.9999999999999</ele><time>2026-05-01T11:17:07.22Z</time></trkpt><trkpt lat="43.957333" lon="12.0003724"><ele>817.0</ele><time>2026-05-01T11:17:08.224Z</time></trkpt><trkpt lat="43.9572307" lon="12.0004476"><ele>817.0</ele><time>2026-05-01T11:17:09.223Z</time></trkpt><trkpt lat="43.9571411" lon="12.0005096"><ele>817.0</ele><time>2026-05-01T11:17:10.235Z</time></trkpt><trkpt lat="43.9570561" lon="12.000578"><ele>817.0</ele><time>2026-05-01T11:17:11.222Z</time></trkpt><trkpt lat="43.9569893" lon="12.0006569"><ele>817.0</ele><time>2026-05-01T11:17:12.236Z</time></trkpt><trkpt lat="43.9569233" lon="12.0007233"><ele>817.0</ele><time>2026-05-01T11:17:13.239Z</time></trkpt><trkpt lat="43.9569311" lon="12.0008383"><ele>818.0</ele><time>2026-05-01T11:17:14.221Z</time></trkpt><trkpt lat="43.9569054" lon="12.0009605"><ele>819.0</ele><time>2026-05-01T11:17:15.227Z</time></trkpt><trkpt lat="43.9568793" lon="12.0010971"><ele>820.0</ele><time>2026-05-01T11:17:16.223Z</time></trkpt><trkpt lat="43.9568361" lon="12.0011923"><ele>821.0</ele><time>2026-05-01T11:17:17.239Z</time></trkpt><trkpt lat="43.9567763" lon="12.0013116"><ele>822.0</ele><time>2026-05-01T11:17:18.236Z</time></trkpt><trkpt lat="43.9567043" lon="12.00142"><ele>821.8</ele><time>2026-05-01T11:17:19.234Z</time></trkpt><trkpt lat="43.9566732" lon="12.0014992"><ele>821.6</ele><time>2026-05-01T11:17:20.236Z</time></trkpt><trkpt lat="43.9566781" lon="12.0016488"><ele>821.4</ele><time>2026-05-01T11:17:21.224Z</time></trkpt><trkpt lat="43.956674" lon="12.0017979"><ele>821.1999999999999</ele><time>2026-05-01T11:17:22.239Z</time></trkpt><trkpt lat="43.9566525" lon="12.0019501"><ele>821.0</ele><time>2026-05-01T11:17:23.233Z</time></trkpt><trkpt lat="43.9566458" lon="12.0021295"><ele>823.0</ele><time>2026-05-01T11:17:24.235Z</time></trkpt><trkpt lat="43.956642" lon="12.0022902"><ele>825.0</ele><time>2026-05-01T11:17:25.221Z</time></trkpt><trkpt lat="43.9566375" lon="12.0024571"><ele>827.0</ele><time>2026-05-01T11:17:26.224Z</time></trkpt><trkpt lat="43.9566857" lon="12.0025743"><ele>829.0</ele><time>2026-05-01T11:17:27.234Z</time></trkpt><trkpt lat="43.9567577" lon="12.0026581"><ele>831.0</ele><time>2026-05-01T11:17:29.232Z</time></trkpt><trkpt lat="43.9568076" lon="12.0027281"><ele>832.25</ele><time>2026-05-01T11:17:30.232Z</time></trkpt><trkpt lat="43.9568624" lon="12.0027853"><ele>833.5</ele><time>2026-05-01T11:17:31.225Z</time></trkpt><trkpt lat="43.9570109" lon="12.0028838"><ele>834.75</ele><time>2026-05-01T11:17:32.248Z</time></trkpt><trkpt lat="43.9571145" lon="12.002961"><ele>836.0</ele><time>2026-05-01T11:17:33.237Z</time></trkpt><trkpt lat="43.9572159" lon="12.0030277"><ele>836.0</ele><time>2026-05-01T11:17:34.22Z</time></trkpt><trkpt lat="43.9573387" lon="12.003055"><ele>836.0</ele><time>2026-05-01T11:17:35.226Z</time></trkpt><trkpt lat="43.9574493" lon="12.0030646"><ele>836.0</ele><time>2026-05-01T11:17:36.222Z</time></trkpt><trkpt lat="43.9575557" lon="12.0031255"><ele>836.0</ele><time>2026-05-01T11:17:37.232Z</time></trkpt><trkpt lat="43.9576695" lon="12.0031813"><ele>833.5</ele><time>2026-05-01T11:17:38.227Z</time></trkpt><trkpt lat="43.9577837" lon="12.0032478"><ele>831.0</ele><time>2026-05-01T11:17:39.223Z</time></trkpt><trkpt lat="43.9579116" lon="12.003309"><ele>828.5</ele><time>2026-05-01T11:17:40.22Z</time></trkpt><trkpt lat="43.9579921" lon="12.003452"><ele>826.0</ele><time>2026-05-01T11:17:41.238Z</time></trkpt><trkpt lat="43.9580832" lon="12.0035822"><ele>826.0</ele><time>2026-05-01T11:17:42.224Z</time></trkpt><trkpt lat="43.9581655" lon="12.0037062"><ele>826.0</ele><time>2026-05-01T11:17:43.22Z</time></trkpt><trkpt lat="43.9582104" lon="12.0038445"><ele>826.0</ele><time>2026-05-01T11:17:44.224Z</time></trkpt><trkpt lat="43.9582392" lon="12.0039388"><ele>826.0</ele><time>2026-05-01T11:17:45.22Z</time></trkpt><trkpt lat="43.9581987" lon="12.0040897"><ele>826.0</ele><time>2026-05-01T11:17:46.227Z</time></trkpt><trkpt lat="43.9581569" lon="12.0041952"><ele>827.1999999999999</ele><time>2026-05-01T11:17:47.236Z</time></trkpt><trkpt lat="43.9581372" lon="12.0043051"><ele>828.4</ele><time>2026-05-01T11:17:48.236Z</time></trkpt><trkpt lat="43.9580787" lon="12.0044086"><ele>829.6</ele><time>2026-05-01T11:17:49.236Z</time></trkpt><trkpt lat="43.9579885" lon="12.0044699"><ele>830.8</ele><time>2026-05-01T11:17:50.224Z</time></trkpt><trkpt lat="43.9579065" lon="12.0045434"><ele>832.0</ele><time>2026-05-01T11:17:51.225Z</time></trkpt><trkpt lat="43.9578421" lon="12.0046174"><ele>832.0</ele><time>2026-05-01T11:17:52.235Z</time></trkpt><trkpt lat="43.9577765" lon="12.0047624"><ele>832.0</ele><time>2026-05-01T11:17:53.224Z</time></trkpt><trkpt lat="43.9577217" lon="12.0048854"><ele>832.0</ele><time>2026-05-01T11:17:54.229Z</time></trkpt><trkpt lat="43.9576766" lon="12.0049731"><ele>832.0</ele><time>2026-05-01T11:17:55.235Z</time></trkpt><trkpt lat="43.9576165" lon="12.0050649"><ele>832.0</ele><time>2026-05-01T11:17:56.235Z</time></trkpt><trkpt lat="43.9575695" lon="12.0051349"><ele>829.2</ele><time>2026-05-01T11:17:57.232Z</time></trkpt><trkpt lat="43.957518" lon="12.0052527"><ele>826.4000000000001</ele><time>2026-05-01T11:17:58.239Z</time></trkpt><trkpt lat="43.9574397" lon="12.0053502"><ele>823.5999999999999</ele><time>2026-05-01T11:17:59.228Z</time></trkpt><trkpt lat="43.9573134" lon="12.005336"><ele>820.8</ele><time>2026-05-01T11:18:00.235Z</time></trkpt><trkpt lat="43.9572623" lon="12.0054008"><ele>818.0</ele><time>2026-05-01T11:18:01.235Z</time></trkpt><trkpt lat="43.9572037" lon="12.0054447"><ele>818.0</ele><time>2026-05-01T11:18:02.221Z</time></trkpt><trkpt lat="43.9571489" lon="12.0055816"><ele>818.0</ele><time>2026-05-01T11:18:04.224Z</time></trkpt><trkpt lat="43.9571306" lon="12.0056893"><ele>818.0</ele><time>2026-05-01T11:18:05.231Z</time></trkpt><trkpt lat="43.957134" lon="12.0058463"><ele>818.0</ele><time>2026-05-01T11:18:06.22Z</time></trkpt><trkpt lat="43.9571977" lon="12.0059977"><ele>818.0</ele><time>2026-05-01T11:18:07.225Z</time></trkpt><trkpt lat="43.9572023" lon="12.0061248"><ele>816.8</ele><time>2026-05-01T11:18:08.237Z</time></trkpt><trkpt lat="43.9572257" lon="12.0062553"><ele>815.5999999999999</ele><time>2026-05-01T11:18:09.236Z</time></trkpt><trkpt lat="43.9572293" lon="12.0063511"><ele>814.4000000000001</ele><time>2026-05-01T11:18:10.226Z</time></trkpt><trkpt lat="43.9571726" lon="12.0064151"><ele>813.2</ele><time>2026-05-01T11:18:11.241Z</time></trkpt><trkpt lat="43.9571239" lon="12.0064752"><ele>812.0</ele><time>2026-05-01T11:18:12.236Z</time></trkpt><trkpt lat="43.956963" lon="12.0064827"><ele>812.0</ele><time>2026-05-01T11:18:14.239Z</time></trkpt><trkpt lat="43.9568665" lon="12.0064697"><ele>812.0</ele><time>2026-05-01T11:18:15.221Z</time></trkpt><trkpt lat="43.95673" lon="12.0063716"><ele>812.0</ele><time>2026-05-01T11:18:16.228Z</time></trkpt><trkpt lat="43.956642" lon="12.0063073"><ele>812.0</ele><time>2026-05-01T11:18:17.236Z</time></trkpt><trkpt lat="43.9565032" lon="12.0063019"><ele>809.75</ele><time>2026-05-01T11:18:18.233Z</time></trkpt><trkpt lat="43.956388" lon="12.0062621"><ele>807.5</ele><time>2026-05-01T11:18:19.24Z</time></trkpt><trkpt lat="43.9562797" lon="12.0062668"><ele>805.25</ele><time>2026-05-01T11:18:20.236Z</time></trkpt><trkpt lat="43.9561781" lon="12.0062815"><ele>803.0</ele><time>2026-05-01T11:18:21.224Z</time></trkpt><trkpt lat="43.95602" lon="12.0062473"><ele>803.0</ele><time>2026-05-01T11:18:22.226Z</time></trkpt><trkpt lat="43.9559112" lon="12.0062638"><ele>803.0</ele><time>2026-05-01T11:18:23.236Z</time></trkpt><trkpt lat="43.9558502" lon="12.0063076"><ele>803.0</ele><time>2026-05-01T11:18:24.235Z</time></trkpt><trkpt lat="43.9558288" lon="12.0064271"><ele>803.0</ele><time>2026-05-01T11:18:25.225Z</time></trkpt><trkpt lat="43.955798" lon="12.0065034"><ele>803.0</ele><time>2026-05-01T11:18:26.225Z</time></trkpt><trkpt lat="43.9558415" lon="12.0066981"><ele>805.5</ele><time>2026-05-01T11:18:28.223Z</time></trkpt><trkpt lat="43.9560139" lon="12.0068465"><ele>808.0</ele><time>2026-05-01T11:18:29.242Z</time></trkpt><trkpt lat="43.9560754" lon="12.0069473"><ele>810.5</ele><time>2026-05-01T11:18:30.225Z</time></trkpt><trkpt lat="43.9561254" lon="12.0070578"><ele>813.0</ele><time>2026-05-01T11:18:31.224Z</time></trkpt><trkpt lat="43.9561523" lon="12.0071996"><ele>813.0</ele><time>2026-05-01T11:18:32.225Z</time></trkpt><trkpt lat="43.9561812" lon="12.0073146"><ele>813.0</ele><time>2026-05-01T11:18:33.227Z</time></trkpt><trkpt lat="43.9561851" lon="12.0074671"><ele>813.0</ele><time>2026-05-01T11:18:34.225Z</time></trkpt><trkpt lat="43.9562134" lon="12.0075731"><ele>813.0</ele><time>2026-05-01T11:18:35.23Z</time></trkpt><trkpt lat="43.9562267" lon="12.0076925"><ele>813.0</ele><time>2026-05-01T11:18:36.224Z</time></trkpt><trkpt lat="43.9562491" lon="12.0078048"><ele>810.4</ele><time>2026-05-01T11:18:37.226Z</time></trkpt><trkpt lat="43.9562355" lon="12.0079601"><ele>807.8</ele><time>2026-05-01T11:18:39.227Z</time></trkpt><trkpt lat="43.9562428" lon="12.0080884"><ele>805.2</ele><time>2026-05-01T11:18:41.236Z</time></trkpt><trkpt lat="43.9561844" lon="12.0080141"><ele>802.6</ele><time>2026-05-01T11:18:43.245Z</time></trkpt><trkpt lat="43.9560476" lon="12.0079853"><ele>800.0</ele><time>2026-05-01T11:18:44.224Z</time></trkpt><trkpt lat="43.9560067" lon="12.0079109"><ele>796.6666666666667</ele><time>2026-05-01T11:18:46.242Z</time></trkpt><trkpt lat="43.9558644" lon="12.0077738"><ele>793.3333333333333</ele><time>2026-05-01T11:18:49.241Z</time></trkpt><trkpt lat="43.9557177" lon="12.0077054"><ele>790.0</ele><time>2026-05-01T11:18:50.238Z</time></trkpt><trkpt lat="43.9555573" lon="12.0076479"><ele>790.0</ele><time>2026-05-01T11:18:51.225Z</time></trkpt><trkpt lat="43.9554322" lon="12.0075928"><ele>790.0</ele><time>2026-05-01T11:18:52.222Z</time></trkpt><trkpt lat="43.9553512" lon="12.0075168"><ele>790.0</ele><time>2026-05-01T11:18:53.227Z</time></trkpt><trkpt lat="43.9552818" lon="12.0074241"><ele>790.0</ele><time>2026-05-01T11:18:54.236Z</time></trkpt><trkpt lat="43.955228" lon="12.0073216"><ele>790.0</ele><time>2026-05-01T11:18:55.224Z</time></trkpt><trkpt lat="43.9551786" lon="12.0072368"><ele>791.4</ele><time>2026-05-01T11:18:56.233Z</time></trkpt><trkpt lat="43.9551135" lon="12.0071243"><ele>792.8</ele><time>2026-05-01T11:18:57.235Z</time></trkpt><trkpt lat="43.9550761" lon="12.0070131"><ele>794.2</ele><time>2026-05-01T11:18:58.236Z</time></trkpt><trkpt lat="43.9549933" lon="12.0069009"><ele>795.6</ele><time>2026-05-01T11:18:59.236Z</time></trkpt><trkpt lat="43.9549242" lon="12.0067808"><ele>797.0</ele><time>2026-05-01T11:19:00.228Z</time></trkpt><trkpt lat="43.9548454" lon="12.0066654"><ele>788.0</ele><time>2026-05-01T11:19:01.223Z</time></trkpt><trkpt lat="43.9547546" lon="12.00657"><ele>779.0</ele><time>2026-05-01T11:19:02.235Z</time></trkpt><trkpt lat="43.9546688" lon="12.0064634"><ele>770.0</ele><time>2026-05-01T11:19:03.224Z</time></trkpt><trkpt lat="43.954576" lon="12.0063537"><ele>761.0</ele><time>2026-05-01T11:19:04.236Z</time></trkpt><trkpt lat="43.9544958" lon="12.0062455"><ele>761.0</ele><time>2026-05-01T11:19:05.258Z</time></trkpt><trkpt lat="43.9544259" lon="12.0061362"><ele>761.0</ele><time>2026-05-01T11:19:06.226Z</time></trkpt><trkpt lat="43.9543482" lon="12.0060207"><ele>761.0</ele><time>2026-05-01T11:19:07.234Z</time></trkpt><trkpt lat="43.9542842" lon="12.0059379"><ele>761.0</ele><time>2026-05-01T11:19:08.237Z</time></trkpt><trkpt lat="43.9541813" lon="12.0058292"><ele>761.0</ele><time>2026-05-01T11:19:10.228Z</time></trkpt><trkpt lat="43.9541228" lon="12.0057328"><ele>756.1999999999999</ele><time>2026-05-01T11:19:11.234Z</time></trkpt><trkpt lat="43.9540358" lon="12.0056708"><ele>751.4</ele><time>2026-05-01T11:19:12.227Z</time></trkpt><trkpt lat="43.9539473" lon="12.0056157"><ele>746.6</ele><time>2026-05-01T11:19:13.223Z</time></trkpt><trkpt lat="43.9538624" lon="12.0055569"><ele>741.8</ele><time>2026-05-01T11:19:14.235Z</time></trkpt><trkpt lat="43.9538017" lon="12.0054794"><ele>737.0</ele><time>2026-05-01T11:19:15.224Z</time></trkpt><trkpt lat="43.9537136" lon="12.0054743"><ele>737.0</ele><time>2026-05-01T11:19:16.236Z</time></trkpt><trkpt lat="43.9536449" lon="12.0054233"><ele>737.0</ele><time>2026-05-01T11:19:17.236Z</time></trkpt><trkpt lat="43.9535718" lon="12.0053574"><ele>737.0</ele><time>2026-05-01T11:19:18.223Z</time></trkpt><trkpt lat="43.9534711" lon="12.0052868"><ele>737.0</ele><time>2026-05-01T11:19:19.234Z</time></trkpt><trkpt lat="43.9533512" lon="12.0051735"><ele>737.0</ele><time>2026-05-01T11:19:20.236Z</time></trkpt><trkpt lat="43.9532697" lon="12.0050564"><ele>733.8</ele><time>2026-05-01T11:19:21.234Z</time></trkpt><trkpt lat="43.9531755" lon="12.0049873"><ele>730.6</ele><time>2026-05-01T11:19:22.245Z</time></trkpt><trkpt lat="43.953086" lon="12.0049363"><ele>727.4</ele><time>2026-05-01T11:19:23.222Z</time></trkpt><trkpt lat="43.9529906" lon="12.0048602"><ele>724.1999999999999</ele><time>2026-05-01T11:19:24.22Z</time></trkpt><trkpt lat="43.9529111" lon="12.0047564"><ele>721.0</ele><time>2026-05-01T11:19:25.228Z</time></trkpt><trkpt lat="43.9528354" lon="12.0046621"><ele>721.0</ele><time>2026-05-01T11:19:26.231Z</time></trkpt><trkpt lat="43.9527461" lon="12.0045448"><ele>721.0</ele><time>2026-05-01T11:19:27.235Z</time></trkpt><trkpt lat="43.9526918" lon="12.0044393"><ele>721.0</ele><time>2026-05-01T11:19:28.221Z</time></trkpt><trkpt lat="43.9526368" lon="12.0043372"><ele>721.0</ele><time>2026-05-01T11:19:29.229Z</time></trkpt><trkpt lat="43.9525899" lon="12.0042675"><ele>721.0</ele><time>2026-05-01T11:19:30.223Z</time></trkpt><trkpt lat="43.9525476" lon="12.0041755"><ele>719.1999999999999</ele><time>2026-05-01T11:19:31.237Z</time></trkpt><trkpt lat="43.9524828" lon="12.0041003"><ele>717.4</ele><time>2026-05-01T11:19:32.235Z</time></trkpt><trkpt lat="43.9524288" lon="12.0040177"><ele>715.6</ele><time>2026-05-01T11:19:33.236Z</time></trkpt><trkpt lat="43.9523638" lon="12.0039333"><ele>713.8</ele><time>2026-05-01T11:19:34.235Z</time></trkpt><trkpt lat="43.9522885" lon="12.0038835"><ele>712.0</ele><time>2026-05-01T11:19:35.222Z</time></trkpt><trkpt lat="43.9521595" lon="12.0038224"><ele>712.0</ele><time>2026-05-01T11:19:36.237Z</time></trkpt><trkpt lat="43.9520359" lon="12.0038421"><ele>712.0</ele><time>2026-05-01T11:19:37.221Z</time></trkpt><trkpt lat="43.9519205" lon="12.0038557"><ele>712.0</ele><time>2026-05-01T11:19:38.234Z</time></trkpt><trkpt lat="43.9517865" lon="12.0038412"><ele>712.0</ele><time>2026-05-01T11:19:39.223Z</time></trkpt><trkpt lat="43.9516754" lon="12.0039291"><ele>713.6</ele><time>2026-05-01T11:19:40.225Z</time></trkpt><trkpt lat="43.9515843" lon="12.0039114"><ele>715.2</ele><time>2026-05-01T11:19:41.235Z</time></trkpt><trkpt lat="43.9514954" lon="12.0038711"><ele>716.8</ele><time>2026-05-01T11:19:42.234Z</time></trkpt><trkpt lat="43.9513831" lon="12.0038415"><ele>718.4</ele><time>2026-05-01T11:19:43.237Z</time></trkpt><trkpt lat="43.9513214" lon="12.0037893"><ele>720.0</ele><time>2026-05-01T11:19:44.234Z</time></trkpt><trkpt lat="43.9512061" lon="12.0036736"><ele>720.0</ele><time>2026-05-01T11:19:45.222Z</time></trkpt><trkpt lat="43.951142" lon="12.0036192"><ele>720.0</ele><time>2026-05-01T11:19:46.234Z</time></trkpt><trkpt lat="43.9510697" lon="12.0035598"><ele>720.0</ele><time>2026-05-01T11:19:47.236Z</time></trkpt><trkpt lat="43.9509832" lon="12.0034791"><ele>720.0</ele><time>2026-05-01T11:19:48.228Z</time></trkpt><trkpt lat="43.9509097" lon="12.0034177"><ele>720.0</ele><time>2026-05-01T11:19:49.234Z</time></trkpt><trkpt lat="43.9508904" lon="12.0035018"><ele>720.0</ele><time>2026-05-01T11:19:50.223Z</time></trkpt><trkpt lat="43.9508064" lon="12.003518"><ele>718.8</ele><time>2026-05-01T11:19:52.234Z</time></trkpt><trkpt lat="43.9507365" lon="12.0035514"><ele>717.6</ele><time>2026-05-01T11:19:54.221Z</time></trkpt><trkpt lat="43.9507083" lon="12.0036692"><ele>716.4000000000001</ele><time>2026-05-01T11:20:30.243Z</time></trkpt><trkpt lat="43.9506109" lon="12.0037986"><ele>715.2</ele><time>2026-05-01T11:20:32.235Z</time></trkpt><trkpt lat="43.9505516" lon="12.0038569"><ele>714.0</ele><time>2026-05-01T11:20:33.225Z</time></trkpt><trkpt lat="43.9504702" lon="12.0039489"><ele>714.0</ele><time>2026-05-01T11:20:34.225Z</time></trkpt><trkpt lat="43.9503833" lon="12.0040238"><ele>714.0</ele><time>2026-05-01T11:20:35.222Z</time></trkpt><trkpt lat="43.9502811" lon="12.0040852"><ele>714.0</ele><time>2026-05-01T11:20:36.223Z</time></trkpt><trkpt lat="43.9502145" lon="12.0041357"><ele>714.0</ele><time>2026-05-01T11:20:37.226Z</time></trkpt><trkpt lat="43.9501344" lon="12.0042496"><ele>714.0</ele><time>2026-05-01T11:20:38.224Z</time></trkpt><trkpt lat="43.9501016" lon="12.0043498"><ele>714.0</ele><time>2026-05-01T11:20:39.235Z</time></trkpt><trkpt lat="43.9500888" lon="12.0044819"><ele>714.0</ele><time>2026-05-01T11:20:40.223Z</time></trkpt><trkpt lat="43.9500696" lon="12.0046543"><ele>714.0</ele><time>2026-05-01T11:20:41.226Z</time></trkpt><trkpt lat="43.9500603" lon="12.0047701"><ele>714.0</ele><time>2026-05-01T11:20:42.225Z</time></trkpt><trkpt lat="43.9500495" lon="12.0048948"><ele>714.0</ele><time>2026-05-01T11:20:43.236Z</time></trkpt><trkpt lat="43.9499958" lon="12.0050421"><ele>714.0</ele><time>2026-05-01T11:20:45.226Z</time></trkpt><trkpt lat="43.949938" lon="12.005167"><ele>714.0</ele><time>2026-05-01T11:20:47.225Z</time></trkpt><trkpt lat="43.949891" lon="12.0053032"><ele>714.0</ele><time>2026-05-01T11:20:49.236Z</time></trkpt><trkpt lat="43.9498451" lon="12.0054166"><ele>714.0</ele><time>2026-05-01T11:20:51.234Z</time></trkpt><trkpt lat="43.9498082" lon="12.0055337"><ele>714.0</ele><time>2026-05-01T11:20:53.224Z</time></trkpt><trkpt lat="43.9497549" lon="12.0056615"><ele>714.0</ele><time>2026-05-01T11:20:55.235Z</time></trkpt><trkpt lat="43.9497084" lon="12.0057257"><ele>714.0</ele><time>2026-05-01T11:20:56.237Z</time></trkpt><trkpt lat="43.9496284" lon="12.0058401"><ele>714.0</ele><time>2026-05-01T11:20:58.222Z</time></trkpt><trkpt lat="43.9495645" lon="12.0059532"><ele>714.0</ele><time>2026-05-01T11:21:00.237Z</time></trkpt><trkpt lat="43.9495313" lon="12.0060895"><ele>714.0</ele><time>2026-05-01T11:21:02.237Z</time></trkpt><trkpt lat="43.9494826" lon="12.0062074"><ele>716.6</ele><time>2026-05-01T11:21:04.222Z</time></trkpt><trkpt lat="43.949451" lon="12.0063388"><ele>719.2</ele><time>2026-05-01T11:21:06.236Z</time></trkpt><trkpt lat="43.9494237" lon="12.006466"><ele>721.8000000000001</ele><time>2026-05-01T11:21:08.226Z</time></trkpt><trkpt lat="43.949318" lon="12.0065584"><ele>724.4000000000001</ele><time>2026-05-01T11:21:10.226Z</time></trkpt><trkpt lat="43.9492357" lon="12.0065985"><ele>727.0</ele><time>2026-05-01T11:21:11.225Z</time></trkpt><trkpt lat="43.9491712" lon="12.006574"><ele>721.1666666666667</ele><time>2026-05-01T11:21:12.228Z</time></trkpt><trkpt lat="43.9491028" lon="12.0065757"><ele>715.3333333333334</ele><time>2026-05-01T11:21:13.223Z</time></trkpt><trkpt lat="43.9490391" lon="12.0065742"><ele>709.5</ele><time>2026-05-01T11:21:14.222Z</time></trkpt><trkpt lat="43.9489665" lon="12.006544"><ele>703.6666666666666</ele><time>2026-05-01T11:21:15.226Z</time></trkpt><trkpt lat="43.9488838" lon="12.0064982"><ele>697.8333333333333</ele><time>2026-05-01T11:21:16.224Z</time></trkpt><trkpt lat="43.9488153" lon="12.0064634"><ele>692.0</ele><time>2026-05-01T11:21:17.224Z</time></trkpt><trkpt lat="43.9487345" lon="12.00642"><ele>692.0</ele><time>2026-05-01T11:21:18.22Z</time></trkpt><trkpt lat="43.9486504" lon="12.0063936"><ele>692.0</ele><time>2026-05-01T11:21:19.221Z</time></trkpt><trkpt lat="43.948585" lon="12.0063896"><ele>692.0</ele><time>2026-05-01T11:21:20.226Z</time></trkpt><trkpt lat="43.9484872" lon="12.0063813"><ele>692.0</ele><time>2026-05-01T11:21:21.225Z</time></trkpt><trkpt lat="43.9484119" lon="12.0063709"><ele>692.0</ele><time>2026-05-01T11:21:22.236Z</time></trkpt><trkpt lat="43.948337" lon="12.0063888"><ele>692.0</ele><time>2026-05-01T11:21:23.235Z</time></trkpt><trkpt lat="43.9482662" lon="12.0063885"><ele>689.1666666666666</ele><time>2026-05-01T11:21:24.225Z</time></trkpt><trkpt lat="43.9481541" lon="12.0063821"><ele>686.3333333333333</ele><time>2026-05-01T11:21:25.227Z</time></trkpt><trkpt lat="43.9480942" lon="12.0064091"><ele>683.5</ele><time>2026-05-01T11:21:26.226Z</time></trkpt><trkpt lat="43.9480118" lon="12.0064364"><ele>680.6666666666666</ele><time>2026-05-01T11:21:27.237Z</time></trkpt><trkpt lat="43.9479442" lon="12.0064732"><ele>677.8333333333334</ele><time>2026-05-01T11:21:28.222Z</time></trkpt><trkpt lat="43.9478965" lon="12.0065547"><ele>675.0</ele><time>2026-05-01T11:21:29.236Z</time></trkpt><trkpt lat="43.9478497" lon="12.0066493"><ele>679.3333333333334</ele><time>2026-05-01T11:21:30.237Z</time></trkpt><trkpt lat="43.9478336" lon="12.0067426"><ele>683.6666666666666</ele><time>2026-05-01T11:21:31.238Z</time></trkpt><trkpt lat="43.9477959" lon="12.0068592"><ele>688.0</ele><time>2026-05-01T11:21:32.228Z</time></trkpt><trkpt lat="43.9477558" lon="12.0069718"><ele>692.3333333333333</ele><time>2026-05-01T11:21:33.228Z</time></trkpt><trkpt lat="43.9477044" lon="12.0070859"><ele>696.6666666666666</ele><time>2026-05-01T11:21:34.223Z</time></trkpt><trkpt lat="43.9476981" lon="12.0071746"><ele>701.0</ele><time>2026-05-01T11:21:35.236Z</time></trkpt><trkpt lat="43.9476969" lon="12.0073015"><ele>701.0</ele><time>2026-05-01T11:21:36.237Z</time></trkpt><trkpt lat="43.9476937" lon="12.0074341"><ele>701.0</ele><time>2026-05-01T11:21:37.236Z</time></trkpt><trkpt lat="43.9476907" lon="12.0075693"><ele>701.0</ele><time>2026-05-01T11:21:38.236Z</time></trkpt><trkpt lat="43.947686" lon="12.0076835"><ele>701.0</ele><time>2026-05-01T11:21:39.237Z</time></trkpt><trkpt lat="43.9476799" lon="12.0077859"><ele>701.0</ele><time>2026-05-01T11:21:40.237Z</time></trkpt><trkpt lat="43.9476723" lon="12.0078785"><ele>701.0</ele><time>2026-05-01T11:21:41.238Z</time></trkpt><trkpt lat="43.94765" lon="12.008034"><ele>704.8</ele><time>2026-05-01T11:21:43.239Z</time></trkpt><trkpt lat="43.9476463" lon="12.0081357"><ele>708.5999999999999</ele><time>2026-05-01T11:21:44.236Z</time></trkpt><trkpt lat="43.9476305" lon="12.0082478"><ele>712.4</ele><time>2026-05-01T11:21:45.236Z</time></trkpt><trkpt lat="43.9476226" lon="12.0083857"><ele>716.2</ele><time>2026-05-01T11:21:46.235Z</time></trkpt><trkpt lat="43.9476058" lon="12.008519"><ele>720.0</ele><time>2026-05-01T11:21:47.225Z</time></trkpt><trkpt lat="43.9475713" lon="12.0086451"><ele>716.8</ele><time>2026-05-01T11:21:48.236Z</time></trkpt><trkpt lat="43.9475204" lon="12.008777"><ele>713.6</ele><time>2026-05-01T11:21:49.226Z</time></trkpt><trkpt lat="43.9474706" lon="12.0089222"><ele>710.4000000000001</ele><time>2026-05-01T11:21:50.224Z</time></trkpt><trkpt lat="43.9474816" lon="12.0090422"><ele>707.2</ele><time>2026-05-01T11:21:51.236Z</time></trkpt><trkpt lat="43.9474362" lon="12.0092195"><ele>704.0</ele><time>2026-05-01T11:21:52.238Z</time></trkpt><trkpt lat="43.9474036" lon="12.0094196"><ele>704.0</ele><time>2026-05-01T11:21:53.246Z</time></trkpt><trkpt lat="43.9473712" lon="12.0096034"><ele>704.0</ele><time>2026-05-01T11:21:54.238Z</time></trkpt><trkpt lat="43.9473594" lon="12.0097613"><ele>704.0</ele><time>2026-05-01T11:21:55.238Z</time></trkpt><trkpt lat="43.9473121" lon="12.0098984"><ele>704.0</ele><time>2026-05-01T11:21:56.227Z</time></trkpt><trkpt lat="43.9473078" lon="12.0100509"><ele>706.4000000000001</ele><time>2026-05-01T11:21:57.237Z</time></trkpt><trkpt lat="43.9472871" lon="12.0101872"><ele>708.8</ele><time>2026-05-01T11:21:58.24Z</time></trkpt><trkpt lat="43.9472539" lon="12.0103204"><ele>711.2</ele><time>2026-05-01T11:21:59.224Z</time></trkpt><trkpt lat="43.9471864" lon="12.0103734"><ele>713.5999999999999</ele><time>2026-05-01T11:22:00.237Z</time></trkpt><trkpt lat="43.9470987" lon="12.0104387"><ele>716.0</ele><time>2026-05-01T11:22:01.236Z</time></trkpt><trkpt lat="43.947026" lon="12.0104901"><ele>716.0</ele><time>2026-05-01T11:22:02.235Z</time></trkpt><trkpt lat="43.9469313" lon="12.0105085"><ele>716.0</ele><time>2026-05-01T11:22:03.224Z</time></trkpt><trkpt lat="43.9468436" lon="12.0105354"><ele>716.0</ele><time>2026-05-01T11:22:04.237Z</time></trkpt><trkpt lat="43.9467416" lon="12.0105369"><ele>716.0</ele><time>2026-05-01T11:22:05.237Z</time></trkpt><trkpt lat="43.9466251" lon="12.0105582"><ele>716.0</ele><time>2026-05-01T11:22:06.223Z</time></trkpt><trkpt lat="43.9465541" lon="12.0105711"><ele>712.0</ele><time>2026-05-01T11:22:07.237Z</time></trkpt><trkpt lat="43.9464135" lon="12.0106078"><ele>708.0</ele><time>2026-05-01T11:22:08.226Z</time></trkpt><trkpt lat="43.9462809" lon="12.0106191"><ele>704.0</ele><time>2026-05-01T11:22:09.226Z</time></trkpt><trkpt lat="43.9462051" lon="12.010623"><ele>700.0</ele><time>2026-05-01T11:22:10.227Z</time></trkpt><trkpt lat="43.9461399" lon="12.0106423"><ele>696.0</ele><time>2026-05-01T11:22:11.224Z</time></trkpt><trkpt lat="43.9460119" lon="12.01068"><ele>696.0</ele><time>2026-05-01T11:22:13.22Z</time></trkpt><trkpt lat="43.9458847" lon="12.0107806"><ele>696.0</ele><time>2026-05-01T11:22:15.22Z</time></trkpt><trkpt lat="43.9458402" lon="12.0108666"><ele>696.0</ele><time>2026-05-01T11:22:16.225Z</time></trkpt><trkpt lat="43.9457909" lon="12.0109465"><ele>696.0</ele><time>2026-05-01T11:22:17.224Z</time></trkpt><trkpt lat="43.9457795" lon="12.011116"><ele>696.0</ele><time>2026-05-01T11:22:18.226Z</time></trkpt><trkpt lat="43.9457491" lon="12.0112557"><ele>695.1999999999999</ele><time>2026-05-01T11:22:19.222Z</time></trkpt><trkpt lat="43.9457093" lon="12.0113519"><ele>694.4</ele><time>2026-05-01T11:22:20.223Z</time></trkpt><trkpt lat="43.945639" lon="12.0114688"><ele>693.6</ele><time>2026-05-01T11:22:21.228Z</time></trkpt><trkpt lat="43.9455797" lon="12.0115778"><ele>692.8</ele><time>2026-05-01T11:22:22.235Z</time></trkpt><trkpt lat="43.9455237" lon="12.0116505"><ele>692.0</ele><time>2026-05-01T11:22:23.224Z</time></trkpt><trkpt lat="43.9454488" lon="12.0117286"><ele>695.0</ele><time>2026-05-01T11:22:24.255Z</time></trkpt><trkpt lat="43.9453768" lon="12.0117868"><ele>698.0</ele><time>2026-05-01T11:22:25.223Z</time></trkpt><trkpt lat="43.9452859" lon="12.0118643"><ele>701.0</ele><time>2026-05-01T11:22:26.233Z</time></trkpt><trkpt lat="43.9452019" lon="12.0119034"><ele>704.0</ele><time>2026-05-01T11:22:27.227Z</time></trkpt><trkpt lat="43.9451208" lon="12.0119675"><ele>707.0</ele><time>2026-05-01T11:22:28.225Z</time></trkpt><trkpt lat="43.945044" lon="12.0120405"><ele>707.0</ele><time>2026-05-01T11:22:29.235Z</time></trkpt><trkpt lat="43.9450511" lon="12.0121802"><ele>707.0</ele><time>2026-05-01T11:22:31.23Z</time></trkpt><trkpt lat="43.9450811" lon="12.0123255"><ele>707.0</ele><time>2026-05-01T11:22:33.236Z</time></trkpt><trkpt lat="43.9451308" lon="12.0124175"><ele>707.0</ele><time>2026-05-01T11:22:34.224Z</time></trkpt><trkpt lat="43.94517" lon="12.0124924"><ele>707.0</ele><time>2026-05-01T11:22:35.236Z</time></trkpt><trkpt lat="43.945224" lon="12.0125576"><ele>707.0</ele><time>2026-05-01T11:22:36.236Z</time></trkpt><trkpt lat="43.9452636" lon="12.0126284"><ele>707.3333333333333</ele><time>2026-05-01T11:22:37.231Z</time></trkpt><trkpt lat="43.9453048" lon="12.0127087"><ele>707.6666666666666</ele><time>2026-05-01T11:22:38.238Z</time></trkpt><trkpt lat="43.9453346" lon="12.0127951"><ele>708.0</ele><time>2026-05-01T11:22:39.223Z</time></trkpt><trkpt lat="43.9453643" lon="12.0128879"><ele>708.3333333333334</ele><time>2026-05-01T11:22:40.224Z</time></trkpt><trkpt lat="43.9453875" lon="12.0130442"><ele>708.6666666666667</ele><time>2026-05-01T11:22:42.224Z</time></trkpt><trkpt lat="43.9453306" lon="12.0131879"><ele>709.0</ele><time>2026-05-01T11:22:44.233Z</time></trkpt><trkpt lat="43.9452579" lon="12.0133634"><ele>709.0</ele><time>2026-05-01T11:22:46.229Z</time></trkpt><trkpt lat="43.9451966" lon="12.0134698"><ele>709.0</ele><time>2026-05-01T11:22:47.237Z</time></trkpt><trkpt lat="43.9451404" lon="12.013584"><ele>709.0</ele><time>2026-05-01T11:22:48.227Z</time></trkpt><trkpt lat="43.9450876" lon="12.0137052"><ele>709.0</ele><time>2026-05-01T11:22:49.234Z</time></trkpt><trkpt lat="43.9450407" lon="12.013814"><ele>709.0</ele><time>2026-05-01T11:22:50.222Z</time></trkpt><trkpt lat="43.9449869" lon="12.0139302"><ele>701.0</ele><time>2026-05-01T11:22:51.234Z</time></trkpt><trkpt lat="43.944919" lon="12.0140211"><ele>693.0</ele><time>2026-05-01T11:22:52.235Z</time></trkpt><trkpt lat="43.9448491" lon="12.0141106"><ele>685.0</ele><time>2026-05-01T11:22:53.23Z</time></trkpt><trkpt lat="43.9447826" lon="12.0141955"><ele>677.0</ele><time>2026-05-01T11:22:54.232Z</time></trkpt><trkpt lat="43.9447057" lon="12.0142812"><ele>669.0</ele><time>2026-05-01T11:22:55.227Z</time></trkpt><trkpt lat="43.9446543" lon="12.0143872"><ele>669.0</ele><time>2026-05-01T11:22:56.224Z</time></trkpt><trkpt lat="43.9445372" lon="12.014499"><ele>669.0</ele><time>2026-05-01T11:22:58.239Z</time></trkpt><trkpt lat="43.944465" lon="12.0145175"><ele>669.0</ele><time>2026-05-01T11:22:59.236Z</time></trkpt><trkpt lat="43.9444038" lon="12.0145473"><ele>669.0</ele><time>2026-05-01T11:23:00.224Z</time></trkpt><trkpt lat="43.9443121" lon="12.014658"><ele>669.0</ele><time>2026-05-01T11:23:02.226Z</time></trkpt><trkpt lat="43.9442586" lon="12.0147727"><ele>663.0</ele><time>2026-05-01T11:23:04.235Z</time></trkpt><trkpt lat="43.9442066" lon="12.0148625"><ele>657.0</ele><time>2026-05-01T11:23:06.233Z</time></trkpt><trkpt lat="43.9441465" lon="12.0149311"><ele>651.0</ele><time>2026-05-01T11:23:08.239Z</time></trkpt><trkpt lat="43.9440843" lon="12.0148741"><ele>645.0</ele><time>2026-05-01T11:23:09.235Z</time></trkpt><trkpt lat="43.9440238" lon="12.0148386"><ele>639.0</ele><time>2026-05-01T11:23:10.221Z</time></trkpt><trkpt lat="43.9439608" lon="12.0148142"><ele>633.0</ele><time>2026-05-01T11:23:12.245Z</time></trkpt><trkpt lat="43.9438517" lon="12.0147832"><ele>633.0</ele><time>2026-05-01T11:23:14.238Z</time></trkpt><trkpt lat="43.943711" lon="12.0147524"><ele>633.0</ele><time>2026-05-01T11:23:20.228Z</time></trkpt><trkpt lat="43.9436416" lon="12.0147206"><ele>633.0</ele><time>2026-05-01T11:23:21.218Z</time></trkpt><trkpt lat="43.9433064" lon="12.014644"><ele>629.6</ele><time>2026-05-01T11:23:22.228Z</time></trkpt><trkpt lat="43.9432033" lon="12.0146113"><ele>626.1999999999999</ele><time>2026-05-01T11:23:23.234Z</time></trkpt><trkpt lat="43.9431269" lon="12.0146067"><ele>622.8</ele><time>2026-05-01T11:23:24.234Z</time></trkpt><trkpt lat="43.9430373" lon="12.0146108"><ele>619.4</ele><time>2026-05-01T11:23:25.238Z</time></trkpt><trkpt lat="43.9429405" lon="12.0146076"><ele>616.0</ele><time>2026-05-01T11:23:26.235Z</time></trkpt><trkpt lat="43.9428516" lon="12.0146097"><ele>616.0</ele><time>2026-05-01T11:23:27.231Z</time></trkpt><trkpt lat="43.9427725" lon="12.0145874"><ele>616.0</ele><time>2026-05-01T11:23:28.22Z</time></trkpt><trkpt lat="43.9426589" lon="12.0146226"><ele>616.0</ele><time>2026-05-01T11:23:29.236Z</time></trkpt><trkpt lat="43.9425659" lon="12.0146247"><ele>616.0</ele><time>2026-05-01T11:23:30.235Z</time></trkpt><trkpt lat="43.9424714" lon="12.0146178"><ele>616.0</ele><time>2026-05-01T11:23:31.233Z</time></trkpt><trkpt lat="43.9423864" lon="12.0145932"><ele>614.1666666666667</ele><time>2026-05-01T11:23:32.219Z</time></trkpt><trkpt lat="43.9423121" lon="12.0145605"><ele>612.3333333333334</ele><time>2026-05-01T11:23:33.232Z</time></trkpt><trkpt lat="43.9422326" lon="12.0145268"><ele>610.5</ele><time>2026-05-01T11:23:34.235Z</time></trkpt><trkpt lat="43.9421538" lon="12.0144812"><ele>608.6666666666666</ele><time>2026-05-01T11:23:35.233Z</time></trkpt><trkpt lat="43.9420789" lon="12.0144286"><ele>606.8333333333333</ele><time>2026-05-01T11:23:36.253Z</time></trkpt><trkpt lat="43.9420188" lon="12.0143473"><ele>605.0</ele><time>2026-05-01T11:23:37.222Z</time></trkpt><trkpt lat="43.941912" lon="12.0143079"><ele>605.0</ele><time>2026-05-01T11:23:39.228Z</time></trkpt><trkpt lat="43.9418426" lon="12.0142974"><ele>605.0</ele><time>2026-05-01T11:23:40.227Z</time></trkpt><trkpt lat="43.9417312" lon="12.0143724"><ele>605.0</ele><time>2026-05-01T11:23:42.239Z</time></trkpt><trkpt lat="43.9416417" lon="12.0143969"><ele>605.0</ele><time>2026-05-01T11:23:43.239Z</time></trkpt><trkpt lat="43.9415719" lon="12.0144317"><ele>605.0</ele><time>2026-05-01T11:23:44.236Z</time></trkpt><trkpt lat="43.9414875" lon="12.0144719"><ele>605.0</ele><time>2026-05-01T11:23:45.235Z</time></trkpt><trkpt lat="43.9414055" lon="12.0145259"><ele>603.5</ele><time>2026-05-01T11:23:46.229Z</time></trkpt><trkpt lat="43.9413287" lon="12.014551"><ele>602.0</ele><time>2026-05-01T11:23:47.226Z</time></trkpt><trkpt lat="43.9412486" lon="12.0145725"><ele>600.5</ele><time>2026-05-01T11:23:48.225Z</time></trkpt><trkpt lat="43.9411736" lon="12.0145725"><ele>599.0</ele><time>2026-05-01T11:23:49.236Z</time></trkpt><trkpt lat="43.9410772" lon="12.0146198"><ele>597.5</ele><time>2026-05-01T11:23:51.241Z</time></trkpt><trkpt lat="43.9409816" lon="12.0146918"><ele>596.0</ele><time>2026-05-01T11:23:53.224Z</time></trkpt><trkpt lat="43.9410242" lon="12.0148665"><ele>596.0</ele><time>2026-05-01T11:23:55.235Z</time></trkpt><trkpt lat="43.9410348" lon="12.0150414"><ele>596.0</ele><time>2026-05-01T11:23:58.232Z</time></trkpt><trkpt lat="43.9410396" lon="12.0151441"><ele>596.0</ele><time>2026-05-01T11:24:00.223Z</time></trkpt><trkpt lat="43.9410046" lon="12.0150612"><ele>596.0</ele><time>2026-05-01T11:24:01.232Z</time></trkpt><trkpt lat="43.9409535" lon="12.0149576"><ele>596.0</ele><time>2026-05-01T11:24:02.237Z</time></trkpt><trkpt lat="43.9409041" lon="12.0148651"><ele>596.0</ele><time>2026-05-01T11:24:03.235Z</time></trkpt><trkpt lat="43.9408512" lon="12.0147703"><ele>591.8333333333333</ele><time>2026-05-01T11:24:04.237Z</time></trkpt><trkpt lat="43.9407719" lon="12.0147024"><ele>587.6666666666666</ele><time>2026-05-01T11:24:05.239Z</time></trkpt><trkpt lat="43.9406859" lon="12.0146438"><ele>583.5</ele><time>2026-05-01T11:24:06.241Z</time></trkpt><trkpt lat="43.9406103" lon="12.0145963"><ele>579.3333333333334</ele><time>2026-05-01T11:24:07.23Z</time></trkpt><trkpt lat="43.9405482" lon="12.0145576"><ele>575.1666666666667</ele><time>2026-05-01T11:24:08.246Z</time></trkpt><trkpt lat="43.940472" lon="12.0145028"><ele>571.0</ele><time>2026-05-01T11:24:09.22Z</time></trkpt><trkpt lat="43.9404071" lon="12.0144437"><ele>571.0</ele><time>2026-05-01T11:24:10.235Z</time></trkpt><trkpt lat="43.9403464" lon="12.0144158"><ele>571.0</ele><time>2026-05-01T11:24:11.237Z</time></trkpt><trkpt lat="43.9402823" lon="12.014383"><ele>571.0</ele><time>2026-05-01T11:24:12.231Z</time></trkpt><trkpt lat="43.9402109" lon="12.0143556"><ele>571.0</ele><time>2026-05-01T11:24:13.22Z</time></trkpt><trkpt lat="43.9401416" lon="12.0142886"><ele>571.0</ele><time>2026-05-01T11:24:14.234Z</time></trkpt><trkpt lat="43.9400749" lon="12.014219"><ele>571.0</ele><time>2026-05-01T11:24:15.221Z</time></trkpt><trkpt lat="43.9400066" lon="12.0141229"><ele>566.6666666666667</ele><time>2026-05-01T11:24:17.234Z</time></trkpt><trkpt lat="43.9400065" lon="12.014026"><ele>562.3333333333334</ele><time>2026-05-01T11:24:19.226Z</time></trkpt><trkpt lat="43.9400707" lon="12.013906"><ele>558.0</ele><time>2026-05-01T11:24:21.235Z</time></trkpt><trkpt lat="43.9401307" lon="12.0138671"><ele>553.6666666666666</ele><time>2026-05-01T11:24:22.224Z</time></trkpt><trkpt lat="43.9402061" lon="12.0138328"><ele>549.3333333333333</ele><time>2026-05-01T11:24:23.224Z</time></trkpt><trkpt lat="43.9402937" lon="12.0138031"><ele>545.0</ele><time>2026-05-01T11:24:24.223Z</time></trkpt><trkpt lat="43.9403825" lon="12.013765"><ele>545.0</ele><time>2026-05-01T11:24:25.237Z</time></trkpt><trkpt lat="43.9404738" lon="12.0137306"><ele>545.0</ele><time>2026-05-01T11:24:26.223Z</time></trkpt><trkpt lat="43.9405579" lon="12.0137044"><ele>545.0</ele><time>2026-05-01T11:24:27.232Z</time></trkpt><trkpt lat="43.940637" lon="12.0136645"><ele>545.0</ele><time>2026-05-01T11:24:28.229Z</time></trkpt><trkpt lat="43.9407268" lon="12.0136157"><ele>545.0</ele><time>2026-05-01T11:24:29.236Z</time></trkpt><trkpt lat="43.940827" lon="12.0135534"><ele>543.4</ele><time>2026-05-01T11:24:30.245Z</time></trkpt><trkpt lat="43.9409112" lon="12.013438"><ele>541.8</ele><time>2026-05-01T11:24:31.235Z</time></trkpt><trkpt lat="43.9409819" lon="12.0133465"><ele>540.2</ele><time>2026-05-01T11:24:32.222Z</time></trkpt><trkpt lat="43.941052" lon="12.0132396"><ele>538.6</ele><time>2026-05-01T11:24:33.22Z</time></trkpt><trkpt lat="43.9411311" lon="12.013131"><ele>537.0</ele><time>2026-05-01T11:24:34.236Z</time></trkpt><trkpt lat="43.9412016" lon="12.0130572"><ele>537.0</ele><time>2026-05-01T11:24:35.233Z</time></trkpt><trkpt lat="43.9412614" lon="12.0129573"><ele>537.0</ele><time>2026-05-01T11:24:36.238Z</time></trkpt><trkpt lat="43.9413292" lon="12.0128547"><ele>537.0</ele><time>2026-05-01T11:24:37.235Z</time></trkpt><trkpt lat="43.9413881" lon="12.0127486"><ele>537.0</ele><time>2026-05-01T11:24:38.227Z</time></trkpt><trkpt lat="43.9414548" lon="12.0126479"><ele>537.0</ele><time>2026-05-01T11:24:39.245Z</time></trkpt><trkpt lat="43.9415088" lon="12.0125613"><ele>537.0</ele><time>2026-05-01T11:24:40.236Z</time></trkpt><trkpt lat="43.9415624" lon="12.0124978"><ele>537.0</ele><time>2026-05-01T11:24:41.232Z</time></trkpt><trkpt lat="43.9416241" lon="12.0124313"><ele>537.0</ele><time>2026-05-01T11:24:42.224Z</time></trkpt><trkpt lat="43.9416744" lon="12.0123521"><ele>537.0</ele><time>2026-05-01T11:24:43.234Z</time></trkpt><trkpt lat="43.9417202" lon="12.012277"><ele>537.0</ele><time>2026-05-01T11:24:44.225Z</time></trkpt><trkpt lat="43.9417642" lon="12.0121989"><ele>537.0</ele><time>2026-05-01T11:24:45.237Z</time></trkpt><trkpt lat="43.9418521" lon="12.0120665"><ele>540.5</ele><time>2026-05-01T11:24:47.237Z</time></trkpt><trkpt lat="43.941903" lon="12.0120086"><ele>544.0</ele><time>2026-05-01T11:24:48.224Z</time></trkpt><trkpt lat="43.9419497" lon="12.0119313"><ele>547.5</ele><time>2026-05-01T11:24:49.239Z</time></trkpt><trkpt lat="43.9419885" lon="12.0118408"><ele>551.0</ele><time>2026-05-01T11:24:51.237Z</time></trkpt><trkpt lat="43.9419103" lon="12.0117585"><ele>554.5</ele><time>2026-05-01T11:24:54.222Z</time></trkpt><trkpt lat="43.941829" lon="12.0117799"><ele>558.0</ele><time>2026-05-01T11:24:57.233Z</time></trkpt><trkpt lat="43.9417223" lon="12.0118274"><ele>551.0</ele><time>2026-05-01T11:24:58.234Z</time></trkpt><trkpt lat="43.9416098" lon="12.0118771"><ele>544.0</ele><time>2026-05-01T11:24:59.229Z</time></trkpt><trkpt lat="43.9414322" lon="12.0119734"><ele>537.0</ele><time>2026-05-01T11:25:02.225Z</time></trkpt><trkpt lat="43.9413182" lon="12.0120153"><ele>530.0</ele><time>2026-05-01T11:25:03.229Z</time></trkpt><trkpt lat="43.9411823" lon="12.0120712"><ele>530.0</ele><time>2026-05-01T11:25:04.223Z</time></trkpt><trkpt lat="43.9410851" lon="12.0120753"><ele>530.0</ele><time>2026-05-01T11:25:05.218Z</time></trkpt><trkpt lat="43.9409973" lon="12.0120401"><ele>530.0</ele><time>2026-05-01T11:25:06.222Z</time></trkpt><trkpt lat="43.9409108" lon="12.0120011"><ele>530.0</ele><time>2026-05-01T11:25:07.223Z</time></trkpt><trkpt lat="43.9408315" lon="12.0119633"><ele>530.0</ele><time>2026-05-01T11:25:08.229Z</time></trkpt><trkpt lat="43.9407538" lon="12.0119253"><ele>530.0</ele><time>2026-05-01T11:25:09.227Z</time></trkpt><trkpt lat="43.9406614" lon="12.0118639"><ele>525.6</ele><time>2026-05-01T11:25:10.223Z</time></trkpt><trkpt lat="43.9405667" lon="12.0118026"><ele>521.2</ele><time>2026-05-01T11:25:11.225Z</time></trkpt><trkpt lat="43.9404251" lon="12.0118298"><ele>516.8</ele><time>2026-05-01T11:25:13.235Z</time></trkpt><trkpt lat="43.940349" lon="12.0118723"><ele>512.4</ele><time>2026-05-01T11:25:14.223Z</time></trkpt><trkpt lat="43.9402737" lon="12.0118949"><ele>508.0</ele><time>2026-05-01T11:25:15.236Z</time></trkpt><trkpt lat="43.9402007" lon="12.0119067"><ele>508.0</ele><time>2026-05-01T11:25:16.236Z</time></trkpt><trkpt lat="43.940126" lon="12.0119151"><ele>507.99999999999994</ele><time>2026-05-01T11:25:17.236Z</time></trkpt><trkpt lat="43.9400168" lon="12.0118596"><ele>507.99999999999994</ele><time>2026-05-01T11:25:19.236Z</time></trkpt><trkpt lat="43.9398972" lon="12.0117895"><ele>508.0</ele><time>2026-05-01T11:25:21.231Z</time></trkpt><trkpt lat="43.9398274" lon="12.0117547"><ele>508.0</ele><time>2026-05-01T11:25:22.234Z</time></trkpt><trkpt lat="43.93974" lon="12.0117423"><ele>504.00000000000006</ele><time>2026-05-01T11:25:24.231Z</time></trkpt><trkpt lat="43.9396655" lon="12.0117347"><ele>500.0</ele><time>2026-05-01T11:25:27.224Z</time></trkpt><trkpt lat="43.9396924" lon="12.0118322"><ele>496.0</ele><time>2026-05-01T11:27:19.22Z</time></trkpt><trkpt lat="43.9395895" lon="12.011875"><ele>492.0</ele><time>2026-05-01T11:27:25.225Z</time></trkpt><trkpt lat="43.93953" lon="12.0119179"><ele>488.00000000000006</ele><time>2026-05-01T11:27:26.218Z</time></trkpt><trkpt lat="43.9394535" lon="12.0119798"><ele>484.0</ele><time>2026-05-01T11:27:27.236Z</time></trkpt><trkpt lat="43.9393624" lon="12.0120548"><ele>484.0</ele><time>2026-05-01T11:27:28.224Z</time></trkpt><trkpt lat="43.9392723" lon="12.0121275"><ele>484.0</ele><time>2026-05-01T11:27:29.234Z</time></trkpt><trkpt lat="43.9391699" lon="12.0121715"><ele>484.0</ele><time>2026-05-01T11:27:30.232Z</time></trkpt><trkpt lat="43.9390299" lon="12.0122435"><ele>484.0</ele><time>2026-05-01T11:27:31.221Z</time></trkpt><trkpt lat="43.9389151" lon="12.0123492"><ele>485.75</ele><time>2026-05-01T11:27:32.222Z</time></trkpt><trkpt lat="43.9387773" lon="12.0124048"><ele>487.5</ele><time>2026-05-01T11:27:33.223Z</time></trkpt><trkpt lat="43.9386388" lon="12.0124757"><ele>489.25</ele><time>2026-05-01T11:27:34.235Z</time></trkpt><trkpt lat="43.9384941" lon="12.0125455"><ele>491.0</ele><time>2026-05-01T11:27:35.226Z</time></trkpt><trkpt lat="43.9383509" lon="12.0126169"><ele>485.5</ele><time>2026-05-01T11:27:36.225Z</time></trkpt><trkpt lat="43.9382157" lon="12.0126827"><ele>480.0</ele><time>2026-05-01T11:27:37.221Z</time></trkpt><trkpt lat="43.9380946" lon="12.0127479"><ele>474.5</ele><time>2026-05-01T11:27:38.221Z</time></trkpt><trkpt lat="43.9379979" lon="12.0128436"><ele>469.0</ele><time>2026-05-01T11:27:39.225Z</time></trkpt><trkpt lat="43.937922" lon="12.0129416"><ele>469.0</ele><time>2026-05-01T11:27:40.23Z</time></trkpt><trkpt lat="43.9378743" lon="12.013055"><ele>469.0</ele><time>2026-05-01T11:27:41.235Z</time></trkpt><trkpt lat="43.937881" lon="12.0131907"><ele>469.0</ele><time>2026-05-01T11:27:42.227Z</time></trkpt><trkpt lat="43.9379173" lon="12.0133382"><ele>469.0</ele><time>2026-05-01T11:27:43.224Z</time></trkpt><trkpt lat="43.9379648" lon="12.0134999"><ele>469.0</ele><time>2026-05-01T11:27:44.219Z</time></trkpt><trkpt lat="43.9380263" lon="12.013674"><ele>472.33333333333337</ele><time>2026-05-01T11:27:45.221Z</time></trkpt><trkpt lat="43.9380914" lon="12.0138665"><ele>475.66666666666663</ele><time>2026-05-01T11:27:46.236Z</time></trkpt><trkpt lat="43.9381334" lon="12.0140844"><ele>479.0</ele><time>2026-05-01T11:27:47.22Z</time></trkpt><trkpt lat="43.9381522" lon="12.0143462"><ele>479.0</ele><time>2026-05-01T11:27:48.226Z</time></trkpt><trkpt lat="43.938156" lon="12.0146028"><ele>479.0</ele><time>2026-05-01T11:27:49.22Z</time></trkpt><trkpt lat="43.9381609" lon="12.0148696"><ele>479.0</ele><time>2026-05-01T11:27:50.226Z</time></trkpt><trkpt lat="43.9381612" lon="12.0151362"><ele>477.66666666666663</ele><time>2026-05-01T11:27:51.223Z</time></trkpt><trkpt lat="43.9381502" lon="12.0153896"><ele>476.33333333333337</ele><time>2026-05-01T11:27:52.224Z</time></trkpt><trkpt lat="43.9381117" lon="12.0156386"><ele>475.0</ele><time>2026-05-01T11:27:53.235Z</time></trkpt><trkpt lat="43.9380752" lon="12.0158988"><ele>473.6666666666667</ele><time>2026-05-01T11:27:54.23Z</time></trkpt><trkpt lat="43.9380272" lon="12.0161665"><ele>472.33333333333337</ele><time>2026-05-01T11:27:55.231Z</time></trkpt><trkpt lat="43.9379782" lon="12.0164179"><ele>471.0</ele><time>2026-05-01T11:27:56.225Z</time></trkpt><trkpt lat="43.9379346" lon="12.0166495"><ele>471.0</ele><time>2026-05-01T11:27:57.23Z</time></trkpt><trkpt lat="43.9379021" lon="12.0168357"><ele>471.0</ele><time>2026-05-01T11:27:58.219Z</time></trkpt><trkpt lat="43.9378797" lon="12.0170223"><ele>471.0</ele><time>2026-05-01T11:27:59.221Z</time></trkpt><trkpt lat="43.9378933" lon="12.0171685"><ele>471.0</ele><time>2026-05-01T11:28:00.223Z</time></trkpt><trkpt lat="43.9379141" lon="12.017276"><ele>471.0</ele><time>2026-05-01T11:28:01.237Z</time></trkpt><trkpt lat="43.9380956" lon="12.0174465"><ele>471.0</ele><time>2026-05-01T11:28:03.23Z</time></trkpt><trkpt lat="43.9382617" lon="12.0175311"><ele>471.0</ele><time>2026-05-01T11:28:04.224Z</time></trkpt><trkpt lat="43.9384435" lon="12.0176231"><ele>475.33333333333337</ele><time>2026-05-01T11:28:05.223Z</time></trkpt><trkpt lat="43.9385912" lon="12.0177138"><ele>479.6666666666667</ele><time>2026-05-01T11:28:06.235Z</time></trkpt><trkpt lat="43.9387338" lon="12.0178277"><ele>484.0</ele><time>2026-05-01T11:28:07.234Z</time></trkpt><trkpt lat="43.938843" lon="12.0179716"><ele>484.0</ele><time>2026-05-01T11:28:08.222Z</time></trkpt><trkpt lat="43.9389253" lon="12.0181387"><ele>484.0</ele><time>2026-05-01T11:28:09.238Z</time></trkpt><trkpt lat="43.9389903" lon="12.0183635"><ele>484.0</ele><time>2026-05-01T11:28:10.236Z</time></trkpt><trkpt lat="43.9390535" lon="12.0185954"><ele>478.6666666666667</ele><time>2026-05-01T11:28:11.235Z</time></trkpt><trkpt lat="43.9391168" lon="12.0188268"><ele>473.33333333333337</ele><time>2026-05-01T11:28:12.218Z</time></trkpt><trkpt lat="43.9391776" lon="12.0190696"><ele>468.0</ele><time>2026-05-01T11:28:13.222Z</time></trkpt><trkpt lat="43.9392509" lon="12.0192923"><ele>468.0</ele><time>2026-05-01T11:28:14.221Z</time></trkpt><trkpt lat="43.9393267" lon="12.0195438"><ele>468.0</ele><time>2026-05-01T11:28:15.221Z</time></trkpt><trkpt lat="43.9394067" lon="12.019782"><ele>468.0</ele><time>2026-05-01T11:28:16.22Z</time></trkpt><trkpt lat="43.9394911" lon="12.0200318"><ele>462.66666666666663</ele><time>2026-05-01T11:28:17.223Z</time></trkpt><trkpt lat="43.9395758" lon="12.0202776"><ele>457.3333333333333</ele><time>2026-05-01T11:28:18.233Z</time></trkpt><trkpt lat="43.9396618" lon="12.0205259"><ele>452.0</ele><time>2026-05-01T11:28:19.235Z</time></trkpt><trkpt lat="43.9397378" lon="12.0207699"><ele>451.66666666666663</ele><time>2026-05-01T11:28:20.237Z</time></trkpt><trkpt lat="43.9398057" lon="12.0209994"><ele>451.33333333333337</ele><time>2026-05-01T11:28:21.221Z</time></trkpt><trkpt lat="43.939864" lon="12.0212187"><ele>451.0</ele><time>2026-05-01T11:28:22.237Z</time></trkpt><trkpt lat="43.9398934" lon="12.0214676"><ele>450.0</ele><time>2026-05-01T11:28:23.223Z</time></trkpt><trkpt lat="43.9399149" lon="12.0216792"><ele>449.0</ele><time>2026-05-01T11:28:24.235Z</time></trkpt><trkpt lat="43.9398811" lon="12.0218746"><ele>448.0</ele><time>2026-05-01T11:28:25.226Z</time></trkpt><trkpt lat="43.9398103" lon="12.0220802"><ele>448.0</ele><time>2026-05-01T11:28:26.235Z</time></trkpt><trkpt lat="43.9397328" lon="12.0222752"><ele>448.0</ele><time>2026-05-01T11:28:27.236Z</time></trkpt><trkpt lat="43.9396557" lon="12.0224749"><ele>448.0</ele><time>2026-05-01T11:28:28.227Z</time></trkpt><trkpt lat="43.9395926" lon="12.0226603"><ele>447.4</ele><time>2026-05-01T11:28:29.237Z</time></trkpt><trkpt lat="43.9395462" lon="12.0228207"><ele>446.79999999999995</ele><time>2026-05-01T11:28:30.235Z</time></trkpt><trkpt lat="43.9395267" lon="12.0229708"><ele>446.2</ele><time>2026-05-01T11:28:31.221Z</time></trkpt><trkpt lat="43.9395419" lon="12.0231009"><ele>445.6</ele><time>2026-05-01T11:28:32.233Z</time></trkpt><trkpt lat="43.9396077" lon="12.0232269"><ele>445.0</ele><time>2026-05-01T11:28:33.223Z</time></trkpt><trkpt lat="43.9397009" lon="12.0233322"><ele>441.0</ele><time>2026-05-01T11:28:34.221Z</time></trkpt><trkpt lat="43.93983" lon="12.0234426"><ele>437.0</ele><time>2026-05-01T11:28:35.224Z</time></trkpt><trkpt lat="43.9399994" lon="12.0235582"><ele>433.0</ele><time>2026-05-01T11:28:36.223Z</time></trkpt><trkpt lat="43.9401544" lon="12.0236808"><ele>441.0</ele><time>2026-05-01T11:28:37.224Z</time></trkpt><trkpt lat="43.9403054" lon="12.0238022"><ele>449.0</ele><time>2026-05-01T11:28:38.235Z</time></trkpt><trkpt lat="43.9404669" lon="12.0239295"><ele>457.0</ele><time>2026-05-01T11:28:39.237Z</time></trkpt><trkpt lat="43.9406267" lon="12.0240602"><ele>460.6666666666667</ele><time>2026-05-01T11:28:40.234Z</time></trkpt><trkpt lat="43.9407805" lon="12.0241958"><ele>464.33333333333337</ele><time>2026-05-01T11:28:41.243Z</time></trkpt><trkpt lat="43.9409162" lon="12.0243393"><ele>468.0</ele><time>2026-05-01T11:28:42.224Z</time></trkpt><trkpt lat="43.941032" lon="12.0245153"><ele>468.0</ele><time>2026-05-01T11:28:43.235Z</time></trkpt><trkpt lat="43.9411262" lon="12.0247206"><ele>468.0</ele><time>2026-05-01T11:28:44.22Z</time></trkpt><trkpt lat="43.9411934" lon="12.0249591"><ele>468.0</ele><time>2026-05-01T11:28:45.223Z</time></trkpt><trkpt lat="43.9412491" lon="12.0252013"><ele>461.75</ele><time>2026-05-01T11:28:46.222Z</time></trkpt><trkpt lat="43.9412898" lon="12.0254093"><ele>455.5</ele><time>2026-05-01T11:28:47.222Z</time></trkpt><trkpt lat="43.9412937" lon="12.0256007"><ele>449.25</ele><time>2026-05-01T11:28:48.23Z</time></trkpt><trkpt lat="43.9412926" lon="12.0257786"><ele>443.0</ele><time>2026-05-01T11:28:49.236Z</time></trkpt><trkpt lat="43.9412262" lon="12.0259687"><ele>441.66666666666663</ele><time>2026-05-01T11:28:50.237Z</time></trkpt><trkpt lat="43.941137" lon="12.0261638"><ele>440.33333333333337</ele><time>2026-05-01T11:28:51.235Z</time></trkpt><trkpt lat="43.9410261" lon="12.0263581"><ele>439.0</ele><time>2026-05-01T11:28:52.223Z</time></trkpt><trkpt lat="43.9409278" lon="12.0265398"><ele>433.5</ele><time>2026-05-01T11:28:53.226Z</time></trkpt><trkpt lat="43.9408271" lon="12.0267002"><ele>428.0</ele><time>2026-05-01T11:28:54.223Z</time></trkpt><trkpt lat="43.9407368" lon="12.0268566"><ele>422.5</ele><time>2026-05-01T11:28:55.237Z</time></trkpt><trkpt lat="43.9406803" lon="12.0269859"><ele>417.0</ele><time>2026-05-01T11:28:56.221Z</time></trkpt><trkpt lat="43.9406629" lon="12.0271316"><ele>417.0</ele><time>2026-05-01T11:28:57.237Z</time></trkpt><trkpt lat="43.9406741" lon="12.0272775"><ele>417.0</ele><time>2026-05-01T11:28:58.22Z</time></trkpt><trkpt lat="43.9407252" lon="12.0274619"><ele>417.0</ele><time>2026-05-01T11:28:59.222Z</time></trkpt><trkpt lat="43.9407969" lon="12.0276505"><ele>417.0</ele><time>2026-05-01T11:29:00.229Z</time></trkpt><trkpt lat="43.9408884" lon="12.0278478"><ele>419.33333333333337</ele><time>2026-05-01T11:29:01.223Z</time></trkpt><trkpt lat="43.9409884" lon="12.0280534"><ele>421.6666666666667</ele><time>2026-05-01T11:29:02.23Z</time></trkpt><trkpt lat="43.9410887" lon="12.028261"><ele>424.0</ele><time>2026-05-01T11:29:03.222Z</time></trkpt><trkpt lat="43.9411873" lon="12.0284621"><ele>424.0</ele><time>2026-05-01T11:29:04.225Z</time></trkpt><trkpt lat="43.9412815" lon="12.0286623"><ele>424.0</ele><time>2026-05-01T11:29:05.22Z</time></trkpt><trkpt lat="43.9413562" lon="12.0288651"><ele>424.0</ele><time>2026-05-01T11:29:06.224Z</time></trkpt><trkpt lat="43.9414126" lon="12.0290904"><ele>422.25</ele><time>2026-05-01T11:29:07.222Z</time></trkpt><trkpt lat="43.9414525" lon="12.0293178"><ele>420.5</ele><time>2026-05-01T11:29:08.235Z</time></trkpt><trkpt lat="43.9414952" lon="12.029507"><ele>418.75</ele><time>2026-05-01T11:29:09.235Z</time></trkpt><trkpt lat="43.9415573" lon="12.0296543"><ele>417.0</ele><time>2026-05-01T11:29:10.236Z</time></trkpt><trkpt lat="43.9416374" lon="12.029739"><ele>421.5</ele><time>2026-05-01T11:29:11.232Z</time></trkpt><trkpt lat="43.941762" lon="12.0297904"><ele>426.0</ele><time>2026-05-01T11:29:12.237Z</time></trkpt><trkpt lat="43.9419112" lon="12.0297921"><ele>430.5</ele><time>2026-05-01T11:29:13.226Z</time></trkpt><trkpt lat="43.9420625" lon="12.0297846"><ele>435.0</ele><time>2026-05-01T11:29:14.224Z</time></trkpt><trkpt lat="43.9422444" lon="12.029771"><ele>435.0</ele><time>2026-05-01T11:29:15.225Z</time></trkpt><trkpt lat="43.9424436" lon="12.029771"><ele>435.0</ele><time>2026-05-01T11:29:16.221Z</time></trkpt><trkpt lat="43.9426298" lon="12.0297494"><ele>435.0</ele><time>2026-05-01T11:29:17.235Z</time></trkpt><trkpt lat="43.9428199" lon="12.0297002"><ele>431.66666666666663</ele><time>2026-05-01T11:29:18.222Z</time></trkpt><trkpt lat="43.9430114" lon="12.0296292"><ele>428.3333333333333</ele><time>2026-05-01T11:29:19.222Z</time></trkpt><trkpt lat="43.9431893" lon="12.029564"><ele>425.0</ele><time>2026-05-01T11:29:20.222Z</time></trkpt><trkpt lat="43.9433572" lon="12.0295141"><ele>424.0</ele><time>2026-05-01T11:29:21.224Z</time></trkpt><trkpt lat="43.9435161" lon="12.0294953"><ele>423.0</ele><time>2026-05-01T11:29:22.222Z</time></trkpt><trkpt lat="43.9436727" lon="12.0294678"><ele>422.0</ele><time>2026-05-01T11:29:23.222Z</time></trkpt><trkpt lat="43.9438308" lon="12.0294257"><ele>422.0</ele><time>2026-05-01T11:29:24.222Z</time></trkpt><trkpt lat="43.9439494" lon="12.0293723"><ele>422.0</ele><time>2026-05-01T11:29:25.224Z</time></trkpt><trkpt lat="43.9440548" lon="12.0293373"><ele>422.0</ele><time>2026-05-01T11:29:26.23Z</time></trkpt><trkpt lat="43.9441627" lon="12.0293389"><ele>422.0</ele><time>2026-05-01T11:29:27.231Z</time></trkpt><trkpt lat="43.9442775" lon="12.0293863"><ele>429.66666666666663</ele><time>2026-05-01T11:29:28.236Z</time></trkpt><trkpt lat="43.9443935" lon="12.0295006"><ele>437.33333333333337</ele><time>2026-05-01T11:29:29.22Z</time></trkpt><trkpt lat="43.9445066" lon="12.0296625"><ele>445.0</ele><time>2026-05-01T11:29:30.223Z</time></trkpt><trkpt lat="43.9446273" lon="12.0298022"><ele>445.0</ele><time>2026-05-01T11:29:31.236Z</time></trkpt><trkpt lat="43.9447545" lon="12.0299559"><ele>445.0</ele><time>2026-05-01T11:29:32.224Z</time></trkpt><trkpt lat="43.9448788" lon="12.0301222"><ele>445.0</ele><time>2026-05-01T11:29:33.23Z</time></trkpt><trkpt lat="43.9450056" lon="12.0302675"><ele>444.0</ele><time>2026-05-01T11:29:34.224Z</time></trkpt><trkpt lat="43.9451331" lon="12.0304165"><ele>443.0</ele><time>2026-05-01T11:29:35.224Z</time></trkpt><trkpt lat="43.9452272" lon="12.0305532"><ele>442.0</ele><time>2026-05-01T11:29:36.236Z</time></trkpt><trkpt lat="43.9453282" lon="12.0306928"><ele>441.0</ele><time>2026-05-01T11:29:37.222Z</time></trkpt><trkpt lat="43.9454035" lon="12.0308267"><ele>441.0</ele><time>2026-05-01T11:29:38.238Z</time></trkpt><trkpt lat="43.9454513" lon="12.0309879"><ele>441.0</ele><time>2026-05-01T11:29:39.222Z</time></trkpt><trkpt lat="43.9454735" lon="12.0311783"><ele>441.0</ele><time>2026-05-01T11:29:40.222Z</time></trkpt><trkpt lat="43.9454978" lon="12.0313726"><ele>441.0</ele><time>2026-05-01T11:29:41.219Z</time></trkpt><trkpt lat="43.9455344" lon="12.0315705"><ele>437.66666666666663</ele><time>2026-05-01T11:29:42.225Z</time></trkpt><trkpt lat="43.9455628" lon="12.0317975"><ele>434.3333333333333</ele><time>2026-05-01T11:29:43.226Z</time></trkpt><trkpt lat="43.9455753" lon="12.0320296"><ele>431.0</ele><time>2026-05-01T11:29:44.237Z</time></trkpt><trkpt lat="43.9455803" lon="12.0322698"><ele>430.0</ele><time>2026-05-01T11:29:45.229Z</time></trkpt><trkpt lat="43.9455695" lon="12.0325107"><ele>429.0</ele><time>2026-05-01T11:29:46.246Z</time></trkpt><trkpt lat="43.9455487" lon="12.0327624"><ele>428.0</ele><time>2026-05-01T11:29:47.235Z</time></trkpt><trkpt lat="43.9455051" lon="12.0329939"><ele>428.0</ele><time>2026-05-01T11:29:48.225Z</time></trkpt><trkpt lat="43.9454595" lon="12.0331913"><ele>428.0</ele><time>2026-05-01T11:29:49.225Z</time></trkpt><trkpt lat="43.9454191" lon="12.0333657"><ele>428.0</ele><time>2026-05-01T11:29:50.244Z</time></trkpt><trkpt lat="43.9453943" lon="12.0335278"><ele>428.0</ele><time>2026-05-01T11:29:51.236Z</time></trkpt><trkpt lat="43.9453945" lon="12.0336525"><ele>426.59999999999997</ele><time>2026-05-01T11:29:52.236Z</time></trkpt><trkpt lat="43.9454361" lon="12.033771"><ele>425.19999999999993</ele><time>2026-05-01T11:29:53.224Z</time></trkpt><trkpt lat="43.9454976" lon="12.0338358"><ele>423.8</ele><time>2026-05-01T11:29:54.22Z</time></trkpt><trkpt lat="43.9455895" lon="12.0338486"><ele>422.4</ele><time>2026-05-01T11:29:55.222Z</time></trkpt><trkpt lat="43.9456824" lon="12.0337969"><ele>421.0</ele><time>2026-05-01T11:29:56.221Z</time></trkpt><trkpt lat="43.9457778" lon="12.0337081"><ele>420.75</ele><time>2026-05-01T11:29:57.226Z</time></trkpt><trkpt lat="43.9458902" lon="12.0336497"><ele>420.5</ele><time>2026-05-01T11:29:58.224Z</time></trkpt><trkpt lat="43.9460375" lon="12.0336083"><ele>420.25</ele><time>2026-05-01T11:29:59.224Z</time></trkpt><trkpt lat="43.9461982" lon="12.0336287"><ele>420.0</ele><time>2026-05-01T11:30:00.228Z</time></trkpt><trkpt lat="43.9463504" lon="12.0336774"><ele>420.0</ele><time>2026-05-01T11:30:01.224Z</time></trkpt><trkpt lat="43.9464655" lon="12.0337338"><ele>420.0</ele><time>2026-05-01T11:30:02.221Z</time></trkpt><trkpt lat="43.9465439" lon="12.0338"><ele>420.0</ele><time>2026-05-01T11:30:03.24Z</time></trkpt><trkpt lat="43.9466578" lon="12.0338518"><ele>420.0</ele><time>2026-05-01T11:30:04.233Z</time></trkpt><trkpt lat="43.9467637" lon="12.0338981"><ele>420.0</ele><time>2026-05-01T11:30:05.23Z</time></trkpt><trkpt lat="43.9468685" lon="12.0339507"><ele>418.75</ele><time>2026-05-01T11:30:06.234Z</time></trkpt><trkpt lat="43.9469746" lon="12.0340046"><ele>417.5</ele><time>2026-05-01T11:30:07.235Z</time></trkpt><trkpt lat="43.9470872" lon="12.0340527"><ele>416.25</ele><time>2026-05-01T11:30:08.223Z</time></trkpt><trkpt lat="43.9472005" lon="12.0340985"><ele>415.0</ele><time>2026-05-01T11:30:09.235Z</time></trkpt><trkpt lat="43.9473024" lon="12.0341531"><ele>415.00000000000006</ele><time>2026-05-01T11:30:10.235Z</time></trkpt><trkpt lat="43.9473836" lon="12.0342258"><ele>415.0</ele><time>2026-05-01T11:30:11.223Z</time></trkpt><trkpt lat="43.947436" lon="12.0343291"><ele>415.0</ele><time>2026-05-01T11:30:12.231Z</time></trkpt><trkpt lat="43.9474393" lon="12.0344572"><ele>415.0</ele><time>2026-05-01T11:30:13.237Z</time></trkpt><trkpt lat="43.9474434" lon="12.0345814"><ele>415.00000000000006</ele><time>2026-05-01T11:30:14.236Z</time></trkpt><trkpt lat="43.9474392" lon="12.0346833"><ele>415.0</ele><time>2026-05-01T11:30:15.231Z</time></trkpt><trkpt lat="43.9474782" lon="12.0348374"><ele>415.50000000000006</ele><time>2026-05-01T11:30:17.223Z</time></trkpt><trkpt lat="43.9475476" lon="12.0349435"><ele>416.0</ele><time>2026-05-01T11:30:19.225Z</time></trkpt><trkpt lat="43.9476253" lon="12.0349711"><ele>416.5</ele><time>2026-05-01T11:30:21.23Z</time></trkpt><trkpt lat="43.9476983" lon="12.0349686"><ele>417.0</ele><time>2026-05-01T11:30:23.23Z</time></trkpt><trkpt lat="43.9477912" lon="12.0349269"><ele>417.50000000000006</ele><time>2026-05-01T11:30:25.224Z</time></trkpt><trkpt lat="43.9478494" lon="12.0348653"><ele>418.0</ele><time>2026-05-01T11:30:26.236Z</time></trkpt><trkpt lat="43.9479112" lon="12.0347851"><ele>418.59999999999997</ele><time>2026-05-01T11:30:27.219Z</time></trkpt><trkpt lat="43.9479899" lon="12.0346944"><ele>419.2</ele><time>2026-05-01T11:30:28.236Z</time></trkpt><trkpt lat="43.948065" lon="12.0346138"><ele>419.8</ele><time>2026-05-01T11:30:29.235Z</time></trkpt><trkpt lat="43.9481456" lon="12.0345797"><ele>420.4</ele><time>2026-05-01T11:30:30.222Z</time></trkpt><trkpt lat="43.9482379" lon="12.0345978"><ele>421.0</ele><time>2026-05-01T11:30:31.222Z</time></trkpt><trkpt lat="43.9483362" lon="12.0346708"><ele>430.0</ele><time>2026-05-01T11:30:32.236Z</time></trkpt><trkpt lat="43.9483958" lon="12.0347871"><ele>439.0</ele><time>2026-05-01T11:30:33.227Z</time></trkpt><trkpt lat="43.948436" lon="12.0349476"><ele>448.0</ele><time>2026-05-01T11:30:34.232Z</time></trkpt><trkpt lat="43.9484733" lon="12.035134"><ele>457.0</ele><time>2026-05-01T11:30:35.223Z</time></trkpt><trkpt lat="43.9485008" lon="12.0353389"><ele>457.0</ele><time>2026-05-01T11:30:36.223Z</time></trkpt><trkpt lat="43.9485161" lon="12.0355541"><ele>457.0</ele><time>2026-05-01T11:30:37.223Z</time></trkpt><trkpt lat="43.9484411" lon="12.0360423"><ele>454.0</ele><time>2026-05-01T11:30:39.236Z</time></trkpt><trkpt lat="43.9483911" lon="12.0362799"><ele>451.0</ele><time>2026-05-01T11:30:40.226Z</time></trkpt><trkpt lat="43.9483543" lon="12.0365386"><ele>448.0</ele><time>2026-05-01T11:30:41.218Z</time></trkpt><trkpt lat="43.9483363" lon="12.0368151"><ele>434.33333333333337</ele><time>2026-05-01T11:30:42.22Z</time></trkpt><trkpt lat="43.9483302" lon="12.0370783"><ele>420.66666666666663</ele><time>2026-05-01T11:30:43.236Z</time></trkpt><trkpt lat="43.9483236" lon="12.0373567"><ele>407.0</ele><time>2026-05-01T11:30:44.224Z</time></trkpt><trkpt lat="43.9483522" lon="12.0376424"><ele>406.0</ele><time>2026-05-01T11:30:45.233Z</time></trkpt><trkpt lat="43.9483675" lon="12.0379154"><ele>405.0</ele><time>2026-05-01T11:30:46.228Z</time></trkpt><trkpt lat="43.9483558" lon="12.0381978"><ele>404.0</ele><time>2026-05-01T11:30:47.223Z</time></trkpt><trkpt lat="43.9483448" lon="12.0384554"><ele>403.75</ele><time>2026-05-01T11:30:48.236Z</time></trkpt><trkpt lat="43.9483424" lon="12.0386747"><ele>403.5</ele><time>2026-05-01T11:30:49.256Z</time></trkpt><trkpt lat="43.9483347" lon="12.0388824"><ele>403.25</ele><time>2026-05-01T11:30:50.225Z</time></trkpt><trkpt lat="43.9483444" lon="12.0390467"><ele>403.0</ele><time>2026-05-01T11:30:51.227Z</time></trkpt><trkpt lat="43.9483843" lon="12.0392017"><ele>413.6666666666667</ele><time>2026-05-01T11:30:52.221Z</time></trkpt><trkpt lat="43.9484612" lon="12.0393571"><ele>424.33333333333337</ele><time>2026-05-01T11:30:53.222Z</time></trkpt><trkpt lat="43.9485518" lon="12.0395282"><ele>435.0</ele><time>2026-05-01T11:30:54.232Z</time></trkpt><trkpt lat="43.948652" lon="12.0397041"><ele>435.0</ele><time>2026-05-01T11:30:55.218Z</time></trkpt><trkpt lat="43.9487778" lon="12.0398887"><ele>435.0</ele><time>2026-05-01T11:30:56.237Z</time></trkpt><trkpt lat="43.9489122" lon="12.0400575"><ele>435.0</ele><time>2026-05-01T11:30:57.223Z</time></trkpt><trkpt lat="43.9490435" lon="12.0402075"><ele>429.66666666666663</ele><time>2026-05-01T11:30:58.224Z</time></trkpt><trkpt lat="43.9491533" lon="12.0403586"><ele>424.3333333333333</ele><time>2026-05-01T11:30:59.235Z</time></trkpt><trkpt lat="43.9492669" lon="12.0405192"><ele>419.0</ele><time>2026-05-01T11:31:00.235Z</time></trkpt><trkpt lat="43.9493755" lon="12.0406684"><ele>419.0</ele><time>2026-05-01T11:31:01.23Z</time></trkpt><trkpt lat="43.9494852" lon="12.0407756"><ele>419.0</ele><time>2026-05-01T11:31:02.235Z</time></trkpt><trkpt lat="43.9496047" lon="12.0408434"><ele>419.0</ele><time>2026-05-01T11:31:03.232Z</time></trkpt><trkpt lat="43.9497221" lon="12.0408572"><ele>419.0</ele><time>2026-05-01T11:31:04.235Z</time></trkpt><trkpt lat="43.9498441" lon="12.0408209"><ele>419.0</ele><time>2026-05-01T11:31:05.235Z</time></trkpt><trkpt lat="43.9499916" lon="12.0407181"><ele>419.0</ele><time>2026-05-01T11:31:06.235Z</time></trkpt><trkpt lat="43.9501306" lon="12.0406135"><ele>419.0</ele><time>2026-05-01T11:31:07.227Z</time></trkpt><trkpt lat="43.9502695" lon="12.0405142"><ele>416.0</ele><time>2026-05-01T11:31:08.229Z</time></trkpt><trkpt lat="43.9503843" lon="12.0404423"><ele>413.0</ele><time>2026-05-01T11:31:09.236Z</time></trkpt><trkpt lat="43.9505314" lon="12.040421"><ele>410.0</ele><time>2026-05-01T11:31:11.221Z</time></trkpt><trkpt lat="43.9505877" lon="12.0406145"><ele>407.0</ele><time>2026-05-01T11:31:13.231Z</time></trkpt><trkpt lat="43.95057" lon="12.0407666"><ele>405.75</ele><time>2026-05-01T11:31:14.235Z</time></trkpt><trkpt lat="43.9505185" lon="12.0409252"><ele>404.5</ele><time>2026-05-01T11:31:15.236Z</time></trkpt><trkpt lat="43.9504492" lon="12.0410712"><ele>403.25</ele><time>2026-05-01T11:31:16.223Z</time></trkpt><trkpt lat="43.9503675" lon="12.0412135"><ele>402.0</ele><time>2026-05-01T11:31:17.234Z</time></trkpt><trkpt lat="43.950309" lon="12.0413648"><ele>402.0</ele><time>2026-05-01T11:31:18.237Z</time></trkpt><trkpt lat="43.9502691" lon="12.0415313"><ele>402.0</ele><time>2026-05-01T11:31:19.219Z</time></trkpt><trkpt lat="43.9502632" lon="12.0416899"><ele>402.0</ele><time>2026-05-01T11:31:20.237Z</time></trkpt><trkpt lat="43.9502672" lon="12.0418485"><ele>402.0</ele><time>2026-05-01T11:31:21.223Z</time></trkpt><trkpt lat="43.9503112" lon="12.0420069"><ele>398.75</ele><time>2026-05-01T11:31:22.223Z</time></trkpt><trkpt lat="43.950378" lon="12.0421537"><ele>395.5</ele><time>2026-05-01T11:31:23.22Z</time></trkpt><trkpt lat="43.9504747" lon="12.0423019"><ele>392.25</ele><time>2026-05-01T11:31:24.234Z</time></trkpt><trkpt lat="43.9505772" lon="12.0424291"><ele>389.0</ele><time>2026-05-01T11:31:25.223Z</time></trkpt><trkpt lat="43.9506727" lon="12.0425344"><ele>386.5</ele><time>2026-05-01T11:31:26.222Z</time></trkpt><trkpt lat="43.9507982" lon="12.042626"><ele>384.0</ele><time>2026-05-01T11:31:27.236Z</time></trkpt><trkpt lat="43.9509211" lon="12.0426681"><ele>381.5</ele><time>2026-05-01T11:31:28.226Z</time></trkpt><trkpt lat="43.9510593" lon="12.0426713"><ele>379.0</ele><time>2026-05-01T11:31:29.223Z</time></trkpt><trkpt lat="43.9511852" lon="12.0426836"><ele>379.0</ele><time>2026-05-01T11:31:30.234Z</time></trkpt><trkpt lat="43.9513112" lon="12.0427263"><ele>379.0</ele><time>2026-05-01T11:31:31.236Z</time></trkpt><trkpt lat="43.9514283" lon="12.042814"><ele>379.0</ele><time>2026-05-01T11:31:32.24Z</time></trkpt><trkpt lat="43.9515129" lon="12.0429292"><ele>379.0</ele><time>2026-05-01T11:31:33.224Z</time></trkpt><trkpt lat="43.9515657" lon="12.0430733"><ele>379.0</ele><time>2026-05-01T11:31:34.217Z</time></trkpt><trkpt lat="43.9516023" lon="12.0432403"><ele>379.0</ele><time>2026-05-01T11:31:35.222Z</time></trkpt><trkpt lat="43.9516515" lon="12.0433924"><ele>379.0</ele><time>2026-05-01T11:31:36.235Z</time></trkpt><trkpt lat="43.9517128" lon="12.0435405"><ele>379.0</ele><time>2026-05-01T11:31:37.221Z</time></trkpt><trkpt lat="43.9517782" lon="12.0436675"><ele>377.6</ele><time>2026-05-01T11:31:38.231Z</time></trkpt><trkpt lat="43.9518616" lon="12.0437586"><ele>376.2</ele><time>2026-05-01T11:31:39.234Z</time></trkpt><trkpt lat="43.951966" lon="12.043798"><ele>374.8</ele><time>2026-05-01T11:31:40.236Z</time></trkpt><trkpt lat="43.9520716" lon="12.043808"><ele>373.40000000000003</ele><time>2026-05-01T11:31:41.241Z</time></trkpt><trkpt lat="43.9521587" lon="12.0438333"><ele>372.0</ele><time>2026-05-01T11:31:42.228Z</time></trkpt><trkpt lat="43.9522209" lon="12.0438975"><ele>372.0</ele><time>2026-05-01T11:31:43.221Z</time></trkpt><trkpt lat="43.9522688" lon="12.0439916"><ele>372.0</ele><time>2026-05-01T11:31:44.225Z</time></trkpt><trkpt lat="43.9522724" lon="12.0441305"><ele>372.0</ele><time>2026-05-01T11:31:45.219Z</time></trkpt><trkpt lat="43.9522652" lon="12.0443082"><ele>372.0</ele><time>2026-05-01T11:31:46.229Z</time></trkpt><trkpt lat="43.9522855" lon="12.0445046"><ele>368.5</ele><time>2026-05-01T11:31:47.222Z</time></trkpt><trkpt lat="43.9523234" lon="12.0447036"><ele>365.0</ele><time>2026-05-01T11:31:48.235Z</time></trkpt><trkpt lat="43.9523743" lon="12.0448982"><ele>361.5</ele><time>2026-05-01T11:31:49.217Z</time></trkpt><trkpt lat="43.9524214" lon="12.0450934"><ele>358.0</ele><time>2026-05-01T11:31:50.235Z</time></trkpt><trkpt lat="43.9524614" lon="12.0452795"><ele>359.75</ele><time>2026-05-01T11:31:51.235Z</time></trkpt><trkpt lat="43.9525164" lon="12.0454497"><ele>361.5</ele><time>2026-05-01T11:31:52.226Z</time></trkpt><trkpt lat="43.952593" lon="12.045599"><ele>363.25</ele><time>2026-05-01T11:31:53.222Z</time></trkpt><trkpt lat="43.9526821" lon="12.0457109"><ele>365.0</ele><time>2026-05-01T11:31:54.233Z</time></trkpt><trkpt lat="43.9528047" lon="12.0457794"><ele>365.0</ele><time>2026-05-01T11:31:55.223Z</time></trkpt><trkpt lat="43.9529546" lon="12.0457856"><ele>365.0</ele><time>2026-05-01T11:31:56.223Z</time></trkpt><trkpt lat="43.9531115" lon="12.0457827"><ele>365.0</ele><time>2026-05-01T11:31:57.236Z</time></trkpt><trkpt lat="43.9532729" lon="12.0458071"><ele>362.33333333333337</ele><time>2026-05-01T11:31:58.235Z</time></trkpt><trkpt lat="43.9534435" lon="12.0458638"><ele>359.6666666666667</ele><time>2026-05-01T11:31:59.221Z</time></trkpt><trkpt lat="43.9535951" lon="12.0459429"><ele>357.0</ele><time>2026-05-01T11:32:00.235Z</time></trkpt><trkpt lat="43.9537491" lon="12.0460405"><ele>357.0</ele><time>2026-05-01T11:32:01.224Z</time></trkpt><trkpt lat="43.9539016" lon="12.0461254"><ele>357.0</ele><time>2026-05-01T11:32:02.234Z</time></trkpt><trkpt lat="43.9540532" lon="12.046228"><ele>357.0</ele><time>2026-05-01T11:32:03.235Z</time></trkpt><trkpt lat="43.9542111" lon="12.0463393"><ele>359.0</ele><time>2026-05-01T11:32:04.224Z</time></trkpt><trkpt lat="43.9543561" lon="12.0464803"><ele>361.0</ele><time>2026-05-01T11:32:05.223Z</time></trkpt><trkpt lat="43.9544887" lon="12.0466224"><ele>363.0</ele><time>2026-05-01T11:32:06.223Z</time></trkpt><trkpt lat="43.9546389" lon="12.0467724"><ele>360.6666666666667</ele><time>2026-05-01T11:32:07.224Z</time></trkpt><trkpt lat="43.9547715" lon="12.0469132"><ele>358.33333333333337</ele><time>2026-05-01T11:32:08.22Z</time></trkpt><trkpt lat="43.9549081" lon="12.0470571"><ele>356.0</ele><time>2026-05-01T11:32:09.225Z</time></trkpt><trkpt lat="43.9550431" lon="12.0472016"><ele>356.0</ele><time>2026-05-01T11:32:10.235Z</time></trkpt><trkpt lat="43.9551779" lon="12.0473373"><ele>356.0</ele><time>2026-05-01T11:32:11.22Z</time></trkpt><trkpt lat="43.9553162" lon="12.0474729"><ele>356.0</ele><time>2026-05-01T11:32:12.227Z</time></trkpt><trkpt lat="43.9554511" lon="12.0476026"><ele>351.6666666666667</ele><time>2026-05-01T11:32:13.236Z</time></trkpt><trkpt lat="43.9555834" lon="12.0477304"><ele>347.3333333333333</ele><time>2026-05-01T11:32:14.221Z</time></trkpt><trkpt lat="43.9557273" lon="12.0478697"><ele>343.0</ele><time>2026-05-01T11:32:15.238Z</time></trkpt><trkpt lat="43.9558644" lon="12.0480033"><ele>346.0</ele><time>2026-05-01T11:32:16.229Z</time></trkpt><trkpt lat="43.9559974" lon="12.0481563"><ele>349.0</ele><time>2026-05-01T11:32:17.236Z</time></trkpt><trkpt lat="43.9561211" lon="12.0482972"><ele>352.0</ele><time>2026-05-01T11:32:18.222Z</time></trkpt><trkpt lat="43.9562259" lon="12.0484568"><ele>352.0</ele><time>2026-05-01T11:32:19.224Z</time></trkpt><trkpt lat="43.9563094" lon="12.0486604"><ele>352.0</ele><time>2026-05-01T11:32:20.235Z</time></trkpt><trkpt lat="43.9563775" lon="12.0488945"><ele>352.0</ele><time>2026-05-01T11:32:21.236Z</time></trkpt><trkpt lat="43.9564576" lon="12.0491212"><ele>355.3333333333333</ele><time>2026-05-01T11:32:22.235Z</time></trkpt><trkpt lat="43.95653" lon="12.0493666"><ele>358.6666666666667</ele><time>2026-05-01T11:32:23.223Z</time></trkpt><trkpt lat="43.956623" lon="12.0496045"><ele>362.0</ele><time>2026-05-01T11:32:24.227Z</time></trkpt><trkpt lat="43.9567291" lon="12.0498317"><ele>355.6666666666667</ele><time>2026-05-01T11:32:25.221Z</time></trkpt><trkpt lat="43.9568556" lon="12.0500481"><ele>349.3333333333333</ele><time>2026-05-01T11:32:26.225Z</time></trkpt><trkpt lat="43.9570001" lon="12.050261"><ele>343.0</ele><time>2026-05-01T11:32:27.235Z</time></trkpt><trkpt lat="43.9571281" lon="12.0504453"><ele>343.0</ele><time>2026-05-01T11:32:28.235Z</time></trkpt><trkpt lat="43.9572801" lon="12.0506212"><ele>343.0</ele><time>2026-05-01T11:32:29.233Z</time></trkpt><trkpt lat="43.9574439" lon="12.050794"><ele>343.0</ele><time>2026-05-01T11:32:30.223Z</time></trkpt><trkpt lat="43.9576078" lon="12.0509543"><ele>340.3333333333333</ele><time>2026-05-01T11:32:31.221Z</time></trkpt><trkpt lat="43.9577603" lon="12.0510911"><ele>337.6666666666667</ele><time>2026-05-01T11:32:32.244Z</time></trkpt><trkpt lat="43.9579066" lon="12.0512015"><ele>335.0</ele><time>2026-05-01T11:32:33.236Z</time></trkpt><trkpt lat="43.9580619" lon="12.0513051"><ele>335.0</ele><time>2026-05-01T11:32:34.234Z</time></trkpt><trkpt lat="43.9582241" lon="12.05138"><ele>335.0</ele><time>2026-05-01T11:32:35.225Z</time></trkpt><trkpt lat="43.9583946" lon="12.0514472"><ele>335.0</ele><time>2026-05-01T11:32:36.236Z</time></trkpt><trkpt lat="43.9585671" lon="12.0515249"><ele>331.33333333333337</ele><time>2026-05-01T11:32:37.235Z</time></trkpt><trkpt lat="43.9587312" lon="12.0516041"><ele>327.6666666666667</ele><time>2026-05-01T11:32:38.223Z</time></trkpt><trkpt lat="43.9588833" lon="12.0516858"><ele>324.0</ele><time>2026-05-01T11:32:39.231Z</time></trkpt><trkpt lat="43.9590237" lon="12.0517706"><ele>324.0</ele><time>2026-05-01T11:32:40.223Z</time></trkpt><trkpt lat="43.9591489" lon="12.0518586"><ele>324.0</ele><time>2026-05-01T11:32:41.221Z</time></trkpt><trkpt lat="43.9592565" lon="12.0519882"><ele>324.0</ele><time>2026-05-01T11:32:42.225Z</time></trkpt><trkpt lat="43.9593469" lon="12.0521371"><ele>324.0</ele><time>2026-05-01T11:32:43.23Z</time></trkpt><trkpt lat="43.9594403" lon="12.0523502"><ele>331.0</ele><time>2026-05-01T11:32:44.238Z</time></trkpt><trkpt lat="43.9595337" lon="12.0525681"><ele>338.0</ele><time>2026-05-01T11:32:45.237Z</time></trkpt><trkpt lat="43.9596321" lon="12.0527912"><ele>345.0</ele><time>2026-05-01T11:32:46.221Z</time></trkpt><trkpt lat="43.9597311" lon="12.0530121"><ele>345.0</ele><time>2026-05-01T11:32:47.221Z</time></trkpt><trkpt lat="43.9598262" lon="12.0532166"><ele>345.0</ele><time>2026-05-01T11:32:48.22Z</time></trkpt><trkpt lat="43.9599195" lon="12.0534363"><ele>345.0</ele><time>2026-05-01T11:32:49.224Z</time></trkpt><trkpt lat="43.9599879" lon="12.0536628"><ele>339.0</ele><time>2026-05-01T11:32:50.22Z</time></trkpt><trkpt lat="43.9600307" lon="12.0539033"><ele>333.0</ele><time>2026-05-01T11:32:51.235Z</time></trkpt><trkpt lat="43.960059" lon="12.0541523"><ele>327.0</ele><time>2026-05-01T11:32:52.237Z</time></trkpt><trkpt lat="43.9600791" lon="12.0543958"><ele>327.0</ele><time>2026-05-01T11:32:53.225Z</time></trkpt><trkpt lat="43.9601016" lon="12.0546205"><ele>327.0</ele><time>2026-05-01T11:32:54.239Z</time></trkpt><trkpt lat="43.9601424" lon="12.0548548"><ele>327.0</ele><time>2026-05-01T11:32:55.236Z</time></trkpt><trkpt lat="43.9601887" lon="12.0550747"><ele>322.3333333333333</ele><time>2026-05-01T11:32:56.221Z</time></trkpt><trkpt lat="43.9602417" lon="12.0552678"><ele>317.66666666666663</ele><time>2026-05-01T11:32:57.23Z</time></trkpt><trkpt lat="43.960298" lon="12.0554653"><ele>313.0</ele><time>2026-05-01T11:32:58.226Z</time></trkpt><trkpt lat="43.9603766" lon="12.0556581"><ele>311.3333333333333</ele><time>2026-05-01T11:32:59.234Z</time></trkpt><trkpt lat="43.9604848" lon="12.055839"><ele>309.6666666666667</ele><time>2026-05-01T11:33:00.235Z</time></trkpt><trkpt lat="43.9606053" lon="12.0560139"><ele>308.0</ele><time>2026-05-01T11:33:01.225Z</time></trkpt><trkpt lat="43.9607135" lon="12.0561794"><ele>308.0</ele><time>2026-05-01T11:33:02.23Z</time></trkpt><trkpt lat="43.96083" lon="12.0563404"><ele>308.0</ele><time>2026-05-01T11:33:03.235Z</time></trkpt><trkpt lat="43.9609334" lon="12.0564943"><ele>308.0</ele><time>2026-05-01T11:33:04.225Z</time></trkpt><trkpt lat="43.9610414" lon="12.0566372"><ele>313.33333333333337</ele><time>2026-05-01T11:33:05.23Z</time></trkpt><trkpt lat="43.9611583" lon="12.0567787"><ele>318.6666666666667</ele><time>2026-05-01T11:33:06.236Z</time></trkpt><trkpt lat="43.9612831" lon="12.0569145"><ele>324.0</ele><time>2026-05-01T11:33:07.22Z</time></trkpt><trkpt lat="43.9614212" lon="12.0570575"><ele>324.0</ele><time>2026-05-01T11:33:08.222Z</time></trkpt><trkpt lat="43.9615543" lon="12.0572003"><ele>324.0</ele><time>2026-05-01T11:33:09.237Z</time></trkpt><trkpt lat="43.9616715" lon="12.0573598"><ele>324.0</ele><time>2026-05-01T11:33:10.222Z</time></trkpt><trkpt lat="43.961778" lon="12.0575462"><ele>332.0</ele><time>2026-05-01T11:33:11.23Z</time></trkpt><trkpt lat="43.9618621" lon="12.0577444"><ele>340.0</ele><time>2026-05-01T11:33:12.222Z</time></trkpt><trkpt lat="43.9619174" lon="12.0579788"><ele>348.0</ele><time>2026-05-01T11:33:13.221Z</time></trkpt><trkpt lat="43.9619526" lon="12.0582136"><ele>342.3333333333333</ele><time>2026-05-01T11:33:14.222Z</time></trkpt><trkpt lat="43.9619872" lon="12.058446"><ele>336.66666666666663</ele><time>2026-05-01T11:33:15.222Z</time></trkpt><trkpt lat="43.962021" lon="12.0586899"><ele>331.0</ele><time>2026-05-01T11:33:16.237Z</time></trkpt><trkpt lat="43.9620567" lon="12.0589145"><ele>326.0</ele><time>2026-05-01T11:33:17.236Z</time></trkpt><trkpt lat="43.9621038" lon="12.0591218"><ele>321.0</ele><time>2026-05-01T11:33:18.235Z</time></trkpt><trkpt lat="43.962178" lon="12.0593273"><ele>316.0</ele><time>2026-05-01T11:33:19.23Z</time></trkpt><trkpt lat="43.9622683" lon="12.0595103"><ele>316.0</ele><time>2026-05-01T11:33:20.223Z</time></trkpt><trkpt lat="43.9623528" lon="12.0596811"><ele>316.0</ele><time>2026-05-01T11:33:21.22Z</time></trkpt><trkpt lat="43.962411" lon="12.0598589"><ele>316.0</ele><time>2026-05-01T11:33:22.247Z</time></trkpt><trkpt lat="43.9624411" lon="12.0600626"><ele>316.0</ele><time>2026-05-01T11:33:23.237Z</time></trkpt><trkpt lat="43.9624312" lon="12.0602805"><ele>314.3333333333333</ele><time>2026-05-01T11:33:24.22Z</time></trkpt><trkpt lat="43.9623997" lon="12.0605062"><ele>312.6666666666667</ele><time>2026-05-01T11:33:25.224Z</time></trkpt><trkpt lat="43.9623705" lon="12.0607506"><ele>311.0</ele><time>2026-05-01T11:33:26.223Z</time></trkpt><trkpt lat="43.9623475" lon="12.0609793"><ele>311.0</ele><time>2026-05-01T11:33:27.219Z</time></trkpt><trkpt lat="43.9623281" lon="12.0612006"><ele>311.0</ele><time>2026-05-01T11:33:28.236Z</time></trkpt><trkpt lat="43.9623433" lon="12.061457"><ele>311.0</ele><time>2026-05-01T11:33:29.221Z</time></trkpt><trkpt lat="43.9623456" lon="12.0616926"><ele>309.33333333333337</ele><time>2026-05-01T11:33:30.221Z</time></trkpt><trkpt lat="43.9623698" lon="12.0619314"><ele>307.6666666666667</ele><time>2026-05-01T11:33:31.254Z</time></trkpt><trkpt lat="43.9623945" lon="12.0621789"><ele>306.0</ele><time>2026-05-01T11:33:32.235Z</time></trkpt><trkpt lat="43.9624158" lon="12.0624204"><ele>304.3333333333333</ele><time>2026-05-01T11:33:33.231Z</time></trkpt><trkpt lat="43.9624288" lon="12.0626556"><ele>302.66666666666663</ele><time>2026-05-01T11:33:34.225Z</time></trkpt><trkpt lat="43.962427" lon="12.0629099"><ele>301.0</ele><time>2026-05-01T11:33:35.23Z</time></trkpt><trkpt lat="43.9624145" lon="12.0631543"><ele>300.66666666666663</ele><time>2026-05-01T11:33:36.235Z</time></trkpt><trkpt lat="43.9623994" lon="12.0633938"><ele>300.3333333333333</ele><time>2026-05-01T11:33:37.235Z</time></trkpt><trkpt lat="43.9623825" lon="12.0636095"><ele>300.0</ele><time>2026-05-01T11:33:38.225Z</time></trkpt><trkpt lat="43.9623694" lon="12.0638195"><ele>300.0</ele><time>2026-05-01T11:33:39.232Z</time></trkpt><trkpt lat="43.9623637" lon="12.0640213"><ele>300.0</ele><time>2026-05-01T11:33:40.223Z</time></trkpt><trkpt lat="43.9623718" lon="12.0641924"><ele>300.0</ele><time>2026-05-01T11:33:41.223Z</time></trkpt><trkpt lat="43.9624116" lon="12.0643349"><ele>300.0</ele><time>2026-05-01T11:33:42.236Z</time></trkpt><trkpt lat="43.9624911" lon="12.0644708"><ele>302.75</ele><time>2026-05-01T11:33:43.22Z</time></trkpt><trkpt lat="43.9626003" lon="12.0645573"><ele>305.5</ele><time>2026-05-01T11:33:44.243Z</time></trkpt><trkpt lat="43.9627334" lon="12.0646156"><ele>308.25</ele><time>2026-05-01T11:33:45.235Z</time></trkpt><trkpt lat="43.9628675" lon="12.0646755"><ele>311.0</ele><time>2026-05-01T11:33:46.223Z</time></trkpt><trkpt lat="43.9629955" lon="12.0647532"><ele>311.0</ele><time>2026-05-01T11:33:47.22Z</time></trkpt><trkpt lat="43.9631059" lon="12.0648784"><ele>311.0</ele><time>2026-05-01T11:33:48.235Z</time></trkpt><trkpt lat="43.9632025" lon="12.0650443"><ele>311.0</ele><time>2026-05-01T11:33:49.229Z</time></trkpt><trkpt lat="43.9632865" lon="12.0652229"><ele>310.5</ele><time>2026-05-01T11:33:50.235Z</time></trkpt><trkpt lat="43.9633576" lon="12.0654027"><ele>310.0</ele><time>2026-05-01T11:33:51.226Z</time></trkpt><trkpt lat="43.963406" lon="12.0655697"><ele>309.5</ele><time>2026-05-01T11:33:52.235Z</time></trkpt><trkpt lat="43.9634269" lon="12.0657588"><ele>309.0</ele><time>2026-05-01T11:33:53.223Z</time></trkpt><trkpt lat="43.9634139" lon="12.0659682"><ele>308.0</ele><time>2026-05-01T11:33:54.235Z</time></trkpt><trkpt lat="43.9633886" lon="12.0661886"><ele>307.0</ele><time>2026-05-01T11:33:55.235Z</time></trkpt><trkpt lat="43.9633522" lon="12.06643"><ele>306.0</ele><time>2026-05-01T11:33:56.22Z</time></trkpt><trkpt lat="43.9633112" lon="12.0666699"><ele>298.3333333333333</ele><time>2026-05-01T11:33:57.231Z</time></trkpt><trkpt lat="43.9632738" lon="12.0668932"><ele>290.66666666666663</ele><time>2026-05-01T11:33:58.224Z</time></trkpt><trkpt lat="43.9632426" lon="12.067118"><ele>283.0</ele><time>2026-05-01T11:33:59.236Z</time></trkpt><trkpt lat="43.9632196" lon="12.0673064"><ele>283.5</ele><time>2026-05-01T11:34:00.219Z</time></trkpt><trkpt lat="43.9632218" lon="12.0674907"><ele>284.0</ele><time>2026-05-01T11:34:01.219Z</time></trkpt><trkpt lat="43.9632553" lon="12.0676581"><ele>284.5</ele><time>2026-05-01T11:34:02.218Z</time></trkpt><trkpt lat="43.9633226" lon="12.067796"><ele>285.0</ele><time>2026-05-01T11:34:03.235Z</time></trkpt><trkpt lat="43.9634138" lon="12.0678941"><ele>286.75</ele><time>2026-05-01T11:34:04.23Z</time></trkpt><trkpt lat="43.9635201" lon="12.0679488"><ele>288.5</ele><time>2026-05-01T11:34:05.225Z</time></trkpt><trkpt lat="43.9636335" lon="12.0679961"><ele>290.25</ele><time>2026-05-01T11:34:06.225Z</time></trkpt><trkpt lat="43.9637534" lon="12.0680526"><ele>292.0</ele><time>2026-05-01T11:34:07.235Z</time></trkpt><trkpt lat="43.9638652" lon="12.068123"><ele>292.0</ele><time>2026-05-01T11:34:08.224Z</time></trkpt><trkpt lat="43.9639722" lon="12.0682197"><ele>292.0</ele><time>2026-05-01T11:34:09.22Z</time></trkpt><trkpt lat="43.9640707" lon="12.068342"><ele>292.0</ele><time>2026-05-01T11:34:10.219Z</time></trkpt><trkpt lat="43.9641645" lon="12.0684891"><ele>292.0</ele><time>2026-05-01T11:34:11.223Z</time></trkpt><trkpt lat="43.9642561" lon="12.0686362"><ele>294.25</ele><time>2026-05-01T11:34:12.224Z</time></trkpt><trkpt lat="43.9643462" lon="12.0687723"><ele>296.5</ele><time>2026-05-01T11:34:13.22Z</time></trkpt><trkpt lat="43.9644421" lon="12.0688819"><ele>298.75</ele><time>2026-05-01T11:34:14.235Z</time></trkpt><trkpt lat="43.9645668" lon="12.068963"><ele>301.0</ele><time>2026-05-01T11:34:15.223Z</time></trkpt><trkpt lat="43.9647008" lon="12.0689844"><ele>301.0</ele><time>2026-05-01T11:34:16.22Z</time></trkpt><trkpt lat="43.9648584" lon="12.0689797"><ele>301.0</ele><time>2026-05-01T11:34:17.226Z</time></trkpt><trkpt lat="43.9650123" lon="12.0689575"><ele>301.0</ele><time>2026-05-01T11:34:18.233Z</time></trkpt><trkpt lat="43.9651703" lon="12.0689391"><ele>310.0</ele><time>2026-05-01T11:34:19.223Z</time></trkpt><trkpt lat="43.9653243" lon="12.0689441"><ele>319.0</ele><time>2026-05-01T11:34:20.244Z</time></trkpt><trkpt lat="43.965479" lon="12.0689829"><ele>328.0</ele><time>2026-05-01T11:34:21.235Z</time></trkpt><trkpt lat="43.9656348" lon="12.0690605"><ele>324.3333333333333</ele><time>2026-05-01T11:34:22.235Z</time></trkpt><trkpt lat="43.9657903" lon="12.0691694"><ele>320.6666666666667</ele><time>2026-05-01T11:34:23.236Z</time></trkpt><trkpt lat="43.9659307" lon="12.0692923"><ele>317.0</ele><time>2026-05-01T11:34:24.233Z</time></trkpt><trkpt lat="43.9660604" lon="12.0694324"><ele>317.0</ele><time>2026-05-01T11:34:25.235Z</time></trkpt><trkpt lat="43.9661934" lon="12.0695779"><ele>317.0</ele><time>2026-05-01T11:34:26.24Z</time></trkpt><trkpt lat="43.966313" lon="12.0697244"><ele>317.0</ele><time>2026-05-01T11:34:27.235Z</time></trkpt><trkpt lat="43.9664356" lon="12.069887"><ele>319.6666666666667</ele><time>2026-05-01T11:34:28.233Z</time></trkpt><trkpt lat="43.9665544" lon="12.0700315"><ele>322.3333333333333</ele><time>2026-05-01T11:34:29.232Z</time></trkpt><trkpt lat="43.9666602" lon="12.0701796"><ele>325.0</ele><time>2026-05-01T11:34:30.228Z</time></trkpt><trkpt lat="43.9667643" lon="12.070317"><ele>325.0</ele><time>2026-05-01T11:34:31.236Z</time></trkpt><trkpt lat="43.9668662" lon="12.0704225"><ele>325.0</ele><time>2026-05-01T11:34:32.234Z</time></trkpt><trkpt lat="43.9669832" lon="12.0705011"><ele>325.0</ele><time>2026-05-01T11:34:33.219Z</time></trkpt><trkpt lat="43.9671174" lon="12.070557"><ele>325.0</ele><time>2026-05-01T11:34:34.221Z</time></trkpt><trkpt lat="43.9672589" lon="12.0705888"><ele>325.0</ele><time>2026-05-01T11:34:35.234Z</time></trkpt><trkpt lat="43.9674142" lon="12.0706207"><ele>325.0</ele><time>2026-05-01T11:34:36.234Z</time></trkpt><trkpt lat="43.9675761" lon="12.0706603"><ele>325.0</ele><time>2026-05-01T11:34:37.237Z</time></trkpt><trkpt lat="43.9677172" lon="12.070688"><ele>320.5</ele><time>2026-05-01T11:34:38.234Z</time></trkpt><trkpt lat="43.9678414" lon="12.0707264"><ele>316.0</ele><time>2026-05-01T11:34:39.238Z</time></trkpt><trkpt lat="43.9679606" lon="12.0707888"><ele>311.5</ele><time>2026-05-01T11:34:40.235Z</time></trkpt><trkpt lat="43.9680845" lon="12.0709002"><ele>307.0</ele><time>2026-05-01T11:34:41.224Z</time></trkpt><trkpt lat="43.9682018" lon="12.0710549"><ele>307.0</ele><time>2026-05-01T11:34:42.224Z</time></trkpt><trkpt lat="43.9683098" lon="12.0712495"><ele>307.0</ele><time>2026-05-01T11:34:43.239Z</time></trkpt><trkpt lat="43.9684296" lon="12.0714402"><ele>307.0</ele><time>2026-05-01T11:34:44.223Z</time></trkpt><trkpt lat="43.968541" lon="12.071637"><ele>312.3333333333333</ele><time>2026-05-01T11:34:45.235Z</time></trkpt><trkpt lat="43.968636" lon="12.0718342"><ele>317.6666666666667</ele><time>2026-05-01T11:34:46.226Z</time></trkpt><trkpt lat="43.9687143" lon="12.0720605"><ele>323.0</ele><time>2026-05-01T11:34:47.221Z</time></trkpt><trkpt lat="43.9687769" lon="12.0722744"><ele>319.0</ele><time>2026-05-01T11:34:48.223Z</time></trkpt><trkpt lat="43.9688512" lon="12.0724741"><ele>315.0</ele><time>2026-05-01T11:34:49.227Z</time></trkpt><trkpt lat="43.9689401" lon="12.072648"><ele>311.0</ele><time>2026-05-01T11:34:50.225Z</time></trkpt><trkpt lat="43.9690359" lon="12.0728137"><ele>311.0</ele><time>2026-05-01T11:34:51.223Z</time></trkpt><trkpt lat="43.9691103" lon="12.0729943"><ele>311.0</ele><time>2026-05-01T11:34:52.221Z</time></trkpt><trkpt lat="43.9691651" lon="12.0731851"><ele>311.0</ele><time>2026-05-01T11:34:53.233Z</time></trkpt><trkpt lat="43.9691921" lon="12.0733997"><ele>314.75</ele><time>2026-05-01T11:34:54.236Z</time></trkpt><trkpt lat="43.9692093" lon="12.0736212"><ele>318.5</ele><time>2026-05-01T11:34:55.219Z</time></trkpt><trkpt lat="43.969215" lon="12.0738136"><ele>322.25</ele><time>2026-05-01T11:34:56.235Z</time></trkpt><trkpt lat="43.969225" lon="12.0740059"><ele>326.0</ele><time>2026-05-01T11:34:57.235Z</time></trkpt><trkpt lat="43.9692482" lon="12.0741786"><ele>326.0</ele><time>2026-05-01T11:34:58.233Z</time></trkpt><trkpt lat="43.9692867" lon="12.0743322"><ele>326.0</ele><time>2026-05-01T11:34:59.229Z</time></trkpt><trkpt lat="43.9693389" lon="12.0744822"><ele>326.0</ele><time>2026-05-01T11:35:00.229Z</time></trkpt><trkpt lat="43.9693944" lon="12.0746368"><ele>326.0</ele><time>2026-05-01T11:35:01.223Z</time></trkpt><trkpt lat="43.9694417" lon="12.0748098"><ele>325.0</ele><time>2026-05-01T11:35:02.223Z</time></trkpt><trkpt lat="43.9694782" lon="12.0750059"><ele>324.0</ele><time>2026-05-01T11:35:03.235Z</time></trkpt><trkpt lat="43.9695025" lon="12.0751929"><ele>323.0</ele><time>2026-05-01T11:35:04.222Z</time></trkpt><trkpt lat="43.9695272" lon="12.0753702"><ele>322.0</ele><time>2026-05-01T11:35:05.235Z</time></trkpt><trkpt lat="43.9695733" lon="12.0755253"><ele>322.0</ele><time>2026-05-01T11:35:06.234Z</time></trkpt><trkpt lat="43.969637" lon="12.0756372"><ele>322.0</ele><time>2026-05-01T11:35:07.231Z</time></trkpt><trkpt lat="43.9697294" lon="12.0757099"><ele>322.0</ele><time>2026-05-01T11:35:08.218Z</time></trkpt><trkpt lat="43.9698214" lon="12.0757655"><ele>322.0</ele><time>2026-05-01T11:35:09.223Z</time></trkpt><trkpt lat="43.9699032" lon="12.0758371"><ele>322.0</ele><time>2026-05-01T11:35:10.221Z</time></trkpt><trkpt lat="43.9699502" lon="12.0759304"><ele>320.40000000000003</ele><time>2026-05-01T11:35:11.236Z</time></trkpt><trkpt lat="43.9699637" lon="12.0760368"><ele>318.8</ele><time>2026-05-01T11:35:12.223Z</time></trkpt><trkpt lat="43.969938" lon="12.0761549"><ele>317.2</ele><time>2026-05-01T11:35:13.217Z</time></trkpt><trkpt lat="43.9698891" lon="12.0762917"><ele>315.6</ele><time>2026-05-01T11:35:14.221Z</time></trkpt><trkpt lat="43.9698377" lon="12.076439"><ele>314.0</ele><time>2026-05-01T11:35:15.22Z</time></trkpt><trkpt lat="43.9698032" lon="12.0765724"><ele>313.8</ele><time>2026-05-01T11:35:16.235Z</time></trkpt><trkpt lat="43.9697914" lon="12.0767052"><ele>313.59999999999997</ele><time>2026-05-01T11:35:17.223Z</time></trkpt><trkpt lat="43.969817" lon="12.0768485"><ele>313.4</ele><time>2026-05-01T11:35:18.238Z</time></trkpt><trkpt lat="43.9698339" lon="12.0769602"><ele>313.2</ele><time>2026-05-01T11:35:19.224Z</time></trkpt><trkpt lat="43.9698962" lon="12.0770596"><ele>313.0</ele><time>2026-05-01T11:35:20.223Z</time></trkpt><trkpt lat="43.9699684" lon="12.0771501"><ele>315.5</ele><time>2026-05-01T11:35:21.234Z</time></trkpt><trkpt lat="43.9700319" lon="12.0772144"><ele>318.0</ele><time>2026-05-01T11:35:22.235Z</time></trkpt><trkpt lat="43.9700928" lon="12.0772682"><ele>320.5</ele><time>2026-05-01T11:35:23.234Z</time></trkpt><trkpt lat="43.9701586" lon="12.0773338"><ele>323.0</ele><time>2026-05-01T11:35:24.223Z</time></trkpt><trkpt lat="43.9702177" lon="12.0774072"><ele>325.5</ele><time>2026-05-01T11:35:25.218Z</time></trkpt><trkpt lat="43.9702775" lon="12.0774972"><ele>328.0</ele><time>2026-05-01T11:35:26.236Z</time></trkpt><trkpt lat="43.9703311" lon="12.0776062"><ele>328.0</ele><time>2026-05-01T11:35:27.235Z</time></trkpt><trkpt lat="43.9703702" lon="12.0777274"><ele>328.0</ele><time>2026-05-01T11:35:28.22Z</time></trkpt><trkpt lat="43.9704023" lon="12.0778621"><ele>328.0</ele><time>2026-05-01T11:35:29.245Z</time></trkpt><trkpt lat="43.9704204" lon="12.0780252"><ele>328.0</ele><time>2026-05-01T11:35:30.222Z</time></trkpt><trkpt lat="43.9704262" lon="12.0781916"><ele>328.0</ele><time>2026-05-01T11:35:31.223Z</time></trkpt><trkpt lat="43.9704159" lon="12.0783863"><ele>327.25</ele><time>2026-05-01T11:35:32.224Z</time></trkpt><trkpt lat="43.9703929" lon="12.078579"><ele>326.5</ele><time>2026-05-01T11:35:33.221Z</time></trkpt><trkpt lat="43.9703645" lon="12.0787655"><ele>325.75</ele><time>2026-05-01T11:35:34.229Z</time></trkpt><trkpt lat="43.9703383" lon="12.0789709"><ele>325.0</ele><time>2026-05-01T11:35:35.219Z</time></trkpt><trkpt lat="43.9702993" lon="12.0791658"><ele>325.0</ele><time>2026-05-01T11:35:36.223Z</time></trkpt><trkpt lat="43.970256" lon="12.0793756"><ele>325.0</ele><time>2026-05-01T11:35:37.219Z</time></trkpt><trkpt lat="43.9702141" lon="12.0795853"><ele>325.0</ele><time>2026-05-01T11:35:38.22Z</time></trkpt><trkpt lat="43.9701629" lon="12.0797997"><ele>324.66666666666663</ele><time>2026-05-01T11:35:39.228Z</time></trkpt><trkpt lat="43.97011" lon="12.0800223"><ele>324.3333333333333</ele><time>2026-05-01T11:35:40.231Z</time></trkpt><trkpt lat="43.9700847" lon="12.080237"><ele>324.0</ele><time>2026-05-01T11:35:41.236Z</time></trkpt><trkpt lat="43.9700422" lon="12.0804514"><ele>320.3333333333333</ele><time>2026-05-01T11:35:42.223Z</time></trkpt><trkpt lat="43.9700023" lon="12.0806669"><ele>316.66666666666663</ele><time>2026-05-01T11:35:43.22Z</time></trkpt><trkpt lat="43.9699529" lon="12.0808879"><ele>313.0</ele><time>2026-05-01T11:35:44.223Z</time></trkpt><trkpt lat="43.9698968" lon="12.0810927"><ele>313.0</ele><time>2026-05-01T11:35:45.223Z</time></trkpt><trkpt lat="43.9698402" lon="12.0813154"><ele>313.0</ele><time>2026-05-01T11:35:46.224Z</time></trkpt><trkpt lat="43.9698134" lon="12.0815443"><ele>313.0</ele><time>2026-05-01T11:35:47.221Z</time></trkpt><trkpt lat="43.9698023" lon="12.081775"><ele>310.66666666666663</ele><time>2026-05-01T11:35:48.235Z</time></trkpt><trkpt lat="43.9697978" lon="12.0820131"><ele>308.3333333333333</ele><time>2026-05-01T11:35:49.233Z</time></trkpt><trkpt lat="43.9698044" lon="12.0822636"><ele>306.0</ele><time>2026-05-01T11:35:50.222Z</time></trkpt><trkpt lat="43.9698078" lon="12.0825117"><ele>303.3333333333333</ele><time>2026-05-01T11:35:51.24Z</time></trkpt><trkpt lat="43.9698094" lon="12.0827594"><ele>300.66666666666663</ele><time>2026-05-01T11:35:52.222Z</time></trkpt><trkpt lat="43.9698116" lon="12.0830105"><ele>298.0</ele><time>2026-05-01T11:35:53.221Z</time></trkpt><trkpt lat="43.9698145" lon="12.0832528"><ele>296.66666666666663</ele><time>2026-05-01T11:35:54.224Z</time></trkpt><trkpt lat="43.9698173" lon="12.0834896"><ele>295.3333333333333</ele><time>2026-05-01T11:35:55.236Z</time></trkpt><trkpt lat="43.9698291" lon="12.0837453"><ele>294.0</ele><time>2026-05-01T11:35:56.235Z</time></trkpt><trkpt lat="43.9698316" lon="12.0839954"><ele>291.3333333333333</ele><time>2026-05-01T11:35:57.231Z</time></trkpt><trkpt lat="43.9698371" lon="12.0842572"><ele>288.66666666666663</ele><time>2026-05-01T11:35:58.221Z</time></trkpt><trkpt lat="43.9698461" lon="12.084547"><ele>286.0</ele><time>2026-05-01T11:35:59.219Z</time></trkpt><trkpt lat="43.9698676" lon="12.0848231"><ele>284.3333333333333</ele><time>2026-05-01T11:36:00.234Z</time></trkpt><trkpt lat="43.9698843" lon="12.0850852"><ele>282.6666666666667</ele><time>2026-05-01T11:36:01.221Z</time></trkpt><trkpt lat="43.9699015" lon="12.0853416"><ele>281.0</ele><time>2026-05-01T11:36:02.221Z</time></trkpt><trkpt lat="43.9699116" lon="12.0855701"><ele>279.5</ele><time>2026-05-01T11:36:03.223Z</time></trkpt><trkpt lat="43.969946" lon="12.0857814"><ele>278.0</ele><time>2026-05-01T11:36:04.22Z</time></trkpt><trkpt lat="43.969979" lon="12.0859581"><ele>276.5</ele><time>2026-05-01T11:36:05.228Z</time></trkpt><trkpt lat="43.9700237" lon="12.0861275"><ele>275.0</ele><time>2026-05-01T11:36:06.233Z</time></trkpt><trkpt lat="43.9700976" lon="12.0863063"><ele>275.0</ele><time>2026-05-01T11:36:07.218Z</time></trkpt><trkpt lat="43.9701976" lon="12.0864524"><ele>275.0</ele><time>2026-05-01T11:36:08.223Z</time></trkpt><trkpt lat="43.9703195" lon="12.0865776"><ele>275.0</ele><time>2026-05-01T11:36:09.236Z</time></trkpt><trkpt lat="43.9704525" lon="12.0866606"><ele>275.0</ele><time>2026-05-01T11:36:10.222Z</time></trkpt><trkpt lat="43.9705882" lon="12.0867195"><ele>275.0</ele><time>2026-05-01T11:36:11.251Z</time></trkpt><trkpt lat="43.9707479" lon="12.0867749"><ele>275.0</ele><time>2026-05-01T11:36:12.22Z</time></trkpt><trkpt lat="43.9709147" lon="12.0867911"><ele>275.0</ele><time>2026-05-01T11:36:13.221Z</time></trkpt><trkpt lat="43.9710791" lon="12.0868254"><ele>278.0</ele><time>2026-05-01T11:36:14.221Z</time></trkpt><trkpt lat="43.9712481" lon="12.0868528"><ele>281.0</ele><time>2026-05-01T11:36:15.228Z</time></trkpt><trkpt lat="43.9713981" lon="12.0868809"><ele>284.0</ele><time>2026-05-01T11:36:16.228Z</time></trkpt><trkpt lat="43.9715402" lon="12.0869316"><ele>284.0</ele><time>2026-05-01T11:36:17.22Z</time></trkpt><trkpt lat="43.9716672" lon="12.0870175"><ele>284.0</ele><time>2026-05-01T11:36:18.232Z</time></trkpt><trkpt lat="43.9717831" lon="12.0871285"><ele>284.0</ele><time>2026-05-01T11:36:19.221Z</time></trkpt><trkpt lat="43.9718997" lon="12.0872596"><ele>284.0</ele><time>2026-05-01T11:36:20.219Z</time></trkpt><trkpt lat="43.9720181" lon="12.087352"><ele>278.59999999999997</ele><time>2026-05-01T11:36:21.227Z</time></trkpt><trkpt lat="43.9721212" lon="12.0874478"><ele>273.2</ele><time>2026-05-01T11:36:22.229Z</time></trkpt><trkpt lat="43.9722009" lon="12.0875375"><ele>267.79999999999995</ele><time>2026-05-01T11:36:23.219Z</time></trkpt><trkpt lat="43.9722502" lon="12.087606"><ele>262.4</ele><time>2026-05-01T11:36:24.228Z</time></trkpt><trkpt lat="43.9722329" lon="12.0877514"><ele>257.0</ele><time>2026-05-01T11:36:26.219Z</time></trkpt><trkpt lat="43.9721674" lon="12.0877998"><ele>257.0</ele><time>2026-05-01T11:36:27.239Z</time></trkpt><trkpt lat="43.9720756" lon="12.0878469"><ele>257.0</ele><time>2026-05-01T11:36:28.219Z</time></trkpt><trkpt lat="43.9719797" lon="12.0879033"><ele>257.0</ele><time>2026-05-01T11:36:29.222Z</time></trkpt><trkpt lat="43.9718829" lon="12.0879662"><ele>257.0</ele><time>2026-05-01T11:36:30.226Z</time></trkpt><trkpt lat="43.971786" lon="12.0880308"><ele>257.0</ele><time>2026-05-01T11:36:31.219Z</time></trkpt><trkpt lat="43.9716936" lon="12.0880925"><ele>257.0</ele><time>2026-05-01T11:36:32.229Z</time></trkpt><trkpt lat="43.9716208" lon="12.0881487"><ele>257.0</ele><time>2026-05-01T11:36:33.218Z</time></trkpt><trkpt lat="43.9715258" lon="12.0881963"><ele>257.0</ele><time>2026-05-01T11:36:34.222Z</time></trkpt><trkpt lat="43.9714702" lon="12.0882428"><ele>257.0</ele><time>2026-05-01T11:36:35.218Z</time></trkpt><trkpt lat="43.9714367" lon="12.0883751"><ele>257.0</ele><time>2026-05-01T11:36:37.236Z</time></trkpt><trkpt lat="43.9715381" lon="12.0884143"><ele>257.0</ele><time>2026-05-01T11:36:39.228Z</time></trkpt><trkpt lat="43.9716223" lon="12.0883684"><ele>257.0</ele><time>2026-05-01T11:36:41.22Z</time></trkpt><trkpt lat="43.9717046" lon="12.0883079"><ele>257.0</ele><time>2026-05-01T11:36:42.222Z</time></trkpt><trkpt lat="43.9719056" lon="12.0881588"><ele>257.0</ele><time>2026-05-01T11:36:43.232Z</time></trkpt><trkpt lat="43.9720101" lon="12.088101"><ele>257.0</ele><time>2026-05-01T11:36:44.217Z</time></trkpt><trkpt lat="43.9720923" lon="12.0880852"><ele>257.0</ele><time>2026-05-01T11:36:45.22Z</time></trkpt><trkpt lat="43.9721201" lon="12.0881941"><ele>257.0</ele><time>2026-05-01T11:36:47.222Z</time></trkpt><trkpt lat="43.9720266" lon="12.0882865"><ele>257.0</ele><time>2026-05-01T11:36:48.222Z</time></trkpt><trkpt lat="43.9719258" lon="12.0883613"><ele>257.0</ele><time>2026-05-01T11:36:49.232Z</time></trkpt><trkpt lat="43.9718044" lon="12.0884339"><ele>253.6</ele><time>2026-05-01T11:36:50.23Z</time></trkpt><trkpt lat="43.9717108" lon="12.0885024"><ele>250.2</ele><time>2026-05-01T11:36:51.245Z</time></trkpt><trkpt lat="43.9716336" lon="12.0885691"><ele>246.8</ele><time>2026-05-01T11:36:52.234Z</time></trkpt><trkpt lat="43.9716296" lon="12.0887115"><ele>243.4</ele><time>2026-05-01T11:36:54.222Z</time></trkpt><trkpt lat="43.9716974" lon="12.088744"><ele>240.0</ele><time>2026-05-01T11:36:55.218Z</time></trkpt><trkpt lat="43.9717782" lon="12.088708"><ele>237.0</ele><time>2026-05-01T11:36:56.221Z</time></trkpt><trkpt lat="43.9718604" lon="12.0886592"><ele>234.0</ele><time>2026-05-01T11:36:57.22Z</time></trkpt><trkpt lat="43.9719887" lon="12.0885871"><ele>231.0</ele><time>2026-05-01T11:36:58.224Z</time></trkpt><trkpt lat="43.9721038" lon="12.088518"><ele>228.0</ele><time>2026-05-01T11:36:59.219Z</time></trkpt><trkpt lat="43.9722228" lon="12.0884178"><ele>228.0</ele><time>2026-05-01T11:37:00.222Z</time></trkpt><trkpt lat="43.9723597" lon="12.0882652"><ele>228.0</ele><time>2026-05-01T11:37:01.236Z</time></trkpt><trkpt lat="43.9724637" lon="12.0881413"><ele>228.0</ele><time>2026-05-01T11:37:02.237Z</time></trkpt><trkpt lat="43.9725697" lon="12.0880244"><ele>228.0</ele><time>2026-05-01T11:37:03.219Z</time></trkpt><trkpt lat="43.9726781" lon="12.0879364"><ele>237.5</ele><time>2026-05-01T11:37:04.235Z</time></trkpt><trkpt lat="43.9727994" lon="12.0878881"><ele>247.0</ele><time>2026-05-01T11:37:05.226Z</time></trkpt><trkpt lat="43.9729396" lon="12.0878932"><ele>256.5</ele><time>2026-05-01T11:37:06.235Z</time></trkpt><trkpt lat="43.9730653" lon="12.0879402"><ele>266.0</ele><time>2026-05-01T11:37:07.219Z</time></trkpt><trkpt lat="43.973216" lon="12.0880088"><ele>266.0</ele><time>2026-05-01T11:37:08.234Z</time></trkpt><trkpt lat="43.9733551" lon="12.0881257"><ele>266.0</ele><time>2026-05-01T11:37:09.216Z</time></trkpt><trkpt lat="43.9735026" lon="12.0882163"><ele>266.0</ele><time>2026-05-01T11:37:10.231Z</time></trkpt><trkpt lat="43.9736663" lon="12.08832"><ele>261.33333333333337</ele><time>2026-05-01T11:37:11.224Z</time></trkpt><trkpt lat="43.9737947" lon="12.088434"><ele>256.6666666666667</ele><time>2026-05-01T11:37:12.218Z</time></trkpt><trkpt lat="43.9739574" lon="12.0885521"><ele>252.0</ele><time>2026-05-01T11:37:13.222Z</time></trkpt><trkpt lat="43.9741139" lon="12.0886746"><ele>261.0</ele><time>2026-05-01T11:37:14.218Z</time></trkpt><trkpt lat="43.9742748" lon="12.0887964"><ele>270.0</ele><time>2026-05-01T11:37:15.235Z</time></trkpt><trkpt lat="43.9744439" lon="12.088946"><ele>279.0</ele><time>2026-05-01T11:37:16.23Z</time></trkpt><trkpt lat="43.974606" lon="12.0890741"><ele>269.0</ele><time>2026-05-01T11:37:17.225Z</time></trkpt><trkpt lat="43.9747913" lon="12.0891974"><ele>259.0</ele><time>2026-05-01T11:37:18.225Z</time></trkpt><trkpt lat="43.9749719" lon="12.0893414"><ele>249.0</ele><time>2026-05-01T11:37:19.218Z</time></trkpt><trkpt lat="43.97514" lon="12.0894881"><ele>249.0</ele><time>2026-05-01T11:37:20.233Z</time></trkpt><trkpt lat="43.975305" lon="12.089651"><ele>249.0</ele><time>2026-05-01T11:37:21.221Z</time></trkpt><trkpt lat="43.9754642" lon="12.0898338"><ele>249.0</ele><time>2026-05-01T11:37:22.216Z</time></trkpt><trkpt lat="43.9756203" lon="12.0900229"><ele>246.33333333333331</ele><time>2026-05-01T11:37:23.222Z</time></trkpt><trkpt lat="43.9757846" lon="12.0902364"><ele>243.66666666666666</ele><time>2026-05-01T11:37:24.226Z</time></trkpt><trkpt lat="43.9759356" lon="12.0904416"><ele>241.0</ele><time>2026-05-01T11:37:25.234Z</time></trkpt><trkpt lat="43.9760957" lon="12.0906484"><ele>237.0</ele><time>2026-05-01T11:37:26.221Z</time></trkpt><trkpt lat="43.9762578" lon="12.0908582"><ele>233.0</ele><time>2026-05-01T11:37:27.235Z</time></trkpt><trkpt lat="43.9764273" lon="12.0910567"><ele>229.0</ele><time>2026-05-01T11:37:28.222Z</time></trkpt><trkpt lat="43.9765916" lon="12.0912343"><ele>224.66666666666666</ele><time>2026-05-01T11:37:29.218Z</time></trkpt><trkpt lat="43.9767615" lon="12.091395"><ele>220.33333333333331</ele><time>2026-05-01T11:37:30.222Z</time></trkpt><trkpt lat="43.9769264" lon="12.0915201"><ele>216.0</ele><time>2026-05-01T11:37:31.234Z</time></trkpt><trkpt lat="43.9771196" lon="12.091608"><ele>216.0</ele><time>2026-05-01T11:37:32.216Z</time></trkpt><trkpt lat="43.9773089" lon="12.091655"><ele>216.0</ele><time>2026-05-01T11:37:33.233Z</time></trkpt><trkpt lat="43.9775017" lon="12.0916775"><ele>216.0</ele><time>2026-05-01T11:37:34.222Z</time></trkpt><trkpt lat="43.9776966" lon="12.0916981"><ele>216.33333333333331</ele><time>2026-05-01T11:37:35.221Z</time></trkpt><trkpt lat="43.9778844" lon="12.0917031"><ele>216.66666666666666</ele><time>2026-05-01T11:37:36.225Z</time></trkpt><trkpt lat="43.9780801" lon="12.0917213"><ele>217.0</ele><time>2026-05-01T11:37:37.217Z</time></trkpt><trkpt lat="43.9782815" lon="12.0917455"><ele>222.33333333333331</ele><time>2026-05-01T11:37:38.23Z</time></trkpt><trkpt lat="43.9784692" lon="12.0918085"><ele>227.66666666666669</ele><time>2026-05-01T11:37:39.235Z</time></trkpt><trkpt lat="43.9786718" lon="12.0919028"><ele>233.0</ele><time>2026-05-01T11:37:40.221Z</time></trkpt><trkpt lat="43.9788592" lon="12.0920084"><ele>233.0</ele><time>2026-05-01T11:37:41.249Z</time></trkpt><trkpt lat="43.979052" lon="12.0921206"><ele>233.0</ele><time>2026-05-01T11:37:42.22Z</time></trkpt><trkpt lat="43.9792345" lon="12.0922616"><ele>233.0</ele><time>2026-05-01T11:37:43.226Z</time></trkpt><trkpt lat="43.9794025" lon="12.0924219"><ele>229.0</ele><time>2026-05-01T11:37:44.222Z</time></trkpt><trkpt lat="43.9795524" lon="12.0925874"><ele>225.0</ele><time>2026-05-01T11:37:45.22Z</time></trkpt><trkpt lat="43.9796957" lon="12.0927572"><ele>221.0</ele><time>2026-05-01T11:37:46.222Z</time></trkpt><trkpt lat="43.9798289" lon="12.092943"><ele>221.0</ele><time>2026-05-01T11:37:47.223Z</time></trkpt><trkpt lat="43.9799634" lon="12.0931527"><ele>221.0</ele><time>2026-05-01T11:37:48.229Z</time></trkpt><trkpt lat="43.9800874" lon="12.0933511"><ele>221.0</ele><time>2026-05-01T11:37:49.231Z</time></trkpt><trkpt lat="43.9801987" lon="12.0935429"><ele>223.33333333333334</ele><time>2026-05-01T11:37:50.226Z</time></trkpt><trkpt lat="43.9803039" lon="12.0937453"><ele>225.66666666666669</ele><time>2026-05-01T11:37:51.225Z</time></trkpt><trkpt lat="43.9804138" lon="12.0939298"><ele>228.0</ele><time>2026-05-01T11:37:52.223Z</time></trkpt><trkpt lat="43.9805465" lon="12.0940839"><ele>222.66666666666669</ele><time>2026-05-01T11:37:53.226Z</time></trkpt><trkpt lat="43.980698" lon="12.0942091"><ele>217.33333333333334</ele><time>2026-05-01T11:37:54.226Z</time></trkpt><trkpt lat="43.9808511" lon="12.0943208"><ele>212.0</ele><time>2026-05-01T11:37:55.226Z</time></trkpt><trkpt lat="43.9809992" lon="12.094426"><ele>211.0</ele><time>2026-05-01T11:37:56.222Z</time></trkpt><trkpt lat="43.9811354" lon="12.0945383"><ele>210.0</ele><time>2026-05-01T11:37:57.241Z</time></trkpt><trkpt lat="43.9812651" lon="12.0946323"><ele>209.0</ele><time>2026-05-01T11:37:58.229Z</time></trkpt><trkpt lat="43.9813962" lon="12.0947221"><ele>209.0</ele><time>2026-05-01T11:37:59.236Z</time></trkpt><trkpt lat="43.981525" lon="12.0947947"><ele>209.0</ele><time>2026-05-01T11:38:00.235Z</time></trkpt><trkpt lat="43.9816467" lon="12.0948198"><ele>209.0</ele><time>2026-05-01T11:38:01.237Z</time></trkpt><trkpt lat="43.9817691" lon="12.0947943"><ele>209.0</ele><time>2026-05-01T11:38:02.231Z</time></trkpt><trkpt lat="43.9818868" lon="12.0947118"><ele>207.33333333333334</ele><time>2026-05-01T11:38:03.234Z</time></trkpt><trkpt lat="43.9820193" lon="12.0945831"><ele>205.66666666666669</ele><time>2026-05-01T11:38:04.224Z</time></trkpt><trkpt lat="43.982144" lon="12.0944328"><ele>204.0</ele><time>2026-05-01T11:38:05.221Z</time></trkpt><trkpt lat="43.9822867" lon="12.0943065"><ele>204.0</ele><time>2026-05-01T11:38:06.22Z</time></trkpt><trkpt lat="43.9824508" lon="12.0941856"><ele>204.0</ele><time>2026-05-01T11:38:07.218Z</time></trkpt><trkpt lat="43.9826062" lon="12.0940907"><ele>204.0</ele><time>2026-05-01T11:38:08.222Z</time></trkpt><trkpt lat="43.9827668" lon="12.0940136"><ele>208.0</ele><time>2026-05-01T11:38:09.235Z</time></trkpt><trkpt lat="43.9829337" lon="12.0939573"><ele>212.0</ele><time>2026-05-01T11:38:10.222Z</time></trkpt><trkpt lat="43.9831037" lon="12.0939355"><ele>216.0</ele><time>2026-05-01T11:38:11.24Z</time></trkpt><trkpt lat="43.9832708" lon="12.0939467"><ele>211.33333333333331</ele><time>2026-05-01T11:38:12.235Z</time></trkpt><trkpt lat="43.9834327" lon="12.0939955"><ele>206.66666666666666</ele><time>2026-05-01T11:38:13.235Z</time></trkpt><trkpt lat="43.9835744" lon="12.0940874"><ele>202.0</ele><time>2026-05-01T11:38:14.234Z</time></trkpt><trkpt lat="43.983729" lon="12.0941935"><ele>202.0</ele><time>2026-05-01T11:38:15.221Z</time></trkpt><trkpt lat="43.9838605" lon="12.0942846"><ele>202.0</ele><time>2026-05-01T11:38:16.247Z</time></trkpt><trkpt lat="43.9839812" lon="12.0943784"><ele>202.0</ele><time>2026-05-01T11:38:17.218Z</time></trkpt><trkpt lat="43.9840889" lon="12.0945236"><ele>202.0</ele><time>2026-05-01T11:38:18.219Z</time></trkpt><trkpt lat="43.9841812" lon="12.0946557"><ele>207.25</ele><time>2026-05-01T11:38:19.234Z</time></trkpt><trkpt lat="43.9842377" lon="12.0948086"><ele>212.5</ele><time>2026-05-01T11:38:20.218Z</time></trkpt><trkpt lat="43.9842777" lon="12.0949735"><ele>217.75</ele><time>2026-05-01T11:38:21.236Z</time></trkpt><trkpt lat="43.9843179" lon="12.0951309"><ele>223.0</ele><time>2026-05-01T11:38:22.235Z</time></trkpt><trkpt lat="43.9843475" lon="12.095294"><ele>223.0</ele><time>2026-05-01T11:38:23.236Z</time></trkpt><trkpt lat="43.9843702" lon="12.09548"><ele>223.0</ele><time>2026-05-01T11:38:24.234Z</time></trkpt><trkpt lat="43.9843921" lon="12.0956551"><ele>223.0</ele><time>2026-05-01T11:38:25.233Z</time></trkpt><trkpt lat="43.9844118" lon="12.0958556"><ele>223.0</ele><time>2026-05-01T11:38:26.241Z</time></trkpt><trkpt lat="43.9844312" lon="12.0960598"><ele>218.75</ele><time>2026-05-01T11:38:27.224Z</time></trkpt><trkpt lat="43.9844447" lon="12.0962656"><ele>214.5</ele><time>2026-05-01T11:38:28.234Z</time></trkpt><trkpt lat="43.98446" lon="12.0964747"><ele>210.25</ele><time>2026-05-01T11:38:29.234Z</time></trkpt><trkpt lat="43.9844714" lon="12.0966671"><ele>206.0</ele><time>2026-05-01T11:38:30.224Z</time></trkpt><trkpt lat="43.9844881" lon="12.0968532"><ele>204.25</ele><time>2026-05-01T11:38:31.235Z</time></trkpt><trkpt lat="43.9845209" lon="12.0970295"><ele>202.5</ele><time>2026-05-01T11:38:32.22Z</time></trkpt><trkpt lat="43.984581" lon="12.097189"><ele>200.75</ele><time>2026-05-01T11:38:33.237Z</time></trkpt><trkpt lat="43.9846641" lon="12.0973377"><ele>199.0</ele><time>2026-05-01T11:38:34.228Z</time></trkpt><trkpt lat="43.9847654" lon="12.09748"><ele>198.0</ele><time>2026-05-01T11:38:35.233Z</time></trkpt><trkpt lat="43.9848742" lon="12.0976169"><ele>197.0</ele><time>2026-05-01T11:38:36.224Z</time></trkpt><trkpt lat="43.9849943" lon="12.0977659"><ele>196.0</ele><time>2026-05-01T11:38:37.235Z</time></trkpt><trkpt lat="43.9851241" lon="12.0979303"><ele>196.0</ele><time>2026-05-01T11:38:38.223Z</time></trkpt><trkpt lat="43.9852589" lon="12.0981023"><ele>196.0</ele><time>2026-05-01T11:38:39.222Z</time></trkpt><trkpt lat="43.9853984" lon="12.0982738"><ele>196.0</ele><time>2026-05-01T11:38:40.233Z</time></trkpt><trkpt lat="43.9855412" lon="12.0984496"><ele>193.66666666666666</ele><time>2026-05-01T11:38:41.234Z</time></trkpt><trkpt lat="43.9856902" lon="12.0986391"><ele>191.33333333333331</ele><time>2026-05-01T11:38:42.222Z</time></trkpt><trkpt lat="43.9858408" lon="12.0988229"><ele>189.0</ele><time>2026-05-01T11:38:43.233Z</time></trkpt><trkpt lat="43.9859885" lon="12.0990106"><ele>188.33333333333334</ele><time>2026-05-01T11:38:44.219Z</time></trkpt><trkpt lat="43.9861325" lon="12.0991945"><ele>187.66666666666669</ele><time>2026-05-01T11:38:45.221Z</time></trkpt><trkpt lat="43.986272" lon="12.0993667"><ele>187.0</ele><time>2026-05-01T11:38:46.219Z</time></trkpt><trkpt lat="43.9864108" lon="12.0995458"><ele>187.0</ele><time>2026-05-01T11:38:47.223Z</time></trkpt><trkpt lat="43.9865398" lon="12.0997018"><ele>187.0</ele><time>2026-05-01T11:38:48.221Z</time></trkpt><trkpt lat="43.9866619" lon="12.0998221"><ele>187.0</ele><time>2026-05-01T11:38:49.228Z</time></trkpt><trkpt lat="43.9867939" lon="12.0999105"><ele>193.0</ele><time>2026-05-01T11:38:50.232Z</time></trkpt><trkpt lat="43.9869255" lon="12.0999689"><ele>199.0</ele><time>2026-05-01T11:38:51.225Z</time></trkpt><trkpt lat="43.9870671" lon="12.1000066"><ele>205.0</ele><time>2026-05-01T11:38:52.243Z</time></trkpt><trkpt lat="43.9872266" lon="12.1000106"><ele>211.0</ele><time>2026-05-01T11:38:53.223Z</time></trkpt><trkpt lat="43.9873812" lon="12.099971"><ele>202.66666666666666</ele><time>2026-05-01T11:38:54.223Z</time></trkpt><trkpt lat="43.9875392" lon="12.099915"><ele>194.33333333333331</ele><time>2026-05-01T11:38:55.237Z</time></trkpt><trkpt lat="43.9876855" lon="12.0998547"><ele>186.0</ele><time>2026-05-01T11:38:56.221Z</time></trkpt><trkpt lat="43.9878344" lon="12.0998548"><ele>186.0</ele><time>2026-05-01T11:38:57.237Z</time></trkpt><trkpt lat="43.9879805" lon="12.0999094"><ele>186.0</ele><time>2026-05-01T11:38:58.218Z</time></trkpt><trkpt lat="43.9881116" lon="12.100009"><ele>186.0</ele><time>2026-05-01T11:38:59.215Z</time></trkpt><trkpt lat="43.9882343" lon="12.1001154"><ele>186.0</ele><time>2026-05-01T11:39:00.218Z</time></trkpt><trkpt lat="43.9883638" lon="12.1001893"><ele>194.66666666666669</ele><time>2026-05-01T11:39:01.222Z</time></trkpt><trkpt lat="43.9885056" lon="12.1002022"><ele>203.33333333333334</ele><time>2026-05-01T11:39:02.234Z</time></trkpt><trkpt lat="43.9886593" lon="12.1001765"><ele>212.0</ele><time>2026-05-01T11:39:03.231Z</time></trkpt><trkpt lat="43.9888109" lon="12.1001112"><ele>212.0</ele><time>2026-05-01T11:39:04.216Z</time></trkpt><trkpt lat="43.988966" lon="12.1000413"><ele>212.0</ele><time>2026-05-01T11:39:05.234Z</time></trkpt><trkpt lat="43.9891163" lon="12.0999961"><ele>212.0</ele><time>2026-05-01T11:39:06.231Z</time></trkpt><trkpt lat="43.9893048" lon="12.0999791"><ele>209.66666666666669</ele><time>2026-05-01T11:39:07.218Z</time></trkpt><trkpt lat="43.9894968" lon="12.0999624"><ele>207.33333333333331</ele><time>2026-05-01T11:39:08.221Z</time></trkpt><trkpt lat="43.9896528" lon="12.099971"><ele>205.0</ele><time>2026-05-01T11:39:09.217Z</time></trkpt><trkpt lat="43.989783" lon="12.1000003"><ele>205.0</ele><time>2026-05-01T11:39:10.235Z</time></trkpt><trkpt lat="43.9899227" lon="12.1000354"><ele>205.0</ele><time>2026-05-01T11:39:11.234Z</time></trkpt><trkpt lat="43.9900345" lon="12.1001016"><ele>205.0</ele><time>2026-05-01T11:39:12.235Z</time></trkpt><trkpt lat="43.9901126" lon="12.1002085"><ele>205.0</ele><time>2026-05-01T11:39:13.221Z</time></trkpt><trkpt lat="43.9901662" lon="12.1004365"><ele>199.33333333333331</ele><time>2026-05-01T11:39:14.216Z</time></trkpt><trkpt lat="43.9901928" lon="12.1006914"><ele>193.66666666666666</ele><time>2026-05-01T11:39:15.222Z</time></trkpt><trkpt lat="43.9902249" lon="12.1009391"><ele>188.0</ele><time>2026-05-01T11:39:16.224Z</time></trkpt><trkpt lat="43.9902225" lon="12.1011875"><ele>188.0</ele><time>2026-05-01T11:39:17.221Z</time></trkpt><trkpt lat="43.9902184" lon="12.1014005"><ele>188.0</ele><time>2026-05-01T11:39:18.223Z</time></trkpt><trkpt lat="43.9902123" lon="12.1016164"><ele>188.0</ele><time>2026-05-01T11:39:19.219Z</time></trkpt><trkpt lat="43.9902144" lon="12.1018048"><ele>188.0</ele><time>2026-05-01T11:39:20.221Z</time></trkpt><trkpt lat="43.990241" lon="12.101964"><ele>192.60000000000002</ele><time>2026-05-01T11:39:21.235Z</time></trkpt><trkpt lat="43.9902737" lon="12.1020912"><ele>197.20000000000002</ele><time>2026-05-01T11:39:22.224Z</time></trkpt><trkpt lat="43.9903859" lon="12.1021384"><ele>201.8</ele><time>2026-05-01T11:39:23.235Z</time></trkpt><trkpt lat="43.9904998" lon="12.1021756"><ele>206.4</ele><time>2026-05-01T11:39:24.22Z</time></trkpt><trkpt lat="43.9906041" lon="12.1022012"><ele>211.0</ele><time>2026-05-01T11:39:25.231Z</time></trkpt><trkpt lat="43.9907597" lon="12.1022892"><ele>211.66666666666666</ele><time>2026-05-01T11:39:26.221Z</time></trkpt><trkpt lat="43.9909071" lon="12.1024209"><ele>212.33333333333331</ele><time>2026-05-01T11:39:27.231Z</time></trkpt><trkpt lat="43.9910385" lon="12.1025882"><ele>213.0</ele><time>2026-05-01T11:39:28.23Z</time></trkpt><trkpt lat="43.9911525" lon="12.1027364"><ele>213.0</ele><time>2026-05-01T11:39:29.234Z</time></trkpt><trkpt lat="43.9912817" lon="12.1028678"><ele>213.0</ele><time>2026-05-01T11:39:30.235Z</time></trkpt><trkpt lat="43.9914314" lon="12.1029753"><ele>213.0</ele><time>2026-05-01T11:39:31.221Z</time></trkpt><trkpt lat="43.9916058" lon="12.1030593"><ele>212.33333333333331</ele><time>2026-05-01T11:39:32.217Z</time></trkpt><trkpt lat="43.9917528" lon="12.103181"><ele>211.66666666666666</ele><time>2026-05-01T11:39:33.216Z</time></trkpt><trkpt lat="43.9918837" lon="12.1033268"><ele>211.0</ele><time>2026-05-01T11:39:34.224Z</time></trkpt><trkpt lat="43.992007" lon="12.1034936"><ele>211.0</ele><time>2026-05-01T11:39:35.219Z</time></trkpt><trkpt lat="43.9921233" lon="12.1036657"><ele>211.0</ele><time>2026-05-01T11:39:36.234Z</time></trkpt><trkpt lat="43.9922381" lon="12.1038316"><ele>211.0</ele><time>2026-05-01T11:39:37.23Z</time></trkpt><trkpt lat="43.9923575" lon="12.1039868"><ele>213.33333333333331</ele><time>2026-05-01T11:39:38.222Z</time></trkpt><trkpt lat="43.9924485" lon="12.1042245"><ele>215.66666666666669</ele><time>2026-05-01T11:39:39.233Z</time></trkpt><trkpt lat="43.9925441" lon="12.1044644"><ele>218.0</ele><time>2026-05-01T11:39:40.22Z</time></trkpt><trkpt lat="43.9925948" lon="12.1046707"><ele>207.0</ele><time>2026-05-01T11:39:41.222Z</time></trkpt><trkpt lat="43.99265" lon="12.1048942"><ele>196.0</ele><time>2026-05-01T11:39:42.22Z</time></trkpt><trkpt lat="43.9927042" lon="12.1051082"><ele>185.0</ele><time>2026-05-01T11:39:43.22Z</time></trkpt><trkpt lat="43.9927671" lon="12.1053088"><ele>185.0</ele><time>2026-05-01T11:39:44.223Z</time></trkpt><trkpt lat="43.9928198" lon="12.1054685"><ele>185.0</ele><time>2026-05-01T11:39:45.235Z</time></trkpt><trkpt lat="43.9928888" lon="12.1056254"><ele>185.0</ele><time>2026-05-01T11:39:46.232Z</time></trkpt><trkpt lat="43.9929507" lon="12.1057816"><ele>185.0</ele><time>2026-05-01T11:39:47.218Z</time></trkpt><trkpt lat="43.9930002" lon="12.1059416"><ele>187.0</ele><time>2026-05-01T11:39:48.229Z</time></trkpt><trkpt lat="43.9930354" lon="12.1061093"><ele>189.0</ele><time>2026-05-01T11:39:49.22Z</time></trkpt><trkpt lat="43.9930651" lon="12.106297"><ele>191.0</ele><time>2026-05-01T11:39:50.223Z</time></trkpt><trkpt lat="43.9930883" lon="12.1064721"><ele>193.0</ele><time>2026-05-01T11:39:51.233Z</time></trkpt><trkpt lat="43.9931255" lon="12.1066484"><ele>192.75</ele><time>2026-05-01T11:39:52.228Z</time></trkpt><trkpt lat="43.9931968" lon="12.1068127"><ele>192.5</ele><time>2026-05-01T11:39:53.229Z</time></trkpt><trkpt lat="43.9932805" lon="12.1069557"><ele>192.25</ele><time>2026-05-01T11:39:54.228Z</time></trkpt><trkpt lat="43.9933795" lon="12.1070553"><ele>192.0</ele><time>2026-05-01T11:39:55.216Z</time></trkpt><trkpt lat="43.9935081" lon="12.1071241"><ele>192.0</ele><time>2026-05-01T11:39:56.22Z</time></trkpt><trkpt lat="43.9936208" lon="12.1071609"><ele>192.0</ele><time>2026-05-01T11:39:57.231Z</time></trkpt><trkpt lat="43.9937232" lon="12.1071764"><ele>192.0</ele><time>2026-05-01T11:39:58.222Z</time></trkpt><trkpt lat="43.9938" lon="12.1071653"><ele>192.0</ele><time>2026-05-01T11:39:59.225Z</time></trkpt><trkpt lat="43.9938586" lon="12.1071126"><ele>192.0</ele><time>2026-05-01T11:40:00.222Z</time></trkpt><trkpt lat="43.9939057" lon="12.1070246"><ele>192.0</ele><time>2026-05-01T11:40:01.223Z</time></trkpt><trkpt lat="43.9939531" lon="12.1069087"><ele>192.0</ele><time>2026-05-01T11:40:02.218Z</time></trkpt><trkpt lat="43.9940097" lon="12.1067981"><ele>192.0</ele><time>2026-05-01T11:40:03.222Z</time></trkpt><trkpt lat="43.994085" lon="12.1066816"><ele>192.0</ele><time>2026-05-01T11:40:04.219Z</time></trkpt><trkpt lat="43.99416" lon="12.1065664"><ele>192.0</ele><time>2026-05-01T11:40:05.22Z</time></trkpt><trkpt lat="43.9942313" lon="12.1064441"><ele>192.0</ele><time>2026-05-01T11:40:06.232Z</time></trkpt><trkpt lat="43.9943" lon="12.1063173"><ele>186.2</ele><time>2026-05-01T11:40:07.222Z</time></trkpt><trkpt lat="43.9943575" lon="12.106216"><ele>180.39999999999998</ele><time>2026-05-01T11:40:08.224Z</time></trkpt><trkpt lat="43.9944047" lon="12.1061384"><ele>174.60000000000002</ele><time>2026-05-01T11:40:09.224Z</time></trkpt><trkpt lat="43.9944943" lon="12.1060521"><ele>168.8</ele><time>2026-05-01T11:40:11.222Z</time></trkpt><trkpt lat="43.9945919" lon="12.1060954"><ele>163.0</ele><time>2026-05-01T11:40:13.222Z</time></trkpt><trkpt lat="43.9946733" lon="12.1062494"><ele>163.0</ele><time>2026-05-01T11:40:15.235Z</time></trkpt><trkpt lat="43.9946506" lon="12.1064092"><ele>163.0</ele><time>2026-05-01T11:40:17.233Z</time></trkpt><trkpt lat="43.9945956" lon="12.1064877"><ele>163.0</ele><time>2026-05-01T11:40:18.221Z</time></trkpt><trkpt lat="43.9945198" lon="12.1065729"><ele>163.0</ele><time>2026-05-01T11:40:19.234Z</time></trkpt><trkpt lat="43.9944384" lon="12.1066708"><ele>163.0</ele><time>2026-05-01T11:40:20.239Z</time></trkpt><trkpt lat="43.9943553" lon="12.1067746"><ele>164.0</ele><time>2026-05-01T11:40:21.221Z</time></trkpt><trkpt lat="43.994268" lon="12.1068953"><ele>165.0</ele><time>2026-05-01T11:40:22.22Z</time></trkpt><trkpt lat="43.9941932" lon="12.1070243"><ele>166.0</ele><time>2026-05-01T11:40:23.219Z</time></trkpt><trkpt lat="43.9941061" lon="12.1071558"><ele>167.0</ele><time>2026-05-01T11:40:24.222Z</time></trkpt><trkpt lat="43.9940172" lon="12.1072888"><ele>170.2</ele><time>2026-05-01T11:40:25.228Z</time></trkpt><trkpt lat="43.9939292" lon="12.1074178"><ele>173.39999999999998</ele><time>2026-05-01T11:40:26.218Z</time></trkpt><trkpt lat="43.993857" lon="12.107527"><ele>176.60000000000002</ele><time>2026-05-01T11:40:27.228Z</time></trkpt><trkpt lat="43.9937877" lon="12.1076226"><ele>179.8</ele><time>2026-05-01T11:40:28.23Z</time></trkpt><trkpt lat="43.9937457" lon="12.1077124"><ele>183.0</ele><time>2026-05-01T11:40:29.233Z</time></trkpt><trkpt lat="43.9937514" lon="12.1078605"><ele>183.0</ele><time>2026-05-01T11:40:31.224Z</time></trkpt><trkpt lat="43.9938511" lon="12.1079176"><ele>183.0</ele><time>2026-05-01T11:40:33.233Z</time></trkpt><trkpt lat="43.9939486" lon="12.1078974"><ele>183.0</ele><time>2026-05-01T11:40:34.217Z</time></trkpt><trkpt lat="43.9940507" lon="12.1078586"><ele>183.0</ele><time>2026-05-01T11:40:35.234Z</time></trkpt><trkpt lat="43.9941656" lon="12.1078125"><ele>183.0</ele><time>2026-05-01T11:40:36.233Z</time></trkpt><trkpt lat="43.9942915" lon="12.1077552"><ele>179.0</ele><time>2026-05-01T11:40:37.222Z</time></trkpt><trkpt lat="43.9944149" lon="12.1076907"><ele>175.0</ele><time>2026-05-01T11:40:38.235Z</time></trkpt><trkpt lat="43.9945498" lon="12.1076315"><ele>171.0</ele><time>2026-05-01T11:40:39.232Z</time></trkpt><trkpt lat="43.9947023" lon="12.1076141"><ele>167.0</ele><time>2026-05-01T11:40:40.229Z</time></trkpt><trkpt lat="43.9948438" lon="12.107663"><ele>167.0</ele><time>2026-05-01T11:40:41.235Z</time></trkpt><trkpt lat="43.9949942" lon="12.107751"><ele>167.0</ele><time>2026-05-01T11:40:42.236Z</time></trkpt><trkpt lat="43.9951375" lon="12.1078729"><ele>167.0</ele><time>2026-05-01T11:40:43.222Z</time></trkpt><trkpt lat="43.9952954" lon="12.1080151"><ele>167.0</ele><time>2026-05-01T11:40:44.223Z</time></trkpt><trkpt lat="43.9954489" lon="12.1081484"><ele>167.0</ele><time>2026-05-01T11:40:45.218Z</time></trkpt><trkpt lat="43.9956187" lon="12.1082803"><ele>167.0</ele><time>2026-05-01T11:40:46.233Z</time></trkpt><trkpt lat="43.9957962" lon="12.1084138"><ele>164.0</ele><time>2026-05-01T11:40:47.237Z</time></trkpt><trkpt lat="43.995959" lon="12.1085416"><ele>161.0</ele><time>2026-05-01T11:40:48.234Z</time></trkpt><trkpt lat="43.996123" lon="12.1086816"><ele>158.0</ele><time>2026-05-01T11:40:49.216Z</time></trkpt><trkpt lat="43.9962823" lon="12.10883"><ele>158.0</ele><time>2026-05-01T11:40:50.222Z</time></trkpt><trkpt lat="43.9964328" lon="12.1089844"><ele>158.0</ele><time>2026-05-01T11:40:51.231Z</time></trkpt><trkpt lat="43.9965971" lon="12.1091627"><ele>158.0</ele><time>2026-05-01T11:40:52.225Z</time></trkpt><trkpt lat="43.9967458" lon="12.109334"><ele>157.0</ele><time>2026-05-01T11:40:53.226Z</time></trkpt><trkpt lat="43.9968956" lon="12.1095004"><ele>156.0</ele><time>2026-05-01T11:40:54.232Z</time></trkpt><trkpt lat="43.997054" lon="12.1096781"><ele>155.0</ele><time>2026-05-01T11:40:55.232Z</time></trkpt><trkpt lat="43.9972154" lon="12.1098528"><ele>155.0</ele><time>2026-05-01T11:40:56.222Z</time></trkpt><trkpt lat="43.9973724" lon="12.1100343"><ele>155.0</ele><time>2026-05-01T11:40:57.238Z</time></trkpt><trkpt lat="43.9975305" lon="12.1102198"><ele>155.0</ele><time>2026-05-01T11:40:58.232Z</time></trkpt><trkpt lat="43.9976924" lon="12.1104078"><ele>154.33333333333331</ele><time>2026-05-01T11:40:59.229Z</time></trkpt><trkpt lat="43.997859" lon="12.1105936"><ele>153.66666666666666</ele><time>2026-05-01T11:41:00.228Z</time></trkpt><trkpt lat="43.9980132" lon="12.110776"><ele>153.0</ele><time>2026-05-01T11:41:01.234Z</time></trkpt><trkpt lat="43.9981795" lon="12.1109629"><ele>152.33333333333334</ele><time>2026-05-01T11:41:02.233Z</time></trkpt><trkpt lat="43.9983438" lon="12.1111569"><ele>151.66666666666669</ele><time>2026-05-01T11:41:03.23Z</time></trkpt><trkpt lat="43.9984937" lon="12.1113331"><ele>151.0</ele><time>2026-05-01T11:41:04.216Z</time></trkpt><trkpt lat="43.998653" lon="12.1115057"><ele>151.0</ele><time>2026-05-01T11:41:05.221Z</time></trkpt><trkpt lat="43.9988089" lon="12.1116719"><ele>151.0</ele><time>2026-05-01T11:41:06.245Z</time></trkpt><trkpt lat="43.9989641" lon="12.1118403"><ele>151.0</ele><time>2026-05-01T11:41:07.233Z</time></trkpt><trkpt lat="43.9991205" lon="12.1120117"><ele>150.33333333333334</ele><time>2026-05-01T11:41:08.227Z</time></trkpt><trkpt lat="43.9992659" lon="12.112178"><ele>149.66666666666666</ele><time>2026-05-01T11:41:09.228Z</time></trkpt><trkpt lat="43.9994224" lon="12.1123637"><ele>149.0</ele><time>2026-05-01T11:41:10.234Z</time></trkpt><trkpt lat="43.9995703" lon="12.1125392"><ele>149.0</ele><time>2026-05-01T11:41:11.237Z</time></trkpt><trkpt lat="43.9997092" lon="12.1127064"><ele>149.0</ele><time>2026-05-01T11:41:12.235Z</time></trkpt><trkpt lat="43.9998422" lon="12.112859"><ele>149.0</ele><time>2026-05-01T11:41:13.223Z</time></trkpt><trkpt lat="43.9999692" lon="12.1129873"><ele>149.0</ele><time>2026-05-01T11:41:14.223Z</time></trkpt><trkpt lat="44.0001009" lon="12.1130763"><ele>149.0</ele><time>2026-05-01T11:41:15.22Z</time></trkpt><trkpt lat="44.0002449" lon="12.1131147"><ele>149.0</ele><time>2026-05-01T11:41:16.233Z</time></trkpt><trkpt lat="44.0003858" lon="12.1130931"><ele>149.0</ele><time>2026-05-01T11:41:17.233Z</time></trkpt><trkpt lat="44.0005372" lon="12.1130346"><ele>149.0</ele><time>2026-05-01T11:41:18.234Z</time></trkpt><trkpt lat="44.0006921" lon="12.1129359"><ele>149.0</ele><time>2026-05-01T11:41:19.218Z</time></trkpt><trkpt lat="44.0008323" lon="12.1128413"><ele>149.0</ele><time>2026-05-01T11:41:20.234Z</time></trkpt><trkpt lat="44.0009642" lon="12.1127487"><ele>148.25</ele><time>2026-05-01T11:41:21.233Z</time></trkpt><trkpt lat="44.0010847" lon="12.1126704"><ele>147.5</ele><time>2026-05-01T11:41:22.222Z</time></trkpt><trkpt lat="44.0012135" lon="12.1126158"><ele>146.75</ele><time>2026-05-01T11:41:23.233Z</time></trkpt><trkpt lat="44.0013576" lon="12.1125922"><ele>146.0</ele><time>2026-05-01T11:41:24.218Z</time></trkpt><trkpt lat="44.0015126" lon="12.1126045"><ele>146.0</ele><time>2026-05-01T11:41:25.233Z</time></trkpt><trkpt lat="44.0016815" lon="12.1126466"><ele>146.0</ele><time>2026-05-01T11:41:26.219Z</time></trkpt><trkpt lat="44.0018661" lon="12.112727"><ele>146.0</ele><time>2026-05-01T11:41:27.222Z</time></trkpt><trkpt lat="44.0020421" lon="12.1128223"><ele>146.0</ele><time>2026-05-01T11:41:28.223Z</time></trkpt><trkpt lat="44.0022219" lon="12.1129289"><ele>146.0</ele><time>2026-05-01T11:41:29.217Z</time></trkpt><trkpt lat="44.0024061" lon="12.1130548"><ele>146.0</ele><time>2026-05-01T11:41:30.226Z</time></trkpt><trkpt lat="44.0025747" lon="12.1131954"><ele>145.33333333333331</ele><time>2026-05-01T11:41:31.234Z</time></trkpt><trkpt lat="44.0027456" lon="12.1133705"><ele>144.66666666666666</ele><time>2026-05-01T11:41:32.219Z</time></trkpt><trkpt lat="44.0029029" lon="12.1135499"><ele>144.0</ele><time>2026-05-01T11:41:33.23Z</time></trkpt><trkpt lat="44.0030534" lon="12.1137333"><ele>144.0</ele><time>2026-05-01T11:41:34.233Z</time></trkpt><trkpt lat="44.0031982" lon="12.1139121"><ele>144.0</ele><time>2026-05-01T11:41:35.222Z</time></trkpt><trkpt lat="44.0033328" lon="12.1140911"><ele>144.0</ele><time>2026-05-01T11:41:36.232Z</time></trkpt><trkpt lat="44.0034513" lon="12.1143004"><ele>144.33333333333334</ele><time>2026-05-01T11:41:37.218Z</time></trkpt><trkpt lat="44.0035411" lon="12.1145308"><ele>144.66666666666669</ele><time>2026-05-01T11:41:38.226Z</time></trkpt><trkpt lat="44.0036165" lon="12.1147842"><ele>145.0</ele><time>2026-05-01T11:41:39.234Z</time></trkpt><trkpt lat="44.0036813" lon="12.1150278"><ele>144.0</ele><time>2026-05-01T11:41:40.221Z</time></trkpt><trkpt lat="44.0037462" lon="12.1152701"><ele>143.0</ele><time>2026-05-01T11:41:41.232Z</time></trkpt><trkpt lat="44.0038431" lon="12.1154885"><ele>142.0</ele><time>2026-05-01T11:41:42.233Z</time></trkpt><trkpt lat="44.0039612" lon="12.1156949"><ele>141.33333333333334</ele><time>2026-05-01T11:41:43.232Z</time></trkpt><trkpt lat="44.004102" lon="12.1158792"><ele>140.66666666666666</ele><time>2026-05-01T11:41:44.221Z</time></trkpt><trkpt lat="44.0042683" lon="12.1160485"><ele>140.0</ele><time>2026-05-01T11:41:45.22Z</time></trkpt><trkpt lat="44.0044406" lon="12.1162223"><ele>139.66666666666666</ele><time>2026-05-01T11:41:46.233Z</time></trkpt><trkpt lat="44.0046117" lon="12.116396"><ele>139.33333333333334</ele><time>2026-05-01T11:41:47.222Z</time></trkpt><trkpt lat="44.0047831" lon="12.1165663"><ele>139.0</ele><time>2026-05-01T11:41:48.237Z</time></trkpt><trkpt lat="44.0049459" lon="12.1167238"><ele>140.0</ele><time>2026-05-01T11:41:49.222Z</time></trkpt><trkpt lat="44.0051066" lon="12.1168526"><ele>141.0</ele><time>2026-05-01T11:41:50.232Z</time></trkpt><trkpt lat="44.0052891" lon="12.1169637"><ele>142.0</ele><time>2026-05-01T11:41:51.224Z</time></trkpt><trkpt lat="44.0054732" lon="12.1170398"><ele>142.0</ele><time>2026-05-01T11:41:52.22Z</time></trkpt><trkpt lat="44.0056597" lon="12.1170945"><ele>142.0</ele><time>2026-05-01T11:41:53.233Z</time></trkpt><trkpt lat="44.0058522" lon="12.1171388"><ele>142.0</ele><time>2026-05-01T11:41:54.218Z</time></trkpt><trkpt lat="44.0060349" lon="12.1171828"><ele>142.33333333333334</ele><time>2026-05-01T11:41:55.226Z</time></trkpt><trkpt lat="44.0062307" lon="12.1172255"><ele>142.66666666666666</ele><time>2026-05-01T11:41:56.216Z</time></trkpt><trkpt lat="44.0064069" lon="12.1172613"><ele>143.0</ele><time>2026-05-01T11:41:57.233Z</time></trkpt><trkpt lat="44.0065892" lon="12.1172849"><ele>142.0</ele><time>2026-05-01T11:41:58.233Z</time></trkpt><trkpt lat="44.0067715" lon="12.1173021"><ele>141.0</ele><time>2026-05-01T11:41:59.222Z</time></trkpt><trkpt lat="44.0069546" lon="12.1173011"><ele>140.0</ele><time>2026-05-01T11:42:00.226Z</time></trkpt><trkpt lat="44.00713" lon="12.117288"><ele>140.0</ele><time>2026-05-01T11:42:01.22Z</time></trkpt><trkpt lat="44.0072996" lon="12.1172677"><ele>140.0</ele><time>2026-05-01T11:42:02.219Z</time></trkpt><trkpt lat="44.0074596" lon="12.1172356"><ele>140.0</ele><time>2026-05-01T11:42:03.233Z</time></trkpt><trkpt lat="44.0076312" lon="12.117191"><ele>139.0</ele><time>2026-05-01T11:42:04.22Z</time></trkpt><trkpt lat="44.0077871" lon="12.1171436"><ele>138.0</ele><time>2026-05-01T11:42:05.242Z</time></trkpt><trkpt lat="44.0079536" lon="12.1170909"><ele>137.0</ele><time>2026-05-01T11:42:06.233Z</time></trkpt><trkpt lat="44.0081301" lon="12.117036"><ele>137.0</ele><time>2026-05-01T11:42:07.22Z</time></trkpt><trkpt lat="44.0083071" lon="12.1169799"><ele>137.0</ele><time>2026-05-01T11:42:08.222Z</time></trkpt><trkpt lat="44.0084852" lon="12.1169215"><ele>137.0</ele><time>2026-05-01T11:42:09.22Z</time></trkpt><trkpt lat="44.0086614" lon="12.1168632"><ele>136.66666666666666</ele><time>2026-05-01T11:42:10.23Z</time></trkpt><trkpt lat="44.0088457" lon="12.1168062"><ele>136.33333333333334</ele><time>2026-05-01T11:42:11.218Z</time></trkpt><trkpt lat="44.0090374" lon="12.1167597"><ele>136.0</ele><time>2026-05-01T11:42:12.223Z</time></trkpt><trkpt lat="44.0092299" lon="12.1167383"><ele>135.66666666666669</ele><time>2026-05-01T11:42:13.22Z</time></trkpt><trkpt lat="44.0094259" lon="12.1167435"><ele>135.33333333333334</ele><time>2026-05-01T11:42:14.232Z</time></trkpt><trkpt lat="44.0096243" lon="12.11677"><ele>135.0</ele><time>2026-05-01T11:42:15.233Z</time></trkpt><trkpt lat="44.0098211" lon="12.1168161"><ele>134.66666666666666</ele><time>2026-05-01T11:42:16.22Z</time></trkpt><trkpt lat="44.0100166" lon="12.1168829"><ele>134.33333333333331</ele><time>2026-05-01T11:42:17.219Z</time></trkpt><trkpt lat="44.0102023" lon="12.1169611"><ele>134.0</ele><time>2026-05-01T11:42:18.235Z</time></trkpt><trkpt lat="44.0103902" lon="12.1170619"><ele>134.0</ele><time>2026-05-01T11:42:19.231Z</time></trkpt><trkpt lat="44.010573" lon="12.1171842"><ele>134.0</ele><time>2026-05-01T11:42:20.233Z</time></trkpt><trkpt lat="44.0107557" lon="12.1173134"><ele>134.0</ele><time>2026-05-01T11:42:21.228Z</time></trkpt><trkpt lat="44.010943" lon="12.1174537"><ele>133.33333333333331</ele><time>2026-05-01T11:42:22.227Z</time></trkpt><trkpt lat="44.0111424" lon="12.1176053"><ele>132.66666666666666</ele><time>2026-05-01T11:42:23.23Z</time></trkpt><trkpt lat="44.0113361" lon="12.1177431"><ele>132.0</ele><time>2026-05-01T11:42:24.226Z</time></trkpt><trkpt lat="44.0115277" lon="12.1178862"><ele>131.33333333333334</ele><time>2026-05-01T11:42:25.23Z</time></trkpt><trkpt lat="44.0117203" lon="12.1180197"><ele>130.66666666666669</ele><time>2026-05-01T11:42:26.232Z</time></trkpt><trkpt lat="44.0119108" lon="12.1181727"><ele>130.0</ele><time>2026-05-01T11:42:27.219Z</time></trkpt><trkpt lat="44.0121045" lon="12.1183207"><ele>129.66666666666669</ele><time>2026-05-01T11:42:28.225Z</time></trkpt><trkpt lat="44.0122839" lon="12.1184978"><ele>129.33333333333334</ele><time>2026-05-01T11:42:29.227Z</time></trkpt><trkpt lat="44.0124782" lon="12.118651"><ele>129.0</ele><time>2026-05-01T11:42:30.229Z</time></trkpt><trkpt lat="44.0126752" lon="12.1188101"><ele>128.0</ele><time>2026-05-01T11:42:31.231Z</time></trkpt><trkpt lat="44.0128745" lon="12.1189701"><ele>127.0</ele><time>2026-05-01T11:42:32.22Z</time></trkpt><trkpt lat="44.0130724" lon="12.1191294"><ele>127.0</ele><time>2026-05-01T11:42:33.222Z</time></trkpt><trkpt lat="44.0132704" lon="12.1192925"><ele>127.0</ele><time>2026-05-01T11:42:34.236Z</time></trkpt><trkpt lat="44.0134774" lon="12.1194587"><ele>126.5</ele><time>2026-05-01T11:42:35.232Z</time></trkpt><trkpt lat="44.0136868" lon="12.1196283"><ele>126.0</ele><time>2026-05-01T11:42:36.23Z</time></trkpt><trkpt lat="44.0138994" lon="12.1197928"><ele>126.0</ele><time>2026-05-01T11:42:37.231Z</time></trkpt><trkpt lat="44.0141198" lon="12.1199576"><ele>126.0</ele><time>2026-05-01T11:42:38.221Z</time></trkpt><trkpt lat="44.0143458" lon="12.1201245"><ele>125.5</ele><time>2026-05-01T11:42:39.23Z</time></trkpt><trkpt lat="44.0145709" lon="12.1202887"><ele>125.0</ele><time>2026-05-01T11:42:40.221Z</time></trkpt><trkpt lat="44.0147925" lon="12.1204602"><ele>124.5</ele><time>2026-05-01T11:42:41.234Z</time></trkpt><trkpt lat="44.0150157" lon="12.1206238"><ele>124.0</ele><time>2026-05-01T11:42:42.232Z</time></trkpt><trkpt lat="44.0152381" lon="12.1207963"><ele>124.0</ele><time>2026-05-01T11:42:43.232Z</time></trkpt><trkpt lat="44.0154687" lon="12.1209766"><ele>124.0</ele><time>2026-05-01T11:42:44.232Z</time></trkpt><trkpt lat="44.0156947" lon="12.121144"><ele>127.0</ele><time>2026-05-01T11:42:45.218Z</time></trkpt><trkpt lat="44.0159179" lon="12.1212869"><ele>130.0</ele><time>2026-05-01T11:42:46.232Z</time></trkpt><trkpt lat="44.0161461" lon="12.1214049"><ele>130.0</ele><time>2026-05-01T11:42:47.233Z</time></trkpt><trkpt lat="44.0163727" lon="12.1215013"><ele>130.0</ele><time>2026-05-01T11:42:48.233Z</time></trkpt><trkpt lat="44.0165827" lon="12.1215843"><ele>128.66666666666669</ele><time>2026-05-01T11:42:49.233Z</time></trkpt><trkpt lat="44.0167701" lon="12.1216566"><ele>127.33333333333334</ele><time>2026-05-01T11:42:50.232Z</time></trkpt><trkpt lat="44.0169503" lon="12.1217255"><ele>126.0</ele><time>2026-05-01T11:42:51.228Z</time></trkpt><trkpt lat="44.0171227" lon="12.1217929"><ele>126.0</ele><time>2026-05-01T11:42:52.247Z</time></trkpt><trkpt lat="44.0172928" lon="12.1218574"><ele>126.0</ele><time>2026-05-01T11:42:53.232Z</time></trkpt><trkpt lat="44.0174592" lon="12.1219157"><ele>126.0</ele><time>2026-05-01T11:42:54.221Z</time></trkpt><trkpt lat="44.0176224" lon="12.121973"><ele>126.66666666666666</ele><time>2026-05-01T11:42:55.232Z</time></trkpt><trkpt lat="44.017787" lon="12.1220342"><ele>127.33333333333333</ele><time>2026-05-01T11:42:56.233Z</time></trkpt><trkpt lat="44.0179427" lon="12.1220927"><ele>128.0</ele><time>2026-05-01T11:42:57.232Z</time></trkpt><trkpt lat="44.0180905" lon="12.1221473"><ele>128.0</ele><time>2026-05-01T11:42:58.227Z</time></trkpt><trkpt lat="44.0182299" lon="12.1222057"><ele>128.0</ele><time>2026-05-01T11:42:59.232Z</time></trkpt><trkpt lat="44.0183681" lon="12.122269"><ele>128.0</ele><time>2026-05-01T11:43:00.225Z</time></trkpt><trkpt lat="44.0185103" lon="12.1223538"><ele>128.0</ele><time>2026-05-01T11:43:01.232Z</time></trkpt><trkpt lat="44.0186509" lon="12.1224538"><ele>126.66666666666666</ele><time>2026-05-01T11:43:02.227Z</time></trkpt><trkpt lat="44.0188167" lon="12.1225967"><ele>125.33333333333334</ele><time>2026-05-01T11:43:03.232Z</time></trkpt><trkpt lat="44.0189786" lon="12.1227553"><ele>124.0</ele><time>2026-05-01T11:43:04.232Z</time></trkpt><trkpt lat="44.0191491" lon="12.1229284"><ele>123.0</ele><time>2026-05-01T11:43:05.226Z</time></trkpt><trkpt lat="44.019324" lon="12.1231157"><ele>122.0</ele><time>2026-05-01T11:43:06.22Z</time></trkpt><trkpt lat="44.0194989" lon="12.1233003"><ele>121.0</ele><time>2026-05-01T11:43:07.234Z</time></trkpt><trkpt lat="44.0196842" lon="12.1234932"><ele>121.0</ele><time>2026-05-01T11:43:08.229Z</time></trkpt><trkpt lat="44.0198616" lon="12.1236742"><ele>121.0</ele><time>2026-05-01T11:43:09.217Z</time></trkpt><trkpt lat="44.0200384" lon="12.1238577"><ele>121.0</ele><time>2026-05-01T11:43:10.231Z</time></trkpt><trkpt lat="44.0202263" lon="12.1240422"><ele>120.66666666666667</ele><time>2026-05-01T11:43:11.219Z</time></trkpt><trkpt lat="44.0204024" lon="12.1242192"><ele>120.33333333333334</ele><time>2026-05-01T11:43:12.223Z</time></trkpt><trkpt lat="44.0205854" lon="12.1244033"><ele>120.0</ele><time>2026-05-01T11:43:13.234Z</time></trkpt><trkpt lat="44.0207629" lon="12.1245852"><ele>120.0</ele><time>2026-05-01T11:43:14.222Z</time></trkpt><trkpt lat="44.0209365" lon="12.1247676"><ele>120.0</ele><time>2026-05-01T11:43:15.234Z</time></trkpt><trkpt lat="44.0211271" lon="12.1249674"><ele>120.0</ele><time>2026-05-01T11:43:16.226Z</time></trkpt><trkpt lat="44.0213063" lon="12.1251523"><ele>120.0</ele><time>2026-05-01T11:43:17.23Z</time></trkpt><trkpt lat="44.0214884" lon="12.1253382"><ele>120.0</ele><time>2026-05-01T11:43:18.222Z</time></trkpt><trkpt lat="44.0216739" lon="12.1255295"><ele>119.5</ele><time>2026-05-01T11:43:19.219Z</time></trkpt><trkpt lat="44.0218585" lon="12.1257192"><ele>119.0</ele><time>2026-05-01T11:43:20.226Z</time></trkpt><trkpt lat="44.022039" lon="12.1259025"><ele>119.0</ele><time>2026-05-01T11:43:21.235Z</time></trkpt><trkpt lat="44.0222209" lon="12.1260838"><ele>119.0</ele><time>2026-05-01T11:43:22.228Z</time></trkpt><trkpt lat="44.022398" lon="12.1262631"><ele>119.0</ele><time>2026-05-01T11:43:23.235Z</time></trkpt><trkpt lat="44.0225708" lon="12.1264428"><ele>118.33333333333333</ele><time>2026-05-01T11:43:24.218Z</time></trkpt><trkpt lat="44.0227382" lon="12.1266174"><ele>117.66666666666666</ele><time>2026-05-01T11:43:25.221Z</time></trkpt><trkpt lat="44.022893" lon="12.1267756"><ele>117.0</ele><time>2026-05-01T11:43:26.222Z</time></trkpt><trkpt lat="44.0230488" lon="12.1269383"><ele>117.0</ele><time>2026-05-01T11:43:27.234Z</time></trkpt><trkpt lat="44.0231948" lon="12.1270854"><ele>117.0</ele><time>2026-05-01T11:43:28.233Z</time></trkpt><trkpt lat="44.0233325" lon="12.1272275"><ele>117.0</ele><time>2026-05-01T11:43:29.218Z</time></trkpt><trkpt lat="44.0234724" lon="12.1273747"><ele>116.66666666666666</ele><time>2026-05-01T11:43:30.225Z</time></trkpt><trkpt lat="44.0236087" lon="12.1275147"><ele>116.33333333333333</ele><time>2026-05-01T11:43:31.232Z</time></trkpt><trkpt lat="44.0237554" lon="12.1276647"><ele>116.0</ele><time>2026-05-01T11:43:32.235Z</time></trkpt><trkpt lat="44.0239022" lon="12.1278123"><ele>116.0</ele><time>2026-05-01T11:43:33.22Z</time></trkpt><trkpt lat="44.0240619" lon="12.1279701"><ele>116.0</ele><time>2026-05-01T11:43:34.23Z</time></trkpt><trkpt lat="44.0242388" lon="12.1281492"><ele>116.0</ele><time>2026-05-01T11:43:35.239Z</time></trkpt><trkpt lat="44.0244035" lon="12.1283264"><ele>115.66666666666666</ele><time>2026-05-01T11:43:36.219Z</time></trkpt><trkpt lat="44.0245641" lon="12.1285206"><ele>115.33333333333334</ele><time>2026-05-01T11:43:37.236Z</time></trkpt><trkpt lat="44.0247212" lon="12.128745"><ele>115.0</ele><time>2026-05-01T11:43:38.234Z</time></trkpt><trkpt lat="44.0248599" lon="12.1289936"><ele>114.66666666666667</ele><time>2026-05-01T11:43:39.219Z</time></trkpt><trkpt lat="44.0249796" lon="12.1292422"><ele>114.33333333333334</ele><time>2026-05-01T11:43:40.225Z</time></trkpt><trkpt lat="44.0250976" lon="12.1294809"><ele>114.0</ele><time>2026-05-01T11:43:41.234Z</time></trkpt><trkpt lat="44.0252166" lon="12.1296962"><ele>114.0</ele><time>2026-05-01T11:43:42.216Z</time></trkpt><trkpt lat="44.0253418" lon="12.1298771"><ele>114.0</ele><time>2026-05-01T11:43:43.229Z</time></trkpt><trkpt lat="44.0254841" lon="12.1300201"><ele>114.0</ele><time>2026-05-01T11:43:44.223Z</time></trkpt><trkpt lat="44.0256392" lon="12.1301296"><ele>114.0</ele><time>2026-05-01T11:43:45.219Z</time></trkpt><trkpt lat="44.0258061" lon="12.1302196"><ele>114.0</ele><time>2026-05-01T11:43:46.221Z</time></trkpt><trkpt lat="44.0259724" lon="12.1302946"><ele>114.0</ele><time>2026-05-01T11:43:47.233Z</time></trkpt><trkpt lat="44.0261608" lon="12.1303765"><ele>115.33333333333334</ele><time>2026-05-01T11:43:48.22Z</time></trkpt><trkpt lat="44.0263412" lon="12.1304574"><ele>116.66666666666667</ele><time>2026-05-01T11:43:49.229Z</time></trkpt><trkpt lat="44.0265293" lon="12.1305414"><ele>118.0</ele><time>2026-05-01T11:43:50.223Z</time></trkpt><trkpt lat="44.0267218" lon="12.130632"><ele>116.66666666666667</ele><time>2026-05-01T11:43:51.221Z</time></trkpt><trkpt lat="44.0269074" lon="12.1307288"><ele>115.33333333333334</ele><time>2026-05-01T11:43:52.219Z</time></trkpt><trkpt lat="44.0271028" lon="12.1308339"><ele>114.0</ele><time>2026-05-01T11:43:53.221Z</time></trkpt><trkpt lat="44.0272926" lon="12.130937"><ele>115.33333333333334</ele><time>2026-05-01T11:43:54.221Z</time></trkpt><trkpt lat="44.0274816" lon="12.1310391"><ele>116.66666666666667</ele><time>2026-05-01T11:43:55.234Z</time></trkpt><trkpt lat="44.0276669" lon="12.1311421"><ele>118.0</ele><time>2026-05-01T11:43:56.221Z</time></trkpt><trkpt lat="44.0278298" lon="12.1312337"><ele>118.0</ele><time>2026-05-01T11:43:57.22Z</time></trkpt><trkpt lat="44.027987" lon="12.131331"><ele>118.0</ele><time>2026-05-01T11:43:58.223Z</time></trkpt><trkpt lat="44.0281388" lon="12.1314357"><ele>118.0</ele><time>2026-05-01T11:43:59.223Z</time></trkpt><trkpt lat="44.0282877" lon="12.1315534"><ele>116.66666666666667</ele><time>2026-05-01T11:44:00.23Z</time></trkpt><trkpt lat="44.0284279" lon="12.1317007"><ele>115.33333333333334</ele><time>2026-05-01T11:44:01.224Z</time></trkpt><trkpt lat="44.0285569" lon="12.1318594"><ele>114.0</ele><time>2026-05-01T11:44:02.238Z</time></trkpt><trkpt lat="44.0286712" lon="12.1320369"><ele>114.0</ele><time>2026-05-01T11:44:03.232Z</time></trkpt><trkpt lat="44.0287703" lon="12.13225"><ele>114.0</ele><time>2026-05-01T11:44:04.231Z</time></trkpt><trkpt lat="44.0288431" lon="12.132468"><ele>114.0</ele><time>2026-05-01T11:44:05.234Z</time></trkpt><trkpt lat="44.0288888" lon="12.132708"><ele>113.0</ele><time>2026-05-01T11:44:06.228Z</time></trkpt><trkpt lat="44.0289171" lon="12.1329701"><ele>112.0</ele><time>2026-05-01T11:44:07.235Z</time></trkpt><trkpt lat="44.0289455" lon="12.1332225"><ele>111.0</ele><time>2026-05-01T11:44:08.222Z</time></trkpt><trkpt lat="44.0289612" lon="12.1334784"><ele>110.0</ele><time>2026-05-01T11:44:09.224Z</time></trkpt><trkpt lat="44.0289736" lon="12.1337392"><ele>109.0</ele><time>2026-05-01T11:44:10.233Z</time></trkpt><trkpt lat="44.0289842" lon="12.1339992"><ele>108.0</ele><time>2026-05-01T11:44:11.232Z</time></trkpt><trkpt lat="44.0289965" lon="12.1342665"><ele>107.66666666666666</ele><time>2026-05-01T11:44:12.222Z</time></trkpt><trkpt lat="44.0290131" lon="12.134529"><ele>107.33333333333333</ele><time>2026-05-01T11:44:13.223Z</time></trkpt><trkpt lat="44.0290375" lon="12.1347942"><ele>107.0</ele><time>2026-05-01T11:44:14.233Z</time></trkpt><trkpt lat="44.0290751" lon="12.1350515"><ele>107.0</ele><time>2026-05-01T11:44:15.232Z</time></trkpt><trkpt lat="44.0291246" lon="12.1353042"><ele>107.0</ele><time>2026-05-01T11:44:16.234Z</time></trkpt><trkpt lat="44.0291796" lon="12.1355448"><ele>107.0</ele><time>2026-05-01T11:44:17.219Z</time></trkpt><trkpt lat="44.0292387" lon="12.1357826"><ele>107.0</ele><time>2026-05-01T11:44:18.227Z</time></trkpt><trkpt lat="44.0292946" lon="12.1360071"><ele>107.0</ele><time>2026-05-01T11:44:19.231Z</time></trkpt><trkpt lat="44.0293519" lon="12.1362519"><ele>107.0</ele><time>2026-05-01T11:44:20.225Z</time></trkpt><trkpt lat="44.0294071" lon="12.1364939"><ele>106.66666666666666</ele><time>2026-05-01T11:44:21.23Z</time></trkpt><trkpt lat="44.0294634" lon="12.1367325"><ele>106.33333333333334</ele><time>2026-05-01T11:44:22.233Z</time></trkpt><trkpt lat="44.0295288" lon="12.1369919"><ele>106.0</ele><time>2026-05-01T11:44:23.223Z</time></trkpt><trkpt lat="44.0295923" lon="12.1372437"><ele>106.33333333333334</ele><time>2026-05-01T11:44:24.232Z</time></trkpt><trkpt lat="44.0296575" lon="12.137506"><ele>106.66666666666666</ele><time>2026-05-01T11:44:25.218Z</time></trkpt><trkpt lat="44.0297244" lon="12.1377768"><ele>107.0</ele><time>2026-05-01T11:44:26.228Z</time></trkpt><trkpt lat="44.0297907" lon="12.1380423"><ele>107.0</ele><time>2026-05-01T11:44:27.218Z</time></trkpt><trkpt lat="44.0298593" lon="12.1383284"><ele>107.0</ele><time>2026-05-01T11:44:28.227Z</time></trkpt><trkpt lat="44.029924" lon="12.1385999"><ele>107.0</ele><time>2026-05-01T11:44:29.22Z</time></trkpt><trkpt lat="44.0299891" lon="12.1388599"><ele>106.0</ele><time>2026-05-01T11:44:30.234Z</time></trkpt><trkpt lat="44.030053" lon="12.1391244"><ele>105.0</ele><time>2026-05-01T11:44:31.229Z</time></trkpt><trkpt lat="44.0301095" lon="12.1393775"><ele>104.0</ele><time>2026-05-01T11:44:32.225Z</time></trkpt><trkpt lat="44.0301548" lon="12.1396391"><ele>104.33333333333333</ele><time>2026-05-01T11:44:33.22Z</time></trkpt><trkpt lat="44.0301739" lon="12.1398964"><ele>104.66666666666666</ele><time>2026-05-01T11:44:34.22Z</time></trkpt><trkpt lat="44.0301566" lon="12.1401633"><ele>105.0</ele><time>2026-05-01T11:44:35.234Z</time></trkpt><trkpt lat="44.0301016" lon="12.1404411"><ele>105.0</ele><time>2026-05-01T11:44:36.221Z</time></trkpt><trkpt lat="44.0300146" lon="12.1406993"><ele>105.0</ele><time>2026-05-01T11:44:37.234Z</time></trkpt><trkpt lat="44.0299049" lon="12.1409551"><ele>105.0</ele><time>2026-05-01T11:44:38.235Z</time></trkpt><trkpt lat="44.0297863" lon="12.1412179"><ele>104.66666666666666</ele><time>2026-05-01T11:44:39.218Z</time></trkpt><trkpt lat="44.0296696" lon="12.141458"><ele>104.33333333333333</ele><time>2026-05-01T11:44:40.235Z</time></trkpt><trkpt lat="44.0295687" lon="12.1417"><ele>104.0</ele><time>2026-05-01T11:44:41.233Z</time></trkpt><trkpt lat="44.0294886" lon="12.1419213"><ele>104.0</ele><time>2026-05-01T11:44:42.223Z</time></trkpt><trkpt lat="44.0294362" lon="12.1421413"><ele>104.0</ele><time>2026-05-01T11:44:43.228Z</time></trkpt><trkpt lat="44.0294196" lon="12.1423748"><ele>104.0</ele><time>2026-05-01T11:44:44.233Z</time></trkpt><trkpt lat="44.0294487" lon="12.1425972"><ele>104.33333333333333</ele><time>2026-05-01T11:44:45.232Z</time></trkpt><trkpt lat="44.0295084" lon="12.1428275"><ele>104.66666666666666</ele><time>2026-05-01T11:44:46.235Z</time></trkpt><trkpt lat="44.0296058" lon="12.1430608"><ele>105.0</ele><time>2026-05-01T11:44:47.232Z</time></trkpt><trkpt lat="44.0297311" lon="12.1432974"><ele>104.33333333333334</ele><time>2026-05-01T11:44:48.221Z</time></trkpt><trkpt lat="44.0298436" lon="12.1435353"><ele>103.66666666666667</ele><time>2026-05-01T11:44:49.234Z</time></trkpt><trkpt lat="44.0299508" lon="12.1437657"><ele>103.0</ele><time>2026-05-01T11:44:50.217Z</time></trkpt><trkpt lat="44.0300574" lon="12.1439983"><ele>106.0</ele><time>2026-05-01T11:44:51.224Z</time></trkpt><trkpt lat="44.0301564" lon="12.1442208"><ele>109.0</ele><time>2026-05-01T11:44:52.221Z</time></trkpt><trkpt lat="44.030238" lon="12.1444495"><ele>112.0</ele><time>2026-05-01T11:44:53.224Z</time></trkpt><trkpt lat="44.0302925" lon="12.1446918"><ele>111.33333333333334</ele><time>2026-05-01T11:44:54.233Z</time></trkpt><trkpt lat="44.030315" lon="12.1449459"><ele>110.66666666666666</ele><time>2026-05-01T11:44:55.228Z</time></trkpt><trkpt lat="44.0303167" lon="12.145199"><ele>110.0</ele><time>2026-05-01T11:44:56.223Z</time></trkpt><trkpt lat="44.0303279" lon="12.145434"><ele>110.0</ele><time>2026-05-01T11:44:57.23Z</time></trkpt><trkpt lat="44.0303619" lon="12.1456761"><ele>110.0</ele><time>2026-05-01T11:44:58.222Z</time></trkpt><trkpt lat="44.0304231" lon="12.1458782"><ele>110.0</ele><time>2026-05-01T11:44:59.225Z</time></trkpt><trkpt lat="44.030517" lon="12.1460358"><ele>109.66666666666666</ele><time>2026-05-01T11:45:00.221Z</time></trkpt><trkpt lat="44.0306648" lon="12.1461548"><ele>109.33333333333334</ele><time>2026-05-01T11:45:01.221Z</time></trkpt><trkpt lat="44.0308121" lon="12.146255"><ele>109.0</ele><time>2026-05-01T11:45:02.217Z</time></trkpt><trkpt lat="44.0309728" lon="12.146388"><ele>111.66666666666667</ele><time>2026-05-01T11:45:03.218Z</time></trkpt><trkpt lat="44.0311086" lon="12.1465472"><ele>114.33333333333334</ele><time>2026-05-01T11:45:04.225Z</time></trkpt><trkpt lat="44.0312237" lon="12.1467758"><ele>117.0</ele><time>2026-05-01T11:45:05.219Z</time></trkpt><trkpt lat="44.0313255" lon="12.1470024"><ele>117.0</ele><time>2026-05-01T11:45:06.227Z</time></trkpt><trkpt lat="44.0314646" lon="12.1472043"><ele>117.0</ele><time>2026-05-01T11:45:07.231Z</time></trkpt><trkpt lat="44.0316433" lon="12.1473667"><ele>117.0</ele><time>2026-05-01T11:45:08.215Z</time></trkpt><trkpt lat="44.031818" lon="12.1475404"><ele>118.66666666666666</ele><time>2026-05-01T11:45:09.226Z</time></trkpt><trkpt lat="44.03194" lon="12.1476955"><ele>120.33333333333333</ele><time>2026-05-01T11:45:10.231Z</time></trkpt><trkpt lat="44.0320519" lon="12.1478917"><ele>122.0</ele><time>2026-05-01T11:45:11.227Z</time></trkpt><trkpt lat="44.032146" lon="12.148115"><ele>117.66666666666666</ele><time>2026-05-01T11:45:12.23Z</time></trkpt><trkpt lat="44.0322197" lon="12.1483966"><ele>113.33333333333334</ele><time>2026-05-01T11:45:13.22Z</time></trkpt><trkpt lat="44.0323136" lon="12.148641"><ele>109.0</ele><time>2026-05-01T11:45:14.216Z</time></trkpt><trkpt lat="44.0324322" lon="12.1488906"><ele>112.33333333333334</ele><time>2026-05-01T11:45:15.227Z</time></trkpt><trkpt lat="44.0325427" lon="12.1491073"><ele>115.66666666666666</ele><time>2026-05-01T11:45:16.226Z</time></trkpt><trkpt lat="44.0326653" lon="12.149287"><ele>119.0</ele><time>2026-05-01T11:45:17.221Z</time></trkpt><trkpt lat="44.0328182" lon="12.1494932"><ele>119.0</ele><time>2026-05-01T11:45:18.23Z</time></trkpt><trkpt lat="44.0329911" lon="12.1495675"><ele>119.0</ele><time>2026-05-01T11:45:19.232Z</time></trkpt><trkpt lat="44.0331814" lon="12.1495813"><ele>119.0</ele><time>2026-05-01T11:45:20.231Z</time></trkpt><trkpt lat="44.0333559" lon="12.1495453"><ele>122.33333333333333</ele><time>2026-05-01T11:45:21.232Z</time></trkpt><trkpt lat="44.033441" lon="12.1494674"><ele>125.66666666666666</ele><time>2026-05-01T11:45:22.228Z</time></trkpt><trkpt lat="44.0336092" lon="12.1494917"><ele>129.0</ele><time>2026-05-01T11:45:23.23Z</time></trkpt><trkpt lat="44.0337855" lon="12.1495342"><ele>129.0</ele><time>2026-05-01T11:45:24.222Z</time></trkpt><trkpt lat="44.0339565" lon="12.149665"><ele>129.0</ele><time>2026-05-01T11:45:25.224Z</time></trkpt><trkpt lat="44.03412" lon="12.1497841"><ele>129.0</ele><time>2026-05-01T11:45:26.22Z</time></trkpt><trkpt lat="44.0342798" lon="12.1499046"><ele>127.0</ele><time>2026-05-01T11:45:27.221Z</time></trkpt><trkpt lat="44.0344291" lon="12.1500238"><ele>125.0</ele><time>2026-05-01T11:45:28.218Z</time></trkpt><trkpt lat="44.0345778" lon="12.1501715"><ele>123.0</ele><time>2026-05-01T11:45:29.233Z</time></trkpt><trkpt lat="44.0347276" lon="12.15033"><ele>123.0</ele><time>2026-05-01T11:45:30.226Z</time></trkpt><trkpt lat="44.0348637" lon="12.1505059"><ele>123.0</ele><time>2026-05-01T11:45:31.237Z</time></trkpt><trkpt lat="44.0349944" lon="12.1507103"><ele>123.0</ele><time>2026-05-01T11:45:32.235Z</time></trkpt><trkpt lat="44.0351117" lon="12.150924"><ele>123.66666666666666</ele><time>2026-05-01T11:45:33.231Z</time></trkpt><trkpt lat="44.0352168" lon="12.1511296"><ele>124.33333333333333</ele><time>2026-05-01T11:45:34.23Z</time></trkpt><trkpt lat="44.035289" lon="12.151368"><ele>125.0</ele><time>2026-05-01T11:45:35.216Z</time></trkpt><trkpt lat="44.0353475" lon="12.1516078"><ele>121.66666666666666</ele><time>2026-05-01T11:45:36.232Z</time></trkpt><trkpt lat="44.0353779" lon="12.1518537"><ele>118.33333333333334</ele><time>2026-05-01T11:45:37.251Z</time></trkpt><trkpt lat="44.035387" lon="12.1521581"><ele>115.0</ele><time>2026-05-01T11:45:38.231Z</time></trkpt><trkpt lat="44.0353941" lon="12.152404"><ele>111.33333333333334</ele><time>2026-05-01T11:45:39.232Z</time></trkpt><trkpt lat="44.0353903" lon="12.15266"><ele>107.66666666666666</ele><time>2026-05-01T11:45:40.234Z</time></trkpt><trkpt lat="44.0353823" lon="12.152892"><ele>104.0</ele><time>2026-05-01T11:45:41.233Z</time></trkpt><trkpt lat="44.0354004" lon="12.153113"><ele>103.33333333333333</ele><time>2026-05-01T11:45:42.229Z</time></trkpt><trkpt lat="44.035431" lon="12.1533231"><ele>102.66666666666666</ele><time>2026-05-01T11:45:43.225Z</time></trkpt><trkpt lat="44.0355073" lon="12.153542"><ele>102.0</ele><time>2026-05-01T11:45:44.223Z</time></trkpt><trkpt lat="44.0356257" lon="12.1537327"><ele>102.0</ele><time>2026-05-01T11:45:45.22Z</time></trkpt><trkpt lat="44.0357602" lon="12.1539272"><ele>102.0</ele><time>2026-05-01T11:45:46.231Z</time></trkpt><trkpt lat="44.0359386" lon="12.1541125"><ele>102.0</ele><time>2026-05-01T11:45:47.221Z</time></trkpt><trkpt lat="44.036093" lon="12.1542941"><ele>104.33333333333334</ele><time>2026-05-01T11:45:48.22Z</time></trkpt><trkpt lat="44.03625" lon="12.1544704"><ele>106.66666666666667</ele><time>2026-05-01T11:45:49.23Z</time></trkpt><trkpt lat="44.0364038" lon="12.1546488"><ele>109.0</ele><time>2026-05-01T11:45:50.231Z</time></trkpt><trkpt lat="44.0365556" lon="12.1548214"><ele>108.0</ele><time>2026-05-01T11:45:51.233Z</time></trkpt><trkpt lat="44.0367075" lon="12.1549991"><ele>107.0</ele><time>2026-05-01T11:45:52.237Z</time></trkpt><trkpt lat="44.0368536" lon="12.1551387"><ele>106.0</ele><time>2026-05-01T11:45:53.231Z</time></trkpt><trkpt lat="44.0370009" lon="12.1552951"><ele>106.0</ele><time>2026-05-01T11:45:54.217Z</time></trkpt><trkpt lat="44.037156" lon="12.1554145"><ele>106.0</ele><time>2026-05-01T11:45:55.219Z</time></trkpt><trkpt lat="44.0373073" lon="12.1555349"><ele>106.0</ele><time>2026-05-01T11:45:56.234Z</time></trkpt><trkpt lat="44.0374431" lon="12.1556923"><ele>106.33333333333334</ele><time>2026-05-01T11:45:57.229Z</time></trkpt><trkpt lat="44.0375647" lon="12.1559082"><ele>106.66666666666666</ele><time>2026-05-01T11:45:58.232Z</time></trkpt><trkpt lat="44.0376708" lon="12.1561458"><ele>107.0</ele><time>2026-05-01T11:45:59.226Z</time></trkpt><trkpt lat="44.0378197" lon="12.1564339"><ele>103.33333333333333</ele><time>2026-05-01T11:46:00.226Z</time></trkpt><trkpt lat="44.0379015" lon="12.1566754"><ele>99.66666666666666</ele><time>2026-05-01T11:46:01.232Z</time></trkpt><trkpt lat="44.0379609" lon="12.1569406"><ele>96.0</ele><time>2026-05-01T11:46:02.219Z</time></trkpt><trkpt lat="44.0379878" lon="12.15722"><ele>95.0</ele><time>2026-05-01T11:46:03.236Z</time></trkpt><trkpt lat="44.0379858" lon="12.1574966"><ele>94.0</ele><time>2026-05-01T11:46:04.232Z</time></trkpt><trkpt lat="44.0379888" lon="12.157766"><ele>93.0</ele><time>2026-05-01T11:46:05.221Z</time></trkpt><trkpt lat="44.0380104" lon="12.1580209"><ele>92.66666666666667</ele><time>2026-05-01T11:46:06.232Z</time></trkpt><trkpt lat="44.0380497" lon="12.1582662"><ele>92.33333333333334</ele><time>2026-05-01T11:46:07.226Z</time></trkpt><trkpt lat="44.0381215" lon="12.1585014"><ele>92.0</ele><time>2026-05-01T11:46:08.227Z</time></trkpt><trkpt lat="44.0382075" lon="12.1587153"><ele>93.0</ele><time>2026-05-01T11:46:09.234Z</time></trkpt><trkpt lat="44.038339" lon="12.1589434"><ele>94.0</ele><time>2026-05-01T11:46:10.232Z</time></trkpt><trkpt lat="44.03847" lon="12.1591648"><ele>95.0</ele><time>2026-05-01T11:46:11.233Z</time></trkpt><trkpt lat="44.038622" lon="12.1593957"><ele>95.0</ele><time>2026-05-01T11:46:12.23Z</time></trkpt><trkpt lat="44.0387597" lon="12.1596078"><ele>95.0</ele><time>2026-05-01T11:46:13.237Z</time></trkpt><trkpt lat="44.0389017" lon="12.159824"><ele>95.0</ele><time>2026-05-01T11:46:14.234Z</time></trkpt><trkpt lat="44.0390387" lon="12.1600399"><ele>95.33333333333334</ele><time>2026-05-01T11:46:15.229Z</time></trkpt><trkpt lat="44.0391748" lon="12.1602519"><ele>95.66666666666667</ele><time>2026-05-01T11:46:16.218Z</time></trkpt><trkpt lat="44.0393071" lon="12.1604593"><ele>96.0</ele><time>2026-05-01T11:46:17.23Z</time></trkpt><trkpt lat="44.0394406" lon="12.1606707"><ele>93.66666666666667</ele><time>2026-05-01T11:46:18.232Z</time></trkpt><trkpt lat="44.0395717" lon="12.1608731"><ele>91.33333333333334</ele><time>2026-05-01T11:46:19.23Z</time></trkpt><trkpt lat="44.039713" lon="12.16109"><ele>89.0</ele><time>2026-05-01T11:46:20.22Z</time></trkpt><trkpt lat="44.0398631" lon="12.1612938"><ele>87.0</ele><time>2026-05-01T11:46:21.226Z</time></trkpt><trkpt lat="44.0400204" lon="12.1614857"><ele>85.0</ele><time>2026-05-01T11:46:22.223Z</time></trkpt><trkpt lat="44.0402111" lon="12.161693"><ele>85.0</ele><time>2026-05-01T11:46:23.232Z</time></trkpt><trkpt lat="44.0403969" lon="12.1618886"><ele>85.0</ele><time>2026-05-01T11:46:24.228Z</time></trkpt><trkpt lat="44.0405843" lon="12.1620856"><ele>85.0</ele><time>2026-05-01T11:46:25.219Z</time></trkpt><trkpt lat="44.0407729" lon="12.1622806"><ele>85.0</ele><time>2026-05-01T11:46:26.223Z</time></trkpt><trkpt lat="44.0409625" lon="12.1624776"><ele>85.5</ele><time>2026-05-01T11:46:27.215Z</time></trkpt><trkpt lat="44.0411606" lon="12.1626694"><ele>86.0</ele><time>2026-05-01T11:46:28.232Z</time></trkpt><trkpt lat="44.0413496" lon="12.162858"><ele>86.0</ele><time>2026-05-01T11:46:29.234Z</time></trkpt><trkpt lat="44.0415335" lon="12.1630394"><ele>86.0</ele><time>2026-05-01T11:46:30.23Z</time></trkpt><trkpt lat="44.0417268" lon="12.1632292"><ele>85.66666666666667</ele><time>2026-05-01T11:46:31.223Z</time></trkpt><trkpt lat="44.0419103" lon="12.1634088"><ele>85.33333333333333</ele><time>2026-05-01T11:46:32.231Z</time></trkpt><trkpt lat="44.0420795" lon="12.1635765"><ele>85.0</ele><time>2026-05-01T11:46:33.231Z</time></trkpt><trkpt lat="44.0422615" lon="12.1637656"><ele>85.0</ele><time>2026-05-01T11:46:34.219Z</time></trkpt><trkpt lat="44.0424371" lon="12.1639602"><ele>85.0</ele><time>2026-05-01T11:46:35.221Z</time></trkpt><trkpt lat="44.0426247" lon="12.1641665"><ele>84.5</ele><time>2026-05-01T11:46:36.222Z</time></trkpt><trkpt lat="44.0427934" lon="12.1643759"><ele>84.0</ele><time>2026-05-01T11:46:37.23Z</time></trkpt><trkpt lat="44.0429567" lon="12.1645883"><ele>84.0</ele><time>2026-05-01T11:46:38.221Z</time></trkpt><trkpt lat="44.0431321" lon="12.1648194"><ele>84.0</ele><time>2026-05-01T11:46:39.227Z</time></trkpt><trkpt lat="44.0432952" lon="12.1650458"><ele>85.0</ele><time>2026-05-01T11:46:40.219Z</time></trkpt><trkpt lat="44.0434655" lon="12.1652863"><ele>86.0</ele><time>2026-05-01T11:46:41.235Z</time></trkpt><trkpt lat="44.0436302" lon="12.16552"><ele>84.0</ele><time>2026-05-01T11:46:42.215Z</time></trkpt><trkpt lat="44.0437954" lon="12.1657538"><ele>82.0</ele><time>2026-05-01T11:46:43.222Z</time></trkpt><trkpt lat="44.0439503" lon="12.1659789"><ele>82.0</ele><time>2026-05-01T11:46:44.22Z</time></trkpt><trkpt lat="44.0441036" lon="12.1662014"><ele>82.0</ele><time>2026-05-01T11:46:45.226Z</time></trkpt><trkpt lat="44.0442638" lon="12.1664224"><ele>82.0</ele><time>2026-05-01T11:46:46.244Z</time></trkpt><trkpt lat="44.0444153" lon="12.166634"><ele>81.0</ele><time>2026-05-01T11:46:47.217Z</time></trkpt><trkpt lat="44.0445771" lon="12.1668292"><ele>80.0</ele><time>2026-05-01T11:46:48.235Z</time></trkpt><trkpt lat="44.0447451" lon="12.1669884"><ele>79.0</ele><time>2026-05-01T11:46:49.22Z</time></trkpt><trkpt lat="44.0449262" lon="12.1671168"><ele>81.33333333333333</ele><time>2026-05-01T11:46:50.218Z</time></trkpt><trkpt lat="44.0451145" lon="12.1672028"><ele>83.66666666666667</ele><time>2026-05-01T11:46:51.233Z</time></trkpt><trkpt lat="44.0453271" lon="12.167278"><ele>86.0</ele><time>2026-05-01T11:46:52.218Z</time></trkpt><trkpt lat="44.0455306" lon="12.1673271"><ele>84.33333333333334</ele><time>2026-05-01T11:46:53.248Z</time></trkpt><trkpt lat="44.0457369" lon="12.1673699"><ele>82.66666666666667</ele><time>2026-05-01T11:46:54.218Z</time></trkpt><trkpt lat="44.045957" lon="12.1674133"><ele>81.0</ele><time>2026-05-01T11:46:55.224Z</time></trkpt><trkpt lat="44.0461674" lon="12.1674556"><ele>80.66666666666667</ele><time>2026-05-01T11:46:56.23Z</time></trkpt><trkpt lat="44.0463661" lon="12.1675035"><ele>80.33333333333334</ele><time>2026-05-01T11:46:57.233Z</time></trkpt><trkpt lat="44.0465586" lon="12.167555"><ele>80.0</ele><time>2026-05-01T11:46:58.229Z</time></trkpt><trkpt lat="44.0467438" lon="12.1676038"><ele>81.66666666666667</ele><time>2026-05-01T11:46:59.227Z</time></trkpt><trkpt lat="44.0469502" lon="12.1676645"><ele>83.33333333333333</ele><time>2026-05-01T11:47:00.233Z</time></trkpt><trkpt lat="44.0470436" lon="12.1679174"><ele>85.0</ele><time>2026-05-01T11:47:01.22Z</time></trkpt><trkpt lat="44.0472259" lon="12.1681274"><ele>85.66666666666666</ele><time>2026-05-01T11:47:02.219Z</time></trkpt><trkpt lat="44.0473466" lon="12.1683891"><ele>86.33333333333333</ele><time>2026-05-01T11:47:03.231Z</time></trkpt><trkpt lat="44.0474766" lon="12.1686408"><ele>87.0</ele><time>2026-05-01T11:47:04.232Z</time></trkpt><trkpt lat="44.0476053" lon="12.168892"><ele>83.0</ele><time>2026-05-01T11:47:05.233Z</time></trkpt><trkpt lat="44.0477045" lon="12.1692006"><ele>79.0</ele><time>2026-05-01T11:47:06.219Z</time></trkpt><trkpt lat="44.0478147" lon="12.1694733"><ele>79.0</ele><time>2026-05-01T11:47:07.219Z</time></trkpt><trkpt lat="44.0479313" lon="12.1698168"><ele>79.0</ele><time>2026-05-01T11:47:08.235Z</time></trkpt><trkpt lat="44.0480382" lon="12.1701157"><ele>77.5</ele><time>2026-05-01T11:47:09.225Z</time></trkpt><trkpt lat="44.0481495" lon="12.1703933"><ele>76.0</ele><time>2026-05-01T11:47:10.225Z</time></trkpt><trkpt lat="44.0482569" lon="12.1706801"><ele>78.0</ele><time>2026-05-01T11:47:11.234Z</time></trkpt><trkpt lat="44.0483267" lon="12.1709354"><ele>80.0</ele><time>2026-05-01T11:47:12.217Z</time></trkpt><trkpt lat="44.0483642" lon="12.171217"><ele>82.0</ele><time>2026-05-01T11:47:13.227Z</time></trkpt><trkpt lat="44.0484165" lon="12.1715044"><ele>81.33333333333333</ele><time>2026-05-01T11:47:14.219Z</time></trkpt><trkpt lat="44.0484501" lon="12.1717815"><ele>80.66666666666667</ele><time>2026-05-01T11:47:15.223Z</time></trkpt><trkpt lat="44.0484955" lon="12.1720586"><ele>80.0</ele><time>2026-05-01T11:47:16.217Z</time></trkpt><trkpt lat="44.0485513" lon="12.1722035"><ele>80.0</ele><time>2026-05-01T11:47:17.231Z</time></trkpt><trkpt lat="44.0486344" lon="12.172399"><ele>80.0</ele><time>2026-05-01T11:47:18.218Z</time></trkpt><trkpt lat="44.0487139" lon="12.1725865"><ele>80.0</ele><time>2026-05-01T11:47:19.218Z</time></trkpt><trkpt lat="44.0488953" lon="12.172726"><ele>80.0</ele><time>2026-05-01T11:47:20.23Z</time></trkpt><trkpt lat="44.0490476" lon="12.1728882"><ele>80.0</ele><time>2026-05-01T11:47:21.229Z</time></trkpt><trkpt lat="44.0492038" lon="12.17304"><ele>80.0</ele><time>2026-05-01T11:47:22.229Z</time></trkpt><trkpt lat="44.0493627" lon="12.1732015"><ele>79.66666666666667</ele><time>2026-05-01T11:47:23.238Z</time></trkpt><trkpt lat="44.0495056" lon="12.1733703"><ele>79.33333333333333</ele><time>2026-05-01T11:47:24.23Z</time></trkpt><trkpt lat="44.049663" lon="12.1734433"><ele>79.0</ele><time>2026-05-01T11:47:25.23Z</time></trkpt><trkpt lat="44.0498082" lon="12.1735436"><ele>79.0</ele><time>2026-05-01T11:47:26.231Z</time></trkpt><trkpt lat="44.0499524" lon="12.1736337"><ele>79.0</ele><time>2026-05-01T11:47:27.229Z</time></trkpt><trkpt lat="44.0501178" lon="12.1736985"><ele>79.0</ele><time>2026-05-01T11:47:28.227Z</time></trkpt><trkpt lat="44.0502831" lon="12.173734"><ele>78.66666666666666</ele><time>2026-05-01T11:47:29.228Z</time></trkpt><trkpt lat="44.0504366" lon="12.1737554"><ele>78.33333333333333</ele><time>2026-05-01T11:47:30.218Z</time></trkpt><trkpt lat="44.0505787" lon="12.173791"><ele>78.0</ele><time>2026-05-01T11:47:31.223Z</time></trkpt><trkpt lat="44.050724" lon="12.173848"><ele>78.66666666666667</ele><time>2026-05-01T11:47:32.228Z</time></trkpt><trkpt lat="44.0508549" lon="12.1739866"><ele>79.33333333333334</ele><time>2026-05-01T11:47:33.218Z</time></trkpt><trkpt lat="44.0509578" lon="12.1741646"><ele>80.0</ele><time>2026-05-01T11:47:34.222Z</time></trkpt><trkpt lat="44.0510694" lon="12.1743206"><ele>78.5</ele><time>2026-05-01T11:47:35.231Z</time></trkpt><trkpt lat="44.0511622" lon="12.1744664"><ele>77.0</ele><time>2026-05-01T11:47:36.233Z</time></trkpt><trkpt lat="44.0512334" lon="12.1746336"><ele>75.5</ele><time>2026-05-01T11:47:37.221Z</time></trkpt><trkpt lat="44.0513059" lon="12.1747742"><ele>74.0</ele><time>2026-05-01T11:47:38.231Z</time></trkpt><trkpt lat="44.0513772" lon="12.1748969"><ele>73.8</ele><time>2026-05-01T11:47:39.23Z</time></trkpt><trkpt lat="44.0514424" lon="12.1750234"><ele>73.60000000000001</ele><time>2026-05-01T11:47:40.232Z</time></trkpt><trkpt lat="44.0515056" lon="12.1751395"><ele>73.4</ele><time>2026-05-01T11:47:41.23Z</time></trkpt><trkpt lat="44.0515665" lon="12.175249"><ele>73.2</ele><time>2026-05-01T11:47:42.224Z</time></trkpt><trkpt lat="44.0516276" lon="12.1753655"><ele>73.0</ele><time>2026-05-01T11:47:43.228Z</time></trkpt><trkpt lat="44.0516644" lon="12.1754466"><ele>73.0</ele><time>2026-05-01T11:47:44.215Z</time></trkpt><trkpt lat="44.0517074" lon="12.1755772"><ele>73.0</ele><time>2026-05-01T11:47:46.229Z</time></trkpt><trkpt lat="44.0517235" lon="12.1756658"><ele>73.0</ele><time>2026-05-01T11:47:48.231Z</time></trkpt><trkpt lat="44.0517534" lon="12.1758541"><ele>73.0</ele><time>2026-05-01T11:48:27.221Z</time></trkpt><trkpt lat="44.0518051" lon="12.1759203"><ele>73.0</ele><time>2026-05-01T11:48:28.226Z</time></trkpt><trkpt lat="44.0519017" lon="12.176003"><ele>72.75</ele><time>2026-05-01T11:48:29.218Z</time></trkpt><trkpt lat="44.0519932" lon="12.1761155"><ele>72.5</ele><time>2026-05-01T11:48:30.217Z</time></trkpt><trkpt lat="44.0520756" lon="12.1762444"><ele>72.25</ele><time>2026-05-01T11:48:31.232Z</time></trkpt><trkpt lat="44.0521638" lon="12.1763889"><ele>72.0</ele><time>2026-05-01T11:48:32.231Z</time></trkpt><trkpt lat="44.0522373" lon="12.1765432"><ele>72.0</ele><time>2026-05-01T11:48:33.229Z</time></trkpt><trkpt lat="44.0523302" lon="12.1766986"><ele>72.0</ele><time>2026-05-01T11:48:34.233Z</time></trkpt><trkpt lat="44.0524157" lon="12.1768647"><ele>72.0</ele><time>2026-05-01T11:48:35.216Z</time></trkpt><trkpt lat="44.0525437" lon="12.1770856"><ele>72.0</ele><time>2026-05-01T11:48:36.234Z</time></trkpt><trkpt lat="44.0526335" lon="12.1772727"><ele>72.0</ele><time>2026-05-01T11:48:37.231Z</time></trkpt><trkpt lat="44.0527525" lon="12.1774602"><ele>72.0</ele><time>2026-05-01T11:48:38.218Z</time></trkpt><trkpt lat="44.0528802" lon="12.1776662"><ele>71.66666666666667</ele><time>2026-05-01T11:48:39.233Z</time></trkpt><trkpt lat="44.0530128" lon="12.1778301"><ele>71.33333333333334</ele><time>2026-05-01T11:48:40.217Z</time></trkpt><trkpt lat="44.053133" lon="12.1779405"><ele>71.0</ele><time>2026-05-01T11:48:41.217Z</time></trkpt><trkpt lat="44.053291" lon="12.1780492"><ele>72.0</ele><time>2026-05-01T11:48:42.232Z</time></trkpt><trkpt lat="44.0534328" lon="12.1781719"><ele>73.0</ele><time>2026-05-01T11:48:43.231Z</time></trkpt><trkpt lat="44.0535728" lon="12.1782272"><ele>74.0</ele><time>2026-05-01T11:48:44.222Z</time></trkpt><trkpt lat="44.0537272" lon="12.1782747"><ele>74.0</ele><time>2026-05-01T11:48:45.214Z</time></trkpt><trkpt lat="44.0538962" lon="12.1783736"><ele>74.0</ele><time>2026-05-01T11:48:46.214Z</time></trkpt><trkpt lat="44.0540665" lon="12.1785028"><ele>74.0</ele><time>2026-05-01T11:48:47.231Z</time></trkpt><trkpt lat="44.0542025" lon="12.1787579"><ele>74.0</ele><time>2026-05-01T11:48:48.217Z</time></trkpt><trkpt lat="44.0543596" lon="12.1788909"><ele>74.0</ele><time>2026-05-01T11:48:49.234Z</time></trkpt><trkpt lat="44.0545063" lon="12.1790193"><ele>74.0</ele><time>2026-05-01T11:48:50.228Z</time></trkpt><trkpt lat="44.0546593" lon="12.1791523"><ele>74.0</ele><time>2026-05-01T11:48:51.23Z</time></trkpt><trkpt lat="44.0548129" lon="12.1792891"><ele>74.0</ele><time>2026-05-01T11:48:52.233Z</time></trkpt><trkpt lat="44.0549659" lon="12.1794193"><ele>74.0</ele><time>2026-05-01T11:48:53.225Z</time></trkpt><trkpt lat="44.0551322" lon="12.1795502"><ele>74.66666666666667</ele><time>2026-05-01T11:48:54.234Z</time></trkpt><trkpt lat="44.0552881" lon="12.1796779"><ele>75.33333333333333</ele><time>2026-05-01T11:48:55.221Z</time></trkpt><trkpt lat="44.055467" lon="12.1797867"><ele>76.0</ele><time>2026-05-01T11:48:56.221Z</time></trkpt><trkpt lat="44.0556456" lon="12.1798874"><ele>77.33333333333333</ele><time>2026-05-01T11:48:57.218Z</time></trkpt><trkpt lat="44.0558395" lon="12.1799958"><ele>78.66666666666667</ele><time>2026-05-01T11:48:58.23Z</time></trkpt><trkpt lat="44.0560276" lon="12.1800855"><ele>80.0</ele><time>2026-05-01T11:48:59.231Z</time></trkpt><trkpt lat="44.0562118" lon="12.1801813"><ele>80.0</ele><time>2026-05-01T11:49:00.216Z</time></trkpt><trkpt lat="44.0564062" lon="12.1802678"><ele>80.0</ele><time>2026-05-01T11:49:01.23Z</time></trkpt><trkpt lat="44.0566186" lon="12.18034"><ele>80.0</ele><time>2026-05-01T11:49:02.23Z</time></trkpt><trkpt lat="44.056812" lon="12.1803711"><ele>82.33333333333334</ele><time>2026-05-01T11:49:03.216Z</time></trkpt><trkpt lat="44.057006" lon="12.1804045"><ele>84.66666666666667</ele><time>2026-05-01T11:49:04.225Z</time></trkpt><trkpt lat="44.0572132" lon="12.1804172"><ele>87.0</ele><time>2026-05-01T11:49:05.217Z</time></trkpt><trkpt lat="44.0574145" lon="12.1804435"><ele>89.66666666666667</ele><time>2026-05-01T11:49:06.217Z</time></trkpt><trkpt lat="44.0576083" lon="12.180476"><ele>92.33333333333334</ele><time>2026-05-01T11:49:07.218Z</time></trkpt><trkpt lat="44.0578042" lon="12.1805029"><ele>95.0</ele><time>2026-05-01T11:49:08.222Z</time></trkpt><trkpt lat="44.0579764" lon="12.1805448"><ele>95.0</ele><time>2026-05-01T11:49:09.218Z</time></trkpt><trkpt lat="44.0581751" lon="12.1805874"><ele>95.0</ele><time>2026-05-01T11:49:10.237Z</time></trkpt><trkpt lat="44.0583674" lon="12.1806245"><ele>95.0</ele><time>2026-05-01T11:49:11.23Z</time></trkpt><trkpt lat="44.0585723" lon="12.1806539"><ele>95.33333333333334</ele><time>2026-05-01T11:49:12.218Z</time></trkpt><trkpt lat="44.0587684" lon="12.1806757"><ele>95.66666666666667</ele><time>2026-05-01T11:49:13.23Z</time></trkpt><trkpt lat="44.0589789" lon="12.1807231"><ele>96.0</ele><time>2026-05-01T11:49:14.215Z</time></trkpt><trkpt lat="44.0591845" lon="12.1807732"><ele>94.33333333333333</ele><time>2026-05-01T11:49:15.226Z</time></trkpt><trkpt lat="44.0593957" lon="12.1808061"><ele>92.66666666666666</ele><time>2026-05-01T11:49:16.23Z</time></trkpt><trkpt lat="44.0595903" lon="12.1808611"><ele>91.0</ele><time>2026-05-01T11:49:17.218Z</time></trkpt><trkpt lat="44.0597993" lon="12.1809215"><ele>91.66666666666666</ele><time>2026-05-01T11:49:18.236Z</time></trkpt><trkpt lat="44.0600081" lon="12.1809562"><ele>92.33333333333333</ele><time>2026-05-01T11:49:19.221Z</time></trkpt><trkpt lat="44.0602116" lon="12.1810111"><ele>93.0</ele><time>2026-05-01T11:49:20.231Z</time></trkpt><trkpt lat="44.0604203" lon="12.1810714"><ele>93.0</ele><time>2026-05-01T11:49:21.215Z</time></trkpt><trkpt lat="44.0606274" lon="12.1811425"><ele>93.0</ele><time>2026-05-01T11:49:22.219Z</time></trkpt><trkpt lat="44.0608124" lon="12.1812434"><ele>93.0</ele><time>2026-05-01T11:49:23.221Z</time></trkpt><trkpt lat="44.0610055" lon="12.181322"><ele>92.66666666666667</ele><time>2026-05-01T11:49:24.214Z</time></trkpt><trkpt lat="44.0612024" lon="12.1814025"><ele>92.33333333333334</ele><time>2026-05-01T11:49:25.23Z</time></trkpt><trkpt lat="44.0614164" lon="12.181461"><ele>92.0</ele><time>2026-05-01T11:49:26.231Z</time></trkpt><trkpt lat="44.0616092" lon="12.1815584"><ele>91.0</ele><time>2026-05-01T11:49:27.221Z</time></trkpt><trkpt lat="44.0618025" lon="12.181677"><ele>90.0</ele><time>2026-05-01T11:49:28.232Z</time></trkpt><trkpt lat="44.0619958" lon="12.1817754"><ele>89.0</ele><time>2026-05-01T11:49:29.222Z</time></trkpt><trkpt lat="44.0621958" lon="12.181878"><ele>89.0</ele><time>2026-05-01T11:49:30.224Z</time></trkpt><trkpt lat="44.0623939" lon="12.1819848"><ele>89.0</ele><time>2026-05-01T11:49:31.233Z</time></trkpt><trkpt lat="44.0625711" lon="12.1820929"><ele>89.0</ele><time>2026-05-01T11:49:32.223Z</time></trkpt><trkpt lat="44.0627729" lon="12.182202"><ele>89.0</ele><time>2026-05-01T11:49:33.228Z</time></trkpt><trkpt lat="44.0629726" lon="12.1823163"><ele>89.0</ele><time>2026-05-01T11:49:34.217Z</time></trkpt><trkpt lat="44.0631772" lon="12.1824115"><ele>89.0</ele><time>2026-05-01T11:49:35.232Z</time></trkpt><trkpt lat="44.0633639" lon="12.1825073"><ele>89.33333333333334</ele><time>2026-05-01T11:49:36.216Z</time></trkpt><trkpt lat="44.0635628" lon="12.1826044"><ele>89.66666666666667</ele><time>2026-05-01T11:49:37.226Z</time></trkpt><trkpt lat="44.0637394" lon="12.1826755"><ele>90.0</ele><time>2026-05-01T11:49:38.224Z</time></trkpt><trkpt lat="44.0639071" lon="12.1827657"><ele>90.0</ele><time>2026-05-01T11:49:39.217Z</time></trkpt><trkpt lat="44.0640852" lon="12.1828469"><ele>90.0</ele><time>2026-05-01T11:49:40.229Z</time></trkpt><trkpt lat="44.0642575" lon="12.182921"><ele>90.0</ele><time>2026-05-01T11:49:41.22Z</time></trkpt><trkpt lat="44.0644339" lon="12.1829783"><ele>90.0</ele><time>2026-05-01T11:49:42.228Z</time></trkpt><trkpt lat="44.0645897" lon="12.1829899"><ele>90.0</ele><time>2026-05-01T11:49:43.231Z</time></trkpt><trkpt lat="44.0647311" lon="12.1829514"><ele>90.0</ele><time>2026-05-01T11:49:44.221Z</time></trkpt><trkpt lat="44.0648332" lon="12.182832"><ele>90.0</ele><time>2026-05-01T11:49:45.232Z</time></trkpt><trkpt lat="44.0649601" lon="12.1827141"><ele>88.33333333333333</ele><time>2026-05-01T11:49:46.23Z</time></trkpt><trkpt lat="44.0650706" lon="12.1825719"><ele>86.66666666666666</ele><time>2026-05-01T11:49:47.222Z</time></trkpt><trkpt lat="44.0652021" lon="12.1824032"><ele>85.0</ele><time>2026-05-01T11:49:48.229Z</time></trkpt><trkpt lat="44.0653243" lon="12.1822857"><ele>85.0</ele><time>2026-05-01T11:49:49.216Z</time></trkpt><trkpt lat="44.0654618" lon="12.1821658"><ele>85.0</ele><time>2026-05-01T11:49:50.233Z</time></trkpt><trkpt lat="44.0655787" lon="12.1820748"><ele>85.0</ele><time>2026-05-01T11:49:51.222Z</time></trkpt><trkpt lat="44.0656991" lon="12.1820444"><ele>85.0</ele><time>2026-05-01T11:49:52.229Z</time></trkpt><trkpt lat="44.0658143" lon="12.1820253"><ele>84.66666666666666</ele><time>2026-05-01T11:49:53.231Z</time></trkpt><trkpt lat="44.0659112" lon="12.1820828"><ele>84.33333333333333</ele><time>2026-05-01T11:49:54.243Z</time></trkpt><trkpt lat="44.0659966" lon="12.1823098"><ele>84.0</ele><time>2026-05-01T11:49:55.213Z</time></trkpt><trkpt lat="44.0660993" lon="12.182499"><ele>83.33333333333333</ele><time>2026-05-01T11:49:56.216Z</time></trkpt><trkpt lat="44.0662222" lon="12.1826962"><ele>82.66666666666666</ele><time>2026-05-01T11:49:57.22Z</time></trkpt><trkpt lat="44.0663526" lon="12.1828734"><ele>82.0</ele><time>2026-05-01T11:49:58.222Z</time></trkpt><trkpt lat="44.0664842" lon="12.1830434"><ele>84.0</ele><time>2026-05-01T11:49:59.228Z</time></trkpt><trkpt lat="44.0666259" lon="12.183193"><ele>86.0</ele><time>2026-05-01T11:50:00.213Z</time></trkpt><trkpt lat="44.0667943" lon="12.1833543"><ele>88.0</ele><time>2026-05-01T11:50:01.228Z</time></trkpt><trkpt lat="44.0669476" lon="12.1834819"><ele>88.0</ele><time>2026-05-01T11:50:02.221Z</time></trkpt><trkpt lat="44.0670978" lon="12.1835979"><ele>88.0</ele><time>2026-05-01T11:50:03.215Z</time></trkpt><trkpt lat="44.0672471" lon="12.1836978"><ele>88.0</ele><time>2026-05-01T11:50:04.218Z</time></trkpt><trkpt lat="44.0673873" lon="12.1838032"><ele>88.33333333333333</ele><time>2026-05-01T11:50:05.23Z</time></trkpt><trkpt lat="44.0675199" lon="12.1839093"><ele>88.66666666666667</ele><time>2026-05-01T11:50:06.229Z</time></trkpt><trkpt lat="44.0676498" lon="12.1840192"><ele>89.0</ele><time>2026-05-01T11:50:07.228Z</time></trkpt><trkpt lat="44.0677808" lon="12.1841192"><ele>89.0</ele><time>2026-05-01T11:50:08.223Z</time></trkpt><trkpt lat="44.0679184" lon="12.1842111"><ele>89.0</ele><time>2026-05-01T11:50:09.217Z</time></trkpt><trkpt lat="44.0680586" lon="12.1842902"><ele>89.0</ele><time>2026-05-01T11:50:10.222Z</time></trkpt><trkpt lat="44.0682066" lon="12.184333"><ele>89.0</ele><time>2026-05-01T11:50:11.218Z</time></trkpt><trkpt lat="44.068347" lon="12.1843349"><ele>89.0</ele><time>2026-05-01T11:50:12.235Z</time></trkpt><trkpt lat="44.0684933" lon="12.184308"><ele>89.0</ele><time>2026-05-01T11:50:13.231Z</time></trkpt><trkpt lat="44.0686403" lon="12.1842482"><ele>89.0</ele><time>2026-05-01T11:50:14.218Z</time></trkpt><trkpt lat="44.0688233" lon="12.1841708"><ele>89.0</ele><time>2026-05-01T11:50:15.226Z</time></trkpt><trkpt lat="44.0689812" lon="12.1841043"><ele>89.0</ele><time>2026-05-01T11:50:16.218Z</time></trkpt><trkpt lat="44.0691734" lon="12.1840304"><ele>89.0</ele><time>2026-05-01T11:50:17.23Z</time></trkpt><trkpt lat="44.0693599" lon="12.1839797"><ele>89.0</ele><time>2026-05-01T11:50:18.221Z</time></trkpt><trkpt lat="44.0695372" lon="12.1839364"><ele>89.0</ele><time>2026-05-01T11:50:19.218Z</time></trkpt><trkpt lat="44.0696998" lon="12.1839576"><ele>89.0</ele><time>2026-05-01T11:50:20.221Z</time></trkpt><trkpt lat="44.0698617" lon="12.1839886"><ele>89.66666666666667</ele><time>2026-05-01T11:50:21.215Z</time></trkpt><trkpt lat="44.0700245" lon="12.1840176"><ele>90.33333333333333</ele><time>2026-05-01T11:50:22.238Z</time></trkpt><trkpt lat="44.0701695" lon="12.1840509"><ele>91.0</ele><time>2026-05-01T11:50:23.229Z</time></trkpt><trkpt lat="44.0703494" lon="12.1840842"><ele>91.0</ele><time>2026-05-01T11:50:24.218Z</time></trkpt><trkpt lat="44.070526" lon="12.1841251"><ele>91.0</ele><time>2026-05-01T11:50:25.217Z</time></trkpt><trkpt lat="44.0707023" lon="12.1841649"><ele>91.0</ele><time>2026-05-01T11:50:26.229Z</time></trkpt><trkpt lat="44.0708695" lon="12.1842088"><ele>89.66666666666666</ele><time>2026-05-01T11:50:27.213Z</time></trkpt><trkpt lat="44.0710521" lon="12.1842494"><ele>88.33333333333333</ele><time>2026-05-01T11:50:28.226Z</time></trkpt><trkpt lat="44.0712378" lon="12.1842923"><ele>87.0</ele><time>2026-05-01T11:50:29.22Z</time></trkpt><trkpt lat="44.0714249" lon="12.184327"><ele>87.66666666666667</ele><time>2026-05-01T11:50:30.231Z</time></trkpt><trkpt lat="44.0716084" lon="12.1843682"><ele>88.33333333333334</ele><time>2026-05-01T11:50:31.227Z</time></trkpt><trkpt lat="44.071794" lon="12.1844094"><ele>89.0</ele><time>2026-05-01T11:50:32.221Z</time></trkpt><trkpt lat="44.0719645" lon="12.1844937"><ele>89.0</ele><time>2026-05-01T11:50:33.221Z</time></trkpt><trkpt lat="44.0721403" lon="12.1845548"><ele>89.0</ele><time>2026-05-01T11:50:34.22Z</time></trkpt><trkpt lat="44.072317" lon="12.1846397"><ele>89.0</ele><time>2026-05-01T11:50:35.22Z</time></trkpt><trkpt lat="44.0724945" lon="12.1847113"><ele>90.66666666666667</ele><time>2026-05-01T11:50:36.22Z</time></trkpt><trkpt lat="44.072665" lon="12.1847895"><ele>92.33333333333333</ele><time>2026-05-01T11:50:37.229Z</time></trkpt><trkpt lat="44.0728296" lon="12.1848634"><ele>94.0</ele><time>2026-05-01T11:50:38.231Z</time></trkpt><trkpt lat="44.0729856" lon="12.1849329"><ele>91.0</ele><time>2026-05-01T11:50:39.229Z</time></trkpt><trkpt lat="44.073169" lon="12.1850119"><ele>88.0</ele><time>2026-05-01T11:50:40.218Z</time></trkpt><trkpt lat="44.0733697" lon="12.1851019"><ele>85.0</ele><time>2026-05-01T11:50:41.217Z</time></trkpt><trkpt lat="44.0735628" lon="12.1851878"><ele>85.0</ele><time>2026-05-01T11:50:42.214Z</time></trkpt><trkpt lat="44.0737542" lon="12.1852791"><ele>85.0</ele><time>2026-05-01T11:50:43.226Z</time></trkpt><trkpt lat="44.0739641" lon="12.1853823"><ele>85.0</ele><time>2026-05-01T11:50:44.217Z</time></trkpt><trkpt lat="44.0741571" lon="12.1855083"><ele>85.0</ele><time>2026-05-01T11:50:45.215Z</time></trkpt><trkpt lat="44.0743584" lon="12.1856617"><ele>85.0</ele><time>2026-05-01T11:50:46.216Z</time></trkpt><trkpt lat="44.0745535" lon="12.1858207"><ele>84.5</ele><time>2026-05-01T11:50:47.222Z</time></trkpt><trkpt lat="44.0747661" lon="12.1859493"><ele>84.0</ele><time>2026-05-01T11:50:48.213Z</time></trkpt><trkpt lat="44.0749593" lon="12.1860932"><ele>84.0</ele><time>2026-05-01T11:50:49.218Z</time></trkpt><trkpt lat="44.0751589" lon="12.1862635"><ele>84.0</ele><time>2026-05-01T11:50:50.22Z</time></trkpt><trkpt lat="44.0753765" lon="12.1863961"><ele>83.0</ele><time>2026-05-01T11:50:51.221Z</time></trkpt><trkpt lat="44.0755906" lon="12.1865317"><ele>82.0</ele><time>2026-05-01T11:50:52.222Z</time></trkpt><trkpt lat="44.0758104" lon="12.1866633"><ele>80.5</ele><time>2026-05-01T11:50:53.218Z</time></trkpt><trkpt lat="44.0760236" lon="12.1868224"><ele>79.0</ele><time>2026-05-01T11:50:54.222Z</time></trkpt><trkpt lat="44.0762358" lon="12.1869712"><ele>79.0</ele><time>2026-05-01T11:50:55.217Z</time></trkpt><trkpt lat="44.0764461" lon="12.1871204"><ele>79.0</ele><time>2026-05-01T11:50:56.223Z</time></trkpt><trkpt lat="44.0766531" lon="12.1872495"><ele>77.5</ele><time>2026-05-01T11:50:57.231Z</time></trkpt><trkpt lat="44.076873" lon="12.1874094"><ele>76.0</ele><time>2026-05-01T11:50:58.214Z</time></trkpt><trkpt lat="44.0770867" lon="12.18755"><ele>76.0</ele><time>2026-05-01T11:50:59.234Z</time></trkpt><trkpt lat="44.0772985" lon="12.1877029"><ele>76.0</ele><time>2026-05-01T11:51:00.235Z</time></trkpt><trkpt lat="44.0775108" lon="12.1878539"><ele>79.0</ele><time>2026-05-01T11:51:01.236Z</time></trkpt><trkpt lat="44.077735" lon="12.1879856"><ele>82.0</ele><time>2026-05-01T11:51:02.25Z</time></trkpt><trkpt lat="44.0779498" lon="12.1881187"><ele>79.5</ele><time>2026-05-01T11:51:03.243Z</time></trkpt><trkpt lat="44.0781693" lon="12.1882569"><ele>77.0</ele><time>2026-05-01T11:51:04.23Z</time></trkpt><trkpt lat="44.0783849" lon="12.1883918"><ele>77.0</ele><time>2026-05-01T11:51:05.23Z</time></trkpt><trkpt lat="44.0786065" lon="12.1885258"><ele>77.0</ele><time>2026-05-01T11:51:06.228Z</time></trkpt><trkpt lat="44.0787991" lon="12.1886389"><ele>77.0</ele><time>2026-05-01T11:51:07.219Z</time></trkpt><trkpt lat="44.0790048" lon="12.1887712"><ele>77.0</ele><time>2026-05-01T11:51:08.23Z</time></trkpt><trkpt lat="44.0791829" lon="12.1888795"><ele>77.0</ele><time>2026-05-01T11:51:09.229Z</time></trkpt><trkpt lat="44.0793666" lon="12.1889824"><ele>76.33333333333334</ele><time>2026-05-01T11:51:10.243Z</time></trkpt><trkpt lat="44.0795596" lon="12.1890506"><ele>75.66666666666667</ele><time>2026-05-01T11:51:11.216Z</time></trkpt><trkpt lat="44.0797506" lon="12.1891149"><ele>75.0</ele><time>2026-05-01T11:51:12.223Z</time></trkpt><trkpt lat="44.0799679" lon="12.1891002"><ele>75.0</ele><time>2026-05-01T11:51:13.215Z</time></trkpt><trkpt lat="44.0801912" lon="12.1890604"><ele>75.0</ele><time>2026-05-01T11:51:14.218Z</time></trkpt><trkpt lat="44.0804258" lon="12.1890075"><ele>76.33333333333333</ele><time>2026-05-01T11:51:15.216Z</time></trkpt><trkpt lat="44.0806471" lon="12.1889505"><ele>77.66666666666666</ele><time>2026-05-01T11:51:16.229Z</time></trkpt><trkpt lat="44.0808619" lon="12.1888857"><ele>79.0</ele><time>2026-05-01T11:51:17.216Z</time></trkpt><trkpt lat="44.0810587" lon="12.1888262"><ele>79.0</ele><time>2026-05-01T11:51:18.23Z</time></trkpt><trkpt lat="44.0812313" lon="12.1887837"><ele>79.0</ele><time>2026-05-01T11:51:19.227Z</time></trkpt><trkpt lat="44.0814202" lon="12.1887479"><ele>79.0</ele><time>2026-05-01T11:51:20.221Z</time></trkpt><trkpt lat="44.0815967" lon="12.188825"><ele>76.0</ele><time>2026-05-01T11:51:21.229Z</time></trkpt><trkpt lat="44.0817662" lon="12.188874"><ele>73.0</ele><time>2026-05-01T11:51:22.231Z</time></trkpt><trkpt lat="44.0819747" lon="12.1889408"><ele>70.0</ele><time>2026-05-01T11:51:23.224Z</time></trkpt><trkpt lat="44.0821944" lon="12.1889895"><ele>70.0</ele><time>2026-05-01T11:51:24.218Z</time></trkpt><trkpt lat="44.0824158" lon="12.189001"><ele>70.0</ele><time>2026-05-01T11:51:25.231Z</time></trkpt><trkpt lat="44.0826364" lon="12.188975"><ele>70.0</ele><time>2026-05-01T11:51:26.23Z</time></trkpt><trkpt lat="44.0828185" lon="12.1889537"><ele>69.0</ele><time>2026-05-01T11:51:27.235Z</time></trkpt><trkpt lat="44.0830166" lon="12.1889544"><ele>68.0</ele><time>2026-05-01T11:51:28.213Z</time></trkpt><trkpt lat="44.0832232" lon="12.1889849"><ele>67.0</ele><time>2026-05-01T11:51:29.231Z</time></trkpt><trkpt lat="44.0834321" lon="12.1890432"><ele>69.66666666666666</ele><time>2026-05-01T11:51:30.229Z</time></trkpt><trkpt lat="44.0836297" lon="12.1891205"><ele>72.33333333333333</ele><time>2026-05-01T11:51:31.217Z</time></trkpt><trkpt lat="44.0838159" lon="12.1891812"><ele>75.0</ele><time>2026-05-01T11:51:32.222Z</time></trkpt><trkpt lat="44.0840204" lon="12.1892288"><ele>75.66666666666667</ele><time>2026-05-01T11:51:33.232Z</time></trkpt><trkpt lat="44.0842302" lon="12.1892819"><ele>76.33333333333334</ele><time>2026-05-01T11:51:34.217Z</time></trkpt><trkpt lat="44.0844341" lon="12.189347"><ele>77.0</ele><time>2026-05-01T11:51:35.231Z</time></trkpt><trkpt lat="44.0846353" lon="12.1894036"><ele>77.0</ele><time>2026-05-01T11:51:36.221Z</time></trkpt><trkpt lat="44.084836" lon="12.1894657"><ele>77.0</ele><time>2026-05-01T11:51:37.228Z</time></trkpt><trkpt lat="44.0850319" lon="12.1895409"><ele>77.0</ele><time>2026-05-01T11:51:38.221Z</time></trkpt><trkpt lat="44.0852132" lon="12.1896219"><ele>77.33333333333334</ele><time>2026-05-01T11:51:39.213Z</time></trkpt><trkpt lat="44.0853827" lon="12.189712"><ele>77.66666666666667</ele><time>2026-05-01T11:51:40.231Z</time></trkpt><trkpt lat="44.0855504" lon="12.1898293"><ele>78.0</ele><time>2026-05-01T11:51:41.213Z</time></trkpt><trkpt lat="44.085717" lon="12.189956"><ele>77.33333333333333</ele><time>2026-05-01T11:51:42.23Z</time></trkpt><trkpt lat="44.0858851" lon="12.1900811"><ele>76.66666666666666</ele><time>2026-05-01T11:51:43.233Z</time></trkpt><trkpt lat="44.0860599" lon="12.1902059"><ele>76.0</ele><time>2026-05-01T11:51:44.232Z</time></trkpt><trkpt lat="44.0862259" lon="12.19034"><ele>76.0</ele><time>2026-05-01T11:51:45.228Z</time></trkpt><trkpt lat="44.0863927" lon="12.1904772"><ele>76.0</ele><time>2026-05-01T11:51:46.216Z</time></trkpt><trkpt lat="44.0865511" lon="12.190617"><ele>76.0</ele><time>2026-05-01T11:51:47.222Z</time></trkpt><trkpt lat="44.0867001" lon="12.1907516"><ele>75.66666666666666</ele><time>2026-05-01T11:51:48.226Z</time></trkpt><trkpt lat="44.0868446" lon="12.1908922"><ele>75.33333333333333</ele><time>2026-05-01T11:51:49.217Z</time></trkpt><trkpt lat="44.0869877" lon="12.1910249"><ele>75.0</ele><time>2026-05-01T11:51:50.222Z</time></trkpt><trkpt lat="44.087137" lon="12.1911785"><ele>75.0</ele><time>2026-05-01T11:51:51.226Z</time></trkpt><trkpt lat="44.0872793" lon="12.191291"><ele>75.0</ele><time>2026-05-01T11:51:52.216Z</time></trkpt><trkpt lat="44.0874236" lon="12.1914148"><ele>75.0</ele><time>2026-05-01T11:51:53.231Z</time></trkpt><trkpt lat="44.0875641" lon="12.1915178"><ele>74.33333333333333</ele><time>2026-05-01T11:51:54.23Z</time></trkpt><trkpt lat="44.0877023" lon="12.1916196"><ele>73.66666666666666</ele><time>2026-05-01T11:51:55.23Z</time></trkpt><trkpt lat="44.0878433" lon="12.1917203"><ele>73.0</ele><time>2026-05-01T11:51:56.221Z</time></trkpt><trkpt lat="44.0879833" lon="12.1918186"><ele>73.0</ele><time>2026-05-01T11:51:57.231Z</time></trkpt><trkpt lat="44.0881226" lon="12.1919054"><ele>73.0</ele><time>2026-05-01T11:51:58.22Z</time></trkpt><trkpt lat="44.0882736" lon="12.1919868"><ele>73.0</ele><time>2026-05-01T11:51:59.231Z</time></trkpt><trkpt lat="44.0884222" lon="12.1920509"><ele>73.66666666666666</ele><time>2026-05-01T11:52:00.213Z</time></trkpt><trkpt lat="44.0885759" lon="12.1921045"><ele>74.33333333333333</ele><time>2026-05-01T11:52:01.23Z</time></trkpt><trkpt lat="44.0887311" lon="12.1921663"><ele>75.0</ele><time>2026-05-01T11:52:02.23Z</time></trkpt><trkpt lat="44.0888821" lon="12.1922255"><ele>75.0</ele><time>2026-05-01T11:52:03.218Z</time></trkpt><trkpt lat="44.0890394" lon="12.1922791"><ele>75.0</ele><time>2026-05-01T11:52:04.231Z</time></trkpt><trkpt lat="44.0892024" lon="12.1923274"><ele>75.0</ele><time>2026-05-01T11:52:05.213Z</time></trkpt><trkpt lat="44.08935" lon="12.192366"><ele>74.0</ele><time>2026-05-01T11:52:06.223Z</time></trkpt><trkpt lat="44.0895131" lon="12.1923916"><ele>73.0</ele><time>2026-05-01T11:52:07.218Z</time></trkpt><trkpt lat="44.0896788" lon="12.1924016"><ele>72.0</ele><time>2026-05-01T11:52:08.214Z</time></trkpt><trkpt lat="44.0898489" lon="12.1923891"><ele>72.0</ele><time>2026-05-01T11:52:09.232Z</time></trkpt><trkpt lat="44.0900133" lon="12.1923753"><ele>72.0</ele><time>2026-05-01T11:52:10.228Z</time></trkpt><trkpt lat="44.0901899" lon="12.1923527"><ele>72.0</ele><time>2026-05-01T11:52:11.231Z</time></trkpt><trkpt lat="44.0903627" lon="12.192329"><ele>72.0</ele><time>2026-05-01T11:52:12.23Z</time></trkpt><trkpt lat="44.090557" lon="12.1923203"><ele>72.0</ele><time>2026-05-01T11:52:13.223Z</time></trkpt><trkpt lat="44.0907385" lon="12.1922902"><ele>72.0</ele><time>2026-05-01T11:52:14.23Z</time></trkpt><trkpt lat="44.090954" lon="12.1922213"><ele>70.66666666666667</ele><time>2026-05-01T11:52:15.219Z</time></trkpt><trkpt lat="44.0911334" lon="12.1922609"><ele>69.33333333333334</ele><time>2026-05-01T11:52:16.223Z</time></trkpt><trkpt lat="44.0913041" lon="12.1923256"><ele>68.0</ele><time>2026-05-01T11:52:17.23Z</time></trkpt><trkpt lat="44.0914903" lon="12.1924026"><ele>69.0</ele><time>2026-05-01T11:52:18.232Z</time></trkpt><trkpt lat="44.0916898" lon="12.1924729"><ele>70.0</ele><time>2026-05-01T11:52:19.221Z</time></trkpt><trkpt lat="44.0918753" lon="12.1925848"><ele>71.0</ele><time>2026-05-01T11:52:20.223Z</time></trkpt><trkpt lat="44.0920695" lon="12.1926815"><ele>71.0</ele><time>2026-05-01T11:52:21.23Z</time></trkpt><trkpt lat="44.0922543" lon="12.1927909"><ele>71.0</ele><time>2026-05-01T11:52:22.231Z</time></trkpt><trkpt lat="44.0924477" lon="12.192899"><ele>71.0</ele><time>2026-05-01T11:52:23.23Z</time></trkpt><trkpt lat="44.0926388" lon="12.1930215"><ele>71.66666666666667</ele><time>2026-05-01T11:52:24.218Z</time></trkpt><trkpt lat="44.0928307" lon="12.1931296"><ele>72.33333333333333</ele><time>2026-05-01T11:52:25.223Z</time></trkpt><trkpt lat="44.0930339" lon="12.1932452"><ele>73.0</ele><time>2026-05-01T11:52:26.229Z</time></trkpt><trkpt lat="44.0932401" lon="12.1933628"><ele>70.5</ele><time>2026-05-01T11:52:27.221Z</time></trkpt><trkpt lat="44.0934454" lon="12.1934887"><ele>68.0</ele><time>2026-05-01T11:52:28.222Z</time></trkpt><trkpt lat="44.0936521" lon="12.1936176"><ele>68.0</ele><time>2026-05-01T11:52:29.222Z</time></trkpt><trkpt lat="44.0938559" lon="12.1937396"><ele>68.0</ele><time>2026-05-01T11:52:30.23Z</time></trkpt><trkpt lat="44.0940616" lon="12.1938611"><ele>68.0</ele><time>2026-05-01T11:52:31.222Z</time></trkpt><trkpt lat="44.0942528" lon="12.1939948"><ele>68.0</ele><time>2026-05-01T11:52:32.231Z</time></trkpt><trkpt lat="44.0944432" lon="12.194145"><ele>68.0</ele><time>2026-05-01T11:52:33.224Z</time></trkpt><trkpt lat="44.0946216" lon="12.1943584"><ele>68.0</ele><time>2026-05-01T11:52:34.224Z</time></trkpt><trkpt lat="44.0948063" lon="12.1945474"><ele>68.0</ele><time>2026-05-01T11:52:35.232Z</time></trkpt><trkpt lat="44.0949721" lon="12.1947626"><ele>67.0</ele><time>2026-05-01T11:52:36.231Z</time></trkpt><trkpt lat="44.0951395" lon="12.1949735"><ele>66.0</ele><time>2026-05-01T11:52:37.234Z</time></trkpt><trkpt lat="44.0952825" lon="12.1951825"><ele>65.0</ele><time>2026-05-01T11:52:38.23Z</time></trkpt><trkpt lat="44.0954262" lon="12.1953995"><ele>65.0</ele><time>2026-05-01T11:52:39.218Z</time></trkpt><trkpt lat="44.0955636" lon="12.1956279"><ele>65.0</ele><time>2026-05-01T11:52:40.215Z</time></trkpt><trkpt lat="44.0957088" lon="12.1958477"><ele>65.0</ele><time>2026-05-01T11:52:41.231Z</time></trkpt><trkpt lat="44.0958624" lon="12.1960595"><ele>63.5</ele><time>2026-05-01T11:52:42.219Z</time></trkpt><trkpt lat="44.0960423" lon="12.1962428"><ele>62.0</ele><time>2026-05-01T11:52:43.221Z</time></trkpt><trkpt lat="44.0962337" lon="12.1964193"><ele>61.66666666666667</ele><time>2026-05-01T11:52:44.231Z</time></trkpt><trkpt lat="44.0964163" lon="12.1965868"><ele>61.33333333333333</ele><time>2026-05-01T11:52:45.231Z</time></trkpt><trkpt lat="44.0966141" lon="12.1967304"><ele>61.0</ele><time>2026-05-01T11:52:46.23Z</time></trkpt><trkpt lat="44.0968158" lon="12.1968667"><ele>61.0</ele><time>2026-05-01T11:52:47.233Z</time></trkpt><trkpt lat="44.0970193" lon="12.1969956"><ele>61.0</ele><time>2026-05-01T11:52:48.221Z</time></trkpt><trkpt lat="44.0972309" lon="12.1971286"><ele>61.5</ele><time>2026-05-01T11:52:49.223Z</time></trkpt><trkpt lat="44.097452" lon="12.1972445"><ele>62.0</ele><time>2026-05-01T11:52:50.221Z</time></trkpt><trkpt lat="44.0976739" lon="12.1973573"><ele>62.0</ele><time>2026-05-01T11:52:51.216Z</time></trkpt><trkpt lat="44.0979073" lon="12.1974525"><ele>62.0</ele><time>2026-05-01T11:52:52.222Z</time></trkpt><trkpt lat="44.0981254" lon="12.1975361"><ele>61.0</ele><time>2026-05-01T11:52:53.215Z</time></trkpt><trkpt lat="44.0983562" lon="12.1975962"><ele>60.0</ele><time>2026-05-01T11:52:54.228Z</time></trkpt><trkpt lat="44.0985771" lon="12.1976592"><ele>60.0</ele><time>2026-05-01T11:52:55.222Z</time></trkpt><trkpt lat="44.098762" lon="12.1976796"><ele>60.0</ele><time>2026-05-01T11:52:56.231Z</time></trkpt><trkpt lat="44.0989552" lon="12.1976883"><ele>60.0</ele><time>2026-05-01T11:52:57.232Z</time></trkpt><trkpt lat="44.099136" lon="12.1976947"><ele>60.33333333333333</ele><time>2026-05-01T11:52:58.214Z</time></trkpt><trkpt lat="44.099311" lon="12.1976952"><ele>60.666666666666664</ele><time>2026-05-01T11:52:59.221Z</time></trkpt><trkpt lat="44.0994881" lon="12.1976804"><ele>61.0</ele><time>2026-05-01T11:53:00.232Z</time></trkpt><trkpt lat="44.0996745" lon="12.1976748"><ele>61.0</ele><time>2026-05-01T11:53:01.217Z</time></trkpt><trkpt lat="44.0998655" lon="12.1976618"><ele>61.0</ele><time>2026-05-01T11:53:02.226Z</time></trkpt><trkpt lat="44.1000458" lon="12.1976552"><ele>61.0</ele><time>2026-05-01T11:53:03.231Z</time></trkpt><trkpt lat="44.1002511" lon="12.1976529"><ele>61.0</ele><time>2026-05-01T11:53:04.221Z</time></trkpt><trkpt lat="44.1004408" lon="12.1976578"><ele>61.0</ele><time>2026-05-01T11:53:05.227Z</time></trkpt><trkpt lat="44.1006331" lon="12.1976763"><ele>61.0</ele><time>2026-05-01T11:53:06.23Z</time></trkpt><trkpt lat="44.1008061" lon="12.1976763"><ele>61.666666666666664</ele><time>2026-05-01T11:53:07.218Z</time></trkpt><trkpt lat="44.1009736" lon="12.1976758"><ele>62.33333333333333</ele><time>2026-05-01T11:53:08.225Z</time></trkpt><trkpt lat="44.1011536" lon="12.1976472"><ele>63.0</ele><time>2026-05-01T11:53:09.218Z</time></trkpt><trkpt lat="44.101306" lon="12.1976108"><ele>63.0</ele><time>2026-05-01T11:53:10.229Z</time></trkpt><trkpt lat="44.1014518" lon="12.1975519"><ele>63.0</ele><time>2026-05-01T11:53:11.217Z</time></trkpt><trkpt lat="44.1016184" lon="12.1973879"><ele>63.0</ele><time>2026-05-01T11:53:12.215Z</time></trkpt><trkpt lat="44.101758" lon="12.1972317"><ele>62.33333333333333</ele><time>2026-05-01T11:53:13.218Z</time></trkpt><trkpt lat="44.101923" lon="12.1970349"><ele>61.666666666666664</ele><time>2026-05-01T11:53:14.224Z</time></trkpt><trkpt lat="44.1020891" lon="12.1968645"><ele>61.0</ele><time>2026-05-01T11:53:15.231Z</time></trkpt><trkpt lat="44.1022694" lon="12.1967132"><ele>60.33333333333333</ele><time>2026-05-01T11:53:16.221Z</time></trkpt><trkpt lat="44.1024526" lon="12.1965864"><ele>59.66666666666667</ele><time>2026-05-01T11:53:17.231Z</time></trkpt><trkpt lat="44.1026666" lon="12.1964955"><ele>59.0</ele><time>2026-05-01T11:53:18.222Z</time></trkpt><trkpt lat="44.1028938" lon="12.1964484"><ele>59.0</ele><time>2026-05-01T11:53:19.228Z</time></trkpt><trkpt lat="44.1031124" lon="12.1963966"><ele>59.0</ele><time>2026-05-01T11:53:20.23Z</time></trkpt><trkpt lat="44.1033123" lon="12.1963663"><ele>59.0</ele><time>2026-05-01T11:53:21.231Z</time></trkpt><trkpt lat="44.1035185" lon="12.1963226"><ele>59.66666666666667</ele><time>2026-05-01T11:53:22.233Z</time></trkpt><trkpt lat="44.1037169" lon="12.1962875"><ele>60.33333333333333</ele><time>2026-05-01T11:53:23.215Z</time></trkpt><trkpt lat="44.1039263" lon="12.1962615"><ele>61.0</ele><time>2026-05-01T11:53:24.23Z</time></trkpt><trkpt lat="44.1041012" lon="12.1962681"><ele>61.0</ele><time>2026-05-01T11:53:25.219Z</time></trkpt><trkpt lat="44.1042755" lon="12.1962658"><ele>61.0</ele><time>2026-05-01T11:53:26.23Z</time></trkpt><trkpt lat="44.1044588" lon="12.1962755"><ele>61.0</ele><time>2026-05-01T11:53:27.234Z</time></trkpt><trkpt lat="44.1046363" lon="12.1962898"><ele>61.0</ele><time>2026-05-01T11:53:28.228Z</time></trkpt><trkpt lat="44.104822" lon="12.1962827"><ele>61.0</ele><time>2026-05-01T11:53:29.221Z</time></trkpt><trkpt lat="44.1049981" lon="12.1962843"><ele>61.0</ele><time>2026-05-01T11:53:30.215Z</time></trkpt><trkpt lat="44.1051454" lon="12.1962866"><ele>61.0</ele><time>2026-05-01T11:53:31.219Z</time></trkpt><trkpt lat="44.1053137" lon="12.1962873"><ele>61.0</ele><time>2026-05-01T11:53:32.213Z</time></trkpt><trkpt lat="44.1054376" lon="12.196299"><ele>61.0</ele><time>2026-05-01T11:53:33.256Z</time></trkpt><trkpt lat="44.1055517" lon="12.1963082"><ele>61.0</ele><time>2026-05-01T11:53:34.231Z</time></trkpt><trkpt lat="44.1056701" lon="12.1963219"><ele>60.666666666666664</ele><time>2026-05-01T11:53:35.217Z</time></trkpt><trkpt lat="44.105749" lon="12.1963312"><ele>60.33333333333333</ele><time>2026-05-01T11:53:36.221Z</time></trkpt><trkpt lat="44.1058202" lon="12.1963268"><ele>60.0</ele><time>2026-05-01T11:53:37.23Z</time></trkpt><trkpt lat="44.1059031" lon="12.1963282"><ele>59.66666666666667</ele><time>2026-05-01T11:53:38.229Z</time></trkpt><trkpt lat="44.1060151" lon="12.1963334"><ele>59.333333333333336</ele><time>2026-05-01T11:53:39.229Z</time></trkpt><trkpt lat="44.106107" lon="12.1963858"><ele>59.0</ele><time>2026-05-01T11:53:40.221Z</time></trkpt><trkpt lat="44.1062171" lon="12.1964711"><ele>59.0</ele><time>2026-05-01T11:53:41.229Z</time></trkpt><trkpt lat="44.1063315" lon="12.1965952"><ele>59.0</ele><time>2026-05-01T11:53:42.229Z</time></trkpt><trkpt lat="44.1064529" lon="12.1967562"><ele>59.0</ele><time>2026-05-01T11:53:43.218Z</time></trkpt><trkpt lat="44.1065718" lon="12.1969213"><ele>59.0</ele><time>2026-05-01T11:53:44.225Z</time></trkpt><trkpt lat="44.1066956" lon="12.1970664"><ele>59.0</ele><time>2026-05-01T11:53:45.217Z</time></trkpt><trkpt lat="44.1068196" lon="12.1972361"><ele>59.0</ele><time>2026-05-01T11:53:46.23Z</time></trkpt><trkpt lat="44.1069365" lon="12.1973994"><ele>59.0</ele><time>2026-05-01T11:53:47.221Z</time></trkpt><trkpt lat="44.1070653" lon="12.1975743"><ele>59.0</ele><time>2026-05-01T11:53:48.236Z</time></trkpt><trkpt lat="44.1071988" lon="12.1977577"><ele>59.0</ele><time>2026-05-01T11:53:49.214Z</time></trkpt><trkpt lat="44.1073291" lon="12.1979399"><ele>58.333333333333336</ele><time>2026-05-01T11:53:50.218Z</time></trkpt><trkpt lat="44.1074568" lon="12.1981236"><ele>57.66666666666667</ele><time>2026-05-01T11:53:51.217Z</time></trkpt><trkpt lat="44.1075863" lon="12.1983049"><ele>57.0</ele><time>2026-05-01T11:53:52.229Z</time></trkpt><trkpt lat="44.1077161" lon="12.1984994"><ele>57.0</ele><time>2026-05-01T11:53:53.221Z</time></trkpt><trkpt lat="44.1078472" lon="12.1986907"><ele>57.0</ele><time>2026-05-01T11:53:54.219Z</time></trkpt><trkpt lat="44.107978" lon="12.1988776"><ele>57.0</ele><time>2026-05-01T11:53:55.222Z</time></trkpt><trkpt lat="44.1080966" lon="12.1990363"><ele>57.0</ele><time>2026-05-01T11:53:56.226Z</time></trkpt><trkpt lat="44.1082149" lon="12.1991832"><ele>57.0</ele><time>2026-05-01T11:53:57.22Z</time></trkpt><trkpt lat="44.1083199" lon="12.1993261"><ele>57.0</ele><time>2026-05-01T11:53:58.217Z</time></trkpt><trkpt lat="44.1084179" lon="12.199453"><ele>57.0</ele><time>2026-05-01T11:53:59.228Z</time></trkpt><trkpt lat="44.1085059" lon="12.1995705"><ele>57.0</ele><time>2026-05-01T11:54:00.221Z</time></trkpt><trkpt lat="44.108592" lon="12.199692"><ele>57.0</ele><time>2026-05-01T11:54:01.249Z</time></trkpt><trkpt lat="44.1086669" lon="12.1997923"><ele>57.0</ele><time>2026-05-01T11:54:02.228Z</time></trkpt><trkpt lat="44.1087174" lon="12.1998744"><ele>57.0</ele><time>2026-05-01T11:54:03.218Z</time></trkpt><trkpt lat="44.1087622" lon="12.2000175"><ele>57.0</ele><time>2026-05-01T11:54:05.228Z</time></trkpt><trkpt lat="44.1088316" lon="12.2001052"><ele>57.0</ele><time>2026-05-01T11:54:07.232Z</time></trkpt><trkpt lat="44.1089133" lon="12.2001541"><ele>57.0</ele><time>2026-05-01T11:54:08.236Z</time></trkpt><trkpt lat="44.1089872" lon="12.200235"><ele>57.0</ele><time>2026-05-01T11:54:09.234Z</time></trkpt><trkpt lat="44.1090534" lon="12.2002963"><ele>57.0</ele><time>2026-05-01T11:54:10.229Z</time></trkpt><trkpt lat="44.1091277" lon="12.2004092"><ele>57.0</ele><time>2026-05-01T11:54:11.22Z</time></trkpt><trkpt lat="44.1091831" lon="12.2005063"><ele>57.0</ele><time>2026-05-01T11:54:12.218Z</time></trkpt><trkpt lat="44.1092497" lon="12.2006124"><ele>57.0</ele><time>2026-05-01T11:54:13.222Z</time></trkpt><trkpt lat="44.1093326" lon="12.2007094"><ele>57.0</ele><time>2026-05-01T11:54:14.215Z</time></trkpt><trkpt lat="44.10941" lon="12.2008142"><ele>57.0</ele><time>2026-05-01T11:54:15.229Z</time></trkpt><trkpt lat="44.1094857" lon="12.200911"><ele>57.0</ele><time>2026-05-01T11:54:16.225Z</time></trkpt><trkpt lat="44.1095564" lon="12.2009998"><ele>57.0</ele><time>2026-05-01T11:54:17.226Z</time></trkpt><trkpt lat="44.1096357" lon="12.2011024"><ele>57.0</ele><time>2026-05-01T11:54:18.215Z</time></trkpt><trkpt lat="44.1097251" lon="12.2012091"><ele>57.0</ele><time>2026-05-01T11:54:19.215Z</time></trkpt><trkpt lat="44.1097995" lon="12.2013107"><ele>57.0</ele><time>2026-05-01T11:54:20.229Z</time></trkpt><trkpt lat="44.1098805" lon="12.2014133"><ele>57.0</ele><time>2026-05-01T11:54:21.217Z</time></trkpt><trkpt lat="44.1099511" lon="12.2015117"><ele>56.6</ele><time>2026-05-01T11:54:22.224Z</time></trkpt><trkpt lat="44.1100266" lon="12.201609"><ele>56.2</ele><time>2026-05-01T11:54:23.217Z</time></trkpt><trkpt lat="44.1100917" lon="12.2017019"><ele>55.8</ele><time>2026-05-01T11:54:24.221Z</time></trkpt><trkpt lat="44.1101657" lon="12.2018037"><ele>55.4</ele><time>2026-05-01T11:54:25.214Z</time></trkpt><trkpt lat="44.1102419" lon="12.2019004"><ele>55.0</ele><time>2026-05-01T11:54:26.223Z</time></trkpt><trkpt lat="44.1103163" lon="12.2019928"><ele>54.99999999999999</ele><time>2026-05-01T11:54:27.23Z</time></trkpt><trkpt lat="44.1103829" lon="12.202077"><ele>55.0</ele><time>2026-05-01T11:54:28.214Z</time></trkpt><trkpt lat="44.1104389" lon="12.2021646"><ele>55.0</ele><time>2026-05-01T11:54:29.223Z</time></trkpt><trkpt lat="44.1104873" lon="12.2022601"><ele>55.0</ele><time>2026-05-01T11:54:30.216Z</time></trkpt><trkpt lat="44.1105183" lon="12.2023717"><ele>54.99999999999999</ele><time>2026-05-01T11:54:31.226Z</time></trkpt><trkpt lat="44.110536" lon="12.2024972"><ele>55.0</ele><time>2026-05-01T11:54:32.223Z</time></trkpt><trkpt lat="44.1105386" lon="12.2025981"><ele>54.83333333333333</ele><time>2026-05-01T11:54:33.216Z</time></trkpt><trkpt lat="44.1105617" lon="12.2027045"><ele>54.666666666666664</ele><time>2026-05-01T11:54:34.22Z</time></trkpt><trkpt lat="44.1106182" lon="12.2027914"><ele>54.5</ele><time>2026-05-01T11:54:35.231Z</time></trkpt><trkpt lat="44.1106833" lon="12.202845"><ele>54.33333333333333</ele><time>2026-05-01T11:54:36.214Z</time></trkpt><trkpt lat="44.1107579" lon="12.2028641"><ele>54.166666666666664</ele><time>2026-05-01T11:54:37.238Z</time></trkpt><trkpt lat="44.1108333" lon="12.2028745"><ele>54.0</ele><time>2026-05-01T11:54:38.231Z</time></trkpt><trkpt lat="44.1109836" lon="12.2027592"><ele>54.333333333333336</ele><time>2026-05-01T11:54:40.229Z</time></trkpt><trkpt lat="44.1110526" lon="12.2026841"><ele>54.66666666666667</ele><time>2026-05-01T11:54:41.22Z</time></trkpt><trkpt lat="44.1111285" lon="12.202641"><ele>55.0</ele><time>2026-05-01T11:54:42.223Z</time></trkpt><trkpt lat="44.111211" lon="12.2026302"><ele>55.333333333333336</ele><time>2026-05-01T11:54:43.217Z</time></trkpt><trkpt lat="44.1113028" lon="12.2026578"><ele>55.66666666666667</ele><time>2026-05-01T11:54:44.221Z</time></trkpt><trkpt lat="44.1113915" lon="12.2026768"><ele>56.0</ele><time>2026-05-01T11:54:45.229Z</time></trkpt><trkpt lat="44.1114775" lon="12.20273"><ele>56.00000000000001</ele><time>2026-05-01T11:54:46.217Z</time></trkpt><trkpt lat="44.1115632" lon="12.2027787"><ele>56.0</ele><time>2026-05-01T11:54:47.222Z</time></trkpt><trkpt lat="44.1116368" lon="12.2028173"><ele>56.0</ele><time>2026-05-01T11:54:48.229Z</time></trkpt><trkpt lat="44.1117128" lon="12.2028595"><ele>56.0</ele><time>2026-05-01T11:54:49.217Z</time></trkpt><trkpt lat="44.1117868" lon="12.2029168"><ele>56.00000000000001</ele><time>2026-05-01T11:54:50.228Z</time></trkpt><trkpt lat="44.1118653" lon="12.2029735"><ele>56.0</ele><time>2026-05-01T11:54:51.233Z</time></trkpt><trkpt lat="44.1119467" lon="12.2030401"><ele>55.66666666666667</ele><time>2026-05-01T11:54:52.216Z</time></trkpt><trkpt lat="44.112016" lon="12.2030997"><ele>55.333333333333336</ele><time>2026-05-01T11:54:53.229Z</time></trkpt><trkpt lat="44.1120767" lon="12.2031745"><ele>55.0</ele><time>2026-05-01T11:54:54.22Z</time></trkpt><trkpt lat="44.1121468" lon="12.2032407"><ele>54.66666666666667</ele><time>2026-05-01T11:54:55.22Z</time></trkpt><trkpt lat="44.1122138" lon="12.2033077"><ele>54.333333333333336</ele><time>2026-05-01T11:54:56.215Z</time></trkpt><trkpt lat="44.1122888" lon="12.2033877"><ele>54.0</ele><time>2026-05-01T11:54:57.217Z</time></trkpt><trkpt lat="44.1123665" lon="12.2034661"><ele>54.2</ele><time>2026-05-01T11:54:58.229Z</time></trkpt><trkpt lat="44.1124397" lon="12.2035441"><ele>54.400000000000006</ele><time>2026-05-01T11:54:59.227Z</time></trkpt><trkpt lat="44.1125238" lon="12.2036065"><ele>54.6</ele><time>2026-05-01T11:55:00.224Z</time></trkpt><trkpt lat="44.1126153" lon="12.2037021"><ele>54.8</ele><time>2026-05-01T11:55:01.221Z</time></trkpt><trkpt lat="44.1127129" lon="12.2038034"><ele>55.0</ele><time>2026-05-01T11:55:02.219Z</time></trkpt><trkpt lat="44.1128019" lon="12.2038891"><ele>55.0</ele><time>2026-05-01T11:55:03.228Z</time></trkpt><trkpt lat="44.1128796" lon="12.2039798"><ele>55.0</ele><time>2026-05-01T11:55:04.22Z</time></trkpt><trkpt lat="44.1129654" lon="12.2040611"><ele>55.0</ele><time>2026-05-01T11:55:05.217Z</time></trkpt><trkpt lat="44.1130423" lon="12.2041303"><ele>55.0</ele><time>2026-05-01T11:55:06.221Z</time></trkpt><trkpt lat="44.1131287" lon="12.204214"><ele>55.0</ele><time>2026-05-01T11:55:07.216Z</time></trkpt><trkpt lat="44.1132025" lon="12.2042963"><ele>54.33333333333333</ele><time>2026-05-01T11:55:08.233Z</time></trkpt><trkpt lat="44.1132765" lon="12.2043793"><ele>53.666666666666664</ele><time>2026-05-01T11:55:09.22Z</time></trkpt><trkpt lat="44.1133471" lon="12.2044466"><ele>53.0</ele><time>2026-05-01T11:55:10.23Z</time></trkpt><trkpt lat="44.1134168" lon="12.2045162"><ele>52.33333333333333</ele><time>2026-05-01T11:55:11.218Z</time></trkpt><trkpt lat="44.113494" lon="12.204583"><ele>51.666666666666664</ele><time>2026-05-01T11:55:12.233Z</time></trkpt><trkpt lat="44.1135668" lon="12.2046404"><ele>51.0</ele><time>2026-05-01T11:55:13.218Z</time></trkpt><trkpt lat="44.1136252" lon="12.2046825"><ele>51.0</ele><time>2026-05-01T11:55:14.229Z</time></trkpt><trkpt lat="44.1136907" lon="12.2047314"><ele>51.0</ele><time>2026-05-01T11:55:15.232Z</time></trkpt><trkpt lat="44.113771" lon="12.2047836"><ele>51.0</ele><time>2026-05-01T11:55:16.232Z</time></trkpt><trkpt lat="44.1138415" lon="12.2048668"><ele>51.0</ele><time>2026-05-01T11:55:17.234Z</time></trkpt><trkpt lat="44.1139214" lon="12.2049704"><ele>51.0</ele><time>2026-05-01T11:55:18.229Z</time></trkpt><trkpt lat="44.1139965" lon="12.2050694"><ele>50.8</ele><time>2026-05-01T11:55:19.217Z</time></trkpt><trkpt lat="44.1140722" lon="12.2051838"><ele>50.599999999999994</ele><time>2026-05-01T11:55:20.213Z</time></trkpt><trkpt lat="44.1141399" lon="12.2053063"><ele>50.4</ele><time>2026-05-01T11:55:21.212Z</time></trkpt><trkpt lat="44.1142081" lon="12.2054258"><ele>50.2</ele><time>2026-05-01T11:55:22.225Z</time></trkpt><trkpt lat="44.1142762" lon="12.2055324"><ele>50.0</ele><time>2026-05-01T11:55:23.221Z</time></trkpt><trkpt lat="44.1143419" lon="12.2056385"><ele>50.2</ele><time>2026-05-01T11:55:24.22Z</time></trkpt><trkpt lat="44.1144105" lon="12.2057373"><ele>50.4</ele><time>2026-05-01T11:55:25.232Z</time></trkpt><trkpt lat="44.1144927" lon="12.2058319"><ele>50.599999999999994</ele><time>2026-05-01T11:55:26.218Z</time></trkpt><trkpt lat="44.1145717" lon="12.2059205"><ele>50.8</ele><time>2026-05-01T11:55:27.232Z</time></trkpt><trkpt lat="44.1146559" lon="12.2059999"><ele>51.0</ele><time>2026-05-01T11:55:28.221Z</time></trkpt><trkpt lat="44.1147336" lon="12.2060688"><ele>51.0</ele><time>2026-05-01T11:55:29.231Z</time></trkpt><trkpt lat="44.1148069" lon="12.2061404"><ele>51.0</ele><time>2026-05-01T11:55:30.222Z</time></trkpt><trkpt lat="44.1148846" lon="12.2062224"><ele>51.0</ele><time>2026-05-01T11:55:31.223Z</time></trkpt><trkpt lat="44.1149652" lon="12.2063008"><ele>51.0</ele><time>2026-05-01T11:55:32.233Z</time></trkpt><trkpt lat="44.1150423" lon="12.2063818"><ele>51.0</ele><time>2026-05-01T11:55:33.236Z</time></trkpt><trkpt lat="44.1151217" lon="12.2064501"><ele>50.666666666666664</ele><time>2026-05-01T11:55:34.221Z</time></trkpt><trkpt lat="44.1152025" lon="12.2065103"><ele>50.33333333333333</ele><time>2026-05-01T11:55:35.233Z</time></trkpt><trkpt lat="44.1152795" lon="12.2065695"><ele>50.0</ele><time>2026-05-01T11:55:36.218Z</time></trkpt><trkpt lat="44.1153498" lon="12.2066121"><ele>49.666666666666664</ele><time>2026-05-01T11:55:37.229Z</time></trkpt><trkpt lat="44.1154241" lon="12.2066631"><ele>49.33333333333333</ele><time>2026-05-01T11:55:38.23Z</time></trkpt><trkpt lat="44.115501" lon="12.206714"><ele>49.0</ele><time>2026-05-01T11:55:39.222Z</time></trkpt><trkpt lat="44.1155759" lon="12.2067617"><ele>48.99999999999999</ele><time>2026-05-01T11:55:40.223Z</time></trkpt><trkpt lat="44.1156554" lon="12.2068071"><ele>49.0</ele><time>2026-05-01T11:55:41.22Z</time></trkpt><trkpt lat="44.1157393" lon="12.2068546"><ele>49.0</ele><time>2026-05-01T11:55:42.232Z</time></trkpt><trkpt lat="44.115825" lon="12.2068988"><ele>49.0</ele><time>2026-05-01T11:55:43.222Z</time></trkpt><trkpt lat="44.1159082" lon="12.2069528"><ele>48.99999999999999</ele><time>2026-05-01T11:55:44.233Z</time></trkpt><trkpt lat="44.115992" lon="12.206997"><ele>49.0</ele><time>2026-05-01T11:55:45.227Z</time></trkpt><trkpt lat="44.1160814" lon="12.2070514"><ele>49.2</ele><time>2026-05-01T11:55:46.23Z</time></trkpt><trkpt lat="44.1161664" lon="12.2070934"><ele>49.400000000000006</ele><time>2026-05-01T11:55:47.229Z</time></trkpt><trkpt lat="44.1162526" lon="12.2071366"><ele>49.6</ele><time>2026-05-01T11:55:48.215Z</time></trkpt><trkpt lat="44.116338" lon="12.207179"><ele>49.8</ele><time>2026-05-01T11:55:49.227Z</time></trkpt><trkpt lat="44.1164291" lon="12.2072255"><ele>50.0</ele><time>2026-05-01T11:55:50.229Z</time></trkpt><trkpt lat="44.116533" lon="12.2072793"><ele>49.8</ele><time>2026-05-01T11:55:51.222Z</time></trkpt><trkpt lat="44.1166323" lon="12.2073328"><ele>49.6</ele><time>2026-05-01T11:55:52.22Z</time></trkpt><trkpt lat="44.1167356" lon="12.2073865"><ele>49.400000000000006</ele><time>2026-05-01T11:55:53.221Z</time></trkpt><trkpt lat="44.1168347" lon="12.2074296"><ele>49.2</ele><time>2026-05-01T11:55:54.213Z</time></trkpt><trkpt lat="44.1169285" lon="12.2074726"><ele>49.0</ele><time>2026-05-01T11:55:55.221Z</time></trkpt><trkpt lat="44.1170209" lon="12.2075099"><ele>48.99999999999999</ele><time>2026-05-01T11:55:56.222Z</time></trkpt><trkpt lat="44.1171066" lon="12.2075406"><ele>49.0</ele><time>2026-05-01T11:55:57.228Z</time></trkpt><trkpt lat="44.1172036" lon="12.2075781"><ele>49.0</ele><time>2026-05-01T11:55:58.221Z</time></trkpt><trkpt lat="44.1172822" lon="12.2076148"><ele>49.0</ele><time>2026-05-01T11:55:59.228Z</time></trkpt><trkpt lat="44.1173667" lon="12.2076436"><ele>48.99999999999999</ele><time>2026-05-01T11:56:00.231Z</time></trkpt><trkpt lat="44.1174531" lon="12.2076733"><ele>49.0</ele><time>2026-05-01T11:56:01.23Z</time></trkpt><trkpt lat="44.1175431" lon="12.2076987"><ele>49.2</ele><time>2026-05-01T11:56:02.224Z</time></trkpt><trkpt lat="44.1176392" lon="12.2077238"><ele>49.400000000000006</ele><time>2026-05-01T11:56:03.235Z</time></trkpt><trkpt lat="44.1177278" lon="12.2077415"><ele>49.6</ele><time>2026-05-01T11:56:04.215Z</time></trkpt><trkpt lat="44.1178305" lon="12.2077521"><ele>49.8</ele><time>2026-05-01T11:56:05.224Z</time></trkpt><trkpt lat="44.1179288" lon="12.2077684"><ele>50.0</ele><time>2026-05-01T11:56:06.231Z</time></trkpt><trkpt lat="44.1180195" lon="12.2077817"><ele>50.0</ele><time>2026-05-01T11:56:07.229Z</time></trkpt><trkpt lat="44.118118" lon="12.2078"><ele>50.0</ele><time>2026-05-01T11:56:08.238Z</time></trkpt><trkpt lat="44.1182269" lon="12.207825"><ele>50.0</ele><time>2026-05-01T11:56:09.216Z</time></trkpt><trkpt lat="44.1183304" lon="12.2078483"><ele>50.0</ele><time>2026-05-01T11:56:10.23Z</time></trkpt><trkpt lat="44.1184344" lon="12.2078874"><ele>50.0</ele><time>2026-05-01T11:56:11.222Z</time></trkpt><trkpt lat="44.1185268" lon="12.2079271"><ele>49.833333333333336</ele><time>2026-05-01T11:56:12.231Z</time></trkpt><trkpt lat="44.1186054" lon="12.2079712"><ele>49.66666666666667</ele><time>2026-05-01T11:56:13.214Z</time></trkpt><trkpt lat="44.1186976" lon="12.208017"><ele>49.5</ele><time>2026-05-01T11:56:14.221Z</time></trkpt><trkpt lat="44.1187737" lon="12.2080542"><ele>49.33333333333333</ele><time>2026-05-01T11:56:15.221Z</time></trkpt><trkpt lat="44.1188451" lon="12.2081102"><ele>49.166666666666664</ele><time>2026-05-01T11:56:16.215Z</time></trkpt><trkpt lat="44.1189205" lon="12.2081441"><ele>49.0</ele><time>2026-05-01T11:56:17.232Z</time></trkpt><trkpt lat="44.1189894" lon="12.2081709"><ele>48.83333333333333</ele><time>2026-05-01T11:56:18.216Z</time></trkpt><trkpt lat="44.1190697" lon="12.2082094"><ele>48.666666666666664</ele><time>2026-05-01T11:56:19.218Z</time></trkpt><trkpt lat="44.1191494" lon="12.2082476"><ele>48.5</ele><time>2026-05-01T11:56:20.221Z</time></trkpt><trkpt lat="44.1192299" lon="12.2082893"><ele>48.33333333333333</ele><time>2026-05-01T11:56:21.22Z</time></trkpt><trkpt lat="44.1193122" lon="12.2083324"><ele>48.166666666666664</ele><time>2026-05-01T11:56:22.231Z</time></trkpt><trkpt lat="44.119392" lon="12.2083811"><ele>48.0</ele><time>2026-05-01T11:56:23.231Z</time></trkpt><trkpt lat="44.119468" lon="12.2084275"><ele>48.0</ele><time>2026-05-01T11:56:24.231Z</time></trkpt><trkpt lat="44.1195358" lon="12.2084596"><ele>48.0</ele><time>2026-05-01T11:56:25.225Z</time></trkpt><trkpt lat="44.1196056" lon="12.2084974"><ele>48.0</ele><time>2026-05-01T11:56:26.231Z</time></trkpt><trkpt lat="44.1196654" lon="12.2085279"><ele>48.0</ele><time>2026-05-01T11:56:27.229Z</time></trkpt><trkpt lat="44.1197632" lon="12.2085844"><ele>48.0</ele><time>2026-05-01T11:56:29.231Z</time></trkpt><trkpt lat="44.1198315" lon="12.2086094"><ele>48.0</ele><time>2026-05-01T11:56:31.221Z</time></trkpt><trkpt lat="44.119909" lon="12.2086661"><ele>48.4</ele><time>2026-05-01T11:56:33.225Z</time></trkpt><trkpt lat="44.120025" lon="12.208742"><ele>48.8</ele><time>2026-05-01T11:56:35.232Z</time></trkpt><trkpt lat="44.1201007" lon="12.2087959"><ele>49.2</ele><time>2026-05-01T11:56:36.216Z</time></trkpt><trkpt lat="44.1201696" lon="12.2088535"><ele>49.6</ele><time>2026-05-01T11:56:37.236Z</time></trkpt><trkpt lat="44.1202322" lon="12.2089226"><ele>50.0</ele><time>2026-05-01T11:56:38.231Z</time></trkpt><trkpt lat="44.1202908" lon="12.2090099"><ele>50.00000000000001</ele><time>2026-05-01T11:56:39.217Z</time></trkpt><trkpt lat="44.1203465" lon="12.2091036"><ele>50.0</ele><time>2026-05-01T11:56:40.219Z</time></trkpt><trkpt lat="44.1203863" lon="12.2092"><ele>50.0</ele><time>2026-05-01T11:56:41.216Z</time></trkpt><trkpt lat="44.1204224" lon="12.2092721"><ele>50.0</ele><time>2026-05-01T11:56:42.236Z</time></trkpt><trkpt lat="44.1204671" lon="12.2093486"><ele>50.00000000000001</ele><time>2026-05-01T11:56:43.214Z</time></trkpt><trkpt lat="44.1205717" lon="12.209476"><ele>50.0</ele><time>2026-05-01T11:56:45.22Z</time></trkpt><trkpt lat="44.1206482" lon="12.2095176"><ele>49.8</ele><time>2026-05-01T11:56:46.218Z</time></trkpt><trkpt lat="44.1207362" lon="12.209563"><ele>49.6</ele><time>2026-05-01T11:56:47.231Z</time></trkpt><trkpt lat="44.1208351" lon="12.2096014"><ele>49.400000000000006</ele><time>2026-05-01T11:56:48.22Z</time></trkpt><trkpt lat="44.1209341" lon="12.2096451"><ele>49.2</ele><time>2026-05-01T11:56:49.222Z</time></trkpt><trkpt lat="44.1210273" lon="12.2096831"><ele>49.0</ele><time>2026-05-01T11:56:50.232Z</time></trkpt><trkpt lat="44.1211233" lon="12.2097238"><ele>49.0</ele><time>2026-05-01T11:56:51.221Z</time></trkpt><trkpt lat="44.1212131" lon="12.2097741"><ele>49.0</ele><time>2026-05-01T11:56:52.224Z</time></trkpt><trkpt lat="44.1213213" lon="12.2098191"><ele>49.0</ele><time>2026-05-01T11:56:53.231Z</time></trkpt><trkpt lat="44.1214213" lon="12.2098615"><ele>49.0</ele><time>2026-05-01T11:56:54.22Z</time></trkpt><trkpt lat="44.1215298" lon="12.2099102"><ele>49.0</ele><time>2026-05-01T11:56:55.229Z</time></trkpt><trkpt lat="44.1216467" lon="12.2099766"><ele>49.0</ele><time>2026-05-01T11:56:56.224Z</time></trkpt><trkpt lat="44.1217505" lon="12.2100448"><ele>49.0</ele><time>2026-05-01T11:56:57.23Z</time></trkpt><trkpt lat="44.1218528" lon="12.2101077"><ele>49.0</ele><time>2026-05-01T11:56:58.217Z</time></trkpt><trkpt lat="44.1219389" lon="12.2101578"><ele>49.0</ele><time>2026-05-01T11:56:59.221Z</time></trkpt><trkpt lat="44.1220085" lon="12.2102084"><ele>49.0</ele><time>2026-05-01T11:57:00.211Z</time></trkpt><trkpt lat="44.1220709" lon="12.2102758"><ele>49.0</ele><time>2026-05-01T11:57:01.22Z</time></trkpt><trkpt lat="44.1221748" lon="12.2103479"><ele>49.0</ele><time>2026-05-01T11:57:03.232Z</time></trkpt><trkpt lat="44.1222423" lon="12.2103911"><ele>49.0</ele><time>2026-05-01T11:57:04.221Z</time></trkpt><trkpt lat="44.1223597" lon="12.2104527"><ele>49.0</ele><time>2026-05-01T11:57:06.221Z</time></trkpt><trkpt lat="44.1224296" lon="12.2104894"><ele>49.0</ele><time>2026-05-01T11:57:07.229Z</time></trkpt><trkpt lat="44.122494" lon="12.2105282"><ele>48.99999999999999</ele><time>2026-05-01T11:57:08.231Z</time></trkpt><trkpt lat="44.1225671" lon="12.210579"><ele>49.0</ele><time>2026-05-01T11:57:09.229Z</time></trkpt><trkpt lat="44.1226917" lon="12.2106447"><ele>49.0</ele><time>2026-05-01T11:57:11.216Z</time></trkpt><trkpt lat="44.1227593" lon="12.2106773"><ele>49.0</ele><time>2026-05-01T11:57:12.231Z</time></trkpt><trkpt lat="44.1228241" lon="12.2107071"><ele>48.99999999999999</ele><time>2026-05-01T11:57:13.217Z</time></trkpt><trkpt lat="44.1228902" lon="12.2107224"><ele>49.0</ele><time>2026-05-01T11:57:14.228Z</time></trkpt><trkpt lat="44.1229562" lon="12.2107174"><ele>48.99999999999999</ele><time>2026-05-01T11:57:15.236Z</time></trkpt><trkpt lat="44.1230254" lon="12.2107167"><ele>49.0</ele><time>2026-05-01T11:57:16.229Z</time></trkpt><trkpt lat="44.1231265" lon="12.2107112"><ele>49.0</ele><time>2026-05-01T11:57:18.228Z</time></trkpt><trkpt lat="44.1232043" lon="12.2107121"><ele>49.0</ele><time>2026-05-01T11:57:20.218Z</time></trkpt><trkpt lat="44.1233068" lon="12.2107181"><ele>48.99999999999999</ele><time>2026-05-01T11:57:24.223Z</time></trkpt><trkpt lat="44.1233946" lon="12.2107774"><ele>49.0</ele><time>2026-05-01T11:57:25.224Z</time></trkpt><trkpt lat="44.1234738" lon="12.2108654"><ele>48.49999999999999</ele><time>2026-05-01T11:57:27.232Z</time></trkpt><trkpt lat="44.1235251" lon="12.2109378"><ele>48.0</ele><time>2026-05-01T11:57:28.234Z</time></trkpt><trkpt lat="44.1236003" lon="12.2109643"><ele>47.5</ele><time>2026-05-01T11:57:29.233Z</time></trkpt><trkpt lat="44.1236894" lon="12.2109937"><ele>47.0</ele><time>2026-05-01T11:57:30.234Z</time></trkpt><trkpt lat="44.1237828" lon="12.2110131"><ele>46.5</ele><time>2026-05-01T11:57:31.235Z</time></trkpt><trkpt lat="44.1238833" lon="12.2110544"><ele>46.0</ele><time>2026-05-01T11:57:32.231Z</time></trkpt><trkpt lat="44.1240014" lon="12.2111583"><ele>45.66666666666667</ele><time>2026-05-01T11:57:33.223Z</time></trkpt><trkpt lat="44.1241153" lon="12.2112797"><ele>45.333333333333336</ele><time>2026-05-01T11:57:34.231Z</time></trkpt><trkpt lat="44.1242215" lon="12.2114232"><ele>45.0</ele><time>2026-05-01T11:57:35.228Z</time></trkpt><trkpt lat="44.1243524" lon="12.2115608"><ele>45.666666666666664</ele><time>2026-05-01T11:57:36.233Z</time></trkpt><trkpt lat="44.124471" lon="12.2116833"><ele>46.33333333333333</ele><time>2026-05-01T11:57:37.22Z</time></trkpt><trkpt lat="44.1246355" lon="12.2117741"><ele>47.0</ele><time>2026-05-01T11:57:38.225Z</time></trkpt><trkpt lat="44.1247808" lon="12.2118564"><ele>46.33333333333333</ele><time>2026-05-01T11:57:39.221Z</time></trkpt><trkpt lat="44.1249545" lon="12.2119444"><ele>45.666666666666664</ele><time>2026-05-01T11:57:40.224Z</time></trkpt><trkpt lat="44.1251076" lon="12.2120382"><ele>45.0</ele><time>2026-05-01T11:57:41.232Z</time></trkpt><trkpt lat="44.1252611" lon="12.2121185"><ele>45.0</ele><time>2026-05-01T11:57:42.215Z</time></trkpt><trkpt lat="44.1254095" lon="12.2121924"><ele>45.0</ele><time>2026-05-01T11:57:43.228Z</time></trkpt><trkpt lat="44.1255589" lon="12.212252"><ele>45.0</ele><time>2026-05-01T11:57:44.232Z</time></trkpt><trkpt lat="44.1256886" lon="12.2123239"><ele>46.0</ele><time>2026-05-01T11:57:45.212Z</time></trkpt><trkpt lat="44.1258295" lon="12.2123847"><ele>47.0</ele><time>2026-05-01T11:57:46.223Z</time></trkpt><trkpt lat="44.1259621" lon="12.2124362"><ele>48.0</ele><time>2026-05-01T11:57:47.217Z</time></trkpt><trkpt lat="44.1260857" lon="12.212476"><ele>49.0</ele><time>2026-05-01T11:57:48.23Z</time></trkpt><trkpt lat="44.1261922" lon="12.2125244"><ele>49.0</ele><time>2026-05-01T11:57:49.235Z</time></trkpt><trkpt lat="44.126292" lon="12.2125851"><ele>49.0</ele><time>2026-05-01T11:57:50.215Z</time></trkpt><trkpt lat="44.1263945" lon="12.212679"><ele>49.0</ele><time>2026-05-01T11:57:51.23Z</time></trkpt><trkpt lat="44.1264839" lon="12.212807"><ele>49.0</ele><time>2026-05-01T11:57:52.232Z</time></trkpt><trkpt lat="44.1265611" lon="12.2129569"><ele>48.25</ele><time>2026-05-01T11:57:53.231Z</time></trkpt><trkpt lat="44.1266404" lon="12.2131162"><ele>47.5</ele><time>2026-05-01T11:57:54.23Z</time></trkpt><trkpt lat="44.12674" lon="12.2132605"><ele>46.75</ele><time>2026-05-01T11:57:55.232Z</time></trkpt><trkpt lat="44.1268441" lon="12.2133981"><ele>46.0</ele><time>2026-05-01T11:57:56.239Z</time></trkpt><trkpt lat="44.1269356" lon="12.2135338"><ele>46.0</ele><time>2026-05-01T11:57:57.216Z</time></trkpt><trkpt lat="44.1270105" lon="12.2136876"><ele>46.0</ele><time>2026-05-01T11:57:58.227Z</time></trkpt><trkpt lat="44.1270864" lon="12.2138439"><ele>46.0</ele><time>2026-05-01T11:57:59.232Z</time></trkpt><trkpt lat="44.1271372" lon="12.2140369"><ele>46.0</ele><time>2026-05-01T11:58:00.22Z</time></trkpt><trkpt lat="44.1271987" lon="12.2142257"><ele>47.0</ele><time>2026-05-01T11:58:01.223Z</time></trkpt><trkpt lat="44.1272652" lon="12.2144087"><ele>48.0</ele><time>2026-05-01T11:58:02.229Z</time></trkpt><trkpt lat="44.1273199" lon="12.2145843"><ele>49.0</ele><time>2026-05-01T11:58:03.232Z</time></trkpt><trkpt lat="44.1273865" lon="12.2148022"><ele>48.666666666666664</ele><time>2026-05-01T11:58:04.22Z</time></trkpt><trkpt lat="44.127461" lon="12.2149985"><ele>48.33333333333333</ele><time>2026-05-01T11:58:05.224Z</time></trkpt><trkpt lat="44.1275228" lon="12.2152029"><ele>48.0</ele><time>2026-05-01T11:58:06.214Z</time></trkpt><trkpt lat="44.127596" lon="12.2154197"><ele>48.0</ele><time>2026-05-01T11:58:07.23Z</time></trkpt><trkpt lat="44.1276727" lon="12.2156308"><ele>48.0</ele><time>2026-05-01T11:58:08.222Z</time></trkpt><trkpt lat="44.1277344" lon="12.2158442"><ele>48.0</ele><time>2026-05-01T11:58:09.228Z</time></trkpt><trkpt lat="44.1277999" lon="12.2160512"><ele>47.666666666666664</ele><time>2026-05-01T11:58:10.22Z</time></trkpt><trkpt lat="44.1278761" lon="12.2162588"><ele>47.33333333333333</ele><time>2026-05-01T11:58:11.218Z</time></trkpt><trkpt lat="44.1279599" lon="12.2164416"><ele>47.0</ele><time>2026-05-01T11:58:12.229Z</time></trkpt><trkpt lat="44.1280442" lon="12.2166381"><ele>46.33333333333333</ele><time>2026-05-01T11:58:13.228Z</time></trkpt><trkpt lat="44.1281288" lon="12.216834"><ele>45.666666666666664</ele><time>2026-05-01T11:58:14.229Z</time></trkpt><trkpt lat="44.1282355" lon="12.2170192"><ele>45.0</ele><time>2026-05-01T11:58:15.22Z</time></trkpt><trkpt lat="44.1283434" lon="12.2171855"><ele>44.333333333333336</ele><time>2026-05-01T11:58:16.228Z</time></trkpt><trkpt lat="44.1284582" lon="12.2173522"><ele>43.66666666666667</ele><time>2026-05-01T11:58:17.22Z</time></trkpt><trkpt lat="44.128587" lon="12.2175227"><ele>43.0</ele><time>2026-05-01T11:58:18.217Z</time></trkpt><trkpt lat="44.1287213" lon="12.2176838"><ele>43.0</ele><time>2026-05-01T11:58:19.233Z</time></trkpt><trkpt lat="44.1288613" lon="12.2178494"><ele>43.0</ele><time>2026-05-01T11:58:20.228Z</time></trkpt><trkpt lat="44.1289828" lon="12.2180352"><ele>43.0</ele><time>2026-05-01T11:58:21.222Z</time></trkpt><trkpt lat="44.1291128" lon="12.2182225"><ele>42.66666666666667</ele><time>2026-05-01T11:58:22.231Z</time></trkpt><trkpt lat="44.1292418" lon="12.2184152"><ele>42.333333333333336</ele><time>2026-05-01T11:58:23.214Z</time></trkpt><trkpt lat="44.1293757" lon="12.2186043"><ele>42.0</ele><time>2026-05-01T11:58:24.226Z</time></trkpt><trkpt lat="44.129514" lon="12.2188004"><ele>42.0</ele><time>2026-05-01T11:58:25.222Z</time></trkpt><trkpt lat="44.1296306" lon="12.2189746"><ele>42.0</ele><time>2026-05-01T11:58:26.229Z</time></trkpt><trkpt lat="44.1297221" lon="12.2191099"><ele>42.0</ele><time>2026-05-01T11:58:27.221Z</time></trkpt><trkpt lat="44.1297969" lon="12.2192216"><ele>42.0</ele><time>2026-05-01T11:58:28.23Z</time></trkpt><trkpt lat="44.1298549" lon="12.2193293"><ele>42.333333333333336</ele><time>2026-05-01T11:58:29.225Z</time></trkpt><trkpt lat="44.1298758" lon="12.2194319"><ele>42.666666666666664</ele><time>2026-05-01T11:58:30.228Z</time></trkpt><trkpt lat="44.1299179" lon="12.219528"><ele>43.0</ele><time>2026-05-01T11:58:31.225Z</time></trkpt><trkpt lat="44.1299575" lon="12.2196171"><ele>43.33333333333333</ele><time>2026-05-01T11:58:32.221Z</time></trkpt><trkpt lat="44.1300064" lon="12.2197033"><ele>43.666666666666664</ele><time>2026-05-01T11:58:33.243Z</time></trkpt><trkpt lat="44.1300506" lon="12.2198241"><ele>44.0</ele><time>2026-05-01T11:58:34.22Z</time></trkpt><trkpt lat="44.1300996" lon="12.2199483"><ele>44.2</ele><time>2026-05-01T11:58:35.214Z</time></trkpt><trkpt lat="44.130128" lon="12.2200696"><ele>44.400000000000006</ele><time>2026-05-01T11:58:36.22Z</time></trkpt><trkpt lat="44.1301605" lon="12.2202067"><ele>44.6</ele><time>2026-05-01T11:58:37.216Z</time></trkpt><trkpt lat="44.1301885" lon="12.2203331"><ele>44.8</ele><time>2026-05-01T11:58:38.216Z</time></trkpt><trkpt lat="44.1302269" lon="12.2204736"><ele>45.0</ele><time>2026-05-01T11:58:39.224Z</time></trkpt><trkpt lat="44.1302592" lon="12.2206125"><ele>45.0</ele><time>2026-05-01T11:58:40.22Z</time></trkpt><trkpt lat="44.1303071" lon="12.2207714"><ele>45.0</ele><time>2026-05-01T11:58:41.221Z</time></trkpt><trkpt lat="44.1303425" lon="12.2209267"><ele>45.0</ele><time>2026-05-01T11:58:42.234Z</time></trkpt><trkpt lat="44.1303749" lon="12.2210778"><ele>45.0</ele><time>2026-05-01T11:58:43.217Z</time></trkpt><trkpt lat="44.1304107" lon="12.2212422"><ele>45.0</ele><time>2026-05-01T11:58:44.215Z</time></trkpt><trkpt lat="44.1304462" lon="12.2213687"><ele>45.0</ele><time>2026-05-01T11:58:45.221Z</time></trkpt><trkpt lat="44.1304923" lon="12.2215344"><ele>45.0</ele><time>2026-05-01T11:58:46.231Z</time></trkpt><trkpt lat="44.130532" lon="12.2217048"><ele>45.0</ele><time>2026-05-01T11:58:47.221Z</time></trkpt><trkpt lat="44.1305687" lon="12.221843"><ele>44.8</ele><time>2026-05-01T11:58:48.223Z</time></trkpt><trkpt lat="44.1306044" lon="12.2219864"><ele>44.6</ele><time>2026-05-01T11:58:49.233Z</time></trkpt><trkpt lat="44.1306264" lon="12.2221091"><ele>44.400000000000006</ele><time>2026-05-01T11:58:50.215Z</time></trkpt><trkpt lat="44.1306629" lon="12.2222662"><ele>44.2</ele><time>2026-05-01T11:58:51.223Z</time></trkpt><trkpt lat="44.1306981" lon="12.2224242"><ele>44.0</ele><time>2026-05-01T11:58:52.221Z</time></trkpt><trkpt lat="44.130725" lon="12.2225268"><ele>43.666666666666664</ele><time>2026-05-01T11:58:53.213Z</time></trkpt><trkpt lat="44.1307569" lon="12.2226306"><ele>43.33333333333333</ele><time>2026-05-01T11:58:54.227Z</time></trkpt><trkpt lat="44.1307881" lon="12.2227196"><ele>43.0</ele><time>2026-05-01T11:58:55.221Z</time></trkpt><trkpt lat="44.1308181" lon="12.2228374"><ele>42.666666666666664</ele><time>2026-05-01T11:58:57.23Z</time></trkpt><trkpt lat="44.130833" lon="12.2229264"><ele>42.333333333333336</ele><time>2026-05-01T11:59:00.229Z</time></trkpt><trkpt lat="44.1309234" lon="12.222975"><ele>42.0</ele><time>2026-05-01T12:00:49.219Z</time></trkpt><trkpt lat="44.1308599" lon="12.2229323"><ele>42.0</ele><time>2026-05-01T12:02:26.216Z</time></trkpt><trkpt lat="44.1309249" lon="12.2231028"><ele>42.0</ele><time>2026-05-01T12:07:01.223Z</time></trkpt><trkpt lat="44.1309364" lon="12.2232102"><ele>42.0</ele><time>2026-05-01T12:07:02.225Z</time></trkpt><trkpt lat="44.1310035" lon="12.2233354"><ele>42.0</ele><time>2026-05-01T12:07:03.214Z</time></trkpt><trkpt lat="44.1310563" lon="12.2234812"><ele>42.0</ele><time>2026-05-01T12:07:04.212Z</time></trkpt><trkpt lat="44.1310918" lon="12.2236281"><ele>42.0</ele><time>2026-05-01T12:07:05.215Z</time></trkpt><trkpt lat="44.1311474" lon="12.2237706"><ele>42.0</ele><time>2026-05-01T12:07:06.218Z</time></trkpt><trkpt lat="44.1311984" lon="12.2239406"><ele>42.0</ele><time>2026-05-01T12:07:07.226Z</time></trkpt><trkpt lat="44.1312694" lon="12.2241278"><ele>42.0</ele><time>2026-05-01T12:07:08.215Z</time></trkpt><trkpt lat="44.1313329" lon="12.2243291"><ele>42.0</ele><time>2026-05-01T12:07:09.219Z</time></trkpt><trkpt lat="44.1313746" lon="12.2245404"><ele>42.0</ele><time>2026-05-01T12:07:10.211Z</time></trkpt><trkpt lat="44.13144" lon="12.2247664"><ele>42.0</ele><time>2026-05-01T12:07:11.219Z</time></trkpt><trkpt lat="44.1315099" lon="12.224965"><ele>41.666666666666664</ele><time>2026-05-01T12:07:12.215Z</time></trkpt><trkpt lat="44.1315665" lon="12.2251774"><ele>41.33333333333333</ele><time>2026-05-01T12:07:13.215Z</time></trkpt><trkpt lat="44.1316082" lon="12.2253956"><ele>41.0</ele><time>2026-05-01T12:07:14.212Z</time></trkpt><trkpt lat="44.1316101" lon="12.2255862"><ele>40.666666666666664</ele><time>2026-05-01T12:07:15.21Z</time></trkpt><trkpt lat="44.1315796" lon="12.2258248"><ele>40.333333333333336</ele><time>2026-05-01T12:07:16.232Z</time></trkpt><trkpt lat="44.1315489" lon="12.2260587"><ele>40.0</ele><time>2026-05-01T12:07:17.212Z</time></trkpt><trkpt lat="44.1315191" lon="12.2262787"><ele>40.0</ele><time>2026-05-01T12:07:18.223Z</time></trkpt><trkpt lat="44.1314783" lon="12.2265359"><ele>40.0</ele><time>2026-05-01T12:07:19.219Z</time></trkpt><trkpt lat="44.1314528" lon="12.2267866"><ele>40.0</ele><time>2026-05-01T12:07:20.21Z</time></trkpt><trkpt lat="44.1314288" lon="12.22705"><ele>40.0</ele><time>2026-05-01T12:07:21.209Z</time></trkpt><trkpt lat="44.1313908" lon="12.2273112"><ele>40.0</ele><time>2026-05-01T12:07:22.217Z</time></trkpt><trkpt lat="44.1313724" lon="12.2275723"><ele>40.0</ele><time>2026-05-01T12:07:23.217Z</time></trkpt><trkpt lat="44.1313545" lon="12.2278307"><ele>40.0</ele><time>2026-05-01T12:07:24.217Z</time></trkpt><trkpt lat="44.1313474" lon="12.2280963"><ele>40.0</ele><time>2026-05-01T12:07:25.222Z</time></trkpt><trkpt lat="44.1313342" lon="12.2282704"><ele>40.0</ele><time>2026-05-01T12:07:26.213Z</time></trkpt><trkpt lat="44.1313297" lon="12.2284696"><ele>40.0</ele><time>2026-05-01T12:07:27.218Z</time></trkpt><trkpt lat="44.1313348" lon="12.2286341"><ele>40.0</ele><time>2026-05-01T12:07:28.217Z</time></trkpt><trkpt lat="44.1313418" lon="12.2287839"><ele>40.0</ele><time>2026-05-01T12:07:29.222Z</time></trkpt><trkpt lat="44.1313597" lon="12.2289126"><ele>40.0</ele><time>2026-05-01T12:07:30.216Z</time></trkpt><trkpt lat="44.1313591" lon="12.2290149"><ele>40.0</ele><time>2026-05-01T12:07:31.216Z</time></trkpt><trkpt lat="44.1313841" lon="12.2291402"><ele>39.75</ele><time>2026-05-01T12:07:32.213Z</time></trkpt><trkpt lat="44.1314294" lon="12.2292724"><ele>39.5</ele><time>2026-05-01T12:07:33.219Z</time></trkpt><trkpt lat="44.131509" lon="12.2293896"><ele>39.25</ele><time>2026-05-01T12:07:34.217Z</time></trkpt><trkpt lat="44.1316449" lon="12.2295014"><ele>39.0</ele><time>2026-05-01T12:07:35.213Z</time></trkpt><trkpt lat="44.1317602" lon="12.229599"><ele>38.5</ele><time>2026-05-01T12:07:36.212Z</time></trkpt><trkpt lat="44.1318959" lon="12.229679"><ele>38.0</ele><time>2026-05-01T12:07:37.222Z</time></trkpt><trkpt lat="44.132021" lon="12.2297781"><ele>37.5</ele><time>2026-05-01T12:07:38.211Z</time></trkpt><trkpt lat="44.1321414" lon="12.2298568"><ele>37.0</ele><time>2026-05-01T12:07:39.22Z</time></trkpt><trkpt lat="44.1322796" lon="12.2299109"><ele>36.66666666666667</ele><time>2026-05-01T12:07:40.212Z</time></trkpt><trkpt lat="44.1324423" lon="12.2299046"><ele>36.333333333333336</ele><time>2026-05-01T12:07:41.211Z</time></trkpt><trkpt lat="44.1326057" lon="12.229914"><ele>36.0</ele><time>2026-05-01T12:07:42.225Z</time></trkpt><trkpt lat="44.1327599" lon="12.2299371"><ele>36.0</ele><time>2026-05-01T12:07:43.215Z</time></trkpt><trkpt lat="44.1328984" lon="12.2299275"><ele>36.0</ele><time>2026-05-01T12:07:44.227Z</time></trkpt><trkpt lat="44.1330284" lon="12.229916"><ele>36.0</ele><time>2026-05-01T12:07:45.211Z</time></trkpt><trkpt lat="44.1331542" lon="12.2299069"><ele>36.0</ele><time>2026-05-01T12:07:46.227Z</time></trkpt><trkpt lat="44.1332433" lon="12.2299082"><ele>35.75</ele><time>2026-05-01T12:07:47.226Z</time></trkpt><trkpt lat="44.1333919" lon="12.2299093"><ele>35.5</ele><time>2026-05-01T12:07:48.225Z</time></trkpt><trkpt lat="44.1334735" lon="12.2298963"><ele>35.25</ele><time>2026-05-01T12:07:49.214Z</time></trkpt><trkpt lat="44.1335394" lon="12.2299139"><ele>35.0</ele><time>2026-05-01T12:07:50.221Z</time></trkpt><trkpt lat="44.1336508" lon="12.2301581"><ele>35.0</ele><time>2026-05-01T12:07:52.222Z</time></trkpt><trkpt lat="44.1336748" lon="12.2302975"><ele>35.0</ele><time>2026-05-01T12:07:53.242Z</time></trkpt><trkpt lat="44.1336735" lon="12.2304628"><ele>35.0</ele><time>2026-05-01T12:07:54.213Z</time></trkpt><trkpt lat="44.1336867" lon="12.2306277"><ele>35.0</ele><time>2026-05-01T12:07:55.222Z</time></trkpt><trkpt lat="44.1337055" lon="12.2308083"><ele>34.33333333333333</ele><time>2026-05-01T12:07:56.219Z</time></trkpt><trkpt lat="44.1337389" lon="12.2310181"><ele>33.666666666666664</ele><time>2026-05-01T12:07:57.211Z</time></trkpt><trkpt lat="44.1337519" lon="12.2312444"><ele>33.0</ele><time>2026-05-01T12:07:58.22Z</time></trkpt><trkpt lat="44.1337741" lon="12.2314401"><ele>33.0</ele><time>2026-05-01T12:07:59.216Z</time></trkpt><trkpt lat="44.133798" lon="12.2316605"><ele>33.0</ele><time>2026-05-01T12:08:00.218Z</time></trkpt><trkpt lat="44.1338359" lon="12.2318892"><ele>33.0</ele><time>2026-05-01T12:08:01.235Z</time></trkpt><trkpt lat="44.1338696" lon="12.2321016"><ele>32.0</ele><time>2026-05-01T12:08:02.215Z</time></trkpt><trkpt lat="44.1338949" lon="12.2323448"><ele>31.0</ele><time>2026-05-01T12:08:03.216Z</time></trkpt><trkpt lat="44.133904" lon="12.2325617"><ele>30.0</ele><time>2026-05-01T12:08:04.211Z</time></trkpt><trkpt lat="44.1339236" lon="12.2328188"><ele>30.0</ele><time>2026-05-01T12:08:05.211Z</time></trkpt><trkpt lat="44.1339493" lon="12.2330595"><ele>30.0</ele><time>2026-05-01T12:08:06.22Z</time></trkpt><trkpt lat="44.1339648" lon="12.2332992"><ele>30.0</ele><time>2026-05-01T12:08:07.229Z</time></trkpt><trkpt lat="44.133977" lon="12.2335067"><ele>30.0</ele><time>2026-05-01T12:08:08.213Z</time></trkpt><trkpt lat="44.1339812" lon="12.2337328"><ele>30.0</ele><time>2026-05-01T12:08:09.22Z</time></trkpt><trkpt lat="44.1339796" lon="12.2339624"><ele>30.0</ele><time>2026-05-01T12:08:10.228Z</time></trkpt><trkpt lat="44.1339894" lon="12.2341644"><ele>30.0</ele><time>2026-05-01T12:08:11.218Z</time></trkpt><trkpt lat="44.1339983" lon="12.2343425"><ele>30.0</ele><time>2026-05-01T12:08:12.22Z</time></trkpt><trkpt lat="44.1339994" lon="12.2345345"><ele>30.0</ele><time>2026-05-01T12:08:13.211Z</time></trkpt><trkpt lat="44.1339834" lon="12.2346604"><ele>30.0</ele><time>2026-05-01T12:08:14.211Z</time></trkpt><trkpt lat="44.1339773" lon="12.2347891"><ele>30.666666666666668</ele><time>2026-05-01T12:08:15.219Z</time></trkpt><trkpt lat="44.1339711" lon="12.2349152"><ele>31.333333333333336</ele><time>2026-05-01T12:08:16.218Z</time></trkpt><trkpt lat="44.1339247" lon="12.2350232"><ele>32.0</ele><time>2026-05-01T12:08:17.217Z</time></trkpt><trkpt lat="44.1339135" lon="12.2351149"><ele>32.66666666666667</ele><time>2026-05-01T12:08:18.219Z</time></trkpt><trkpt lat="44.1339335" lon="12.2352413"><ele>33.333333333333336</ele><time>2026-05-01T12:08:19.227Z</time></trkpt><trkpt lat="44.1339388" lon="12.2353563"><ele>34.0</ele><time>2026-05-01T12:08:20.21Z</time></trkpt><trkpt lat="44.1339938" lon="12.235484"><ele>34.0</ele><time>2026-05-01T12:08:21.22Z</time></trkpt><trkpt lat="44.1340047" lon="12.2356206"><ele>34.0</ele><time>2026-05-01T12:08:22.221Z</time></trkpt><trkpt lat="44.1340254" lon="12.2357636"><ele>34.0</ele><time>2026-05-01T12:08:23.221Z</time></trkpt><trkpt lat="44.1340336" lon="12.2359423"><ele>34.0</ele><time>2026-05-01T12:08:24.22Z</time></trkpt><trkpt lat="44.1340359" lon="12.2360874"><ele>34.0</ele><time>2026-05-01T12:08:25.21Z</time></trkpt><trkpt lat="44.1340406" lon="12.2362182"><ele>34.0</ele><time>2026-05-01T12:08:26.219Z</time></trkpt><trkpt lat="44.1340396" lon="12.2363407"><ele>34.0</ele><time>2026-05-01T12:08:27.22Z</time></trkpt><trkpt lat="44.1340459" lon="12.2364939"><ele>34.0</ele><time>2026-05-01T12:08:30.214Z</time></trkpt><trkpt lat="44.1340603" lon="12.2366505"><ele>34.0</ele><time>2026-05-01T12:08:32.213Z</time></trkpt><trkpt lat="44.1340754" lon="12.2368121"><ele>34.0</ele><time>2026-05-01T12:08:34.228Z</time></trkpt><trkpt lat="44.1340975" lon="12.2369111"><ele>34.0</ele><time>2026-05-01T12:08:35.22Z</time></trkpt><trkpt lat="44.1341405" lon="12.2370156"><ele>34.0</ele><time>2026-05-01T12:08:36.227Z</time></trkpt><trkpt lat="44.1342424" lon="12.2371461"><ele>34.0</ele><time>2026-05-01T12:08:37.22Z</time></trkpt><trkpt lat="44.1343061" lon="12.2372298"><ele>34.0</ele><time>2026-05-01T12:08:38.219Z</time></trkpt><trkpt lat="44.1343631" lon="12.237308"><ele>34.0</ele><time>2026-05-01T12:08:39.225Z</time></trkpt><trkpt lat="44.1344384" lon="12.2373979"><ele>34.0</ele><time>2026-05-01T12:08:40.219Z</time></trkpt><trkpt lat="44.1344939" lon="12.2374705"><ele>34.0</ele><time>2026-05-01T12:08:41.231Z</time></trkpt><trkpt lat="44.1345525" lon="12.2375424"><ele>34.0</ele><time>2026-05-01T12:08:42.214Z</time></trkpt><trkpt lat="44.1346128" lon="12.2376109"><ele>34.0</ele><time>2026-05-01T12:08:43.222Z</time></trkpt><trkpt lat="44.1346671" lon="12.2376655"><ele>34.0</ele><time>2026-05-01T12:08:44.21Z</time></trkpt><trkpt lat="44.1347213" lon="12.2377477"><ele>34.0</ele><time>2026-05-01T12:08:45.217Z</time></trkpt><trkpt lat="44.1347745" lon="12.2378312"><ele>34.0</ele><time>2026-05-01T12:08:46.211Z</time></trkpt><trkpt lat="44.1348325" lon="12.2378997"><ele>34.0</ele><time>2026-05-01T12:08:47.212Z</time></trkpt><trkpt lat="44.1349042" lon="12.237984"><ele>34.0</ele><time>2026-05-01T12:08:48.221Z</time></trkpt><trkpt lat="44.1349521" lon="12.2380669"><ele>34.0</ele><time>2026-05-01T12:08:49.226Z</time></trkpt><trkpt lat="44.1350186" lon="12.2381405"><ele>34.0</ele><time>2026-05-01T12:08:50.226Z</time></trkpt><trkpt lat="44.135085" lon="12.2382069"><ele>34.0</ele><time>2026-05-01T12:08:51.213Z</time></trkpt><trkpt lat="44.1351373" lon="12.2382889"><ele>34.42857142857142</ele><time>2026-05-01T12:08:52.228Z</time></trkpt><trkpt lat="44.1351892" lon="12.2383678"><ele>34.857142857142854</ele><time>2026-05-01T12:08:53.22Z</time></trkpt><trkpt lat="44.1352362" lon="12.2384494"><ele>35.285714285714285</ele><time>2026-05-01T12:08:54.22Z</time></trkpt><trkpt lat="44.1352618" lon="12.238541"><ele>35.71428571428571</ele><time>2026-05-01T12:08:55.219Z</time></trkpt><trkpt lat="44.1352792" lon="12.2386315"><ele>36.14285714285714</ele><time>2026-05-01T12:08:56.219Z</time></trkpt><trkpt lat="44.1352931" lon="12.2387295"><ele>36.57142857142857</ele><time>2026-05-01T12:08:57.219Z</time></trkpt><trkpt lat="44.135288" lon="12.2388483"><ele>37.0</ele><time>2026-05-01T12:08:58.219Z</time></trkpt><trkpt lat="44.1352512" lon="12.238982"><ele>38.6</ele><time>2026-05-01T12:09:00.226Z</time></trkpt><trkpt lat="44.1351755" lon="12.2390777"><ele>40.2</ele><time>2026-05-01T12:09:02.22Z</time></trkpt><trkpt lat="44.1351151" lon="12.2391359"><ele>41.8</ele><time>2026-05-01T12:09:03.235Z</time></trkpt><trkpt lat="44.1350469" lon="12.2392211"><ele>43.4</ele><time>2026-05-01T12:09:05.219Z</time></trkpt><trkpt lat="44.1349459" lon="12.2393064"><ele>45.0</ele><time>2026-05-01T12:09:07.218Z</time></trkpt><trkpt lat="44.1348809" lon="12.2393292"><ele>45.0</ele><time>2026-05-01T12:09:08.224Z</time></trkpt><trkpt lat="44.1347835" lon="12.2393558"><ele>45.0</ele><time>2026-05-01T12:09:09.218Z</time></trkpt><trkpt lat="44.134703" lon="12.2393833"><ele>45.0</ele><time>2026-05-01T12:09:10.229Z</time></trkpt><trkpt lat="44.134582" lon="12.2394153"><ele>45.0</ele><time>2026-05-01T12:09:11.22Z</time></trkpt><trkpt lat="44.1344632" lon="12.2394131"><ele>45.0</ele><time>2026-05-01T12:09:12.218Z</time></trkpt><trkpt lat="44.1343288" lon="12.2394005"><ele>45.0</ele><time>2026-05-01T12:09:13.219Z</time></trkpt><trkpt lat="44.1341988" lon="12.2393945"><ele>45.0</ele><time>2026-05-01T12:09:14.212Z</time></trkpt><trkpt lat="44.134032" lon="12.239355"><ele>45.0</ele><time>2026-05-01T12:09:15.219Z</time></trkpt><trkpt lat="44.1338268" lon="12.2392808"><ele>47.0</ele><time>2026-05-01T12:09:16.22Z</time></trkpt><trkpt lat="44.1336688" lon="12.2392547"><ele>49.0</ele><time>2026-05-01T12:09:17.225Z</time></trkpt><trkpt lat="44.1335337" lon="12.2392181"><ele>51.0</ele><time>2026-05-01T12:09:18.218Z</time></trkpt><trkpt lat="44.1334125" lon="12.2392639"><ele>53.0</ele><time>2026-05-01T12:09:19.225Z</time></trkpt><trkpt lat="44.1332952" lon="12.2393353"><ele>59.0</ele><time>2026-05-01T12:09:20.219Z</time></trkpt><trkpt lat="44.1331983" lon="12.2394118"><ele>65.0</ele><time>2026-05-01T12:09:21.219Z</time></trkpt><trkpt lat="44.1331057" lon="12.2396223"><ele>71.0</ele><time>2026-05-01T12:09:22.219Z</time></trkpt><trkpt lat="44.1330392" lon="12.2398068"><ele>77.0</ele><time>2026-05-01T12:09:23.219Z</time></trkpt><trkpt lat="44.1329904" lon="12.2400101"><ele>77.0</ele><time>2026-05-01T12:09:24.219Z</time></trkpt><trkpt lat="44.1329325" lon="12.2402027"><ele>77.0</ele><time>2026-05-01T12:09:25.21Z</time></trkpt><trkpt lat="44.1328517" lon="12.2405261"><ele>77.0</ele><time>2026-05-01T12:09:26.219Z</time></trkpt><trkpt lat="44.132827" lon="12.2406538"><ele>71.66666666666667</ele><time>2026-05-01T12:09:27.219Z</time></trkpt><trkpt lat="44.1328235" lon="12.240999"><ele>66.33333333333333</ele><time>2026-05-01T12:09:28.221Z</time></trkpt><trkpt lat="44.1327981" lon="12.2412171"><ele>61.0</ele><time>2026-05-01T12:09:29.224Z</time></trkpt><trkpt lat="44.1328036" lon="12.2414441"><ele>59.199999999999996</ele><time>2026-05-01T12:09:30.218Z</time></trkpt><trkpt lat="44.1327895" lon="12.2416266"><ele>57.39999999999999</ele><time>2026-05-01T12:09:31.22Z</time></trkpt><trkpt lat="44.1327777" lon="12.2417692"><ele>55.6</ele><time>2026-05-01T12:09:32.211Z</time></trkpt><trkpt lat="44.1327525" lon="12.2419224"><ele>53.8</ele><time>2026-05-01T12:09:33.218Z</time></trkpt><trkpt lat="44.1327164" lon="12.2419961"><ele>52.0</ele><time>2026-05-01T12:09:34.213Z</time></trkpt><trkpt lat="44.1325672" lon="12.2420779"><ele>52.0</ele><time>2026-05-01T12:09:36.219Z</time></trkpt><trkpt lat="44.1324851" lon="12.2420961"><ele>52.0</ele><time>2026-05-01T12:09:37.219Z</time></trkpt><trkpt lat="44.1323822" lon="12.242132"><ele>52.0</ele><time>2026-05-01T12:09:38.22Z</time></trkpt><trkpt lat="44.1322974" lon="12.2421827"><ele>52.0</ele><time>2026-05-01T12:09:39.219Z</time></trkpt><trkpt lat="44.1322457" lon="12.2422674"><ele>52.0</ele><time>2026-05-01T12:09:40.221Z</time></trkpt><trkpt lat="44.1322212" lon="12.2423941"><ele>50.8</ele><time>2026-05-01T12:09:41.219Z</time></trkpt><trkpt lat="44.1322142" lon="12.2425103"><ele>49.6</ele><time>2026-05-01T12:09:42.22Z</time></trkpt><trkpt lat="44.1322625" lon="12.2426218"><ele>48.4</ele><time>2026-05-01T12:09:43.21Z</time></trkpt><trkpt lat="44.13235" lon="12.2426973"><ele>47.199999999999996</ele><time>2026-05-01T12:09:44.219Z</time></trkpt><trkpt lat="44.1324452" lon="12.2427654"><ele>46.0</ele><time>2026-05-01T12:09:45.221Z</time></trkpt><trkpt lat="44.1325601" lon="12.2427694"><ele>46.0</ele><time>2026-05-01T12:09:46.219Z</time></trkpt><trkpt lat="44.132755" lon="12.2427053"><ele>46.0</ele><time>2026-05-01T12:09:47.248Z</time></trkpt><trkpt lat="44.1329264" lon="12.2426512"><ele>46.0</ele><time>2026-05-01T12:09:48.219Z</time></trkpt><trkpt lat="44.1331131" lon="12.2426209"><ele>47.333333333333336</ele><time>2026-05-01T12:09:49.221Z</time></trkpt><trkpt lat="44.1333007" lon="12.2425761"><ele>48.66666666666667</ele><time>2026-05-01T12:09:50.223Z</time></trkpt><trkpt lat="44.1335082" lon="12.2425489"><ele>50.0</ele><time>2026-05-01T12:09:51.222Z</time></trkpt><trkpt lat="44.133698" lon="12.2425239"><ele>50.0</ele><time>2026-05-01T12:09:52.209Z</time></trkpt><trkpt lat="44.1339134" lon="12.2424822"><ele>50.0</ele><time>2026-05-01T12:09:53.219Z</time></trkpt><trkpt lat="44.1340767" lon="12.2424703"><ele>50.0</ele><time>2026-05-01T12:09:54.219Z</time></trkpt><trkpt lat="44.1342062" lon="12.2424627"><ele>49.8</ele><time>2026-05-01T12:09:55.219Z</time></trkpt><trkpt lat="44.1343029" lon="12.2424461"><ele>49.6</ele><time>2026-05-01T12:09:56.225Z</time></trkpt><trkpt lat="44.1344105" lon="12.2424043"><ele>49.400000000000006</ele><time>2026-05-01T12:09:57.22Z</time></trkpt><trkpt lat="44.1345113" lon="12.2423919"><ele>49.2</ele><time>2026-05-01T12:09:58.218Z</time></trkpt><trkpt lat="44.134605" lon="12.2424487"><ele>49.0</ele><time>2026-05-01T12:09:59.21Z</time></trkpt><trkpt lat="44.1346742" lon="12.2425566"><ele>49.0</ele><time>2026-05-01T12:10:00.219Z</time></trkpt><trkpt lat="44.1347072" lon="12.2426313"><ele>49.0</ele><time>2026-05-01T12:10:01.218Z</time></trkpt><trkpt lat="44.1347274" lon="12.242753"><ele>49.0</ele><time>2026-05-01T12:10:02.219Z</time></trkpt><trkpt lat="44.1347059" lon="12.2429386"><ele>49.0</ele><time>2026-05-01T12:10:03.215Z</time></trkpt><trkpt lat="44.1347114" lon="12.2431053"><ele>49.0</ele><time>2026-05-01T12:10:04.218Z</time></trkpt><trkpt lat="44.1347015" lon="12.2432352"><ele>48.166666666666664</ele><time>2026-05-01T12:10:05.212Z</time></trkpt><trkpt lat="44.134702" lon="12.2433621"><ele>47.33333333333333</ele><time>2026-05-01T12:10:06.22Z</time></trkpt><trkpt lat="44.1346981" lon="12.2435031"><ele>46.5</ele><time>2026-05-01T12:10:07.218Z</time></trkpt><trkpt lat="44.1346852" lon="12.2436025"><ele>45.666666666666664</ele><time>2026-05-01T12:10:08.219Z</time></trkpt><trkpt lat="44.1346956" lon="12.2437243"><ele>44.83333333333333</ele><time>2026-05-01T12:10:09.211Z</time></trkpt><trkpt lat="44.1347036" lon="12.2438479"><ele>44.0</ele><time>2026-05-01T12:10:10.218Z</time></trkpt><trkpt lat="44.1347295" lon="12.2440286"><ele>43.5</ele><time>2026-05-01T12:10:12.223Z</time></trkpt><trkpt lat="44.1347569" lon="12.2441371"><ele>43.0</ele><time>2026-05-01T12:10:13.22Z</time></trkpt><trkpt lat="44.1347645" lon="12.2442468"><ele>42.5</ele><time>2026-05-01T12:10:14.219Z</time></trkpt><trkpt lat="44.1347582" lon="12.2443583"><ele>42.0</ele><time>2026-05-01T12:10:15.22Z</time></trkpt><trkpt lat="44.134771" lon="12.2444812"><ele>41.5</ele><time>2026-05-01T12:10:16.218Z</time></trkpt><trkpt lat="44.1347934" lon="12.2446311"><ele>41.0</ele><time>2026-05-01T12:10:17.218Z</time></trkpt><trkpt lat="44.1348068" lon="12.2447933"><ele>41.25</ele><time>2026-05-01T12:10:18.218Z</time></trkpt><trkpt lat="44.1348254" lon="12.244939"><ele>41.5</ele><time>2026-05-01T12:10:19.218Z</time></trkpt><trkpt lat="44.1348503" lon="12.2451112"><ele>41.75</ele><time>2026-05-01T12:10:20.218Z</time></trkpt><trkpt lat="44.1348628" lon="12.245288"><ele>42.0</ele><time>2026-05-01T12:10:21.219Z</time></trkpt><trkpt lat="44.1348761" lon="12.2454631"><ele>43.25</ele><time>2026-05-01T12:10:22.218Z</time></trkpt><trkpt lat="44.1348878" lon="12.2456313"><ele>44.5</ele><time>2026-05-01T12:10:23.209Z</time></trkpt><trkpt lat="44.1349063" lon="12.2458062"><ele>45.75</ele><time>2026-05-01T12:10:24.229Z</time></trkpt><trkpt lat="44.1349188" lon="12.2459677"><ele>47.0</ele><time>2026-05-01T12:10:25.219Z</time></trkpt><trkpt lat="44.1349302" lon="12.2461284"><ele>47.0</ele><time>2026-05-01T12:10:26.219Z</time></trkpt><trkpt lat="44.1349394" lon="12.246273"><ele>47.0</ele><time>2026-05-01T12:10:27.219Z</time></trkpt><trkpt lat="44.1349442" lon="12.2464341"><ele>47.0</ele><time>2026-05-01T12:10:28.219Z</time></trkpt><trkpt lat="44.1349517" lon="12.2465686"><ele>47.0</ele><time>2026-05-01T12:10:29.226Z</time></trkpt><trkpt lat="44.1349459" lon="12.2466992"><ele>47.0</ele><time>2026-05-01T12:10:30.22Z</time></trkpt><trkpt lat="44.1349564" lon="12.246823"><ele>47.0</ele><time>2026-05-01T12:10:31.219Z</time></trkpt><trkpt lat="44.1349682" lon="12.246949"><ele>47.0</ele><time>2026-05-01T12:10:32.218Z</time></trkpt><trkpt lat="44.1349698" lon="12.2470932"><ele>47.0</ele><time>2026-05-01T12:10:33.21Z</time></trkpt><trkpt lat="44.1349661" lon="12.2471853"><ele>47.0</ele><time>2026-05-01T12:10:34.218Z</time></trkpt><trkpt lat="44.1350024" lon="12.2472832"><ele>47.0</ele><time>2026-05-01T12:10:40.221Z</time></trkpt><trkpt lat="44.135023" lon="12.2474684"><ele>47.0</ele><time>2026-05-01T12:11:20.222Z</time></trkpt><trkpt lat="44.1350237" lon="12.2476743"><ele>47.0</ele><time>2026-05-01T12:11:21.219Z</time></trkpt><trkpt lat="44.1350189" lon="12.2478224"><ele>47.0</ele><time>2026-05-01T12:11:22.22Z</time></trkpt><trkpt lat="44.1350216" lon="12.2480935"><ele>47.0</ele><time>2026-05-01T12:11:23.22Z</time></trkpt><trkpt lat="44.135036" lon="12.2482739"><ele>47.0</ele><time>2026-05-01T12:11:24.234Z</time></trkpt><trkpt lat="44.1350478" lon="12.2484922"><ele>47.0</ele><time>2026-05-01T12:11:25.219Z</time></trkpt><trkpt lat="44.1350385" lon="12.2487035"><ele>47.0</ele><time>2026-05-01T12:11:26.212Z</time></trkpt><trkpt lat="44.1350614" lon="12.2490207"><ele>47.0</ele><time>2026-05-01T12:11:27.219Z</time></trkpt><trkpt lat="44.1350648" lon="12.2492732"><ele>47.0</ele><time>2026-05-01T12:11:28.219Z</time></trkpt><trkpt lat="44.1350886" lon="12.2494638"><ele>47.0</ele><time>2026-05-01T12:11:29.22Z</time></trkpt><trkpt lat="44.1351178" lon="12.249664"><ele>47.0</ele><time>2026-05-01T12:11:30.216Z</time></trkpt><trkpt lat="44.1351294" lon="12.2498436"><ele>47.0</ele><time>2026-05-01T12:11:31.218Z</time></trkpt><trkpt lat="44.1351531" lon="12.2500317"><ele>47.0</ele><time>2026-05-01T12:11:32.219Z</time></trkpt><trkpt lat="44.135171" lon="12.2502069"><ele>47.0</ele><time>2026-05-01T12:11:33.22Z</time></trkpt><trkpt lat="44.1351919" lon="12.2503903"><ele>47.0</ele><time>2026-05-01T12:11:34.22Z</time></trkpt><trkpt lat="44.1352192" lon="12.2505737"><ele>47.0</ele><time>2026-05-01T12:11:35.219Z</time></trkpt><trkpt lat="44.1352477" lon="12.2507582"><ele>47.0</ele><time>2026-05-01T12:11:36.221Z</time></trkpt><trkpt lat="44.1352744" lon="12.2509283"><ele>47.0</ele><time>2026-05-01T12:11:37.218Z</time></trkpt><trkpt lat="44.1353043" lon="12.2510873"><ele>47.5</ele><time>2026-05-01T12:11:38.218Z</time></trkpt><trkpt lat="44.1353507" lon="12.2512443"><ele>48.0</ele><time>2026-05-01T12:11:39.218Z</time></trkpt><trkpt lat="44.1354306" lon="12.2513982"><ele>48.5</ele><time>2026-05-01T12:11:40.241Z</time></trkpt><trkpt lat="44.1355239" lon="12.2515412"><ele>49.0</ele><time>2026-05-01T12:11:41.211Z</time></trkpt><trkpt lat="44.1356317" lon="12.2516726"><ele>48.666666666666664</ele><time>2026-05-01T12:11:42.226Z</time></trkpt><trkpt lat="44.1357533" lon="12.2518298"><ele>48.33333333333333</ele><time>2026-05-01T12:11:43.218Z</time></trkpt><trkpt lat="44.1358767" lon="12.2520066"><ele>48.0</ele><time>2026-05-01T12:11:44.219Z</time></trkpt><trkpt lat="44.1360165" lon="12.2521984"><ele>49.33333333333333</ele><time>2026-05-01T12:11:45.218Z</time></trkpt><trkpt lat="44.1361143" lon="12.2524075"><ele>50.666666666666664</ele><time>2026-05-01T12:11:46.211Z</time></trkpt><trkpt lat="44.1362375" lon="12.2526024"><ele>52.0</ele><time>2026-05-01T12:11:47.22Z</time></trkpt><trkpt lat="44.1363681" lon="12.2527941"><ele>52.0</ele><time>2026-05-01T12:11:48.224Z</time></trkpt><trkpt lat="44.1364881" lon="12.2529789"><ele>52.0</ele><time>2026-05-01T12:11:49.222Z</time></trkpt><trkpt lat="44.1365996" lon="12.2531427"><ele>52.0</ele><time>2026-05-01T12:11:50.218Z</time></trkpt><trkpt lat="44.1367111" lon="12.2533025"><ele>52.0</ele><time>2026-05-01T12:11:51.219Z</time></trkpt><trkpt lat="44.1367958" lon="12.2534267"><ele>52.0</ele><time>2026-05-01T12:11:52.218Z</time></trkpt><trkpt lat="44.1368608" lon="12.2535455"><ele>52.0</ele><time>2026-05-01T12:11:53.212Z</time></trkpt><trkpt lat="44.136903" lon="12.2536603"><ele>52.0</ele><time>2026-05-01T12:11:54.219Z</time></trkpt><trkpt lat="44.1369319" lon="12.2538098"><ele>52.0</ele><time>2026-05-01T12:11:55.219Z</time></trkpt><trkpt lat="44.1369563" lon="12.253987"><ele>52.0</ele><time>2026-05-01T12:11:56.218Z</time></trkpt><trkpt lat="44.1369832" lon="12.2541894"><ele>52.0</ele><time>2026-05-01T12:11:57.219Z</time></trkpt><trkpt lat="44.1370136" lon="12.2543812"><ele>52.0</ele><time>2026-05-01T12:11:58.221Z</time></trkpt><trkpt lat="44.1370277" lon="12.2545613"><ele>52.0</ele><time>2026-05-01T12:11:59.218Z</time></trkpt><trkpt lat="44.1370649" lon="12.2546792"><ele>52.0</ele><time>2026-05-01T12:12:00.225Z</time></trkpt><trkpt lat="44.1371005" lon="12.2547657"><ele>52.0</ele><time>2026-05-01T12:12:01.218Z</time></trkpt><trkpt lat="44.1371524" lon="12.2548172"><ele>52.0</ele><time>2026-05-01T12:12:02.218Z</time></trkpt><trkpt lat="44.1372185" lon="12.2548246"><ele>52.0</ele><time>2026-05-01T12:12:03.219Z</time></trkpt><trkpt lat="44.13738" lon="12.2547395"><ele>52.0</ele><time>2026-05-01T12:12:05.234Z</time></trkpt><trkpt lat="44.1374669" lon="12.2546531"><ele>50.666666666666664</ele><time>2026-05-01T12:12:06.218Z</time></trkpt><trkpt lat="44.1375417" lon="12.2546007"><ele>49.33333333333333</ele><time>2026-05-01T12:12:07.219Z</time></trkpt><trkpt lat="44.1376322" lon="12.2545317"><ele>48.0</ele><time>2026-05-01T12:12:08.211Z</time></trkpt><trkpt lat="44.1376933" lon="12.2545035"><ele>46.666666666666664</ele><time>2026-05-01T12:12:09.218Z</time></trkpt><trkpt lat="44.1377992" lon="12.2545142"><ele>45.33333333333333</ele><time>2026-05-01T12:12:11.22Z</time></trkpt><trkpt lat="44.1378471" lon="12.2545956"><ele>44.0</ele><time>2026-05-01T12:12:12.219Z</time></trkpt><trkpt lat="44.1378855" lon="12.2547109"><ele>44.75</ele><time>2026-05-01T12:12:13.218Z</time></trkpt><trkpt lat="44.1379156" lon="12.2548701"><ele>45.5</ele><time>2026-05-01T12:12:14.218Z</time></trkpt><trkpt lat="44.1379371" lon="12.2550458"><ele>46.25</ele><time>2026-05-01T12:12:15.219Z</time></trkpt><trkpt lat="44.1379684" lon="12.2552151"><ele>47.0</ele><time>2026-05-01T12:12:16.232Z</time></trkpt><trkpt lat="44.1379949" lon="12.2553897"><ele>47.0</ele><time>2026-05-01T12:12:17.219Z</time></trkpt><trkpt lat="44.1379999" lon="12.255559"><ele>47.0</ele><time>2026-05-01T12:12:18.226Z</time></trkpt><trkpt lat="44.1379868" lon="12.2557491"><ele>47.0</ele><time>2026-05-01T12:12:19.212Z</time></trkpt><trkpt lat="44.1379566" lon="12.2559541"><ele>47.0</ele><time>2026-05-01T12:12:20.219Z</time></trkpt><trkpt lat="44.1379138" lon="12.2561643"><ele>48.0</ele><time>2026-05-01T12:12:21.224Z</time></trkpt><trkpt lat="44.1378641" lon="12.2563912"><ele>49.0</ele><time>2026-05-01T12:12:22.211Z</time></trkpt><trkpt lat="44.1378074" lon="12.2566217"><ele>50.0</ele><time>2026-05-01T12:12:23.222Z</time></trkpt><trkpt lat="44.1377622" lon="12.256851"><ele>50.0</ele><time>2026-05-01T12:12:24.218Z</time></trkpt><trkpt lat="44.1377021" lon="12.2570719"><ele>50.0</ele><time>2026-05-01T12:12:25.219Z</time></trkpt><trkpt lat="44.1376407" lon="12.2573047"><ele>50.0</ele><time>2026-05-01T12:12:26.219Z</time></trkpt><trkpt lat="44.1375951" lon="12.2575449"><ele>48.66666666666667</ele><time>2026-05-01T12:12:27.22Z</time></trkpt><trkpt lat="44.1375506" lon="12.2577866"><ele>47.333333333333336</ele><time>2026-05-01T12:12:28.219Z</time></trkpt><trkpt lat="44.1375053" lon="12.2580069"><ele>46.0</ele><time>2026-05-01T12:12:29.226Z</time></trkpt><trkpt lat="44.1374601" lon="12.2582188"><ele>44.66666666666667</ele><time>2026-05-01T12:12:30.219Z</time></trkpt><trkpt lat="44.1373927" lon="12.258416"><ele>43.333333333333336</ele><time>2026-05-01T12:12:31.213Z</time></trkpt><trkpt lat="44.1372993" lon="12.2586092"><ele>42.0</ele><time>2026-05-01T12:12:32.214Z</time></trkpt><trkpt lat="44.1371885" lon="12.2587904"><ele>41.666666666666664</ele><time>2026-05-01T12:12:33.219Z</time></trkpt><trkpt lat="44.1370401" lon="12.2589731"><ele>41.33333333333333</ele><time>2026-05-01T12:12:34.218Z</time></trkpt><trkpt lat="44.1369034" lon="12.2591596"><ele>41.0</ele><time>2026-05-01T12:12:35.219Z</time></trkpt><trkpt lat="44.1367454" lon="12.259351"><ele>41.0</ele><time>2026-05-01T12:12:36.218Z</time></trkpt><trkpt lat="44.1366038" lon="12.259534"><ele>41.0</ele><time>2026-05-01T12:12:37.22Z</time></trkpt><trkpt lat="44.1364708" lon="12.2597146"><ele>41.0</ele><time>2026-05-01T12:12:38.212Z</time></trkpt><trkpt lat="44.1363229" lon="12.2598916"><ele>40.0</ele><time>2026-05-01T12:12:39.215Z</time></trkpt><trkpt lat="44.1361973" lon="12.2600586"><ele>39.0</ele><time>2026-05-01T12:12:40.219Z</time></trkpt><trkpt lat="44.1360705" lon="12.2602207"><ele>38.0</ele><time>2026-05-01T12:12:41.218Z</time></trkpt><trkpt lat="44.1359502" lon="12.2603727"><ele>38.0</ele><time>2026-05-01T12:12:42.223Z</time></trkpt><trkpt lat="44.1358348" lon="12.2605246"><ele>38.0</ele><time>2026-05-01T12:12:43.218Z</time></trkpt><trkpt lat="44.1357176" lon="12.2606723"><ele>38.0</ele><time>2026-05-01T12:12:44.226Z</time></trkpt><trkpt lat="44.1356101" lon="12.2608123"><ele>37.25</ele><time>2026-05-01T12:12:45.219Z</time></trkpt><trkpt lat="44.13551" lon="12.2609446"><ele>36.5</ele><time>2026-05-01T12:12:46.211Z</time></trkpt><trkpt lat="44.1354103" lon="12.2610714"><ele>35.75</ele><time>2026-05-01T12:12:47.215Z</time></trkpt><trkpt lat="44.135317" lon="12.2611824"><ele>35.0</ele><time>2026-05-01T12:12:48.219Z</time></trkpt><trkpt lat="44.1352265" lon="12.26126"><ele>35.0</ele><time>2026-05-01T12:12:49.218Z</time></trkpt><trkpt lat="44.1351438" lon="12.2613052"><ele>35.0</ele><time>2026-05-01T12:12:50.22Z</time></trkpt><trkpt lat="44.1350533" lon="12.2613237"><ele>35.0</ele><time>2026-05-01T12:12:51.219Z</time></trkpt><trkpt lat="44.1349615" lon="12.2613086"><ele>35.0</ele><time>2026-05-01T12:12:52.22Z</time></trkpt><trkpt lat="44.1348717" lon="12.261279"><ele>35.0</ele><time>2026-05-01T12:12:53.218Z</time></trkpt><trkpt lat="44.1347882" lon="12.2612759"><ele>35.0</ele><time>2026-05-01T12:12:54.233Z</time></trkpt><trkpt lat="44.1347032" lon="12.2613199"><ele>35.0</ele><time>2026-05-01T12:12:55.22Z</time></trkpt><trkpt lat="44.1346234" lon="12.2614046"><ele>35.0</ele><time>2026-05-01T12:12:56.219Z</time></trkpt><trkpt lat="44.1345552" lon="12.2615483"><ele>35.0</ele><time>2026-05-01T12:12:57.257Z</time></trkpt><trkpt lat="44.1345087" lon="12.2617061"><ele>35.0</ele><time>2026-05-01T12:12:58.224Z</time></trkpt><trkpt lat="44.1344317" lon="12.2618917"><ele>34.0</ele><time>2026-05-01T12:12:59.222Z</time></trkpt><trkpt lat="44.1343451" lon="12.2620875"><ele>33.0</ele><time>2026-05-01T12:13:00.224Z</time></trkpt><trkpt lat="44.1342625" lon="12.2622936"><ele>32.0</ele><time>2026-05-01T12:13:01.219Z</time></trkpt><trkpt lat="44.1341846" lon="12.2625071"><ele>32.0</ele><time>2026-05-01T12:13:02.222Z</time></trkpt><trkpt lat="44.1340984" lon="12.2627389"><ele>32.0</ele><time>2026-05-01T12:13:03.212Z</time></trkpt><trkpt lat="44.1340142" lon="12.2629453"><ele>32.0</ele><time>2026-05-01T12:13:04.218Z</time></trkpt><trkpt lat="44.1339198" lon="12.2631477"><ele>35.33333333333333</ele><time>2026-05-01T12:13:05.218Z</time></trkpt><trkpt lat="44.1338306" lon="12.2633404"><ele>38.666666666666664</ele><time>2026-05-01T12:13:06.22Z</time></trkpt><trkpt lat="44.1337392" lon="12.2635288"><ele>42.0</ele><time>2026-05-01T12:13:07.207Z</time></trkpt><trkpt lat="44.1336464" lon="12.2637104"><ele>42.0</ele><time>2026-05-01T12:13:08.219Z</time></trkpt><trkpt lat="44.1335472" lon="12.2638718"><ele>42.0</ele><time>2026-05-01T12:13:09.226Z</time></trkpt><trkpt lat="44.1334704" lon="12.2640215"><ele>42.0</ele><time>2026-05-01T12:13:10.22Z</time></trkpt><trkpt lat="44.1334068" lon="12.2641719"><ele>42.0</ele><time>2026-05-01T12:13:11.223Z</time></trkpt><trkpt lat="44.1333249" lon="12.2643133"><ele>41.5</ele><time>2026-05-01T12:13:12.219Z</time></trkpt><trkpt lat="44.1332496" lon="12.2644566"><ele>41.0</ele><time>2026-05-01T12:13:13.22Z</time></trkpt><trkpt lat="44.1331606" lon="12.2646062"><ele>40.5</ele><time>2026-05-01T12:13:14.239Z</time></trkpt><trkpt lat="44.1330753" lon="12.2647724"><ele>40.0</ele><time>2026-05-01T12:13:15.227Z</time></trkpt><trkpt lat="44.1329849" lon="12.2649472"><ele>38.66666666666667</ele><time>2026-05-01T12:13:16.228Z</time></trkpt><trkpt lat="44.1328995" lon="12.2651128"><ele>37.333333333333336</ele><time>2026-05-01T12:13:17.214Z</time></trkpt><trkpt lat="44.1328144" lon="12.2652804"><ele>36.0</ele><time>2026-05-01T12:13:18.219Z</time></trkpt><trkpt lat="44.1327297" lon="12.265466"><ele>35.666666666666664</ele><time>2026-05-01T12:13:19.232Z</time></trkpt><trkpt lat="44.1326511" lon="12.2656447"><ele>35.33333333333333</ele><time>2026-05-01T12:13:20.222Z</time></trkpt><trkpt lat="44.1325703" lon="12.2658274"><ele>35.0</ele><time>2026-05-01T12:13:21.221Z</time></trkpt><trkpt lat="44.1324941" lon="12.2660033"><ele>35.0</ele><time>2026-05-01T12:13:22.214Z</time></trkpt><trkpt lat="44.1324296" lon="12.2661834"><ele>35.0</ele><time>2026-05-01T12:13:23.219Z</time></trkpt><trkpt lat="44.1323523" lon="12.2663606"><ele>35.0</ele><time>2026-05-01T12:13:24.221Z</time></trkpt><trkpt lat="44.1322865" lon="12.2665355"><ele>35.0</ele><time>2026-05-01T12:13:25.212Z</time></trkpt><trkpt lat="44.1322202" lon="12.2667112"><ele>34.25</ele><time>2026-05-01T12:13:26.235Z</time></trkpt><trkpt lat="44.1321477" lon="12.2668896"><ele>33.5</ele><time>2026-05-01T12:13:27.225Z</time></trkpt><trkpt lat="44.1320828" lon="12.2670529"><ele>32.75</ele><time>2026-05-01T12:13:28.221Z</time></trkpt><trkpt lat="44.1320136" lon="12.2672102"><ele>32.0</ele><time>2026-05-01T12:13:29.227Z</time></trkpt><trkpt lat="44.1319603" lon="12.267369"><ele>32.0</ele><time>2026-05-01T12:13:30.216Z</time></trkpt><trkpt lat="44.1319078" lon="12.2675372"><ele>32.0</ele><time>2026-05-01T12:13:31.234Z</time></trkpt><trkpt lat="44.1318521" lon="12.2677035"><ele>32.0</ele><time>2026-05-01T12:13:32.219Z</time></trkpt><trkpt lat="44.1318015" lon="12.2678624"><ele>32.0</ele><time>2026-05-01T12:13:33.22Z</time></trkpt><trkpt lat="44.1317656" lon="12.26802"><ele>31.833333333333332</ele><time>2026-05-01T12:13:34.216Z</time></trkpt><trkpt lat="44.1317455" lon="12.2681758"><ele>31.666666666666664</ele><time>2026-05-01T12:13:35.219Z</time></trkpt><trkpt lat="44.1317231" lon="12.2682972"><ele>31.5</ele><time>2026-05-01T12:13:36.242Z</time></trkpt><trkpt lat="44.1317051" lon="12.2684106"><ele>31.333333333333336</ele><time>2026-05-01T12:13:37.212Z</time></trkpt><trkpt lat="44.1316761" lon="12.2684995"><ele>31.166666666666668</ele><time>2026-05-01T12:13:38.22Z</time></trkpt><trkpt lat="44.1316192" lon="12.2685652"><ele>31.0</ele><time>2026-05-01T12:13:39.214Z</time></trkpt><trkpt lat="44.1315641" lon="12.2686657"><ele>30.75</ele><time>2026-05-01T12:13:40.226Z</time></trkpt><trkpt lat="44.1315147" lon="12.2687915"><ele>30.5</ele><time>2026-05-01T12:13:41.211Z</time></trkpt><trkpt lat="44.131462" lon="12.2689555"><ele>30.25</ele><time>2026-05-01T12:13:42.212Z</time></trkpt><trkpt lat="44.131388" lon="12.2691334"><ele>30.0</ele><time>2026-05-01T12:13:43.218Z</time></trkpt><trkpt lat="44.13131" lon="12.2692984"><ele>31.0</ele><time>2026-05-01T12:13:44.211Z</time></trkpt><trkpt lat="44.1312328" lon="12.2694848"><ele>32.0</ele><time>2026-05-01T12:13:45.221Z</time></trkpt><trkpt lat="44.1311573" lon="12.269676"><ele>33.0</ele><time>2026-05-01T12:13:46.212Z</time></trkpt><trkpt lat="44.1310868" lon="12.269859"><ele>33.0</ele><time>2026-05-01T12:13:47.218Z</time></trkpt><trkpt lat="44.1310108" lon="12.2700479"><ele>33.0</ele><time>2026-05-01T12:13:48.219Z</time></trkpt><trkpt lat="44.1309281" lon="12.270235"><ele>33.0</ele><time>2026-05-01T12:13:49.224Z</time></trkpt><trkpt lat="44.1308235" lon="12.2704192"><ele>33.0</ele><time>2026-05-01T12:13:50.219Z</time></trkpt><trkpt lat="44.1306895" lon="12.2706151"><ele>33.0</ele><time>2026-05-01T12:13:51.227Z</time></trkpt><trkpt lat="44.1305452" lon="12.2708112"><ele>33.0</ele><time>2026-05-01T12:13:52.219Z</time></trkpt><trkpt lat="44.1303823" lon="12.2710125"><ele>33.0</ele><time>2026-05-01T12:13:53.221Z</time></trkpt><trkpt lat="44.1302" lon="12.2712193"><ele>33.0</ele><time>2026-05-01T12:13:54.211Z</time></trkpt><trkpt lat="44.1300212" lon="12.2714333"><ele>32.5</ele><time>2026-05-01T12:13:55.212Z</time></trkpt><trkpt lat="44.1298387" lon="12.2716523"><ele>32.0</ele><time>2026-05-01T12:13:56.219Z</time></trkpt><trkpt lat="44.1296782" lon="12.271872"><ele>32.0</ele><time>2026-05-01T12:13:57.223Z</time></trkpt><trkpt lat="44.129537" lon="12.2720852"><ele>32.0</ele><time>2026-05-01T12:13:58.219Z</time></trkpt><trkpt lat="44.1294065" lon="12.27231"><ele>32.0</ele><time>2026-05-01T12:13:59.23Z</time></trkpt><trkpt lat="44.1292915" lon="12.2725203"><ele>32.33333333333333</ele><time>2026-05-01T12:14:00.22Z</time></trkpt><trkpt lat="44.1291876" lon="12.2727291"><ele>32.666666666666664</ele><time>2026-05-01T12:14:01.22Z</time></trkpt><trkpt lat="44.1290924" lon="12.2729254"><ele>33.0</ele><time>2026-05-01T12:14:02.222Z</time></trkpt><trkpt lat="44.1290072" lon="12.2731301"><ele>32.333333333333336</ele><time>2026-05-01T12:14:03.219Z</time></trkpt><trkpt lat="44.1289208" lon="12.2733834"><ele>31.666666666666668</ele><time>2026-05-01T12:14:04.225Z</time></trkpt><trkpt lat="44.1288239" lon="12.2736317"><ele>31.0</ele><time>2026-05-01T12:14:05.219Z</time></trkpt><trkpt lat="44.12872" lon="12.2738924"><ele>32.0</ele><time>2026-05-01T12:14:06.221Z</time></trkpt><trkpt lat="44.128617" lon="12.2741718"><ele>33.0</ele><time>2026-05-01T12:14:07.215Z</time></trkpt><trkpt lat="44.1285175" lon="12.2744521"><ele>33.0</ele><time>2026-05-01T12:14:08.22Z</time></trkpt><trkpt lat="44.1284205" lon="12.2747304"><ele>33.0</ele><time>2026-05-01T12:14:09.209Z</time></trkpt><trkpt lat="44.1283151" lon="12.2750293"><ele>33.0</ele><time>2026-05-01T12:14:10.219Z</time></trkpt><trkpt lat="44.1282116" lon="12.2753267"><ele>33.0</ele><time>2026-05-01T12:14:11.209Z</time></trkpt><trkpt lat="44.1281112" lon="12.2756463"><ele>33.0</ele><time>2026-05-01T12:14:12.209Z</time></trkpt><trkpt lat="44.1280204" lon="12.2759649"><ele>33.0</ele><time>2026-05-01T12:14:13.219Z</time></trkpt><trkpt lat="44.1279276" lon="12.2762692"><ele>33.0</ele><time>2026-05-01T12:14:14.221Z</time></trkpt><trkpt lat="44.1278354" lon="12.2765833"><ele>33.0</ele><time>2026-05-01T12:14:15.212Z</time></trkpt><trkpt lat="44.1277459" lon="12.2768846"><ele>33.0</ele><time>2026-05-01T12:14:16.219Z</time></trkpt><trkpt lat="44.1276594" lon="12.2771721"><ele>33.0</ele><time>2026-05-01T12:14:17.219Z</time></trkpt><trkpt lat="44.1275684" lon="12.2774328"><ele>33.0</ele><time>2026-05-01T12:14:18.219Z</time></trkpt><trkpt lat="44.1274714" lon="12.2776772"><ele>33.333333333333336</ele><time>2026-05-01T12:14:19.22Z</time></trkpt><trkpt lat="44.1273749" lon="12.277924"><ele>33.66666666666667</ele><time>2026-05-01T12:14:20.216Z</time></trkpt><trkpt lat="44.1272828" lon="12.278149"><ele>34.0</ele><time>2026-05-01T12:14:21.213Z</time></trkpt><trkpt lat="44.1271948" lon="12.2783566"><ele>34.0</ele><time>2026-05-01T12:14:22.216Z</time></trkpt><trkpt lat="44.1271069" lon="12.2785574"><ele>34.0</ele><time>2026-05-01T12:14:23.212Z</time></trkpt><trkpt lat="44.1270231" lon="12.278744"><ele>34.0</ele><time>2026-05-01T12:14:24.219Z</time></trkpt><trkpt lat="44.1269502" lon="12.278923"><ele>33.75</ele><time>2026-05-01T12:14:25.219Z</time></trkpt><trkpt lat="44.1268792" lon="12.2790975"><ele>33.5</ele><time>2026-05-01T12:14:26.209Z</time></trkpt><trkpt lat="44.1268119" lon="12.2792722"><ele>33.25</ele><time>2026-05-01T12:14:27.233Z</time></trkpt><trkpt lat="44.126738" lon="12.2794484"><ele>33.0</ele><time>2026-05-01T12:14:28.214Z</time></trkpt><trkpt lat="44.1266669" lon="12.2796272"><ele>33.0</ele><time>2026-05-01T12:14:29.219Z</time></trkpt><trkpt lat="44.1265973" lon="12.2797943"><ele>33.0</ele><time>2026-05-01T12:14:30.235Z</time></trkpt><trkpt lat="44.1265241" lon="12.2799667"><ele>33.0</ele><time>2026-05-01T12:14:31.219Z</time></trkpt><trkpt lat="44.1264447" lon="12.2801411"><ele>33.0</ele><time>2026-05-01T12:14:32.233Z</time></trkpt><trkpt lat="44.1263597" lon="12.2803275"><ele>33.0</ele><time>2026-05-01T12:14:33.223Z</time></trkpt><trkpt lat="44.1262669" lon="12.2805278"><ele>33.0</ele><time>2026-05-01T12:14:34.209Z</time></trkpt><trkpt lat="44.1261707" lon="12.2807403"><ele>33.0</ele><time>2026-05-01T12:14:35.219Z</time></trkpt><trkpt lat="44.1260644" lon="12.2809569"><ele>33.0</ele><time>2026-05-01T12:14:36.219Z</time></trkpt><trkpt lat="44.1259653" lon="12.2811557"><ele>33.0</ele><time>2026-05-01T12:14:37.227Z</time></trkpt><trkpt lat="44.1258629" lon="12.2813565"><ele>33.0</ele><time>2026-05-01T12:14:38.22Z</time></trkpt><trkpt lat="44.1257481" lon="12.2815849"><ele>32.666666666666664</ele><time>2026-05-01T12:14:39.22Z</time></trkpt><trkpt lat="44.125626" lon="12.2818107"><ele>32.33333333333333</ele><time>2026-05-01T12:14:40.213Z</time></trkpt><trkpt lat="44.1254844" lon="12.2820489"><ele>32.0</ele><time>2026-05-01T12:14:41.218Z</time></trkpt><trkpt lat="44.1253494" lon="12.2823029"><ele>32.0</ele><time>2026-05-01T12:14:42.213Z</time></trkpt><trkpt lat="44.1252205" lon="12.2825654"><ele>32.0</ele><time>2026-05-01T12:14:43.21Z</time></trkpt><trkpt lat="44.1250989" lon="12.2828739"><ele>32.0</ele><time>2026-05-01T12:14:44.208Z</time></trkpt><trkpt lat="44.1249975" lon="12.2831945"><ele>32.0</ele><time>2026-05-01T12:14:45.22Z</time></trkpt><trkpt lat="44.1249045" lon="12.2835442"><ele>32.0</ele><time>2026-05-01T12:14:46.226Z</time></trkpt><trkpt lat="44.1248304" lon="12.2838963"><ele>32.0</ele><time>2026-05-01T12:14:47.218Z</time></trkpt><trkpt lat="44.1247598" lon="12.2842437"><ele>32.0</ele><time>2026-05-01T12:14:48.232Z</time></trkpt><trkpt lat="44.1246908" lon="12.2845956"><ele>32.0</ele><time>2026-05-01T12:14:49.219Z</time></trkpt><trkpt lat="44.1246216" lon="12.2849341"><ele>32.0</ele><time>2026-05-01T12:14:50.22Z</time></trkpt><trkpt lat="44.1245376" lon="12.2852776"><ele>32.0</ele><time>2026-05-01T12:14:51.217Z</time></trkpt><trkpt lat="44.124433" lon="12.2856121"><ele>32.0</ele><time>2026-05-01T12:14:52.208Z</time></trkpt><trkpt lat="44.1243267" lon="12.2859"><ele>32.0</ele><time>2026-05-01T12:14:53.221Z</time></trkpt><trkpt lat="44.1242141" lon="12.2861539"><ele>32.0</ele><time>2026-05-01T12:14:54.219Z</time></trkpt><trkpt lat="44.1240909" lon="12.2863953"><ele>32.666666666666664</ele><time>2026-05-01T12:14:55.228Z</time></trkpt><trkpt lat="44.1239636" lon="12.2866411"><ele>33.333333333333336</ele><time>2026-05-01T12:14:56.211Z</time></trkpt><trkpt lat="44.1238407" lon="12.2868946"><ele>34.0</ele><time>2026-05-01T12:14:57.209Z</time></trkpt><trkpt lat="44.1237164" lon="12.2871528"><ele>34.0</ele><time>2026-05-01T12:14:58.219Z</time></trkpt><trkpt lat="44.123586" lon="12.2874192"><ele>34.0</ele><time>2026-05-01T12:14:59.21Z</time></trkpt><trkpt lat="44.1234404" lon="12.287713"><ele>34.0</ele><time>2026-05-01T12:15:00.222Z</time></trkpt><trkpt lat="44.1232955" lon="12.2879915"><ele>34.0</ele><time>2026-05-01T12:15:01.214Z</time></trkpt><trkpt lat="44.1231481" lon="12.2882846"><ele>34.0</ele><time>2026-05-01T12:15:02.219Z</time></trkpt><trkpt lat="44.1229965" lon="12.2885858"><ele>34.0</ele><time>2026-05-01T12:15:03.22Z</time></trkpt><trkpt lat="44.1228492" lon="12.2888706"><ele>34.0</ele><time>2026-05-01T12:15:04.218Z</time></trkpt><trkpt lat="44.1227045" lon="12.2891569"><ele>34.0</ele><time>2026-05-01T12:15:05.22Z</time></trkpt><trkpt lat="44.1225618" lon="12.2894286"><ele>34.0</ele><time>2026-05-01T12:15:06.218Z</time></trkpt><trkpt lat="44.1224221" lon="12.2896913"><ele>34.0</ele><time>2026-05-01T12:15:07.214Z</time></trkpt><trkpt lat="44.1222797" lon="12.289969"><ele>34.0</ele><time>2026-05-01T12:15:08.233Z</time></trkpt><trkpt lat="44.1221471" lon="12.2902236"><ele>34.0</ele><time>2026-05-01T12:15:09.223Z</time></trkpt><trkpt lat="44.1220072" lon="12.2904777"><ele>34.0</ele><time>2026-05-01T12:15:10.219Z</time></trkpt><trkpt lat="44.1218554" lon="12.2907271"><ele>34.0</ele><time>2026-05-01T12:15:11.211Z</time></trkpt><trkpt lat="44.1216938" lon="12.2909701"><ele>34.0</ele><time>2026-05-01T12:15:12.219Z</time></trkpt><trkpt lat="44.121515" lon="12.2912251"><ele>34.0</ele><time>2026-05-01T12:15:13.219Z</time></trkpt><trkpt lat="44.1213331" lon="12.291483"><ele>34.0</ele><time>2026-05-01T12:15:14.211Z</time></trkpt><trkpt lat="44.1211495" lon="12.2917718"><ele>34.0</ele><time>2026-05-01T12:15:15.219Z</time></trkpt><trkpt lat="44.120966" lon="12.2920956"><ele>33.5</ele><time>2026-05-01T12:15:16.211Z</time></trkpt><trkpt lat="44.1208203" lon="12.2924169"><ele>33.0</ele><time>2026-05-01T12:15:17.229Z</time></trkpt><trkpt lat="44.1206971" lon="12.2927278"><ele>34.0</ele><time>2026-05-01T12:15:18.218Z</time></trkpt><trkpt lat="44.1205768" lon="12.2930461"><ele>35.0</ele><time>2026-05-01T12:15:19.219Z</time></trkpt><trkpt lat="44.1204674" lon="12.2933371"><ele>35.33333333333333</ele><time>2026-05-01T12:15:20.218Z</time></trkpt><trkpt lat="44.1203678" lon="12.2935966"><ele>35.666666666666664</ele><time>2026-05-01T12:15:21.219Z</time></trkpt><trkpt lat="44.1202705" lon="12.2938422"><ele>36.0</ele><time>2026-05-01T12:15:22.226Z</time></trkpt><trkpt lat="44.1201735" lon="12.2940803"><ele>36.0</ele><time>2026-05-01T12:15:23.21Z</time></trkpt><trkpt lat="44.1200837" lon="12.2943089"><ele>36.0</ele><time>2026-05-01T12:15:24.215Z</time></trkpt><trkpt lat="44.1199936" lon="12.2945307"><ele>36.0</ele><time>2026-05-01T12:15:25.217Z</time></trkpt><trkpt lat="44.1199005" lon="12.2947592"><ele>36.333333333333336</ele><time>2026-05-01T12:15:26.228Z</time></trkpt><trkpt lat="44.1198085" lon="12.2950152"><ele>36.66666666666667</ele><time>2026-05-01T12:15:27.226Z</time></trkpt><trkpt lat="44.1197099" lon="12.2952871"><ele>37.0</ele><time>2026-05-01T12:15:28.218Z</time></trkpt><trkpt lat="44.1195975" lon="12.2955988"><ele>36.0</ele><time>2026-05-01T12:15:29.219Z</time></trkpt><trkpt lat="44.119481" lon="12.2959077"><ele>35.0</ele><time>2026-05-01T12:15:30.212Z</time></trkpt><trkpt lat="44.1193555" lon="12.2962292"><ele>34.5</ele><time>2026-05-01T12:15:31.227Z</time></trkpt><trkpt lat="44.1192306" lon="12.2965538"><ele>34.0</ele><time>2026-05-01T12:15:32.224Z</time></trkpt><trkpt lat="44.1191109" lon="12.2968885"><ele>35.0</ele><time>2026-05-01T12:15:33.219Z</time></trkpt><trkpt lat="44.1189927" lon="12.2972192"><ele>36.0</ele><time>2026-05-01T12:15:34.208Z</time></trkpt><trkpt lat="44.118871" lon="12.2975849"><ele>36.0</ele><time>2026-05-01T12:15:35.218Z</time></trkpt><trkpt lat="44.1187477" lon="12.2979375"><ele>36.0</ele><time>2026-05-01T12:15:36.213Z</time></trkpt><trkpt lat="44.1186291" lon="12.2982801"><ele>35.0</ele><time>2026-05-01T12:15:37.211Z</time></trkpt><trkpt lat="44.1184964" lon="12.2986273"><ele>34.0</ele><time>2026-05-01T12:15:38.213Z</time></trkpt><trkpt lat="44.118381" lon="12.2989858"><ele>34.0</ele><time>2026-05-01T12:15:39.219Z</time></trkpt><trkpt lat="44.1182543" lon="12.2993525"><ele>34.0</ele><time>2026-05-01T12:15:40.217Z</time></trkpt><trkpt lat="44.1181443" lon="12.2996981"><ele>33.5</ele><time>2026-05-01T12:15:41.214Z</time></trkpt><trkpt lat="44.1179864" lon="12.3000631"><ele>33.0</ele><time>2026-05-01T12:15:42.225Z</time></trkpt><trkpt lat="44.1178482" lon="12.300406"><ele>33.0</ele><time>2026-05-01T12:15:43.218Z</time></trkpt><trkpt lat="44.1176971" lon="12.3007221"><ele>33.0</ele><time>2026-05-01T12:15:44.214Z</time></trkpt><trkpt lat="44.1175415" lon="12.3010427"><ele>33.0</ele><time>2026-05-01T12:15:45.212Z</time></trkpt><trkpt lat="44.1173942" lon="12.301358"><ele>33.0</ele><time>2026-05-01T12:15:46.219Z</time></trkpt><trkpt lat="44.1172318" lon="12.3016683"><ele>33.0</ele><time>2026-05-01T12:15:47.208Z</time></trkpt><trkpt lat="44.1170631" lon="12.3019951"><ele>33.0</ele><time>2026-05-01T12:15:48.227Z</time></trkpt><trkpt lat="44.1168468" lon="12.302303"><ele>33.5</ele><time>2026-05-01T12:15:49.22Z</time></trkpt><trkpt lat="44.1166738" lon="12.3026341"><ele>34.0</ele><time>2026-05-01T12:15:50.22Z</time></trkpt><trkpt lat="44.116501" lon="12.3029672"><ele>34.5</ele><time>2026-05-01T12:15:51.224Z</time></trkpt><trkpt lat="44.1163383" lon="12.3032995"><ele>35.0</ele><time>2026-05-01T12:15:52.219Z</time></trkpt><trkpt lat="44.1161552" lon="12.3036456"><ele>35.0</ele><time>2026-05-01T12:15:53.227Z</time></trkpt><trkpt lat="44.1159731" lon="12.3039564"><ele>35.0</ele><time>2026-05-01T12:15:54.211Z</time></trkpt><trkpt lat="44.1157692" lon="12.3042525"><ele>35.0</ele><time>2026-05-01T12:15:55.22Z</time></trkpt><trkpt lat="44.1156144" lon="12.3045415"><ele>35.0</ele><time>2026-05-01T12:15:56.219Z</time></trkpt><trkpt lat="44.1154843" lon="12.304774"><ele>35.33333333333333</ele><time>2026-05-01T12:15:57.22Z</time></trkpt><trkpt lat="44.1153486" lon="12.3050066"><ele>35.666666666666664</ele><time>2026-05-01T12:15:58.21Z</time></trkpt><trkpt lat="44.1152428" lon="12.3051915"><ele>36.0</ele><time>2026-05-01T12:15:59.222Z</time></trkpt><trkpt lat="44.1151296" lon="12.305381"><ele>36.0</ele><time>2026-05-01T12:16:00.215Z</time></trkpt><trkpt lat="44.1150187" lon="12.305553"><ele>36.0</ele><time>2026-05-01T12:16:01.218Z</time></trkpt><trkpt lat="44.1148938" lon="12.3057059"><ele>36.0</ele><time>2026-05-01T12:16:02.218Z</time></trkpt><trkpt lat="44.1147611" lon="12.3058456"><ele>35.666666666666664</ele><time>2026-05-01T12:16:03.219Z</time></trkpt><trkpt lat="44.1146523" lon="12.3060134"><ele>35.33333333333333</ele><time>2026-05-01T12:16:04.218Z</time></trkpt><trkpt lat="44.1145392" lon="12.3061718"><ele>35.0</ele><time>2026-05-01T12:16:05.213Z</time></trkpt><trkpt lat="44.1144512" lon="12.3063334"><ele>35.0</ele><time>2026-05-01T12:16:06.218Z</time></trkpt><trkpt lat="44.1144087" lon="12.3065126"><ele>35.0</ele><time>2026-05-01T12:16:07.219Z</time></trkpt><trkpt lat="44.1144444" lon="12.3067767"><ele>35.0</ele><time>2026-05-01T12:16:08.228Z</time></trkpt><trkpt lat="44.1144151" lon="12.3069906"><ele>35.0</ele><time>2026-05-01T12:16:09.212Z</time></trkpt><trkpt lat="44.114378" lon="12.3072218"><ele>35.0</ele><time>2026-05-01T12:16:10.219Z</time></trkpt><trkpt lat="44.1142459" lon="12.3075292"><ele>35.0</ele><time>2026-05-01T12:16:11.218Z</time></trkpt><trkpt lat="44.1141085" lon="12.3077831"><ele>36.0</ele><time>2026-05-01T12:16:12.211Z</time></trkpt><trkpt lat="44.1139783" lon="12.3080551"><ele>37.0</ele><time>2026-05-01T12:16:13.238Z</time></trkpt><trkpt lat="44.1138532" lon="12.3083333"><ele>37.5</ele><time>2026-05-01T12:16:14.218Z</time></trkpt><trkpt lat="44.1137249" lon="12.3086308"><ele>38.0</ele><time>2026-05-01T12:16:15.216Z</time></trkpt><trkpt lat="44.1135801" lon="12.308937"><ele>38.0</ele><time>2026-05-01T12:16:16.221Z</time></trkpt><trkpt lat="44.1134089" lon="12.3092344"><ele>38.0</ele><time>2026-05-01T12:16:17.218Z</time></trkpt><trkpt lat="44.113265" lon="12.3095403"><ele>37.5</ele><time>2026-05-01T12:16:18.229Z</time></trkpt><trkpt lat="44.1130944" lon="12.3098299"><ele>37.0</ele><time>2026-05-01T12:16:19.218Z</time></trkpt><trkpt lat="44.1129594" lon="12.310153"><ele>37.0</ele><time>2026-05-01T12:16:20.206Z</time></trkpt><trkpt lat="44.1128026" lon="12.3104691"><ele>37.0</ele><time>2026-05-01T12:16:21.213Z</time></trkpt><trkpt lat="44.1126609" lon="12.3107796"><ele>37.5</ele><time>2026-05-01T12:16:22.21Z</time></trkpt><trkpt lat="44.1125054" lon="12.3110937"><ele>38.0</ele><time>2026-05-01T12:16:23.212Z</time></trkpt><trkpt lat="44.112349" lon="12.3113842"><ele>37.5</ele><time>2026-05-01T12:16:24.212Z</time></trkpt><trkpt lat="44.1122069" lon="12.3116742"><ele>37.0</ele><time>2026-05-01T12:16:25.212Z</time></trkpt><trkpt lat="44.1120524" lon="12.3120085"><ele>37.0</ele><time>2026-05-01T12:16:26.224Z</time></trkpt><trkpt lat="44.1118752" lon="12.3123418"><ele>37.0</ele><time>2026-05-01T12:16:27.208Z</time></trkpt><trkpt lat="44.1117421" lon="12.3126615"><ele>37.0</ele><time>2026-05-01T12:16:28.219Z</time></trkpt><trkpt lat="44.1116196" lon="12.3129679"><ele>37.0</ele><time>2026-05-01T12:16:29.216Z</time></trkpt><trkpt lat="44.1115165" lon="12.3132873"><ele>37.5</ele><time>2026-05-01T12:16:30.208Z</time></trkpt><trkpt lat="44.1113996" lon="12.313564"><ele>38.0</ele><time>2026-05-01T12:16:31.211Z</time></trkpt><trkpt lat="44.1112887" lon="12.3138635"><ele>38.0</ele><time>2026-05-01T12:16:32.218Z</time></trkpt><trkpt lat="44.1111874" lon="12.3140893"><ele>38.0</ele><time>2026-05-01T12:16:33.217Z</time></trkpt><trkpt lat="44.1110815" lon="12.3143529"><ele>38.0</ele><time>2026-05-01T12:16:34.219Z</time></trkpt><trkpt lat="44.1109912" lon="12.3146472"><ele>37.5</ele><time>2026-05-01T12:16:35.224Z</time></trkpt><trkpt lat="44.1108666" lon="12.3149214"><ele>37.0</ele><time>2026-05-01T12:16:36.222Z</time></trkpt><trkpt lat="44.1107529" lon="12.3152317"><ele>37.5</ele><time>2026-05-01T12:16:37.211Z</time></trkpt><trkpt lat="44.1106422" lon="12.3155674"><ele>38.0</ele><time>2026-05-01T12:16:38.219Z</time></trkpt><trkpt lat="44.1105212" lon="12.3158843"><ele>38.0</ele><time>2026-05-01T12:16:39.214Z</time></trkpt><trkpt lat="44.1104066" lon="12.3162068"><ele>38.0</ele><time>2026-05-01T12:16:40.209Z</time></trkpt><trkpt lat="44.1103023" lon="12.3164942"><ele>38.0</ele><time>2026-05-01T12:16:41.22Z</time></trkpt><trkpt lat="44.1102024" lon="12.3167767"><ele>38.0</ele><time>2026-05-01T12:16:42.218Z</time></trkpt><trkpt lat="44.1101117" lon="12.3170676"><ele>38.0</ele><time>2026-05-01T12:16:43.22Z</time></trkpt><trkpt lat="44.1100282" lon="12.3173321"><ele>38.0</ele><time>2026-05-01T12:16:44.222Z</time></trkpt><trkpt lat="44.1099859" lon="12.3175333"><ele>38.0</ele><time>2026-05-01T12:16:45.219Z</time></trkpt><trkpt lat="44.1099071" lon="12.3177359"><ele>38.0</ele><time>2026-05-01T12:16:46.218Z</time></trkpt><trkpt lat="44.1098505" lon="12.3179314"><ele>38.0</ele><time>2026-05-01T12:16:47.209Z</time></trkpt><trkpt lat="44.1098025" lon="12.3180647"><ele>38.0</ele><time>2026-05-01T12:16:48.219Z</time></trkpt><trkpt lat="44.109743" lon="12.3181626"><ele>38.0</ele><time>2026-05-01T12:16:49.219Z</time></trkpt><trkpt lat="44.1096989" lon="12.3182291"><ele>38.0</ele><time>2026-05-01T12:16:50.207Z</time></trkpt><trkpt lat="44.1096396" lon="12.3182852"><ele>37.83333333333333</ele><time>2026-05-01T12:16:51.219Z</time></trkpt><trkpt lat="44.1095387" lon="12.3183275"><ele>37.666666666666664</ele><time>2026-05-01T12:16:53.21Z</time></trkpt><trkpt lat="44.109478" lon="12.3183546"><ele>37.5</ele><time>2026-05-01T12:16:54.223Z</time></trkpt><trkpt lat="44.1094124" lon="12.3184869"><ele>37.333333333333336</ele><time>2026-05-01T12:16:56.218Z</time></trkpt><trkpt lat="44.1094243" lon="12.3186076"><ele>37.16666666666667</ele><time>2026-05-01T12:16:57.239Z</time></trkpt><trkpt lat="44.1094441" lon="12.3187073"><ele>37.0</ele><time>2026-05-01T12:16:58.218Z</time></trkpt><trkpt lat="44.1094717" lon="12.3188205"><ele>36.800000000000004</ele><time>2026-05-01T12:16:59.217Z</time></trkpt><trkpt lat="44.1095009" lon="12.3189273"><ele>36.6</ele><time>2026-05-01T12:17:00.223Z</time></trkpt><trkpt lat="44.10953" lon="12.319032"><ele>36.400000000000006</ele><time>2026-05-01T12:17:01.218Z</time></trkpt><trkpt lat="44.1094996" lon="12.3191961"><ele>36.2</ele><time>2026-05-01T12:17:02.226Z</time></trkpt><trkpt lat="44.1094792" lon="12.3193305"><ele>36.0</ele><time>2026-05-01T12:17:03.216Z</time></trkpt><trkpt lat="44.1094515" lon="12.3194722"><ele>36.0</ele><time>2026-05-01T12:17:04.213Z</time></trkpt><trkpt lat="44.1094279" lon="12.319635"><ele>36.0</ele><time>2026-05-01T12:17:05.226Z</time></trkpt><trkpt lat="44.1093654" lon="12.3199164"><ele>36.0</ele><time>2026-05-01T12:17:06.216Z</time></trkpt><trkpt lat="44.1093017" lon="12.3201396"><ele>36.0</ele><time>2026-05-01T12:17:07.227Z</time></trkpt><trkpt lat="44.1092326" lon="12.3203433"><ele>36.0</ele><time>2026-05-01T12:17:08.218Z</time></trkpt><trkpt lat="44.109152" lon="12.3205914"><ele>36.0</ele><time>2026-05-01T12:17:09.219Z</time></trkpt><trkpt lat="44.1090679" lon="12.320834"><ele>36.333333333333336</ele><time>2026-05-01T12:17:10.219Z</time></trkpt><trkpt lat="44.1089686" lon="12.3210763"><ele>36.66666666666667</ele><time>2026-05-01T12:17:11.211Z</time></trkpt><trkpt lat="44.1088762" lon="12.3213243"><ele>37.0</ele><time>2026-05-01T12:17:12.219Z</time></trkpt><trkpt lat="44.1087697" lon="12.321577"><ele>37.0</ele><time>2026-05-01T12:17:13.21Z</time></trkpt><trkpt lat="44.1086551" lon="12.3218256"><ele>37.0</ele><time>2026-05-01T12:17:14.218Z</time></trkpt><trkpt lat="44.1085492" lon="12.3220722"><ele>37.0</ele><time>2026-05-01T12:17:15.211Z</time></trkpt><trkpt lat="44.1084551" lon="12.3223302"><ele>36.66666666666667</ele><time>2026-05-01T12:17:16.217Z</time></trkpt><trkpt lat="44.1083628" lon="12.3225814"><ele>36.333333333333336</ele><time>2026-05-01T12:17:17.208Z</time></trkpt><trkpt lat="44.1082511" lon="12.3228227"><ele>36.0</ele><time>2026-05-01T12:17:18.221Z</time></trkpt><trkpt lat="44.1081462" lon="12.3230721"><ele>36.666666666666664</ele><time>2026-05-01T12:17:19.218Z</time></trkpt><trkpt lat="44.1080643" lon="12.3233345"><ele>37.33333333333333</ele><time>2026-05-01T12:17:20.211Z</time></trkpt><trkpt lat="44.1079637" lon="12.3235826"><ele>38.0</ele><time>2026-05-01T12:17:21.208Z</time></trkpt><trkpt lat="44.1078606" lon="12.3238291"><ele>38.0</ele><time>2026-05-01T12:17:22.21Z</time></trkpt><trkpt lat="44.1077756" lon="12.3240907"><ele>38.0</ele><time>2026-05-01T12:17:23.221Z</time></trkpt><trkpt lat="44.1076954" lon="12.3243591"><ele>38.0</ele><time>2026-05-01T12:17:24.218Z</time></trkpt><trkpt lat="44.1076146" lon="12.324625"><ele>37.666666666666664</ele><time>2026-05-01T12:17:25.223Z</time></trkpt><trkpt lat="44.1075468" lon="12.3249245"><ele>37.333333333333336</ele><time>2026-05-01T12:17:26.219Z</time></trkpt><trkpt lat="44.1075038" lon="12.325159"><ele>37.0</ele><time>2026-05-01T12:17:27.219Z</time></trkpt><trkpt lat="44.1074704" lon="12.3254375"><ele>36.66666666666667</ele><time>2026-05-01T12:17:28.208Z</time></trkpt><trkpt lat="44.1074274" lon="12.3257178"><ele>36.333333333333336</ele><time>2026-05-01T12:17:29.21Z</time></trkpt><trkpt lat="44.107381" lon="12.3259925"><ele>36.0</ele><time>2026-05-01T12:17:30.219Z</time></trkpt><trkpt lat="44.1073279" lon="12.3262724"><ele>36.0</ele><time>2026-05-01T12:17:31.208Z</time></trkpt><trkpt lat="44.1072655" lon="12.3265357"><ele>36.0</ele><time>2026-05-01T12:17:32.206Z</time></trkpt><trkpt lat="44.1071845" lon="12.3268166"><ele>36.0</ele><time>2026-05-01T12:17:33.21Z</time></trkpt><trkpt lat="44.1070864" lon="12.3270959"><ele>35.333333333333336</ele><time>2026-05-01T12:17:34.218Z</time></trkpt><trkpt lat="44.1069886" lon="12.3273686"><ele>34.66666666666667</ele><time>2026-05-01T12:17:35.209Z</time></trkpt><trkpt lat="44.1068943" lon="12.3276569"><ele>34.0</ele><time>2026-05-01T12:17:36.222Z</time></trkpt><trkpt lat="44.106806" lon="12.3279447"><ele>34.0</ele><time>2026-05-01T12:17:37.211Z</time></trkpt><trkpt lat="44.1067165" lon="12.3282341"><ele>34.0</ele><time>2026-05-01T12:17:38.22Z</time></trkpt><trkpt lat="44.1066316" lon="12.3285294"><ele>34.5</ele><time>2026-05-01T12:17:39.208Z</time></trkpt><trkpt lat="44.106545" lon="12.3288241"><ele>35.0</ele><time>2026-05-01T12:17:40.212Z</time></trkpt><trkpt lat="44.1064604" lon="12.3291468"><ele>35.0</ele><time>2026-05-01T12:17:41.218Z</time></trkpt><trkpt lat="44.1063856" lon="12.3294212"><ele>35.0</ele><time>2026-05-01T12:17:42.22Z</time></trkpt><trkpt lat="44.1063132" lon="12.3296847"><ele>35.0</ele><time>2026-05-01T12:17:43.209Z</time></trkpt><trkpt lat="44.1062453" lon="12.3299531"><ele>35.0</ele><time>2026-05-01T12:17:44.219Z</time></trkpt><trkpt lat="44.1061783" lon="12.3301987"><ele>35.0</ele><time>2026-05-01T12:17:45.21Z</time></trkpt><trkpt lat="44.1061207" lon="12.3304618"><ele>35.0</ele><time>2026-05-01T12:17:46.21Z</time></trkpt><trkpt lat="44.1060591" lon="12.3307076"><ele>35.0</ele><time>2026-05-01T12:17:47.224Z</time></trkpt><trkpt lat="44.105998" lon="12.3309395"><ele>35.0</ele><time>2026-05-01T12:17:48.218Z</time></trkpt><trkpt lat="44.1059431" lon="12.3311699"><ele>35.0</ele><time>2026-05-01T12:17:49.221Z</time></trkpt><trkpt lat="44.1058703" lon="12.3313947"><ele>35.0</ele><time>2026-05-01T12:17:50.211Z</time></trkpt><trkpt lat="44.1058226" lon="12.3316087"><ele>35.0</ele><time>2026-05-01T12:17:51.206Z</time></trkpt><trkpt lat="44.1057593" lon="12.3318349"><ele>35.0</ele><time>2026-05-01T12:17:52.218Z</time></trkpt><trkpt lat="44.1057016" lon="12.3320466"><ele>34.666666666666664</ele><time>2026-05-01T12:17:53.218Z</time></trkpt><trkpt lat="44.1056314" lon="12.332252"><ele>34.333333333333336</ele><time>2026-05-01T12:17:54.208Z</time></trkpt><trkpt lat="44.1055622" lon="12.3324477"><ele>34.0</ele><time>2026-05-01T12:17:55.218Z</time></trkpt><trkpt lat="44.1054875" lon="12.332648"><ele>34.0</ele><time>2026-05-01T12:17:56.216Z</time></trkpt><trkpt lat="44.1054173" lon="12.3328549"><ele>34.0</ele><time>2026-05-01T12:17:57.209Z</time></trkpt><trkpt lat="44.1053475" lon="12.3330646"><ele>34.0</ele><time>2026-05-01T12:17:58.244Z</time></trkpt><trkpt lat="44.105278" lon="12.3332842"><ele>34.0</ele><time>2026-05-01T12:17:59.211Z</time></trkpt><trkpt lat="44.1051924" lon="12.3335169"><ele>34.0</ele><time>2026-05-01T12:18:00.209Z</time></trkpt><trkpt lat="44.1051174" lon="12.3337816"><ele>34.0</ele><time>2026-05-01T12:18:01.208Z</time></trkpt><trkpt lat="44.1050247" lon="12.3340256"><ele>34.0</ele><time>2026-05-01T12:18:02.209Z</time></trkpt><trkpt lat="44.1049126" lon="12.334321"><ele>34.0</ele><time>2026-05-01T12:18:03.212Z</time></trkpt><trkpt lat="44.1047713" lon="12.3346194"><ele>33.5</ele><time>2026-05-01T12:18:04.225Z</time></trkpt><trkpt lat="44.1046387" lon="12.3349762"><ele>33.0</ele><time>2026-05-01T12:18:05.217Z</time></trkpt><trkpt lat="44.1045135" lon="12.335291"><ele>33.0</ele><time>2026-05-01T12:18:06.215Z</time></trkpt><trkpt lat="44.1043848" lon="12.335568"><ele>33.0</ele><time>2026-05-01T12:18:07.225Z</time></trkpt><trkpt lat="44.1042766" lon="12.3358338"><ele>33.0</ele><time>2026-05-01T12:18:08.224Z</time></trkpt><trkpt lat="44.1041757" lon="12.3361022"><ele>33.0</ele><time>2026-05-01T12:18:09.219Z</time></trkpt><trkpt lat="44.1040409" lon="12.336336"><ele>33.0</ele><time>2026-05-01T12:18:10.223Z</time></trkpt><trkpt lat="44.103934" lon="12.3365424"><ele>32.666666666666664</ele><time>2026-05-01T12:18:11.218Z</time></trkpt><trkpt lat="44.1038295" lon="12.3367339"><ele>32.33333333333333</ele><time>2026-05-01T12:18:12.233Z</time></trkpt><trkpt lat="44.1037226" lon="12.336918"><ele>32.0</ele><time>2026-05-01T12:18:13.227Z</time></trkpt><trkpt lat="44.1036384" lon="12.337101"><ele>31.75</ele><time>2026-05-01T12:18:14.218Z</time></trkpt><trkpt lat="44.1035457" lon="12.3372649"><ele>31.5</ele><time>2026-05-01T12:18:15.224Z</time></trkpt><trkpt lat="44.103463" lon="12.337424"><ele>31.25</ele><time>2026-05-01T12:18:16.218Z</time></trkpt><trkpt lat="44.103394" lon="12.3375494"><ele>31.0</ele><time>2026-05-01T12:18:17.236Z</time></trkpt><trkpt lat="44.1033235" lon="12.3376867"><ele>31.0</ele><time>2026-05-01T12:18:18.221Z</time></trkpt><trkpt lat="44.103258" lon="12.3378032"><ele>31.0</ele><time>2026-05-01T12:18:19.218Z</time></trkpt><trkpt lat="44.1031929" lon="12.337918"><ele>31.0</ele><time>2026-05-01T12:18:20.207Z</time></trkpt><trkpt lat="44.1031332" lon="12.338023"><ele>31.0</ele><time>2026-05-01T12:18:21.221Z</time></trkpt><trkpt lat="44.1030729" lon="12.3381081"><ele>31.0</ele><time>2026-05-01T12:18:22.218Z</time></trkpt><trkpt lat="44.1030318" lon="12.3381874"><ele>30.833333333333336</ele><time>2026-05-01T12:18:23.234Z</time></trkpt><trkpt lat="44.1029623" lon="12.3382729"><ele>30.666666666666668</ele><time>2026-05-01T12:18:24.209Z</time></trkpt><trkpt lat="44.1028989" lon="12.3383145"><ele>30.5</ele><time>2026-05-01T12:18:25.212Z</time></trkpt><trkpt lat="44.1028215" lon="12.33835"><ele>30.333333333333336</ele><time>2026-05-01T12:18:26.211Z</time></trkpt><trkpt lat="44.1027502" lon="12.3384011"><ele>30.166666666666668</ele><time>2026-05-01T12:18:27.21Z</time></trkpt><trkpt lat="44.1026725" lon="12.3384412"><ele>30.0</ele><time>2026-05-01T12:18:28.222Z</time></trkpt><trkpt lat="44.1026148" lon="12.3385151"><ele>30.0</ele><time>2026-05-01T12:18:29.206Z</time></trkpt><trkpt lat="44.1025599" lon="12.3386094"><ele>30.0</ele><time>2026-05-01T12:18:30.213Z</time></trkpt><trkpt lat="44.1025241" lon="12.3387342"><ele>30.0</ele><time>2026-05-01T12:18:31.219Z</time></trkpt><trkpt lat="44.1025134" lon="12.3388679"><ele>30.0</ele><time>2026-05-01T12:18:32.208Z</time></trkpt><trkpt lat="44.102501" lon="12.3390068"><ele>30.0</ele><time>2026-05-01T12:18:33.217Z</time></trkpt><trkpt lat="44.1024625" lon="12.3391553"><ele>30.25</ele><time>2026-05-01T12:18:34.214Z</time></trkpt><trkpt lat="44.1024146" lon="12.3392932"><ele>30.5</ele><time>2026-05-01T12:18:35.22Z</time></trkpt><trkpt lat="44.1023514" lon="12.3394295"><ele>30.75</ele><time>2026-05-01T12:18:36.218Z</time></trkpt><trkpt lat="44.1022722" lon="12.3395828"><ele>31.0</ele><time>2026-05-01T12:18:37.219Z</time></trkpt><trkpt lat="44.1021928" lon="12.3397303"><ele>30.333333333333336</ele><time>2026-05-01T12:18:38.207Z</time></trkpt><trkpt lat="44.1021098" lon="12.3398918"><ele>29.666666666666664</ele><time>2026-05-01T12:18:39.209Z</time></trkpt><trkpt lat="44.1020005" lon="12.3401036"><ele>29.0</ele><time>2026-05-01T12:18:40.224Z</time></trkpt><trkpt lat="44.1018352" lon="12.340374"><ele>29.0</ele><time>2026-05-01T12:18:41.219Z</time></trkpt><trkpt lat="44.1016798" lon="12.3406406"><ele>29.0</ele><time>2026-05-01T12:18:42.233Z</time></trkpt><trkpt lat="44.1015227" lon="12.3409034"><ele>29.5</ele><time>2026-05-01T12:18:43.218Z</time></trkpt><trkpt lat="44.1013747" lon="12.341173"><ele>30.0</ele><time>2026-05-01T12:18:44.217Z</time></trkpt><trkpt lat="44.1012229" lon="12.3413906"><ele>29.333333333333336</ele><time>2026-05-01T12:18:45.21Z</time></trkpt><trkpt lat="44.101091" lon="12.3416002"><ele>28.666666666666668</ele><time>2026-05-01T12:18:46.209Z</time></trkpt><trkpt lat="44.1009457" lon="12.3418109"><ele>28.0</ele><time>2026-05-01T12:18:47.218Z</time></trkpt><trkpt lat="44.1008279" lon="12.3419989"><ele>28.0</ele><time>2026-05-01T12:18:48.219Z</time></trkpt><trkpt lat="44.1007309" lon="12.3421896"><ele>28.0</ele><time>2026-05-01T12:18:49.221Z</time></trkpt><trkpt lat="44.1006201" lon="12.3423916"><ele>28.0</ele><time>2026-05-01T12:18:50.217Z</time></trkpt><trkpt lat="44.1005003" lon="12.3426216"><ele>28.0</ele><time>2026-05-01T12:18:51.208Z</time></trkpt><trkpt lat="44.100397" lon="12.3428416"><ele>28.0</ele><time>2026-05-01T12:18:52.223Z</time></trkpt><trkpt lat="44.1003045" lon="12.343059"><ele>28.0</ele><time>2026-05-01T12:18:53.209Z</time></trkpt><trkpt lat="44.1002381" lon="12.3432678"><ele>28.0</ele><time>2026-05-01T12:18:54.205Z</time></trkpt><trkpt lat="44.1001984" lon="12.3434675"><ele>28.0</ele><time>2026-05-01T12:18:55.218Z</time></trkpt><trkpt lat="44.1001589" lon="12.343645"><ele>28.0</ele><time>2026-05-01T12:18:56.211Z</time></trkpt><trkpt lat="44.1001158" lon="12.3438106"><ele>28.0</ele><time>2026-05-01T12:18:57.229Z</time></trkpt><trkpt lat="44.1000779" lon="12.343964"><ele>28.0</ele><time>2026-05-01T12:18:58.224Z</time></trkpt><trkpt lat="44.1000416" lon="12.3441236"><ele>28.0</ele><time>2026-05-01T12:18:59.218Z</time></trkpt><trkpt lat="44.1000051" lon="12.3442806"><ele>28.0</ele><time>2026-05-01T12:19:00.209Z</time></trkpt><trkpt lat="44.0999572" lon="12.3444333"><ele>28.0</ele><time>2026-05-01T12:19:01.218Z</time></trkpt><trkpt lat="44.0999152" lon="12.3445829"><ele>28.0</ele><time>2026-05-01T12:19:02.218Z</time></trkpt><trkpt lat="44.0998666" lon="12.3447299"><ele>28.0</ele><time>2026-05-01T12:19:03.218Z</time></trkpt><trkpt lat="44.0998115" lon="12.3448729"><ele>28.0</ele><time>2026-05-01T12:19:04.209Z</time></trkpt><trkpt lat="44.0997664" lon="12.3450299"><ele>28.0</ele><time>2026-05-01T12:19:05.221Z</time></trkpt><trkpt lat="44.0997234" lon="12.3451825"><ele>28.0</ele><time>2026-05-01T12:19:06.219Z</time></trkpt><trkpt lat="44.0996662" lon="12.345333"><ele>28.0</ele><time>2026-05-01T12:19:07.217Z</time></trkpt><trkpt lat="44.0996127" lon="12.3454825"><ele>28.0</ele><time>2026-05-01T12:19:08.225Z</time></trkpt><trkpt lat="44.0995673" lon="12.3456429"><ele>28.0</ele><time>2026-05-01T12:19:09.21Z</time></trkpt><trkpt lat="44.0995072" lon="12.3458204"><ele>28.0</ele><time>2026-05-01T12:19:10.218Z</time></trkpt><trkpt lat="44.0994614" lon="12.3459887"><ele>28.0</ele><time>2026-05-01T12:19:11.217Z</time></trkpt><trkpt lat="44.0994223" lon="12.3461392"><ele>28.0</ele><time>2026-05-01T12:19:12.209Z</time></trkpt><trkpt lat="44.09939" lon="12.3463125"><ele>28.0</ele><time>2026-05-01T12:19:13.22Z</time></trkpt><trkpt lat="44.0993632" lon="12.3464785"><ele>28.0</ele><time>2026-05-01T12:19:14.218Z</time></trkpt><trkpt lat="44.0993391" lon="12.346644"><ele>27.999999999999996</ele><time>2026-05-01T12:19:15.21Z</time></trkpt><trkpt lat="44.09932" lon="12.34679"><ele>27.999999999999996</ele><time>2026-05-01T12:19:16.218Z</time></trkpt><trkpt lat="44.0993132" lon="12.3469397"><ele>28.0</ele><time>2026-05-01T12:19:17.208Z</time></trkpt><trkpt lat="44.099297" lon="12.3470844"><ele>28.0</ele><time>2026-05-01T12:19:18.219Z</time></trkpt><trkpt lat="44.0992757" lon="12.3472203"><ele>27.599999999999998</ele><time>2026-05-01T12:19:19.219Z</time></trkpt><trkpt lat="44.0992554" lon="12.3473681"><ele>27.199999999999996</ele><time>2026-05-01T12:19:20.217Z</time></trkpt><trkpt lat="44.0992446" lon="12.3475024"><ele>26.8</ele><time>2026-05-01T12:19:21.209Z</time></trkpt><trkpt lat="44.0992262" lon="12.3476422"><ele>26.4</ele><time>2026-05-01T12:19:22.208Z</time></trkpt><trkpt lat="44.0991903" lon="12.3477652"><ele>26.0</ele><time>2026-05-01T12:19:23.213Z</time></trkpt><trkpt lat="44.0991333" lon="12.3478803"><ele>26.200000000000003</ele><time>2026-05-01T12:19:24.218Z</time></trkpt><trkpt lat="44.0990618" lon="12.3479765"><ele>26.400000000000002</ele><time>2026-05-01T12:19:25.21Z</time></trkpt><trkpt lat="44.0989898" lon="12.3480438"><ele>26.6</ele><time>2026-05-01T12:19:26.219Z</time></trkpt><trkpt lat="44.0989" lon="12.3480346"><ele>26.8</ele><time>2026-05-01T12:19:27.217Z</time></trkpt><trkpt lat="44.0988081" lon="12.3480084"><ele>27.0</ele><time>2026-05-01T12:19:28.213Z</time></trkpt><trkpt lat="44.098681" lon="12.3479206"><ele>27.0</ele><time>2026-05-01T12:19:29.217Z</time></trkpt><trkpt lat="44.0985275" lon="12.3478226"><ele>27.0</ele><time>2026-05-01T12:19:30.207Z</time></trkpt><trkpt lat="44.0983692" lon="12.3477001"><ele>27.0</ele><time>2026-05-01T12:19:31.225Z</time></trkpt><trkpt lat="44.0982024" lon="12.3475371"><ele>27.333333333333336</ele><time>2026-05-01T12:19:32.208Z</time></trkpt><trkpt lat="44.0980411" lon="12.3473788"><ele>27.666666666666668</ele><time>2026-05-01T12:19:33.206Z</time></trkpt><trkpt lat="44.097891" lon="12.3472027"><ele>28.0</ele><time>2026-05-01T12:19:34.212Z</time></trkpt><trkpt lat="44.0977507" lon="12.3470105"><ele>28.0</ele><time>2026-05-01T12:19:35.217Z</time></trkpt><trkpt lat="44.0976553" lon="12.3469181"><ele>28.0</ele><time>2026-05-01T12:19:36.218Z</time></trkpt><trkpt lat="44.09755" lon="12.3468319"><ele>28.0</ele><time>2026-05-01T12:19:37.219Z</time></trkpt><trkpt lat="44.0974073" lon="12.3468444"><ele>28.0</ele><time>2026-05-01T12:19:38.209Z</time></trkpt><trkpt lat="44.0971942" lon="12.3468706"><ele>28.0</ele><time>2026-05-01T12:19:39.22Z</time></trkpt><trkpt lat="44.0970078" lon="12.3468665"><ele>28.0</ele><time>2026-05-01T12:19:40.217Z</time></trkpt><trkpt lat="44.0967861" lon="12.3468806"><ele>28.0</ele><time>2026-05-01T12:19:41.219Z</time></trkpt><trkpt lat="44.0965765" lon="12.3468921"><ele>28.0</ele><time>2026-05-01T12:19:42.224Z</time></trkpt><trkpt lat="44.0963273" lon="12.3468614"><ele>28.0</ele><time>2026-05-01T12:19:43.209Z</time></trkpt><trkpt lat="44.096098" lon="12.3468159"><ele>28.0</ele><time>2026-05-01T12:19:44.221Z</time></trkpt><trkpt lat="44.0958764" lon="12.3467523"><ele>28.0</ele><time>2026-05-01T12:19:45.206Z</time></trkpt><trkpt lat="44.09566" lon="12.3467127"><ele>28.0</ele><time>2026-05-01T12:19:46.208Z</time></trkpt><trkpt lat="44.0954375" lon="12.3466873"><ele>28.5</ele><time>2026-05-01T12:19:47.207Z</time></trkpt><trkpt lat="44.0951856" lon="12.3466974"><ele>29.0</ele><time>2026-05-01T12:19:48.209Z</time></trkpt><trkpt lat="44.094947" lon="12.3467177"><ele>29.5</ele><time>2026-05-01T12:19:49.218Z</time></trkpt><trkpt lat="44.0947159" lon="12.3467666"><ele>30.0</ele><time>2026-05-01T12:19:50.225Z</time></trkpt><trkpt lat="44.0944763" lon="12.3468313"><ele>30.0</ele><time>2026-05-01T12:19:51.218Z</time></trkpt><trkpt lat="44.0942453" lon="12.3468746"><ele>30.0</ele><time>2026-05-01T12:19:52.22Z</time></trkpt><trkpt lat="44.0940251" lon="12.346923"><ele>30.333333333333336</ele><time>2026-05-01T12:19:53.218Z</time></trkpt><trkpt lat="44.0937956" lon="12.3469807"><ele>30.666666666666668</ele><time>2026-05-01T12:19:54.209Z</time></trkpt><trkpt lat="44.0935819" lon="12.3470187"><ele>31.0</ele><time>2026-05-01T12:19:55.218Z</time></trkpt><trkpt lat="44.0934397" lon="12.3470694"><ele>31.0</ele><time>2026-05-01T12:19:56.209Z</time></trkpt><trkpt lat="44.0932848" lon="12.3471595"><ele>31.0</ele><time>2026-05-01T12:19:57.223Z</time></trkpt><trkpt lat="44.0931305" lon="12.3472722"><ele>31.0</ele><time>2026-05-01T12:19:58.212Z</time></trkpt><trkpt lat="44.093" lon="12.3474338"><ele>31.333333333333336</ele><time>2026-05-01T12:19:59.209Z</time></trkpt><trkpt lat="44.0928636" lon="12.3476094"><ele>31.666666666666664</ele><time>2026-05-01T12:20:00.214Z</time></trkpt><trkpt lat="44.0927284" lon="12.3477868"><ele>32.0</ele><time>2026-05-01T12:20:01.207Z</time></trkpt><trkpt lat="44.0925531" lon="12.3479129"><ele>31.0</ele><time>2026-05-01T12:20:02.21Z</time></trkpt><trkpt lat="44.0923495" lon="12.348054"><ele>30.0</ele><time>2026-05-01T12:20:03.219Z</time></trkpt><trkpt lat="44.0921433" lon="12.3481776"><ele>30.0</ele><time>2026-05-01T12:20:04.218Z</time></trkpt><trkpt lat="44.0919536" lon="12.3483185"><ele>30.0</ele><time>2026-05-01T12:20:05.206Z</time></trkpt><trkpt lat="44.0917426" lon="12.348453"><ele>30.0</ele><time>2026-05-01T12:20:06.23Z</time></trkpt><trkpt lat="44.0915382" lon="12.3485514"><ele>32.0</ele><time>2026-05-01T12:20:07.218Z</time></trkpt><trkpt lat="44.0913356" lon="12.3486186"><ele>34.0</ele><time>2026-05-01T12:20:08.219Z</time></trkpt><trkpt lat="44.0911501" lon="12.3486685"><ele>36.0</ele><time>2026-05-01T12:20:09.217Z</time></trkpt><trkpt lat="44.0909656" lon="12.348691"><ele>38.0</ele><time>2026-05-01T12:20:10.211Z</time></trkpt><trkpt lat="44.0907086" lon="12.3486123"><ele>40.0</ele><time>2026-05-01T12:20:11.209Z</time></trkpt><trkpt lat="44.0904703" lon="12.3485578"><ele>40.0</ele><time>2026-05-01T12:20:12.21Z</time></trkpt><trkpt lat="44.0902208" lon="12.348511"><ele>40.0</ele><time>2026-05-01T12:20:13.227Z</time></trkpt><trkpt lat="44.0899783" lon="12.3484548"><ele>42.5</ele><time>2026-05-01T12:20:14.219Z</time></trkpt><trkpt lat="44.0897279" lon="12.3484928"><ele>45.0</ele><time>2026-05-01T12:20:15.226Z</time></trkpt><trkpt lat="44.0894875" lon="12.3485708"><ele>45.0</ele><time>2026-05-01T12:20:16.217Z</time></trkpt><trkpt lat="44.0892522" lon="12.3486352"><ele>45.0</ele><time>2026-05-01T12:20:17.217Z</time></trkpt><trkpt lat="44.0890112" lon="12.3487048"><ele>44.333333333333336</ele><time>2026-05-01T12:20:18.208Z</time></trkpt><trkpt lat="44.0888341" lon="12.3487441"><ele>43.66666666666667</ele><time>2026-05-01T12:20:19.211Z</time></trkpt><trkpt lat="44.0886756" lon="12.3487532"><ele>43.0</ele><time>2026-05-01T12:20:20.219Z</time></trkpt><trkpt lat="44.0885427" lon="12.348745"><ele>43.0</ele><time>2026-05-01T12:20:21.209Z</time></trkpt><trkpt lat="44.0883745" lon="12.3487287"><ele>43.0</ele><time>2026-05-01T12:20:22.223Z</time></trkpt><trkpt lat="44.0882271" lon="12.3487038"><ele>43.0</ele><time>2026-05-01T12:20:23.218Z</time></trkpt><trkpt lat="44.0881544" lon="12.3486571"><ele>43.0</ele><time>2026-05-01T12:20:25.218Z</time></trkpt><trkpt lat="44.0880991" lon="12.3488209"><ele>42.4</ele><time>2026-05-01T12:20:27.208Z</time></trkpt><trkpt lat="44.0880924" lon="12.3489575"><ele>41.8</ele><time>2026-05-01T12:20:28.21Z</time></trkpt><trkpt lat="44.0880876" lon="12.3490673"><ele>41.2</ele><time>2026-05-01T12:20:29.217Z</time></trkpt><trkpt lat="44.0880708" lon="12.3492178"><ele>40.6</ele><time>2026-05-01T12:20:30.21Z</time></trkpt><trkpt lat="44.0880515" lon="12.349331"><ele>40.0</ele><time>2026-05-01T12:20:31.22Z</time></trkpt><trkpt lat="44.0880237" lon="12.3494746"><ele>40.0</ele><time>2026-05-01T12:20:33.226Z</time></trkpt><trkpt lat="44.0880362" lon="12.3495831"><ele>40.0</ele><time>2026-05-01T12:20:35.215Z</time></trkpt><trkpt lat="44.0880365" lon="12.3497524"><ele>40.0</ele><time>2026-05-01T12:20:37.21Z</time></trkpt><trkpt lat="44.0880322" lon="12.3498488"><ele>40.0</ele><time>2026-05-01T12:20:38.218Z</time></trkpt><trkpt lat="44.0880612" lon="12.3499819"><ele>40.0</ele><time>2026-05-01T12:20:40.218Z</time></trkpt><trkpt lat="44.0881135" lon="12.3500828"><ele>38.0</ele><time>2026-05-01T12:20:43.243Z</time></trkpt><trkpt lat="44.0881203" lon="12.3501732"><ele>38.0</ele><time>2026-05-01T12:20:47.218Z</time></trkpt><trkpt lat="44.0881439" lon="12.350269"><ele>38.0</ele><time>2026-05-01T12:20:56.212Z</time></trkpt><trkpt lat="44.0880968" lon="12.3501896"><ele>38.0</ele><time>2026-05-01T12:24:47.22Z</time></trkpt><trkpt lat="44.08812" lon="12.3502723"><ele>38.0</ele><time>2026-05-01T12:31:05.222Z</time></trkpt><trkpt lat="44.0881746" lon="12.3503292"><ele>38.0</ele><time>2026-05-01T12:31:12.219Z</time></trkpt></trkseg></trk></gpx>